<?xml version='1.0' encoding='UTF-8'?><gpx version="1.1" creator="JPX - https://github.com/jenetics/jpx" xmlns="http://www.topografix.com/GPX/1/1"><trk><trkseg><trkpt lat="44.9501255" lon="8.0267676"><ele>243.99999999999997</ele><time>2026-04-18T13:00:20.259Z</time></trkpt><trkpt lat="44.950196" lon="8.0267477"><ele>244.0</ele><time>2026-04-18T13:00:24.271Z</time></trkpt><trkpt lat="44.9501799" lon="8.026657"><ele>244.0</ele><time>2026-04-18T13:01:00.226Z</time></trkpt><trkpt lat="44.9502581" lon="8.0265272"><ele>244.0</ele><time>2026-04-18T13:01:02.26Z</time></trkpt><trkpt lat="44.9502931" lon="8.0264323"><ele>243.99999999999997</ele><time>2026-04-18T13:01:06.259Z</time></trkpt><trkpt lat="44.9503243" lon="8.0263137"><ele>244.0</ele><time>2026-04-18T13:01:36.259Z</time></trkpt><trkpt lat="44.9503778" lon="8.0261691"><ele>242.71428571428567</ele><time>2026-04-18T13:01:38.26Z</time></trkpt><trkpt lat="44.9503976" lon="8.0260827"><ele>241.42857142857142</ele><time>2026-04-18T13:01:39.259Z</time></trkpt><trkpt lat="44.9504112" lon="8.0259958"><ele>240.1428571428571</ele><time>2026-04-18T13:01:40.259Z</time></trkpt><trkpt lat="44.9504156" lon="8.0258949"><ele>238.85714285714283</ele><time>2026-04-18T13:01:41.259Z</time></trkpt><trkpt lat="44.9504137" lon="8.0257868"><ele>237.57142857142856</ele><time>2026-04-18T13:01:42.26Z</time></trkpt><trkpt lat="44.9504136" lon="8.025667"><ele>236.28571428571428</ele><time>2026-04-18T13:01:43.259Z</time></trkpt><trkpt lat="44.9504071" lon="8.0255477"><ele>235.0</ele><time>2026-04-18T13:01:44.26Z</time></trkpt><trkpt lat="44.9504006" lon="8.0254241"><ele>234.0</ele><time>2026-04-18T13:01:45.259Z</time></trkpt><trkpt lat="44.9503899" lon="8.0252962"><ele>233.0</ele><time>2026-04-18T13:01:46.26Z</time></trkpt><trkpt lat="44.9503812" lon="8.0251618"><ele>232.0</ele><time>2026-04-18T13:01:47.259Z</time></trkpt><trkpt lat="44.9503685" lon="8.0250191"><ele>231.0</ele><time>2026-04-18T13:01:48.259Z</time></trkpt><trkpt lat="44.9503545" lon="8.0248933"><ele>230.0</ele><time>2026-04-18T13:01:49.259Z</time></trkpt><trkpt lat="44.9503469" lon="8.0247705"><ele>229.16666666666669</ele><time>2026-04-18T13:01:50.259Z</time></trkpt><trkpt lat="44.9503438" lon="8.0246438"><ele>228.33333333333334</ele><time>2026-04-18T13:01:51.26Z</time></trkpt><trkpt lat="44.9503408" lon="8.0245031"><ele>227.5</ele><time>2026-04-18T13:01:52.259Z</time></trkpt><trkpt lat="44.9503326" lon="8.0243759"><ele>226.66666666666669</ele><time>2026-04-18T13:01:53.259Z</time></trkpt><trkpt lat="44.9503248" lon="8.0242513"><ele>225.83333333333334</ele><time>2026-04-18T13:01:54.26Z</time></trkpt><trkpt lat="44.9503251" lon="8.0241474"><ele>225.0</ele><time>2026-04-18T13:01:55.259Z</time></trkpt><trkpt lat="44.9503173" lon="8.024053"><ele>225.0</ele><time>2026-04-18T13:01:56.259Z</time></trkpt><trkpt lat="44.9502729" lon="8.0239488"><ele>225.0</ele><time>2026-04-18T13:01:58.259Z</time></trkpt><trkpt lat="44.9502034" lon="8.0239884"><ele>225.0</ele><time>2026-04-18T13:02:00.26Z</time></trkpt><trkpt lat="44.950144" lon="8.0241238"><ele>225.0</ele><time>2026-04-18T13:02:02.259Z</time></trkpt><trkpt lat="44.950107" lon="8.0242037"><ele>225.0</ele><time>2026-04-18T13:02:03.26Z</time></trkpt><trkpt lat="44.950061" lon="8.0242918"><ele>225.0</ele><time>2026-04-18T13:02:04.259Z</time></trkpt><trkpt lat="44.9499974" lon="8.0243625"><ele>222.16666666666666</ele><time>2026-04-18T13:02:05.259Z</time></trkpt><trkpt lat="44.9499222" lon="8.0243994"><ele>219.33333333333331</ele><time>2026-04-18T13:02:06.26Z</time></trkpt><trkpt lat="44.9498481" lon="8.0243779"><ele>216.5</ele><time>2026-04-18T13:02:07.259Z</time></trkpt><trkpt lat="44.9497814" lon="8.0243176"><ele>213.66666666666666</ele><time>2026-04-18T13:02:08.259Z</time></trkpt><trkpt lat="44.9497531" lon="8.0242244"><ele>210.83333333333331</ele><time>2026-04-18T13:02:09.259Z</time></trkpt><trkpt lat="44.9497598" lon="8.0241104"><ele>208.0</ele><time>2026-04-18T13:02:10.259Z</time></trkpt><trkpt lat="44.9497997" lon="8.0240014"><ele>206.25</ele><time>2026-04-18T13:02:11.259Z</time></trkpt><trkpt lat="44.949866" lon="8.0238826"><ele>204.5</ele><time>2026-04-18T13:02:12.26Z</time></trkpt><trkpt lat="44.9499248" lon="8.0237584"><ele>202.75</ele><time>2026-04-18T13:02:13.259Z</time></trkpt><trkpt lat="44.9499727" lon="8.0236084"><ele>201.0</ele><time>2026-04-18T13:02:14.259Z</time></trkpt><trkpt lat="44.950011" lon="8.0234406"><ele>200.0</ele><time>2026-04-18T13:02:15.259Z</time></trkpt><trkpt lat="44.9500275" lon="8.0232524"><ele>199.0</ele><time>2026-04-18T13:02:16.259Z</time></trkpt><trkpt lat="44.95004" lon="8.0230636"><ele>198.0</ele><time>2026-04-18T13:02:17.259Z</time></trkpt><trkpt lat="44.9500549" lon="8.0228633"><ele>197.0</ele><time>2026-04-18T13:02:18.259Z</time></trkpt><trkpt lat="44.9500656" lon="8.0226548"><ele>199.0</ele><time>2026-04-18T13:02:19.26Z</time></trkpt><trkpt lat="44.9500762" lon="8.0224313"><ele>201.0</ele><time>2026-04-18T13:02:20.259Z</time></trkpt><trkpt lat="44.9500736" lon="8.0222085"><ele>203.0</ele><time>2026-04-18T13:02:21.259Z</time></trkpt><trkpt lat="44.9500642" lon="8.0219917"><ele>203.0</ele><time>2026-04-18T13:02:22.259Z</time></trkpt><trkpt lat="44.9500522" lon="8.0217728"><ele>203.0</ele><time>2026-04-18T13:02:23.259Z</time></trkpt><trkpt lat="44.9500398" lon="8.0215621"><ele>203.0</ele><time>2026-04-18T13:02:24.26Z</time></trkpt><trkpt lat="44.9500313" lon="8.0213462"><ele>197.75</ele><time>2026-04-18T13:02:25.259Z</time></trkpt><trkpt lat="44.9500234" lon="8.0211393"><ele>192.5</ele><time>2026-04-18T13:02:26.259Z</time></trkpt><trkpt lat="44.9500138" lon="8.0209473"><ele>187.25</ele><time>2026-04-18T13:02:27.259Z</time></trkpt><trkpt lat="44.9500059" lon="8.0207502"><ele>182.0</ele><time>2026-04-18T13:02:28.259Z</time></trkpt><trkpt lat="44.9499985" lon="8.0205617"><ele>181.6</ele><time>2026-04-18T13:02:29.259Z</time></trkpt><trkpt lat="44.9499925" lon="8.0204084"><ele>181.2</ele><time>2026-04-18T13:02:30.259Z</time></trkpt><trkpt lat="44.9499927" lon="8.0202683"><ele>180.8</ele><time>2026-04-18T13:02:31.26Z</time></trkpt><trkpt lat="44.9499998" lon="8.0201759"><ele>180.4</ele><time>2026-04-18T13:02:32.259Z</time></trkpt><trkpt lat="44.9500612" lon="8.0200422"><ele>180.0</ele><time>2026-04-18T13:02:34.259Z</time></trkpt><trkpt lat="44.9501199" lon="8.02"><ele>180.0</ele><time>2026-04-18T13:02:35.259Z</time></trkpt><trkpt lat="44.9501887" lon="8.019998"><ele>180.0</ele><time>2026-04-18T13:02:36.259Z</time></trkpt><trkpt lat="44.9502693" lon="8.0199952"><ele>180.0</ele><time>2026-04-18T13:02:37.259Z</time></trkpt><trkpt lat="44.9503602" lon="8.0200023"><ele>180.0</ele><time>2026-04-18T13:02:38.259Z</time></trkpt><trkpt lat="44.9504616" lon="8.0200101"><ele>180.0</ele><time>2026-04-18T13:02:39.259Z</time></trkpt><trkpt lat="44.9505772" lon="8.0200143"><ele>180.0</ele><time>2026-04-18T13:02:40.259Z</time></trkpt><trkpt lat="44.9506997" lon="8.0200186"><ele>180.0</ele><time>2026-04-18T13:02:41.259Z</time></trkpt><trkpt lat="44.9508269" lon="8.0200168"><ele>180.0</ele><time>2026-04-18T13:02:42.26Z</time></trkpt><trkpt lat="44.9509657" lon="8.0200019"><ele>180.0</ele><time>2026-04-18T13:02:43.259Z</time></trkpt><trkpt lat="44.9511048" lon="8.0199771"><ele>179.66666666666666</ele><time>2026-04-18T13:02:44.259Z</time></trkpt><trkpt lat="44.9512502" lon="8.0199441"><ele>179.33333333333331</ele><time>2026-04-18T13:02:45.259Z</time></trkpt><trkpt lat="44.9514017" lon="8.0198871"><ele>179.0</ele><time>2026-04-18T13:02:46.259Z</time></trkpt><trkpt lat="44.9515457" lon="8.0198159"><ele>179.0</ele><time>2026-04-18T13:02:47.259Z</time></trkpt><trkpt lat="44.9516957" lon="8.0197406"><ele>179.0</ele><time>2026-04-18T13:02:48.26Z</time></trkpt><trkpt lat="44.9518502" lon="8.0196473"><ele>179.0</ele><time>2026-04-18T13:02:49.259Z</time></trkpt><trkpt lat="44.9520078" lon="8.0195502"><ele>179.33333333333331</ele><time>2026-04-18T13:02:50.259Z</time></trkpt><trkpt lat="44.9521704" lon="8.0194454"><ele>179.66666666666666</ele><time>2026-04-18T13:02:51.259Z</time></trkpt><trkpt lat="44.952329" lon="8.0193443"><ele>180.0</ele><time>2026-04-18T13:02:52.259Z</time></trkpt><trkpt lat="44.9524843" lon="8.0192438"><ele>178.33333333333334</ele><time>2026-04-18T13:02:53.26Z</time></trkpt><trkpt lat="44.9526445" lon="8.019141"><ele>176.66666666666669</ele><time>2026-04-18T13:02:54.259Z</time></trkpt><trkpt lat="44.9528021" lon="8.0190382"><ele>175.0</ele><time>2026-04-18T13:02:55.259Z</time></trkpt><trkpt lat="44.9529586" lon="8.0189363"><ele>175.0</ele><time>2026-04-18T13:02:56.259Z</time></trkpt><trkpt lat="44.9531219" lon="8.018826"><ele>175.0</ele><time>2026-04-18T13:02:57.259Z</time></trkpt><trkpt lat="44.9532753" lon="8.0187273"><ele>175.0</ele><time>2026-04-18T13:02:58.26Z</time></trkpt><trkpt lat="44.9534328" lon="8.0186282"><ele>176.66666666666669</ele><time>2026-04-18T13:02:59.26Z</time></trkpt><trkpt lat="44.9535871" lon="8.0185317"><ele>178.33333333333334</ele><time>2026-04-18T13:03:00.259Z</time></trkpt><trkpt lat="44.9537433" lon="8.018439"><ele>180.0</ele><time>2026-04-18T13:03:01.259Z</time></trkpt><trkpt lat="44.9539001" lon="8.0183453"><ele>179.0</ele><time>2026-04-18T13:03:02.26Z</time></trkpt><trkpt lat="44.9540573" lon="8.0182433"><ele>178.0</ele><time>2026-04-18T13:03:03.259Z</time></trkpt><trkpt lat="44.9542109" lon="8.0181438"><ele>177.0</ele><time>2026-04-18T13:03:04.259Z</time></trkpt><trkpt lat="44.9543659" lon="8.0180423"><ele>177.0</ele><time>2026-04-18T13:03:05.259Z</time></trkpt><trkpt lat="44.954525" lon="8.017944"><ele>177.0</ele><time>2026-04-18T13:03:06.259Z</time></trkpt><trkpt lat="44.9546836" lon="8.0178332"><ele>177.0</ele><time>2026-04-18T13:03:07.259Z</time></trkpt><trkpt lat="44.9548423" lon="8.0177235"><ele>177.0</ele><time>2026-04-18T13:03:08.26Z</time></trkpt><trkpt lat="44.9550009" lon="8.0176195"><ele>177.0</ele><time>2026-04-18T13:03:09.259Z</time></trkpt><trkpt lat="44.9551608" lon="8.0175238"><ele>177.0</ele><time>2026-04-18T13:03:10.26Z</time></trkpt><trkpt lat="44.9553192" lon="8.0174302"><ele>177.0</ele><time>2026-04-18T13:03:11.259Z</time></trkpt><trkpt lat="44.9554831" lon="8.0173693"><ele>177.0</ele><time>2026-04-18T13:03:12.259Z</time></trkpt><trkpt lat="44.9556549" lon="8.0173399"><ele>177.0</ele><time>2026-04-18T13:03:13.26Z</time></trkpt><trkpt lat="44.9558249" lon="8.0173364"><ele>177.0</ele><time>2026-04-18T13:03:14.26Z</time></trkpt><trkpt lat="44.9559939" lon="8.0173545"><ele>177.0</ele><time>2026-04-18T13:03:15.259Z</time></trkpt><trkpt lat="44.956163" lon="8.0174048"><ele>177.0</ele><time>2026-04-18T13:03:16.259Z</time></trkpt><trkpt lat="44.9563271" lon="8.0174638"><ele>177.33333333333334</ele><time>2026-04-18T13:03:17.259Z</time></trkpt><trkpt lat="44.9564983" lon="8.0175329"><ele>177.66666666666669</ele><time>2026-04-18T13:03:18.259Z</time></trkpt><trkpt lat="44.9566617" lon="8.0175995"><ele>178.0</ele><time>2026-04-18T13:03:19.259Z</time></trkpt><trkpt lat="44.9568286" lon="8.0176616"><ele>178.0</ele><time>2026-04-18T13:03:20.259Z</time></trkpt><trkpt lat="44.956994" lon="8.0177322"><ele>178.0</ele><time>2026-04-18T13:03:21.26Z</time></trkpt><trkpt lat="44.9571627" lon="8.0177913"><ele>178.0</ele><time>2026-04-18T13:03:22.26Z</time></trkpt><trkpt lat="44.957324" lon="8.0178622"><ele>178.0</ele><time>2026-04-18T13:03:23.259Z</time></trkpt><trkpt lat="44.9574852" lon="8.0179252"><ele>178.0</ele><time>2026-04-18T13:03:24.259Z</time></trkpt><trkpt lat="44.9576507" lon="8.017989"><ele>178.0</ele><time>2026-04-18T13:03:25.26Z</time></trkpt><trkpt lat="44.9578167" lon="8.0180602"><ele>178.33333333333334</ele><time>2026-04-18T13:03:26.259Z</time></trkpt><trkpt lat="44.9579787" lon="8.0181135"><ele>178.66666666666666</ele><time>2026-04-18T13:03:27.26Z</time></trkpt><trkpt lat="44.9581502" lon="8.01815"><ele>179.0</ele><time>2026-04-18T13:03:28.259Z</time></trkpt><trkpt lat="44.9583118" lon="8.0181372"><ele>179.33333333333331</ele><time>2026-04-18T13:03:29.26Z</time></trkpt><trkpt lat="44.9584871" lon="8.0180767"><ele>179.66666666666666</ele><time>2026-04-18T13:03:30.26Z</time></trkpt><trkpt lat="44.9586369" lon="8.0179867"><ele>180.0</ele><time>2026-04-18T13:03:31.26Z</time></trkpt><trkpt lat="44.9587924" lon="8.017889"><ele>180.0</ele><time>2026-04-18T13:03:32.259Z</time></trkpt><trkpt lat="44.9589467" lon="8.0177838"><ele>180.0</ele><time>2026-04-18T13:03:33.26Z</time></trkpt><trkpt lat="44.9590955" lon="8.0176731"><ele>180.0</ele><time>2026-04-18T13:03:34.259Z</time></trkpt><trkpt lat="44.9592439" lon="8.0175724"><ele>180.66666666666666</ele><time>2026-04-18T13:03:35.259Z</time></trkpt><trkpt lat="44.9593875" lon="8.0174701"><ele>181.33333333333331</ele><time>2026-04-18T13:03:36.26Z</time></trkpt><trkpt lat="44.9595268" lon="8.0173684"><ele>182.0</ele><time>2026-04-18T13:03:37.26Z</time></trkpt><trkpt lat="44.9596639" lon="8.0172713"><ele>182.0</ele><time>2026-04-18T13:03:38.26Z</time></trkpt><trkpt lat="44.9598024" lon="8.0171731"><ele>182.0</ele><time>2026-04-18T13:03:39.259Z</time></trkpt><trkpt lat="44.959943" lon="8.0170825"><ele>182.0</ele><time>2026-04-18T13:03:40.259Z</time></trkpt><trkpt lat="44.9600831" lon="8.0169842"><ele>181.66666666666666</ele><time>2026-04-18T13:03:41.259Z</time></trkpt><trkpt lat="44.9602215" lon="8.0168917"><ele>181.33333333333334</ele><time>2026-04-18T13:03:42.259Z</time></trkpt><trkpt lat="44.9603649" lon="8.0167963"><ele>181.0</ele><time>2026-04-18T13:03:43.259Z</time></trkpt><trkpt lat="44.9605095" lon="8.016714"><ele>180.0</ele><time>2026-04-18T13:03:44.259Z</time></trkpt><trkpt lat="44.9606578" lon="8.0166357"><ele>179.0</ele><time>2026-04-18T13:03:45.26Z</time></trkpt><trkpt lat="44.9608064" lon="8.016557"><ele>178.0</ele><time>2026-04-18T13:03:46.259Z</time></trkpt><trkpt lat="44.9609476" lon="8.0164756"><ele>178.0</ele><time>2026-04-18T13:03:47.26Z</time></trkpt><trkpt lat="44.9610906" lon="8.0164053"><ele>178.0</ele><time>2026-04-18T13:03:48.259Z</time></trkpt><trkpt lat="44.9612342" lon="8.0163333"><ele>178.0</ele><time>2026-04-18T13:03:49.259Z</time></trkpt><trkpt lat="44.9613782" lon="8.0162585"><ele>178.0</ele><time>2026-04-18T13:03:50.259Z</time></trkpt><trkpt lat="44.9615295" lon="8.0161827"><ele>178.0</ele><time>2026-04-18T13:03:51.259Z</time></trkpt><trkpt lat="44.9616797" lon="8.016104"><ele>178.0</ele><time>2026-04-18T13:03:52.259Z</time></trkpt><trkpt lat="44.9618331" lon="8.0160208"><ele>178.75</ele><time>2026-04-18T13:03:53.259Z</time></trkpt><trkpt lat="44.9619826" lon="8.015951"><ele>179.5</ele><time>2026-04-18T13:03:54.259Z</time></trkpt><trkpt lat="44.9621186" lon="8.0158834"><ele>180.25</ele><time>2026-04-18T13:03:55.259Z</time></trkpt><trkpt lat="44.9622531" lon="8.0158182"><ele>181.0</ele><time>2026-04-18T13:03:56.26Z</time></trkpt><trkpt lat="44.9623889" lon="8.0157467"><ele>181.25</ele><time>2026-04-18T13:03:57.259Z</time></trkpt><trkpt lat="44.9625297" lon="8.0156799"><ele>181.5</ele><time>2026-04-18T13:03:58.259Z</time></trkpt><trkpt lat="44.9626665" lon="8.0156185"><ele>181.75</ele><time>2026-04-18T13:03:59.259Z</time></trkpt><trkpt lat="44.9628059" lon="8.0155349"><ele>182.0</ele><time>2026-04-18T13:04:00.259Z</time></trkpt><trkpt lat="44.9629439" lon="8.0154701"><ele>182.25</ele><time>2026-04-18T13:04:01.259Z</time></trkpt><trkpt lat="44.9630797" lon="8.0153982"><ele>182.5</ele><time>2026-04-18T13:04:02.259Z</time></trkpt><trkpt lat="44.9632194" lon="8.0153301"><ele>182.75</ele><time>2026-04-18T13:04:03.259Z</time></trkpt><trkpt lat="44.9633521" lon="8.0152563"><ele>183.0</ele><time>2026-04-18T13:04:04.26Z</time></trkpt><trkpt lat="44.9634885" lon="8.0151785"><ele>183.0</ele><time>2026-04-18T13:04:05.259Z</time></trkpt><trkpt lat="44.9636315" lon="8.0150882"><ele>183.0</ele><time>2026-04-18T13:04:06.259Z</time></trkpt><trkpt lat="44.9637751" lon="8.0149884"><ele>183.0</ele><time>2026-04-18T13:04:07.259Z</time></trkpt><trkpt lat="44.963916" lon="8.0148841"><ele>182.66666666666666</ele><time>2026-04-18T13:04:08.259Z</time></trkpt><trkpt lat="44.9640531" lon="8.014764"><ele>182.33333333333331</ele><time>2026-04-18T13:04:09.259Z</time></trkpt><trkpt lat="44.964193" lon="8.0146413"><ele>182.0</ele><time>2026-04-18T13:04:10.259Z</time></trkpt><trkpt lat="44.964325" lon="8.0145192"><ele>182.66666666666666</ele><time>2026-04-18T13:04:11.259Z</time></trkpt><trkpt lat="44.9644555" lon="8.0144063"><ele>183.33333333333334</ele><time>2026-04-18T13:04:12.259Z</time></trkpt><trkpt lat="44.9645917" lon="8.0142843"><ele>184.0</ele><time>2026-04-18T13:04:13.259Z</time></trkpt><trkpt lat="44.9647316" lon="8.0141616"><ele>183.33333333333334</ele><time>2026-04-18T13:04:14.259Z</time></trkpt><trkpt lat="44.9648729" lon="8.0140389"><ele>182.66666666666666</ele><time>2026-04-18T13:04:15.259Z</time></trkpt><trkpt lat="44.9650208" lon="8.0139145"><ele>182.0</ele><time>2026-04-18T13:04:16.259Z</time></trkpt><trkpt lat="44.9651688" lon="8.0137884"><ele>182.0</ele><time>2026-04-18T13:04:17.259Z</time></trkpt><trkpt lat="44.9653227" lon="8.0136541"><ele>182.0</ele><time>2026-04-18T13:04:18.259Z</time></trkpt><trkpt lat="44.9654659" lon="8.0135215"><ele>182.0</ele><time>2026-04-18T13:04:19.259Z</time></trkpt><trkpt lat="44.9656156" lon="8.0133765"><ele>181.33333333333331</ele><time>2026-04-18T13:04:20.26Z</time></trkpt><trkpt lat="44.9657604" lon="8.0132502"><ele>180.66666666666666</ele><time>2026-04-18T13:04:21.259Z</time></trkpt><trkpt lat="44.965906" lon="8.0131246"><ele>180.0</ele><time>2026-04-18T13:04:22.259Z</time></trkpt><trkpt lat="44.9660507" lon="8.0130002"><ele>183.0</ele><time>2026-04-18T13:04:23.259Z</time></trkpt><trkpt lat="44.9661964" lon="8.0128779"><ele>186.0</ele><time>2026-04-18T13:04:24.259Z</time></trkpt><trkpt lat="44.966347" lon="8.0127428"><ele>189.0</ele><time>2026-04-18T13:04:25.259Z</time></trkpt><trkpt lat="44.9664996" lon="8.0126225"><ele>189.0</ele><time>2026-04-18T13:04:26.259Z</time></trkpt><trkpt lat="44.9666579" lon="8.0125242"><ele>189.0</ele><time>2026-04-18T13:04:27.259Z</time></trkpt><trkpt lat="44.9668174" lon="8.0124361"><ele>189.0</ele><time>2026-04-18T13:04:28.259Z</time></trkpt><trkpt lat="44.9669831" lon="8.0123581"><ele>186.66666666666666</ele><time>2026-04-18T13:04:29.259Z</time></trkpt><trkpt lat="44.9671386" lon="8.0122878"><ele>184.33333333333331</ele><time>2026-04-18T13:04:30.259Z</time></trkpt><trkpt lat="44.9672994" lon="8.0122175"><ele>182.0</ele><time>2026-04-18T13:04:31.259Z</time></trkpt><trkpt lat="44.9674573" lon="8.0121529"><ele>182.0</ele><time>2026-04-18T13:04:32.259Z</time></trkpt><trkpt lat="44.9676186" lon="8.0121065"><ele>182.0</ele><time>2026-04-18T13:04:33.26Z</time></trkpt><trkpt lat="44.9677767" lon="8.0120731"><ele>182.0</ele><time>2026-04-18T13:04:34.259Z</time></trkpt><trkpt lat="44.9679385" lon="8.012069"><ele>182.0</ele><time>2026-04-18T13:04:35.259Z</time></trkpt><trkpt lat="44.9680994" lon="8.01208"><ele>182.0</ele><time>2026-04-18T13:04:36.259Z</time></trkpt><trkpt lat="44.9682611" lon="8.0121176"><ele>182.0</ele><time>2026-04-18T13:04:37.259Z</time></trkpt><trkpt lat="44.9684163" lon="8.0121728"><ele>181.33333333333331</ele><time>2026-04-18T13:04:38.259Z</time></trkpt><trkpt lat="44.968569" lon="8.0122406"><ele>180.66666666666666</ele><time>2026-04-18T13:04:39.259Z</time></trkpt><trkpt lat="44.9687227" lon="8.012324"><ele>180.0</ele><time>2026-04-18T13:04:40.259Z</time></trkpt><trkpt lat="44.9688741" lon="8.0124126"><ele>180.66666666666666</ele><time>2026-04-18T13:04:41.259Z</time></trkpt><trkpt lat="44.9690255" lon="8.0124898"><ele>181.33333333333331</ele><time>2026-04-18T13:04:42.259Z</time></trkpt><trkpt lat="44.9691678" lon="8.0125691"><ele>182.0</ele><time>2026-04-18T13:04:43.26Z</time></trkpt><trkpt lat="44.9693008" lon="8.0126442"><ele>182.0</ele><time>2026-04-18T13:04:44.259Z</time></trkpt><trkpt lat="44.9694166" lon="8.012704"><ele>182.0</ele><time>2026-04-18T13:04:45.259Z</time></trkpt><trkpt lat="44.9695268" lon="8.0127646"><ele>182.0</ele><time>2026-04-18T13:04:46.259Z</time></trkpt><trkpt lat="44.9696249" lon="8.0128169"><ele>182.0</ele><time>2026-04-18T13:04:47.26Z</time></trkpt><trkpt lat="44.9697101" lon="8.0128573"><ele>182.0</ele><time>2026-04-18T13:04:48.259Z</time></trkpt><trkpt lat="44.9697794" lon="8.0128919"><ele>182.0</ele><time>2026-04-18T13:04:49.259Z</time></trkpt><trkpt lat="44.9698727" lon="8.0128516"><ele>182.0</ele><time>2026-04-18T13:04:51.259Z</time></trkpt><trkpt lat="44.9699032" lon="8.0126778"><ele>182.0</ele><time>2026-04-18T13:04:53.259Z</time></trkpt><trkpt lat="44.9699005" lon="8.0125538"><ele>182.0</ele><time>2026-04-18T13:04:54.26Z</time></trkpt><trkpt lat="44.9699003" lon="8.0124023"><ele>182.0</ele><time>2026-04-18T13:04:55.259Z</time></trkpt><trkpt lat="44.9699022" lon="8.0122462"><ele>181.5</ele><time>2026-04-18T13:04:56.259Z</time></trkpt><trkpt lat="44.9699014" lon="8.0120768"><ele>181.0</ele><time>2026-04-18T13:04:57.259Z</time></trkpt><trkpt lat="44.9699065" lon="8.0119006"><ele>180.5</ele><time>2026-04-18T13:04:58.259Z</time></trkpt><trkpt lat="44.9699089" lon="8.0117233"><ele>180.0</ele><time>2026-04-18T13:04:59.259Z</time></trkpt><trkpt lat="44.9699181" lon="8.0115469"><ele>179.75</ele><time>2026-04-18T13:05:00.259Z</time></trkpt><trkpt lat="44.9699274" lon="8.0113874"><ele>179.5</ele><time>2026-04-18T13:05:01.259Z</time></trkpt><trkpt lat="44.9699387" lon="8.0112142"><ele>179.25</ele><time>2026-04-18T13:05:02.259Z</time></trkpt><trkpt lat="44.9699523" lon="8.0110449"><ele>179.0</ele><time>2026-04-18T13:05:03.259Z</time></trkpt><trkpt lat="44.9699581" lon="8.0108704"><ele>179.5</ele><time>2026-04-18T13:05:04.259Z</time></trkpt><trkpt lat="44.9699654" lon="8.0107235"><ele>180.0</ele><time>2026-04-18T13:05:05.259Z</time></trkpt><trkpt lat="44.9699762" lon="8.0105953"><ele>180.5</ele><time>2026-04-18T13:05:06.259Z</time></trkpt><trkpt lat="44.9699754" lon="8.0104723"><ele>181.0</ele><time>2026-04-18T13:05:07.259Z</time></trkpt><trkpt lat="44.9699845" lon="8.0103556"><ele>181.5</ele><time>2026-04-18T13:05:08.26Z</time></trkpt><trkpt lat="44.9699842" lon="8.0102621"><ele>182.0</ele><time>2026-04-18T13:05:09.259Z</time></trkpt><trkpt lat="44.9699947" lon="8.0101706"><ele>182.0</ele><time>2026-04-18T13:05:10.259Z</time></trkpt><trkpt lat="44.9699937" lon="8.0100213"><ele>182.0</ele><time>2026-04-18T13:05:12.26Z</time></trkpt><trkpt lat="44.9699873" lon="8.0098992"><ele>182.0</ele><time>2026-04-18T13:05:14.26Z</time></trkpt><trkpt lat="44.9700108" lon="8.0098011"><ele>182.0</ele><time>2026-04-18T13:05:16.259Z</time></trkpt><trkpt lat="44.9700928" lon="8.0097585"><ele>182.0</ele><time>2026-04-18T13:05:18.26Z</time></trkpt><trkpt lat="44.9701965" lon="8.0097549"><ele>182.0</ele><time>2026-04-18T13:05:20.259Z</time></trkpt><trkpt lat="44.9702962" lon="8.0097491"><ele>182.0</ele><time>2026-04-18T13:05:22.259Z</time></trkpt><trkpt lat="44.9704037" lon="8.0097413"><ele>182.0</ele><time>2026-04-18T13:05:24.26Z</time></trkpt><trkpt lat="44.9705109" lon="8.0097443"><ele>182.0</ele><time>2026-04-18T13:05:26.259Z</time></trkpt><trkpt lat="44.9706069" lon="8.009748"><ele>182.0</ele><time>2026-04-18T13:05:28.259Z</time></trkpt><trkpt lat="44.970712" lon="8.0097637"><ele>182.0</ele><time>2026-04-18T13:05:30.259Z</time></trkpt><trkpt lat="44.9708114" lon="8.0097709"><ele>182.0</ele><time>2026-04-18T13:05:32.259Z</time></trkpt><trkpt lat="44.9708908" lon="8.0097949"><ele>182.0</ele><time>2026-04-18T13:05:34.259Z</time></trkpt><trkpt lat="44.9709764" lon="8.0098257"><ele>182.0</ele><time>2026-04-18T13:05:36.259Z</time></trkpt><trkpt lat="44.9710645" lon="8.0098373"><ele>182.0</ele><time>2026-04-18T13:05:38.259Z</time></trkpt><trkpt lat="44.9711385" lon="8.009865"><ele>182.0</ele><time>2026-04-18T13:05:40.26Z</time></trkpt><trkpt lat="44.9712407" lon="8.0098896"><ele>182.0</ele><time>2026-04-18T13:05:42.259Z</time></trkpt><trkpt lat="44.9713387" lon="8.0099147"><ele>182.0</ele><time>2026-04-18T13:05:44.259Z</time></trkpt><trkpt lat="44.971436" lon="8.0099493"><ele>182.0</ele><time>2026-04-18T13:05:46.259Z</time></trkpt><trkpt lat="44.9715286" lon="8.0099774"><ele>182.0</ele><time>2026-04-18T13:05:48.259Z</time></trkpt><trkpt lat="44.9716216" lon="8.010007"><ele>182.0</ele><time>2026-04-18T13:05:50.259Z</time></trkpt><trkpt lat="44.9717165" lon="8.0100405"><ele>182.5</ele><time>2026-04-18T13:05:52.259Z</time></trkpt><trkpt lat="44.9717991" lon="8.0100658"><ele>183.0</ele><time>2026-04-18T13:05:54.259Z</time></trkpt><trkpt lat="44.9718702" lon="8.0100959"><ele>183.5</ele><time>2026-04-18T13:05:57.259Z</time></trkpt><trkpt lat="44.9719421" lon="8.0101007"><ele>184.0</ele><time>2026-04-18T13:06:10.259Z</time></trkpt><trkpt lat="44.9720279" lon="8.0101093"><ele>184.5</ele><time>2026-04-18T13:06:13.26Z</time></trkpt><trkpt lat="44.9721171" lon="8.0101364"><ele>185.0</ele><time>2026-04-18T13:06:16.259Z</time></trkpt><trkpt lat="44.9721951" lon="8.0101525"><ele>185.0</ele><time>2026-04-18T13:06:19.259Z</time></trkpt><trkpt lat="44.9722912" lon="8.0101925"><ele>185.0</ele><time>2026-04-18T13:06:22.259Z</time></trkpt><trkpt lat="44.9723861" lon="8.0102049"><ele>185.0</ele><time>2026-04-18T13:06:24.259Z</time></trkpt><trkpt lat="44.9725005" lon="8.0102318"><ele>185.0</ele><time>2026-04-18T13:06:26.259Z</time></trkpt><trkpt lat="44.9725663" lon="8.0102537"><ele>185.0</ele><time>2026-04-18T13:06:27.259Z</time></trkpt><trkpt lat="44.9726354" lon="8.0102649"><ele>185.0</ele><time>2026-04-18T13:06:28.259Z</time></trkpt><trkpt lat="44.9727032" lon="8.0102787"><ele>184.99999999999997</ele><time>2026-04-18T13:06:29.259Z</time></trkpt><trkpt lat="44.9727767" lon="8.0102863"><ele>185.0</ele><time>2026-04-18T13:06:30.259Z</time></trkpt><trkpt lat="44.9728499" lon="8.0102984"><ele>185.0</ele><time>2026-04-18T13:06:31.259Z</time></trkpt><trkpt lat="44.9729278" lon="8.0103095"><ele>185.0</ele><time>2026-04-18T13:06:32.26Z</time></trkpt><trkpt lat="44.9729977" lon="8.0103119"><ele>185.0</ele><time>2026-04-18T13:06:33.26Z</time></trkpt><trkpt lat="44.9730663" lon="8.0103234"><ele>184.99999999999997</ele><time>2026-04-18T13:06:34.259Z</time></trkpt><trkpt lat="44.973132" lon="8.0103388"><ele>185.0</ele><time>2026-04-18T13:06:35.259Z</time></trkpt><trkpt lat="44.9732509" lon="8.0103788"><ele>185.5</ele><time>2026-04-18T13:06:37.259Z</time></trkpt><trkpt lat="44.9733712" lon="8.0104563"><ele>186.0</ele><time>2026-04-18T13:06:39.259Z</time></trkpt><trkpt lat="44.9734364" lon="8.0105047"><ele>186.5</ele><time>2026-04-18T13:06:40.259Z</time></trkpt><trkpt lat="44.9734921" lon="8.0105573"><ele>187.0</ele><time>2026-04-18T13:06:41.259Z</time></trkpt><trkpt lat="44.9735563" lon="8.0105892"><ele>187.5</ele><time>2026-04-18T13:06:42.259Z</time></trkpt><trkpt lat="44.9736233" lon="8.0106213"><ele>188.0</ele><time>2026-04-18T13:06:43.259Z</time></trkpt><trkpt lat="44.973699" lon="8.0106397"><ele>188.0</ele><time>2026-04-18T13:06:44.26Z</time></trkpt><trkpt lat="44.9737784" lon="8.0106579"><ele>188.0</ele><time>2026-04-18T13:06:45.259Z</time></trkpt><trkpt lat="44.9738708" lon="8.0106629"><ele>188.0</ele><time>2026-04-18T13:06:46.259Z</time></trkpt><trkpt lat="44.9739655" lon="8.0106672"><ele>188.0</ele><time>2026-04-18T13:06:47.259Z</time></trkpt><trkpt lat="44.974067" lon="8.0106721"><ele>188.0</ele><time>2026-04-18T13:06:48.259Z</time></trkpt><trkpt lat="44.9741572" lon="8.0106828"><ele>189.2</ele><time>2026-04-18T13:06:49.26Z</time></trkpt><trkpt lat="44.974247" lon="8.0106959"><ele>190.4</ele><time>2026-04-18T13:06:50.26Z</time></trkpt><trkpt lat="44.9743395" lon="8.0107145"><ele>191.6</ele><time>2026-04-18T13:06:51.259Z</time></trkpt><trkpt lat="44.9744273" lon="8.0107428"><ele>192.79999999999998</ele><time>2026-04-18T13:06:52.259Z</time></trkpt><trkpt lat="44.9745209" lon="8.0107661"><ele>194.0</ele><time>2026-04-18T13:06:53.259Z</time></trkpt><trkpt lat="44.9746122" lon="8.0108013"><ele>192.2</ele><time>2026-04-18T13:06:54.259Z</time></trkpt><trkpt lat="44.9747076" lon="8.010834"><ele>190.39999999999998</ele><time>2026-04-18T13:06:55.259Z</time></trkpt><trkpt lat="44.9748017" lon="8.0108572"><ele>188.6</ele><time>2026-04-18T13:06:56.259Z</time></trkpt><trkpt lat="44.9748968" lon="8.0108936"><ele>186.8</ele><time>2026-04-18T13:06:57.259Z</time></trkpt><trkpt lat="44.9749877" lon="8.0109289"><ele>185.0</ele><time>2026-04-18T13:06:58.26Z</time></trkpt><trkpt lat="44.9750779" lon="8.0109661"><ele>184.8</ele><time>2026-04-18T13:06:59.259Z</time></trkpt><trkpt lat="44.9751599" lon="8.0110097"><ele>184.6</ele><time>2026-04-18T13:07:00.26Z</time></trkpt><trkpt lat="44.9752468" lon="8.0110481"><ele>184.39999999999998</ele><time>2026-04-18T13:07:01.259Z</time></trkpt><trkpt lat="44.9753392" lon="8.0110728"><ele>184.2</ele><time>2026-04-18T13:07:02.259Z</time></trkpt><trkpt lat="44.9754367" lon="8.0110936"><ele>184.0</ele><time>2026-04-18T13:07:03.259Z</time></trkpt><trkpt lat="44.9755369" lon="8.0111011"><ele>184.0</ele><time>2026-04-18T13:07:04.259Z</time></trkpt><trkpt lat="44.9756332" lon="8.011096"><ele>184.0</ele><time>2026-04-18T13:07:05.259Z</time></trkpt><trkpt lat="44.9757282" lon="8.011078"><ele>184.0</ele><time>2026-04-18T13:07:06.26Z</time></trkpt><trkpt lat="44.9758254" lon="8.0110549"><ele>184.0</ele><time>2026-04-18T13:07:07.259Z</time></trkpt><trkpt lat="44.9759179" lon="8.0110398"><ele>184.0</ele><time>2026-04-18T13:07:08.26Z</time></trkpt><trkpt lat="44.9760175" lon="8.0110278"><ele>184.0</ele><time>2026-04-18T13:07:09.26Z</time></trkpt><trkpt lat="44.9761163" lon="8.0110114"><ele>184.0</ele><time>2026-04-18T13:07:10.259Z</time></trkpt><trkpt lat="44.9762146" lon="8.0110022"><ele>184.0</ele><time>2026-04-18T13:07:11.259Z</time></trkpt><trkpt lat="44.9763167" lon="8.0109831"><ele>184.0</ele><time>2026-04-18T13:07:12.259Z</time></trkpt><trkpt lat="44.9764212" lon="8.0109661"><ele>184.0</ele><time>2026-04-18T13:07:13.259Z</time></trkpt><trkpt lat="44.9765296" lon="8.0109515"><ele>184.0</ele><time>2026-04-18T13:07:14.259Z</time></trkpt><trkpt lat="44.9766388" lon="8.0109469"><ele>184.0</ele><time>2026-04-18T13:07:15.26Z</time></trkpt><trkpt lat="44.9767482" lon="8.0109352"><ele>184.0</ele><time>2026-04-18T13:07:16.259Z</time></trkpt><trkpt lat="44.9768585" lon="8.0109253"><ele>184.0</ele><time>2026-04-18T13:07:17.259Z</time></trkpt><trkpt lat="44.9769602" lon="8.0109188"><ele>184.0</ele><time>2026-04-18T13:07:18.26Z</time></trkpt><trkpt lat="44.9770641" lon="8.0109107"><ele>184.2</ele><time>2026-04-18T13:07:19.259Z</time></trkpt><trkpt lat="44.9771706" lon="8.0109078"><ele>184.39999999999998</ele><time>2026-04-18T13:07:20.259Z</time></trkpt><trkpt lat="44.9772795" lon="8.0109034"><ele>184.6</ele><time>2026-04-18T13:07:21.259Z</time></trkpt><trkpt lat="44.9773871" lon="8.0109006"><ele>184.8</ele><time>2026-04-18T13:07:22.259Z</time></trkpt><trkpt lat="44.9774928" lon="8.0109009"><ele>185.0</ele><time>2026-04-18T13:07:23.26Z</time></trkpt><trkpt lat="44.9776036" lon="8.0108967"><ele>185.0</ele><time>2026-04-18T13:07:24.259Z</time></trkpt><trkpt lat="44.9777096" lon="8.0108877"><ele>185.0</ele><time>2026-04-18T13:07:25.259Z</time></trkpt><trkpt lat="44.9778215" lon="8.0108692"><ele>185.0</ele><time>2026-04-18T13:07:26.259Z</time></trkpt><trkpt lat="44.9779313" lon="8.0108599"><ele>185.0</ele><time>2026-04-18T13:07:27.26Z</time></trkpt><trkpt lat="44.9780373" lon="8.0108322"><ele>185.0</ele><time>2026-04-18T13:07:28.259Z</time></trkpt><trkpt lat="44.9781445" lon="8.0108115"><ele>184.6</ele><time>2026-04-18T13:07:29.259Z</time></trkpt><trkpt lat="44.9782585" lon="8.0107803"><ele>184.2</ele><time>2026-04-18T13:07:30.259Z</time></trkpt><trkpt lat="44.9783612" lon="8.010752"><ele>183.8</ele><time>2026-04-18T13:07:31.259Z</time></trkpt><trkpt lat="44.9784536" lon="8.0107131"><ele>183.4</ele><time>2026-04-18T13:07:32.259Z</time></trkpt><trkpt lat="44.9785412" lon="8.010693"><ele>183.0</ele><time>2026-04-18T13:07:33.259Z</time></trkpt><trkpt lat="44.9786354" lon="8.0106895"><ele>183.8</ele><time>2026-04-18T13:07:34.259Z</time></trkpt><trkpt lat="44.9787334" lon="8.0106982"><ele>184.60000000000002</ele><time>2026-04-18T13:07:35.259Z</time></trkpt><trkpt lat="44.9788316" lon="8.010707"><ele>185.39999999999998</ele><time>2026-04-18T13:07:36.259Z</time></trkpt><trkpt lat="44.9789312" lon="8.0107142"><ele>186.2</ele><time>2026-04-18T13:07:37.259Z</time></trkpt><trkpt lat="44.9790298" lon="8.010722"><ele>187.0</ele><time>2026-04-18T13:07:38.26Z</time></trkpt><trkpt lat="44.9791295" lon="8.0107384"><ele>186.6</ele><time>2026-04-18T13:07:39.26Z</time></trkpt><trkpt lat="44.979229" lon="8.0107487"><ele>186.2</ele><time>2026-04-18T13:07:40.259Z</time></trkpt><trkpt lat="44.9793308" lon="8.0107572"><ele>185.8</ele><time>2026-04-18T13:07:41.259Z</time></trkpt><trkpt lat="44.9794352" lon="8.0107742"><ele>185.4</ele><time>2026-04-18T13:07:42.259Z</time></trkpt><trkpt lat="44.9795413" lon="8.0107973"><ele>185.0</ele><time>2026-04-18T13:07:43.259Z</time></trkpt><trkpt lat="44.9796476" lon="8.0108146"><ele>184.0</ele><time>2026-04-18T13:07:44.259Z</time></trkpt><trkpt lat="44.979752" lon="8.010836"><ele>183.0</ele><time>2026-04-18T13:07:45.259Z</time></trkpt><trkpt lat="44.9798554" lon="8.0108642"><ele>182.0</ele><time>2026-04-18T13:07:46.259Z</time></trkpt><trkpt lat="44.9799565" lon="8.0108964"><ele>181.0</ele><time>2026-04-18T13:07:47.26Z</time></trkpt><trkpt lat="44.9800552" lon="8.0109236"><ele>180.0</ele><time>2026-04-18T13:07:48.259Z</time></trkpt><trkpt lat="44.9801562" lon="8.0109522"><ele>180.0</ele><time>2026-04-18T13:07:49.259Z</time></trkpt><trkpt lat="44.9802567" lon="8.0109879"><ele>180.0</ele><time>2026-04-18T13:07:50.259Z</time></trkpt><trkpt lat="44.9803631" lon="8.0110156"><ele>180.0</ele><time>2026-04-18T13:07:51.26Z</time></trkpt><trkpt lat="44.9804693" lon="8.0110508"><ele>180.0</ele><time>2026-04-18T13:07:52.259Z</time></trkpt><trkpt lat="44.9805655" lon="8.0110925"><ele>180.0</ele><time>2026-04-18T13:07:53.26Z</time></trkpt><trkpt lat="44.9806718" lon="8.0111337"><ele>180.0</ele><time>2026-04-18T13:07:54.259Z</time></trkpt><trkpt lat="44.9807787" lon="8.0111835"><ele>180.0</ele><time>2026-04-18T13:07:55.259Z</time></trkpt><trkpt lat="44.9808728" lon="8.0112251"><ele>180.0</ele><time>2026-04-18T13:07:56.259Z</time></trkpt><trkpt lat="44.9809712" lon="8.0112644"><ele>180.0</ele><time>2026-04-18T13:07:57.26Z</time></trkpt><trkpt lat="44.9810671" lon="8.0113007"><ele>180.0</ele><time>2026-04-18T13:07:58.259Z</time></trkpt><trkpt lat="44.9811656" lon="8.0113416"><ele>180.0</ele><time>2026-04-18T13:07:59.259Z</time></trkpt><trkpt lat="44.9812698" lon="8.0113851"><ele>180.0</ele><time>2026-04-18T13:08:00.26Z</time></trkpt><trkpt lat="44.9813729" lon="8.0114316"><ele>180.0</ele><time>2026-04-18T13:08:01.26Z</time></trkpt><trkpt lat="44.9814644" lon="8.0114819"><ele>180.0</ele><time>2026-04-18T13:08:02.259Z</time></trkpt><trkpt lat="44.9815733" lon="8.0115198"><ele>180.0</ele><time>2026-04-18T13:08:03.259Z</time></trkpt><trkpt lat="44.9816726" lon="8.0115717"><ele>180.0</ele><time>2026-04-18T13:08:04.259Z</time></trkpt><trkpt lat="44.9817726" lon="8.0116255"><ele>180.0</ele><time>2026-04-18T13:08:05.259Z</time></trkpt><trkpt lat="44.9818876" lon="8.0116805"><ele>180.0</ele><time>2026-04-18T13:08:06.259Z</time></trkpt><trkpt lat="44.9819793" lon="8.0117416"><ele>180.0</ele><time>2026-04-18T13:08:07.259Z</time></trkpt><trkpt lat="44.9820751" lon="8.0117971"><ele>180.0</ele><time>2026-04-18T13:08:08.26Z</time></trkpt><trkpt lat="44.9821738" lon="8.0118577"><ele>180.0</ele><time>2026-04-18T13:08:09.259Z</time></trkpt><trkpt lat="44.9822669" lon="8.011918"><ele>180.0</ele><time>2026-04-18T13:08:10.259Z</time></trkpt><trkpt lat="44.982363" lon="8.0119731"><ele>180.0</ele><time>2026-04-18T13:08:11.259Z</time></trkpt><trkpt lat="44.9824475" lon="8.0120293"><ele>180.0</ele><time>2026-04-18T13:08:12.26Z</time></trkpt><trkpt lat="44.9825547" lon="8.0120668"><ele>180.0</ele><time>2026-04-18T13:08:13.26Z</time></trkpt><trkpt lat="44.9826564" lon="8.0120971"><ele>181.6</ele><time>2026-04-18T13:08:14.259Z</time></trkpt><trkpt lat="44.9827592" lon="8.0121304"><ele>183.2</ele><time>2026-04-18T13:08:15.259Z</time></trkpt><trkpt lat="44.9828725" lon="8.01216"><ele>184.8</ele><time>2026-04-18T13:08:16.26Z</time></trkpt><trkpt lat="44.9829683" lon="8.0121857"><ele>186.4</ele><time>2026-04-18T13:08:17.259Z</time></trkpt><trkpt lat="44.9830766" lon="8.0121991"><ele>188.0</ele><time>2026-04-18T13:08:18.26Z</time></trkpt><trkpt lat="44.9831708" lon="8.012215"><ele>188.0</ele><time>2026-04-18T13:08:19.259Z</time></trkpt><trkpt lat="44.9832599" lon="8.0122148"><ele>188.0</ele><time>2026-04-18T13:08:20.259Z</time></trkpt><trkpt lat="44.9833542" lon="8.0122075"><ele>188.0</ele><time>2026-04-18T13:08:21.26Z</time></trkpt><trkpt lat="44.9834417" lon="8.0121853"><ele>188.0</ele><time>2026-04-18T13:08:22.259Z</time></trkpt><trkpt lat="44.983531" lon="8.0121463"><ele>188.0</ele><time>2026-04-18T13:08:23.259Z</time></trkpt><trkpt lat="44.9836199" lon="8.0121081"><ele>187.60000000000002</ele><time>2026-04-18T13:08:24.259Z</time></trkpt><trkpt lat="44.9837166" lon="8.0120635"><ele>187.20000000000002</ele><time>2026-04-18T13:08:25.259Z</time></trkpt><trkpt lat="44.9838141" lon="8.0120152"><ele>186.8</ele><time>2026-04-18T13:08:26.259Z</time></trkpt><trkpt lat="44.9839159" lon="8.0119619"><ele>186.4</ele><time>2026-04-18T13:08:27.26Z</time></trkpt><trkpt lat="44.9840126" lon="8.0119061"><ele>186.0</ele><time>2026-04-18T13:08:28.259Z</time></trkpt><trkpt lat="44.9841123" lon="8.0118466"><ele>186.0</ele><time>2026-04-18T13:08:29.259Z</time></trkpt><trkpt lat="44.9842098" lon="8.0117813"><ele>186.0</ele><time>2026-04-18T13:08:30.26Z</time></trkpt><trkpt lat="44.9843036" lon="8.0117129"><ele>186.0</ele><time>2026-04-18T13:08:31.259Z</time></trkpt><trkpt lat="44.9844037" lon="8.0116407"><ele>186.0</ele><time>2026-04-18T13:08:32.259Z</time></trkpt><trkpt lat="44.9845063" lon="8.0115639"><ele>186.0</ele><time>2026-04-18T13:08:33.259Z</time></trkpt><trkpt lat="44.984604" lon="8.0114866"><ele>186.0</ele><time>2026-04-18T13:08:34.26Z</time></trkpt><trkpt lat="44.9847045" lon="8.0114099"><ele>186.0</ele><time>2026-04-18T13:08:35.26Z</time></trkpt><trkpt lat="44.9848063" lon="8.0113365"><ele>186.0</ele><time>2026-04-18T13:08:36.259Z</time></trkpt><trkpt lat="44.9849023" lon="8.0112543"><ele>186.0</ele><time>2026-04-18T13:08:37.259Z</time></trkpt><trkpt lat="44.9849863" lon="8.0111962"><ele>186.0</ele><time>2026-04-18T13:08:38.259Z</time></trkpt><trkpt lat="44.9850648" lon="8.0111328"><ele>185.83333333333334</ele><time>2026-04-18T13:08:39.259Z</time></trkpt><trkpt lat="44.985136" lon="8.0110705"><ele>185.66666666666666</ele><time>2026-04-18T13:08:40.259Z</time></trkpt><trkpt lat="44.9852007" lon="8.011"><ele>185.5</ele><time>2026-04-18T13:08:41.259Z</time></trkpt><trkpt lat="44.9852619" lon="8.010916"><ele>185.33333333333331</ele><time>2026-04-18T13:08:42.26Z</time></trkpt><trkpt lat="44.9853137" lon="8.0108185"><ele>185.16666666666666</ele><time>2026-04-18T13:08:43.259Z</time></trkpt><trkpt lat="44.9853498" lon="8.010711"><ele>185.0</ele><time>2026-04-18T13:08:44.259Z</time></trkpt><trkpt lat="44.9853802" lon="8.0106052"><ele>185.7142857142857</ele><time>2026-04-18T13:08:45.259Z</time></trkpt><trkpt lat="44.9854044" lon="8.0104973"><ele>186.42857142857142</ele><time>2026-04-18T13:08:46.259Z</time></trkpt><trkpt lat="44.9854305" lon="8.0103948"><ele>187.14285714285714</ele><time>2026-04-18T13:08:47.259Z</time></trkpt><trkpt lat="44.9854735" lon="8.010315"><ele>187.85714285714283</ele><time>2026-04-18T13:08:48.259Z</time></trkpt><trkpt lat="44.9855276" lon="8.0102558"><ele>188.57142857142858</ele><time>2026-04-18T13:08:49.259Z</time></trkpt><trkpt lat="44.9855971" lon="8.0102245"><ele>189.28571428571428</ele><time>2026-04-18T13:08:50.259Z</time></trkpt><trkpt lat="44.9856728" lon="8.0102124"><ele>190.0</ele><time>2026-04-18T13:08:51.259Z</time></trkpt><trkpt lat="44.9857585" lon="8.0101993"><ele>190.2</ele><time>2026-04-18T13:08:52.259Z</time></trkpt><trkpt lat="44.9858508" lon="8.0101988"><ele>190.4</ele><time>2026-04-18T13:08:53.26Z</time></trkpt><trkpt lat="44.9859476" lon="8.0101907"><ele>190.60000000000002</ele><time>2026-04-18T13:08:54.259Z</time></trkpt><trkpt lat="44.9860441" lon="8.0101884"><ele>190.8</ele><time>2026-04-18T13:08:55.259Z</time></trkpt><trkpt lat="44.9861358" lon="8.0101901"><ele>191.0</ele><time>2026-04-18T13:08:56.259Z</time></trkpt><trkpt lat="44.9862219" lon="8.0102025"><ele>191.0</ele><time>2026-04-18T13:08:57.259Z</time></trkpt><trkpt lat="44.9862948" lon="8.0102198"><ele>191.0</ele><time>2026-04-18T13:08:58.259Z</time></trkpt><trkpt lat="44.9863623" lon="8.0102434"><ele>191.0</ele><time>2026-04-18T13:08:59.259Z</time></trkpt><trkpt lat="44.9864299" lon="8.0102741"><ele>191.0</ele><time>2026-04-18T13:09:00.26Z</time></trkpt><trkpt lat="44.9864977" lon="8.0103108"><ele>191.0</ele><time>2026-04-18T13:09:01.26Z</time></trkpt><trkpt lat="44.9865712" lon="8.010355"><ele>191.0</ele><time>2026-04-18T13:09:02.259Z</time></trkpt><trkpt lat="44.9866551" lon="8.0104097"><ele>191.20000000000002</ele><time>2026-04-18T13:09:03.26Z</time></trkpt><trkpt lat="44.9867437" lon="8.0104571"><ele>191.4</ele><time>2026-04-18T13:09:04.26Z</time></trkpt><trkpt lat="44.9868333" lon="8.0105036"><ele>191.6</ele><time>2026-04-18T13:09:05.26Z</time></trkpt><trkpt lat="44.9869231" lon="8.0105425"><ele>191.8</ele><time>2026-04-18T13:09:06.259Z</time></trkpt><trkpt lat="44.987022" lon="8.0105854"><ele>192.0</ele><time>2026-04-18T13:09:07.259Z</time></trkpt><trkpt lat="44.9871132" lon="8.0106273"><ele>192.0</ele><time>2026-04-18T13:09:08.259Z</time></trkpt><trkpt lat="44.9871984" lon="8.0106626"><ele>192.0</ele><time>2026-04-18T13:09:09.26Z</time></trkpt><trkpt lat="44.9872786" lon="8.0106996"><ele>192.0</ele><time>2026-04-18T13:09:10.259Z</time></trkpt><trkpt lat="44.9873484" lon="8.0107417"><ele>192.0</ele><time>2026-04-18T13:09:11.259Z</time></trkpt><trkpt lat="44.9874368" lon="8.0107991"><ele>192.0</ele><time>2026-04-18T13:09:13.259Z</time></trkpt><trkpt lat="44.987501" lon="8.0108419"><ele>192.0</ele><time>2026-04-18T13:09:16.259Z</time></trkpt><trkpt lat="44.9875766" lon="8.0108491"><ele>191.8</ele><time>2026-04-18T13:09:18.26Z</time></trkpt><trkpt lat="44.9876955" lon="8.0108365"><ele>191.6</ele><time>2026-04-18T13:09:20.259Z</time></trkpt><trkpt lat="44.9878261" lon="8.0108135"><ele>191.4</ele><time>2026-04-18T13:09:22.259Z</time></trkpt><trkpt lat="44.987911" lon="8.0108012"><ele>191.20000000000002</ele><time>2026-04-18T13:09:23.259Z</time></trkpt><trkpt lat="44.9879989" lon="8.0107886"><ele>191.0</ele><time>2026-04-18T13:09:24.259Z</time></trkpt><trkpt lat="44.9880865" lon="8.0107837"><ele>191.0</ele><time>2026-04-18T13:09:25.259Z</time></trkpt><trkpt lat="44.9881787" lon="8.0107877"><ele>191.0</ele><time>2026-04-18T13:09:26.26Z</time></trkpt><trkpt lat="44.9882683" lon="8.0107923"><ele>191.0</ele><time>2026-04-18T13:09:27.259Z</time></trkpt><trkpt lat="44.9883645" lon="8.0107951"><ele>191.0</ele><time>2026-04-18T13:09:28.259Z</time></trkpt><trkpt lat="44.9884651" lon="8.0107995"><ele>191.0</ele><time>2026-04-18T13:09:29.259Z</time></trkpt><trkpt lat="44.9885664" lon="8.0108017"><ele>190.8</ele><time>2026-04-18T13:09:30.26Z</time></trkpt><trkpt lat="44.9886568" lon="8.0108002"><ele>190.60000000000002</ele><time>2026-04-18T13:09:31.259Z</time></trkpt><trkpt lat="44.988756" lon="8.0107997"><ele>190.4</ele><time>2026-04-18T13:09:32.26Z</time></trkpt><trkpt lat="44.988858" lon="8.010794"><ele>190.2</ele><time>2026-04-18T13:09:33.26Z</time></trkpt><trkpt lat="44.9889552" lon="8.0107937"><ele>190.0</ele><time>2026-04-18T13:09:34.259Z</time></trkpt><trkpt lat="44.989048" lon="8.0108066"><ele>190.0</ele><time>2026-04-18T13:09:35.259Z</time></trkpt><trkpt lat="44.9891402" lon="8.0108156"><ele>190.0</ele><time>2026-04-18T13:09:36.26Z</time></trkpt><trkpt lat="44.9892435" lon="8.0108233"><ele>190.0</ele><time>2026-04-18T13:09:37.259Z</time></trkpt><trkpt lat="44.9893411" lon="8.0108411"><ele>190.0</ele><time>2026-04-18T13:09:38.259Z</time></trkpt><trkpt lat="44.9894446" lon="8.0108583"><ele>190.0</ele><time>2026-04-18T13:09:39.259Z</time></trkpt><trkpt lat="44.9895533" lon="8.0108764"><ele>189.2</ele><time>2026-04-18T13:09:40.26Z</time></trkpt><trkpt lat="44.9896504" lon="8.0109019"><ele>188.4</ele><time>2026-04-18T13:09:41.26Z</time></trkpt><trkpt lat="44.9897507" lon="8.0109158"><ele>187.60000000000002</ele><time>2026-04-18T13:09:42.26Z</time></trkpt><trkpt lat="44.9898425" lon="8.0109309"><ele>186.8</ele><time>2026-04-18T13:09:43.259Z</time></trkpt><trkpt lat="44.9899362" lon="8.0109445"><ele>186.0</ele><time>2026-04-18T13:09:44.259Z</time></trkpt><trkpt lat="44.9900297" lon="8.0109663"><ele>186.0</ele><time>2026-04-18T13:09:45.26Z</time></trkpt><trkpt lat="44.990122" lon="8.0109857"><ele>186.0</ele><time>2026-04-18T13:09:46.26Z</time></trkpt><trkpt lat="44.990215" lon="8.0110047"><ele>186.0</ele><time>2026-04-18T13:09:47.259Z</time></trkpt><trkpt lat="44.9903025" lon="8.0110319"><ele>186.0</ele><time>2026-04-18T13:09:48.259Z</time></trkpt><trkpt lat="44.9903919" lon="8.0110666"><ele>186.0</ele><time>2026-04-18T13:09:49.259Z</time></trkpt><trkpt lat="44.9904783" lon="8.0111094"><ele>186.0</ele><time>2026-04-18T13:09:50.259Z</time></trkpt><trkpt lat="44.9905621" lon="8.0111576"><ele>186.0</ele><time>2026-04-18T13:09:51.26Z</time></trkpt><trkpt lat="44.9906451" lon="8.01121"><ele>186.0</ele><time>2026-04-18T13:09:52.259Z</time></trkpt><trkpt lat="44.9907372" lon="8.0112619"><ele>186.0</ele><time>2026-04-18T13:09:53.26Z</time></trkpt><trkpt lat="44.990822" lon="8.0113156"><ele>186.0</ele><time>2026-04-18T13:09:54.259Z</time></trkpt><trkpt lat="44.9909058" lon="8.0113645"><ele>186.20000000000002</ele><time>2026-04-18T13:09:55.259Z</time></trkpt><trkpt lat="44.990996" lon="8.0114123"><ele>186.4</ele><time>2026-04-18T13:09:56.259Z</time></trkpt><trkpt lat="44.9910896" lon="8.0114424"><ele>186.6</ele><time>2026-04-18T13:09:57.259Z</time></trkpt><trkpt lat="44.9911757" lon="8.0114682"><ele>186.8</ele><time>2026-04-18T13:09:58.26Z</time></trkpt><trkpt lat="44.9912604" lon="8.0114865"><ele>187.0</ele><time>2026-04-18T13:09:59.259Z</time></trkpt><trkpt lat="44.9913475" lon="8.0115212"><ele>187.0</ele><time>2026-04-18T13:10:00.259Z</time></trkpt><trkpt lat="44.9914409" lon="8.0115623"><ele>187.0</ele><time>2026-04-18T13:10:01.259Z</time></trkpt><trkpt lat="44.9915233" lon="8.0115976"><ele>187.0</ele><time>2026-04-18T13:10:02.259Z</time></trkpt><trkpt lat="44.9916188" lon="8.0116378"><ele>187.0</ele><time>2026-04-18T13:10:03.259Z</time></trkpt><trkpt lat="44.9917127" lon="8.0116705"><ele>187.0</ele><time>2026-04-18T13:10:04.259Z</time></trkpt><trkpt lat="44.9918116" lon="8.0116941"><ele>187.6</ele><time>2026-04-18T13:10:05.259Z</time></trkpt><trkpt lat="44.9919071" lon="8.0117069"><ele>188.2</ele><time>2026-04-18T13:10:06.26Z</time></trkpt><trkpt lat="44.9919982" lon="8.0117024"><ele>188.8</ele><time>2026-04-18T13:10:07.259Z</time></trkpt><trkpt lat="44.9920992" lon="8.0116914"><ele>189.4</ele><time>2026-04-18T13:10:08.26Z</time></trkpt><trkpt lat="44.9921977" lon="8.0116788"><ele>190.0</ele><time>2026-04-18T13:10:09.26Z</time></trkpt><trkpt lat="44.9922933" lon="8.0116612"><ele>190.2</ele><time>2026-04-18T13:10:10.259Z</time></trkpt><trkpt lat="44.992393" lon="8.0116413"><ele>190.4</ele><time>2026-04-18T13:10:11.259Z</time></trkpt><trkpt lat="44.9924934" lon="8.0116153"><ele>190.60000000000002</ele><time>2026-04-18T13:10:12.259Z</time></trkpt><trkpt lat="44.9925963" lon="8.0115932"><ele>190.8</ele><time>2026-04-18T13:10:13.259Z</time></trkpt><trkpt lat="44.9926973" lon="8.011576"><ele>191.0</ele><time>2026-04-18T13:10:14.259Z</time></trkpt><trkpt lat="44.9927912" lon="8.011559"><ele>190.71428571428572</ele><time>2026-04-18T13:10:15.259Z</time></trkpt><trkpt lat="44.9928689" lon="8.0115455"><ele>190.42857142857142</ele><time>2026-04-18T13:10:16.259Z</time></trkpt><trkpt lat="44.9929512" lon="8.0115294"><ele>190.14285714285714</ele><time>2026-04-18T13:10:17.259Z</time></trkpt><trkpt lat="44.9930269" lon="8.0115255"><ele>189.85714285714286</ele><time>2026-04-18T13:10:18.26Z</time></trkpt><trkpt lat="44.9930899" lon="8.0115203"><ele>189.57142857142856</ele><time>2026-04-18T13:10:19.259Z</time></trkpt><trkpt lat="44.9931555" lon="8.0115043"><ele>189.28571428571428</ele><time>2026-04-18T13:10:20.259Z</time></trkpt><trkpt lat="44.9932181" lon="8.0114709"><ele>189.0</ele><time>2026-04-18T13:10:21.259Z</time></trkpt><trkpt lat="44.993298" lon="8.0113417"><ele>189.33333333333334</ele><time>2026-04-18T13:10:23.259Z</time></trkpt><trkpt lat="44.9933401" lon="8.0111899"><ele>189.66666666666666</ele><time>2026-04-18T13:10:25.259Z</time></trkpt><trkpt lat="44.9934136" lon="8.0110681"><ele>190.0</ele><time>2026-04-18T13:10:27.259Z</time></trkpt><trkpt lat="44.9934732" lon="8.0110209"><ele>190.33333333333331</ele><time>2026-04-18T13:10:28.259Z</time></trkpt><trkpt lat="44.9935377" lon="8.0109912"><ele>190.66666666666666</ele><time>2026-04-18T13:10:29.26Z</time></trkpt><trkpt lat="44.9936015" lon="8.0109619"><ele>191.0</ele><time>2026-04-18T13:10:30.26Z</time></trkpt><trkpt lat="44.9936717" lon="8.0109212"><ele>191.0</ele><time>2026-04-18T13:10:31.259Z</time></trkpt><trkpt lat="44.9937502" lon="8.0108901"><ele>191.0</ele><time>2026-04-18T13:10:32.259Z</time></trkpt><trkpt lat="44.9938323" lon="8.0108565"><ele>191.0</ele><time>2026-04-18T13:10:33.26Z</time></trkpt><trkpt lat="44.9939131" lon="8.0108262"><ele>191.0</ele><time>2026-04-18T13:10:34.259Z</time></trkpt><trkpt lat="44.9940043" lon="8.0107842"><ele>191.0</ele><time>2026-04-18T13:10:35.259Z</time></trkpt><trkpt lat="44.9940928" lon="8.0107351"><ele>191.0</ele><time>2026-04-18T13:10:36.259Z</time></trkpt><trkpt lat="44.9941847" lon="8.0106878"><ele>191.8</ele><time>2026-04-18T13:10:37.26Z</time></trkpt><trkpt lat="44.994273" lon="8.0106298"><ele>192.60000000000002</ele><time>2026-04-18T13:10:38.259Z</time></trkpt><trkpt lat="44.994355" lon="8.0105775"><ele>193.4</ele><time>2026-04-18T13:10:39.26Z</time></trkpt><trkpt lat="44.9944378" lon="8.0105105"><ele>194.2</ele><time>2026-04-18T13:10:40.259Z</time></trkpt><trkpt lat="44.9945192" lon="8.0104388"><ele>195.0</ele><time>2026-04-18T13:10:41.259Z</time></trkpt><trkpt lat="44.9945984" lon="8.0103748"><ele>195.0</ele><time>2026-04-18T13:10:42.259Z</time></trkpt><trkpt lat="44.9946782" lon="8.0103126"><ele>195.0</ele><time>2026-04-18T13:10:43.259Z</time></trkpt><trkpt lat="44.9947544" lon="8.0102373"><ele>195.0</ele><time>2026-04-18T13:10:44.26Z</time></trkpt><trkpt lat="44.9948232" lon="8.0101676"><ele>195.0</ele><time>2026-04-18T13:10:45.259Z</time></trkpt><trkpt lat="44.9948894" lon="8.010103"><ele>195.0</ele><time>2026-04-18T13:10:46.259Z</time></trkpt><trkpt lat="44.9949599" lon="8.0100441"><ele>195.0</ele><time>2026-04-18T13:10:47.259Z</time></trkpt><trkpt lat="44.9950291" lon="8.0099849"><ele>195.16666666666666</ele><time>2026-04-18T13:10:48.26Z</time></trkpt><trkpt lat="44.9951011" lon="8.0099326"><ele>195.33333333333331</ele><time>2026-04-18T13:10:49.26Z</time></trkpt><trkpt lat="44.9951743" lon="8.0098814"><ele>195.5</ele><time>2026-04-18T13:10:50.259Z</time></trkpt><trkpt lat="44.9952571" lon="8.0098333"><ele>195.66666666666666</ele><time>2026-04-18T13:10:51.259Z</time></trkpt><trkpt lat="44.9953381" lon="8.009793"><ele>195.83333333333331</ele><time>2026-04-18T13:10:52.259Z</time></trkpt><trkpt lat="44.9954264" lon="8.0097634"><ele>196.0</ele><time>2026-04-18T13:10:53.259Z</time></trkpt><trkpt lat="44.9955099" lon="8.0097325"><ele>195.99999999999997</ele><time>2026-04-18T13:10:54.26Z</time></trkpt><trkpt lat="44.9955909" lon="8.009712"><ele>196.0</ele><time>2026-04-18T13:10:55.26Z</time></trkpt><trkpt lat="44.9956683" lon="8.0096926"><ele>196.0</ele><time>2026-04-18T13:10:56.259Z</time></trkpt><trkpt lat="44.9957383" lon="8.0096799"><ele>196.0</ele><time>2026-04-18T13:10:57.259Z</time></trkpt><trkpt lat="44.9958443" lon="8.0096455"><ele>195.99999999999997</ele><time>2026-04-18T13:10:59.26Z</time></trkpt><trkpt lat="44.9959427" lon="8.0096125"><ele>196.0</ele><time>2026-04-18T13:11:01.259Z</time></trkpt><trkpt lat="44.9960139" lon="8.0096737"><ele>195.99999999999997</ele><time>2026-04-18T13:11:03.259Z</time></trkpt><trkpt lat="44.9960491" lon="8.0097874"><ele>196.0</ele><time>2026-04-18T13:11:05.259Z</time></trkpt><trkpt lat="44.9960761" lon="8.0099616"><ele>196.0</ele><time>2026-04-18T13:11:07.26Z</time></trkpt><trkpt lat="44.9961086" lon="8.0100551"><ele>196.0</ele><time>2026-04-18T13:11:08.259Z</time></trkpt><trkpt lat="44.9961421" lon="8.0101545"><ele>195.99999999999997</ele><time>2026-04-18T13:11:09.259Z</time></trkpt><trkpt lat="44.9961586" lon="8.0102553"><ele>196.0</ele><time>2026-04-18T13:11:10.259Z</time></trkpt><trkpt lat="44.9961747" lon="8.0103621"><ele>194.83333333333331</ele><time>2026-04-18T13:11:11.259Z</time></trkpt><trkpt lat="44.9961932" lon="8.0104728"><ele>193.66666666666666</ele><time>2026-04-18T13:11:12.259Z</time></trkpt><trkpt lat="44.9962127" lon="8.0105771"><ele>192.5</ele><time>2026-04-18T13:11:13.259Z</time></trkpt><trkpt lat="44.9962355" lon="8.010682"><ele>191.33333333333331</ele><time>2026-04-18T13:11:14.26Z</time></trkpt><trkpt lat="44.9962508" lon="8.0107997"><ele>190.16666666666666</ele><time>2026-04-18T13:11:15.26Z</time></trkpt><trkpt lat="44.9962634" lon="8.0109193"><ele>189.0</ele><time>2026-04-18T13:11:16.26Z</time></trkpt><trkpt lat="44.9962792" lon="8.0110396"><ele>189.0</ele><time>2026-04-18T13:11:17.26Z</time></trkpt><trkpt lat="44.9963026" lon="8.011153"><ele>189.0</ele><time>2026-04-18T13:11:18.259Z</time></trkpt><trkpt lat="44.9963205" lon="8.0112634"><ele>189.0</ele><time>2026-04-18T13:11:19.259Z</time></trkpt><trkpt lat="44.9963364" lon="8.0113668"><ele>189.0</ele><time>2026-04-18T13:11:20.26Z</time></trkpt><trkpt lat="44.9963422" lon="8.011465"><ele>189.0</ele><time>2026-04-18T13:11:21.259Z</time></trkpt><trkpt lat="44.9963607" lon="8.0116088"><ele>189.0</ele><time>2026-04-18T13:11:23.259Z</time></trkpt><trkpt lat="44.9963798" lon="8.0117083"><ele>189.0</ele><time>2026-04-18T13:11:25.26Z</time></trkpt><trkpt lat="44.9964371" lon="8.0117601"><ele>189.0</ele><time>2026-04-18T13:11:27.259Z</time></trkpt><trkpt lat="44.9965274" lon="8.0116983"><ele>189.0</ele><time>2026-04-18T13:11:29.259Z</time></trkpt><trkpt lat="44.9965868" lon="8.011631"><ele>189.0</ele><time>2026-04-18T13:11:30.259Z</time></trkpt><trkpt lat="44.9966563" lon="8.0115589"><ele>189.0</ele><time>2026-04-18T13:11:31.259Z</time></trkpt><trkpt lat="44.9967309" lon="8.0114815"><ele>189.0</ele><time>2026-04-18T13:11:32.259Z</time></trkpt><trkpt lat="44.9968147" lon="8.0113974"><ele>189.0</ele><time>2026-04-18T13:11:33.26Z</time></trkpt><trkpt lat="44.9969048" lon="8.0113022"><ele>189.0</ele><time>2026-04-18T13:11:34.26Z</time></trkpt><trkpt lat="44.9969984" lon="8.0112074"><ele>189.0</ele><time>2026-04-18T13:11:35.26Z</time></trkpt><trkpt lat="44.9970916" lon="8.0111098"><ele>189.0</ele><time>2026-04-18T13:11:36.259Z</time></trkpt><trkpt lat="44.9971879" lon="8.0109994"><ele>189.0</ele><time>2026-04-18T13:11:37.259Z</time></trkpt><trkpt lat="44.9972869" lon="8.0108907"><ele>189.0</ele><time>2026-04-18T13:11:38.26Z</time></trkpt><trkpt lat="44.9973858" lon="8.0107923"><ele>189.0</ele><time>2026-04-18T13:11:39.26Z</time></trkpt><trkpt lat="44.9974884" lon="8.0106842"><ele>189.0</ele><time>2026-04-18T13:11:40.26Z</time></trkpt><trkpt lat="44.9975891" lon="8.0105755"><ele>189.25</ele><time>2026-04-18T13:11:41.259Z</time></trkpt><trkpt lat="44.9976908" lon="8.0104686"><ele>189.5</ele><time>2026-04-18T13:11:42.26Z</time></trkpt><trkpt lat="44.9977906" lon="8.0103606"><ele>189.75</ele><time>2026-04-18T13:11:43.259Z</time></trkpt><trkpt lat="44.9978874" lon="8.0102577"><ele>190.0</ele><time>2026-04-18T13:11:44.259Z</time></trkpt><trkpt lat="44.9979859" lon="8.0101505"><ele>190.0</ele><time>2026-04-18T13:11:45.259Z</time></trkpt><trkpt lat="44.9980813" lon="8.0100457"><ele>190.0</ele><time>2026-04-18T13:11:46.259Z</time></trkpt><trkpt lat="44.9981841" lon="8.0099401"><ele>190.0</ele><time>2026-04-18T13:11:47.259Z</time></trkpt><trkpt lat="44.9982787" lon="8.0098409"><ele>190.0</ele><time>2026-04-18T13:11:48.259Z</time></trkpt><trkpt lat="44.9983802" lon="8.0097338"><ele>190.25</ele><time>2026-04-18T13:11:49.259Z</time></trkpt><trkpt lat="44.9984813" lon="8.0096204"><ele>190.5</ele><time>2026-04-18T13:11:50.26Z</time></trkpt><trkpt lat="44.9985836" lon="8.0095097"><ele>190.75</ele><time>2026-04-18T13:11:51.259Z</time></trkpt><trkpt lat="44.9986866" lon="8.0093943"><ele>191.0</ele><time>2026-04-18T13:11:52.26Z</time></trkpt><trkpt lat="44.9987949" lon="8.0092847"><ele>191.0</ele><time>2026-04-18T13:11:53.26Z</time></trkpt><trkpt lat="44.9989048" lon="8.0091669"><ele>191.0</ele><time>2026-04-18T13:11:54.259Z</time></trkpt><trkpt lat="44.9990123" lon="8.0090496"><ele>191.0</ele><time>2026-04-18T13:11:55.26Z</time></trkpt><trkpt lat="44.9991232" lon="8.0089273"><ele>191.0</ele><time>2026-04-18T13:11:56.259Z</time></trkpt><trkpt lat="44.9992422" lon="8.0087968"><ele>192.66666666666666</ele><time>2026-04-18T13:11:57.259Z</time></trkpt><trkpt lat="44.9993622" lon="8.0086698"><ele>194.33333333333331</ele><time>2026-04-18T13:11:58.26Z</time></trkpt><trkpt lat="44.9994853" lon="8.0085421"><ele>196.0</ele><time>2026-04-18T13:11:59.26Z</time></trkpt><trkpt lat="44.9996155" lon="8.0084197"><ele>195.33333333333331</ele><time>2026-04-18T13:12:00.26Z</time></trkpt><trkpt lat="44.9997559" lon="8.008319"><ele>194.66666666666669</ele><time>2026-04-18T13:12:01.259Z</time></trkpt><trkpt lat="44.999906" lon="8.0082497"><ele>194.0</ele><time>2026-04-18T13:12:02.259Z</time></trkpt><trkpt lat="45.0000588" lon="8.0082151"><ele>194.0</ele><time>2026-04-18T13:12:03.26Z</time></trkpt><trkpt lat="45.0002172" lon="8.0082111"><ele>194.0</ele><time>2026-04-18T13:12:04.259Z</time></trkpt><trkpt lat="45.0003723" lon="8.0082312"><ele>194.0</ele><time>2026-04-18T13:12:05.259Z</time></trkpt><trkpt lat="45.0005268" lon="8.0082358"><ele>194.0</ele><time>2026-04-18T13:12:06.26Z</time></trkpt><trkpt lat="45.0006815" lon="8.0082086"><ele>194.0</ele><time>2026-04-18T13:12:07.259Z</time></trkpt><trkpt lat="45.0008313" lon="8.0081387"><ele>194.0</ele><time>2026-04-18T13:12:08.259Z</time></trkpt><trkpt lat="45.0009841" lon="8.0080313"><ele>195.66666666666669</ele><time>2026-04-18T13:12:09.259Z</time></trkpt><trkpt lat="45.0011325" lon="8.0078957"><ele>197.33333333333331</ele><time>2026-04-18T13:12:10.259Z</time></trkpt><trkpt lat="45.0012799" lon="8.0077642"><ele>199.0</ele><time>2026-04-18T13:12:11.259Z</time></trkpt><trkpt lat="45.0014262" lon="8.0076207"><ele>197.0</ele><time>2026-04-18T13:12:12.259Z</time></trkpt><trkpt lat="45.0015654" lon="8.0074817"><ele>195.0</ele><time>2026-04-18T13:12:13.259Z</time></trkpt><trkpt lat="45.0017202" lon="8.007349"><ele>193.0</ele><time>2026-04-18T13:12:14.259Z</time></trkpt><trkpt lat="45.0018761" lon="8.0072226"><ele>193.0</ele><time>2026-04-18T13:12:15.259Z</time></trkpt><trkpt lat="45.0020343" lon="8.0070984"><ele>193.0</ele><time>2026-04-18T13:12:16.259Z</time></trkpt><trkpt lat="45.0021966" lon="8.0069752"><ele>193.0</ele><time>2026-04-18T13:12:17.259Z</time></trkpt><trkpt lat="45.0023488" lon="8.0068575"><ele>193.0</ele><time>2026-04-18T13:12:18.26Z</time></trkpt><trkpt lat="45.0024877" lon="8.0067459"><ele>193.0</ele><time>2026-04-18T13:12:19.259Z</time></trkpt><trkpt lat="45.0026174" lon="8.0066473"><ele>193.0</ele><time>2026-04-18T13:12:20.26Z</time></trkpt><trkpt lat="45.0027443" lon="8.0065566"><ele>193.0</ele><time>2026-04-18T13:12:21.259Z</time></trkpt><trkpt lat="45.002859" lon="8.0064773"><ele>193.0</ele><time>2026-04-18T13:12:22.259Z</time></trkpt><trkpt lat="45.002957" lon="8.0064012"><ele>193.0</ele><time>2026-04-18T13:12:23.259Z</time></trkpt><trkpt lat="45.0030347" lon="8.0063158"><ele>193.0</ele><time>2026-04-18T13:12:24.259Z</time></trkpt><trkpt lat="45.0030842" lon="8.0062142"><ele>193.0</ele><time>2026-04-18T13:12:25.259Z</time></trkpt><trkpt lat="45.0031132" lon="8.0060982"><ele>193.0</ele><time>2026-04-18T13:12:26.26Z</time></trkpt><trkpt lat="45.003118" lon="8.0059658"><ele>193.25</ele><time>2026-04-18T13:12:27.259Z</time></trkpt><trkpt lat="45.0031001" lon="8.0058186"><ele>193.5</ele><time>2026-04-18T13:12:28.259Z</time></trkpt><trkpt lat="45.0030696" lon="8.0056611"><ele>193.75</ele><time>2026-04-18T13:12:29.259Z</time></trkpt><trkpt lat="45.0030258" lon="8.0054942"><ele>194.0</ele><time>2026-04-18T13:12:30.259Z</time></trkpt><trkpt lat="45.0029828" lon="8.0053126"><ele>194.0</ele><time>2026-04-18T13:12:31.259Z</time></trkpt><trkpt lat="45.0029351" lon="8.0051373"><ele>194.0</ele><time>2026-04-18T13:12:32.26Z</time></trkpt><trkpt lat="45.0028884" lon="8.0049418"><ele>194.0</ele><time>2026-04-18T13:12:33.259Z</time></trkpt><trkpt lat="45.002836" lon="8.0047346"><ele>194.0</ele><time>2026-04-18T13:12:34.259Z</time></trkpt><trkpt lat="45.0027817" lon="8.004534"><ele>196.0</ele><time>2026-04-18T13:12:35.26Z</time></trkpt><trkpt lat="45.0027256" lon="8.0043195"><ele>198.0</ele><time>2026-04-18T13:12:36.259Z</time></trkpt><trkpt lat="45.0026688" lon="8.0041074"><ele>200.0</ele><time>2026-04-18T13:12:37.259Z</time></trkpt><trkpt lat="45.002613" lon="8.0038891"><ele>202.0</ele><time>2026-04-18T13:12:38.259Z</time></trkpt><trkpt lat="45.002555" lon="8.0036803"><ele>204.0</ele><time>2026-04-18T13:12:39.26Z</time></trkpt><trkpt lat="45.0024999" lon="8.0034617"><ele>206.0</ele><time>2026-04-18T13:12:40.259Z</time></trkpt><trkpt lat="45.0024439" lon="8.0032431"><ele>208.66666666666669</ele><time>2026-04-18T13:12:41.259Z</time></trkpt><trkpt lat="45.0023928" lon="8.0030245"><ele>211.33333333333331</ele><time>2026-04-18T13:12:42.259Z</time></trkpt><trkpt lat="45.0023382" lon="8.0028016"><ele>214.0</ele><time>2026-04-18T13:12:43.259Z</time></trkpt><trkpt lat="45.0022854" lon="8.0025779"><ele>212.33333333333331</ele><time>2026-04-18T13:12:44.259Z</time></trkpt><trkpt lat="45.0022333" lon="8.0023589"><ele>210.66666666666669</ele><time>2026-04-18T13:12:45.259Z</time></trkpt><trkpt lat="45.0021811" lon="8.0021505"><ele>209.0</ele><time>2026-04-18T13:12:46.259Z</time></trkpt><trkpt lat="45.0021283" lon="8.0019359"><ele>209.0</ele><time>2026-04-18T13:12:47.259Z</time></trkpt><trkpt lat="45.0020845" lon="8.0017379"><ele>209.0</ele><time>2026-04-18T13:12:48.26Z</time></trkpt><trkpt lat="45.0020496" lon="8.0015483"><ele>209.0</ele><time>2026-04-18T13:12:49.259Z</time></trkpt><trkpt lat="45.0020371" lon="8.0013765"><ele>209.0</ele><time>2026-04-18T13:12:50.259Z</time></trkpt><trkpt lat="45.0020594" lon="8.0012004"><ele>210.25</ele><time>2026-04-18T13:12:51.259Z</time></trkpt><trkpt lat="45.0021156" lon="8.0010451"><ele>211.5</ele><time>2026-04-18T13:12:52.259Z</time></trkpt><trkpt lat="45.0021795" lon="8.0008786"><ele>212.75</ele><time>2026-04-18T13:12:53.259Z</time></trkpt><trkpt lat="45.0022578" lon="8.0007105"><ele>214.0</ele><time>2026-04-18T13:12:54.259Z</time></trkpt><trkpt lat="45.0023371" lon="8.0005479"><ele>215.5</ele><time>2026-04-18T13:12:55.259Z</time></trkpt><trkpt lat="45.0024084" lon="8.0004042"><ele>217.0</ele><time>2026-04-18T13:12:56.26Z</time></trkpt><trkpt lat="45.0024703" lon="8.0002698"><ele>218.5</ele><time>2026-04-18T13:12:57.26Z</time></trkpt><trkpt lat="45.0025449" lon="8.0001569"><ele>220.0</ele><time>2026-04-18T13:12:58.259Z</time></trkpt><trkpt lat="45.0026309" lon="8.0000651"><ele>220.0</ele><time>2026-04-18T13:12:59.26Z</time></trkpt><trkpt lat="45.0027326" lon="8.0000043"><ele>220.0</ele><time>2026-04-18T13:13:00.259Z</time></trkpt><trkpt lat="45.0028505" lon="7.9999861"><ele>220.0</ele><time>2026-04-18T13:13:01.259Z</time></trkpt><trkpt lat="45.0029587" lon="8.0000136"><ele>220.0</ele><time>2026-04-18T13:13:02.259Z</time></trkpt><trkpt lat="45.0030523" lon="8.0000821"><ele>220.0</ele><time>2026-04-18T13:13:03.259Z</time></trkpt><trkpt lat="45.0031152" lon="8.0001921"><ele>220.0</ele><time>2026-04-18T13:13:04.259Z</time></trkpt><trkpt lat="45.0031414" lon="8.0003328"><ele>220.0</ele><time>2026-04-18T13:13:05.259Z</time></trkpt><trkpt lat="45.0031411" lon="8.0004796"><ele>220.0</ele><time>2026-04-18T13:13:06.26Z</time></trkpt><trkpt lat="45.0030847" lon="8.0006108"><ele>220.0</ele><time>2026-04-18T13:13:07.26Z</time></trkpt><trkpt lat="45.0030392" lon="8.0007257"><ele>220.0</ele><time>2026-04-18T13:13:08.259Z</time></trkpt><trkpt lat="45.0029987" lon="8.0008395"><ele>220.49999999999997</ele><time>2026-04-18T13:13:09.26Z</time></trkpt><trkpt lat="45.0029947" lon="8.0009499"><ele>221.0</ele><time>2026-04-18T13:13:10.259Z</time></trkpt><trkpt lat="45.0030193" lon="8.0010424"><ele>221.5</ele><time>2026-04-18T13:13:11.259Z</time></trkpt><trkpt lat="45.0030639" lon="8.0011064"><ele>222.0</ele><time>2026-04-18T13:13:12.26Z</time></trkpt><trkpt lat="45.0031502" lon="8.0011024"><ele>222.49999999999997</ele><time>2026-04-18T13:13:13.259Z</time></trkpt><trkpt lat="45.0032325" lon="8.0010484"><ele>223.0</ele><time>2026-04-18T13:13:14.259Z</time></trkpt><trkpt lat="45.0033199" lon="8.0009667"><ele>227.25</ele><time>2026-04-18T13:13:15.26Z</time></trkpt><trkpt lat="45.0034028" lon="8.0008662"><ele>231.5</ele><time>2026-04-18T13:13:16.259Z</time></trkpt><trkpt lat="45.0034815" lon="8.0007533"><ele>235.75</ele><time>2026-04-18T13:13:17.259Z</time></trkpt><trkpt lat="45.0035619" lon="8.0006157"><ele>240.0</ele><time>2026-04-18T13:13:18.259Z</time></trkpt><trkpt lat="45.0036421" lon="8.0004508"><ele>240.0</ele><time>2026-04-18T13:13:19.259Z</time></trkpt><trkpt lat="45.0037127" lon="8.0002832"><ele>240.0</ele><time>2026-04-18T13:13:20.259Z</time></trkpt><trkpt lat="45.0037712" lon="8.000099"><ele>240.0</ele><time>2026-04-18T13:13:21.259Z</time></trkpt><trkpt lat="45.0038199" lon="7.9999149"><ele>240.0</ele><time>2026-04-18T13:13:22.259Z</time></trkpt><trkpt lat="45.0038675" lon="7.9997254"><ele>240.0</ele><time>2026-04-18T13:13:23.259Z</time></trkpt><trkpt lat="45.0039197" lon="7.9995322"><ele>240.0</ele><time>2026-04-18T13:13:24.259Z</time></trkpt><trkpt lat="45.0039643" lon="7.9993394"><ele>240.0</ele><time>2026-04-18T13:13:25.259Z</time></trkpt><trkpt lat="45.0040073" lon="7.9991619"><ele>240.0</ele><time>2026-04-18T13:13:26.259Z</time></trkpt><trkpt lat="45.0040484" lon="7.9989826"><ele>239.75</ele><time>2026-04-18T13:13:27.259Z</time></trkpt><trkpt lat="45.0040987" lon="7.9987996"><ele>239.5</ele><time>2026-04-18T13:13:28.259Z</time></trkpt><trkpt lat="45.0041402" lon="7.9986207"><ele>239.25</ele><time>2026-04-18T13:13:29.259Z</time></trkpt><trkpt lat="45.0041814" lon="7.9984385"><ele>239.0</ele><time>2026-04-18T13:13:30.26Z</time></trkpt><trkpt lat="45.0042103" lon="7.9982613"><ele>239.0</ele><time>2026-04-18T13:13:31.26Z</time></trkpt><trkpt lat="45.0042078" lon="7.998095"><ele>239.0</ele><time>2026-04-18T13:13:32.259Z</time></trkpt><trkpt lat="45.0041792" lon="7.9979309"><ele>239.0</ele><time>2026-04-18T13:13:33.259Z</time></trkpt><trkpt lat="45.0041223" lon="7.9977801"><ele>239.0</ele><time>2026-04-18T13:13:34.26Z</time></trkpt><trkpt lat="45.0040481" lon="7.9976437"><ele>239.0</ele><time>2026-04-18T13:13:35.26Z</time></trkpt><trkpt lat="45.0039638" lon="7.9975075"><ele>239.0</ele><time>2026-04-18T13:13:36.259Z</time></trkpt><trkpt lat="45.003874" lon="7.9973637"><ele>239.0</ele><time>2026-04-18T13:13:37.259Z</time></trkpt><trkpt lat="45.003781" lon="7.9972264"><ele>239.0</ele><time>2026-04-18T13:13:38.259Z</time></trkpt><trkpt lat="45.0036948" lon="7.9971005"><ele>241.2</ele><time>2026-04-18T13:13:39.259Z</time></trkpt><trkpt lat="45.0036018" lon="7.9969952"><ele>243.39999999999998</ele><time>2026-04-18T13:13:40.259Z</time></trkpt><trkpt lat="45.0035003" lon="7.9969142"><ele>245.6</ele><time>2026-04-18T13:13:41.26Z</time></trkpt><trkpt lat="45.0034047" lon="7.9968488"><ele>247.8</ele><time>2026-04-18T13:13:42.259Z</time></trkpt><trkpt lat="45.0033172" lon="7.9967997"><ele>250.0</ele><time>2026-04-18T13:13:43.259Z</time></trkpt><trkpt lat="45.0032574" lon="7.9967302"><ele>251.33333333333331</ele><time>2026-04-18T13:13:44.259Z</time></trkpt><trkpt lat="45.0032208" lon="7.996643"><ele>252.66666666666666</ele><time>2026-04-18T13:13:45.259Z</time></trkpt><trkpt lat="45.0032244" lon="7.996541"><ele>254.0</ele><time>2026-04-18T13:13:46.259Z</time></trkpt><trkpt lat="45.0032572" lon="7.996435"><ele>255.33333333333331</ele><time>2026-04-18T13:13:47.259Z</time></trkpt><trkpt lat="45.0033124" lon="7.996316"><ele>256.6666666666667</ele><time>2026-04-18T13:13:48.259Z</time></trkpt><trkpt lat="45.0033861" lon="7.9961852"><ele>258.0</ele><time>2026-04-18T13:13:49.26Z</time></trkpt><trkpt lat="45.0034591" lon="7.996041"><ele>258.0</ele><time>2026-04-18T13:13:50.259Z</time></trkpt><trkpt lat="45.0035252" lon="7.9958962"><ele>258.0</ele><time>2026-04-18T13:13:51.26Z</time></trkpt><trkpt lat="45.0035975" lon="7.9957633"><ele>258.0</ele><time>2026-04-18T13:13:52.26Z</time></trkpt><trkpt lat="45.003686" lon="7.9956508"><ele>258.0</ele><time>2026-04-18T13:13:53.259Z</time></trkpt><trkpt lat="45.0037992" lon="7.9955724"><ele>258.25</ele><time>2026-04-18T13:13:54.259Z</time></trkpt><trkpt lat="45.0039197" lon="7.9955333"><ele>258.5</ele><time>2026-04-18T13:13:55.259Z</time></trkpt><trkpt lat="45.0040458" lon="7.995519"><ele>258.75</ele><time>2026-04-18T13:13:56.26Z</time></trkpt><trkpt lat="45.0041618" lon="7.9955136"><ele>259.0</ele><time>2026-04-18T13:13:57.259Z</time></trkpt><trkpt lat="45.004269" lon="7.9954902"><ele>259.0</ele><time>2026-04-18T13:13:58.26Z</time></trkpt><trkpt lat="45.0043704" lon="7.9954612"><ele>259.0</ele><time>2026-04-18T13:13:59.26Z</time></trkpt><trkpt lat="45.0044483" lon="7.9953618"><ele>259.0</ele><time>2026-04-18T13:14:00.259Z</time></trkpt><trkpt lat="45.0044976" lon="7.9952128"><ele>259.0</ele><time>2026-04-18T13:14:01.26Z</time></trkpt><trkpt lat="45.0045165" lon="7.9950303"><ele>256.0</ele><time>2026-04-18T13:14:02.26Z</time></trkpt><trkpt lat="45.0045244" lon="7.9948337"><ele>253.0</ele><time>2026-04-18T13:14:03.259Z</time></trkpt><trkpt lat="45.0045342" lon="7.9946329"><ele>250.0</ele><time>2026-04-18T13:14:04.259Z</time></trkpt><trkpt lat="45.0045423" lon="7.9944214"><ele>247.0</ele><time>2026-04-18T13:14:05.259Z</time></trkpt><trkpt lat="45.0045539" lon="7.9942139"><ele>245.25</ele><time>2026-04-18T13:14:06.26Z</time></trkpt><trkpt lat="45.0045689" lon="7.9940247"><ele>243.5</ele><time>2026-04-18T13:14:07.259Z</time></trkpt><trkpt lat="45.0045809" lon="7.9938483"><ele>241.75</ele><time>2026-04-18T13:14:08.259Z</time></trkpt><trkpt lat="45.0045733" lon="7.9936722"><ele>240.0</ele><time>2026-04-18T13:14:09.259Z</time></trkpt><trkpt lat="45.0045359" lon="7.9934904"><ele>238.75</ele><time>2026-04-18T13:14:10.26Z</time></trkpt><trkpt lat="45.0044668" lon="7.993331"><ele>237.5</ele><time>2026-04-18T13:14:11.259Z</time></trkpt><trkpt lat="45.0043792" lon="7.9931872"><ele>236.25</ele><time>2026-04-18T13:14:12.259Z</time></trkpt><trkpt lat="45.0043068" lon="7.9930577"><ele>235.0</ele><time>2026-04-18T13:14:13.259Z</time></trkpt><trkpt lat="45.004253" lon="7.9929234"><ele>235.0</ele><time>2026-04-18T13:14:14.259Z</time></trkpt><trkpt lat="45.004231" lon="7.9927859"><ele>235.0</ele><time>2026-04-18T13:14:15.259Z</time></trkpt><trkpt lat="45.0042325" lon="7.9926511"><ele>235.0</ele><time>2026-04-18T13:14:16.26Z</time></trkpt><trkpt lat="45.0042458" lon="7.9925096"><ele>235.0</ele><time>2026-04-18T13:14:17.26Z</time></trkpt><trkpt lat="45.0042288" lon="7.9923818"><ele>235.0</ele><time>2026-04-18T13:14:18.26Z</time></trkpt><trkpt lat="45.0041716" lon="7.9922738"><ele>232.6</ele><time>2026-04-18T13:14:19.259Z</time></trkpt><trkpt lat="45.0040841" lon="7.9921912"><ele>230.2</ele><time>2026-04-18T13:14:20.259Z</time></trkpt><trkpt lat="45.0039788" lon="7.9921207"><ele>227.8</ele><time>2026-04-18T13:14:21.26Z</time></trkpt><trkpt lat="45.0038774" lon="7.992042"><ele>225.4</ele><time>2026-04-18T13:14:22.259Z</time></trkpt><trkpt lat="45.0037862" lon="7.9919621"><ele>223.0</ele><time>2026-04-18T13:14:23.26Z</time></trkpt><trkpt lat="45.003724" lon="7.9918353"><ele>223.0</ele><time>2026-04-18T13:14:24.259Z</time></trkpt><trkpt lat="45.0036903" lon="7.9916701"><ele>223.0</ele><time>2026-04-18T13:14:25.26Z</time></trkpt><trkpt lat="45.0036833" lon="7.9914924"><ele>223.0</ele><time>2026-04-18T13:14:26.259Z</time></trkpt><trkpt lat="45.003687" lon="7.9912989"><ele>223.0</ele><time>2026-04-18T13:14:27.259Z</time></trkpt><trkpt lat="45.0036932" lon="7.9911082"><ele>223.0</ele><time>2026-04-18T13:14:28.259Z</time></trkpt><trkpt lat="45.0036916" lon="7.990906"><ele>223.0</ele><time>2026-04-18T13:14:29.26Z</time></trkpt><trkpt lat="45.0037043" lon="7.9907026"><ele>223.0</ele><time>2026-04-18T13:14:30.259Z</time></trkpt><trkpt lat="45.0037227" lon="7.9904941"><ele>223.0</ele><time>2026-04-18T13:14:31.259Z</time></trkpt><trkpt lat="45.0037577" lon="7.9902901"><ele>222.33333333333331</ele><time>2026-04-18T13:14:32.259Z</time></trkpt><trkpt lat="45.0038182" lon="7.990083"><ele>221.66666666666669</ele><time>2026-04-18T13:14:33.259Z</time></trkpt><trkpt lat="45.0038912" lon="7.9898848"><ele>221.0</ele><time>2026-04-18T13:14:34.259Z</time></trkpt><trkpt lat="45.0039707" lon="7.9896847"><ele>219.0</ele><time>2026-04-18T13:14:35.259Z</time></trkpt><trkpt lat="45.0040494" lon="7.9894836"><ele>217.0</ele><time>2026-04-18T13:14:36.259Z</time></trkpt><trkpt lat="45.0041363" lon="7.989278"><ele>215.0</ele><time>2026-04-18T13:14:37.259Z</time></trkpt><trkpt lat="45.0042185" lon="7.9890878"><ele>215.0</ele><time>2026-04-18T13:14:38.259Z</time></trkpt><trkpt lat="45.0043067" lon="7.9888924"><ele>215.0</ele><time>2026-04-18T13:14:39.26Z</time></trkpt><trkpt lat="45.0043856" lon="7.9886983"><ele>215.0</ele><time>2026-04-18T13:14:40.26Z</time></trkpt><trkpt lat="45.004466" lon="7.9885174"><ele>213.0</ele><time>2026-04-18T13:14:41.259Z</time></trkpt><trkpt lat="45.004544" lon="7.9883311"><ele>211.0</ele><time>2026-04-18T13:14:42.26Z</time></trkpt><trkpt lat="45.0046209" lon="7.9881423"><ele>209.0</ele><time>2026-04-18T13:14:43.259Z</time></trkpt><trkpt lat="45.0046957" lon="7.9879562"><ele>209.0</ele><time>2026-04-18T13:14:44.259Z</time></trkpt><trkpt lat="45.0047866" lon="7.987789"><ele>209.0</ele><time>2026-04-18T13:14:45.259Z</time></trkpt><trkpt lat="45.0048874" lon="7.9876381"><ele>209.0</ele><time>2026-04-18T13:14:46.259Z</time></trkpt><trkpt lat="45.0050115" lon="7.9875148"><ele>209.0</ele><time>2026-04-18T13:14:47.26Z</time></trkpt><trkpt lat="45.0051372" lon="7.9874013"><ele>212.0</ele><time>2026-04-18T13:14:48.259Z</time></trkpt><trkpt lat="45.0052776" lon="7.9872962"><ele>215.0</ele><time>2026-04-18T13:14:49.259Z</time></trkpt><trkpt lat="45.0054171" lon="7.9871854"><ele>218.0</ele><time>2026-04-18T13:14:50.259Z</time></trkpt><trkpt lat="45.0055542" lon="7.9870679"><ele>218.0</ele><time>2026-04-18T13:14:51.259Z</time></trkpt><trkpt lat="45.0056942" lon="7.9869375"><ele>218.0</ele><time>2026-04-18T13:14:52.259Z</time></trkpt><trkpt lat="45.0058338" lon="7.986816"><ele>218.0</ele><time>2026-04-18T13:14:53.26Z</time></trkpt><trkpt lat="45.0059787" lon="7.9867106"><ele>218.66666666666669</ele><time>2026-04-18T13:14:54.259Z</time></trkpt><trkpt lat="45.0061344" lon="7.9866327"><ele>219.33333333333331</ele><time>2026-04-18T13:14:55.259Z</time></trkpt><trkpt lat="45.0062908" lon="7.9865657"><ele>220.0</ele><time>2026-04-18T13:14:56.259Z</time></trkpt><trkpt lat="45.0064515" lon="7.9865074"><ele>220.0</ele><time>2026-04-18T13:14:57.26Z</time></trkpt><trkpt lat="45.0066228" lon="7.9864885"><ele>220.0</ele><time>2026-04-18T13:14:58.26Z</time></trkpt><trkpt lat="45.0067869" lon="7.986447"><ele>220.0</ele><time>2026-04-18T13:14:59.259Z</time></trkpt><trkpt lat="45.0069503" lon="7.9864084"><ele>221.0</ele><time>2026-04-18T13:15:00.259Z</time></trkpt><trkpt lat="45.0071171" lon="7.9863865"><ele>222.0</ele><time>2026-04-18T13:15:01.259Z</time></trkpt><trkpt lat="45.0072835" lon="7.986365"><ele>223.0</ele><time>2026-04-18T13:15:02.259Z</time></trkpt><trkpt lat="45.007447" lon="7.9863388"><ele>223.33333333333331</ele><time>2026-04-18T13:15:03.259Z</time></trkpt><trkpt lat="45.0076116" lon="7.9863091"><ele>223.66666666666669</ele><time>2026-04-18T13:15:04.259Z</time></trkpt><trkpt lat="45.0077827" lon="7.9862756"><ele>224.0</ele><time>2026-04-18T13:15:05.26Z</time></trkpt><trkpt lat="45.0079534" lon="7.9862327"><ele>224.0</ele><time>2026-04-18T13:15:06.26Z</time></trkpt><trkpt lat="45.008123" lon="7.9861984"><ele>224.0</ele><time>2026-04-18T13:15:07.259Z</time></trkpt><trkpt lat="45.0082885" lon="7.9861562"><ele>224.0</ele><time>2026-04-18T13:15:08.259Z</time></trkpt><trkpt lat="45.0084593" lon="7.9861219"><ele>225.0</ele><time>2026-04-18T13:15:09.26Z</time></trkpt><trkpt lat="45.0086315" lon="7.9860875"><ele>226.0</ele><time>2026-04-18T13:15:10.26Z</time></trkpt><trkpt lat="45.0088016" lon="7.9860528"><ele>227.0</ele><time>2026-04-18T13:15:11.259Z</time></trkpt><trkpt lat="45.0089625" lon="7.9860282"><ele>227.0</ele><time>2026-04-18T13:15:12.259Z</time></trkpt><trkpt lat="45.0091238" lon="7.9860247"><ele>227.0</ele><time>2026-04-18T13:15:13.26Z</time></trkpt><trkpt lat="45.0092818" lon="7.9860505"><ele>227.0</ele><time>2026-04-18T13:15:14.259Z</time></trkpt><trkpt lat="45.0094354" lon="7.986088"><ele>226.5</ele><time>2026-04-18T13:15:15.26Z</time></trkpt><trkpt lat="45.0095864" lon="7.9861427"><ele>226.0</ele><time>2026-04-18T13:15:16.259Z</time></trkpt><trkpt lat="45.0097219" lon="7.9862002"><ele>225.5</ele><time>2026-04-18T13:15:17.259Z</time></trkpt><trkpt lat="45.0098538" lon="7.9862531"><ele>225.0</ele><time>2026-04-18T13:15:18.26Z</time></trkpt><trkpt lat="45.00998" lon="7.9862909"><ele>223.0</ele><time>2026-04-18T13:15:19.259Z</time></trkpt><trkpt lat="45.0101015" lon="7.986332"><ele>221.0</ele><time>2026-04-18T13:15:20.259Z</time></trkpt><trkpt lat="45.0102017" lon="7.9863523"><ele>219.0</ele><time>2026-04-18T13:15:21.26Z</time></trkpt><trkpt lat="45.0102971" lon="7.9863661"><ele>217.0</ele><time>2026-04-18T13:15:22.259Z</time></trkpt><trkpt lat="45.0103751" lon="7.9864018"><ele>215.0</ele><time>2026-04-18T13:15:23.259Z</time></trkpt><trkpt lat="45.0104314" lon="7.9864634"><ele>215.00000000000003</ele><time>2026-04-18T13:15:24.26Z</time></trkpt><trkpt lat="45.0104879" lon="7.9865422"><ele>215.0</ele><time>2026-04-18T13:15:25.259Z</time></trkpt><trkpt lat="45.0105284" lon="7.9866405"><ele>215.0</ele><time>2026-04-18T13:15:26.259Z</time></trkpt><trkpt lat="45.0105641" lon="7.9867458"><ele>215.0</ele><time>2026-04-18T13:15:27.259Z</time></trkpt><trkpt lat="45.0105781" lon="7.9868663"><ele>215.00000000000003</ele><time>2026-04-18T13:15:28.259Z</time></trkpt><trkpt lat="45.0105742" lon="7.9870026"><ele>215.0</ele><time>2026-04-18T13:15:29.26Z</time></trkpt><trkpt lat="45.0105553" lon="7.9871485"><ele>215.75</ele><time>2026-04-18T13:15:30.26Z</time></trkpt><trkpt lat="45.0105343" lon="7.9873057"><ele>216.5</ele><time>2026-04-18T13:15:31.26Z</time></trkpt><trkpt lat="45.010514" lon="7.9874712"><ele>217.25</ele><time>2026-04-18T13:15:32.259Z</time></trkpt><trkpt lat="45.0104892" lon="7.9876369"><ele>218.0</ele><time>2026-04-18T13:15:33.259Z</time></trkpt><trkpt lat="45.0104646" lon="7.9877952"><ele>219.25</ele><time>2026-04-18T13:15:34.26Z</time></trkpt><trkpt lat="45.0104456" lon="7.9879551"><ele>220.5</ele><time>2026-04-18T13:15:35.259Z</time></trkpt><trkpt lat="45.0104247" lon="7.9881183"><ele>221.75</ele><time>2026-04-18T13:15:36.259Z</time></trkpt><trkpt lat="45.0104126" lon="7.988288"><ele>223.0</ele><time>2026-04-18T13:15:37.259Z</time></trkpt><trkpt lat="45.0103909" lon="7.988468"><ele>224.75</ele><time>2026-04-18T13:15:38.259Z</time></trkpt><trkpt lat="45.0103706" lon="7.9886474"><ele>226.5</ele><time>2026-04-18T13:15:39.259Z</time></trkpt><trkpt lat="45.010357" lon="7.9888253"><ele>228.25</ele><time>2026-04-18T13:15:40.259Z</time></trkpt><trkpt lat="45.0103312" lon="7.9889874"><ele>230.0</ele><time>2026-04-18T13:15:41.259Z</time></trkpt><trkpt lat="45.0102914" lon="7.9891398"><ele>232.50000000000003</ele><time>2026-04-18T13:15:42.259Z</time></trkpt><trkpt lat="45.0102155" lon="7.9892334"><ele>235.0</ele><time>2026-04-18T13:15:43.259Z</time></trkpt><trkpt lat="45.0101243" lon="7.9893008"><ele>237.5</ele><time>2026-04-18T13:15:44.259Z</time></trkpt><trkpt lat="45.0100445" lon="7.9893573"><ele>240.0</ele><time>2026-04-18T13:15:45.259Z</time></trkpt><trkpt lat="45.0099736" lon="7.9894047"><ele>242.50000000000003</ele><time>2026-04-18T13:15:46.259Z</time></trkpt><trkpt lat="45.009907" lon="7.9894478"><ele>245.0</ele><time>2026-04-18T13:15:47.26Z</time></trkpt><trkpt lat="45.0098533" lon="7.989502"><ele>245.00000000000003</ele><time>2026-04-18T13:15:48.259Z</time></trkpt><trkpt lat="45.0098193" lon="7.9895937"><ele>245.0</ele><time>2026-04-18T13:15:49.26Z</time></trkpt><trkpt lat="45.0098168" lon="7.9896831"><ele>245.0</ele><time>2026-04-18T13:15:50.259Z</time></trkpt><trkpt lat="45.0098594" lon="7.9897659"><ele>245.0</ele><time>2026-04-18T13:15:51.259Z</time></trkpt><trkpt lat="45.0099387" lon="7.9898158"><ele>245.00000000000003</ele><time>2026-04-18T13:15:52.26Z</time></trkpt><trkpt lat="45.0100395" lon="7.9898457"><ele>245.0</ele><time>2026-04-18T13:15:53.259Z</time></trkpt><trkpt lat="45.0101464" lon="7.9898814"><ele>245.0</ele><time>2026-04-18T13:15:54.26Z</time></trkpt><trkpt lat="45.0102626" lon="7.9899132"><ele>245.0</ele><time>2026-04-18T13:15:55.259Z</time></trkpt><trkpt lat="45.0103797" lon="7.9899379"><ele>245.0</ele><time>2026-04-18T13:15:56.26Z</time></trkpt><trkpt lat="45.0105067" lon="7.989964"><ele>245.0</ele><time>2026-04-18T13:15:57.26Z</time></trkpt><trkpt lat="45.0106348" lon="7.989994"><ele>246.75</ele><time>2026-04-18T13:15:58.259Z</time></trkpt><trkpt lat="45.0107677" lon="7.9900121"><ele>248.5</ele><time>2026-04-18T13:15:59.259Z</time></trkpt><trkpt lat="45.0109053" lon="7.9900257"><ele>250.25</ele><time>2026-04-18T13:16:00.259Z</time></trkpt><trkpt lat="45.011036" lon="7.990035"><ele>252.0</ele><time>2026-04-18T13:16:01.26Z</time></trkpt><trkpt lat="45.0111647" lon="7.9900475"><ele>252.0</ele><time>2026-04-18T13:16:02.259Z</time></trkpt><trkpt lat="45.0113002" lon="7.9900541"><ele>252.0</ele><time>2026-04-18T13:16:03.259Z</time></trkpt><trkpt lat="45.0114408" lon="7.9900619"><ele>252.0</ele><time>2026-04-18T13:16:04.259Z</time></trkpt><trkpt lat="45.0115788" lon="7.9900831"><ele>252.0</ele><time>2026-04-18T13:16:05.259Z</time></trkpt><trkpt lat="45.0117228" lon="7.9901235"><ele>253.0</ele><time>2026-04-18T13:16:06.259Z</time></trkpt><trkpt lat="45.0118658" lon="7.990165"><ele>254.0</ele><time>2026-04-18T13:16:07.259Z</time></trkpt><trkpt lat="45.0120037" lon="7.9902135"><ele>255.0</ele><time>2026-04-18T13:16:08.259Z</time></trkpt><trkpt lat="45.0121391" lon="7.9902721"><ele>256.0</ele><time>2026-04-18T13:16:09.259Z</time></trkpt><trkpt lat="45.0122755" lon="7.9903399"><ele>256.0</ele><time>2026-04-18T13:16:10.26Z</time></trkpt><trkpt lat="45.0124056" lon="7.9904281"><ele>256.0</ele><time>2026-04-18T13:16:11.259Z</time></trkpt><trkpt lat="45.012536" lon="7.9905573"><ele>256.0</ele><time>2026-04-18T13:16:12.259Z</time></trkpt><trkpt lat="45.0126413" lon="7.9907157"><ele>258.66666666666663</ele><time>2026-04-18T13:16:13.26Z</time></trkpt><trkpt lat="45.0127386" lon="7.9908881"><ele>261.3333333333333</ele><time>2026-04-18T13:16:14.259Z</time></trkpt><trkpt lat="45.0128248" lon="7.9910753"><ele>264.0</ele><time>2026-04-18T13:16:15.259Z</time></trkpt><trkpt lat="45.0129117" lon="7.9912607"><ele>264.0</ele><time>2026-04-18T13:16:16.259Z</time></trkpt><trkpt lat="45.0129925" lon="7.9914405"><ele>264.0</ele><time>2026-04-18T13:16:17.259Z</time></trkpt><trkpt lat="45.0130794" lon="7.9916152"><ele>264.0</ele><time>2026-04-18T13:16:18.259Z</time></trkpt><trkpt lat="45.013173" lon="7.9917761"><ele>264.0</ele><time>2026-04-18T13:16:19.259Z</time></trkpt><trkpt lat="45.013285" lon="7.9919223"><ele>263.3333333333333</ele><time>2026-04-18T13:16:20.259Z</time></trkpt><trkpt lat="45.0134032" lon="7.9920437"><ele>262.66666666666663</ele><time>2026-04-18T13:16:21.259Z</time></trkpt><trkpt lat="45.0135438" lon="7.9921429"><ele>262.0</ele><time>2026-04-18T13:16:22.259Z</time></trkpt><trkpt lat="45.0136928" lon="7.9922253"><ele>262.0</ele><time>2026-04-18T13:16:23.259Z</time></trkpt><trkpt lat="45.0138556" lon="7.9922902"><ele>262.0</ele><time>2026-04-18T13:16:24.259Z</time></trkpt><trkpt lat="45.0140238" lon="7.9923419"><ele>262.0</ele><time>2026-04-18T13:16:25.26Z</time></trkpt><trkpt lat="45.0141919" lon="7.9923959"><ele>261.66666666666663</ele><time>2026-04-18T13:16:26.259Z</time></trkpt><trkpt lat="45.0143667" lon="7.9924499"><ele>261.3333333333333</ele><time>2026-04-18T13:16:27.26Z</time></trkpt><trkpt lat="45.0145472" lon="7.9925035"><ele>261.0</ele><time>2026-04-18T13:16:28.26Z</time></trkpt><trkpt lat="45.01472" lon="7.9925612"><ele>261.0</ele><time>2026-04-18T13:16:29.259Z</time></trkpt><trkpt lat="45.0148931" lon="7.9926182"><ele>261.0</ele><time>2026-04-18T13:16:30.259Z</time></trkpt><trkpt lat="45.0150708" lon="7.9926769"><ele>261.0</ele><time>2026-04-18T13:16:31.259Z</time></trkpt><trkpt lat="45.0152462" lon="7.9927243"><ele>262.6666666666667</ele><time>2026-04-18T13:16:32.259Z</time></trkpt><trkpt lat="45.0154216" lon="7.9927521"><ele>264.33333333333337</ele><time>2026-04-18T13:16:33.259Z</time></trkpt><trkpt lat="45.0155994" lon="7.9927637"><ele>266.0</ele><time>2026-04-18T13:16:34.259Z</time></trkpt><trkpt lat="45.0157713" lon="7.9927611"><ele>267.33333333333337</ele><time>2026-04-18T13:16:35.259Z</time></trkpt><trkpt lat="45.0159423" lon="7.9927341"><ele>268.6666666666667</ele><time>2026-04-18T13:16:36.259Z</time></trkpt><trkpt lat="45.0161092" lon="7.9926923"><ele>270.0</ele><time>2026-04-18T13:16:37.259Z</time></trkpt><trkpt lat="45.0162829" lon="7.992632"><ele>270.0</ele><time>2026-04-18T13:16:38.259Z</time></trkpt><trkpt lat="45.0164473" lon="7.9925471"><ele>270.0</ele><time>2026-04-18T13:16:39.259Z</time></trkpt><trkpt lat="45.016605" lon="7.9924487"><ele>270.0</ele><time>2026-04-18T13:16:40.259Z</time></trkpt><trkpt lat="45.0167626" lon="7.9923383"><ele>270.0</ele><time>2026-04-18T13:16:41.259Z</time></trkpt><trkpt lat="45.0169135" lon="7.9922197"><ele>270.0</ele><time>2026-04-18T13:16:42.26Z</time></trkpt><trkpt lat="45.0170516" lon="7.9921046"><ele>270.0</ele><time>2026-04-18T13:16:43.259Z</time></trkpt><trkpt lat="45.0171874" lon="7.9919866"><ele>270.0</ele><time>2026-04-18T13:16:44.259Z</time></trkpt><trkpt lat="45.0173163" lon="7.9918686"><ele>270.0</ele><time>2026-04-18T13:16:45.259Z</time></trkpt><trkpt lat="45.0174404" lon="7.9917497"><ele>270.0</ele><time>2026-04-18T13:16:46.259Z</time></trkpt><trkpt lat="45.0175615" lon="7.9916168"><ele>268.6666666666667</ele><time>2026-04-18T13:16:47.259Z</time></trkpt><trkpt lat="45.0176809" lon="7.9914514"><ele>267.33333333333337</ele><time>2026-04-18T13:16:48.26Z</time></trkpt><trkpt lat="45.0177873" lon="7.991258"><ele>266.0</ele><time>2026-04-18T13:16:49.26Z</time></trkpt><trkpt lat="45.0178879" lon="7.9910486"><ele>265.33333333333337</ele><time>2026-04-18T13:16:50.259Z</time></trkpt><trkpt lat="45.017984" lon="7.9908266"><ele>264.6666666666667</ele><time>2026-04-18T13:16:51.259Z</time></trkpt><trkpt lat="45.0180755" lon="7.9906121"><ele>264.0</ele><time>2026-04-18T13:16:52.259Z</time></trkpt><trkpt lat="45.0181617" lon="7.9903986"><ele>264.0</ele><time>2026-04-18T13:16:53.259Z</time></trkpt><trkpt lat="45.0182431" lon="7.9901856"><ele>264.0</ele><time>2026-04-18T13:16:54.259Z</time></trkpt><trkpt lat="45.0183227" lon="7.9899673"><ele>264.0</ele><time>2026-04-18T13:16:55.259Z</time></trkpt><trkpt lat="45.0183974" lon="7.9897562"><ele>266.0</ele><time>2026-04-18T13:16:56.259Z</time></trkpt><trkpt lat="45.0184719" lon="7.9895439"><ele>268.0</ele><time>2026-04-18T13:16:57.259Z</time></trkpt><trkpt lat="45.0185442" lon="7.9893343"><ele>270.0</ele><time>2026-04-18T13:16:58.259Z</time></trkpt><trkpt lat="45.0186151" lon="7.989132"><ele>271.6666666666667</ele><time>2026-04-18T13:16:59.259Z</time></trkpt><trkpt lat="45.018688" lon="7.9889326"><ele>273.33333333333337</ele><time>2026-04-18T13:17:00.259Z</time></trkpt><trkpt lat="45.0187504" lon="7.9887377"><ele>275.0</ele><time>2026-04-18T13:17:01.259Z</time></trkpt><trkpt lat="45.0188199" lon="7.9885476"><ele>275.0</ele><time>2026-04-18T13:17:02.26Z</time></trkpt><trkpt lat="45.0188998" lon="7.9883725"><ele>275.0</ele><time>2026-04-18T13:17:03.26Z</time></trkpt><trkpt lat="45.018996" lon="7.9881982"><ele>275.0</ele><time>2026-04-18T13:17:04.259Z</time></trkpt><trkpt lat="45.0191098" lon="7.9880464"><ele>274.6666666666667</ele><time>2026-04-18T13:17:05.259Z</time></trkpt><trkpt lat="45.0192302" lon="7.9879182"><ele>274.3333333333333</ele><time>2026-04-18T13:17:06.259Z</time></trkpt><trkpt lat="45.0193619" lon="7.9877997"><ele>274.0</ele><time>2026-04-18T13:17:07.259Z</time></trkpt><trkpt lat="45.019506" lon="7.9877156"><ele>274.0</ele><time>2026-04-18T13:17:08.259Z</time></trkpt><trkpt lat="45.0196443" lon="7.9876726"><ele>274.0</ele><time>2026-04-18T13:17:09.259Z</time></trkpt><trkpt lat="45.0197872" lon="7.9876653"><ele>274.0</ele><time>2026-04-18T13:17:10.26Z</time></trkpt><trkpt lat="45.0199284" lon="7.9876831"><ele>274.0</ele><time>2026-04-18T13:17:11.259Z</time></trkpt><trkpt lat="45.0200746" lon="7.9877461"><ele>274.25</ele><time>2026-04-18T13:17:12.259Z</time></trkpt><trkpt lat="45.0202134" lon="7.9878208"><ele>274.5</ele><time>2026-04-18T13:17:13.26Z</time></trkpt><trkpt lat="45.0203489" lon="7.9878907"><ele>274.75</ele><time>2026-04-18T13:17:14.259Z</time></trkpt><trkpt lat="45.020483" lon="7.987956"><ele>275.0</ele><time>2026-04-18T13:17:15.26Z</time></trkpt><trkpt lat="45.020613" lon="7.988015"><ele>275.0</ele><time>2026-04-18T13:17:16.259Z</time></trkpt><trkpt lat="45.0207387" lon="7.9880706"><ele>275.0</ele><time>2026-04-18T13:17:17.259Z</time></trkpt><trkpt lat="45.0208628" lon="7.988119"><ele>275.0</ele><time>2026-04-18T13:17:18.26Z</time></trkpt><trkpt lat="45.021008" lon="7.9881498"><ele>275.0</ele><time>2026-04-18T13:17:19.259Z</time></trkpt><trkpt lat="45.021159" lon="7.9881336"><ele>274.6666666666667</ele><time>2026-04-18T13:17:20.259Z</time></trkpt><trkpt lat="45.0213131" lon="7.9880889"><ele>274.3333333333333</ele><time>2026-04-18T13:17:21.26Z</time></trkpt><trkpt lat="45.0214718" lon="7.9880342"><ele>274.0</ele><time>2026-04-18T13:17:22.26Z</time></trkpt><trkpt lat="45.021619" lon="7.9879692"><ele>272.0</ele><time>2026-04-18T13:17:23.259Z</time></trkpt><trkpt lat="45.021765" lon="7.9878932"><ele>270.0</ele><time>2026-04-18T13:17:24.259Z</time></trkpt><trkpt lat="45.0218961" lon="7.9878292"><ele>268.0</ele><time>2026-04-18T13:17:25.259Z</time></trkpt><trkpt lat="45.0220262" lon="7.9877858"><ele>266.0</ele><time>2026-04-18T13:17:26.26Z</time></trkpt><trkpt lat="45.0221528" lon="7.9877707"><ele>266.0</ele><time>2026-04-18T13:17:27.26Z</time></trkpt><trkpt lat="45.022275" lon="7.9878091"><ele>266.0</ele><time>2026-04-18T13:17:28.26Z</time></trkpt><trkpt lat="45.0224081" lon="7.9878704"><ele>266.0</ele><time>2026-04-18T13:17:29.259Z</time></trkpt><trkpt lat="45.022569" lon="7.987959"><ele>266.0</ele><time>2026-04-18T13:17:30.26Z</time></trkpt><trkpt lat="45.0227256" lon="7.9880596"><ele>263.6666666666667</ele><time>2026-04-18T13:17:31.259Z</time></trkpt><trkpt lat="45.0228869" lon="7.9881658"><ele>261.3333333333333</ele><time>2026-04-18T13:17:32.259Z</time></trkpt><trkpt lat="45.0230549" lon="7.9882747"><ele>259.0</ele><time>2026-04-18T13:17:33.26Z</time></trkpt><trkpt lat="45.0232247" lon="7.9883753"><ele>256.0</ele><time>2026-04-18T13:17:34.259Z</time></trkpt><trkpt lat="45.0233908" lon="7.9884772"><ele>253.0</ele><time>2026-04-18T13:17:35.259Z</time></trkpt><trkpt lat="45.0235449" lon="7.9885632"><ele>250.0</ele><time>2026-04-18T13:17:36.259Z</time></trkpt><trkpt lat="45.0236968" lon="7.9886465"><ele>250.0</ele><time>2026-04-18T13:17:37.26Z</time></trkpt><trkpt lat="45.0238366" lon="7.9887353"><ele>250.0</ele><time>2026-04-18T13:17:38.259Z</time></trkpt><trkpt lat="45.023966" lon="7.9888355"><ele>250.0</ele><time>2026-04-18T13:17:39.26Z</time></trkpt><trkpt lat="45.0240763" lon="7.9889528"><ele>250.0</ele><time>2026-04-18T13:17:40.259Z</time></trkpt><trkpt lat="45.0241809" lon="7.9890546"><ele>251.0</ele><time>2026-04-18T13:17:41.259Z</time></trkpt><trkpt lat="45.0242659" lon="7.9891429"><ele>252.0</ele><time>2026-04-18T13:17:42.259Z</time></trkpt><trkpt lat="45.0243565" lon="7.9892054"><ele>253.0</ele><time>2026-04-18T13:17:43.26Z</time></trkpt><trkpt lat="45.0244602" lon="7.9892329"><ele>254.0</ele><time>2026-04-18T13:17:44.26Z</time></trkpt><trkpt lat="45.0245686" lon="7.9892074"><ele>255.0</ele><time>2026-04-18T13:17:45.26Z</time></trkpt><trkpt lat="45.0246856" lon="7.989151"><ele>257.75</ele><time>2026-04-18T13:17:46.259Z</time></trkpt><trkpt lat="45.0248097" lon="7.9890745"><ele>260.5</ele><time>2026-04-18T13:17:47.259Z</time></trkpt><trkpt lat="45.0249398" lon="7.988983"><ele>263.25</ele><time>2026-04-18T13:17:48.259Z</time></trkpt><trkpt lat="45.025061" lon="7.9888708"><ele>266.0</ele><time>2026-04-18T13:17:49.259Z</time></trkpt><trkpt lat="45.0251859" lon="7.9887419"><ele>267.33333333333337</ele><time>2026-04-18T13:17:50.259Z</time></trkpt><trkpt lat="45.0253005" lon="7.9886003"><ele>268.6666666666667</ele><time>2026-04-18T13:17:51.259Z</time></trkpt><trkpt lat="45.025403" lon="7.9884405"><ele>270.0</ele><time>2026-04-18T13:17:52.26Z</time></trkpt><trkpt lat="45.0255021" lon="7.9882665"><ele>273.0</ele><time>2026-04-18T13:17:53.26Z</time></trkpt><trkpt lat="45.0255909" lon="7.9880921"><ele>276.0</ele><time>2026-04-18T13:17:54.259Z</time></trkpt><trkpt lat="45.0256857" lon="7.9879151"><ele>279.0</ele><time>2026-04-18T13:17:55.259Z</time></trkpt><trkpt lat="45.0257939" lon="7.9877494"><ele>276.6666666666667</ele><time>2026-04-18T13:17:56.259Z</time></trkpt><trkpt lat="45.025915" lon="7.9876033"><ele>274.33333333333337</ele><time>2026-04-18T13:17:57.259Z</time></trkpt><trkpt lat="45.0260459" lon="7.9874704"><ele>272.0</ele><time>2026-04-18T13:17:58.259Z</time></trkpt><trkpt lat="45.0261906" lon="7.9873539"><ele>272.0</ele><time>2026-04-18T13:17:59.259Z</time></trkpt><trkpt lat="45.026338" lon="7.9872547"><ele>272.0</ele><time>2026-04-18T13:18:00.259Z</time></trkpt><trkpt lat="45.0264963" lon="7.9871573"><ele>272.0</ele><time>2026-04-18T13:18:01.259Z</time></trkpt><trkpt lat="45.0266484" lon="7.9870702"><ele>269.6666666666667</ele><time>2026-04-18T13:18:02.26Z</time></trkpt><trkpt lat="45.0268015" lon="7.9869879"><ele>267.3333333333333</ele><time>2026-04-18T13:18:03.26Z</time></trkpt><trkpt lat="45.02695" lon="7.9869223"><ele>265.0</ele><time>2026-04-18T13:18:04.259Z</time></trkpt><trkpt lat="45.0271123" lon="7.9868909"><ele>265.0</ele><time>2026-04-18T13:18:05.259Z</time></trkpt><trkpt lat="45.0272695" lon="7.9868946"><ele>265.0</ele><time>2026-04-18T13:18:06.259Z</time></trkpt><trkpt lat="45.0274354" lon="7.986943"><ele>265.0</ele><time>2026-04-18T13:18:07.26Z</time></trkpt><trkpt lat="45.0275942" lon="7.9870092"><ele>265.0</ele><time>2026-04-18T13:18:08.259Z</time></trkpt><trkpt lat="45.0277572" lon="7.9870746"><ele>265.0</ele><time>2026-04-18T13:18:09.26Z</time></trkpt><trkpt lat="45.0279163" lon="7.9871367"><ele>265.0</ele><time>2026-04-18T13:18:10.259Z</time></trkpt><trkpt lat="45.028073" lon="7.9872009"><ele>265.0</ele><time>2026-04-18T13:18:11.259Z</time></trkpt><trkpt lat="45.0282238" lon="7.9872617"><ele>265.0</ele><time>2026-04-18T13:18:12.259Z</time></trkpt><trkpt lat="45.0283829" lon="7.9872993"><ele>265.0</ele><time>2026-04-18T13:18:13.259Z</time></trkpt><trkpt lat="45.0285429" lon="7.9873009"><ele>267.0</ele><time>2026-04-18T13:18:14.259Z</time></trkpt><trkpt lat="45.0287029" lon="7.9872928"><ele>269.0</ele><time>2026-04-18T13:18:15.259Z</time></trkpt><trkpt lat="45.0288649" lon="7.987264"><ele>271.0</ele><time>2026-04-18T13:18:16.26Z</time></trkpt><trkpt lat="45.029018" lon="7.9872343"><ele>270.66666666666663</ele><time>2026-04-18T13:18:17.259Z</time></trkpt><trkpt lat="45.0291669" lon="7.987199"><ele>270.3333333333333</ele><time>2026-04-18T13:18:18.26Z</time></trkpt><trkpt lat="45.0293183" lon="7.9871439"><ele>270.0</ele><time>2026-04-18T13:18:19.26Z</time></trkpt><trkpt lat="45.0294663" lon="7.9870689"><ele>270.0</ele><time>2026-04-18T13:18:20.259Z</time></trkpt><trkpt lat="45.0296141" lon="7.986985"><ele>270.0</ele><time>2026-04-18T13:18:21.259Z</time></trkpt><trkpt lat="45.0297591" lon="7.9868812"><ele>270.0</ele><time>2026-04-18T13:18:22.259Z</time></trkpt><trkpt lat="45.0298973" lon="7.986783"><ele>271.0</ele><time>2026-04-18T13:18:23.259Z</time></trkpt><trkpt lat="45.0300387" lon="7.9866864"><ele>272.0</ele><time>2026-04-18T13:18:24.26Z</time></trkpt><trkpt lat="45.0301676" lon="7.9866092"><ele>273.0</ele><time>2026-04-18T13:18:25.26Z</time></trkpt><trkpt lat="45.0302991" lon="7.9865397"><ele>274.0</ele><time>2026-04-18T13:18:26.26Z</time></trkpt><trkpt lat="45.0304255" lon="7.9864598"><ele>274.0</ele><time>2026-04-18T13:18:27.259Z</time></trkpt><trkpt lat="45.0305311" lon="7.9863455"><ele>274.0</ele><time>2026-04-18T13:18:28.259Z</time></trkpt><trkpt lat="45.0306279" lon="7.9861851"><ele>274.0</ele><time>2026-04-18T13:18:29.26Z</time></trkpt><trkpt lat="45.0307235" lon="7.9860079"><ele>274.0</ele><time>2026-04-18T13:18:30.259Z</time></trkpt><trkpt lat="45.0308367" lon="7.9858329"><ele>273.0</ele><time>2026-04-18T13:18:31.26Z</time></trkpt><trkpt lat="45.0309706" lon="7.9856733"><ele>272.0</ele><time>2026-04-18T13:18:32.259Z</time></trkpt><trkpt lat="45.031127" lon="7.9855201"><ele>271.0</ele><time>2026-04-18T13:18:33.259Z</time></trkpt><trkpt lat="45.0312867" lon="7.9853783"><ele>271.0</ele><time>2026-04-18T13:18:34.259Z</time></trkpt><trkpt lat="45.0314395" lon="7.9852451"><ele>271.0</ele><time>2026-04-18T13:18:35.259Z</time></trkpt><trkpt lat="45.0315856" lon="7.9851111"><ele>271.0</ele><time>2026-04-18T13:18:36.259Z</time></trkpt><trkpt lat="45.031724" lon="7.9849794"><ele>271.25</ele><time>2026-04-18T13:18:37.259Z</time></trkpt><trkpt lat="45.0318486" lon="7.9848549"><ele>271.5</ele><time>2026-04-18T13:18:38.26Z</time></trkpt><trkpt lat="45.0319719" lon="7.984736"><ele>271.75</ele><time>2026-04-18T13:18:39.26Z</time></trkpt><trkpt lat="45.0320991" lon="7.9846453"><ele>272.0</ele><time>2026-04-18T13:18:40.259Z</time></trkpt><trkpt lat="45.0322412" lon="7.9845768"><ele>272.0</ele><time>2026-04-18T13:18:41.26Z</time></trkpt><trkpt lat="45.0323985" lon="7.9845361"><ele>272.0</ele><time>2026-04-18T13:18:42.259Z</time></trkpt><trkpt lat="45.0325558" lon="7.9845113"><ele>272.0</ele><time>2026-04-18T13:18:43.259Z</time></trkpt><trkpt lat="45.0327094" lon="7.9844908"><ele>272.0</ele><time>2026-04-18T13:18:44.259Z</time></trkpt><trkpt lat="45.032854" lon="7.9845048"><ele>272.0</ele><time>2026-04-18T13:18:45.26Z</time></trkpt><trkpt lat="45.0329849" lon="7.9845681"><ele>272.0</ele><time>2026-04-18T13:18:46.259Z</time></trkpt><trkpt lat="45.0331052" lon="7.9846755"><ele>272.0</ele><time>2026-04-18T13:18:47.259Z</time></trkpt><trkpt lat="45.0332345" lon="7.9847942"><ele>272.6666666666667</ele><time>2026-04-18T13:18:48.259Z</time></trkpt><trkpt lat="45.0333676" lon="7.9849081"><ele>273.3333333333333</ele><time>2026-04-18T13:18:49.259Z</time></trkpt><trkpt lat="45.0335059" lon="7.9850072"><ele>274.0</ele><time>2026-04-18T13:18:50.259Z</time></trkpt><trkpt lat="45.0336544" lon="7.9850906"><ele>274.0</ele><time>2026-04-18T13:18:51.259Z</time></trkpt><trkpt lat="45.0338086" lon="7.9851464"><ele>274.0</ele><time>2026-04-18T13:18:52.26Z</time></trkpt><trkpt lat="45.033962" lon="7.9851641"><ele>274.0</ele><time>2026-04-18T13:18:53.259Z</time></trkpt><trkpt lat="45.03411" lon="7.9851524"><ele>276.66666666666663</ele><time>2026-04-18T13:18:54.259Z</time></trkpt><trkpt lat="45.0342524" lon="7.9851042"><ele>279.3333333333333</ele><time>2026-04-18T13:18:55.259Z</time></trkpt><trkpt lat="45.0343852" lon="7.9850169"><ele>282.0</ele><time>2026-04-18T13:18:56.259Z</time></trkpt><trkpt lat="45.0345245" lon="7.9849097"><ele>281.75</ele><time>2026-04-18T13:18:57.259Z</time></trkpt><trkpt lat="45.0346605" lon="7.9848371"><ele>281.5</ele><time>2026-04-18T13:18:58.259Z</time></trkpt><trkpt lat="45.0348061" lon="7.9848156"><ele>281.25</ele><time>2026-04-18T13:18:59.259Z</time></trkpt><trkpt lat="45.0349569" lon="7.9848419"><ele>281.0</ele><time>2026-04-18T13:19:00.26Z</time></trkpt><trkpt lat="45.0351089" lon="7.9848934"><ele>281.0</ele><time>2026-04-18T13:19:01.259Z</time></trkpt><trkpt lat="45.0352501" lon="7.9849532"><ele>281.0</ele><time>2026-04-18T13:19:02.26Z</time></trkpt><trkpt lat="45.0353841" lon="7.9850134"><ele>281.0</ele><time>2026-04-18T13:19:03.26Z</time></trkpt><trkpt lat="45.0354992" lon="7.9851009"><ele>281.0</ele><time>2026-04-18T13:19:04.259Z</time></trkpt><trkpt lat="45.0355925" lon="7.9852182"><ele>280.25</ele><time>2026-04-18T13:19:05.259Z</time></trkpt><trkpt lat="45.0356689" lon="7.9853516"><ele>279.5</ele><time>2026-04-18T13:19:06.259Z</time></trkpt><trkpt lat="45.0357585" lon="7.9854831"><ele>278.75</ele><time>2026-04-18T13:19:07.259Z</time></trkpt><trkpt lat="45.0358691" lon="7.9855959"><ele>278.0</ele><time>2026-04-18T13:19:08.259Z</time></trkpt><trkpt lat="45.0359948" lon="7.9856775"><ele>280.6666666666667</ele><time>2026-04-18T13:19:09.259Z</time></trkpt><trkpt lat="45.0361369" lon="7.9857199"><ele>283.3333333333333</ele><time>2026-04-18T13:19:10.259Z</time></trkpt><trkpt lat="45.0362871" lon="7.9857285"><ele>286.0</ele><time>2026-04-18T13:19:11.26Z</time></trkpt><trkpt lat="45.0364483" lon="7.98573"><ele>286.0</ele><time>2026-04-18T13:19:12.259Z</time></trkpt><trkpt lat="45.0366057" lon="7.9857227"><ele>286.0</ele><time>2026-04-18T13:19:13.259Z</time></trkpt><trkpt lat="45.0367569" lon="7.9857196"><ele>286.0</ele><time>2026-04-18T13:19:14.259Z</time></trkpt><trkpt lat="45.036896" lon="7.9857105"><ele>286.0</ele><time>2026-04-18T13:19:15.26Z</time></trkpt><trkpt lat="45.0370263" lon="7.9856689"><ele>287.5</ele><time>2026-04-18T13:19:16.259Z</time></trkpt><trkpt lat="45.0371505" lon="7.985568"><ele>289.0</ele><time>2026-04-18T13:19:17.26Z</time></trkpt><trkpt lat="45.0372644" lon="7.9854319"><ele>290.5</ele><time>2026-04-18T13:19:18.26Z</time></trkpt><trkpt lat="45.0373872" lon="7.9853059"><ele>292.0</ele><time>2026-04-18T13:19:19.26Z</time></trkpt><trkpt lat="45.0375183" lon="7.985204"><ele>293.66666666666663</ele><time>2026-04-18T13:19:20.259Z</time></trkpt><trkpt lat="45.0376735" lon="7.9851469"><ele>295.3333333333333</ele><time>2026-04-18T13:19:21.259Z</time></trkpt><trkpt lat="45.0378356" lon="7.9851202"><ele>297.0</ele><time>2026-04-18T13:19:22.26Z</time></trkpt><trkpt lat="45.0379962" lon="7.9851191"><ele>297.0</ele><time>2026-04-18T13:19:23.259Z</time></trkpt><trkpt lat="45.0381503" lon="7.9850968"><ele>297.0</ele><time>2026-04-18T13:19:24.259Z</time></trkpt><trkpt lat="45.0382937" lon="7.9850294"><ele>297.0</ele><time>2026-04-18T13:19:25.26Z</time></trkpt><trkpt lat="45.0384192" lon="7.9849252"><ele>294.3333333333333</ele><time>2026-04-18T13:19:26.259Z</time></trkpt><trkpt lat="45.0385472" lon="7.9847984"><ele>291.66666666666663</ele><time>2026-04-18T13:19:27.259Z</time></trkpt><trkpt lat="45.0386791" lon="7.9846628"><ele>289.0</ele><time>2026-04-18T13:19:28.259Z</time></trkpt><trkpt lat="45.0388202" lon="7.9845537"><ele>289.0</ele><time>2026-04-18T13:19:29.259Z</time></trkpt><trkpt lat="45.0389716" lon="7.984448"><ele>289.0</ele><time>2026-04-18T13:19:30.259Z</time></trkpt><trkpt lat="45.0391213" lon="7.9843432"><ele>289.0</ele><time>2026-04-18T13:19:31.26Z</time></trkpt><trkpt lat="45.0392679" lon="7.9842266"><ele>291.0</ele><time>2026-04-18T13:19:32.259Z</time></trkpt><trkpt lat="45.0394176" lon="7.9841059"><ele>293.0</ele><time>2026-04-18T13:19:33.259Z</time></trkpt><trkpt lat="45.0395716" lon="7.9839837"><ele>295.0</ele><time>2026-04-18T13:19:34.259Z</time></trkpt><trkpt lat="45.0397184" lon="7.9838599"><ele>295.0</ele><time>2026-04-18T13:19:35.26Z</time></trkpt><trkpt lat="45.0398695" lon="7.9837379"><ele>295.0</ele><time>2026-04-18T13:19:36.259Z</time></trkpt><trkpt lat="45.0400145" lon="7.9836203"><ele>295.0</ele><time>2026-04-18T13:19:37.26Z</time></trkpt><trkpt lat="45.0401634" lon="7.9835013"><ele>295.0</ele><time>2026-04-18T13:19:38.259Z</time></trkpt><trkpt lat="45.0403052" lon="7.9833841"><ele>295.0</ele><time>2026-04-18T13:19:39.259Z</time></trkpt><trkpt lat="45.0404489" lon="7.9832903"><ele>295.0</ele><time>2026-04-18T13:19:40.26Z</time></trkpt><trkpt lat="45.040594" lon="7.9832184"><ele>294.5</ele><time>2026-04-18T13:19:41.259Z</time></trkpt><trkpt lat="45.0407348" lon="7.9831608"><ele>294.0</ele><time>2026-04-18T13:19:42.26Z</time></trkpt><trkpt lat="45.0408717" lon="7.9831028"><ele>293.5</ele><time>2026-04-18T13:19:43.259Z</time></trkpt><trkpt lat="45.0410017" lon="7.9830186"><ele>293.0</ele><time>2026-04-18T13:19:44.259Z</time></trkpt><trkpt lat="45.0411275" lon="7.982898"><ele>293.0</ele><time>2026-04-18T13:19:45.26Z</time></trkpt><trkpt lat="45.0412404" lon="7.9827555"><ele>293.0</ele><time>2026-04-18T13:19:46.259Z</time></trkpt><trkpt lat="45.0413371" lon="7.982601"><ele>293.0</ele><time>2026-04-18T13:19:47.259Z</time></trkpt><trkpt lat="45.0414253" lon="7.9824308"><ele>293.0</ele><time>2026-04-18T13:19:48.259Z</time></trkpt><trkpt lat="45.0414956" lon="7.9822689"><ele>293.5</ele><time>2026-04-18T13:19:49.26Z</time></trkpt><trkpt lat="45.0415455" lon="7.9820965"><ele>294.0</ele><time>2026-04-18T13:19:50.26Z</time></trkpt><trkpt lat="45.041583" lon="7.9819163"><ele>294.5</ele><time>2026-04-18T13:19:51.259Z</time></trkpt><trkpt lat="45.0415981" lon="7.9817378"><ele>295.0</ele><time>2026-04-18T13:19:52.259Z</time></trkpt><trkpt lat="45.0415986" lon="7.9815615"><ele>295.0</ele><time>2026-04-18T13:19:53.26Z</time></trkpt><trkpt lat="45.0415403" lon="7.9813845"><ele>295.0</ele><time>2026-04-18T13:19:54.259Z</time></trkpt><trkpt lat="45.0414828" lon="7.9811891"><ele>295.0</ele><time>2026-04-18T13:19:55.26Z</time></trkpt><trkpt lat="45.0414328" lon="7.9809946"><ele>295.0</ele><time>2026-04-18T13:19:56.259Z</time></trkpt><trkpt lat="45.0413881" lon="7.9808023"><ele>292.5</ele><time>2026-04-18T13:19:57.259Z</time></trkpt><trkpt lat="45.041349" lon="7.9805928"><ele>290.0</ele><time>2026-04-18T13:19:58.259Z</time></trkpt><trkpt lat="45.0413085" lon="7.9803992"><ele>287.5</ele><time>2026-04-18T13:19:59.259Z</time></trkpt><trkpt lat="45.0412781" lon="7.9802238"><ele>285.0</ele><time>2026-04-18T13:20:00.259Z</time></trkpt><trkpt lat="45.0412456" lon="7.9800723"><ele>282.4</ele><time>2026-04-18T13:20:01.259Z</time></trkpt><trkpt lat="45.0412233" lon="7.9799309"><ele>279.8</ele><time>2026-04-18T13:20:02.259Z</time></trkpt><trkpt lat="45.0412145" lon="7.9798177"><ele>277.2</ele><time>2026-04-18T13:20:03.26Z</time></trkpt><trkpt lat="45.0412499" lon="7.979677"><ele>274.6</ele><time>2026-04-18T13:20:05.259Z</time></trkpt><trkpt lat="45.0413129" lon="7.9796505"><ele>272.0</ele><time>2026-04-18T13:20:07.26Z</time></trkpt><trkpt lat="45.0413544" lon="7.9797814"><ele>272.0</ele><time>2026-04-18T13:20:10.259Z</time></trkpt><trkpt lat="45.0413642" lon="7.9798798"><ele>272.0</ele><time>2026-04-18T13:20:11.259Z</time></trkpt><trkpt lat="45.0413758" lon="7.9799874"><ele>272.0</ele><time>2026-04-18T13:20:12.26Z</time></trkpt><trkpt lat="45.0413999" lon="7.980127"><ele>272.0</ele><time>2026-04-18T13:20:13.259Z</time></trkpt><trkpt lat="45.0414162" lon="7.9802777"><ele>272.0</ele><time>2026-04-18T13:20:14.259Z</time></trkpt><trkpt lat="45.0414376" lon="7.9804457"><ele>275.25</ele><time>2026-04-18T13:20:15.259Z</time></trkpt><trkpt lat="45.0414674" lon="7.9806252"><ele>278.5</ele><time>2026-04-18T13:20:16.259Z</time></trkpt><trkpt lat="45.041503" lon="7.9808083"><ele>281.75</ele><time>2026-04-18T13:20:17.259Z</time></trkpt><trkpt lat="45.0415519" lon="7.9809976"><ele>285.0</ele><time>2026-04-18T13:20:18.259Z</time></trkpt><trkpt lat="45.041609" lon="7.9811883"><ele>285.0</ele><time>2026-04-18T13:20:19.259Z</time></trkpt><trkpt lat="45.0416674" lon="7.9813782"><ele>285.0</ele><time>2026-04-18T13:20:20.26Z</time></trkpt><trkpt lat="45.0419873" lon="7.9824229"><ele>280.3333333333333</ele><time>2026-04-18T13:20:25.259Z</time></trkpt><trkpt lat="45.0420383" lon="7.9826536"><ele>275.66666666666663</ele><time>2026-04-18T13:20:26.259Z</time></trkpt><trkpt lat="45.0420655" lon="7.9828396"><ele>271.0</ele><time>2026-04-18T13:20:27.259Z</time></trkpt><trkpt lat="45.0420572" lon="7.9830672"><ele>271.0</ele><time>2026-04-18T13:20:28.259Z</time></trkpt><trkpt lat="45.042005" lon="7.983298"><ele>271.0</ele><time>2026-04-18T13:20:29.259Z</time></trkpt><trkpt lat="45.041958" lon="7.9835101"><ele>271.0</ele><time>2026-04-18T13:20:30.26Z</time></trkpt><trkpt lat="45.0418646" lon="7.9837116"><ele>270.3333333333333</ele><time>2026-04-18T13:20:31.26Z</time></trkpt><trkpt lat="45.0417312" lon="7.9839038"><ele>269.6666666666667</ele><time>2026-04-18T13:20:32.259Z</time></trkpt><trkpt lat="45.0416153" lon="7.9841092"><ele>269.0</ele><time>2026-04-18T13:20:33.259Z</time></trkpt><trkpt lat="45.0414949" lon="7.9843113"><ele>269.0</ele><time>2026-04-18T13:20:34.259Z</time></trkpt><trkpt lat="45.041382" lon="7.9845169"><ele>269.0</ele><time>2026-04-18T13:20:35.26Z</time></trkpt><trkpt lat="45.0412718" lon="7.9847462"><ele>269.0</ele><time>2026-04-18T13:20:36.26Z</time></trkpt><trkpt lat="45.0411638" lon="7.9849548"><ele>267.6666666666667</ele><time>2026-04-18T13:20:37.259Z</time></trkpt><trkpt lat="45.0410485" lon="7.9851753"><ele>266.3333333333333</ele><time>2026-04-18T13:20:38.259Z</time></trkpt><trkpt lat="45.0409481" lon="7.9854144"><ele>265.0</ele><time>2026-04-18T13:20:39.259Z</time></trkpt><trkpt lat="45.0408454" lon="7.9856308"><ele>263.66666666666663</ele><time>2026-04-18T13:20:40.26Z</time></trkpt><trkpt lat="45.0407434" lon="7.9858504"><ele>262.3333333333333</ele><time>2026-04-18T13:20:41.259Z</time></trkpt><trkpt lat="45.0406401" lon="7.9860682"><ele>261.0</ele><time>2026-04-18T13:20:42.259Z</time></trkpt><trkpt lat="45.0405396" lon="7.9862848"><ele>261.0</ele><time>2026-04-18T13:20:43.26Z</time></trkpt><trkpt lat="45.0404529" lon="7.9864763"><ele>261.0</ele><time>2026-04-18T13:20:44.259Z</time></trkpt><trkpt lat="45.0403565" lon="7.9866937"><ele>261.0</ele><time>2026-04-18T13:20:45.259Z</time></trkpt><trkpt lat="45.0402563" lon="7.9869039"><ele>262.6666666666667</ele><time>2026-04-18T13:20:46.259Z</time></trkpt><trkpt lat="45.0401448" lon="7.9870931"><ele>264.33333333333337</ele><time>2026-04-18T13:20:47.26Z</time></trkpt><trkpt lat="45.0400128" lon="7.9872686"><ele>266.0</ele><time>2026-04-18T13:20:48.259Z</time></trkpt><trkpt lat="45.0398782" lon="7.9874257"><ele>264.6666666666667</ele><time>2026-04-18T13:20:49.26Z</time></trkpt><trkpt lat="45.0397313" lon="7.9875772"><ele>263.3333333333333</ele><time>2026-04-18T13:20:50.259Z</time></trkpt><trkpt lat="45.0395812" lon="7.9877186"><ele>262.0</ele><time>2026-04-18T13:20:51.26Z</time></trkpt><trkpt lat="45.0394234" lon="7.9878552"><ele>262.0</ele><time>2026-04-18T13:20:52.259Z</time></trkpt><trkpt lat="45.039269" lon="7.9879713"><ele>262.0</ele><time>2026-04-18T13:20:53.259Z</time></trkpt><trkpt lat="45.0391075" lon="7.9880681"><ele>262.0</ele><time>2026-04-18T13:20:54.26Z</time></trkpt><trkpt lat="45.0389434" lon="7.988143"><ele>262.3333333333333</ele><time>2026-04-18T13:20:55.26Z</time></trkpt><trkpt lat="45.0387807" lon="7.9882099"><ele>262.6666666666667</ele><time>2026-04-18T13:20:56.259Z</time></trkpt><trkpt lat="45.0386245" lon="7.9882876"><ele>263.0</ele><time>2026-04-18T13:20:57.259Z</time></trkpt><trkpt lat="45.0384698" lon="7.9883745"><ele>263.0</ele><time>2026-04-18T13:20:58.259Z</time></trkpt><trkpt lat="45.0383191" lon="7.9884842"><ele>263.0</ele><time>2026-04-18T13:20:59.259Z</time></trkpt><trkpt lat="45.0381818" lon="7.9886075"><ele>263.0</ele><time>2026-04-18T13:21:00.259Z</time></trkpt><trkpt lat="45.0380574" lon="7.9887523"><ele>260.6666666666667</ele><time>2026-04-18T13:21:01.259Z</time></trkpt><trkpt lat="45.0379446" lon="7.9889238"><ele>258.3333333333333</ele><time>2026-04-18T13:21:02.26Z</time></trkpt><trkpt lat="45.0378416" lon="7.9891026"><ele>256.0</ele><time>2026-04-18T13:21:03.259Z</time></trkpt><trkpt lat="45.0377446" lon="7.9892929"><ele>256.0</ele><time>2026-04-18T13:21:04.26Z</time></trkpt><trkpt lat="45.0376575" lon="7.9894892"><ele>256.0</ele><time>2026-04-18T13:21:05.259Z</time></trkpt><trkpt lat="45.0375741" lon="7.9896822"><ele>256.0</ele><time>2026-04-18T13:21:06.259Z</time></trkpt><trkpt lat="45.0374914" lon="7.9898763"><ele>257.5</ele><time>2026-04-18T13:21:07.259Z</time></trkpt><trkpt lat="45.0374141" lon="7.9900521"><ele>259.0</ele><time>2026-04-18T13:21:08.26Z</time></trkpt><trkpt lat="45.0373375" lon="7.9902362"><ele>260.5</ele><time>2026-04-18T13:21:09.259Z</time></trkpt><trkpt lat="45.0372658" lon="7.9904056"><ele>262.0</ele><time>2026-04-18T13:21:10.259Z</time></trkpt><trkpt lat="45.0372044" lon="7.9905803"><ele>262.0</ele><time>2026-04-18T13:21:11.26Z</time></trkpt><trkpt lat="45.0371631" lon="7.9907649"><ele>262.0</ele><time>2026-04-18T13:21:12.259Z</time></trkpt><trkpt lat="45.037146" lon="7.9909558"><ele>262.0</ele><time>2026-04-18T13:21:13.26Z</time></trkpt><trkpt lat="45.0371616" lon="7.9911526"><ele>262.0</ele><time>2026-04-18T13:21:14.259Z</time></trkpt><trkpt lat="45.0371938" lon="7.991373"><ele>260.0</ele><time>2026-04-18T13:21:15.259Z</time></trkpt><trkpt lat="45.0372419" lon="7.9915935"><ele>258.0</ele><time>2026-04-18T13:21:16.259Z</time></trkpt><trkpt lat="45.037301" lon="7.9918297"><ele>256.0</ele><time>2026-04-18T13:21:17.259Z</time></trkpt><trkpt lat="45.0373519" lon="7.9920764"><ele>253.66666666666666</ele><time>2026-04-18T13:21:18.259Z</time></trkpt><trkpt lat="45.0374035" lon="7.9923283"><ele>251.33333333333331</ele><time>2026-04-18T13:21:19.259Z</time></trkpt><trkpt lat="45.037458" lon="7.9925742"><ele>249.0</ele><time>2026-04-18T13:21:20.259Z</time></trkpt><trkpt lat="45.037507" lon="7.9928091"><ele>248.0</ele><time>2026-04-18T13:21:21.26Z</time></trkpt><trkpt lat="45.0375609" lon="7.9930415"><ele>247.0</ele><time>2026-04-18T13:21:22.26Z</time></trkpt><trkpt lat="45.0376074" lon="7.993249"><ele>246.0</ele><time>2026-04-18T13:21:23.259Z</time></trkpt><trkpt lat="45.0376488" lon="7.9934419"><ele>245.75</ele><time>2026-04-18T13:21:24.259Z</time></trkpt><trkpt lat="45.0376926" lon="7.9936204"><ele>245.5</ele><time>2026-04-18T13:21:25.259Z</time></trkpt><trkpt lat="45.03773" lon="7.9937844"><ele>245.25</ele><time>2026-04-18T13:21:26.26Z</time></trkpt><trkpt lat="45.0377588" lon="7.9939324"><ele>245.0</ele><time>2026-04-18T13:21:27.259Z</time></trkpt><trkpt lat="45.0377867" lon="7.994077"><ele>244.6</ele><time>2026-04-18T13:21:28.259Z</time></trkpt><trkpt lat="45.0378132" lon="7.9942069"><ele>244.2</ele><time>2026-04-18T13:21:29.26Z</time></trkpt><trkpt lat="45.0378363" lon="7.9943312"><ele>243.8</ele><time>2026-04-18T13:21:30.259Z</time></trkpt><trkpt lat="45.0378659" lon="7.9944376"><ele>243.4</ele><time>2026-04-18T13:21:31.259Z</time></trkpt><trkpt lat="45.0379492" lon="7.9945055"><ele>243.0</ele><time>2026-04-18T13:21:33.259Z</time></trkpt><trkpt lat="45.038066" lon="7.9944447"><ele>243.0</ele><time>2026-04-18T13:21:35.26Z</time></trkpt><trkpt lat="45.0381168" lon="7.9943553"><ele>243.0</ele><time>2026-04-18T13:21:36.259Z</time></trkpt><trkpt lat="45.0381622" lon="7.9942374"><ele>243.0</ele><time>2026-04-18T13:21:37.259Z</time></trkpt><trkpt lat="45.0382237" lon="7.9941037"><ele>243.0</ele><time>2026-04-18T13:21:38.259Z</time></trkpt><trkpt lat="45.0383082" lon="7.9939717"><ele>243.0</ele><time>2026-04-18T13:21:39.259Z</time></trkpt><trkpt lat="45.0383928" lon="7.9938383"><ele>244.5</ele><time>2026-04-18T13:21:40.259Z</time></trkpt><trkpt lat="45.0384864" lon="7.9936905"><ele>246.0</ele><time>2026-04-18T13:21:41.259Z</time></trkpt><trkpt lat="45.0385837" lon="7.9935289"><ele>247.5</ele><time>2026-04-18T13:21:42.259Z</time></trkpt><trkpt lat="45.0386867" lon="7.9933751"><ele>249.0</ele><time>2026-04-18T13:21:43.259Z</time></trkpt><trkpt lat="45.0387942" lon="7.9932217"><ele>249.0</ele><time>2026-04-18T13:21:44.26Z</time></trkpt><trkpt lat="45.0389115" lon="7.9930749"><ele>249.0</ele><time>2026-04-18T13:21:45.259Z</time></trkpt><trkpt lat="45.0390283" lon="7.9929422"><ele>249.0</ele><time>2026-04-18T13:21:46.259Z</time></trkpt><trkpt lat="45.0391494" lon="7.9928135"><ele>250.33333333333331</ele><time>2026-04-18T13:21:47.259Z</time></trkpt><trkpt lat="45.0392754" lon="7.9926883"><ele>251.66666666666666</ele><time>2026-04-18T13:21:48.259Z</time></trkpt><trkpt lat="45.0394037" lon="7.9925572"><ele>253.0</ele><time>2026-04-18T13:21:49.259Z</time></trkpt><trkpt lat="45.0395256" lon="7.9924307"><ele>253.0</ele><time>2026-04-18T13:21:50.259Z</time></trkpt><trkpt lat="45.039645" lon="7.9923057"><ele>253.0</ele><time>2026-04-18T13:21:51.259Z</time></trkpt><trkpt lat="45.0397574" lon="7.9921851"><ele>253.0</ele><time>2026-04-18T13:21:52.259Z</time></trkpt><trkpt lat="45.0398672" lon="7.9920641"><ele>253.0</ele><time>2026-04-18T13:21:53.259Z</time></trkpt><trkpt lat="45.0399673" lon="7.9919316"><ele>254.0</ele><time>2026-04-18T13:21:54.259Z</time></trkpt><trkpt lat="45.0400643" lon="7.9918029"><ele>255.0</ele><time>2026-04-18T13:21:55.259Z</time></trkpt><trkpt lat="45.0401777" lon="7.9916931"><ele>256.0</ele><time>2026-04-18T13:21:56.259Z</time></trkpt><trkpt lat="45.0402991" lon="7.9915885"><ele>257.0</ele><time>2026-04-18T13:21:57.259Z</time></trkpt><trkpt lat="45.0404294" lon="7.9915099"><ele>257.0</ele><time>2026-04-18T13:21:58.26Z</time></trkpt><trkpt lat="45.0405807" lon="7.9914283"><ele>257.0</ele><time>2026-04-18T13:21:59.259Z</time></trkpt><trkpt lat="45.0407299" lon="7.9913388"><ele>257.0</ele><time>2026-04-18T13:22:00.259Z</time></trkpt><trkpt lat="45.0408855" lon="7.9912616"><ele>261.0</ele><time>2026-04-18T13:22:01.26Z</time></trkpt><trkpt lat="45.0410438" lon="7.9911848"><ele>265.0</ele><time>2026-04-18T13:22:02.259Z</time></trkpt><trkpt lat="45.0412069" lon="7.9911307"><ele>269.0</ele><time>2026-04-18T13:22:03.259Z</time></trkpt><trkpt lat="45.0413738" lon="7.9910954"><ele>269.0</ele><time>2026-04-18T13:22:04.259Z</time></trkpt><trkpt lat="45.0415402" lon="7.9910716"><ele>269.0</ele><time>2026-04-18T13:22:05.26Z</time></trkpt><trkpt lat="45.0416946" lon="7.9910547"><ele>269.0</ele><time>2026-04-18T13:22:06.26Z</time></trkpt><trkpt lat="45.0418429" lon="7.9910584"><ele>270.75</ele><time>2026-04-18T13:22:07.259Z</time></trkpt><trkpt lat="45.0419918" lon="7.9910787"><ele>272.5</ele><time>2026-04-18T13:22:08.26Z</time></trkpt><trkpt lat="45.0421289" lon="7.9910976"><ele>274.25</ele><time>2026-04-18T13:22:09.259Z</time></trkpt><trkpt lat="45.0422647" lon="7.9910974"><ele>276.0</ele><time>2026-04-18T13:22:10.259Z</time></trkpt><trkpt lat="45.0423869" lon="7.991065"><ele>273.0</ele><time>2026-04-18T13:22:11.26Z</time></trkpt><trkpt lat="45.0424973" lon="7.9910003"><ele>270.0</ele><time>2026-04-18T13:22:12.259Z</time></trkpt><trkpt lat="45.0426058" lon="7.9908946"><ele>267.0</ele><time>2026-04-18T13:22:13.26Z</time></trkpt><trkpt lat="45.0427193" lon="7.9907697"><ele>264.0</ele><time>2026-04-18T13:22:14.259Z</time></trkpt><trkpt lat="45.042842" lon="7.9906463"><ele>264.0</ele><time>2026-04-18T13:22:15.259Z</time></trkpt><trkpt lat="45.0429727" lon="7.9905194"><ele>264.0</ele><time>2026-04-18T13:22:16.259Z</time></trkpt><trkpt lat="45.0431041" lon="7.990382"><ele>264.0</ele><time>2026-04-18T13:22:17.259Z</time></trkpt><trkpt lat="45.0432412" lon="7.9902518"><ele>264.3333333333333</ele><time>2026-04-18T13:22:18.259Z</time></trkpt><trkpt lat="45.0433786" lon="7.9901269"><ele>264.66666666666663</ele><time>2026-04-18T13:22:19.259Z</time></trkpt><trkpt lat="45.043515" lon="7.9900018"><ele>265.0</ele><time>2026-04-18T13:22:20.26Z</time></trkpt><trkpt lat="45.0436464" lon="7.9899015"><ele>265.0</ele><time>2026-04-18T13:22:21.259Z</time></trkpt><trkpt lat="45.0437816" lon="7.9898026"><ele>265.0</ele><time>2026-04-18T13:22:22.26Z</time></trkpt><trkpt lat="45.0439131" lon="7.9897255"><ele>265.0</ele><time>2026-04-18T13:22:23.259Z</time></trkpt><trkpt lat="45.0440487" lon="7.9896602"><ele>265.0</ele><time>2026-04-18T13:22:24.259Z</time></trkpt><trkpt lat="45.0441883" lon="7.9896077"><ele>266.75</ele><time>2026-04-18T13:22:25.259Z</time></trkpt><trkpt lat="45.044331" lon="7.9895608"><ele>268.5</ele><time>2026-04-18T13:22:26.259Z</time></trkpt><trkpt lat="45.0444711" lon="7.9895337"><ele>270.25</ele><time>2026-04-18T13:22:27.259Z</time></trkpt><trkpt lat="45.0446083" lon="7.9895181"><ele>272.0</ele><time>2026-04-18T13:22:28.26Z</time></trkpt><trkpt lat="45.0447393" lon="7.9894847"><ele>272.0</ele><time>2026-04-18T13:22:29.26Z</time></trkpt><trkpt lat="45.0448611" lon="7.9894201"><ele>272.0</ele><time>2026-04-18T13:22:30.259Z</time></trkpt><trkpt lat="45.0449747" lon="7.9893163"><ele>272.0</ele><time>2026-04-18T13:22:31.259Z</time></trkpt><trkpt lat="45.0450789" lon="7.9891901"><ele>272.0</ele><time>2026-04-18T13:22:32.26Z</time></trkpt><trkpt lat="45.0451795" lon="7.9890555"><ele>273.25</ele><time>2026-04-18T13:22:33.259Z</time></trkpt><trkpt lat="45.0452841" lon="7.9889304"><ele>274.5</ele><time>2026-04-18T13:22:34.259Z</time></trkpt><trkpt lat="45.0453954" lon="7.9888001"><ele>275.75</ele><time>2026-04-18T13:22:35.259Z</time></trkpt><trkpt lat="45.0455173" lon="7.988687"><ele>277.0</ele><time>2026-04-18T13:22:36.259Z</time></trkpt><trkpt lat="45.0456412" lon="7.9885773"><ele>277.0</ele><time>2026-04-18T13:22:37.259Z</time></trkpt><trkpt lat="45.0457783" lon="7.98848"><ele>277.0</ele><time>2026-04-18T13:22:38.259Z</time></trkpt><trkpt lat="45.0459173" lon="7.9883955"><ele>277.0</ele><time>2026-04-18T13:22:39.26Z</time></trkpt><trkpt lat="45.0460627" lon="7.9883404"><ele>278.75</ele><time>2026-04-18T13:22:40.259Z</time></trkpt><trkpt lat="45.0462039" lon="7.9882941"><ele>280.5</ele><time>2026-04-18T13:22:41.26Z</time></trkpt><trkpt lat="45.0463478" lon="7.9882496"><ele>282.25</ele><time>2026-04-18T13:22:42.26Z</time></trkpt><trkpt lat="45.0465048" lon="7.9882378"><ele>284.0</ele><time>2026-04-18T13:22:43.26Z</time></trkpt><trkpt lat="45.0466586" lon="7.9882322"><ele>288.0</ele><time>2026-04-18T13:22:44.259Z</time></trkpt><trkpt lat="45.0468203" lon="7.9882241"><ele>292.0</ele><time>2026-04-18T13:22:45.259Z</time></trkpt><trkpt lat="45.0469838" lon="7.9882162"><ele>296.0</ele><time>2026-04-18T13:22:46.259Z</time></trkpt><trkpt lat="45.0471462" lon="7.9882105"><ele>296.0</ele><time>2026-04-18T13:22:47.259Z</time></trkpt><trkpt lat="45.047307" lon="7.9882026"><ele>296.0</ele><time>2026-04-18T13:22:48.259Z</time></trkpt><trkpt lat="45.0474607" lon="7.9881995"><ele>296.0</ele><time>2026-04-18T13:22:49.26Z</time></trkpt><trkpt lat="45.0476176" lon="7.9882014"><ele>297.0</ele><time>2026-04-18T13:22:50.259Z</time></trkpt><trkpt lat="45.0477695" lon="7.9881869"><ele>298.0</ele><time>2026-04-18T13:22:51.259Z</time></trkpt><trkpt lat="45.0479216" lon="7.9881665"><ele>299.0</ele><time>2026-04-18T13:22:52.26Z</time></trkpt><trkpt lat="45.0480781" lon="7.9881294"><ele>299.0</ele><time>2026-04-18T13:22:53.26Z</time></trkpt><trkpt lat="45.0482271" lon="7.9880461"><ele>299.0</ele><time>2026-04-18T13:22:54.259Z</time></trkpt><trkpt lat="45.0483735" lon="7.9879494"><ele>299.0</ele><time>2026-04-18T13:22:55.259Z</time></trkpt><trkpt lat="45.0485143" lon="7.9878368"><ele>299.33333333333337</ele><time>2026-04-18T13:22:56.259Z</time></trkpt><trkpt lat="45.0486542" lon="7.9877143"><ele>299.6666666666667</ele><time>2026-04-18T13:22:57.259Z</time></trkpt><trkpt lat="45.0487896" lon="7.9875909"><ele>300.0</ele><time>2026-04-18T13:22:58.259Z</time></trkpt><trkpt lat="45.0489221" lon="7.9874723"><ele>300.0</ele><time>2026-04-18T13:22:59.26Z</time></trkpt><trkpt lat="45.0490517" lon="7.9873647"><ele>300.0</ele><time>2026-04-18T13:23:00.259Z</time></trkpt><trkpt lat="45.0491834" lon="7.9872645"><ele>300.0</ele><time>2026-04-18T13:23:01.259Z</time></trkpt><trkpt lat="45.0493196" lon="7.9871769"><ele>300.0</ele><time>2026-04-18T13:23:02.26Z</time></trkpt><trkpt lat="45.0494706" lon="7.9871039"><ele>303.6666666666667</ele><time>2026-04-18T13:23:03.259Z</time></trkpt><trkpt lat="45.0496254" lon="7.9870527"><ele>307.33333333333337</ele><time>2026-04-18T13:23:04.259Z</time></trkpt><trkpt lat="45.0497827" lon="7.9870207"><ele>311.0</ele><time>2026-04-18T13:23:05.26Z</time></trkpt><trkpt lat="45.0499424" lon="7.986996"><ele>313.0</ele><time>2026-04-18T13:23:06.259Z</time></trkpt><trkpt lat="45.0500959" lon="7.9869838"><ele>315.0</ele><time>2026-04-18T13:23:07.259Z</time></trkpt><trkpt lat="45.0502502" lon="7.9869681"><ele>317.0</ele><time>2026-04-18T13:23:08.259Z</time></trkpt><trkpt lat="45.0504094" lon="7.9869482"><ele>317.0</ele><time>2026-04-18T13:23:09.26Z</time></trkpt><trkpt lat="45.0505684" lon="7.9869275"><ele>317.0</ele><time>2026-04-18T13:23:10.26Z</time></trkpt><trkpt lat="45.0507302" lon="7.9869133"><ele>317.0</ele><time>2026-04-18T13:23:11.259Z</time></trkpt><trkpt lat="45.0508872" lon="7.9869011"><ele>318.0</ele><time>2026-04-18T13:23:12.259Z</time></trkpt><trkpt lat="45.0510477" lon="7.9868896"><ele>319.0</ele><time>2026-04-18T13:23:13.259Z</time></trkpt><trkpt lat="45.05121" lon="7.9868715"><ele>320.0</ele><time>2026-04-18T13:23:14.259Z</time></trkpt><trkpt lat="45.0513706" lon="7.9868541"><ele>320.0</ele><time>2026-04-18T13:23:15.259Z</time></trkpt><trkpt lat="45.0515294" lon="7.9868344"><ele>320.0</ele><time>2026-04-18T13:23:16.26Z</time></trkpt><trkpt lat="45.0516826" lon="7.9868138"><ele>320.0</ele><time>2026-04-18T13:23:17.259Z</time></trkpt><trkpt lat="45.0518394" lon="7.9867993"><ele>321.6666666666667</ele><time>2026-04-18T13:23:18.259Z</time></trkpt><trkpt lat="45.0519947" lon="7.9867816"><ele>323.3333333333333</ele><time>2026-04-18T13:23:19.259Z</time></trkpt><trkpt lat="45.0521497" lon="7.9867674"><ele>325.0</ele><time>2026-04-18T13:23:20.26Z</time></trkpt><trkpt lat="45.0523088" lon="7.9867563"><ele>331.3333333333333</ele><time>2026-04-18T13:23:21.259Z</time></trkpt><trkpt lat="45.0524674" lon="7.9867408"><ele>337.6666666666667</ele><time>2026-04-18T13:23:22.26Z</time></trkpt><trkpt lat="45.0526191" lon="7.9867213"><ele>344.0</ele><time>2026-04-18T13:23:23.259Z</time></trkpt><trkpt lat="45.0527728" lon="7.9867026"><ele>344.0</ele><time>2026-04-18T13:23:24.259Z</time></trkpt><trkpt lat="45.0529242" lon="7.9866857"><ele>344.0</ele><time>2026-04-18T13:23:25.26Z</time></trkpt><trkpt lat="45.0530751" lon="7.9866701"><ele>344.0</ele><time>2026-04-18T13:23:26.259Z</time></trkpt><trkpt lat="45.0532275" lon="7.9866477"><ele>346.0</ele><time>2026-04-18T13:23:27.26Z</time></trkpt><trkpt lat="45.0533792" lon="7.9866306"><ele>348.0</ele><time>2026-04-18T13:23:28.26Z</time></trkpt><trkpt lat="45.0535299" lon="7.9866193"><ele>350.0</ele><time>2026-04-18T13:23:29.26Z</time></trkpt><trkpt lat="45.0536769" lon="7.9866021"><ele>350.0</ele><time>2026-04-18T13:23:30.259Z</time></trkpt><trkpt lat="45.0538237" lon="7.9865862"><ele>350.0</ele><time>2026-04-18T13:23:31.259Z</time></trkpt><trkpt lat="45.0539729" lon="7.9865735"><ele>350.0</ele><time>2026-04-18T13:23:32.26Z</time></trkpt><trkpt lat="45.0541065" lon="7.9865642"><ele>350.0</ele><time>2026-04-18T13:23:33.259Z</time></trkpt><trkpt lat="45.0542306" lon="7.9865577"><ele>350.6</ele><time>2026-04-18T13:23:34.259Z</time></trkpt><trkpt lat="45.054339" lon="7.9865488"><ele>351.2</ele><time>2026-04-18T13:23:35.259Z</time></trkpt><trkpt lat="45.0544358" lon="7.9865283"><ele>351.79999999999995</ele><time>2026-04-18T13:23:36.259Z</time></trkpt><trkpt lat="45.054531" lon="7.986493"><ele>352.4</ele><time>2026-04-18T13:23:37.259Z</time></trkpt><trkpt lat="45.0546259" lon="7.986445"><ele>353.0</ele><time>2026-04-18T13:23:38.26Z</time></trkpt><trkpt lat="45.0547283" lon="7.9864076"><ele>353.0</ele><time>2026-04-18T13:23:39.259Z</time></trkpt><trkpt lat="45.0548344" lon="7.9863461"><ele>353.0</ele><time>2026-04-18T13:23:40.259Z</time></trkpt><trkpt lat="45.0549435" lon="7.9862639"><ele>353.0</ele><time>2026-04-18T13:23:41.259Z</time></trkpt><trkpt lat="45.055043" lon="7.9861852"><ele>353.0</ele><time>2026-04-18T13:23:42.259Z</time></trkpt><trkpt lat="45.0551454" lon="7.9861102"><ele>354.75</ele><time>2026-04-18T13:23:43.259Z</time></trkpt><trkpt lat="45.0552534" lon="7.9860403"><ele>356.5</ele><time>2026-04-18T13:23:44.259Z</time></trkpt><trkpt lat="45.0553703" lon="7.9859823"><ele>358.25</ele><time>2026-04-18T13:23:45.259Z</time></trkpt><trkpt lat="45.0554778" lon="7.9859248"><ele>360.0</ele><time>2026-04-18T13:23:46.26Z</time></trkpt><trkpt lat="45.0555933" lon="7.9858584"><ele>360.5</ele><time>2026-04-18T13:23:47.26Z</time></trkpt><trkpt lat="45.0557022" lon="7.9857667"><ele>361.0</ele><time>2026-04-18T13:23:48.26Z</time></trkpt><trkpt lat="45.0558072" lon="7.9856586"><ele>361.5</ele><time>2026-04-18T13:23:49.259Z</time></trkpt><trkpt lat="45.0559146" lon="7.9855516"><ele>362.0</ele><time>2026-04-18T13:23:50.259Z</time></trkpt><trkpt lat="45.0560039" lon="7.9854566"><ele>362.0</ele><time>2026-04-18T13:23:51.259Z</time></trkpt><trkpt lat="45.0560925" lon="7.985392"><ele>362.0</ele><time>2026-04-18T13:23:52.259Z</time></trkpt><trkpt lat="45.0562025" lon="7.9853558"><ele>362.0</ele><time>2026-04-18T13:23:53.259Z</time></trkpt><trkpt lat="45.0563147" lon="7.9853131"><ele>362.0</ele><time>2026-04-18T13:23:54.259Z</time></trkpt><trkpt lat="45.056435" lon="7.9852908"><ele>362.0</ele><time>2026-04-18T13:23:55.259Z</time></trkpt><trkpt lat="45.0565544" lon="7.9852681"><ele>362.0</ele><time>2026-04-18T13:23:56.259Z</time></trkpt><trkpt lat="45.0566807" lon="7.9852332"><ele>362.0</ele><time>2026-04-18T13:23:57.26Z</time></trkpt><trkpt lat="45.0568022" lon="7.9852071"><ele>362.0</ele><time>2026-04-18T13:23:58.26Z</time></trkpt><trkpt lat="45.0569103" lon="7.9851836"><ele>365.20000000000005</ele><time>2026-04-18T13:23:59.26Z</time></trkpt><trkpt lat="45.0570106" lon="7.9851659"><ele>368.4</ele><time>2026-04-18T13:24:00.259Z</time></trkpt><trkpt lat="45.0571037" lon="7.9851871"><ele>371.6</ele><time>2026-04-18T13:24:01.259Z</time></trkpt><trkpt lat="45.0571918" lon="7.9852284"><ele>374.79999999999995</ele><time>2026-04-18T13:24:02.259Z</time></trkpt><trkpt lat="45.0572964" lon="7.9852732"><ele>378.0</ele><time>2026-04-18T13:24:03.26Z</time></trkpt><trkpt lat="45.0574073" lon="7.9853228"><ele>380.0</ele><time>2026-04-18T13:24:04.26Z</time></trkpt><trkpt lat="45.0575046" lon="7.9853587"><ele>382.0</ele><time>2026-04-18T13:24:05.259Z</time></trkpt><trkpt lat="45.0575983" lon="7.9853934"><ele>384.0</ele><time>2026-04-18T13:24:06.259Z</time></trkpt><trkpt lat="45.0576897" lon="7.9854223"><ele>386.0</ele><time>2026-04-18T13:24:07.259Z</time></trkpt><trkpt lat="45.0577701" lon="7.9854271"><ele>388.0</ele><time>2026-04-18T13:24:08.26Z</time></trkpt><trkpt lat="45.0578494" lon="7.9853999"><ele>388.0</ele><time>2026-04-18T13:24:09.26Z</time></trkpt><trkpt lat="45.0579147" lon="7.9853239"><ele>388.0</ele><time>2026-04-18T13:24:10.259Z</time></trkpt><trkpt lat="45.0579564" lon="7.9852134"><ele>388.0</ele><time>2026-04-18T13:24:11.26Z</time></trkpt><trkpt lat="45.0579727" lon="7.9850607"><ele>388.0</ele><time>2026-04-18T13:24:12.26Z</time></trkpt><trkpt lat="45.057983" lon="7.9849192"><ele>388.0</ele><time>2026-04-18T13:24:13.259Z</time></trkpt><trkpt lat="45.057992" lon="7.9847777"><ele>386.00000000000006</ele><time>2026-04-18T13:24:14.259Z</time></trkpt><trkpt lat="45.0579899" lon="7.9846356"><ele>384.0</ele><time>2026-04-18T13:24:15.259Z</time></trkpt><trkpt lat="45.0579805" lon="7.9845035"><ele>382.0</ele><time>2026-04-18T13:24:16.259Z</time></trkpt><trkpt lat="45.0579796" lon="7.9843824"><ele>380.0</ele><time>2026-04-18T13:24:17.259Z</time></trkpt><trkpt lat="45.0579935" lon="7.9842752"><ele>378.0</ele><time>2026-04-18T13:24:18.259Z</time></trkpt><trkpt lat="45.0580184" lon="7.9841777"><ele>376.0</ele><time>2026-04-18T13:24:19.259Z</time></trkpt><trkpt lat="45.0581038" lon="7.9841431"><ele>376.0</ele><time>2026-04-18T13:24:20.26Z</time></trkpt><trkpt lat="45.0581997" lon="7.9841098"><ele>376.0</ele><time>2026-04-18T13:24:21.259Z</time></trkpt><trkpt lat="45.058327" lon="7.9841031"><ele>376.0</ele><time>2026-04-18T13:24:22.259Z</time></trkpt><trkpt lat="45.0584567" lon="7.984125"><ele>376.0</ele><time>2026-04-18T13:24:23.259Z</time></trkpt><trkpt lat="45.0585898" lon="7.9841516"><ele>381.0</ele><time>2026-04-18T13:24:24.259Z</time></trkpt><trkpt lat="45.0587244" lon="7.9841873"><ele>386.0</ele><time>2026-04-18T13:24:25.26Z</time></trkpt><trkpt lat="45.0588668" lon="7.9842413"><ele>391.0</ele><time>2026-04-18T13:24:26.259Z</time></trkpt><trkpt lat="45.0590045" lon="7.9843009"><ele>396.0</ele><time>2026-04-18T13:24:27.259Z</time></trkpt><trkpt lat="45.0591396" lon="7.9843394"><ele>397.0</ele><time>2026-04-18T13:24:28.259Z</time></trkpt><trkpt lat="45.0592827" lon="7.9843596"><ele>398.0</ele><time>2026-04-18T13:24:29.259Z</time></trkpt><trkpt lat="45.0594239" lon="7.9843287"><ele>399.0</ele><time>2026-04-18T13:24:30.26Z</time></trkpt><trkpt lat="45.0595641" lon="7.9842848"><ele>400.0</ele><time>2026-04-18T13:24:31.259Z</time></trkpt><trkpt lat="45.0597019" lon="7.9842324"><ele>395.25</ele><time>2026-04-18T13:24:32.259Z</time></trkpt><trkpt lat="45.0598444" lon="7.9841709"><ele>390.5</ele><time>2026-04-18T13:24:33.259Z</time></trkpt><trkpt lat="45.0599743" lon="7.9840913"><ele>385.75</ele><time>2026-04-18T13:24:34.26Z</time></trkpt><trkpt lat="45.0601017" lon="7.9840159"><ele>381.0</ele><time>2026-04-18T13:24:35.26Z</time></trkpt><trkpt lat="45.0602145" lon="7.9839573"><ele>379.75</ele><time>2026-04-18T13:24:36.259Z</time></trkpt><trkpt lat="45.0603414" lon="7.9839236"><ele>378.5</ele><time>2026-04-18T13:24:37.26Z</time></trkpt><trkpt lat="45.0604774" lon="7.98392"><ele>377.25</ele><time>2026-04-18T13:24:38.259Z</time></trkpt><trkpt lat="45.0606219" lon="7.983944"><ele>376.0</ele><time>2026-04-18T13:24:39.259Z</time></trkpt><trkpt lat="45.0607864" lon="7.9839698"><ele>375.0</ele><time>2026-04-18T13:24:40.26Z</time></trkpt><trkpt lat="45.0609362" lon="7.984001"><ele>374.0</ele><time>2026-04-18T13:24:41.259Z</time></trkpt><trkpt lat="45.061084" lon="7.9840278"><ele>373.0</ele><time>2026-04-18T13:24:42.26Z</time></trkpt><trkpt lat="45.0612151" lon="7.9840647"><ele>372.0</ele><time>2026-04-18T13:24:43.259Z</time></trkpt><trkpt lat="45.0613362" lon="7.9841127"><ele>372.0</ele><time>2026-04-18T13:24:44.259Z</time></trkpt><trkpt lat="45.0614421" lon="7.9841661"><ele>372.0</ele><time>2026-04-18T13:24:45.259Z</time></trkpt><trkpt lat="45.0615365" lon="7.9842166"><ele>372.0</ele><time>2026-04-18T13:24:46.259Z</time></trkpt><trkpt lat="45.0616207" lon="7.9842152"><ele>372.0</ele><time>2026-04-18T13:24:47.259Z</time></trkpt><trkpt lat="45.0617159" lon="7.9841761"><ele>372.0</ele><time>2026-04-18T13:24:48.259Z</time></trkpt><trkpt lat="45.0618157" lon="7.9841054"><ele>370.25</ele><time>2026-04-18T13:24:49.26Z</time></trkpt><trkpt lat="45.0619264" lon="7.9840133"><ele>368.5</ele><time>2026-04-18T13:24:50.259Z</time></trkpt><trkpt lat="45.062039" lon="7.9839069"><ele>366.75</ele><time>2026-04-18T13:24:51.259Z</time></trkpt><trkpt lat="45.0621542" lon="7.9837892"><ele>365.0</ele><time>2026-04-18T13:24:52.259Z</time></trkpt><trkpt lat="45.0622681" lon="7.9836634"><ele>365.0</ele><time>2026-04-18T13:24:53.259Z</time></trkpt><trkpt lat="45.0623875" lon="7.9835213"><ele>365.0</ele><time>2026-04-18T13:24:54.259Z</time></trkpt><trkpt lat="45.0625047" lon="7.9833662"><ele>365.0</ele><time>2026-04-18T13:24:55.259Z</time></trkpt><trkpt lat="45.0626148" lon="7.9832044"><ele>365.0</ele><time>2026-04-18T13:24:56.259Z</time></trkpt><trkpt lat="45.0627376" lon="7.9830472"><ele>365.0</ele><time>2026-04-18T13:24:57.259Z</time></trkpt><trkpt lat="45.0628646" lon="7.9828866"><ele>365.0</ele><time>2026-04-18T13:24:58.259Z</time></trkpt><trkpt lat="45.0629922" lon="7.9827271"><ele>365.0</ele><time>2026-04-18T13:24:59.259Z</time></trkpt><trkpt lat="45.0631219" lon="7.982579"><ele>365.0</ele><time>2026-04-18T13:25:00.259Z</time></trkpt><trkpt lat="45.063245" lon="7.982428"><ele>365.0</ele><time>2026-04-18T13:25:01.259Z</time></trkpt><trkpt lat="45.0633649" lon="7.9822828"><ele>366.75</ele><time>2026-04-18T13:25:02.259Z</time></trkpt><trkpt lat="45.0634778" lon="7.9821326"><ele>368.5</ele><time>2026-04-18T13:25:03.259Z</time></trkpt><trkpt lat="45.0635759" lon="7.9819737"><ele>370.25</ele><time>2026-04-18T13:25:04.259Z</time></trkpt><trkpt lat="45.0636522" lon="7.9818063"><ele>372.0</ele><time>2026-04-18T13:25:05.259Z</time></trkpt><trkpt lat="45.0637159" lon="7.9816302"><ele>372.25</ele><time>2026-04-18T13:25:06.259Z</time></trkpt><trkpt lat="45.0637757" lon="7.981458"><ele>372.5</ele><time>2026-04-18T13:25:07.259Z</time></trkpt><trkpt lat="45.063841" lon="7.9813126"><ele>372.75</ele><time>2026-04-18T13:25:08.259Z</time></trkpt><trkpt lat="45.0639278" lon="7.9811847"><ele>373.0</ele><time>2026-04-18T13:25:09.259Z</time></trkpt><trkpt lat="45.0640489" lon="7.9810953"><ele>375.0</ele><time>2026-04-18T13:25:10.259Z</time></trkpt><trkpt lat="45.0641818" lon="7.9810284"><ele>377.0</ele><time>2026-04-18T13:25:11.259Z</time></trkpt><trkpt lat="45.0643272" lon="7.9809587"><ele>379.0</ele><time>2026-04-18T13:25:12.259Z</time></trkpt><trkpt lat="45.0644759" lon="7.980871"><ele>378.0</ele><time>2026-04-18T13:25:13.26Z</time></trkpt><trkpt lat="45.0646191" lon="7.9807704"><ele>377.0</ele><time>2026-04-18T13:25:14.259Z</time></trkpt><trkpt lat="45.064761" lon="7.9806424"><ele>376.0</ele><time>2026-04-18T13:25:15.259Z</time></trkpt><trkpt lat="45.0648991" lon="7.9804965"><ele>374.3333333333333</ele><time>2026-04-18T13:25:16.259Z</time></trkpt><trkpt lat="45.0650277" lon="7.9803518"><ele>372.6666666666667</ele><time>2026-04-18T13:25:17.259Z</time></trkpt><trkpt lat="45.0651581" lon="7.9802012"><ele>371.0</ele><time>2026-04-18T13:25:18.259Z</time></trkpt><trkpt lat="45.0652774" lon="7.9800304"><ele>373.0</ele><time>2026-04-18T13:25:19.26Z</time></trkpt><trkpt lat="45.0653925" lon="7.9798634"><ele>375.0</ele><time>2026-04-18T13:25:20.259Z</time></trkpt><trkpt lat="45.0655061" lon="7.9797013"><ele>377.0</ele><time>2026-04-18T13:25:21.259Z</time></trkpt><trkpt lat="45.0656209" lon="7.979538"><ele>377.0</ele><time>2026-04-18T13:25:22.26Z</time></trkpt><trkpt lat="45.0657336" lon="7.979372"><ele>377.0</ele><time>2026-04-18T13:25:23.26Z</time></trkpt><trkpt lat="45.0658442" lon="7.9792077"><ele>377.0</ele><time>2026-04-18T13:25:24.259Z</time></trkpt><trkpt lat="45.0659462" lon="7.9790344"><ele>380.0</ele><time>2026-04-18T13:25:25.259Z</time></trkpt><trkpt lat="45.0660442" lon="7.97886"><ele>383.0</ele><time>2026-04-18T13:25:26.259Z</time></trkpt><trkpt lat="45.0661414" lon="7.9786932"><ele>386.0</ele><time>2026-04-18T13:25:27.259Z</time></trkpt><trkpt lat="45.0662477" lon="7.9785387"><ele>386.0</ele><time>2026-04-18T13:25:28.259Z</time></trkpt><trkpt lat="45.0663618" lon="7.978382"><ele>386.0</ele><time>2026-04-18T13:25:29.259Z</time></trkpt><trkpt lat="45.0664841" lon="7.9782335"><ele>386.0</ele><time>2026-04-18T13:25:30.26Z</time></trkpt><trkpt lat="45.0666002" lon="7.9780818"><ele>384.66666666666663</ele><time>2026-04-18T13:25:31.26Z</time></trkpt><trkpt lat="45.0667155" lon="7.9779167"><ele>383.3333333333333</ele><time>2026-04-18T13:25:32.26Z</time></trkpt><trkpt lat="45.0668258" lon="7.977746"><ele>382.0</ele><time>2026-04-18T13:25:33.259Z</time></trkpt><trkpt lat="45.0669391" lon="7.9775739"><ele>384.3333333333333</ele><time>2026-04-18T13:25:34.26Z</time></trkpt><trkpt lat="45.0670646" lon="7.9774132"><ele>386.66666666666663</ele><time>2026-04-18T13:25:35.259Z</time></trkpt><trkpt lat="45.0671881" lon="7.9772482"><ele>389.0</ele><time>2026-04-18T13:25:36.26Z</time></trkpt><trkpt lat="45.0673107" lon="7.9770827"><ele>389.0</ele><time>2026-04-18T13:25:37.259Z</time></trkpt><trkpt lat="45.067422" lon="7.9768998"><ele>389.0</ele><time>2026-04-18T13:25:38.26Z</time></trkpt><trkpt lat="45.0675125" lon="7.9766928"><ele>389.0</ele><time>2026-04-18T13:25:39.259Z</time></trkpt><trkpt lat="45.0675912" lon="7.9764853"><ele>391.0</ele><time>2026-04-18T13:25:40.26Z</time></trkpt><trkpt lat="45.0676661" lon="7.9762798"><ele>393.0</ele><time>2026-04-18T13:25:41.259Z</time></trkpt><trkpt lat="45.067738" lon="7.9760835"><ele>395.0</ele><time>2026-04-18T13:25:42.259Z</time></trkpt><trkpt lat="45.0678062" lon="7.9758986"><ele>395.25</ele><time>2026-04-18T13:25:43.259Z</time></trkpt><trkpt lat="45.0678697" lon="7.9757206"><ele>395.5</ele><time>2026-04-18T13:25:44.259Z</time></trkpt><trkpt lat="45.0679373" lon="7.9755523"><ele>395.75</ele><time>2026-04-18T13:25:45.259Z</time></trkpt><trkpt lat="45.0679936" lon="7.9753812"><ele>396.0</ele><time>2026-04-18T13:25:46.26Z</time></trkpt><trkpt lat="45.0680541" lon="7.9752049"><ele>396.0</ele><time>2026-04-18T13:25:47.259Z</time></trkpt><trkpt lat="45.0681158" lon="7.9750324"><ele>396.0</ele><time>2026-04-18T13:25:48.259Z</time></trkpt><trkpt lat="45.068188" lon="7.9748628"><ele>396.0</ele><time>2026-04-18T13:25:49.259Z</time></trkpt><trkpt lat="45.0682764" lon="7.9746925"><ele>396.0</ele><time>2026-04-18T13:25:50.259Z</time></trkpt><trkpt lat="45.0683709" lon="7.9745406"><ele>398.75</ele><time>2026-04-18T13:25:51.259Z</time></trkpt><trkpt lat="45.0684752" lon="7.9744055"><ele>401.5</ele><time>2026-04-18T13:25:52.259Z</time></trkpt><trkpt lat="45.0686007" lon="7.9743048"><ele>404.25</ele><time>2026-04-18T13:25:53.259Z</time></trkpt><trkpt lat="45.0687358" lon="7.974222"><ele>407.0</ele><time>2026-04-18T13:25:54.259Z</time></trkpt><trkpt lat="45.0688776" lon="7.9741373"><ele>407.0</ele><time>2026-04-18T13:25:55.26Z</time></trkpt><trkpt lat="45.069019" lon="7.9740473"><ele>407.0</ele><time>2026-04-18T13:25:56.259Z</time></trkpt><trkpt lat="45.0691557" lon="7.9739544"><ele>407.0</ele><time>2026-04-18T13:25:57.259Z</time></trkpt><trkpt lat="45.0692896" lon="7.9738776"><ele>408.20000000000005</ele><time>2026-04-18T13:25:58.259Z</time></trkpt><trkpt lat="45.0694188" lon="7.9738214"><ele>409.4</ele><time>2026-04-18T13:25:59.259Z</time></trkpt><trkpt lat="45.0695261" lon="7.973759"><ele>410.6</ele><time>2026-04-18T13:26:00.259Z</time></trkpt><trkpt lat="45.069601" lon="7.9736803"><ele>411.79999999999995</ele><time>2026-04-18T13:26:01.259Z</time></trkpt><trkpt lat="45.0696555" lon="7.9735611"><ele>413.0</ele><time>2026-04-18T13:26:02.259Z</time></trkpt><trkpt lat="45.069688" lon="7.9734406"><ele>415.0</ele><time>2026-04-18T13:26:03.259Z</time></trkpt><trkpt lat="45.0697124" lon="7.9733186"><ele>417.0</ele><time>2026-04-18T13:26:04.26Z</time></trkpt><trkpt lat="45.0697312" lon="7.9731743"><ele>419.0</ele><time>2026-04-18T13:26:05.26Z</time></trkpt><trkpt lat="45.06976" lon="7.9730453"><ele>421.0</ele><time>2026-04-18T13:26:06.259Z</time></trkpt><trkpt lat="45.069798" lon="7.972921"><ele>423.0</ele><time>2026-04-18T13:26:07.26Z</time></trkpt><trkpt lat="45.0698557" lon="7.9728068"><ele>423.0</ele><time>2026-04-18T13:26:08.259Z</time></trkpt><trkpt lat="45.0699322" lon="7.9727127"><ele>423.0</ele><time>2026-04-18T13:26:09.259Z</time></trkpt><trkpt lat="45.0700394" lon="7.9726188"><ele>423.0</ele><time>2026-04-18T13:26:10.26Z</time></trkpt><trkpt lat="45.0701499" lon="7.9725272"><ele>423.0</ele><time>2026-04-18T13:26:11.259Z</time></trkpt><trkpt lat="45.0702472" lon="7.9724216"><ele>423.79999999999995</ele><time>2026-04-18T13:26:12.26Z</time></trkpt><trkpt lat="45.070346" lon="7.9723178"><ele>424.6</ele><time>2026-04-18T13:26:13.26Z</time></trkpt><trkpt lat="45.0704401" lon="7.9722312"><ele>425.40000000000003</ele><time>2026-04-18T13:26:14.26Z</time></trkpt><trkpt lat="45.0705437" lon="7.9721805"><ele>426.20000000000005</ele><time>2026-04-18T13:26:15.259Z</time></trkpt><trkpt lat="45.0706309" lon="7.9721431"><ele>427.0</ele><time>2026-04-18T13:26:16.259Z</time></trkpt><trkpt lat="45.0707156" lon="7.9721133"><ele>425.6</ele><time>2026-04-18T13:26:17.259Z</time></trkpt><trkpt lat="45.0707889" lon="7.9720588"><ele>424.20000000000005</ele><time>2026-04-18T13:26:18.259Z</time></trkpt><trkpt lat="45.070878" lon="7.9719853"><ele>422.8</ele><time>2026-04-18T13:26:19.259Z</time></trkpt><trkpt lat="45.0709854" lon="7.9719135"><ele>421.4</ele><time>2026-04-18T13:26:20.26Z</time></trkpt><trkpt lat="45.0710941" lon="7.9718433"><ele>420.0</ele><time>2026-04-18T13:26:21.259Z</time></trkpt><trkpt lat="45.0712014" lon="7.9717682"><ele>422.0</ele><time>2026-04-18T13:26:22.259Z</time></trkpt><trkpt lat="45.071316" lon="7.9716875"><ele>424.0</ele><time>2026-04-18T13:26:23.26Z</time></trkpt><trkpt lat="45.0714281" lon="7.9715984"><ele>426.0</ele><time>2026-04-18T13:26:24.259Z</time></trkpt><trkpt lat="45.0715514" lon="7.9715244"><ele>428.0</ele><time>2026-04-18T13:26:25.259Z</time></trkpt><trkpt lat="45.0716736" lon="7.9714438"><ele>428.25</ele><time>2026-04-18T13:26:26.259Z</time></trkpt><trkpt lat="45.0718042" lon="7.9713629"><ele>428.5</ele><time>2026-04-18T13:26:27.259Z</time></trkpt><trkpt lat="45.0719331" lon="7.9712675"><ele>428.75</ele><time>2026-04-18T13:26:28.259Z</time></trkpt><trkpt lat="45.0720634" lon="7.9711711"><ele>429.0</ele><time>2026-04-18T13:26:29.26Z</time></trkpt><trkpt lat="45.072195" lon="7.971082"><ele>429.0</ele><time>2026-04-18T13:26:30.259Z</time></trkpt><trkpt lat="45.0723318" lon="7.9709935"><ele>429.0</ele><time>2026-04-18T13:26:31.26Z</time></trkpt><trkpt lat="45.0724695" lon="7.9708967"><ele>429.0</ele><time>2026-04-18T13:26:32.26Z</time></trkpt><trkpt lat="45.0726164" lon="7.970798"><ele>433.33333333333337</ele><time>2026-04-18T13:26:33.259Z</time></trkpt><trkpt lat="45.0727571" lon="7.9706985"><ele>437.6666666666667</ele><time>2026-04-18T13:26:34.26Z</time></trkpt><trkpt lat="45.0728984" lon="7.9706028"><ele>442.0</ele><time>2026-04-18T13:26:35.259Z</time></trkpt><trkpt lat="45.073035" lon="7.9705053"><ele>442.0</ele><time>2026-04-18T13:26:36.259Z</time></trkpt><trkpt lat="45.0731707" lon="7.9704119"><ele>442.0</ele><time>2026-04-18T13:26:37.26Z</time></trkpt><trkpt lat="45.0733032" lon="7.9703144"><ele>442.0</ele><time>2026-04-18T13:26:38.259Z</time></trkpt><trkpt lat="45.0734282" lon="7.9702132"><ele>442.0</ele><time>2026-04-18T13:26:39.259Z</time></trkpt><trkpt lat="45.0735438" lon="7.9700996"><ele>446.5</ele><time>2026-04-18T13:26:40.259Z</time></trkpt><trkpt lat="45.0736558" lon="7.9699617"><ele>451.0</ele><time>2026-04-18T13:26:41.26Z</time></trkpt><trkpt lat="45.0737607" lon="7.9698246"><ele>455.5</ele><time>2026-04-18T13:26:42.259Z</time></trkpt><trkpt lat="45.0738664" lon="7.9696893"><ele>460.0</ele><time>2026-04-18T13:26:43.259Z</time></trkpt><trkpt lat="45.0739718" lon="7.9695581"><ele>460.0</ele><time>2026-04-18T13:26:44.26Z</time></trkpt><trkpt lat="45.0740829" lon="7.9694636"><ele>460.0</ele><time>2026-04-18T13:26:45.259Z</time></trkpt><trkpt lat="45.0742016" lon="7.9694202"><ele>460.0</ele><time>2026-04-18T13:26:46.259Z</time></trkpt><trkpt lat="45.0743303" lon="7.9694118"><ele>460.0</ele><time>2026-04-18T13:26:47.259Z</time></trkpt><trkpt lat="45.0744509" lon="7.9694566"><ele>460.5</ele><time>2026-04-18T13:26:48.259Z</time></trkpt><trkpt lat="45.0745804" lon="7.9695256"><ele>461.0</ele><time>2026-04-18T13:26:49.259Z</time></trkpt><trkpt lat="45.0747157" lon="7.9695857"><ele>461.5</ele><time>2026-04-18T13:26:50.259Z</time></trkpt><trkpt lat="45.0748577" lon="7.9696431"><ele>462.0</ele><time>2026-04-18T13:26:51.259Z</time></trkpt><trkpt lat="45.0749975" lon="7.9696943"><ele>462.0</ele><time>2026-04-18T13:26:52.259Z</time></trkpt><trkpt lat="45.075117" lon="7.969763"><ele>462.0</ele><time>2026-04-18T13:26:53.259Z</time></trkpt><trkpt lat="45.075213" lon="7.9698643"><ele>462.0</ele><time>2026-04-18T13:26:54.259Z</time></trkpt><trkpt lat="45.0752729" lon="7.9700078"><ele>462.0</ele><time>2026-04-18T13:26:55.259Z</time></trkpt><trkpt lat="45.0753068" lon="7.9701726"><ele>460.75</ele><time>2026-04-18T13:26:56.259Z</time></trkpt><trkpt lat="45.0753202" lon="7.9703433"><ele>459.5</ele><time>2026-04-18T13:26:57.26Z</time></trkpt><trkpt lat="45.0753452" lon="7.9705162"><ele>458.25</ele><time>2026-04-18T13:26:58.259Z</time></trkpt><trkpt lat="45.0753942" lon="7.9706695"><ele>457.0</ele><time>2026-04-18T13:26:59.26Z</time></trkpt><trkpt lat="45.075469" lon="7.9708093"><ele>456.0</ele><time>2026-04-18T13:27:00.259Z</time></trkpt><trkpt lat="45.0755485" lon="7.9709426"><ele>455.0</ele><time>2026-04-18T13:27:01.259Z</time></trkpt><trkpt lat="45.0756259" lon="7.9710759"><ele>454.0</ele><time>2026-04-18T13:27:02.26Z</time></trkpt><trkpt lat="45.0756866" lon="7.9712239"><ele>453.0</ele><time>2026-04-18T13:27:03.26Z</time></trkpt><trkpt lat="45.0757308" lon="7.9713924"><ele>453.0</ele><time>2026-04-18T13:27:04.259Z</time></trkpt><trkpt lat="45.075743" lon="7.9715755"><ele>453.0</ele><time>2026-04-18T13:27:05.26Z</time></trkpt><trkpt lat="45.0757369" lon="7.971767"><ele>453.0</ele><time>2026-04-18T13:27:06.26Z</time></trkpt><trkpt lat="45.0757199" lon="7.9719553"><ele>453.0</ele><time>2026-04-18T13:27:07.259Z</time></trkpt><trkpt lat="45.0756837" lon="7.9721377"><ele>455.2</ele><time>2026-04-18T13:27:08.26Z</time></trkpt><trkpt lat="45.0756158" lon="7.9722843"><ele>457.4</ele><time>2026-04-18T13:27:09.259Z</time></trkpt><trkpt lat="45.0755301" lon="7.9723995"><ele>459.59999999999997</ele><time>2026-04-18T13:27:10.259Z</time></trkpt><trkpt lat="45.0754505" lon="7.9724959"><ele>461.79999999999995</ele><time>2026-04-18T13:27:11.26Z</time></trkpt><trkpt lat="45.0753791" lon="7.9725927"><ele>464.0</ele><time>2026-04-18T13:27:12.26Z</time></trkpt><trkpt lat="45.0753167" lon="7.9726903"><ele>465.0</ele><time>2026-04-18T13:27:13.259Z</time></trkpt><trkpt lat="45.0752714" lon="7.9727765"><ele>466.0</ele><time>2026-04-18T13:27:14.26Z</time></trkpt><trkpt lat="45.0752831" lon="7.972936"><ele>467.0</ele><time>2026-04-18T13:27:16.259Z</time></trkpt><trkpt lat="45.0754163" lon="7.9729824"><ele>468.0</ele><time>2026-04-18T13:27:18.259Z</time></trkpt><trkpt lat="45.0754828" lon="7.9729108"><ele>469.0</ele><time>2026-04-18T13:27:19.26Z</time></trkpt><trkpt lat="45.0755594" lon="7.9727819"><ele>469.0</ele><time>2026-04-18T13:27:20.259Z</time></trkpt><trkpt lat="45.0756402" lon="7.9726559"><ele>469.0</ele><time>2026-04-18T13:27:21.259Z</time></trkpt><trkpt lat="45.0757277" lon="7.9725193"><ele>469.0</ele><time>2026-04-18T13:27:22.26Z</time></trkpt><trkpt lat="45.075817" lon="7.972384"><ele>469.0</ele><time>2026-04-18T13:27:23.259Z</time></trkpt><trkpt lat="45.0758976" lon="7.9722412"><ele>471.5</ele><time>2026-04-18T13:27:24.259Z</time></trkpt><trkpt lat="45.0759552" lon="7.9720837"><ele>474.0</ele><time>2026-04-18T13:27:25.259Z</time></trkpt><trkpt lat="45.0760101" lon="7.9719246"><ele>476.5</ele><time>2026-04-18T13:27:26.259Z</time></trkpt><trkpt lat="45.0760668" lon="7.9717692"><ele>479.0</ele><time>2026-04-18T13:27:27.259Z</time></trkpt><trkpt lat="45.0761316" lon="7.9716162"><ele>479.0</ele><time>2026-04-18T13:27:28.259Z</time></trkpt><trkpt lat="45.0762009" lon="7.9714793"><ele>479.0</ele><time>2026-04-18T13:27:29.259Z</time></trkpt><trkpt lat="45.0762571" lon="7.9713538"><ele>479.0</ele><time>2026-04-18T13:27:30.259Z</time></trkpt><trkpt lat="45.0762985" lon="7.971215"><ele>479.0</ele><time>2026-04-18T13:27:31.259Z</time></trkpt><trkpt lat="45.0763048" lon="7.9710778"><ele>479.0</ele><time>2026-04-18T13:27:32.259Z</time></trkpt><trkpt lat="45.076273" lon="7.9709425"><ele>479.4</ele><time>2026-04-18T13:27:33.259Z</time></trkpt><trkpt lat="45.0762247" lon="7.9708274"><ele>479.79999999999995</ele><time>2026-04-18T13:27:34.259Z</time></trkpt><trkpt lat="45.076175" lon="7.9707035"><ele>480.20000000000005</ele><time>2026-04-18T13:27:35.259Z</time></trkpt><trkpt lat="45.076135" lon="7.9705787"><ele>480.6</ele><time>2026-04-18T13:27:36.259Z</time></trkpt><trkpt lat="45.0761113" lon="7.9704423"><ele>481.0</ele><time>2026-04-18T13:27:37.259Z</time></trkpt><trkpt lat="45.0761068" lon="7.9702968"><ele>481.0</ele><time>2026-04-18T13:27:38.259Z</time></trkpt><trkpt lat="45.0761178" lon="7.9701477"><ele>481.0</ele><time>2026-04-18T13:27:39.26Z</time></trkpt><trkpt lat="45.0761397" lon="7.969991"><ele>481.0</ele><time>2026-04-18T13:27:40.259Z</time></trkpt><trkpt lat="45.0761589" lon="7.9698325"><ele>481.0</ele><time>2026-04-18T13:27:41.259Z</time></trkpt><trkpt lat="45.0761783" lon="7.969667"><ele>482.20000000000005</ele><time>2026-04-18T13:27:42.26Z</time></trkpt><trkpt lat="45.0762006" lon="7.9695021"><ele>483.40000000000003</ele><time>2026-04-18T13:27:43.259Z</time></trkpt><trkpt lat="45.0762318" lon="7.9693515"><ele>484.6</ele><time>2026-04-18T13:27:44.259Z</time></trkpt><trkpt lat="45.0762662" lon="7.9692063"><ele>485.8</ele><time>2026-04-18T13:27:45.259Z</time></trkpt><trkpt lat="45.0763107" lon="7.969067"><ele>487.0</ele><time>2026-04-18T13:27:46.26Z</time></trkpt><trkpt lat="45.0763491" lon="7.9689429"><ele>487.8</ele><time>2026-04-18T13:27:47.259Z</time></trkpt><trkpt lat="45.0764021" lon="7.9688197"><ele>488.6</ele><time>2026-04-18T13:27:48.26Z</time></trkpt><trkpt lat="45.0764608" lon="7.9686954"><ele>489.40000000000003</ele><time>2026-04-18T13:27:49.26Z</time></trkpt><trkpt lat="45.0765301" lon="7.9685844"><ele>490.20000000000005</ele><time>2026-04-18T13:27:50.259Z</time></trkpt><trkpt lat="45.0766197" lon="7.9684862"><ele>491.0</ele><time>2026-04-18T13:27:51.26Z</time></trkpt><trkpt lat="45.0767344" lon="7.9683925"><ele>493.0</ele><time>2026-04-18T13:27:52.259Z</time></trkpt><trkpt lat="45.0768586" lon="7.9683073"><ele>495.0</ele><time>2026-04-18T13:27:53.259Z</time></trkpt><trkpt lat="45.076986" lon="7.9682164"><ele>497.0</ele><time>2026-04-18T13:27:54.26Z</time></trkpt><trkpt lat="45.0771251" lon="7.9681291"><ele>499.0</ele><time>2026-04-18T13:27:55.26Z</time></trkpt><trkpt lat="45.077258" lon="7.9680355"><ele>499.0</ele><time>2026-04-18T13:27:56.259Z</time></trkpt><trkpt lat="45.0773942" lon="7.9679434"><ele>499.0</ele><time>2026-04-18T13:27:57.26Z</time></trkpt><trkpt lat="45.0775284" lon="7.9678478"><ele>499.0</ele><time>2026-04-18T13:27:58.259Z</time></trkpt><trkpt lat="45.077658" lon="7.9677571"><ele>499.0</ele><time>2026-04-18T13:27:59.26Z</time></trkpt><trkpt lat="45.0777875" lon="7.9676727"><ele>501.0</ele><time>2026-04-18T13:28:00.26Z</time></trkpt><trkpt lat="45.0779252" lon="7.9676081"><ele>503.0</ele><time>2026-04-18T13:28:01.259Z</time></trkpt><trkpt lat="45.078069" lon="7.9675691"><ele>505.0</ele><time>2026-04-18T13:28:02.259Z</time></trkpt><trkpt lat="45.0782077" lon="7.9675606"><ele>507.0</ele><time>2026-04-18T13:28:03.259Z</time></trkpt><trkpt lat="45.0783466" lon="7.9675957"><ele>507.75</ele><time>2026-04-18T13:28:04.259Z</time></trkpt><trkpt lat="45.0784801" lon="7.9676619"><ele>508.5</ele><time>2026-04-18T13:28:05.259Z</time></trkpt><trkpt lat="45.0786055" lon="7.9677656"><ele>509.25</ele><time>2026-04-18T13:28:06.259Z</time></trkpt><trkpt lat="45.0787134" lon="7.9678855"><ele>510.0</ele><time>2026-04-18T13:28:07.26Z</time></trkpt><trkpt lat="45.0788165" lon="7.9680217"><ele>510.0</ele><time>2026-04-18T13:28:08.259Z</time></trkpt><trkpt lat="45.0789228" lon="7.9681651"><ele>510.0</ele><time>2026-04-18T13:28:09.259Z</time></trkpt><trkpt lat="45.0790372" lon="7.9683095"><ele>510.0</ele><time>2026-04-18T13:28:10.259Z</time></trkpt><trkpt lat="45.0791368" lon="7.968422"><ele>510.0</ele><time>2026-04-18T13:28:11.26Z</time></trkpt><trkpt lat="45.0792489" lon="7.9685293"><ele>512.0</ele><time>2026-04-18T13:28:12.259Z</time></trkpt><trkpt lat="45.0793443" lon="7.9686172"><ele>514.0</ele><time>2026-04-18T13:28:13.259Z</time></trkpt><trkpt lat="45.0794278" lon="7.968691"><ele>516.0</ele><time>2026-04-18T13:28:14.259Z</time></trkpt><trkpt lat="45.0795052" lon="7.9687457"><ele>518.0</ele><time>2026-04-18T13:28:15.259Z</time></trkpt><trkpt lat="45.0795767" lon="7.9687765"><ele>520.0</ele><time>2026-04-18T13:28:16.259Z</time></trkpt><trkpt lat="45.0796481" lon="7.9687599"><ele>522.0</ele><time>2026-04-18T13:28:17.259Z</time></trkpt><trkpt lat="45.0797147" lon="7.9686837"><ele>522.0</ele><time>2026-04-18T13:28:18.259Z</time></trkpt><trkpt lat="45.0797867" lon="7.9685704"><ele>522.0</ele><time>2026-04-18T13:28:19.26Z</time></trkpt><trkpt lat="45.0798752" lon="7.9684447"><ele>522.0</ele><time>2026-04-18T13:28:20.259Z</time></trkpt><trkpt lat="45.0799628" lon="7.9683101"><ele>522.0</ele><time>2026-04-18T13:28:21.259Z</time></trkpt><trkpt lat="45.0800563" lon="7.968164"><ele>516.6666666666666</ele><time>2026-04-18T13:28:22.26Z</time></trkpt><trkpt lat="45.080153" lon="7.9680031"><ele>511.3333333333333</ele><time>2026-04-18T13:28:23.259Z</time></trkpt><trkpt lat="45.0802535" lon="7.9678335"><ele>506.0</ele><time>2026-04-18T13:28:24.259Z</time></trkpt><trkpt lat="45.0803525" lon="7.9676588"><ele>503.0</ele><time>2026-04-18T13:28:25.26Z</time></trkpt><trkpt lat="45.0804453" lon="7.9674826"><ele>500.0</ele><time>2026-04-18T13:28:26.259Z</time></trkpt><trkpt lat="45.0805404" lon="7.9673075"><ele>497.0</ele><time>2026-04-18T13:28:27.259Z</time></trkpt><trkpt lat="45.0806311" lon="7.967122"><ele>497.0</ele><time>2026-04-18T13:28:28.259Z</time></trkpt><trkpt lat="45.0807214" lon="7.9669411"><ele>497.0</ele><time>2026-04-18T13:28:29.259Z</time></trkpt><trkpt lat="45.0808081" lon="7.9667693"><ele>497.0</ele><time>2026-04-18T13:28:30.26Z</time></trkpt><trkpt lat="45.0808962" lon="7.9665758"><ele>501.0</ele><time>2026-04-18T13:28:31.26Z</time></trkpt><trkpt lat="45.0809908" lon="7.9663825"><ele>505.0</ele><time>2026-04-18T13:28:32.26Z</time></trkpt><trkpt lat="45.0810834" lon="7.9661946"><ele>509.0</ele><time>2026-04-18T13:28:33.259Z</time></trkpt><trkpt lat="45.0811742" lon="7.9660073"><ele>506.66666666666663</ele><time>2026-04-18T13:28:34.259Z</time></trkpt><trkpt lat="45.0812605" lon="7.9658125"><ele>504.33333333333337</ele><time>2026-04-18T13:28:35.259Z</time></trkpt><trkpt lat="45.0813389" lon="7.9656157"><ele>502.0</ele><time>2026-04-18T13:28:36.259Z</time></trkpt><trkpt lat="45.0813916" lon="7.9654054"><ele>502.0</ele><time>2026-04-18T13:28:37.26Z</time></trkpt><trkpt lat="45.0814216" lon="7.9651897"><ele>502.0</ele><time>2026-04-18T13:28:38.26Z</time></trkpt><trkpt lat="45.0814404" lon="7.9649846"><ele>502.0</ele><time>2026-04-18T13:28:39.259Z</time></trkpt><trkpt lat="45.0814655" lon="7.9647982"><ele>502.0</ele><time>2026-04-18T13:28:40.259Z</time></trkpt><trkpt lat="45.0815098" lon="7.9646317"><ele>502.25</ele><time>2026-04-18T13:28:41.259Z</time></trkpt><trkpt lat="45.0815764" lon="7.9644937"><ele>502.5</ele><time>2026-04-18T13:28:42.259Z</time></trkpt><trkpt lat="45.081668" lon="7.964384"><ele>502.75</ele><time>2026-04-18T13:28:43.26Z</time></trkpt><trkpt lat="45.0817899" lon="7.9642917"><ele>503.0</ele><time>2026-04-18T13:28:44.26Z</time></trkpt><trkpt lat="45.0819264" lon="7.9642099"><ele>508.0</ele><time>2026-04-18T13:28:45.259Z</time></trkpt><trkpt lat="45.0820697" lon="7.9641124"><ele>513.0</ele><time>2026-04-18T13:28:46.259Z</time></trkpt><trkpt lat="45.0822184" lon="7.9640148"><ele>518.0</ele><time>2026-04-18T13:28:47.259Z</time></trkpt><trkpt lat="45.0823757" lon="7.9639144"><ele>513.0</ele><time>2026-04-18T13:28:48.259Z</time></trkpt><trkpt lat="45.0825318" lon="7.9637986"><ele>508.0</ele><time>2026-04-18T13:28:49.259Z</time></trkpt><trkpt lat="45.0826783" lon="7.9636717"><ele>503.0</ele><time>2026-04-18T13:28:50.26Z</time></trkpt><trkpt lat="45.0828151" lon="7.9635348"><ele>503.0</ele><time>2026-04-18T13:28:51.259Z</time></trkpt><trkpt lat="45.0829478" lon="7.9634027"><ele>503.0</ele><time>2026-04-18T13:28:52.259Z</time></trkpt><trkpt lat="45.0830901" lon="7.9632885"><ele>503.0</ele><time>2026-04-18T13:28:53.259Z</time></trkpt><trkpt lat="45.0832439" lon="7.9631963"><ele>499.0</ele><time>2026-04-18T13:28:54.259Z</time></trkpt><trkpt lat="45.0834052" lon="7.9631385"><ele>495.0</ele><time>2026-04-18T13:28:55.259Z</time></trkpt><trkpt lat="45.0835657" lon="7.9630862"><ele>491.0</ele><time>2026-04-18T13:28:56.26Z</time></trkpt><trkpt lat="45.0837219" lon="7.963035"><ele>491.0</ele><time>2026-04-18T13:28:57.26Z</time></trkpt><trkpt lat="45.083868" lon="7.9629924"><ele>491.0</ele><time>2026-04-18T13:28:58.259Z</time></trkpt><trkpt lat="45.0840088" lon="7.9629635"><ele>491.0</ele><time>2026-04-18T13:28:59.259Z</time></trkpt><trkpt lat="45.0841446" lon="7.9629651"><ele>491.0</ele><time>2026-04-18T13:29:00.26Z</time></trkpt><trkpt lat="45.084283" lon="7.9630025"><ele>490.0</ele><time>2026-04-18T13:29:01.259Z</time></trkpt><trkpt lat="45.0844123" lon="7.9630625"><ele>489.0</ele><time>2026-04-18T13:29:02.26Z</time></trkpt><trkpt lat="45.0845317" lon="7.9631505"><ele>488.0</ele><time>2026-04-18T13:29:03.26Z</time></trkpt><trkpt lat="45.0846354" lon="7.9632666"><ele>487.0</ele><time>2026-04-18T13:29:04.259Z</time></trkpt><trkpt lat="45.0847253" lon="7.9633835"><ele>487.0</ele><time>2026-04-18T13:29:05.259Z</time></trkpt><trkpt lat="45.0848119" lon="7.9634793"><ele>487.00000000000006</ele><time>2026-04-18T13:29:06.259Z</time></trkpt><trkpt lat="45.0848998" lon="7.9635405"><ele>487.00000000000006</ele><time>2026-04-18T13:29:07.259Z</time></trkpt><trkpt lat="45.0849978" lon="7.9635266"><ele>487.0</ele><time>2026-04-18T13:29:08.26Z</time></trkpt><trkpt lat="45.0850773" lon="7.9634641"><ele>487.0</ele><time>2026-04-18T13:29:09.259Z</time></trkpt><trkpt lat="45.0851363" lon="7.9633473"><ele>487.0</ele><time>2026-04-18T13:29:10.259Z</time></trkpt><trkpt lat="45.0851817" lon="7.9631895"><ele>487.0</ele><time>2026-04-18T13:29:11.26Z</time></trkpt><trkpt lat="45.0852362" lon="7.9630378"><ele>487.0</ele><time>2026-04-18T13:29:12.26Z</time></trkpt><trkpt lat="45.0853206" lon="7.962901"><ele>487.0</ele><time>2026-04-18T13:29:13.259Z</time></trkpt><trkpt lat="45.0854322" lon="7.9628129"><ele>487.0</ele><time>2026-04-18T13:29:14.259Z</time></trkpt><trkpt lat="45.0855731" lon="7.9627625"><ele>487.0</ele><time>2026-04-18T13:29:15.26Z</time></trkpt><trkpt lat="45.0857299" lon="7.9627625"><ele>487.0</ele><time>2026-04-18T13:29:16.259Z</time></trkpt><trkpt lat="45.0858917" lon="7.9627727"><ele>479.33333333333337</ele><time>2026-04-18T13:29:17.259Z</time></trkpt><trkpt lat="45.0860552" lon="7.9627807"><ele>471.66666666666663</ele><time>2026-04-18T13:29:18.259Z</time></trkpt><trkpt lat="45.0862218" lon="7.962778"><ele>464.0</ele><time>2026-04-18T13:29:19.259Z</time></trkpt><trkpt lat="45.086378" lon="7.9627753"><ele>464.0</ele><time>2026-04-18T13:29:20.259Z</time></trkpt><trkpt lat="45.0865342" lon="7.9627602"><ele>464.0</ele><time>2026-04-18T13:29:21.259Z</time></trkpt><trkpt lat="45.0866935" lon="7.9627227"><ele>464.0</ele><time>2026-04-18T13:29:22.259Z</time></trkpt><trkpt lat="45.0868533" lon="7.9626609"><ele>461.0</ele><time>2026-04-18T13:29:23.259Z</time></trkpt><trkpt lat="45.0870063" lon="7.9625759"><ele>458.0</ele><time>2026-04-18T13:29:24.259Z</time></trkpt><trkpt lat="45.087168" lon="7.9624989"><ele>455.0</ele><time>2026-04-18T13:29:25.259Z</time></trkpt><trkpt lat="45.0873173" lon="7.9624107"><ele>454.75</ele><time>2026-04-18T13:29:26.259Z</time></trkpt><trkpt lat="45.0874592" lon="7.9623317"><ele>454.5</ele><time>2026-04-18T13:29:27.259Z</time></trkpt><trkpt lat="45.0875831" lon="7.9622648"><ele>454.25</ele><time>2026-04-18T13:29:28.26Z</time></trkpt><trkpt lat="45.0876938" lon="7.9622089"><ele>454.0</ele><time>2026-04-18T13:29:29.26Z</time></trkpt><trkpt lat="45.0877786" lon="7.9621752"><ele>454.00000000000006</ele><time>2026-04-18T13:29:30.259Z</time></trkpt><trkpt lat="45.0878636" lon="7.9621873"><ele>454.0</ele><time>2026-04-18T13:29:31.259Z</time></trkpt><trkpt lat="45.0879289" lon="7.9622385"><ele>454.0</ele><time>2026-04-18T13:29:32.259Z</time></trkpt><trkpt lat="45.0879756" lon="7.9623254"><ele>454.0</ele><time>2026-04-18T13:29:33.259Z</time></trkpt><trkpt lat="45.087992" lon="7.9624395"><ele>454.00000000000006</ele><time>2026-04-18T13:29:34.26Z</time></trkpt><trkpt lat="45.0879704" lon="7.9625641"><ele>454.0</ele><time>2026-04-18T13:29:35.259Z</time></trkpt><trkpt lat="45.0879057" lon="7.9626656"><ele>452.5</ele><time>2026-04-18T13:29:36.26Z</time></trkpt><trkpt lat="45.0878085" lon="7.9627456"><ele>451.0</ele><time>2026-04-18T13:29:37.259Z</time></trkpt><trkpt lat="45.0877058" lon="7.9628312"><ele>449.5</ele><time>2026-04-18T13:29:38.259Z</time></trkpt><trkpt lat="45.0876245" lon="7.9629386"><ele>448.0</ele><time>2026-04-18T13:29:39.259Z</time></trkpt><trkpt lat="45.0875648" lon="7.9630693"><ele>448.0</ele><time>2026-04-18T13:29:40.26Z</time></trkpt><trkpt lat="45.0875297" lon="7.9631957"><ele>447.99999999999994</ele><time>2026-04-18T13:29:41.259Z</time></trkpt><trkpt lat="45.087518" lon="7.9633128"><ele>447.99999999999994</ele><time>2026-04-18T13:29:42.259Z</time></trkpt><trkpt lat="45.0875682" lon="7.9634164"><ele>448.0</ele><time>2026-04-18T13:29:43.259Z</time></trkpt><trkpt lat="45.0876487" lon="7.9634937"><ele>448.0</ele><time>2026-04-18T13:29:44.259Z</time></trkpt><trkpt lat="45.0877511" lon="7.9635458"><ele>448.5</ele><time>2026-04-18T13:29:45.259Z</time></trkpt><trkpt lat="45.0878708" lon="7.9636066"><ele>449.0</ele><time>2026-04-18T13:29:46.259Z</time></trkpt><trkpt lat="45.0880057" lon="7.9636993"><ele>449.5</ele><time>2026-04-18T13:29:47.259Z</time></trkpt><trkpt lat="45.088134" lon="7.9638206"><ele>450.0</ele><time>2026-04-18T13:29:48.259Z</time></trkpt><trkpt lat="45.0882656" lon="7.9639502"><ele>445.66666666666663</ele><time>2026-04-18T13:29:49.259Z</time></trkpt><trkpt lat="45.0884022" lon="7.9640754"><ele>441.3333333333333</ele><time>2026-04-18T13:29:50.26Z</time></trkpt><trkpt lat="45.0885327" lon="7.9642026"><ele>437.0</ele><time>2026-04-18T13:29:51.259Z</time></trkpt><trkpt lat="45.0886478" lon="7.9643294"><ele>436.0</ele><time>2026-04-18T13:29:52.259Z</time></trkpt><trkpt lat="45.0887716" lon="7.9644669"><ele>435.0</ele><time>2026-04-18T13:29:53.259Z</time></trkpt><trkpt lat="45.0888799" lon="7.9646234"><ele>434.0</ele><time>2026-04-18T13:29:54.259Z</time></trkpt><trkpt lat="45.0889725" lon="7.9647891"><ele>434.0</ele><time>2026-04-18T13:29:55.259Z</time></trkpt><trkpt lat="45.0890575" lon="7.9649409"><ele>434.0</ele><time>2026-04-18T13:29:56.26Z</time></trkpt><trkpt lat="45.0891384" lon="7.9650805"><ele>434.0</ele><time>2026-04-18T13:29:57.259Z</time></trkpt><trkpt lat="45.0892097" lon="7.9651751"><ele>434.0</ele><time>2026-04-18T13:29:58.26Z</time></trkpt><trkpt lat="45.089282" lon="7.9652343"><ele>434.0</ele><time>2026-04-18T13:29:59.259Z</time></trkpt><trkpt lat="45.0893652" lon="7.9652531"><ele>431.79999999999995</ele><time>2026-04-18T13:30:00.26Z</time></trkpt><trkpt lat="45.089449" lon="7.9652213"><ele>429.59999999999997</ele><time>2026-04-18T13:30:01.26Z</time></trkpt><trkpt lat="45.089517" lon="7.9651476"><ele>427.4</ele><time>2026-04-18T13:30:02.259Z</time></trkpt><trkpt lat="45.0895424" lon="7.9650272"><ele>425.2</ele><time>2026-04-18T13:30:03.259Z</time></trkpt><trkpt lat="45.0895309" lon="7.9648839"><ele>423.0</ele><time>2026-04-18T13:30:04.259Z</time></trkpt><trkpt lat="45.0894899" lon="7.9647265"><ele>423.0</ele><time>2026-04-18T13:30:05.259Z</time></trkpt><trkpt lat="45.0894426" lon="7.9645848"><ele>423.0</ele><time>2026-04-18T13:30:06.259Z</time></trkpt><trkpt lat="45.089396" lon="7.9644404"><ele>423.0</ele><time>2026-04-18T13:30:07.259Z</time></trkpt><trkpt lat="45.0893629" lon="7.964322"><ele>423.0</ele><time>2026-04-18T13:30:08.26Z</time></trkpt><trkpt lat="45.0893551" lon="7.9642116"><ele>423.0</ele><time>2026-04-18T13:30:09.259Z</time></trkpt><trkpt lat="45.0893809" lon="7.9640998"><ele>423.0</ele><time>2026-04-18T13:30:10.259Z</time></trkpt><trkpt lat="45.0894434" lon="7.9640557"><ele>423.0</ele><time>2026-04-18T13:30:11.26Z</time></trkpt><trkpt lat="45.0895186" lon="7.9640613"><ele>423.0</ele><time>2026-04-18T13:30:12.259Z</time></trkpt><trkpt lat="45.0895992" lon="7.9641282"><ele>423.0</ele><time>2026-04-18T13:30:13.259Z</time></trkpt><trkpt lat="45.0896655" lon="7.9642323"><ele>423.0</ele><time>2026-04-18T13:30:14.259Z</time></trkpt><trkpt lat="45.0897479" lon="7.9643511"><ele>423.0</ele><time>2026-04-18T13:30:15.259Z</time></trkpt><trkpt lat="45.089849" lon="7.9644398"><ele>423.0</ele><time>2026-04-18T13:30:16.259Z</time></trkpt><trkpt lat="45.0899705" lon="7.9645022"><ele>423.0</ele><time>2026-04-18T13:30:17.259Z</time></trkpt><trkpt lat="45.0901057" lon="7.9645064"><ele>423.0</ele><time>2026-04-18T13:30:18.259Z</time></trkpt><trkpt lat="45.0902484" lon="7.9644713"><ele>422.33333333333337</ele><time>2026-04-18T13:30:19.259Z</time></trkpt><trkpt lat="45.0904068" lon="7.9644291"><ele>421.6666666666667</ele><time>2026-04-18T13:30:20.259Z</time></trkpt><trkpt lat="45.0905724" lon="7.9643905"><ele>421.0</ele><time>2026-04-18T13:30:21.259Z</time></trkpt><trkpt lat="45.0907323" lon="7.964351"><ele>421.0</ele><time>2026-04-18T13:30:22.259Z</time></trkpt><trkpt lat="45.0908883" lon="7.9643133"><ele>421.0</ele><time>2026-04-18T13:30:23.26Z</time></trkpt><trkpt lat="45.0910396" lon="7.9642746"><ele>421.0</ele><time>2026-04-18T13:30:24.26Z</time></trkpt><trkpt lat="45.091172" lon="7.9642395"><ele>421.0</ele><time>2026-04-18T13:30:25.259Z</time></trkpt><trkpt lat="45.0912923" lon="7.9641818"><ele>418.0</ele><time>2026-04-18T13:30:26.259Z</time></trkpt><trkpt lat="45.0913837" lon="7.9641017"><ele>415.0</ele><time>2026-04-18T13:30:27.26Z</time></trkpt><trkpt lat="45.0914524" lon="7.9639874"><ele>412.0</ele><time>2026-04-18T13:30:28.259Z</time></trkpt><trkpt lat="45.0914881" lon="7.9638472"><ele>409.0</ele><time>2026-04-18T13:30:29.26Z</time></trkpt><trkpt lat="45.0914994" lon="7.9636795"><ele>406.0</ele><time>2026-04-18T13:30:30.259Z</time></trkpt><trkpt lat="45.0914689" lon="7.9634872"><ele>403.75</ele><time>2026-04-18T13:30:31.259Z</time></trkpt><trkpt lat="45.0914208" lon="7.9632815"><ele>401.5</ele><time>2026-04-18T13:30:32.26Z</time></trkpt><trkpt lat="45.091376" lon="7.9630739"><ele>399.25</ele><time>2026-04-18T13:30:33.259Z</time></trkpt><trkpt lat="45.0913305" lon="7.9628908"><ele>397.0</ele><time>2026-04-18T13:30:34.259Z</time></trkpt><trkpt lat="45.0912949" lon="7.962699"><ele>397.75</ele><time>2026-04-18T13:30:35.259Z</time></trkpt><trkpt lat="45.0912858" lon="7.9625051"><ele>398.5</ele><time>2026-04-18T13:30:36.259Z</time></trkpt><trkpt lat="45.0913175" lon="7.9623097"><ele>399.25</ele><time>2026-04-18T13:30:37.259Z</time></trkpt><trkpt lat="45.0913849" lon="7.9621201"><ele>400.0</ele><time>2026-04-18T13:30:38.26Z</time></trkpt><trkpt lat="45.0914843" lon="7.9619274"><ele>395.33333333333337</ele><time>2026-04-18T13:30:39.259Z</time></trkpt><trkpt lat="45.0915968" lon="7.961711"><ele>390.66666666666663</ele><time>2026-04-18T13:30:40.26Z</time></trkpt><trkpt lat="45.0917111" lon="7.9614831"><ele>386.0</ele><time>2026-04-18T13:30:41.259Z</time></trkpt><trkpt lat="45.0918293" lon="7.9612522"><ele>385.3333333333333</ele><time>2026-04-18T13:30:42.26Z</time></trkpt><trkpt lat="45.0919435" lon="7.9610179"><ele>384.66666666666663</ele><time>2026-04-18T13:30:43.259Z</time></trkpt><trkpt lat="45.0920571" lon="7.9607903"><ele>384.0</ele><time>2026-04-18T13:30:44.259Z</time></trkpt><trkpt lat="45.0921664" lon="7.9605605"><ele>384.0</ele><time>2026-04-18T13:30:45.259Z</time></trkpt><trkpt lat="45.092278" lon="7.9603418"><ele>384.0</ele><time>2026-04-18T13:30:46.26Z</time></trkpt><trkpt lat="45.0923865" lon="7.9601244"><ele>384.0</ele><time>2026-04-18T13:30:47.26Z</time></trkpt><trkpt lat="45.0924915" lon="7.9599134"><ele>382.3333333333333</ele><time>2026-04-18T13:30:48.26Z</time></trkpt><trkpt lat="45.0925971" lon="7.9597033"><ele>380.66666666666663</ele><time>2026-04-18T13:30:49.26Z</time></trkpt><trkpt lat="45.0926885" lon="7.9594816"><ele>379.0</ele><time>2026-04-18T13:30:50.259Z</time></trkpt><trkpt lat="45.0927532" lon="7.9592433"><ele>378.3333333333333</ele><time>2026-04-18T13:30:51.259Z</time></trkpt><trkpt lat="45.0927854" lon="7.9589928"><ele>377.6666666666667</ele><time>2026-04-18T13:30:52.259Z</time></trkpt><trkpt lat="45.0927999" lon="7.9587317"><ele>377.0</ele><time>2026-04-18T13:30:53.259Z</time></trkpt><trkpt lat="45.0928093" lon="7.958466"><ele>377.0</ele><time>2026-04-18T13:30:54.259Z</time></trkpt><trkpt lat="45.0928197" lon="7.9582076"><ele>377.0</ele><time>2026-04-18T13:30:55.259Z</time></trkpt><trkpt lat="45.0928212" lon="7.9579543"><ele>377.0</ele><time>2026-04-18T13:30:56.259Z</time></trkpt><trkpt lat="45.0928301" lon="7.9577181"><ele>377.5</ele><time>2026-04-18T13:30:57.26Z</time></trkpt><trkpt lat="45.0928441" lon="7.9575074"><ele>378.0</ele><time>2026-04-18T13:30:58.259Z</time></trkpt><trkpt lat="45.0928888" lon="7.9573175"><ele>378.5</ele><time>2026-04-18T13:30:59.26Z</time></trkpt><trkpt lat="45.0929594" lon="7.9571818"><ele>379.0</ele><time>2026-04-18T13:31:00.259Z</time></trkpt><trkpt lat="45.0930612" lon="7.9570661"><ele>379.0</ele><time>2026-04-18T13:31:01.259Z</time></trkpt><trkpt lat="45.0931845" lon="7.9569567"><ele>379.0</ele><time>2026-04-18T13:31:02.26Z</time></trkpt><trkpt lat="45.0933156" lon="7.9568407"><ele>379.0</ele><time>2026-04-18T13:31:03.26Z</time></trkpt><trkpt lat="45.0934582" lon="7.9567158"><ele>382.3333333333333</ele><time>2026-04-18T13:31:04.259Z</time></trkpt><trkpt lat="45.0935994" lon="7.9565984"><ele>385.66666666666663</ele><time>2026-04-18T13:31:05.26Z</time></trkpt><trkpt lat="45.0937419" lon="7.9564677"><ele>389.0</ele><time>2026-04-18T13:31:06.26Z</time></trkpt><trkpt lat="45.0938717" lon="7.9563237"><ele>389.0</ele><time>2026-04-18T13:31:07.259Z</time></trkpt><trkpt lat="45.0939987" lon="7.9561629"><ele>389.0</ele><time>2026-04-18T13:31:08.26Z</time></trkpt><trkpt lat="45.0941229" lon="7.9560134"><ele>389.0</ele><time>2026-04-18T13:31:09.259Z</time></trkpt><trkpt lat="45.0942459" lon="7.9558608"><ele>390.3333333333333</ele><time>2026-04-18T13:31:10.259Z</time></trkpt><trkpt lat="45.094364" lon="7.9557121"><ele>391.66666666666663</ele><time>2026-04-18T13:31:11.26Z</time></trkpt><trkpt lat="45.0944858" lon="7.9555649"><ele>393.0</ele><time>2026-04-18T13:31:12.259Z</time></trkpt><trkpt lat="45.0946041" lon="7.9554284"><ele>393.0</ele><time>2026-04-18T13:31:13.26Z</time></trkpt><trkpt lat="45.0947234" lon="7.9552873"><ele>393.0</ele><time>2026-04-18T13:31:14.26Z</time></trkpt><trkpt lat="45.0948403" lon="7.9551436"><ele>393.0</ele><time>2026-04-18T13:31:15.259Z</time></trkpt><trkpt lat="45.0949406" lon="7.9550018"><ele>393.5</ele><time>2026-04-18T13:31:16.259Z</time></trkpt><trkpt lat="45.0950382" lon="7.9548635"><ele>394.0</ele><time>2026-04-18T13:31:17.259Z</time></trkpt><trkpt lat="45.0951268" lon="7.9547213"><ele>394.5</ele><time>2026-04-18T13:31:18.259Z</time></trkpt><trkpt lat="45.0952043" lon="7.9545878"><ele>395.0</ele><time>2026-04-18T13:31:19.259Z</time></trkpt><trkpt lat="45.0952791" lon="7.9544579"><ele>395.0</ele><time>2026-04-18T13:31:20.259Z</time></trkpt><trkpt lat="45.0953399" lon="7.9543198"><ele>395.0</ele><time>2026-04-18T13:31:21.259Z</time></trkpt><trkpt lat="45.0953976" lon="7.9541819"><ele>395.0</ele><time>2026-04-18T13:31:22.259Z</time></trkpt><trkpt lat="45.0954285" lon="7.9540226"><ele>395.0</ele><time>2026-04-18T13:31:23.259Z</time></trkpt><trkpt lat="45.095451" lon="7.9538592"><ele>394.8</ele><time>2026-04-18T13:31:24.259Z</time></trkpt><trkpt lat="45.0954633" lon="7.9537007"><ele>394.6</ele><time>2026-04-18T13:31:25.259Z</time></trkpt><trkpt lat="45.0954585" lon="7.9535577"><ele>394.4</ele><time>2026-04-18T13:31:26.259Z</time></trkpt><trkpt lat="45.0954256" lon="7.9534336"><ele>394.2</ele><time>2026-04-18T13:31:27.259Z</time></trkpt><trkpt lat="45.0953839" lon="7.9533358"><ele>394.0</ele><time>2026-04-18T13:31:28.26Z</time></trkpt><trkpt lat="45.0953491" lon="7.9532466"><ele>394.00000000000006</ele><time>2026-04-18T13:31:29.259Z</time></trkpt><trkpt lat="45.0953063" lon="7.9531241"><ele>394.0</ele><time>2026-04-18T13:31:31.26Z</time></trkpt><trkpt lat="45.0953067" lon="7.9530322"><ele>394.0</ele><time>2026-04-18T13:31:33.26Z</time></trkpt><trkpt lat="45.0953611" lon="7.9529865"><ele>394.0</ele><time>2026-04-18T13:31:35.259Z</time></trkpt><trkpt lat="45.0954406" lon="7.9529439"><ele>394.00000000000006</ele><time>2026-04-18T13:31:36.259Z</time></trkpt><trkpt lat="45.0955179" lon="7.9528725"><ele>394.0</ele><time>2026-04-18T13:31:37.259Z</time></trkpt><trkpt lat="45.0955982" lon="7.9527643"><ele>394.0</ele><time>2026-04-18T13:31:38.259Z</time></trkpt><trkpt lat="45.0956768" lon="7.952661"><ele>394.0</ele><time>2026-04-18T13:31:39.26Z</time></trkpt><trkpt lat="45.0957591" lon="7.9525554"><ele>394.0</ele><time>2026-04-18T13:31:40.259Z</time></trkpt><trkpt lat="45.0958465" lon="7.9524403"><ele>394.0</ele><time>2026-04-18T13:31:41.259Z</time></trkpt><trkpt lat="45.0959518" lon="7.9523258"><ele>393.5</ele><time>2026-04-18T13:31:42.26Z</time></trkpt><trkpt lat="45.0960675" lon="7.9522297"><ele>393.0</ele><time>2026-04-18T13:31:43.26Z</time></trkpt><trkpt lat="45.096203" lon="7.9521682"><ele>392.5</ele><time>2026-04-18T13:31:44.259Z</time></trkpt><trkpt lat="45.0963341" lon="7.9521144"><ele>392.0</ele><time>2026-04-18T13:31:45.259Z</time></trkpt><trkpt lat="45.0964639" lon="7.9520498"><ele>393.0</ele><time>2026-04-18T13:31:46.259Z</time></trkpt><trkpt lat="45.0966037" lon="7.9519929"><ele>394.0</ele><time>2026-04-18T13:31:47.26Z</time></trkpt><trkpt lat="45.0967433" lon="7.951923"><ele>395.0</ele><time>2026-04-18T13:31:48.259Z</time></trkpt><trkpt lat="45.0968801" lon="7.9518241"><ele>396.0</ele><time>2026-04-18T13:31:49.259Z</time></trkpt><trkpt lat="45.0970103" lon="7.9517159"><ele>393.0</ele><time>2026-04-18T13:31:50.259Z</time></trkpt><trkpt lat="45.0971381" lon="7.9516045"><ele>390.0</ele><time>2026-04-18T13:31:51.259Z</time></trkpt><trkpt lat="45.0972576" lon="7.9514983"><ele>387.0</ele><time>2026-04-18T13:31:52.259Z</time></trkpt><trkpt lat="45.0973642" lon="7.9514132"><ele>384.0</ele><time>2026-04-18T13:31:53.259Z</time></trkpt><trkpt lat="45.0974518" lon="7.9513357"><ele>384.0</ele><time>2026-04-18T13:31:54.259Z</time></trkpt><trkpt lat="45.0975203" lon="7.9512683"><ele>384.0</ele><time>2026-04-18T13:31:55.26Z</time></trkpt><trkpt lat="45.0975725" lon="7.951169"><ele>384.0</ele><time>2026-04-18T13:31:56.259Z</time></trkpt><trkpt lat="45.0975991" lon="7.9510603"><ele>384.0</ele><time>2026-04-18T13:31:57.259Z</time></trkpt><trkpt lat="45.0975668" lon="7.9509749"><ele>384.0</ele><time>2026-04-18T13:31:58.259Z</time></trkpt><trkpt lat="45.0974373" lon="7.9509447"><ele>382.5</ele><time>2026-04-18T13:32:00.259Z</time></trkpt><trkpt lat="45.0973519" lon="7.9509988"><ele>381.0</ele><time>2026-04-18T13:32:01.259Z</time></trkpt><trkpt lat="45.0972608" lon="7.9510812"><ele>379.5</ele><time>2026-04-18T13:32:02.259Z</time></trkpt><trkpt lat="45.0971557" lon="7.9511714"><ele>378.0</ele><time>2026-04-18T13:32:03.259Z</time></trkpt><trkpt lat="45.0970355" lon="7.9512659"><ele>378.0</ele><time>2026-04-18T13:32:04.259Z</time></trkpt><trkpt lat="45.0969144" lon="7.9513463"><ele>378.0</ele><time>2026-04-18T13:32:05.259Z</time></trkpt><trkpt lat="45.0967951" lon="7.9514001"><ele>378.0</ele><time>2026-04-18T13:32:06.26Z</time></trkpt><trkpt lat="45.0966818" lon="7.9514511"><ele>378.0</ele><time>2026-04-18T13:32:07.259Z</time></trkpt><trkpt lat="45.096578" lon="7.9514681"><ele>377.1666666666667</ele><time>2026-04-18T13:32:08.26Z</time></trkpt><trkpt lat="45.0964903" lon="7.9514586"><ele>376.3333333333333</ele><time>2026-04-18T13:32:09.26Z</time></trkpt><trkpt lat="45.0964251" lon="7.9514029"><ele>375.5</ele><time>2026-04-18T13:32:10.259Z</time></trkpt><trkpt lat="45.0963873" lon="7.951312"><ele>374.66666666666663</ele><time>2026-04-18T13:32:11.259Z</time></trkpt><trkpt lat="45.0963848" lon="7.9512078"><ele>373.8333333333333</ele><time>2026-04-18T13:32:12.259Z</time></trkpt><trkpt lat="45.0964251" lon="7.951114"><ele>373.0</ele><time>2026-04-18T13:32:13.259Z</time></trkpt><trkpt lat="45.0965113" lon="7.9510359"><ele>374.25</ele><time>2026-04-18T13:32:14.26Z</time></trkpt><trkpt lat="45.0966225" lon="7.950981"><ele>375.5</ele><time>2026-04-18T13:32:15.259Z</time></trkpt><trkpt lat="45.0967451" lon="7.9509322"><ele>376.75</ele><time>2026-04-18T13:32:16.259Z</time></trkpt><trkpt lat="45.0968762" lon="7.9508623"><ele>378.0</ele><time>2026-04-18T13:32:17.26Z</time></trkpt><trkpt lat="45.0970125" lon="7.950764"><ele>373.0</ele><time>2026-04-18T13:32:18.259Z</time></trkpt><trkpt lat="45.0971358" lon="7.9506257"><ele>368.0</ele><time>2026-04-18T13:32:19.26Z</time></trkpt><trkpt lat="45.0972511" lon="7.9504625"><ele>363.0</ele><time>2026-04-18T13:32:20.259Z</time></trkpt><trkpt lat="45.0973639" lon="7.9502895"><ele>364.3333333333333</ele><time>2026-04-18T13:32:21.26Z</time></trkpt><trkpt lat="45.0974662" lon="7.9501077"><ele>365.66666666666663</ele><time>2026-04-18T13:32:22.26Z</time></trkpt><trkpt lat="45.0975566" lon="7.9499171"><ele>367.0</ele><time>2026-04-18T13:32:23.26Z</time></trkpt><trkpt lat="45.0976423" lon="7.9497344"><ele>364.0</ele><time>2026-04-18T13:32:24.259Z</time></trkpt><trkpt lat="45.0977337" lon="7.9495635"><ele>361.0</ele><time>2026-04-18T13:32:25.259Z</time></trkpt><trkpt lat="45.0978346" lon="7.949416"><ele>358.0</ele><time>2026-04-18T13:32:26.259Z</time></trkpt><trkpt lat="45.0979569" lon="7.9492986"><ele>355.0</ele><time>2026-04-18T13:32:27.259Z</time></trkpt><trkpt lat="45.098086" lon="7.9491949"><ele>353.66666666666663</ele><time>2026-04-18T13:32:28.26Z</time></trkpt><trkpt lat="45.0982169" lon="7.9490845"><ele>352.3333333333333</ele><time>2026-04-18T13:32:29.26Z</time></trkpt><trkpt lat="45.098349" lon="7.9489513"><ele>351.0</ele><time>2026-04-18T13:32:30.259Z</time></trkpt><trkpt lat="45.0984702" lon="7.9488016"><ele>351.0</ele><time>2026-04-18T13:32:31.26Z</time></trkpt><trkpt lat="45.0985895" lon="7.9486567"><ele>351.0</ele><time>2026-04-18T13:32:32.259Z</time></trkpt><trkpt lat="45.0987092" lon="7.9484917"><ele>351.0</ele><time>2026-04-18T13:32:33.259Z</time></trkpt><trkpt lat="45.0988259" lon="7.9483268"><ele>348.3333333333333</ele><time>2026-04-18T13:32:34.26Z</time></trkpt><trkpt lat="45.0989373" lon="7.9481678"><ele>345.66666666666663</ele><time>2026-04-18T13:32:35.26Z</time></trkpt><trkpt lat="45.0990425" lon="7.9480169"><ele>343.0</ele><time>2026-04-18T13:32:36.259Z</time></trkpt><trkpt lat="45.0991506" lon="7.9478772"><ele>343.0</ele><time>2026-04-18T13:32:37.259Z</time></trkpt><trkpt lat="45.0992713" lon="7.9477743"><ele>343.0</ele><time>2026-04-18T13:32:38.259Z</time></trkpt><trkpt lat="45.0994163" lon="7.947699"><ele>343.0</ele><time>2026-04-18T13:32:39.26Z</time></trkpt><trkpt lat="45.0995622" lon="7.9476299"><ele>343.0</ele><time>2026-04-18T13:32:40.259Z</time></trkpt><trkpt lat="45.0997092" lon="7.947568"><ele>340.3333333333333</ele><time>2026-04-18T13:32:41.259Z</time></trkpt><trkpt lat="45.099867" lon="7.947509"><ele>337.6666666666667</ele><time>2026-04-18T13:32:42.259Z</time></trkpt><trkpt lat="45.1000147" lon="7.9474461"><ele>335.0</ele><time>2026-04-18T13:32:43.259Z</time></trkpt><trkpt lat="45.1001577" lon="7.9473871"><ele>334.5</ele><time>2026-04-18T13:32:44.259Z</time></trkpt><trkpt lat="45.1002908" lon="7.9473298"><ele>334.0</ele><time>2026-04-18T13:32:45.259Z</time></trkpt><trkpt lat="45.1004111" lon="7.9472669"><ele>333.5</ele><time>2026-04-18T13:32:46.259Z</time></trkpt><trkpt lat="45.1005197" lon="7.9471973"><ele>333.0</ele><time>2026-04-18T13:32:47.259Z</time></trkpt><trkpt lat="45.1006075" lon="7.9471025"><ele>333.0</ele><time>2026-04-18T13:32:48.26Z</time></trkpt><trkpt lat="45.1006692" lon="7.9469504"><ele>333.0</ele><time>2026-04-18T13:32:49.259Z</time></trkpt><trkpt lat="45.1007058" lon="7.9467799"><ele>333.0</ele><time>2026-04-18T13:32:50.259Z</time></trkpt><trkpt lat="45.1006975" lon="7.9465922"><ele>333.0</ele><time>2026-04-18T13:32:51.259Z</time></trkpt><trkpt lat="45.1006512" lon="7.9463872"><ele>329.25</ele><time>2026-04-18T13:32:52.259Z</time></trkpt><trkpt lat="45.1005954" lon="7.9461929"><ele>325.5</ele><time>2026-04-18T13:32:53.259Z</time></trkpt><trkpt lat="45.1005435" lon="7.9459995"><ele>321.75</ele><time>2026-04-18T13:32:54.26Z</time></trkpt><trkpt lat="45.1004972" lon="7.9458152"><ele>318.0</ele><time>2026-04-18T13:32:55.26Z</time></trkpt><trkpt lat="45.1004777" lon="7.9456251"><ele>315.25</ele><time>2026-04-18T13:32:56.26Z</time></trkpt><trkpt lat="45.1004852" lon="7.9454264"><ele>312.5</ele><time>2026-04-18T13:32:57.259Z</time></trkpt><trkpt lat="45.1005282" lon="7.9452287"><ele>309.75</ele><time>2026-04-18T13:32:58.259Z</time></trkpt><trkpt lat="45.1005928" lon="7.9450282"><ele>307.0</ele><time>2026-04-18T13:32:59.259Z</time></trkpt><trkpt lat="45.1006619" lon="7.9448309"><ele>306.0</ele><time>2026-04-18T13:33:00.26Z</time></trkpt><trkpt lat="45.1007399" lon="7.9446332"><ele>305.0</ele><time>2026-04-18T13:33:01.259Z</time></trkpt><trkpt lat="45.100817" lon="7.9444558"><ele>304.0</ele><time>2026-04-18T13:33:02.26Z</time></trkpt><trkpt lat="45.1008968" lon="7.9443006"><ele>303.0</ele><time>2026-04-18T13:33:03.259Z</time></trkpt><trkpt lat="45.1009983" lon="7.9442367"><ele>304.0</ele><time>2026-04-18T13:33:04.26Z</time></trkpt><trkpt lat="45.1011024" lon="7.9442108"><ele>305.0</ele><time>2026-04-18T13:33:05.259Z</time></trkpt><trkpt lat="45.1012039" lon="7.9442068"><ele>306.0</ele><time>2026-04-18T13:33:06.26Z</time></trkpt><trkpt lat="45.1012862" lon="7.94417"><ele>307.0</ele><time>2026-04-18T13:33:07.26Z</time></trkpt><trkpt lat="45.1013469" lon="7.9441133"><ele>308.0</ele><time>2026-04-18T13:33:08.259Z</time></trkpt><trkpt lat="45.1013737" lon="7.9440051"><ele>309.0</ele><time>2026-04-18T13:33:09.259Z</time></trkpt><trkpt lat="45.1013567" lon="7.9439011"><ele>309.0</ele><time>2026-04-18T13:33:10.259Z</time></trkpt><trkpt lat="45.1013037" lon="7.943814"><ele>309.0</ele><time>2026-04-18T13:33:11.26Z</time></trkpt><trkpt lat="45.1012174" lon="7.9437828"><ele>309.0</ele><time>2026-04-18T13:33:12.259Z</time></trkpt><trkpt lat="45.1011264" lon="7.9438036"><ele>309.0</ele><time>2026-04-18T13:33:13.259Z</time></trkpt><trkpt lat="45.10101" lon="7.9438472"><ele>309.0</ele><time>2026-04-18T13:33:14.259Z</time></trkpt><trkpt lat="45.100892" lon="7.9439261"><ele>309.0</ele><time>2026-04-18T13:33:15.259Z</time></trkpt><trkpt lat="45.1007805" lon="7.9440447"><ele>309.0</ele><time>2026-04-18T13:33:16.259Z</time></trkpt><trkpt lat="45.1006557" lon="7.944181"><ele>309.0</ele><time>2026-04-18T13:33:17.259Z</time></trkpt><trkpt lat="45.1005421" lon="7.9443157"><ele>309.0</ele><time>2026-04-18T13:33:18.26Z</time></trkpt><trkpt lat="45.1004235" lon="7.9444584"><ele>307.5</ele><time>2026-04-18T13:33:19.26Z</time></trkpt><trkpt lat="45.1003193" lon="7.9445879"><ele>306.0</ele><time>2026-04-18T13:33:20.259Z</time></trkpt><trkpt lat="45.1002181" lon="7.9447241"><ele>304.5</ele><time>2026-04-18T13:33:21.259Z</time></trkpt><trkpt lat="45.1001307" lon="7.9448453"><ele>303.0</ele><time>2026-04-18T13:33:22.259Z</time></trkpt><trkpt lat="45.1000646" lon="7.9449856"><ele>304.0</ele><time>2026-04-18T13:33:23.26Z</time></trkpt><trkpt lat="45.1000246" lon="7.9451477"><ele>305.0</ele><time>2026-04-18T13:33:24.259Z</time></trkpt><trkpt lat="45.1000008" lon="7.9453231"><ele>306.0</ele><time>2026-04-18T13:33:25.259Z</time></trkpt><trkpt lat="45.100002" lon="7.9455033"><ele>307.0</ele><time>2026-04-18T13:33:26.26Z</time></trkpt><trkpt lat="45.0999875" lon="7.9456547"><ele>307.0</ele><time>2026-04-18T13:33:27.26Z</time></trkpt><trkpt lat="45.0999597" lon="7.9457841"><ele>307.0</ele><time>2026-04-18T13:33:28.259Z</time></trkpt><trkpt lat="45.0999118" lon="7.9458771"><ele>307.0</ele><time>2026-04-18T13:33:29.259Z</time></trkpt><trkpt lat="45.0998485" lon="7.9459221"><ele>307.0</ele><time>2026-04-18T13:33:30.259Z</time></trkpt><trkpt lat="45.0997728" lon="7.9458925"><ele>307.0</ele><time>2026-04-18T13:33:31.259Z</time></trkpt><trkpt lat="45.0997335" lon="7.9458071"><ele>307.0</ele><time>2026-04-18T13:33:32.26Z</time></trkpt><trkpt lat="45.0997323" lon="7.9457001"><ele>306.8</ele><time>2026-04-18T13:33:33.259Z</time></trkpt><trkpt lat="45.0997777" lon="7.9455915"><ele>306.6</ele><time>2026-04-18T13:33:34.26Z</time></trkpt><trkpt lat="45.0998355" lon="7.9454765"><ele>306.40000000000003</ele><time>2026-04-18T13:33:35.259Z</time></trkpt><trkpt lat="45.0998694" lon="7.9453422"><ele>306.2</ele><time>2026-04-18T13:33:36.259Z</time></trkpt><trkpt lat="45.0998715" lon="7.9451915"><ele>306.0</ele><time>2026-04-18T13:33:37.259Z</time></trkpt><trkpt lat="45.0998385" lon="7.9450403"><ele>302.0</ele><time>2026-04-18T13:33:38.259Z</time></trkpt><trkpt lat="45.0998102" lon="7.9448809"><ele>298.0</ele><time>2026-04-18T13:33:39.259Z</time></trkpt><trkpt lat="45.0997961" lon="7.9447183"><ele>294.0</ele><time>2026-04-18T13:33:40.259Z</time></trkpt><trkpt lat="45.0998262" lon="7.9445372"><ele>290.0</ele><time>2026-04-18T13:33:41.259Z</time></trkpt><trkpt lat="45.0998777" lon="7.9443545"><ele>292.6666666666667</ele><time>2026-04-18T13:33:42.259Z</time></trkpt><trkpt lat="45.0999351" lon="7.9441726"><ele>295.3333333333333</ele><time>2026-04-18T13:33:43.26Z</time></trkpt><trkpt lat="45.0999952" lon="7.9439749"><ele>298.0</ele><time>2026-04-18T13:33:44.259Z</time></trkpt><trkpt lat="45.1000674" lon="7.9437663"><ele>298.0</ele><time>2026-04-18T13:33:45.259Z</time></trkpt><trkpt lat="45.1001372" lon="7.9435585"><ele>298.0</ele><time>2026-04-18T13:33:46.259Z</time></trkpt><trkpt lat="45.1002103" lon="7.943344"><ele>298.0</ele><time>2026-04-18T13:33:47.259Z</time></trkpt><trkpt lat="45.1002844" lon="7.9431292"><ele>295.66666666666663</ele><time>2026-04-18T13:33:48.26Z</time></trkpt><trkpt lat="45.1003563" lon="7.942916"><ele>293.3333333333333</ele><time>2026-04-18T13:33:49.26Z</time></trkpt><trkpt lat="45.100429" lon="7.942701"><ele>291.0</ele><time>2026-04-18T13:33:50.259Z</time></trkpt><trkpt lat="45.1005033" lon="7.9424926"><ele>287.6666666666667</ele><time>2026-04-18T13:33:51.259Z</time></trkpt><trkpt lat="45.1005804" lon="7.942287"><ele>284.33333333333337</ele><time>2026-04-18T13:33:52.259Z</time></trkpt><trkpt lat="45.1006605" lon="7.942082"><ele>281.0</ele><time>2026-04-18T13:33:53.259Z</time></trkpt><trkpt lat="45.100735" lon="7.9418959"><ele>282.0</ele><time>2026-04-18T13:33:54.259Z</time></trkpt><trkpt lat="45.1008171" lon="7.9417338"><ele>283.0</ele><time>2026-04-18T13:33:55.259Z</time></trkpt><trkpt lat="45.1009128" lon="7.9415944"><ele>284.0</ele><time>2026-04-18T13:33:56.259Z</time></trkpt><trkpt lat="45.1010208" lon="7.941496"><ele>285.0</ele><time>2026-04-18T13:33:57.259Z</time></trkpt><trkpt lat="45.1011156" lon="7.9414458"><ele>285.0</ele><time>2026-04-18T13:33:58.259Z</time></trkpt><trkpt lat="45.1012279" lon="7.9414716"><ele>285.0</ele><time>2026-04-18T13:33:59.259Z</time></trkpt><trkpt lat="45.1013264" lon="7.9415016"><ele>285.0</ele><time>2026-04-18T13:34:00.26Z</time></trkpt><trkpt lat="45.1014195" lon="7.9414966"><ele>285.0</ele><time>2026-04-18T13:34:01.259Z</time></trkpt><trkpt lat="45.1014992" lon="7.9414493"><ele>285.0</ele><time>2026-04-18T13:34:02.259Z</time></trkpt><trkpt lat="45.1015627" lon="7.9413487"><ele>285.75</ele><time>2026-04-18T13:34:03.259Z</time></trkpt><trkpt lat="45.1016199" lon="7.9412143"><ele>286.5</ele><time>2026-04-18T13:34:04.26Z</time></trkpt><trkpt lat="45.1016648" lon="7.9410353"><ele>287.25</ele><time>2026-04-18T13:34:05.259Z</time></trkpt><trkpt lat="45.1017134" lon="7.9408554"><ele>288.0</ele><time>2026-04-18T13:34:06.259Z</time></trkpt><trkpt lat="45.1017643" lon="7.9406809"><ele>284.75</ele><time>2026-04-18T13:34:07.259Z</time></trkpt><trkpt lat="45.1018173" lon="7.9405376"><ele>281.5</ele><time>2026-04-18T13:34:08.259Z</time></trkpt><trkpt lat="45.1018957" lon="7.9404079"><ele>278.25</ele><time>2026-04-18T13:34:09.259Z</time></trkpt><trkpt lat="45.1020208" lon="7.9403318"><ele>275.0</ele><time>2026-04-18T13:34:10.26Z</time></trkpt><trkpt lat="45.1021656" lon="7.9402807"><ele>275.0</ele><time>2026-04-18T13:34:11.259Z</time></trkpt><trkpt lat="45.1023091" lon="7.9402408"><ele>275.0</ele><time>2026-04-18T13:34:12.259Z</time></trkpt><trkpt lat="45.1024621" lon="7.9401985"><ele>275.0</ele><time>2026-04-18T13:34:13.26Z</time></trkpt><trkpt lat="45.1026102" lon="7.9401473"><ele>275.75</ele><time>2026-04-18T13:34:14.259Z</time></trkpt><trkpt lat="45.1027406" lon="7.9400986"><ele>276.5</ele><time>2026-04-18T13:34:15.259Z</time></trkpt><trkpt lat="45.1028625" lon="7.9400793"><ele>277.25</ele><time>2026-04-18T13:34:16.26Z</time></trkpt><trkpt lat="45.1029769" lon="7.9401214"><ele>278.0</ele><time>2026-04-18T13:34:17.259Z</time></trkpt><trkpt lat="45.1030621" lon="7.9402092"><ele>278.0</ele><time>2026-04-18T13:34:18.26Z</time></trkpt><trkpt lat="45.1031513" lon="7.9403191"><ele>278.0</ele><time>2026-04-18T13:34:19.26Z</time></trkpt><trkpt lat="45.1032471" lon="7.9404007"><ele>278.0</ele><time>2026-04-18T13:34:20.259Z</time></trkpt><trkpt lat="45.1033678" lon="7.9404312"><ele>278.0</ele><time>2026-04-18T13:34:21.259Z</time></trkpt><trkpt lat="45.1034903" lon="7.9404139"><ele>276.75</ele><time>2026-04-18T13:34:22.259Z</time></trkpt><trkpt lat="45.1036272" lon="7.9403642"><ele>275.5</ele><time>2026-04-18T13:34:23.259Z</time></trkpt><trkpt lat="45.1037595" lon="7.9403064"><ele>274.25</ele><time>2026-04-18T13:34:24.26Z</time></trkpt><trkpt lat="45.1038953" lon="7.9402771"><ele>273.0</ele><time>2026-04-18T13:34:25.259Z</time></trkpt><trkpt lat="45.1040258" lon="7.9402653"><ele>270.25</ele><time>2026-04-18T13:34:26.259Z</time></trkpt><trkpt lat="45.1041574" lon="7.9402948"><ele>267.5</ele><time>2026-04-18T13:34:27.26Z</time></trkpt><trkpt lat="45.1042894" lon="7.9403671"><ele>264.75</ele><time>2026-04-18T13:34:28.259Z</time></trkpt><trkpt lat="45.1044112" lon="7.9404527"><ele>262.0</ele><time>2026-04-18T13:34:29.26Z</time></trkpt><trkpt lat="45.1045308" lon="7.9405381"><ele>262.0</ele><time>2026-04-18T13:34:30.259Z</time></trkpt><trkpt lat="45.1046402" lon="7.9406219"><ele>262.0</ele><time>2026-04-18T13:34:31.26Z</time></trkpt><trkpt lat="45.1047709" lon="7.9406922"><ele>262.0</ele><time>2026-04-18T13:34:32.259Z</time></trkpt><trkpt lat="45.1049039" lon="7.9407605"><ele>262.0</ele><time>2026-04-18T13:34:33.259Z</time></trkpt><trkpt lat="45.105055" lon="7.9408165"><ele>259.66666666666663</ele><time>2026-04-18T13:34:34.259Z</time></trkpt><trkpt lat="45.1052227" lon="7.9408723"><ele>257.3333333333333</ele><time>2026-04-18T13:34:35.26Z</time></trkpt><trkpt lat="45.1053851" lon="7.940939"><ele>255.0</ele><time>2026-04-18T13:34:36.259Z</time></trkpt><trkpt lat="45.1055629" lon="7.9410065"><ele>255.0</ele><time>2026-04-18T13:34:37.26Z</time></trkpt><trkpt lat="45.1057324" lon="7.9410682"><ele>255.0</ele><time>2026-04-18T13:34:38.259Z</time></trkpt><trkpt lat="45.1059009" lon="7.9411245"><ele>255.0</ele><time>2026-04-18T13:34:39.259Z</time></trkpt><trkpt lat="45.1060662" lon="7.9411802"><ele>251.66666666666669</ele><time>2026-04-18T13:34:40.26Z</time></trkpt><trkpt lat="45.1062258" lon="7.9412372"><ele>248.33333333333334</ele><time>2026-04-18T13:34:41.259Z</time></trkpt><trkpt lat="45.1063921" lon="7.9413021"><ele>245.0</ele><time>2026-04-18T13:34:42.259Z</time></trkpt><trkpt lat="45.106545" lon="7.9413728"><ele>244.0</ele><time>2026-04-18T13:34:43.259Z</time></trkpt><trkpt lat="45.1066842" lon="7.9414477"><ele>243.0</ele><time>2026-04-18T13:34:44.26Z</time></trkpt><trkpt lat="45.1068288" lon="7.9415324"><ele>242.0</ele><time>2026-04-18T13:34:45.259Z</time></trkpt><trkpt lat="45.106967" lon="7.9416127"><ele>242.0</ele><time>2026-04-18T13:34:46.259Z</time></trkpt><trkpt lat="45.1071029" lon="7.941694"><ele>242.0</ele><time>2026-04-18T13:34:47.26Z</time></trkpt><trkpt lat="45.1072415" lon="7.9417776"><ele>242.0</ele><time>2026-04-18T13:34:48.26Z</time></trkpt><trkpt lat="45.1073738" lon="7.9418383"><ele>242.0</ele><time>2026-04-18T13:34:49.259Z</time></trkpt><trkpt lat="45.1075005" lon="7.9418902"><ele>240.33333333333334</ele><time>2026-04-18T13:34:50.26Z</time></trkpt><trkpt lat="45.1076449" lon="7.9418725"><ele>238.66666666666669</ele><time>2026-04-18T13:34:51.259Z</time></trkpt><trkpt lat="45.107796" lon="7.9418219"><ele>237.0</ele><time>2026-04-18T13:34:52.259Z</time></trkpt><trkpt lat="45.1079456" lon="7.9417495"><ele>238.33333333333331</ele><time>2026-04-18T13:34:53.259Z</time></trkpt><trkpt lat="45.1081014" lon="7.9416554"><ele>239.66666666666666</ele><time>2026-04-18T13:34:54.259Z</time></trkpt><trkpt lat="45.1082633" lon="7.9415647"><ele>241.0</ele><time>2026-04-18T13:34:55.259Z</time></trkpt><trkpt lat="45.1084234" lon="7.9414772"><ele>241.0</ele><time>2026-04-18T13:34:56.259Z</time></trkpt><trkpt lat="45.1085815" lon="7.9413971"><ele>241.0</ele><time>2026-04-18T13:34:57.259Z</time></trkpt><trkpt lat="45.1087409" lon="7.9413418"><ele>241.0</ele><time>2026-04-18T13:34:58.259Z</time></trkpt><trkpt lat="45.1089009" lon="7.9413303"><ele>241.0</ele><time>2026-04-18T13:34:59.259Z</time></trkpt><trkpt lat="45.1090715" lon="7.941345"><ele>241.0</ele><time>2026-04-18T13:35:00.259Z</time></trkpt><trkpt lat="45.1092509" lon="7.9413684"><ele>241.0</ele><time>2026-04-18T13:35:01.259Z</time></trkpt><trkpt lat="45.109429" lon="7.9414061"><ele>240.33333333333331</ele><time>2026-04-18T13:35:02.259Z</time></trkpt><trkpt lat="45.1096067" lon="7.9414318"><ele>239.66666666666669</ele><time>2026-04-18T13:35:03.259Z</time></trkpt><trkpt lat="45.1097889" lon="7.9414538"><ele>239.0</ele><time>2026-04-18T13:35:04.259Z</time></trkpt><trkpt lat="45.1099643" lon="7.9414776"><ele>238.66666666666669</ele><time>2026-04-18T13:35:05.259Z</time></trkpt><trkpt lat="45.1101435" lon="7.9415076"><ele>238.33333333333331</ele><time>2026-04-18T13:35:06.259Z</time></trkpt><trkpt lat="45.110318" lon="7.9415305"><ele>238.0</ele><time>2026-04-18T13:35:07.26Z</time></trkpt><trkpt lat="45.1104915" lon="7.9415677"><ele>238.0</ele><time>2026-04-18T13:35:08.259Z</time></trkpt><trkpt lat="45.1106604" lon="7.9416222"><ele>238.0</ele><time>2026-04-18T13:35:09.259Z</time></trkpt><trkpt lat="45.1108246" lon="7.9416917"><ele>238.0</ele><time>2026-04-18T13:35:10.259Z</time></trkpt><trkpt lat="45.1109802" lon="7.9417577"><ele>236.0</ele><time>2026-04-18T13:35:11.259Z</time></trkpt><trkpt lat="45.1111302" lon="7.9418176"><ele>234.0</ele><time>2026-04-18T13:35:12.259Z</time></trkpt><trkpt lat="45.1112812" lon="7.9418612"><ele>232.0</ele><time>2026-04-18T13:35:13.259Z</time></trkpt><trkpt lat="45.1114324" lon="7.9418705"><ele>232.25</ele><time>2026-04-18T13:35:14.259Z</time></trkpt><trkpt lat="45.1115863" lon="7.9418516"><ele>232.5</ele><time>2026-04-18T13:35:15.26Z</time></trkpt><trkpt lat="45.1117364" lon="7.9418164"><ele>232.75</ele><time>2026-04-18T13:35:16.259Z</time></trkpt><trkpt lat="45.1118744" lon="7.9417849"><ele>233.0</ele><time>2026-04-18T13:35:17.259Z</time></trkpt><trkpt lat="45.1120076" lon="7.9417591"><ele>233.0</ele><time>2026-04-18T13:35:18.259Z</time></trkpt><trkpt lat="45.1121215" lon="7.9417606"><ele>233.0</ele><time>2026-04-18T13:35:19.259Z</time></trkpt><trkpt lat="45.1122306" lon="7.9418047"><ele>233.0</ele><time>2026-04-18T13:35:20.26Z</time></trkpt><trkpt lat="45.1123205" lon="7.9418916"><ele>233.0</ele><time>2026-04-18T13:35:21.26Z</time></trkpt><trkpt lat="45.1124053" lon="7.9419928"><ele>233.0</ele><time>2026-04-18T13:35:22.259Z</time></trkpt><trkpt lat="45.1125185" lon="7.9420687"><ele>233.5</ele><time>2026-04-18T13:35:23.259Z</time></trkpt><trkpt lat="45.1126549" lon="7.9420993"><ele>234.0</ele><time>2026-04-18T13:35:24.26Z</time></trkpt><trkpt lat="45.1128019" lon="7.9420915"><ele>234.5</ele><time>2026-04-18T13:35:25.26Z</time></trkpt><trkpt lat="45.1129534" lon="7.9420582"><ele>235.0</ele><time>2026-04-18T13:35:26.259Z</time></trkpt><trkpt lat="45.1131126" lon="7.9420211"><ele>233.66666666666666</ele><time>2026-04-18T13:35:27.26Z</time></trkpt><trkpt lat="45.1132747" lon="7.9419932"><ele>232.33333333333331</ele><time>2026-04-18T13:35:28.259Z</time></trkpt><trkpt lat="45.1134323" lon="7.9419642"><ele>231.0</ele><time>2026-04-18T13:35:29.26Z</time></trkpt><trkpt lat="45.1136038" lon="7.9419461"><ele>231.0</ele><time>2026-04-18T13:35:30.259Z</time></trkpt><trkpt lat="45.1137699" lon="7.9419251"><ele>231.0</ele><time>2026-04-18T13:35:31.259Z</time></trkpt><trkpt lat="45.1139354" lon="7.9419052"><ele>231.0</ele><time>2026-04-18T13:35:32.259Z</time></trkpt><trkpt lat="45.1141056" lon="7.9418731"><ele>231.33333333333331</ele><time>2026-04-18T13:35:33.26Z</time></trkpt><trkpt lat="45.1142707" lon="7.9418318"><ele>231.66666666666666</ele><time>2026-04-18T13:35:34.259Z</time></trkpt><trkpt lat="45.1144418" lon="7.9417639"><ele>232.0</ele><time>2026-04-18T13:35:35.259Z</time></trkpt><trkpt lat="45.1146101" lon="7.941688"><ele>233.33333333333331</ele><time>2026-04-18T13:35:36.259Z</time></trkpt><trkpt lat="45.1147728" lon="7.9416202"><ele>234.66666666666669</ele><time>2026-04-18T13:35:37.259Z</time></trkpt><trkpt lat="45.1149381" lon="7.9415633"><ele>236.0</ele><time>2026-04-18T13:35:38.26Z</time></trkpt><trkpt lat="45.1151018" lon="7.9415029"><ele>236.0</ele><time>2026-04-18T13:35:39.259Z</time></trkpt><trkpt lat="45.1152614" lon="7.9414513"><ele>236.0</ele><time>2026-04-18T13:35:40.26Z</time></trkpt><trkpt lat="45.115418" lon="7.9414017"><ele>236.0</ele><time>2026-04-18T13:35:41.259Z</time></trkpt><trkpt lat="45.115571" lon="7.9413507"><ele>236.0</ele><time>2026-04-18T13:35:42.259Z</time></trkpt><trkpt lat="45.1157197" lon="7.941303"><ele>236.0</ele><time>2026-04-18T13:35:43.26Z</time></trkpt><trkpt lat="45.1158583" lon="7.9412581"><ele>236.0</ele><time>2026-04-18T13:35:44.26Z</time></trkpt><trkpt lat="45.1159961" lon="7.941232"><ele>236.0</ele><time>2026-04-18T13:35:45.26Z</time></trkpt><trkpt lat="45.1161268" lon="7.9412364"><ele>234.5</ele><time>2026-04-18T13:35:46.259Z</time></trkpt><trkpt lat="45.1162534" lon="7.9412798"><ele>233.0</ele><time>2026-04-18T13:35:47.259Z</time></trkpt><trkpt lat="45.1163782" lon="7.9413812"><ele>231.5</ele><time>2026-04-18T13:35:48.259Z</time></trkpt><trkpt lat="45.1165068" lon="7.9414869"><ele>230.0</ele><time>2026-04-18T13:35:49.259Z</time></trkpt><trkpt lat="45.1166435" lon="7.9415859"><ele>229.75</ele><time>2026-04-18T13:35:50.259Z</time></trkpt><trkpt lat="45.1167789" lon="7.9416635"><ele>229.5</ele><time>2026-04-18T13:35:51.259Z</time></trkpt><trkpt lat="45.1169196" lon="7.9417129"><ele>229.25</ele><time>2026-04-18T13:35:52.26Z</time></trkpt><trkpt lat="45.1170735" lon="7.94172"><ele>229.0</ele><time>2026-04-18T13:35:53.259Z</time></trkpt><trkpt lat="45.1172381" lon="7.9416946"><ele>228.0</ele><time>2026-04-18T13:35:54.259Z</time></trkpt><trkpt lat="45.1174134" lon="7.941653"><ele>227.0</ele><time>2026-04-18T13:35:55.26Z</time></trkpt><trkpt lat="45.1175915" lon="7.9416117"><ele>226.0</ele><time>2026-04-18T13:35:56.259Z</time></trkpt><trkpt lat="45.1177684" lon="7.9415714"><ele>226.0</ele><time>2026-04-18T13:35:57.259Z</time></trkpt><trkpt lat="45.1179443" lon="7.9415392"><ele>226.0</ele><time>2026-04-18T13:35:58.259Z</time></trkpt><trkpt lat="45.1181128" lon="7.9415061"><ele>226.0</ele><time>2026-04-18T13:35:59.26Z</time></trkpt><trkpt lat="45.1182808" lon="7.9414698"><ele>225.0</ele><time>2026-04-18T13:36:00.26Z</time></trkpt><trkpt lat="45.118447" lon="7.9414431"><ele>224.0</ele><time>2026-04-18T13:36:01.259Z</time></trkpt><trkpt lat="45.1186005" lon="7.941395"><ele>223.0</ele><time>2026-04-18T13:36:02.259Z</time></trkpt><trkpt lat="45.1187537" lon="7.9413316"><ele>223.0</ele><time>2026-04-18T13:36:03.259Z</time></trkpt><trkpt lat="45.1189022" lon="7.9412623"><ele>223.0</ele><time>2026-04-18T13:36:04.259Z</time></trkpt><trkpt lat="45.1190561" lon="7.9411772"><ele>223.0</ele><time>2026-04-18T13:36:05.26Z</time></trkpt><trkpt lat="45.119209" lon="7.9410825"><ele>223.33333333333331</ele><time>2026-04-18T13:36:06.26Z</time></trkpt><trkpt lat="45.119361" lon="7.9409773"><ele>223.66666666666669</ele><time>2026-04-18T13:36:07.26Z</time></trkpt><trkpt lat="45.1195064" lon="7.9408546"><ele>224.0</ele><time>2026-04-18T13:36:08.259Z</time></trkpt><trkpt lat="45.1196387" lon="7.9407248"><ele>224.0</ele><time>2026-04-18T13:36:09.26Z</time></trkpt><trkpt lat="45.1197686" lon="7.940593"><ele>224.0</ele><time>2026-04-18T13:36:10.259Z</time></trkpt><trkpt lat="45.119897" lon="7.9404535"><ele>224.0</ele><time>2026-04-18T13:36:11.259Z</time></trkpt><trkpt lat="45.1200249" lon="7.9403238"><ele>221.66666666666669</ele><time>2026-04-18T13:36:12.259Z</time></trkpt><trkpt lat="45.120163" lon="7.9402224"><ele>219.33333333333331</ele><time>2026-04-18T13:36:13.259Z</time></trkpt><trkpt lat="45.1203153" lon="7.9401454"><ele>217.0</ele><time>2026-04-18T13:36:14.259Z</time></trkpt><trkpt lat="45.120466" lon="7.9400809"><ele>216.66666666666666</ele><time>2026-04-18T13:36:15.259Z</time></trkpt><trkpt lat="45.1206231" lon="7.9400249"><ele>216.33333333333331</ele><time>2026-04-18T13:36:16.259Z</time></trkpt><trkpt lat="45.1207836" lon="7.9400096"><ele>216.0</ele><time>2026-04-18T13:36:17.259Z</time></trkpt><trkpt lat="45.1209466" lon="7.9400295"><ele>215.66666666666669</ele><time>2026-04-18T13:36:18.259Z</time></trkpt><trkpt lat="45.1211106" lon="7.940091"><ele>215.33333333333334</ele><time>2026-04-18T13:36:19.259Z</time></trkpt><trkpt lat="45.1212695" lon="7.9401673"><ele>215.0</ele><time>2026-04-18T13:36:20.26Z</time></trkpt><trkpt lat="45.1214373" lon="7.9402588"><ele>214.66666666666669</ele><time>2026-04-18T13:36:21.26Z</time></trkpt><trkpt lat="45.1215943" lon="7.9403446"><ele>214.33333333333331</ele><time>2026-04-18T13:36:22.259Z</time></trkpt><trkpt lat="45.1217426" lon="7.9404371"><ele>214.0</ele><time>2026-04-18T13:36:23.259Z</time></trkpt><trkpt lat="45.1218854" lon="7.940542"><ele>214.0</ele><time>2026-04-18T13:36:24.26Z</time></trkpt><trkpt lat="45.1220206" lon="7.9406605"><ele>214.0</ele><time>2026-04-18T13:36:25.259Z</time></trkpt><trkpt lat="45.1221548" lon="7.9407892"><ele>214.0</ele><time>2026-04-18T13:36:26.259Z</time></trkpt><trkpt lat="45.1222949" lon="7.9409193"><ele>213.0</ele><time>2026-04-18T13:36:27.259Z</time></trkpt><trkpt lat="45.1224309" lon="7.9410432"><ele>212.0</ele><time>2026-04-18T13:36:28.259Z</time></trkpt><trkpt lat="45.1225722" lon="7.9411595"><ele>211.0</ele><time>2026-04-18T13:36:29.26Z</time></trkpt><trkpt lat="45.1227248" lon="7.9412671"><ele>211.0</ele><time>2026-04-18T13:36:30.259Z</time></trkpt><trkpt lat="45.1228821" lon="7.9413708"><ele>211.0</ele><time>2026-04-18T13:36:31.26Z</time></trkpt><trkpt lat="45.1230322" lon="7.9414699"><ele>211.0</ele><time>2026-04-18T13:36:32.26Z</time></trkpt><trkpt lat="45.1231779" lon="7.941572"><ele>210.66666666666666</ele><time>2026-04-18T13:36:33.259Z</time></trkpt><trkpt lat="45.1233215" lon="7.9416729"><ele>210.33333333333331</ele><time>2026-04-18T13:36:34.259Z</time></trkpt><trkpt lat="45.1234599" lon="7.9417885"><ele>210.0</ele><time>2026-04-18T13:36:35.259Z</time></trkpt><trkpt lat="45.1235932" lon="7.9419171"><ele>210.0</ele><time>2026-04-18T13:36:36.259Z</time></trkpt><trkpt lat="45.1237241" lon="7.9420535"><ele>210.0</ele><time>2026-04-18T13:36:37.259Z</time></trkpt><trkpt lat="45.1238559" lon="7.9421975"><ele>210.0</ele><time>2026-04-18T13:36:38.26Z</time></trkpt><trkpt lat="45.1239774" lon="7.9423385"><ele>209.33333333333331</ele><time>2026-04-18T13:36:39.259Z</time></trkpt><trkpt lat="45.1241164" lon="7.9424808"><ele>208.66666666666666</ele><time>2026-04-18T13:36:40.259Z</time></trkpt><trkpt lat="45.124256" lon="7.9426216"><ele>208.0</ele><time>2026-04-18T13:36:41.259Z</time></trkpt><trkpt lat="45.1244018" lon="7.9427645"><ele>208.0</ele><time>2026-04-18T13:36:42.26Z</time></trkpt><trkpt lat="45.1245409" lon="7.9429001"><ele>208.0</ele><time>2026-04-18T13:36:43.259Z</time></trkpt><trkpt lat="45.124683" lon="7.9430293"><ele>208.0</ele><time>2026-04-18T13:36:44.259Z</time></trkpt><trkpt lat="45.1248258" lon="7.9431476"><ele>208.0</ele><time>2026-04-18T13:36:45.259Z</time></trkpt><trkpt lat="45.1249706" lon="7.9432429"><ele>208.0</ele><time>2026-04-18T13:36:46.26Z</time></trkpt><trkpt lat="45.1251251" lon="7.943323"><ele>208.0</ele><time>2026-04-18T13:36:47.259Z</time></trkpt><trkpt lat="45.1252788" lon="7.9433849"><ele>208.0</ele><time>2026-04-18T13:36:48.259Z</time></trkpt><trkpt lat="45.1254345" lon="7.9434319"><ele>208.0</ele><time>2026-04-18T13:36:49.259Z</time></trkpt><trkpt lat="45.1255892" lon="7.9434647"><ele>208.0</ele><time>2026-04-18T13:36:50.259Z</time></trkpt><trkpt lat="45.1257333" lon="7.9434884"><ele>207.75</ele><time>2026-04-18T13:36:51.259Z</time></trkpt><trkpt lat="45.125869" lon="7.9435056"><ele>207.5</ele><time>2026-04-18T13:36:52.259Z</time></trkpt><trkpt lat="45.1259981" lon="7.9435194"><ele>207.25</ele><time>2026-04-18T13:36:53.259Z</time></trkpt><trkpt lat="45.1261208" lon="7.9435361"><ele>207.0</ele><time>2026-04-18T13:36:54.259Z</time></trkpt><trkpt lat="45.126245" lon="7.9435567"><ele>207.0</ele><time>2026-04-18T13:36:55.259Z</time></trkpt><trkpt lat="45.1263769" lon="7.9435737"><ele>207.0</ele><time>2026-04-18T13:36:56.259Z</time></trkpt><trkpt lat="45.1265261" lon="7.9435946"><ele>207.0</ele><time>2026-04-18T13:36:57.259Z</time></trkpt><trkpt lat="45.12667" lon="7.9436109"><ele>207.0</ele><time>2026-04-18T13:36:58.259Z</time></trkpt><trkpt lat="45.1268177" lon="7.9436267"><ele>207.0</ele><time>2026-04-18T13:36:59.259Z</time></trkpt><trkpt lat="45.1269769" lon="7.9436364"><ele>207.0</ele><time>2026-04-18T13:37:00.259Z</time></trkpt><trkpt lat="45.1271352" lon="7.9436497"><ele>207.0</ele><time>2026-04-18T13:37:01.259Z</time></trkpt><trkpt lat="45.1272949" lon="7.9436501"><ele>207.25</ele><time>2026-04-18T13:37:02.259Z</time></trkpt><trkpt lat="45.127431" lon="7.9436622"><ele>207.5</ele><time>2026-04-18T13:37:03.259Z</time></trkpt><trkpt lat="45.1275672" lon="7.9436685"><ele>207.75</ele><time>2026-04-18T13:37:04.26Z</time></trkpt><trkpt lat="45.1277052" lon="7.9436543"><ele>208.0</ele><time>2026-04-18T13:37:05.259Z</time></trkpt><trkpt lat="45.1278469" lon="7.9436209"><ele>208.0</ele><time>2026-04-18T13:37:06.259Z</time></trkpt><trkpt lat="45.1279907" lon="7.9435645"><ele>208.0</ele><time>2026-04-18T13:37:07.259Z</time></trkpt><trkpt lat="45.1281388" lon="7.9434895"><ele>208.0</ele><time>2026-04-18T13:37:08.259Z</time></trkpt><trkpt lat="45.1282865" lon="7.9434135"><ele>208.25</ele><time>2026-04-18T13:37:09.259Z</time></trkpt><trkpt lat="45.1284306" lon="7.9433351"><ele>208.5</ele><time>2026-04-18T13:37:10.259Z</time></trkpt><trkpt lat="45.1285665" lon="7.943262"><ele>208.75</ele><time>2026-04-18T13:37:11.259Z</time></trkpt><trkpt lat="45.1286981" lon="7.9431906"><ele>209.0</ele><time>2026-04-18T13:37:12.259Z</time></trkpt><trkpt lat="45.1288187" lon="7.9431294"><ele>209.0</ele><time>2026-04-18T13:37:13.259Z</time></trkpt><trkpt lat="45.1289188" lon="7.943073"><ele>209.0</ele><time>2026-04-18T13:37:14.259Z</time></trkpt><trkpt lat="45.1290251" lon="7.9430256"><ele>209.0</ele><time>2026-04-18T13:37:15.259Z</time></trkpt><trkpt lat="45.1291055" lon="7.9429849"><ele>209.0</ele><time>2026-04-18T13:37:16.259Z</time></trkpt><trkpt lat="45.129182" lon="7.9429352"><ele>209.0</ele><time>2026-04-18T13:37:17.259Z</time></trkpt><trkpt lat="45.1292596" lon="7.9430061"><ele>208.79999999999998</ele><time>2026-04-18T13:37:19.259Z</time></trkpt><trkpt lat="45.1292726" lon="7.9431672"><ele>208.6</ele><time>2026-04-18T13:37:21.26Z</time></trkpt><trkpt lat="45.1292435" lon="7.9432525"><ele>208.4</ele><time>2026-04-18T13:37:22.26Z</time></trkpt><trkpt lat="45.1292053" lon="7.9433369"><ele>208.2</ele><time>2026-04-18T13:37:23.26Z</time></trkpt><trkpt lat="45.1291539" lon="7.9434402"><ele>208.0</ele><time>2026-04-18T13:37:24.259Z</time></trkpt><trkpt lat="45.1290978" lon="7.9435725"><ele>208.0</ele><time>2026-04-18T13:37:25.26Z</time></trkpt><trkpt lat="45.1290461" lon="7.9437306"><ele>208.0</ele><time>2026-04-18T13:37:26.26Z</time></trkpt><trkpt lat="45.1289803" lon="7.9439029"><ele>208.0</ele><time>2026-04-18T13:37:27.259Z</time></trkpt><trkpt lat="45.1289248" lon="7.9440884"><ele>208.0</ele><time>2026-04-18T13:37:28.259Z</time></trkpt><trkpt lat="45.1288804" lon="7.9442868"><ele>207.75</ele><time>2026-04-18T13:37:29.259Z</time></trkpt><trkpt lat="45.1288285" lon="7.9444636"><ele>207.5</ele><time>2026-04-18T13:37:30.26Z</time></trkpt><trkpt lat="45.1287756" lon="7.9446457"><ele>207.25</ele><time>2026-04-18T13:37:31.26Z</time></trkpt><trkpt lat="45.1287231" lon="7.9448141"><ele>207.0</ele><time>2026-04-18T13:37:32.259Z</time></trkpt><trkpt lat="45.1286753" lon="7.9449662"><ele>206.75</ele><time>2026-04-18T13:37:33.259Z</time></trkpt><trkpt lat="45.1286372" lon="7.9451123"><ele>206.5</ele><time>2026-04-18T13:37:34.259Z</time></trkpt><trkpt lat="45.128607" lon="7.9452537"><ele>206.25</ele><time>2026-04-18T13:37:35.259Z</time></trkpt><trkpt lat="45.1285946" lon="7.9454115"><ele>206.0</ele><time>2026-04-18T13:37:36.259Z</time></trkpt><trkpt lat="45.1286201" lon="7.9455869"><ele>206.0</ele><time>2026-04-18T13:37:37.259Z</time></trkpt><trkpt lat="45.1286513" lon="7.9457694"><ele>206.0</ele><time>2026-04-18T13:37:38.259Z</time></trkpt><trkpt lat="45.1286823" lon="7.9459625"><ele>206.0</ele><time>2026-04-18T13:37:39.259Z</time></trkpt><trkpt lat="45.1287229" lon="7.946158"><ele>206.0</ele><time>2026-04-18T13:37:40.259Z</time></trkpt><trkpt lat="45.1287713" lon="7.9463674"><ele>205.66666666666669</ele><time>2026-04-18T13:37:41.259Z</time></trkpt><trkpt lat="45.1288151" lon="7.9465808"><ele>205.33333333333331</ele><time>2026-04-18T13:37:42.26Z</time></trkpt><trkpt lat="45.1288598" lon="7.9467974"><ele>205.0</ele><time>2026-04-18T13:37:43.26Z</time></trkpt><trkpt lat="45.1289069" lon="7.9470077"><ele>205.0</ele><time>2026-04-18T13:37:44.259Z</time></trkpt><trkpt lat="45.1289542" lon="7.9472203"><ele>205.0</ele><time>2026-04-18T13:37:45.259Z</time></trkpt><trkpt lat="45.1289913" lon="7.9474232"><ele>205.0</ele><time>2026-04-18T13:37:46.259Z</time></trkpt><trkpt lat="45.1290309" lon="7.9476247"><ele>205.25</ele><time>2026-04-18T13:37:47.259Z</time></trkpt><trkpt lat="45.1290813" lon="7.9478176"><ele>205.5</ele><time>2026-04-18T13:37:48.26Z</time></trkpt><trkpt lat="45.1291416" lon="7.9480105"><ele>205.75</ele><time>2026-04-18T13:37:49.26Z</time></trkpt><trkpt lat="45.1292204" lon="7.9481882"><ele>206.0</ele><time>2026-04-18T13:37:50.259Z</time></trkpt><trkpt lat="45.1293065" lon="7.9483695"><ele>205.33333333333334</ele><time>2026-04-18T13:37:51.259Z</time></trkpt><trkpt lat="45.1294037" lon="7.9485487"><ele>204.66666666666669</ele><time>2026-04-18T13:37:52.259Z</time></trkpt><trkpt lat="45.1295024" lon="7.9487281"><ele>204.0</ele><time>2026-04-18T13:37:53.26Z</time></trkpt><trkpt lat="45.1296066" lon="7.9489061"><ele>204.0</ele><time>2026-04-18T13:37:54.26Z</time></trkpt><trkpt lat="45.1297015" lon="7.9490824"><ele>204.0</ele><time>2026-04-18T13:37:55.259Z</time></trkpt><trkpt lat="45.1297915" lon="7.9492472"><ele>204.0</ele><time>2026-04-18T13:37:56.26Z</time></trkpt><trkpt lat="45.1298766" lon="7.9494211"><ele>205.25</ele><time>2026-04-18T13:37:57.259Z</time></trkpt><trkpt lat="45.1299423" lon="7.9495913"><ele>206.5</ele><time>2026-04-18T13:37:58.26Z</time></trkpt><trkpt lat="45.1299937" lon="7.9497602"><ele>207.75</ele><time>2026-04-18T13:37:59.259Z</time></trkpt><trkpt lat="45.1300336" lon="7.9499296"><ele>209.0</ele><time>2026-04-18T13:38:00.26Z</time></trkpt><trkpt lat="45.1300577" lon="7.950103"><ele>210.75</ele><time>2026-04-18T13:38:01.259Z</time></trkpt><trkpt lat="45.1300553" lon="7.9502879"><ele>212.5</ele><time>2026-04-18T13:38:02.259Z</time></trkpt><trkpt lat="45.130029" lon="7.9504848"><ele>214.25</ele><time>2026-04-18T13:38:03.259Z</time></trkpt><trkpt lat="45.1299935" lon="7.9506777"><ele>216.0</ele><time>2026-04-18T13:38:04.259Z</time></trkpt><trkpt lat="45.1299598" lon="7.9508973"><ele>217.25</ele><time>2026-04-18T13:38:05.259Z</time></trkpt><trkpt lat="45.12994" lon="7.9511019"><ele>218.5</ele><time>2026-04-18T13:38:06.259Z</time></trkpt><trkpt lat="45.1299377" lon="7.9513136"><ele>219.75</ele><time>2026-04-18T13:38:07.259Z</time></trkpt><trkpt lat="45.12995" lon="7.9515114"><ele>221.0</ele><time>2026-04-18T13:38:08.26Z</time></trkpt><trkpt lat="45.1299739" lon="7.9517271"><ele>221.0</ele><time>2026-04-18T13:38:09.26Z</time></trkpt><trkpt lat="45.1300081" lon="7.9519355"><ele>221.0</ele><time>2026-04-18T13:38:10.259Z</time></trkpt><trkpt lat="45.1300553" lon="7.9521411"><ele>221.0</ele><time>2026-04-18T13:38:11.26Z</time></trkpt><trkpt lat="45.1301094" lon="7.9523317"><ele>221.0</ele><time>2026-04-18T13:38:12.26Z</time></trkpt><trkpt lat="45.1301771" lon="7.9525289"><ele>220.0</ele><time>2026-04-18T13:38:13.26Z</time></trkpt><trkpt lat="45.1302495" lon="7.952744"><ele>219.0</ele><time>2026-04-18T13:38:14.259Z</time></trkpt><trkpt lat="45.1303064" lon="7.9529772"><ele>218.0</ele><time>2026-04-18T13:38:15.259Z</time></trkpt><trkpt lat="45.130345" lon="7.9532126"><ele>216.66666666666669</ele><time>2026-04-18T13:38:16.259Z</time></trkpt><trkpt lat="45.1303804" lon="7.9534463"><ele>215.33333333333331</ele><time>2026-04-18T13:38:17.259Z</time></trkpt><trkpt lat="45.1304222" lon="7.953662"><ele>214.0</ele><time>2026-04-18T13:38:18.26Z</time></trkpt><trkpt lat="45.1304737" lon="7.9538674"><ele>214.0</ele><time>2026-04-18T13:38:19.259Z</time></trkpt><trkpt lat="45.1305346" lon="7.954056"><ele>214.0</ele><time>2026-04-18T13:38:20.259Z</time></trkpt><trkpt lat="45.1305966" lon="7.9542235"><ele>214.0</ele><time>2026-04-18T13:38:21.259Z</time></trkpt><trkpt lat="45.1306425" lon="7.9543705"><ele>214.0</ele><time>2026-04-18T13:38:22.259Z</time></trkpt><trkpt lat="45.1306652" lon="7.9545091"><ele>213.83333333333331</ele><time>2026-04-18T13:38:23.26Z</time></trkpt><trkpt lat="45.1306558" lon="7.9546362"><ele>213.66666666666666</ele><time>2026-04-18T13:38:24.26Z</time></trkpt><trkpt lat="45.1306466" lon="7.9547576"><ele>213.5</ele><time>2026-04-18T13:38:25.259Z</time></trkpt><trkpt lat="45.1306446" lon="7.9548748"><ele>213.33333333333331</ele><time>2026-04-18T13:38:26.26Z</time></trkpt><trkpt lat="45.1306498" lon="7.9549926"><ele>213.16666666666666</ele><time>2026-04-18T13:38:27.259Z</time></trkpt><trkpt lat="45.1306404" lon="7.9551205"><ele>213.0</ele><time>2026-04-18T13:38:28.259Z</time></trkpt><trkpt lat="45.1306079" lon="7.955253"><ele>213.4</ele><time>2026-04-18T13:38:29.259Z</time></trkpt><trkpt lat="45.1305426" lon="7.9553653"><ele>213.8</ele><time>2026-04-18T13:38:30.259Z</time></trkpt><trkpt lat="45.1304682" lon="7.9554675"><ele>214.2</ele><time>2026-04-18T13:38:31.259Z</time></trkpt><trkpt lat="45.1303792" lon="7.9555464"><ele>214.6</ele><time>2026-04-18T13:38:32.26Z</time></trkpt><trkpt lat="45.1303006" lon="7.9556533"><ele>215.0</ele><time>2026-04-18T13:38:33.26Z</time></trkpt><trkpt lat="45.1302507" lon="7.9557902"><ele>214.25</ele><time>2026-04-18T13:38:34.259Z</time></trkpt><trkpt lat="45.1302436" lon="7.9559477"><ele>213.5</ele><time>2026-04-18T13:38:35.259Z</time></trkpt><trkpt lat="45.1302554" lon="7.956125"><ele>212.75</ele><time>2026-04-18T13:38:36.259Z</time></trkpt><trkpt lat="45.1302793" lon="7.9563168"><ele>212.0</ele><time>2026-04-18T13:38:37.259Z</time></trkpt><trkpt lat="45.1303108" lon="7.9565393"><ele>213.33333333333334</ele><time>2026-04-18T13:38:38.259Z</time></trkpt><trkpt lat="45.1303446" lon="7.9567762"><ele>214.66666666666669</ele><time>2026-04-18T13:38:39.26Z</time></trkpt><trkpt lat="45.1303824" lon="7.9570299"><ele>216.0</ele><time>2026-04-18T13:38:40.259Z</time></trkpt><trkpt lat="45.1304243" lon="7.9572763"><ele>216.0</ele><time>2026-04-18T13:38:41.259Z</time></trkpt><trkpt lat="45.1304651" lon="7.9575337"><ele>216.0</ele><time>2026-04-18T13:38:42.26Z</time></trkpt><trkpt lat="45.1305034" lon="7.9577876"><ele>216.0</ele><time>2026-04-18T13:38:43.26Z</time></trkpt><trkpt lat="45.1305215" lon="7.9580276"><ele>217.0</ele><time>2026-04-18T13:38:44.259Z</time></trkpt><trkpt lat="45.1305141" lon="7.9582555"><ele>218.0</ele><time>2026-04-18T13:38:45.26Z</time></trkpt><trkpt lat="45.1304886" lon="7.9584822"><ele>219.0</ele><time>2026-04-18T13:38:46.259Z</time></trkpt><trkpt lat="45.1304585" lon="7.9587126"><ele>221.0</ele><time>2026-04-18T13:38:47.259Z</time></trkpt><trkpt lat="45.1304382" lon="7.9589454"><ele>223.0</ele><time>2026-04-18T13:38:48.26Z</time></trkpt><trkpt lat="45.1304315" lon="7.9591839"><ele>225.0</ele><time>2026-04-18T13:38:49.259Z</time></trkpt><trkpt lat="45.1304368" lon="7.959429"><ele>227.0</ele><time>2026-04-18T13:38:50.259Z</time></trkpt><trkpt lat="45.1304284" lon="7.9596601"><ele>229.0</ele><time>2026-04-18T13:38:51.259Z</time></trkpt><trkpt lat="45.1304223" lon="7.9598973"><ele>231.0</ele><time>2026-04-18T13:38:52.259Z</time></trkpt><trkpt lat="45.1304072" lon="7.9601347"><ele>232.0</ele><time>2026-04-18T13:38:53.259Z</time></trkpt><trkpt lat="45.1303916" lon="7.9603676"><ele>233.0</ele><time>2026-04-18T13:38:54.259Z</time></trkpt><trkpt lat="45.1303746" lon="7.9605752"><ele>234.0</ele><time>2026-04-18T13:38:55.259Z</time></trkpt><trkpt lat="45.1303637" lon="7.9607654"><ele>235.0</ele><time>2026-04-18T13:38:56.259Z</time></trkpt><trkpt lat="45.1303637" lon="7.9609539"><ele>236.0</ele><time>2026-04-18T13:38:57.259Z</time></trkpt><trkpt lat="45.1303925" lon="7.9611627"><ele>237.0</ele><time>2026-04-18T13:38:58.259Z</time></trkpt><trkpt lat="45.1304384" lon="7.9613574"><ele>238.0</ele><time>2026-04-18T13:38:59.26Z</time></trkpt><trkpt lat="45.1304948" lon="7.9615616"><ele>239.0</ele><time>2026-04-18T13:39:00.259Z</time></trkpt><trkpt lat="45.130556" lon="7.9617629"><ele>240.0</ele><time>2026-04-18T13:39:01.26Z</time></trkpt><trkpt lat="45.130614" lon="7.9619445"><ele>241.0</ele><time>2026-04-18T13:39:02.259Z</time></trkpt><trkpt lat="45.1306647" lon="7.9621148"><ele>242.0</ele><time>2026-04-18T13:39:03.26Z</time></trkpt><trkpt lat="45.1307103" lon="7.9622581"><ele>244.6</ele><time>2026-04-18T13:39:04.259Z</time></trkpt><trkpt lat="45.130748" lon="7.9623922"><ele>247.2</ele><time>2026-04-18T13:39:05.259Z</time></trkpt><trkpt lat="45.1307918" lon="7.9625201"><ele>249.8</ele><time>2026-04-18T13:39:06.259Z</time></trkpt><trkpt lat="45.1308301" lon="7.9626401"><ele>252.4</ele><time>2026-04-18T13:39:07.259Z</time></trkpt><trkpt lat="45.1308662" lon="7.9627571"><ele>255.0</ele><time>2026-04-18T13:39:08.259Z</time></trkpt><trkpt lat="45.130903" lon="7.9628653"><ele>256.2</ele><time>2026-04-18T13:39:09.259Z</time></trkpt><trkpt lat="45.1309347" lon="7.962984"><ele>257.4</ele><time>2026-04-18T13:39:10.26Z</time></trkpt><trkpt lat="45.1309478" lon="7.9631081"><ele>258.6</ele><time>2026-04-18T13:39:11.26Z</time></trkpt><trkpt lat="45.1309545" lon="7.9632293"><ele>259.8</ele><time>2026-04-18T13:39:12.259Z</time></trkpt><trkpt lat="45.1309501" lon="7.9633646"><ele>261.0</ele><time>2026-04-18T13:39:13.259Z</time></trkpt><trkpt lat="45.1309235" lon="7.9635172"><ele>262.5</ele><time>2026-04-18T13:39:14.26Z</time></trkpt><trkpt lat="45.1308966" lon="7.9636706"><ele>264.0</ele><time>2026-04-18T13:39:15.259Z</time></trkpt><trkpt lat="45.1308591" lon="7.9638364"><ele>265.5</ele><time>2026-04-18T13:39:16.259Z</time></trkpt><trkpt lat="45.130815" lon="7.9640015"><ele>267.0</ele><time>2026-04-18T13:39:17.259Z</time></trkpt><trkpt lat="45.1307674" lon="7.9641685"><ele>267.0</ele><time>2026-04-18T13:39:18.259Z</time></trkpt><trkpt lat="45.1307179" lon="7.9643314"><ele>267.0</ele><time>2026-04-18T13:39:19.259Z</time></trkpt><trkpt lat="45.1306748" lon="7.9644948"><ele>267.0</ele><time>2026-04-18T13:39:20.259Z</time></trkpt><trkpt lat="45.1306366" lon="7.9646556"><ele>267.0</ele><time>2026-04-18T13:39:21.259Z</time></trkpt><trkpt lat="45.1305954" lon="7.9648331"><ele>267.0</ele><time>2026-04-18T13:39:22.259Z</time></trkpt><trkpt lat="45.1305553" lon="7.9650066"><ele>267.0</ele><time>2026-04-18T13:39:23.259Z</time></trkpt><trkpt lat="45.1305114" lon="7.9651844"><ele>267.0</ele><time>2026-04-18T13:39:24.259Z</time></trkpt><trkpt lat="45.1304705" lon="7.9653616"><ele>267.0</ele><time>2026-04-18T13:39:25.259Z</time></trkpt><trkpt lat="45.1304327" lon="7.9655563"><ele>269.25</ele><time>2026-04-18T13:39:26.26Z</time></trkpt><trkpt lat="45.1303864" lon="7.9657462"><ele>271.5</ele><time>2026-04-18T13:39:27.259Z</time></trkpt><trkpt lat="45.1303454" lon="7.9659401"><ele>273.75</ele><time>2026-04-18T13:39:28.259Z</time></trkpt><trkpt lat="45.1303193" lon="7.9661276"><ele>276.0</ele><time>2026-04-18T13:39:29.259Z</time></trkpt><trkpt lat="45.1302948" lon="7.9663212"><ele>279.0</ele><time>2026-04-18T13:39:30.26Z</time></trkpt><trkpt lat="45.1302751" lon="7.9665113"><ele>282.0</ele><time>2026-04-18T13:39:31.26Z</time></trkpt><trkpt lat="45.1302666" lon="7.9666978"><ele>285.0</ele><time>2026-04-18T13:39:32.26Z</time></trkpt><trkpt lat="45.1302654" lon="7.96689"><ele>288.0</ele><time>2026-04-18T13:39:33.259Z</time></trkpt><trkpt lat="45.1302672" lon="7.9670673"><ele>290.75</ele><time>2026-04-18T13:39:34.259Z</time></trkpt><trkpt lat="45.1302702" lon="7.9672471"><ele>293.5</ele><time>2026-04-18T13:39:35.259Z</time></trkpt><trkpt lat="45.1302628" lon="7.9674239"><ele>296.25</ele><time>2026-04-18T13:39:36.259Z</time></trkpt><trkpt lat="45.1302375" lon="7.967607"><ele>299.0</ele><time>2026-04-18T13:39:37.259Z</time></trkpt><trkpt lat="45.1301915" lon="7.9677808"><ele>301.25</ele><time>2026-04-18T13:39:38.259Z</time></trkpt><trkpt lat="45.1301437" lon="7.9679594"><ele>303.5</ele><time>2026-04-18T13:39:39.26Z</time></trkpt><trkpt lat="45.1301041" lon="7.968132"><ele>305.75</ele><time>2026-04-18T13:39:40.259Z</time></trkpt><trkpt lat="45.1300537" lon="7.9683041"><ele>308.0</ele><time>2026-04-18T13:39:41.26Z</time></trkpt><trkpt lat="45.1300031" lon="7.9684868"><ele>308.25</ele><time>2026-04-18T13:39:42.259Z</time></trkpt><trkpt lat="45.1299431" lon="7.9686592"><ele>308.5</ele><time>2026-04-18T13:39:43.259Z</time></trkpt><trkpt lat="45.1298877" lon="7.9688301"><ele>308.75</ele><time>2026-04-18T13:39:44.26Z</time></trkpt><trkpt lat="45.1298459" lon="7.9690035"><ele>309.0</ele><time>2026-04-18T13:39:45.259Z</time></trkpt><trkpt lat="45.1298145" lon="7.9691855"><ele>310.0</ele><time>2026-04-18T13:39:46.26Z</time></trkpt><trkpt lat="45.1298023" lon="7.9693797"><ele>311.0</ele><time>2026-04-18T13:39:47.26Z</time></trkpt><trkpt lat="45.129817" lon="7.9695675"><ele>312.0</ele><time>2026-04-18T13:39:48.259Z</time></trkpt><trkpt lat="45.1298488" lon="7.9697599"><ele>313.0</ele><time>2026-04-18T13:39:49.259Z</time></trkpt><trkpt lat="45.1298853" lon="7.9699472"><ele>313.5</ele><time>2026-04-18T13:39:50.259Z</time></trkpt><trkpt lat="45.1299066" lon="7.9701318"><ele>314.0</ele><time>2026-04-18T13:39:51.26Z</time></trkpt><trkpt lat="45.129911" lon="7.9702988"><ele>314.5</ele><time>2026-04-18T13:39:52.259Z</time></trkpt><trkpt lat="45.1298883" lon="7.9704541"><ele>315.0</ele><time>2026-04-18T13:39:53.26Z</time></trkpt><trkpt lat="45.1298397" lon="7.9705836"><ele>315.0</ele><time>2026-04-18T13:39:54.259Z</time></trkpt><trkpt lat="45.1297912" lon="7.9707111"><ele>315.0</ele><time>2026-04-18T13:39:55.259Z</time></trkpt><trkpt lat="45.1297445" lon="7.9708635"><ele>315.0</ele><time>2026-04-18T13:39:56.259Z</time></trkpt><trkpt lat="45.1297059" lon="7.971032"><ele>315.0</ele><time>2026-04-18T13:39:57.259Z</time></trkpt><trkpt lat="45.1296797" lon="7.9711924"><ele>317.5</ele><time>2026-04-18T13:39:58.259Z</time></trkpt><trkpt lat="45.1296691" lon="7.9713584"><ele>320.0</ele><time>2026-04-18T13:39:59.26Z</time></trkpt><trkpt lat="45.1296906" lon="7.9715296"><ele>322.5</ele><time>2026-04-18T13:40:00.259Z</time></trkpt><trkpt lat="45.1297189" lon="7.9716865"><ele>325.0</ele><time>2026-04-18T13:40:01.259Z</time></trkpt><trkpt lat="45.1297206" lon="7.9718349"><ele>329.0</ele><time>2026-04-18T13:40:02.259Z</time></trkpt><trkpt lat="45.1296946" lon="7.9719931"><ele>333.0</ele><time>2026-04-18T13:40:03.259Z</time></trkpt><trkpt lat="45.1296344" lon="7.972138"><ele>337.0</ele><time>2026-04-18T13:40:04.259Z</time></trkpt><trkpt lat="45.1295589" lon="7.9723011"><ele>341.0</ele><time>2026-04-18T13:40:05.259Z</time></trkpt><trkpt lat="45.1294888" lon="7.9724544"><ele>345.0</ele><time>2026-04-18T13:40:06.259Z</time></trkpt><trkpt lat="45.1294242" lon="7.9726225"><ele>349.0</ele><time>2026-04-18T13:40:07.259Z</time></trkpt><trkpt lat="45.1293479" lon="7.9727697"><ele>353.0</ele><time>2026-04-18T13:40:08.259Z</time></trkpt><trkpt lat="45.1292907" lon="7.9729106"><ele>357.0</ele><time>2026-04-18T13:40:09.259Z</time></trkpt><trkpt lat="45.1292223" lon="7.9730126"><ele>357.0</ele><time>2026-04-18T13:40:10.259Z</time></trkpt><trkpt lat="45.1291406" lon="7.9730907"><ele>357.0</ele><time>2026-04-18T13:40:11.259Z</time></trkpt><trkpt lat="45.1290497" lon="7.9731296"><ele>357.0</ele><time>2026-04-18T13:40:12.259Z</time></trkpt><trkpt lat="45.1289552" lon="7.9731396"><ele>357.0</ele><time>2026-04-18T13:40:13.259Z</time></trkpt><trkpt lat="45.1288672" lon="7.9731502"><ele>357.0</ele><time>2026-04-18T13:40:14.26Z</time></trkpt><trkpt lat="45.1287882" lon="7.9731863"><ele>354.8</ele><time>2026-04-18T13:40:15.259Z</time></trkpt><trkpt lat="45.1287176" lon="7.9732547"><ele>352.6</ele><time>2026-04-18T13:40:16.26Z</time></trkpt><trkpt lat="45.128663" lon="7.9733457"><ele>350.40000000000003</ele><time>2026-04-18T13:40:17.259Z</time></trkpt><trkpt lat="45.1286367" lon="7.9734743"><ele>348.20000000000005</ele><time>2026-04-18T13:40:18.259Z</time></trkpt><trkpt lat="45.12861" lon="7.9736219"><ele>346.0</ele><time>2026-04-18T13:40:19.259Z</time></trkpt><trkpt lat="45.1286038" lon="7.9737862"><ele>346.0</ele><time>2026-04-18T13:40:20.26Z</time></trkpt><trkpt lat="45.1286012" lon="7.9739638"><ele>346.0</ele><time>2026-04-18T13:40:21.26Z</time></trkpt><trkpt lat="45.1285905" lon="7.9741328"><ele>346.0</ele><time>2026-04-18T13:40:22.259Z</time></trkpt><trkpt lat="45.1285512" lon="7.9742932"><ele>346.0</ele><time>2026-04-18T13:40:23.259Z</time></trkpt><trkpt lat="45.1284924" lon="7.9744453"><ele>347.8</ele><time>2026-04-18T13:40:24.259Z</time></trkpt><trkpt lat="45.1284401" lon="7.9745795"><ele>349.6</ele><time>2026-04-18T13:40:25.26Z</time></trkpt><trkpt lat="45.128419" lon="7.9747195"><ele>351.4</ele><time>2026-04-18T13:40:26.26Z</time></trkpt><trkpt lat="45.1284366" lon="7.9748617"><ele>353.2</ele><time>2026-04-18T13:40:27.259Z</time></trkpt><trkpt lat="45.1284763" lon="7.9750131"><ele>355.0</ele><time>2026-04-18T13:40:28.259Z</time></trkpt><trkpt lat="45.1285446" lon="7.9751425"><ele>356.6</ele><time>2026-04-18T13:40:29.26Z</time></trkpt><trkpt lat="45.1286174" lon="7.9752546"><ele>358.2</ele><time>2026-04-18T13:40:30.259Z</time></trkpt><trkpt lat="45.1286951" lon="7.9753442"><ele>359.79999999999995</ele><time>2026-04-18T13:40:31.26Z</time></trkpt><trkpt lat="45.1287503" lon="7.9754426"><ele>361.4</ele><time>2026-04-18T13:40:32.259Z</time></trkpt><trkpt lat="45.1287837" lon="7.9755541"><ele>363.0</ele><time>2026-04-18T13:40:33.259Z</time></trkpt><trkpt lat="45.1287805" lon="7.9756695"><ele>363.0</ele><time>2026-04-18T13:40:34.259Z</time></trkpt><trkpt lat="45.1287315" lon="7.9757917"><ele>363.0</ele><time>2026-04-18T13:40:35.259Z</time></trkpt><trkpt lat="45.1286675" lon="7.9759409"><ele>363.0</ele><time>2026-04-18T13:40:36.259Z</time></trkpt><trkpt lat="45.1285873" lon="7.9760903"><ele>363.0</ele><time>2026-04-18T13:40:37.259Z</time></trkpt><trkpt lat="45.1284956" lon="7.9762232"><ele>367.25</ele><time>2026-04-18T13:40:38.26Z</time></trkpt><trkpt lat="45.1283775" lon="7.9763083"><ele>371.5</ele><time>2026-04-18T13:40:39.259Z</time></trkpt><trkpt lat="45.1282558" lon="7.9763668"><ele>375.75</ele><time>2026-04-18T13:40:40.259Z</time></trkpt><trkpt lat="45.1281267" lon="7.9763266"><ele>380.0</ele><time>2026-04-18T13:40:41.259Z</time></trkpt><trkpt lat="45.1280108" lon="7.9763157"><ele>380.0</ele><time>2026-04-18T13:40:42.259Z</time></trkpt><trkpt lat="45.1279136" lon="7.9763319"><ele>380.0</ele><time>2026-04-18T13:40:43.26Z</time></trkpt><trkpt lat="45.1278182" lon="7.976393"><ele>380.0</ele><time>2026-04-18T13:40:44.26Z</time></trkpt><trkpt lat="45.127718" lon="7.9764689"><ele>380.0</ele><time>2026-04-18T13:40:45.259Z</time></trkpt><trkpt lat="45.1276167" lon="7.9765191"><ele>380.0</ele><time>2026-04-18T13:40:46.26Z</time></trkpt><trkpt lat="45.1275106" lon="7.9765229"><ele>380.0</ele><time>2026-04-18T13:40:47.26Z</time></trkpt><trkpt lat="45.1274108" lon="7.9765066"><ele>380.0</ele><time>2026-04-18T13:40:48.259Z</time></trkpt><trkpt lat="45.1273261" lon="7.9765081"><ele>380.0</ele><time>2026-04-18T13:40:49.259Z</time></trkpt><trkpt lat="45.1272528" lon="7.9765364"><ele>380.0</ele><time>2026-04-18T13:40:50.259Z</time></trkpt><trkpt lat="45.127185" lon="7.9765874"><ele>380.0</ele><time>2026-04-18T13:40:51.259Z</time></trkpt><trkpt lat="45.1271917" lon="7.9767279"><ele>380.0</ele><time>2026-04-18T13:40:52.259Z</time></trkpt><trkpt lat="45.1272029" lon="7.9768726"><ele>375.0</ele><time>2026-04-18T13:40:53.26Z</time></trkpt><trkpt lat="45.1272354" lon="7.9770502"><ele>370.0</ele><time>2026-04-18T13:40:54.259Z</time></trkpt><trkpt lat="45.1272675" lon="7.9772274"><ele>365.0</ele><time>2026-04-18T13:40:55.26Z</time></trkpt><trkpt lat="45.1272904" lon="7.9774111"><ele>360.0</ele><time>2026-04-18T13:40:56.259Z</time></trkpt><trkpt lat="45.1272818" lon="7.977604"><ele>360.0</ele><time>2026-04-18T13:40:57.259Z</time></trkpt><trkpt lat="45.1272451" lon="7.9778056"><ele>360.0</ele><time>2026-04-18T13:40:58.259Z</time></trkpt><trkpt lat="45.1272234" lon="7.9780047"><ele>360.0</ele><time>2026-04-18T13:40:59.259Z</time></trkpt><trkpt lat="45.1272184" lon="7.9782115"><ele>360.0</ele><time>2026-04-18T13:41:00.259Z</time></trkpt><trkpt lat="45.1272273" lon="7.9784172"><ele>363.5</ele><time>2026-04-18T13:41:01.259Z</time></trkpt><trkpt lat="45.1272298" lon="7.9786159"><ele>367.0</ele><time>2026-04-18T13:41:02.259Z</time></trkpt><trkpt lat="45.1272332" lon="7.9788075"><ele>370.5</ele><time>2026-04-18T13:41:03.259Z</time></trkpt><trkpt lat="45.1272134" lon="7.978977"><ele>374.0</ele><time>2026-04-18T13:41:04.259Z</time></trkpt><trkpt lat="45.127161" lon="7.9791288"><ele>372.0</ele><time>2026-04-18T13:41:05.259Z</time></trkpt><trkpt lat="45.1270857" lon="7.9792483"><ele>370.0</ele><time>2026-04-18T13:41:06.26Z</time></trkpt><trkpt lat="45.1269918" lon="7.9793405"><ele>368.0</ele><time>2026-04-18T13:41:07.26Z</time></trkpt><trkpt lat="45.126874" lon="7.9793464"><ele>366.0</ele><time>2026-04-18T13:41:08.259Z</time></trkpt><trkpt lat="45.1267466" lon="7.9793309"><ele>366.0</ele><time>2026-04-18T13:41:09.259Z</time></trkpt><trkpt lat="45.1266075" lon="7.9792948"><ele>366.0</ele><time>2026-04-18T13:41:10.259Z</time></trkpt><trkpt lat="45.1264701" lon="7.9792335"><ele>366.0</ele><time>2026-04-18T13:41:11.259Z</time></trkpt><trkpt lat="45.1263259" lon="7.9791688"><ele>366.0</ele><time>2026-04-18T13:41:12.259Z</time></trkpt><trkpt lat="45.12617" lon="7.9791177"><ele>370.3333333333333</ele><time>2026-04-18T13:41:13.259Z</time></trkpt><trkpt lat="45.1260139" lon="7.9790786"><ele>374.66666666666663</ele><time>2026-04-18T13:41:14.259Z</time></trkpt><trkpt lat="45.1258534" lon="7.9790834"><ele>379.0</ele><time>2026-04-18T13:41:15.26Z</time></trkpt><trkpt lat="45.1257006" lon="7.9791358"><ele>385.66666666666663</ele><time>2026-04-18T13:41:16.259Z</time></trkpt><trkpt lat="45.1255381" lon="7.9791886"><ele>392.3333333333333</ele><time>2026-04-18T13:41:17.259Z</time></trkpt><trkpt lat="45.1253794" lon="7.9792398"><ele>399.0</ele><time>2026-04-18T13:41:18.26Z</time></trkpt><trkpt lat="45.1252191" lon="7.9793016"><ele>399.0</ele><time>2026-04-18T13:41:19.26Z</time></trkpt><trkpt lat="45.1250714" lon="7.9793797"><ele>399.0</ele><time>2026-04-18T13:41:20.259Z</time></trkpt><trkpt lat="45.1249033" lon="7.979459"><ele>399.0</ele><time>2026-04-18T13:41:21.259Z</time></trkpt><trkpt lat="45.1247726" lon="7.9795373"><ele>399.25</ele><time>2026-04-18T13:41:22.259Z</time></trkpt><trkpt lat="45.1246444" lon="7.9795901"><ele>399.5</ele><time>2026-04-18T13:41:23.259Z</time></trkpt><trkpt lat="45.1245197" lon="7.9796476"><ele>399.75</ele><time>2026-04-18T13:41:24.259Z</time></trkpt><trkpt lat="45.1243947" lon="7.9797215"><ele>400.0</ele><time>2026-04-18T13:41:25.259Z</time></trkpt><trkpt lat="45.124292" lon="7.979817"><ele>400.0</ele><time>2026-04-18T13:41:26.26Z</time></trkpt><trkpt lat="45.1241993" lon="7.9799476"><ele>400.0</ele><time>2026-04-18T13:41:27.259Z</time></trkpt><trkpt lat="45.1240946" lon="7.9800608"><ele>400.0</ele><time>2026-04-18T13:41:28.26Z</time></trkpt><trkpt lat="45.1239776" lon="7.9801706"><ele>400.0</ele><time>2026-04-18T13:41:29.259Z</time></trkpt><trkpt lat="45.1238253" lon="7.9802731"><ele>399.6666666666667</ele><time>2026-04-18T13:41:30.26Z</time></trkpt><trkpt lat="45.1236791" lon="7.9803849"><ele>399.33333333333337</ele><time>2026-04-18T13:41:31.259Z</time></trkpt><trkpt lat="45.1235199" lon="7.9804647"><ele>399.0</ele><time>2026-04-18T13:41:32.259Z</time></trkpt><trkpt lat="45.1233721" lon="7.980531"><ele>395.5</ele><time>2026-04-18T13:41:33.259Z</time></trkpt><trkpt lat="45.1232215" lon="7.9806044"><ele>392.0</ele><time>2026-04-18T13:41:34.259Z</time></trkpt><trkpt lat="45.1230787" lon="7.9806748"><ele>388.5</ele><time>2026-04-18T13:41:35.26Z</time></trkpt><trkpt lat="45.1229586" lon="7.9807531"><ele>385.0</ele><time>2026-04-18T13:41:36.26Z</time></trkpt><trkpt lat="45.1228395" lon="7.9808435"><ele>387.0</ele><time>2026-04-18T13:41:37.26Z</time></trkpt><trkpt lat="45.1227281" lon="7.9809404"><ele>389.0</ele><time>2026-04-18T13:41:38.259Z</time></trkpt><trkpt lat="45.1226302" lon="7.9810333"><ele>391.0</ele><time>2026-04-18T13:41:39.259Z</time></trkpt><trkpt lat="45.1225349" lon="7.981111"><ele>393.0</ele><time>2026-04-18T13:41:40.259Z</time></trkpt><trkpt lat="45.1224536" lon="7.9811837"><ele>391.0</ele><time>2026-04-18T13:41:41.259Z</time></trkpt><trkpt lat="45.1223756" lon="7.9812565"><ele>389.0</ele><time>2026-04-18T13:41:42.259Z</time></trkpt><trkpt lat="45.122318" lon="7.981339"><ele>387.0</ele><time>2026-04-18T13:41:43.26Z</time></trkpt><trkpt lat="45.1222596" lon="7.9814338"><ele>385.0</ele><time>2026-04-18T13:41:44.259Z</time></trkpt><trkpt lat="45.1222099" lon="7.9815695"><ele>383.0</ele><time>2026-04-18T13:41:45.259Z</time></trkpt><trkpt lat="45.1221669" lon="7.981733"><ele>383.0</ele><time>2026-04-18T13:41:46.259Z</time></trkpt><trkpt lat="45.1221247" lon="7.98192"><ele>383.0</ele><time>2026-04-18T13:41:47.259Z</time></trkpt><trkpt lat="45.1220714" lon="7.9821117"><ele>383.0</ele><time>2026-04-18T13:41:48.259Z</time></trkpt><trkpt lat="45.122003" lon="7.9822847"><ele>383.0</ele><time>2026-04-18T13:41:49.259Z</time></trkpt><trkpt lat="45.1219158" lon="7.9824319"><ele>381.25</ele><time>2026-04-18T13:41:50.259Z</time></trkpt><trkpt lat="45.1218109" lon="7.9825629"><ele>379.5</ele><time>2026-04-18T13:41:51.26Z</time></trkpt><trkpt lat="45.1216907" lon="7.9826728"><ele>377.75</ele><time>2026-04-18T13:41:52.259Z</time></trkpt><trkpt lat="45.1215553" lon="7.9827596"><ele>376.0</ele><time>2026-04-18T13:41:53.259Z</time></trkpt><trkpt lat="45.1214147" lon="7.9828147"><ele>380.75</ele><time>2026-04-18T13:41:54.259Z</time></trkpt><trkpt lat="45.1212653" lon="7.9828356"><ele>385.5</ele><time>2026-04-18T13:41:55.26Z</time></trkpt><trkpt lat="45.121113" lon="7.982818"><ele>390.25</ele><time>2026-04-18T13:41:56.259Z</time></trkpt><trkpt lat="45.1209713" lon="7.9827979"><ele>395.0</ele><time>2026-04-18T13:41:57.259Z</time></trkpt><trkpt lat="45.1208464" lon="7.9827725"><ele>395.0</ele><time>2026-04-18T13:41:58.259Z</time></trkpt><trkpt lat="45.120745" lon="7.9827657"><ele>395.0</ele><time>2026-04-18T13:41:59.26Z</time></trkpt><trkpt lat="45.120625" lon="7.9827797"><ele>395.0</ele><time>2026-04-18T13:42:00.259Z</time></trkpt><trkpt lat="45.1205129" lon="7.9827986"><ele>395.0</ele><time>2026-04-18T13:42:01.259Z</time></trkpt><trkpt lat="45.1204076" lon="7.9828358"><ele>395.0</ele><time>2026-04-18T13:42:02.259Z</time></trkpt><trkpt lat="45.1203044" lon="7.9829172"><ele>397.5</ele><time>2026-04-18T13:42:03.259Z</time></trkpt><trkpt lat="45.1201999" lon="7.9829996"><ele>400.0</ele><time>2026-04-18T13:42:04.26Z</time></trkpt><trkpt lat="45.1201033" lon="7.9831029"><ele>402.5</ele><time>2026-04-18T13:42:05.26Z</time></trkpt><trkpt lat="45.1200093" lon="7.9832351"><ele>405.0</ele><time>2026-04-18T13:42:06.259Z</time></trkpt><trkpt lat="45.1199317" lon="7.9834035"><ele>407.66666666666663</ele><time>2026-04-18T13:42:07.259Z</time></trkpt><trkpt lat="45.1198421" lon="7.9835902"><ele>410.3333333333333</ele><time>2026-04-18T13:42:08.259Z</time></trkpt><trkpt lat="45.1197662" lon="7.9837746"><ele>413.0</ele><time>2026-04-18T13:42:09.259Z</time></trkpt><trkpt lat="45.1196975" lon="7.9839578"><ele>413.0</ele><time>2026-04-18T13:42:10.259Z</time></trkpt><trkpt lat="45.1196281" lon="7.9841218"><ele>413.0</ele><time>2026-04-18T13:42:11.26Z</time></trkpt><trkpt lat="45.1195658" lon="7.9842585"><ele>413.0</ele><time>2026-04-18T13:42:12.259Z</time></trkpt><trkpt lat="45.1195137" lon="7.9843717"><ele>413.0</ele><time>2026-04-18T13:42:13.26Z</time></trkpt><trkpt lat="45.1194633" lon="7.9844333"><ele>413.0</ele><time>2026-04-18T13:42:14.259Z</time></trkpt><trkpt lat="45.1193969" lon="7.9845789"><ele>416.0</ele><time>2026-04-18T13:42:16.26Z</time></trkpt><trkpt lat="45.1193458" lon="7.9846971"><ele>419.0</ele><time>2026-04-18T13:42:17.259Z</time></trkpt><trkpt lat="45.1192966" lon="7.9848077"><ele>421.99999999999994</ele><time>2026-04-18T13:42:18.259Z</time></trkpt><trkpt lat="45.1192355" lon="7.9849592"><ele>425.0</ele><time>2026-04-18T13:42:19.259Z</time></trkpt><trkpt lat="45.119183" lon="7.9850987"><ele>428.0</ele><time>2026-04-18T13:42:20.259Z</time></trkpt><trkpt lat="45.1191438" lon="7.9852503"><ele>428.4</ele><time>2026-04-18T13:42:21.259Z</time></trkpt><trkpt lat="45.1191221" lon="7.985403"><ele>428.79999999999995</ele><time>2026-04-18T13:42:22.259Z</time></trkpt><trkpt lat="45.1191075" lon="7.9855449"><ele>429.2</ele><time>2026-04-18T13:42:23.259Z</time></trkpt><trkpt lat="45.1191147" lon="7.9856923"><ele>429.6</ele><time>2026-04-18T13:42:24.26Z</time></trkpt><trkpt lat="45.1191488" lon="7.9858456"><ele>430.0</ele><time>2026-04-18T13:42:25.26Z</time></trkpt><trkpt lat="45.1192162" lon="7.9860146"><ele>433.0</ele><time>2026-04-18T13:42:26.259Z</time></trkpt><trkpt lat="45.1192837" lon="7.9861777"><ele>436.0</ele><time>2026-04-18T13:42:27.259Z</time></trkpt><trkpt lat="45.1193246" lon="7.9863135"><ele>439.0</ele><time>2026-04-18T13:42:28.259Z</time></trkpt><trkpt lat="45.1193719" lon="7.9864615"><ele>442.0</ele><time>2026-04-18T13:42:29.259Z</time></trkpt><trkpt lat="45.1194234" lon="7.9865923"><ele>442.8</ele><time>2026-04-18T13:42:30.259Z</time></trkpt><trkpt lat="45.1194812" lon="7.9867289"><ele>443.6</ele><time>2026-04-18T13:42:31.259Z</time></trkpt><trkpt lat="45.1195104" lon="7.9868634"><ele>444.40000000000003</ele><time>2026-04-18T13:42:32.259Z</time></trkpt><trkpt lat="45.1195255" lon="7.9869936"><ele>445.20000000000005</ele><time>2026-04-18T13:42:33.259Z</time></trkpt><trkpt lat="45.1195151" lon="7.9871164"><ele>446.0</ele><time>2026-04-18T13:42:34.26Z</time></trkpt><trkpt lat="45.1194603" lon="7.9872392"><ele>446.0</ele><time>2026-04-18T13:42:35.259Z</time></trkpt><trkpt lat="45.1194033" lon="7.9873789"><ele>446.0</ele><time>2026-04-18T13:42:36.259Z</time></trkpt><trkpt lat="45.1193335" lon="7.987452"><ele>446.0</ele><time>2026-04-18T13:42:37.26Z</time></trkpt><trkpt lat="45.119281" lon="7.9875173"><ele>446.0</ele><time>2026-04-18T13:42:39.259Z</time></trkpt><trkpt lat="45.1192675" lon="7.9876286"><ele>446.0</ele><time>2026-04-18T13:45:35.25Z</time></trkpt><trkpt lat="45.1192877" lon="7.9877763"><ele>447.20000000000005</ele><time>2026-04-18T13:45:37.25Z</time></trkpt><trkpt lat="45.1193151" lon="7.9879271"><ele>448.40000000000003</ele><time>2026-04-18T13:45:39.25Z</time></trkpt><trkpt lat="45.1193179" lon="7.9880965"><ele>449.6</ele><time>2026-04-18T13:45:41.25Z</time></trkpt><trkpt lat="45.1193286" lon="7.9882027"><ele>450.8</ele><time>2026-04-18T13:45:42.251Z</time></trkpt><trkpt lat="45.119349" lon="7.9883227"><ele>452.0</ele><time>2026-04-18T13:45:43.251Z</time></trkpt><trkpt lat="45.1193803" lon="7.988448"><ele>455.8</ele><time>2026-04-18T13:45:44.25Z</time></trkpt><trkpt lat="45.119421" lon="7.9885701"><ele>459.6</ele><time>2026-04-18T13:45:45.251Z</time></trkpt><trkpt lat="45.1194669" lon="7.9886994"><ele>463.40000000000003</ele><time>2026-04-18T13:45:46.25Z</time></trkpt><trkpt lat="45.1195395" lon="7.9887917"><ele>467.20000000000005</ele><time>2026-04-18T13:45:47.25Z</time></trkpt><trkpt lat="45.1196072" lon="7.9888829"><ele>471.0</ele><time>2026-04-18T13:45:48.25Z</time></trkpt><trkpt lat="45.1196755" lon="7.9889809"><ele>471.0</ele><time>2026-04-18T13:45:49.251Z</time></trkpt><trkpt lat="45.1197407" lon="7.9890938"><ele>471.0</ele><time>2026-04-18T13:45:50.251Z</time></trkpt><trkpt lat="45.1197977" lon="7.9892166"><ele>471.0</ele><time>2026-04-18T13:45:51.25Z</time></trkpt><trkpt lat="45.1198644" lon="7.9893509"><ele>471.0</ele><time>2026-04-18T13:45:52.25Z</time></trkpt><trkpt lat="45.1199443" lon="7.989477"><ele>471.0</ele><time>2026-04-18T13:45:53.25Z</time></trkpt><trkpt lat="45.1200155" lon="7.9896021"><ele>471.8</ele><time>2026-04-18T13:45:54.25Z</time></trkpt><trkpt lat="45.1200904" lon="7.9897276"><ele>472.6</ele><time>2026-04-18T13:45:55.25Z</time></trkpt><trkpt lat="45.1201638" lon="7.9898471"><ele>473.4</ele><time>2026-04-18T13:45:56.25Z</time></trkpt><trkpt lat="45.1202301" lon="7.9899654"><ele>474.2</ele><time>2026-04-18T13:45:57.25Z</time></trkpt><trkpt lat="45.1203002" lon="7.9900502"><ele>475.0</ele><time>2026-04-18T13:45:58.25Z</time></trkpt><trkpt lat="45.1203762" lon="7.9901004"><ele>475.0</ele><time>2026-04-18T13:45:59.25Z</time></trkpt><trkpt lat="45.1204726" lon="7.9901249"><ele>475.0</ele><time>2026-04-18T13:46:00.251Z</time></trkpt><trkpt lat="45.1205698" lon="7.9901573"><ele>475.0</ele><time>2026-04-18T13:46:01.25Z</time></trkpt><trkpt lat="45.1206584" lon="7.9901855"><ele>475.0</ele><time>2026-04-18T13:46:02.25Z</time></trkpt><trkpt lat="45.1207331" lon="7.9902071"><ele>475.0</ele><time>2026-04-18T13:46:03.25Z</time></trkpt><trkpt lat="45.1208083" lon="7.9903156"><ele>475.0</ele><time>2026-04-18T13:46:05.251Z</time></trkpt><trkpt lat="45.120821" lon="7.9904097"><ele>475.0</ele><time>2026-04-18T13:46:06.25Z</time></trkpt><trkpt lat="45.120817" lon="7.9905113"><ele>475.0</ele><time>2026-04-18T13:46:07.251Z</time></trkpt><trkpt lat="45.1207688" lon="7.9906209"><ele>475.0</ele><time>2026-04-18T13:46:08.25Z</time></trkpt><trkpt lat="45.120731" lon="7.990749"><ele>475.0</ele><time>2026-04-18T13:46:09.25Z</time></trkpt><trkpt lat="45.1207109" lon="7.9909237"><ele>472.5</ele><time>2026-04-18T13:46:10.251Z</time></trkpt><trkpt lat="45.1206644" lon="7.9910969"><ele>470.0</ele><time>2026-04-18T13:46:11.25Z</time></trkpt><trkpt lat="45.1206248" lon="7.9912646"><ele>467.5</ele><time>2026-04-18T13:46:12.25Z</time></trkpt><trkpt lat="45.1205882" lon="7.9914466"><ele>465.0</ele><time>2026-04-18T13:46:13.25Z</time></trkpt><trkpt lat="45.1205463" lon="7.9916486"><ele>461.5</ele><time>2026-04-18T13:46:14.251Z</time></trkpt><trkpt lat="45.12052" lon="7.9918312"><ele>458.0</ele><time>2026-04-18T13:46:15.251Z</time></trkpt><trkpt lat="45.1205268" lon="7.9920214"><ele>454.5</ele><time>2026-04-18T13:46:16.25Z</time></trkpt><trkpt lat="45.1205518" lon="7.9921814"><ele>451.0</ele><time>2026-04-18T13:46:17.25Z</time></trkpt><trkpt lat="45.1205838" lon="7.992329"><ele>451.00000000000006</ele><time>2026-04-18T13:46:18.251Z</time></trkpt><trkpt lat="45.1206127" lon="7.9924626"><ele>451.0</ele><time>2026-04-18T13:46:19.251Z</time></trkpt><trkpt lat="45.1206343" lon="7.9925721"><ele>451.0</ele><time>2026-04-18T13:46:20.25Z</time></trkpt><trkpt lat="45.1206566" lon="7.9926703"><ele>451.0</ele><time>2026-04-18T13:46:21.25Z</time></trkpt><trkpt lat="45.1206895" lon="7.9927774"><ele>451.00000000000006</ele><time>2026-04-18T13:46:22.25Z</time></trkpt><trkpt lat="45.1207283" lon="7.992907"><ele>451.0</ele><time>2026-04-18T13:46:23.251Z</time></trkpt><trkpt lat="45.1207651" lon="7.993055"><ele>455.25</ele><time>2026-04-18T13:46:24.25Z</time></trkpt><trkpt lat="45.1207952" lon="7.9932185"><ele>459.5</ele><time>2026-04-18T13:46:25.25Z</time></trkpt><trkpt lat="45.120824" lon="7.9933792"><ele>463.75</ele><time>2026-04-18T13:46:26.251Z</time></trkpt><trkpt lat="45.1208707" lon="7.9935395"><ele>468.0</ele><time>2026-04-18T13:46:27.25Z</time></trkpt><trkpt lat="45.1209413" lon="7.9936833"><ele>470.25</ele><time>2026-04-18T13:46:28.251Z</time></trkpt><trkpt lat="45.1210466" lon="7.9938079"><ele>472.5</ele><time>2026-04-18T13:46:29.25Z</time></trkpt><trkpt lat="45.1211648" lon="7.9939243"><ele>474.75</ele><time>2026-04-18T13:46:30.25Z</time></trkpt><trkpt lat="45.1212802" lon="7.9940422"><ele>477.0</ele><time>2026-04-18T13:46:31.25Z</time></trkpt><trkpt lat="45.1213847" lon="7.994162"><ele>475.0</ele><time>2026-04-18T13:46:32.251Z</time></trkpt><trkpt lat="45.1214959" lon="7.9942953"><ele>473.0</ele><time>2026-04-18T13:46:33.25Z</time></trkpt><trkpt lat="45.1215984" lon="7.9944475"><ele>471.0</ele><time>2026-04-18T13:46:34.25Z</time></trkpt><trkpt lat="45.1217058" lon="7.9945894"><ele>469.0</ele><time>2026-04-18T13:46:35.25Z</time></trkpt><trkpt lat="45.121823" lon="7.9947223"><ele>466.75</ele><time>2026-04-18T13:46:36.251Z</time></trkpt><trkpt lat="45.1219459" lon="7.9948305"><ele>464.5</ele><time>2026-04-18T13:46:37.25Z</time></trkpt><trkpt lat="45.1220705" lon="7.9949252"><ele>462.25</ele><time>2026-04-18T13:46:38.25Z</time></trkpt><trkpt lat="45.1221759" lon="7.9950086"><ele>460.0</ele><time>2026-04-18T13:46:39.251Z</time></trkpt><trkpt lat="45.1223011" lon="7.9950741"><ele>456.75</ele><time>2026-04-18T13:46:40.251Z</time></trkpt><trkpt lat="45.1224372" lon="7.9951281"><ele>453.5</ele><time>2026-04-18T13:46:41.251Z</time></trkpt><trkpt lat="45.1225801" lon="7.9951601"><ele>450.25</ele><time>2026-04-18T13:46:42.25Z</time></trkpt><trkpt lat="45.1227241" lon="7.9951798"><ele>447.0</ele><time>2026-04-18T13:46:43.25Z</time></trkpt><trkpt lat="45.1228585" lon="7.9951955"><ele>447.0</ele><time>2026-04-18T13:46:44.25Z</time></trkpt><trkpt lat="45.1229951" lon="7.9952237"><ele>447.0</ele><time>2026-04-18T13:46:45.251Z</time></trkpt><trkpt lat="45.1231149" lon="7.9952693"><ele>447.0</ele><time>2026-04-18T13:46:46.25Z</time></trkpt><trkpt lat="45.1232158" lon="7.9953535"><ele>447.0</ele><time>2026-04-18T13:46:47.25Z</time></trkpt><trkpt lat="45.1232974" lon="7.9954663"><ele>450.75</ele><time>2026-04-18T13:46:48.251Z</time></trkpt><trkpt lat="45.123345" lon="7.9956068"><ele>454.5</ele><time>2026-04-18T13:46:49.25Z</time></trkpt><trkpt lat="45.1233504" lon="7.9957704"><ele>458.25</ele><time>2026-04-18T13:46:50.25Z</time></trkpt><trkpt lat="45.1233265" lon="7.9959453"><ele>462.0</ele><time>2026-04-18T13:46:51.25Z</time></trkpt><trkpt lat="45.1232972" lon="7.9961344"><ele>462.5</ele><time>2026-04-18T13:46:52.25Z</time></trkpt><trkpt lat="45.1232593" lon="7.9963443"><ele>463.0</ele><time>2026-04-18T13:46:53.25Z</time></trkpt><trkpt lat="45.1232088" lon="7.9965466"><ele>463.5</ele><time>2026-04-18T13:46:54.25Z</time></trkpt><trkpt lat="45.1231708" lon="7.9967365"><ele>464.0</ele><time>2026-04-18T13:46:55.251Z</time></trkpt><trkpt lat="45.123136" lon="7.9969334"><ele>457.75</ele><time>2026-04-18T13:46:56.25Z</time></trkpt><trkpt lat="45.1231143" lon="7.997119"><ele>451.5</ele><time>2026-04-18T13:46:57.251Z</time></trkpt><trkpt lat="45.1231043" lon="7.9972938"><ele>445.25</ele><time>2026-04-18T13:46:58.251Z</time></trkpt><trkpt lat="45.1230863" lon="7.9974376"><ele>439.0</ele><time>2026-04-18T13:46:59.25Z</time></trkpt><trkpt lat="45.123065" lon="7.9975633"><ele>439.0</ele><time>2026-04-18T13:47:00.25Z</time></trkpt><trkpt lat="45.1230405" lon="7.9976699"><ele>439.0</ele><time>2026-04-18T13:47:01.251Z</time></trkpt><trkpt lat="45.1229984" lon="7.9977511"><ele>439.0</ele><time>2026-04-18T13:47:02.25Z</time></trkpt><trkpt lat="45.1229332" lon="7.9978262"><ele>439.0</ele><time>2026-04-18T13:47:03.251Z</time></trkpt><trkpt lat="45.122841" lon="7.9978981"><ele>439.0</ele><time>2026-04-18T13:47:04.25Z</time></trkpt><trkpt lat="45.1227271" lon="7.9979751"><ele>439.0</ele><time>2026-04-18T13:47:05.25Z</time></trkpt><trkpt lat="45.1226101" lon="7.9980582"><ele>439.0</ele><time>2026-04-18T13:47:06.25Z</time></trkpt><trkpt lat="45.1224895" lon="7.9981504"><ele>439.0</ele><time>2026-04-18T13:47:07.25Z</time></trkpt><trkpt lat="45.1223682" lon="7.9982488"><ele>439.0</ele><time>2026-04-18T13:47:08.251Z</time></trkpt><trkpt lat="45.1222526" lon="7.9983561"><ele>436.5</ele><time>2026-04-18T13:47:09.251Z</time></trkpt><trkpt lat="45.1221441" lon="7.9984651"><ele>434.0</ele><time>2026-04-18T13:47:10.251Z</time></trkpt><trkpt lat="45.1220367" lon="7.9985847"><ele>431.5</ele><time>2026-04-18T13:47:11.251Z</time></trkpt><trkpt lat="45.121944" lon="7.9987223"><ele>429.0</ele><time>2026-04-18T13:47:12.25Z</time></trkpt><trkpt lat="45.1218496" lon="7.9988481"><ele>429.0</ele><time>2026-04-18T13:47:13.25Z</time></trkpt><trkpt lat="45.1217621" lon="7.9989735"><ele>429.0</ele><time>2026-04-18T13:47:14.25Z</time></trkpt><trkpt lat="45.1216827" lon="7.9990839"><ele>429.0</ele><time>2026-04-18T13:47:15.25Z</time></trkpt><trkpt lat="45.1216105" lon="7.9991934"><ele>429.0</ele><time>2026-04-18T13:47:16.251Z</time></trkpt><trkpt lat="45.1215567" lon="7.9993185"><ele>429.0</ele><time>2026-04-18T13:47:17.25Z</time></trkpt><trkpt lat="45.1215273" lon="7.9994547"><ele>426.6</ele><time>2026-04-18T13:47:18.251Z</time></trkpt><trkpt lat="45.1215197" lon="7.9995987"><ele>424.2</ele><time>2026-04-18T13:47:19.25Z</time></trkpt><trkpt lat="45.1215235" lon="7.9997595"><ele>421.8</ele><time>2026-04-18T13:47:20.25Z</time></trkpt><trkpt lat="45.1215286" lon="7.9999118"><ele>419.40000000000003</ele><time>2026-04-18T13:47:21.25Z</time></trkpt><trkpt lat="45.1215089" lon="8.000066"><ele>417.0</ele><time>2026-04-18T13:47:22.251Z</time></trkpt><trkpt lat="45.1214703" lon="8.0002052"><ele>417.0</ele><time>2026-04-18T13:47:23.25Z</time></trkpt><trkpt lat="45.1214059" lon="8.0003402"><ele>417.0</ele><time>2026-04-18T13:47:24.25Z</time></trkpt><trkpt lat="45.1213258" lon="8.0004674"><ele>417.0</ele><time>2026-04-18T13:47:25.25Z</time></trkpt><trkpt lat="45.1212381" lon="8.0005858"><ele>417.0</ele><time>2026-04-18T13:47:26.25Z</time></trkpt><trkpt lat="45.1211406" lon="8.0006987"><ele>417.0</ele><time>2026-04-18T13:47:27.25Z</time></trkpt><trkpt lat="45.1210336" lon="8.0007879"><ele>417.0</ele><time>2026-04-18T13:47:28.251Z</time></trkpt><trkpt lat="45.120914" lon="8.000844"><ele>417.0</ele><time>2026-04-18T13:47:29.251Z</time></trkpt><trkpt lat="45.1207897" lon="8.0008949"><ele>417.0</ele><time>2026-04-18T13:47:30.25Z</time></trkpt><trkpt lat="45.1206708" lon="8.0009759"><ele>418.25</ele><time>2026-04-18T13:47:31.251Z</time></trkpt><trkpt lat="45.1205497" lon="8.0010742"><ele>419.5</ele><time>2026-04-18T13:47:32.251Z</time></trkpt><trkpt lat="45.1204252" lon="8.0011701"><ele>420.75</ele><time>2026-04-18T13:47:33.251Z</time></trkpt><trkpt lat="45.1203041" lon="8.0012692"><ele>422.0</ele><time>2026-04-18T13:47:34.25Z</time></trkpt><trkpt lat="45.1201848" lon="8.0013693"><ele>422.0</ele><time>2026-04-18T13:47:35.25Z</time></trkpt><trkpt lat="45.1200649" lon="8.0014751"><ele>422.0</ele><time>2026-04-18T13:47:36.251Z</time></trkpt><trkpt lat="45.1199516" lon="8.001573"><ele>422.0</ele><time>2026-04-18T13:47:37.251Z</time></trkpt><trkpt lat="45.119834" lon="8.0016619"><ele>422.0</ele><time>2026-04-18T13:47:38.251Z</time></trkpt><trkpt lat="45.1197304" lon="8.0017486"><ele>423.5</ele><time>2026-04-18T13:47:39.25Z</time></trkpt><trkpt lat="45.1196313" lon="8.0018224"><ele>425.0</ele><time>2026-04-18T13:47:40.251Z</time></trkpt><trkpt lat="45.119526" lon="8.0019151"><ele>426.5</ele><time>2026-04-18T13:47:41.25Z</time></trkpt><trkpt lat="45.119414" lon="8.0019803"><ele>428.0</ele><time>2026-04-18T13:47:42.25Z</time></trkpt><trkpt lat="45.1193096" lon="8.0020245"><ele>428.0</ele><time>2026-04-18T13:47:43.25Z</time></trkpt><trkpt lat="45.1191986" lon="8.0020462"><ele>428.0</ele><time>2026-04-18T13:47:44.25Z</time></trkpt><trkpt lat="45.1190921" lon="8.0020469"><ele>428.0</ele><time>2026-04-18T13:47:45.251Z</time></trkpt><trkpt lat="45.1189721" lon="8.0020594"><ele>428.0</ele><time>2026-04-18T13:47:46.25Z</time></trkpt><trkpt lat="45.1188499" lon="8.0020764"><ele>429.4</ele><time>2026-04-18T13:47:47.25Z</time></trkpt><trkpt lat="45.1187363" lon="8.0021081"><ele>430.79999999999995</ele><time>2026-04-18T13:47:48.25Z</time></trkpt><trkpt lat="45.1186319" lon="8.0021647"><ele>432.2</ele><time>2026-04-18T13:47:49.25Z</time></trkpt><trkpt lat="45.1185282" lon="8.0022001"><ele>433.6</ele><time>2026-04-18T13:47:50.25Z</time></trkpt><trkpt lat="45.1184228" lon="8.002235"><ele>435.0</ele><time>2026-04-18T13:47:51.25Z</time></trkpt><trkpt lat="45.1183212" lon="8.0022739"><ele>437.8</ele><time>2026-04-18T13:47:52.251Z</time></trkpt><trkpt lat="45.118221" lon="8.0022843"><ele>440.6</ele><time>2026-04-18T13:47:53.25Z</time></trkpt><trkpt lat="45.1181149" lon="8.002271"><ele>443.4</ele><time>2026-04-18T13:47:54.251Z</time></trkpt><trkpt lat="45.1180011" lon="8.0022533"><ele>446.2</ele><time>2026-04-18T13:47:55.25Z</time></trkpt><trkpt lat="45.1178929" lon="8.002251"><ele>449.0</ele><time>2026-04-18T13:47:56.25Z</time></trkpt><trkpt lat="45.1177648" lon="8.0022698"><ele>449.0</ele><time>2026-04-18T13:47:57.251Z</time></trkpt><trkpt lat="45.1176373" lon="8.0023079"><ele>449.0</ele><time>2026-04-18T13:47:58.25Z</time></trkpt><trkpt lat="45.117522" lon="8.0023801"><ele>449.0</ele><time>2026-04-18T13:47:59.251Z</time></trkpt><trkpt lat="45.1174142" lon="8.0024454"><ele>449.0</ele><time>2026-04-18T13:48:00.251Z</time></trkpt><trkpt lat="45.1173126" lon="8.0025057"><ele>446.66666666666663</ele><time>2026-04-18T13:48:01.25Z</time></trkpt><trkpt lat="45.117228" lon="8.0025579"><ele>444.3333333333333</ele><time>2026-04-18T13:48:02.25Z</time></trkpt><trkpt lat="45.1171514" lon="8.0026052"><ele>442.0</ele><time>2026-04-18T13:48:03.25Z</time></trkpt><trkpt lat="45.1170871" lon="8.002674"><ele>439.66666666666663</ele><time>2026-04-18T13:48:04.25Z</time></trkpt><trkpt lat="45.1170297" lon="8.0027591"><ele>437.3333333333333</ele><time>2026-04-18T13:48:05.25Z</time></trkpt><trkpt lat="45.1169899" lon="8.0028563"><ele>435.0</ele><time>2026-04-18T13:48:06.25Z</time></trkpt><trkpt lat="45.1169499" lon="8.0029741"><ele>435.0</ele><time>2026-04-18T13:48:07.25Z</time></trkpt><trkpt lat="45.1168986" lon="8.0030894"><ele>435.0</ele><time>2026-04-18T13:48:08.25Z</time></trkpt><trkpt lat="45.1168368" lon="8.0032094"><ele>435.0</ele><time>2026-04-18T13:48:09.251Z</time></trkpt><trkpt lat="45.1167661" lon="8.0033325"><ele>435.0</ele><time>2026-04-18T13:48:10.251Z</time></trkpt><trkpt lat="45.1166907" lon="8.0034466"><ele>435.0</ele><time>2026-04-18T13:48:11.25Z</time></trkpt><trkpt lat="45.1166229" lon="8.003569"><ele>432.6</ele><time>2026-04-18T13:48:12.251Z</time></trkpt><trkpt lat="45.1165412" lon="8.0036764"><ele>430.2</ele><time>2026-04-18T13:48:13.25Z</time></trkpt><trkpt lat="45.1164505" lon="8.003768"><ele>427.79999999999995</ele><time>2026-04-18T13:48:14.25Z</time></trkpt><trkpt lat="45.1163689" lon="8.0038475"><ele>425.4</ele><time>2026-04-18T13:48:15.25Z</time></trkpt><trkpt lat="45.1162896" lon="8.0039148"><ele>423.0</ele><time>2026-04-18T13:48:16.25Z</time></trkpt><trkpt lat="45.116217" lon="8.0039592"><ele>423.0</ele><time>2026-04-18T13:48:17.25Z</time></trkpt><trkpt lat="45.1161202" lon="8.0040332"><ele>423.0</ele><time>2026-04-18T13:48:19.25Z</time></trkpt><trkpt lat="45.1160757" lon="8.0041806"><ele>423.0</ele><time>2026-04-18T13:48:21.25Z</time></trkpt><trkpt lat="45.1160673" lon="8.0042746"><ele>423.0</ele><time>2026-04-18T13:48:22.251Z</time></trkpt><trkpt lat="45.1160547" lon="8.0043722"><ele>423.0</ele><time>2026-04-18T13:48:23.251Z</time></trkpt><trkpt lat="45.1160526" lon="8.0044712"><ele>423.0</ele><time>2026-04-18T13:48:24.25Z</time></trkpt><trkpt lat="45.1160618" lon="8.0045794"><ele>426.59999999999997</ele><time>2026-04-18T13:48:25.25Z</time></trkpt><trkpt lat="45.1160947" lon="8.0046967"><ele>430.2</ele><time>2026-04-18T13:48:26.251Z</time></trkpt><trkpt lat="45.1161432" lon="8.0047961"><ele>433.8</ele><time>2026-04-18T13:48:27.25Z</time></trkpt><trkpt lat="45.1162042" lon="8.0049009"><ele>437.4</ele><time>2026-04-18T13:48:28.25Z</time></trkpt><trkpt lat="45.1162773" lon="8.0050045"><ele>441.0</ele><time>2026-04-18T13:48:29.25Z</time></trkpt><trkpt lat="45.116356" lon="8.0051055"><ele>444.4</ele><time>2026-04-18T13:48:30.251Z</time></trkpt><trkpt lat="45.1164384" lon="8.0052011"><ele>447.8</ele><time>2026-04-18T13:48:31.25Z</time></trkpt><trkpt lat="45.1165218" lon="8.0052953"><ele>451.19999999999993</ele><time>2026-04-18T13:48:32.25Z</time></trkpt><trkpt lat="45.1166098" lon="8.0053563"><ele>454.59999999999997</ele><time>2026-04-18T13:48:33.25Z</time></trkpt><trkpt lat="45.1167068" lon="8.005387"><ele>458.0</ele><time>2026-04-18T13:48:34.25Z</time></trkpt><trkpt lat="45.116801" lon="8.0054152"><ele>452.16666666666663</ele><time>2026-04-18T13:48:35.25Z</time></trkpt><trkpt lat="45.1168788" lon="8.0054471"><ele>446.3333333333333</ele><time>2026-04-18T13:48:36.25Z</time></trkpt><trkpt lat="45.1169583" lon="8.0054839"><ele>440.5</ele><time>2026-04-18T13:48:37.25Z</time></trkpt><trkpt lat="45.1170256" lon="8.0055375"><ele>434.66666666666663</ele><time>2026-04-18T13:48:38.25Z</time></trkpt><trkpt lat="45.1170797" lon="8.0056075"><ele>428.8333333333333</ele><time>2026-04-18T13:48:39.25Z</time></trkpt><trkpt lat="45.1171234" lon="8.0056872"><ele>423.0</ele><time>2026-04-18T13:48:40.25Z</time></trkpt><trkpt lat="45.1171556" lon="8.0058006"><ele>425.59999999999997</ele><time>2026-04-18T13:48:41.25Z</time></trkpt><trkpt lat="45.117166" lon="8.005909"><ele>428.2</ele><time>2026-04-18T13:48:42.25Z</time></trkpt><trkpt lat="45.1171583" lon="8.0060287"><ele>430.8</ele><time>2026-04-18T13:48:43.25Z</time></trkpt><trkpt lat="45.1171003" lon="8.0061376"><ele>433.4</ele><time>2026-04-18T13:48:44.25Z</time></trkpt><trkpt lat="45.1170201" lon="8.0062196"><ele>436.0</ele><time>2026-04-18T13:48:45.25Z</time></trkpt><trkpt lat="45.1169302" lon="8.0063004"><ele>436.0</ele><time>2026-04-18T13:48:46.25Z</time></trkpt><trkpt lat="45.1168377" lon="8.0063759"><ele>436.0</ele><time>2026-04-18T13:48:47.25Z</time></trkpt><trkpt lat="45.1167521" lon="8.0064697"><ele>436.0</ele><time>2026-04-18T13:48:48.25Z</time></trkpt><trkpt lat="45.1166823" lon="8.0065865"><ele>436.0</ele><time>2026-04-18T13:48:49.25Z</time></trkpt><trkpt lat="45.1166081" lon="8.0067083"><ele>436.0</ele><time>2026-04-18T13:48:50.25Z</time></trkpt><trkpt lat="45.116588" lon="8.0068971"><ele>435.0</ele><time>2026-04-18T13:48:51.25Z</time></trkpt><trkpt lat="45.1165741" lon="8.0070674"><ele>434.0</ele><time>2026-04-18T13:48:52.25Z</time></trkpt><trkpt lat="45.1165837" lon="8.00724"><ele>433.0</ele><time>2026-04-18T13:48:53.25Z</time></trkpt><trkpt lat="45.1166086" lon="8.0074162"><ele>432.0</ele><time>2026-04-18T13:48:54.25Z</time></trkpt><trkpt lat="45.1166374" lon="8.0075893"><ele>431.0</ele><time>2026-04-18T13:48:55.251Z</time></trkpt><trkpt lat="45.1166506" lon="8.007745"><ele>430.0</ele><time>2026-04-18T13:48:56.251Z</time></trkpt><trkpt lat="45.1166407" lon="8.0079113"><ele>429.0</ele><time>2026-04-18T13:48:57.251Z</time></trkpt><trkpt lat="45.1166128" lon="8.0080723"><ele>428.0</ele><time>2026-04-18T13:48:58.251Z</time></trkpt><trkpt lat="45.1165709" lon="8.0082177"><ele>436.5</ele><time>2026-04-18T13:48:59.25Z</time></trkpt><trkpt lat="45.1164945" lon="8.0083623"><ele>445.0</ele><time>2026-04-18T13:49:00.251Z</time></trkpt><trkpt lat="45.1164281" lon="8.0085233"><ele>453.5</ele><time>2026-04-18T13:49:01.25Z</time></trkpt><trkpt lat="45.1163626" lon="8.0087012"><ele>462.0</ele><time>2026-04-18T13:49:02.25Z</time></trkpt><trkpt lat="45.116303" lon="8.0088774"><ele>462.0</ele><time>2026-04-18T13:49:03.25Z</time></trkpt><trkpt lat="45.1162438" lon="8.0090582"><ele>462.0</ele><time>2026-04-18T13:49:04.25Z</time></trkpt><trkpt lat="45.1161814" lon="8.0092329"><ele>462.0</ele><time>2026-04-18T13:49:05.251Z</time></trkpt><trkpt lat="45.1161235" lon="8.0094085"><ele>462.0</ele><time>2026-04-18T13:49:06.25Z</time></trkpt><trkpt lat="45.1160767" lon="8.0095798"><ele>457.25</ele><time>2026-04-18T13:49:07.25Z</time></trkpt><trkpt lat="45.1160543" lon="8.0097637"><ele>452.5</ele><time>2026-04-18T13:49:08.251Z</time></trkpt><trkpt lat="45.116054" lon="8.0099457"><ele>447.75</ele><time>2026-04-18T13:49:09.25Z</time></trkpt><trkpt lat="45.1160726" lon="8.0101166"><ele>443.0</ele><time>2026-04-18T13:49:10.25Z</time></trkpt><trkpt lat="45.1161282" lon="8.0102751"><ele>441.75</ele><time>2026-04-18T13:49:11.25Z</time></trkpt><trkpt lat="45.1161997" lon="8.0104291"><ele>440.5</ele><time>2026-04-18T13:49:12.25Z</time></trkpt><trkpt lat="45.1162831" lon="8.0105601"><ele>439.25</ele><time>2026-04-18T13:49:13.251Z</time></trkpt><trkpt lat="45.1163552" lon="8.0106977"><ele>438.0</ele><time>2026-04-18T13:49:14.25Z</time></trkpt><trkpt lat="45.1164113" lon="8.0108377"><ele>438.0</ele><time>2026-04-18T13:49:15.25Z</time></trkpt><trkpt lat="45.1164628" lon="8.0110095"><ele>438.0</ele><time>2026-04-18T13:49:16.25Z</time></trkpt><trkpt lat="45.1164617" lon="8.0111966"><ele>438.0</ele><time>2026-04-18T13:49:17.251Z</time></trkpt><trkpt lat="45.1164588" lon="8.0113755"><ele>438.0</ele><time>2026-04-18T13:49:18.25Z</time></trkpt><trkpt lat="45.1164594" lon="8.0115414"><ele>438.59999999999997</ele><time>2026-04-18T13:49:19.25Z</time></trkpt><trkpt lat="45.1164745" lon="8.0116936"><ele>439.19999999999993</ele><time>2026-04-18T13:49:20.25Z</time></trkpt><trkpt lat="45.1164916" lon="8.0118319"><ele>439.8</ele><time>2026-04-18T13:49:21.25Z</time></trkpt><trkpt lat="45.1165135" lon="8.0119647"><ele>440.4</ele><time>2026-04-18T13:49:22.251Z</time></trkpt><trkpt lat="45.1165419" lon="8.0120916"><ele>441.0</ele><time>2026-04-18T13:49:23.251Z</time></trkpt><trkpt lat="45.1165741" lon="8.0121992"><ele>436.20000000000005</ele><time>2026-04-18T13:49:24.25Z</time></trkpt><trkpt lat="45.116635" lon="8.0122891"><ele>431.40000000000003</ele><time>2026-04-18T13:49:25.251Z</time></trkpt><trkpt lat="45.1167193" lon="8.0123669"><ele>426.6</ele><time>2026-04-18T13:49:26.25Z</time></trkpt><trkpt lat="45.1168075" lon="8.0124337"><ele>421.8</ele><time>2026-04-18T13:49:27.25Z</time></trkpt><trkpt lat="45.1169358" lon="8.0124972"><ele>417.0</ele><time>2026-04-18T13:49:28.25Z</time></trkpt><trkpt lat="45.1170689" lon="8.0125593"><ele>417.0</ele><time>2026-04-18T13:49:29.25Z</time></trkpt><trkpt lat="45.1172048" lon="8.0126146"><ele>417.0</ele><time>2026-04-18T13:49:30.25Z</time></trkpt><trkpt lat="45.1173524" lon="8.0126714"><ele>417.0</ele><time>2026-04-18T13:49:31.25Z</time></trkpt><trkpt lat="45.1174869" lon="8.0127291"><ele>417.0</ele><time>2026-04-18T13:49:32.25Z</time></trkpt><trkpt lat="45.1176121" lon="8.0127871"><ele>413.20000000000005</ele><time>2026-04-18T13:49:33.25Z</time></trkpt><trkpt lat="45.1177222" lon="8.0128093"><ele>409.4</ele><time>2026-04-18T13:49:34.25Z</time></trkpt><trkpt lat="45.1178331" lon="8.0128246"><ele>405.6</ele><time>2026-04-18T13:49:35.25Z</time></trkpt><trkpt lat="45.1179441" lon="8.0128694"><ele>401.79999999999995</ele><time>2026-04-18T13:49:36.251Z</time></trkpt><trkpt lat="45.1180315" lon="8.0129519"><ele>398.0</ele><time>2026-04-18T13:49:37.251Z</time></trkpt><trkpt lat="45.1181144" lon="8.0130305"><ele>398.0</ele><time>2026-04-18T13:49:38.251Z</time></trkpt><trkpt lat="45.1182032" lon="8.0131147"><ele>398.0</ele><time>2026-04-18T13:49:39.251Z</time></trkpt><trkpt lat="45.1183108" lon="8.0131892"><ele>398.0</ele><time>2026-04-18T13:49:40.25Z</time></trkpt><trkpt lat="45.1184283" lon="8.0132561"><ele>398.0</ele><time>2026-04-18T13:49:41.25Z</time></trkpt><trkpt lat="45.1185392" lon="8.0133405"><ele>398.5</ele><time>2026-04-18T13:49:42.25Z</time></trkpt><trkpt lat="45.1186313" lon="8.0134435"><ele>399.0</ele><time>2026-04-18T13:49:43.25Z</time></trkpt><trkpt lat="45.1187133" lon="8.0135507"><ele>399.5</ele><time>2026-04-18T13:49:44.25Z</time></trkpt><trkpt lat="45.1187949" lon="8.013675"><ele>400.0</ele><time>2026-04-18T13:49:45.251Z</time></trkpt><trkpt lat="45.1188968" lon="8.0137761"><ele>400.0</ele><time>2026-04-18T13:49:46.25Z</time></trkpt><trkpt lat="45.1190088" lon="8.0138702"><ele>400.0</ele><time>2026-04-18T13:49:47.25Z</time></trkpt><trkpt lat="45.119136" lon="8.0139717"><ele>400.0</ele><time>2026-04-18T13:49:48.25Z</time></trkpt><trkpt lat="45.119267" lon="8.0140765"><ele>400.0</ele><time>2026-04-18T13:49:49.25Z</time></trkpt><trkpt lat="45.1193985" lon="8.0141897"><ele>399.0</ele><time>2026-04-18T13:49:50.251Z</time></trkpt><trkpt lat="45.1195298" lon="8.0143105"><ele>398.0</ele><time>2026-04-18T13:49:51.25Z</time></trkpt><trkpt lat="45.1196697" lon="8.0144371"><ele>397.0</ele><time>2026-04-18T13:49:52.25Z</time></trkpt><trkpt lat="45.1198132" lon="8.0145479"><ele>399.0</ele><time>2026-04-18T13:49:53.25Z</time></trkpt><trkpt lat="45.1199491" lon="8.0146542"><ele>401.0</ele><time>2026-04-18T13:49:54.25Z</time></trkpt><trkpt lat="45.1200847" lon="8.0147496"><ele>403.0</ele><time>2026-04-18T13:49:55.25Z</time></trkpt><trkpt lat="45.1202106" lon="8.014816"><ele>405.0</ele><time>2026-04-18T13:49:56.25Z</time></trkpt><trkpt lat="45.1203348" lon="8.0148856"><ele>405.0</ele><time>2026-04-18T13:49:57.25Z</time></trkpt><trkpt lat="45.120433" lon="8.0149228"><ele>405.0</ele><time>2026-04-18T13:49:58.25Z</time></trkpt><trkpt lat="45.1205157" lon="8.0149718"><ele>405.0</ele><time>2026-04-18T13:49:59.25Z</time></trkpt><trkpt lat="45.1205851" lon="8.0150388"><ele>405.0</ele><time>2026-04-18T13:50:00.25Z</time></trkpt><trkpt lat="45.1206421" lon="8.0151161"><ele>405.0</ele><time>2026-04-18T13:50:01.25Z</time></trkpt><trkpt lat="45.1207038" lon="8.0152063"><ele>405.0</ele><time>2026-04-18T13:50:02.25Z</time></trkpt><trkpt lat="45.1207789" lon="8.0152959"><ele>406.0</ele><time>2026-04-18T13:50:03.25Z</time></trkpt><trkpt lat="45.1208563" lon="8.0153619"><ele>407.0</ele><time>2026-04-18T13:50:04.25Z</time></trkpt><trkpt lat="45.1209532" lon="8.0154054"><ele>408.0</ele><time>2026-04-18T13:50:05.25Z</time></trkpt><trkpt lat="45.1210592" lon="8.0154701"><ele>409.0</ele><time>2026-04-18T13:50:06.25Z</time></trkpt><trkpt lat="45.1211757" lon="8.015513"><ele>410.0</ele><time>2026-04-18T13:50:07.25Z</time></trkpt><trkpt lat="45.121289" lon="8.0155564"><ele>410.0</ele><time>2026-04-18T13:50:08.25Z</time></trkpt><trkpt lat="45.1214065" lon="8.0155959"><ele>410.0</ele><time>2026-04-18T13:50:09.25Z</time></trkpt><trkpt lat="45.121523" lon="8.0156141"><ele>410.0</ele><time>2026-04-18T13:50:10.25Z</time></trkpt><trkpt lat="45.1216537" lon="8.0156329"><ele>410.0</ele><time>2026-04-18T13:50:11.25Z</time></trkpt><trkpt lat="45.1217826" lon="8.0156209"><ele>405.75</ele><time>2026-04-18T13:50:12.25Z</time></trkpt><trkpt lat="45.1219121" lon="8.0155943"><ele>401.5</ele><time>2026-04-18T13:50:13.25Z</time></trkpt><trkpt lat="45.1220342" lon="8.0155769"><ele>397.25</ele><time>2026-04-18T13:50:14.25Z</time></trkpt><trkpt lat="45.1221569" lon="8.0155615"><ele>393.0</ele><time>2026-04-18T13:50:15.25Z</time></trkpt><trkpt lat="45.1222751" lon="8.0155472"><ele>393.0</ele><time>2026-04-18T13:50:16.25Z</time></trkpt><trkpt lat="45.122367" lon="8.0154974"><ele>393.0</ele><time>2026-04-18T13:50:17.251Z</time></trkpt><trkpt lat="45.1225106" lon="8.0154384"><ele>393.0</ele><time>2026-04-18T13:50:18.251Z</time></trkpt><trkpt lat="45.1226049" lon="8.0153622"><ele>393.0</ele><time>2026-04-18T13:50:19.25Z</time></trkpt><trkpt lat="45.122722" lon="8.0152832"><ele>395.0</ele><time>2026-04-18T13:50:20.251Z</time></trkpt><trkpt lat="45.1228398" lon="8.0152081"><ele>397.0</ele><time>2026-04-18T13:50:21.251Z</time></trkpt><trkpt lat="45.1229582" lon="8.0151418"><ele>399.0</ele><time>2026-04-18T13:50:22.251Z</time></trkpt><trkpt lat="45.1230716" lon="8.0150848"><ele>401.0</ele><time>2026-04-18T13:50:23.25Z</time></trkpt><trkpt lat="45.123176" lon="8.0150296"><ele>401.25</ele><time>2026-04-18T13:50:24.251Z</time></trkpt><trkpt lat="45.1232841" lon="8.014965"><ele>401.5</ele><time>2026-04-18T13:50:25.25Z</time></trkpt><trkpt lat="45.1233942" lon="8.0148969"><ele>401.75</ele><time>2026-04-18T13:50:26.25Z</time></trkpt><trkpt lat="45.1235088" lon="8.0148132"><ele>402.0</ele><time>2026-04-18T13:50:27.25Z</time></trkpt><trkpt lat="45.1236171" lon="8.0147321"><ele>402.0</ele><time>2026-04-18T13:50:28.251Z</time></trkpt><trkpt lat="45.1237234" lon="8.0146661"><ele>402.0</ele><time>2026-04-18T13:50:29.25Z</time></trkpt><trkpt lat="45.1238325" lon="8.0146158"><ele>402.0</ele><time>2026-04-18T13:50:30.25Z</time></trkpt><trkpt lat="45.1239538" lon="8.0145942"><ele>402.0</ele><time>2026-04-18T13:50:31.25Z</time></trkpt><trkpt lat="45.124068" lon="8.014578"><ele>402.0</ele><time>2026-04-18T13:50:32.25Z</time></trkpt><trkpt lat="45.1242052" lon="8.014614"><ele>402.0</ele><time>2026-04-18T13:50:33.25Z</time></trkpt><trkpt lat="45.1243251" lon="8.0146281"><ele>402.0</ele><time>2026-04-18T13:50:34.25Z</time></trkpt><trkpt lat="45.1244452" lon="8.0146196"><ele>402.0</ele><time>2026-04-18T13:50:35.251Z</time></trkpt><trkpt lat="45.1245702" lon="8.0145845"><ele>402.0</ele><time>2026-04-18T13:50:36.251Z</time></trkpt><trkpt lat="45.1247067" lon="8.0145206"><ele>402.0</ele><time>2026-04-18T13:50:37.25Z</time></trkpt><trkpt lat="45.1248396" lon="8.0144477"><ele>402.0</ele><time>2026-04-18T13:50:38.25Z</time></trkpt><trkpt lat="45.1249719" lon="8.0143855"><ele>402.0</ele><time>2026-04-18T13:50:39.25Z</time></trkpt><trkpt lat="45.1251009" lon="8.0143192"><ele>400.25</ele><time>2026-04-18T13:50:40.25Z</time></trkpt><trkpt lat="45.1252136" lon="8.0142627"><ele>398.5</ele><time>2026-04-18T13:50:41.25Z</time></trkpt><trkpt lat="45.1253265" lon="8.0142002"><ele>396.75</ele><time>2026-04-18T13:50:42.25Z</time></trkpt><trkpt lat="45.1254367" lon="8.0141265"><ele>395.0</ele><time>2026-04-18T13:50:43.25Z</time></trkpt><trkpt lat="45.1255426" lon="8.014027"><ele>395.0</ele><time>2026-04-18T13:50:44.25Z</time></trkpt><trkpt lat="45.125629" lon="8.0139102"><ele>395.0</ele><time>2026-04-18T13:50:45.251Z</time></trkpt><trkpt lat="45.1257089" lon="8.0137923"><ele>395.0</ele><time>2026-04-18T13:50:46.251Z</time></trkpt><trkpt lat="45.1257803" lon="8.0136812"><ele>395.0</ele><time>2026-04-18T13:50:47.25Z</time></trkpt><trkpt lat="45.1258558" lon="8.0135959"><ele>395.0</ele><time>2026-04-18T13:50:48.251Z</time></trkpt><trkpt lat="45.1259341" lon="8.0135343"><ele>397.4</ele><time>2026-04-18T13:50:49.251Z</time></trkpt><trkpt lat="45.1260164" lon="8.013504"><ele>399.8</ele><time>2026-04-18T13:50:50.25Z</time></trkpt><trkpt lat="45.1260956" lon="8.0134966"><ele>402.20000000000005</ele><time>2026-04-18T13:50:51.25Z</time></trkpt><trkpt lat="45.1261882" lon="8.0134905"><ele>404.6</ele><time>2026-04-18T13:50:52.251Z</time></trkpt><trkpt lat="45.1262837" lon="8.0134754"><ele>407.0</ele><time>2026-04-18T13:50:53.25Z</time></trkpt><trkpt lat="45.1263814" lon="8.0134434"><ele>407.0</ele><time>2026-04-18T13:50:54.25Z</time></trkpt><trkpt lat="45.1264778" lon="8.0133972"><ele>407.0</ele><time>2026-04-18T13:50:55.25Z</time></trkpt><trkpt lat="45.1265615" lon="8.0133271"><ele>407.0</ele><time>2026-04-18T13:50:56.25Z</time></trkpt><trkpt lat="45.1266491" lon="8.0132487"><ele>407.0</ele><time>2026-04-18T13:50:57.25Z</time></trkpt><trkpt lat="45.1267357" lon="8.0131781"><ele>407.0</ele><time>2026-04-18T13:50:58.25Z</time></trkpt><trkpt lat="45.1268216" lon="8.0131013"><ele>402.8</ele><time>2026-04-18T13:50:59.251Z</time></trkpt><trkpt lat="45.1269347" lon="8.0130441"><ele>398.6</ele><time>2026-04-18T13:51:00.251Z</time></trkpt><trkpt lat="45.1270361" lon="8.0129803"><ele>394.40000000000003</ele><time>2026-04-18T13:51:01.251Z</time></trkpt><trkpt lat="45.1271354" lon="8.012924"><ele>390.20000000000005</ele><time>2026-04-18T13:51:02.25Z</time></trkpt><trkpt lat="45.1272354" lon="8.01287"><ele>386.0</ele><time>2026-04-18T13:51:03.25Z</time></trkpt><trkpt lat="45.1273305" lon="8.0128144"><ele>385.99999999999994</ele><time>2026-04-18T13:51:04.25Z</time></trkpt><trkpt lat="45.1274171" lon="8.0127951"><ele>386.0</ele><time>2026-04-18T13:51:05.251Z</time></trkpt><trkpt lat="45.1274835" lon="8.0127169"><ele>386.0</ele><time>2026-04-18T13:51:06.25Z</time></trkpt><trkpt lat="45.1275265" lon="8.0126162"><ele>386.0</ele><time>2026-04-18T13:51:07.251Z</time></trkpt><trkpt lat="45.1275677" lon="8.0125018"><ele>385.99999999999994</ele><time>2026-04-18T13:51:08.25Z</time></trkpt><trkpt lat="45.12759" lon="8.012369"><ele>386.0</ele><time>2026-04-18T13:51:09.25Z</time></trkpt><trkpt lat="45.1276066" lon="8.0122415"><ele>385.99999999999994</ele><time>2026-04-18T13:51:10.25Z</time></trkpt><trkpt lat="45.1276023" lon="8.0120982"><ele>386.0</ele><time>2026-04-18T13:51:11.25Z</time></trkpt><trkpt lat="45.1275852" lon="8.0119605"><ele>386.0</ele><time>2026-04-18T13:51:12.25Z</time></trkpt><trkpt lat="45.1275703" lon="8.0118379"><ele>386.0</ele><time>2026-04-18T13:51:13.25Z</time></trkpt><trkpt lat="45.1275523" lon="8.0117412"><ele>385.99999999999994</ele><time>2026-04-18T13:51:14.251Z</time></trkpt><trkpt lat="45.1275423" lon="8.0116489"><ele>386.0</ele><time>2026-04-18T13:51:15.25Z</time></trkpt><trkpt lat="45.1275604" lon="8.0115228"><ele>385.99999999999994</ele><time>2026-04-18T13:51:17.25Z</time></trkpt><trkpt lat="45.1276355" lon="8.011543"><ele>386.0</ele><time>2026-04-18T13:51:19.25Z</time></trkpt><trkpt lat="45.127726" lon="8.0116618"><ele>386.0</ele><time>2026-04-18T13:51:21.25Z</time></trkpt><trkpt lat="45.1277822" lon="8.0117289"><ele>386.0</ele><time>2026-04-18T13:51:22.25Z</time></trkpt><trkpt lat="45.12785" lon="8.0117832"><ele>385.99999999999994</ele><time>2026-04-18T13:51:23.251Z</time></trkpt><trkpt lat="45.1279202" lon="8.0118262"><ele>386.0</ele><time>2026-04-18T13:51:24.25Z</time></trkpt><trkpt lat="45.128014" lon="8.0118415"><ele>385.99999999999994</ele><time>2026-04-18T13:51:25.25Z</time></trkpt><trkpt lat="45.1281095" lon="8.0118495"><ele>386.0</ele><time>2026-04-18T13:51:26.251Z</time></trkpt><trkpt lat="45.128181" lon="8.0118853"><ele>386.0</ele><time>2026-04-18T13:51:27.25Z</time></trkpt><trkpt lat="45.1282425" lon="8.0119537"><ele>386.0</ele><time>2026-04-18T13:51:28.25Z</time></trkpt><trkpt lat="45.1282971" lon="8.0120343"><ele>385.99999999999994</ele><time>2026-04-18T13:51:29.25Z</time></trkpt><trkpt lat="45.1283789" lon="8.0121056"><ele>386.0</ele><time>2026-04-18T13:51:30.25Z</time></trkpt><trkpt lat="45.1284644" lon="8.0121755"><ele>383.75</ele><time>2026-04-18T13:51:31.25Z</time></trkpt><trkpt lat="45.1285587" lon="8.0122539"><ele>381.5</ele><time>2026-04-18T13:51:32.25Z</time></trkpt><trkpt lat="45.1286539" lon="8.012323"><ele>379.25</ele><time>2026-04-18T13:51:33.251Z</time></trkpt><trkpt lat="45.1287725" lon="8.0123657"><ele>377.0</ele><time>2026-04-18T13:51:34.251Z</time></trkpt><trkpt lat="45.1288917" lon="8.0123845"><ele>377.0</ele><time>2026-04-18T13:51:35.25Z</time></trkpt><trkpt lat="45.1290137" lon="8.0123849"><ele>377.0</ele><time>2026-04-18T13:51:36.25Z</time></trkpt><trkpt lat="45.129131" lon="8.0123864"><ele>377.0</ele><time>2026-04-18T13:51:37.251Z</time></trkpt><trkpt lat="45.1292538" lon="8.0123923"><ele>377.0</ele><time>2026-04-18T13:51:38.251Z</time></trkpt><trkpt lat="45.1293718" lon="8.0124044"><ele>378.5</ele><time>2026-04-18T13:51:39.251Z</time></trkpt><trkpt lat="45.1294929" lon="8.0124093"><ele>380.0</ele><time>2026-04-18T13:51:40.251Z</time></trkpt><trkpt lat="45.1296195" lon="8.0124136"><ele>381.5</ele><time>2026-04-18T13:51:41.251Z</time></trkpt><trkpt lat="45.1297405" lon="8.0124078"><ele>383.0</ele><time>2026-04-18T13:51:42.251Z</time></trkpt><trkpt lat="45.129845" lon="8.012373"><ele>382.0</ele><time>2026-04-18T13:51:43.25Z</time></trkpt><trkpt lat="45.1299387" lon="8.0123459"><ele>381.0</ele><time>2026-04-18T13:51:44.25Z</time></trkpt><trkpt lat="45.1300313" lon="8.0123332"><ele>380.0</ele><time>2026-04-18T13:51:45.25Z</time></trkpt><trkpt lat="45.1301146" lon="8.0123541"><ele>379.0</ele><time>2026-04-18T13:51:46.25Z</time></trkpt><trkpt lat="45.1302015" lon="8.0123992"><ele>378.0</ele><time>2026-04-18T13:51:47.25Z</time></trkpt><trkpt lat="45.1303015" lon="8.012491"><ele>377.5</ele><time>2026-04-18T13:51:48.25Z</time></trkpt><trkpt lat="45.1303921" lon="8.0125635"><ele>377.0</ele><time>2026-04-18T13:51:49.25Z</time></trkpt><trkpt lat="45.1304867" lon="8.0126157"><ele>376.5</ele><time>2026-04-18T13:51:50.25Z</time></trkpt><trkpt lat="45.1305741" lon="8.0126279"><ele>376.0</ele><time>2026-04-18T13:51:51.25Z</time></trkpt><trkpt lat="45.1306485" lon="8.0126186"><ele>375.5</ele><time>2026-04-18T13:51:52.25Z</time></trkpt><trkpt lat="45.13072" lon="8.0125679"><ele>375.0</ele><time>2026-04-18T13:51:53.251Z</time></trkpt><trkpt lat="45.1308068" lon="8.0124807"><ele>375.0</ele><time>2026-04-18T13:51:54.251Z</time></trkpt><trkpt lat="45.1308948" lon="8.0123816"><ele>375.0</ele><time>2026-04-18T13:51:55.25Z</time></trkpt><trkpt lat="45.130985" lon="8.0122886"><ele>375.0</ele><time>2026-04-18T13:51:56.25Z</time></trkpt><trkpt lat="45.1310647" lon="8.0122143"><ele>375.0</ele><time>2026-04-18T13:51:57.25Z</time></trkpt><trkpt lat="45.1311501" lon="8.0121661"><ele>375.0</ele><time>2026-04-18T13:51:58.25Z</time></trkpt><trkpt lat="45.1312307" lon="8.0121308"><ele>375.0</ele><time>2026-04-18T13:51:59.25Z</time></trkpt><trkpt lat="45.1313104" lon="8.0121131"><ele>375.0</ele><time>2026-04-18T13:52:00.25Z</time></trkpt><trkpt lat="45.1313859" lon="8.0121146"><ele>375.0</ele><time>2026-04-18T13:52:01.25Z</time></trkpt><trkpt lat="45.1314553" lon="8.012139"><ele>375.0</ele><time>2026-04-18T13:52:02.25Z</time></trkpt><trkpt lat="45.1315271" lon="8.0121827"><ele>375.0</ele><time>2026-04-18T13:52:03.25Z</time></trkpt><trkpt lat="45.1315909" lon="8.012261"><ele>375.0</ele><time>2026-04-18T13:52:04.25Z</time></trkpt><trkpt lat="45.1316527" lon="8.0123679"><ele>368.8</ele><time>2026-04-18T13:52:05.25Z</time></trkpt><trkpt lat="45.1317252" lon="8.012486"><ele>362.6</ele><time>2026-04-18T13:52:06.25Z</time></trkpt><trkpt lat="45.1318" lon="8.0125927"><ele>356.4</ele><time>2026-04-18T13:52:07.251Z</time></trkpt><trkpt lat="45.1318926" lon="8.0126854"><ele>350.2</ele><time>2026-04-18T13:52:08.251Z</time></trkpt><trkpt lat="45.1319914" lon="8.0127693"><ele>344.0</ele><time>2026-04-18T13:52:09.251Z</time></trkpt><trkpt lat="45.1321116" lon="8.0128322"><ele>344.0</ele><time>2026-04-18T13:52:10.25Z</time></trkpt><trkpt lat="45.1322389" lon="8.0128856"><ele>344.0</ele><time>2026-04-18T13:52:11.25Z</time></trkpt><trkpt lat="45.1323708" lon="8.0129345"><ele>344.0</ele><time>2026-04-18T13:52:12.251Z</time></trkpt><trkpt lat="45.1325104" lon="8.012982"><ele>344.0</ele><time>2026-04-18T13:52:13.25Z</time></trkpt><trkpt lat="45.1326422" lon="8.0130326"><ele>342.75</ele><time>2026-04-18T13:52:14.25Z</time></trkpt><trkpt lat="45.1327568" lon="8.0130779"><ele>341.5</ele><time>2026-04-18T13:52:15.251Z</time></trkpt><trkpt lat="45.1328685" lon="8.0131248"><ele>340.25</ele><time>2026-04-18T13:52:16.25Z</time></trkpt><trkpt lat="45.1329717" lon="8.0131783"><ele>339.0</ele><time>2026-04-18T13:52:17.25Z</time></trkpt><trkpt lat="45.1330748" lon="8.0132493"><ele>340.0</ele><time>2026-04-18T13:52:18.25Z</time></trkpt><trkpt lat="45.1331904" lon="8.0133296"><ele>341.0</ele><time>2026-04-18T13:52:19.25Z</time></trkpt><trkpt lat="45.1333204" lon="8.0134097"><ele>342.0</ele><time>2026-04-18T13:52:20.25Z</time></trkpt><trkpt lat="45.1334534" lon="8.0134898"><ele>343.0</ele><time>2026-04-18T13:52:21.25Z</time></trkpt><trkpt lat="45.1336014" lon="8.0135634"><ele>343.66666666666663</ele><time>2026-04-18T13:52:22.25Z</time></trkpt><trkpt lat="45.1337426" lon="8.0136481"><ele>344.3333333333333</ele><time>2026-04-18T13:52:23.25Z</time></trkpt><trkpt lat="45.1338855" lon="8.013729"><ele>345.0</ele><time>2026-04-18T13:52:24.251Z</time></trkpt><trkpt lat="45.1340304" lon="8.013801"><ele>341.3333333333333</ele><time>2026-04-18T13:52:25.25Z</time></trkpt><trkpt lat="45.1341724" lon="8.0138706"><ele>337.66666666666663</ele><time>2026-04-18T13:52:26.25Z</time></trkpt><trkpt lat="45.134315" lon="8.0139437"><ele>334.0</ele><time>2026-04-18T13:52:27.251Z</time></trkpt><trkpt lat="45.1344603" lon="8.014025"><ele>334.0</ele><time>2026-04-18T13:52:28.25Z</time></trkpt><trkpt lat="45.1345937" lon="8.0141256"><ele>334.0</ele><time>2026-04-18T13:52:29.25Z</time></trkpt><trkpt lat="45.1347287" lon="8.0142391"><ele>334.0</ele><time>2026-04-18T13:52:30.25Z</time></trkpt><trkpt lat="45.1348654" lon="8.0143565"><ele>330.3333333333333</ele><time>2026-04-18T13:52:31.25Z</time></trkpt><trkpt lat="45.1350141" lon="8.0144736"><ele>326.6666666666667</ele><time>2026-04-18T13:52:32.25Z</time></trkpt><trkpt lat="45.1351603" lon="8.0145833"><ele>323.0</ele><time>2026-04-18T13:52:33.25Z</time></trkpt><trkpt lat="45.1353023" lon="8.0146923"><ele>323.0</ele><time>2026-04-18T13:52:34.25Z</time></trkpt><trkpt lat="45.1354534" lon="8.0147999"><ele>323.0</ele><time>2026-04-18T13:52:35.251Z</time></trkpt><trkpt lat="45.1355968" lon="8.0149095"><ele>323.0</ele><time>2026-04-18T13:52:36.251Z</time></trkpt><trkpt lat="45.1357332" lon="8.0150179"><ele>321.0</ele><time>2026-04-18T13:52:37.25Z</time></trkpt><trkpt lat="45.1358692" lon="8.015124"><ele>319.0</ele><time>2026-04-18T13:52:38.251Z</time></trkpt><trkpt lat="45.1360036" lon="8.0152256"><ele>317.0</ele><time>2026-04-18T13:52:39.25Z</time></trkpt><trkpt lat="45.1361386" lon="8.0153265"><ele>317.0</ele><time>2026-04-18T13:52:40.251Z</time></trkpt><trkpt lat="45.1362675" lon="8.01542"><ele>317.0</ele><time>2026-04-18T13:52:41.25Z</time></trkpt><trkpt lat="45.1363822" lon="8.0154996"><ele>317.0</ele><time>2026-04-18T13:52:42.251Z</time></trkpt><trkpt lat="45.1364884" lon="8.0155729"><ele>317.0</ele><time>2026-04-18T13:52:43.25Z</time></trkpt><trkpt lat="45.1365865" lon="8.0156473"><ele>316.4</ele><time>2026-04-18T13:52:44.25Z</time></trkpt><trkpt lat="45.13667" lon="8.0157363"><ele>315.79999999999995</ele><time>2026-04-18T13:52:45.25Z</time></trkpt><trkpt lat="45.1367295" lon="8.0158365"><ele>315.2</ele><time>2026-04-18T13:52:46.25Z</time></trkpt><trkpt lat="45.1367747" lon="8.0159351"><ele>314.59999999999997</ele><time>2026-04-18T13:52:47.25Z</time></trkpt><trkpt lat="45.1367822" lon="8.0160603"><ele>314.0</ele><time>2026-04-18T13:52:48.251Z</time></trkpt><trkpt lat="45.1367699" lon="8.0161959"><ele>314.0</ele><time>2026-04-18T13:52:49.25Z</time></trkpt><trkpt lat="45.1367486" lon="8.0163365"><ele>314.0</ele><time>2026-04-18T13:52:50.25Z</time></trkpt><trkpt lat="45.1367384" lon="8.016476"><ele>314.0</ele><time>2026-04-18T13:52:51.25Z</time></trkpt><trkpt lat="45.1367322" lon="8.0166191"><ele>314.0</ele><time>2026-04-18T13:52:52.25Z</time></trkpt><trkpt lat="45.1367408" lon="8.0167582"><ele>314.0</ele><time>2026-04-18T13:52:53.25Z</time></trkpt><trkpt lat="45.136809" lon="8.0169269"><ele>313.0</ele><time>2026-04-18T13:52:54.25Z</time></trkpt><trkpt lat="45.1368772" lon="8.017076"><ele>312.0</ele><time>2026-04-18T13:52:55.25Z</time></trkpt><trkpt lat="45.1369433" lon="8.017217"><ele>311.0</ele><time>2026-04-18T13:52:56.25Z</time></trkpt><trkpt lat="45.1370107" lon="8.0173524"><ele>310.0</ele><time>2026-04-18T13:52:57.251Z</time></trkpt><trkpt lat="45.1370896" lon="8.0174728"><ele>306.5</ele><time>2026-04-18T13:52:58.25Z</time></trkpt><trkpt lat="45.1371979" lon="8.0175719"><ele>303.0</ele><time>2026-04-18T13:52:59.25Z</time></trkpt><trkpt lat="45.1373205" lon="8.0176738"><ele>299.5</ele><time>2026-04-18T13:53:00.25Z</time></trkpt><trkpt lat="45.137447" lon="8.0177752"><ele>296.0</ele><time>2026-04-18T13:53:01.25Z</time></trkpt><trkpt lat="45.1375659" lon="8.0178961"><ele>295.25</ele><time>2026-04-18T13:53:02.251Z</time></trkpt><trkpt lat="45.137674" lon="8.0180286"><ele>294.5</ele><time>2026-04-18T13:53:03.25Z</time></trkpt><trkpt lat="45.1377721" lon="8.0181825"><ele>293.75</ele><time>2026-04-18T13:53:04.251Z</time></trkpt><trkpt lat="45.1378836" lon="8.0183248"><ele>293.0</ele><time>2026-04-18T13:53:05.251Z</time></trkpt><trkpt lat="45.1379962" lon="8.0184435"><ele>291.0</ele><time>2026-04-18T13:53:06.25Z</time></trkpt><trkpt lat="45.1381017" lon="8.0185583"><ele>289.0</ele><time>2026-04-18T13:53:07.251Z</time></trkpt><trkpt lat="45.1381923" lon="8.0186827"><ele>287.0</ele><time>2026-04-18T13:53:08.25Z</time></trkpt><trkpt lat="45.1382582" lon="8.0188042"><ele>285.0</ele><time>2026-04-18T13:53:09.251Z</time></trkpt><trkpt lat="45.1383125" lon="8.018915"><ele>284.8333333333333</ele><time>2026-04-18T13:53:10.25Z</time></trkpt><trkpt lat="45.1383799" lon="8.0189899"><ele>284.6666666666667</ele><time>2026-04-18T13:53:11.25Z</time></trkpt><trkpt lat="45.1384591" lon="8.0190395"><ele>284.5</ele><time>2026-04-18T13:53:12.25Z</time></trkpt><trkpt lat="45.1385434" lon="8.0190575"><ele>284.33333333333337</ele><time>2026-04-18T13:53:13.25Z</time></trkpt><trkpt lat="45.1386337" lon="8.0190513"><ele>284.1666666666667</ele><time>2026-04-18T13:53:14.25Z</time></trkpt><trkpt lat="45.1387181" lon="8.0190119"><ele>284.0</ele><time>2026-04-18T13:53:15.25Z</time></trkpt><trkpt lat="45.1387954" lon="8.0189656"><ele>284.0</ele><time>2026-04-18T13:53:16.251Z</time></trkpt><trkpt lat="45.1388848" lon="8.0189556"><ele>284.0</ele><time>2026-04-18T13:53:17.25Z</time></trkpt><trkpt lat="45.1389766" lon="8.0189774"><ele>284.0</ele><time>2026-04-18T13:53:18.251Z</time></trkpt><trkpt lat="45.1390818" lon="8.0190363"><ele>284.0</ele><time>2026-04-18T13:53:19.251Z</time></trkpt><trkpt lat="45.1391791" lon="8.0191402"><ele>284.0</ele><time>2026-04-18T13:53:20.251Z</time></trkpt><trkpt lat="45.13928" lon="8.0192629"><ele>284.5</ele><time>2026-04-18T13:53:21.25Z</time></trkpt><trkpt lat="45.13939" lon="8.0193766"><ele>285.0</ele><time>2026-04-18T13:53:22.251Z</time></trkpt><trkpt lat="45.1394979" lon="8.0194873"><ele>285.5</ele><time>2026-04-18T13:53:23.251Z</time></trkpt><trkpt lat="45.1396145" lon="8.0195966"><ele>286.0</ele><time>2026-04-18T13:53:24.251Z</time></trkpt><trkpt lat="45.1397328" lon="8.0197072"><ele>286.0</ele><time>2026-04-18T13:53:25.25Z</time></trkpt><trkpt lat="45.1398485" lon="8.0198094"><ele>286.0</ele><time>2026-04-18T13:53:26.251Z</time></trkpt><trkpt lat="45.139946" lon="8.0199109"><ele>286.0</ele><time>2026-04-18T13:53:27.25Z</time></trkpt><trkpt lat="45.1400357" lon="8.0200043"><ele>286.0</ele><time>2026-04-18T13:53:28.25Z</time></trkpt><trkpt lat="45.1401062" lon="8.0201132"><ele>287.6</ele><time>2026-04-18T13:53:29.251Z</time></trkpt><trkpt lat="45.1401513" lon="8.0202244"><ele>289.20000000000005</ele><time>2026-04-18T13:53:30.25Z</time></trkpt><trkpt lat="45.1401766" lon="8.020371"><ele>290.79999999999995</ele><time>2026-04-18T13:53:31.25Z</time></trkpt><trkpt lat="45.1402132" lon="8.0205004"><ele>292.4</ele><time>2026-04-18T13:53:32.251Z</time></trkpt><trkpt lat="45.1402653" lon="8.0206028"><ele>294.0</ele><time>2026-04-18T13:53:33.25Z</time></trkpt><trkpt lat="45.140356" lon="8.0206855"><ele>294.0</ele><time>2026-04-18T13:53:34.25Z</time></trkpt><trkpt lat="45.1404572" lon="8.0207494"><ele>294.0</ele><time>2026-04-18T13:53:35.251Z</time></trkpt><trkpt lat="45.1405733" lon="8.0208343"><ele>294.0</ele><time>2026-04-18T13:53:36.25Z</time></trkpt><trkpt lat="45.1406795" lon="8.0209374"><ele>294.0</ele><time>2026-04-18T13:53:37.25Z</time></trkpt><trkpt lat="45.1407891" lon="8.0210534"><ele>296.5</ele><time>2026-04-18T13:53:38.25Z</time></trkpt><trkpt lat="45.1408919" lon="8.0211813"><ele>299.0</ele><time>2026-04-18T13:53:39.25Z</time></trkpt><trkpt lat="45.1409882" lon="8.0212982"><ele>301.5</ele><time>2026-04-18T13:53:40.251Z</time></trkpt><trkpt lat="45.1410702" lon="8.0214048"><ele>304.0</ele><time>2026-04-18T13:53:41.251Z</time></trkpt><trkpt lat="45.1411462" lon="8.0214907"><ele>304.0</ele><time>2026-04-18T13:53:42.25Z</time></trkpt><trkpt lat="45.1412152" lon="8.0215577"><ele>304.0</ele><time>2026-04-18T13:53:43.251Z</time></trkpt><trkpt lat="45.1413006" lon="8.0216117"><ele>304.0</ele><time>2026-04-18T13:53:44.25Z</time></trkpt><trkpt lat="45.1413993" lon="8.0216536"><ele>304.0</ele><time>2026-04-18T13:53:45.25Z</time></trkpt><trkpt lat="45.1415141" lon="8.0217102"><ele>304.0</ele><time>2026-04-18T13:53:46.25Z</time></trkpt><trkpt lat="45.1416356" lon="8.0217949"><ele>305.3333333333333</ele><time>2026-04-18T13:53:47.251Z</time></trkpt><trkpt lat="45.141764" lon="8.0219091"><ele>306.6666666666667</ele><time>2026-04-18T13:53:48.251Z</time></trkpt><trkpt lat="45.1418973" lon="8.0220372"><ele>308.0</ele><time>2026-04-18T13:53:49.25Z</time></trkpt><trkpt lat="45.142031" lon="8.0221679"><ele>308.0</ele><time>2026-04-18T13:53:50.251Z</time></trkpt><trkpt lat="45.142171" lon="8.0222824"><ele>308.0</ele><time>2026-04-18T13:53:51.25Z</time></trkpt><trkpt lat="45.1423051" lon="8.0223908"><ele>308.0</ele><time>2026-04-18T13:53:52.25Z</time></trkpt><trkpt lat="45.1424433" lon="8.0224831"><ele>307.0</ele><time>2026-04-18T13:53:53.251Z</time></trkpt><trkpt lat="45.142578" lon="8.0225876"><ele>306.0</ele><time>2026-04-18T13:53:54.25Z</time></trkpt><trkpt lat="45.1427003" lon="8.0227047"><ele>305.0</ele><time>2026-04-18T13:53:55.25Z</time></trkpt><trkpt lat="45.1428034" lon="8.0228236"><ele>304.0</ele><time>2026-04-18T13:53:56.25Z</time></trkpt><trkpt lat="45.142883" lon="8.022955"><ele>304.0</ele><time>2026-04-18T13:53:57.25Z</time></trkpt><trkpt lat="45.1429466" lon="8.0231036"><ele>304.0</ele><time>2026-04-18T13:53:58.251Z</time></trkpt><trkpt lat="45.1429969" lon="8.0232553"><ele>304.0</ele><time>2026-04-18T13:53:59.25Z</time></trkpt><trkpt lat="45.1430556" lon="8.0233947"><ele>304.0</ele><time>2026-04-18T13:54:00.251Z</time></trkpt><trkpt lat="45.1431336" lon="8.0235209"><ele>304.75</ele><time>2026-04-18T13:54:01.25Z</time></trkpt><trkpt lat="45.1432357" lon="8.023632"><ele>305.5</ele><time>2026-04-18T13:54:02.25Z</time></trkpt><trkpt lat="45.1433316" lon="8.023695"><ele>306.25</ele><time>2026-04-18T13:54:03.25Z</time></trkpt><trkpt lat="45.1434618" lon="8.0236935"><ele>307.0</ele><time>2026-04-18T13:54:04.25Z</time></trkpt><trkpt lat="45.1435805" lon="8.0236914"><ele>307.0</ele><time>2026-04-18T13:54:05.251Z</time></trkpt><trkpt lat="45.1436878" lon="8.0237223"><ele>307.0</ele><time>2026-04-18T13:54:06.251Z</time></trkpt><trkpt lat="45.1437977" lon="8.0237723"><ele>307.0</ele><time>2026-04-18T13:54:07.251Z</time></trkpt><trkpt lat="45.1438998" lon="8.0238389"><ele>307.0</ele><time>2026-04-18T13:54:08.25Z</time></trkpt><trkpt lat="45.1440146" lon="8.0239217"><ele>309.2</ele><time>2026-04-18T13:54:09.251Z</time></trkpt><trkpt lat="45.1441177" lon="8.0240012"><ele>311.4</ele><time>2026-04-18T13:54:10.251Z</time></trkpt><trkpt lat="45.1442183" lon="8.0240814"><ele>313.6</ele><time>2026-04-18T13:54:11.25Z</time></trkpt><trkpt lat="45.1443202" lon="8.0241441"><ele>315.8</ele><time>2026-04-18T13:54:12.251Z</time></trkpt><trkpt lat="45.1444131" lon="8.0242154"><ele>318.0</ele><time>2026-04-18T13:54:13.251Z</time></trkpt><trkpt lat="45.1445044" lon="8.0243078"><ele>319.25</ele><time>2026-04-18T13:54:14.251Z</time></trkpt><trkpt lat="45.1445862" lon="8.0244306"><ele>320.5</ele><time>2026-04-18T13:54:15.25Z</time></trkpt><trkpt lat="45.1446585" lon="8.0245781"><ele>321.75</ele><time>2026-04-18T13:54:16.25Z</time></trkpt><trkpt lat="45.1447167" lon="8.0247482"><ele>323.0</ele><time>2026-04-18T13:54:17.25Z</time></trkpt><trkpt lat="45.1447676" lon="8.0249337"><ele>321.25</ele><time>2026-04-18T13:54:18.25Z</time></trkpt><trkpt lat="45.1448091" lon="8.0251077"><ele>319.5</ele><time>2026-04-18T13:54:19.251Z</time></trkpt><trkpt lat="45.144849" lon="8.0252755"><ele>317.75</ele><time>2026-04-18T13:54:20.25Z</time></trkpt><trkpt lat="45.1448705" lon="8.0254309"><ele>316.0</ele><time>2026-04-18T13:54:21.25Z</time></trkpt><trkpt lat="45.1448689" lon="8.025583"><ele>316.0</ele><time>2026-04-18T13:54:22.25Z</time></trkpt><trkpt lat="45.1448624" lon="8.025725"><ele>316.0</ele><time>2026-04-18T13:54:23.251Z</time></trkpt><trkpt lat="45.1448313" lon="8.0258652"><ele>316.0</ele><time>2026-04-18T13:54:24.25Z</time></trkpt><trkpt lat="45.1447833" lon="8.0259791"><ele>316.0</ele><time>2026-04-18T13:54:25.251Z</time></trkpt><trkpt lat="45.1447352" lon="8.026087"><ele>316.0</ele><time>2026-04-18T13:54:26.25Z</time></trkpt><trkpt lat="45.1446864" lon="8.0261938"><ele>316.6</ele><time>2026-04-18T13:54:27.25Z</time></trkpt><trkpt lat="45.1446545" lon="8.0263024"><ele>317.20000000000005</ele><time>2026-04-18T13:54:28.251Z</time></trkpt><trkpt lat="45.1446161" lon="8.0264138"><ele>317.79999999999995</ele><time>2026-04-18T13:54:29.251Z</time></trkpt><trkpt lat="45.1446435" lon="8.0265648"><ele>318.4</ele><time>2026-04-18T13:54:30.25Z</time></trkpt><trkpt lat="45.1446427" lon="8.0266943"><ele>319.0</ele><time>2026-04-18T13:54:31.25Z</time></trkpt><trkpt lat="45.1446718" lon="8.0268376"><ele>319.0</ele><time>2026-04-18T13:54:32.25Z</time></trkpt><trkpt lat="45.1446858" lon="8.0269829"><ele>319.0</ele><time>2026-04-18T13:54:33.251Z</time></trkpt><trkpt lat="45.1447188" lon="8.0271259"><ele>319.0</ele><time>2026-04-18T13:54:34.25Z</time></trkpt><trkpt lat="45.144742" lon="8.0272676"><ele>319.0</ele><time>2026-04-18T13:54:35.25Z</time></trkpt><trkpt lat="45.1447803" lon="8.0274058"><ele>319.0</ele><time>2026-04-18T13:54:36.251Z</time></trkpt><trkpt lat="45.1448006" lon="8.0275433"><ele>315.59999999999997</ele><time>2026-04-18T13:54:37.25Z</time></trkpt><trkpt lat="45.1448111" lon="8.0276822"><ele>312.2</ele><time>2026-04-18T13:54:38.251Z</time></trkpt><trkpt lat="45.1448132" lon="8.0278211"><ele>308.79999999999995</ele><time>2026-04-18T13:54:39.251Z</time></trkpt><trkpt lat="45.1448212" lon="8.0279849"><ele>305.4</ele><time>2026-04-18T13:54:40.25Z</time></trkpt><trkpt lat="45.1448228" lon="8.0281371"><ele>302.0</ele><time>2026-04-18T13:54:41.25Z</time></trkpt><trkpt lat="45.1448409" lon="8.0283067"><ele>300.5</ele><time>2026-04-18T13:54:42.251Z</time></trkpt><trkpt lat="45.1448698" lon="8.0284758"><ele>299.0</ele><time>2026-04-18T13:54:43.25Z</time></trkpt><trkpt lat="45.1448992" lon="8.0286585"><ele>297.5</ele><time>2026-04-18T13:54:44.251Z</time></trkpt><trkpt lat="45.144937" lon="8.0288493"><ele>296.0</ele><time>2026-04-18T13:54:45.25Z</time></trkpt><trkpt lat="45.1449738" lon="8.0290358"><ele>301.25</ele><time>2026-04-18T13:54:46.251Z</time></trkpt><trkpt lat="45.1450089" lon="8.0292156"><ele>306.5</ele><time>2026-04-18T13:54:47.25Z</time></trkpt><trkpt lat="45.1450415" lon="8.0293819"><ele>311.75</ele><time>2026-04-18T13:54:48.25Z</time></trkpt><trkpt lat="45.145063" lon="8.0295533"><ele>317.0</ele><time>2026-04-18T13:54:49.25Z</time></trkpt><trkpt lat="45.1450924" lon="8.0297062"><ele>317.0</ele><time>2026-04-18T13:54:50.25Z</time></trkpt><trkpt lat="45.1451143" lon="8.0298342"><ele>317.0</ele><time>2026-04-18T13:54:51.25Z</time></trkpt><trkpt lat="45.1451544" lon="8.0299533"><ele>317.0</ele><time>2026-04-18T13:54:52.25Z</time></trkpt><trkpt lat="45.1451882" lon="8.030067"><ele>317.0</ele><time>2026-04-18T13:54:53.25Z</time></trkpt><trkpt lat="45.1452708" lon="8.0301715"><ele>317.0</ele><time>2026-04-18T13:54:54.25Z</time></trkpt><trkpt lat="45.145371" lon="8.0302635"><ele>317.0</ele><time>2026-04-18T13:54:55.25Z</time></trkpt><trkpt lat="45.1454716" lon="8.0303475"><ele>317.0</ele><time>2026-04-18T13:54:56.25Z</time></trkpt><trkpt lat="45.1455744" lon="8.0304113"><ele>317.0</ele><time>2026-04-18T13:54:57.251Z</time></trkpt><trkpt lat="45.1456684" lon="8.0304376"><ele>317.0</ele><time>2026-04-18T13:54:58.25Z</time></trkpt><trkpt lat="45.1457789" lon="8.0304358"><ele>317.0</ele><time>2026-04-18T13:54:59.251Z</time></trkpt><trkpt lat="45.1458797" lon="8.0304111"><ele>311.6</ele><time>2026-04-18T13:55:00.25Z</time></trkpt><trkpt lat="45.1459804" lon="8.0303673"><ele>306.2</ele><time>2026-04-18T13:55:01.25Z</time></trkpt><trkpt lat="45.1460752" lon="8.0303451"><ele>300.8</ele><time>2026-04-18T13:55:02.251Z</time></trkpt><trkpt lat="45.1461749" lon="8.0303452"><ele>295.4</ele><time>2026-04-18T13:55:03.251Z</time></trkpt><trkpt lat="45.1462869" lon="8.0303518"><ele>290.0</ele><time>2026-04-18T13:55:04.251Z</time></trkpt><trkpt lat="45.1464044" lon="8.030375"><ele>290.0</ele><time>2026-04-18T13:55:05.25Z</time></trkpt><trkpt lat="45.1465153" lon="8.0303958"><ele>290.0</ele><time>2026-04-18T13:55:06.25Z</time></trkpt><trkpt lat="45.1466316" lon="8.0304245"><ele>290.0</ele><time>2026-04-18T13:55:07.25Z</time></trkpt><trkpt lat="45.1467534" lon="8.0304538"><ele>290.0</ele><time>2026-04-18T13:55:08.251Z</time></trkpt><trkpt lat="45.1468777" lon="8.0304981"><ele>286.5</ele><time>2026-04-18T13:55:09.251Z</time></trkpt><trkpt lat="45.1469958" lon="8.0305461"><ele>283.0</ele><time>2026-04-18T13:55:10.25Z</time></trkpt><trkpt lat="45.1471098" lon="8.030601"><ele>279.5</ele><time>2026-04-18T13:55:11.251Z</time></trkpt><trkpt lat="45.1472183" lon="8.0306566"><ele>276.0</ele><time>2026-04-18T13:55:12.25Z</time></trkpt><trkpt lat="45.1473166" lon="8.0306983"><ele>275.40000000000003</ele><time>2026-04-18T13:55:13.251Z</time></trkpt><trkpt lat="45.1474101" lon="8.0307328"><ele>274.8</ele><time>2026-04-18T13:55:14.251Z</time></trkpt><trkpt lat="45.1474916" lon="8.0307636"><ele>274.20000000000005</ele><time>2026-04-18T13:55:15.25Z</time></trkpt><trkpt lat="45.1475586" lon="8.0308004"><ele>273.6</ele><time>2026-04-18T13:55:16.251Z</time></trkpt><trkpt lat="45.1476651" lon="8.0309036"><ele>273.0</ele><time>2026-04-18T13:55:18.25Z</time></trkpt><trkpt lat="45.1477186" lon="8.030996"><ele>275.6</ele><time>2026-04-18T13:55:19.251Z</time></trkpt><trkpt lat="45.1477776" lon="8.0310962"><ele>278.20000000000005</ele><time>2026-04-18T13:55:20.25Z</time></trkpt><trkpt lat="45.1478535" lon="8.0312046"><ele>280.8</ele><time>2026-04-18T13:55:21.251Z</time></trkpt><trkpt lat="45.1479428" lon="8.0313062"><ele>283.40000000000003</ele><time>2026-04-18T13:55:22.251Z</time></trkpt><trkpt lat="45.1480424" lon="8.0313961"><ele>286.0</ele><time>2026-04-18T13:55:23.251Z</time></trkpt><trkpt lat="45.1481411" lon="8.0314741"><ele>285.8</ele><time>2026-04-18T13:55:24.25Z</time></trkpt><trkpt lat="45.1482418" lon="8.0315486"><ele>285.6</ele><time>2026-04-18T13:55:25.25Z</time></trkpt><trkpt lat="45.1483327" lon="8.0316117"><ele>285.4</ele><time>2026-04-18T13:55:26.251Z</time></trkpt><trkpt lat="45.1484209" lon="8.0316719"><ele>285.2</ele><time>2026-04-18T13:55:27.251Z</time></trkpt><trkpt lat="45.1485294" lon="8.0317052"><ele>285.0</ele><time>2026-04-18T13:55:28.25Z</time></trkpt><trkpt lat="45.1486212" lon="8.031702"><ele>284.8</ele><time>2026-04-18T13:55:29.251Z</time></trkpt><trkpt lat="45.14872" lon="8.0317143"><ele>284.6</ele><time>2026-04-18T13:55:30.25Z</time></trkpt><trkpt lat="45.1488307" lon="8.0317543"><ele>284.4</ele><time>2026-04-18T13:55:31.25Z</time></trkpt><trkpt lat="45.1489194" lon="8.0317929"><ele>284.2</ele><time>2026-04-18T13:55:32.25Z</time></trkpt><trkpt lat="45.1490033" lon="8.0318289"><ele>284.0</ele><time>2026-04-18T13:55:33.25Z</time></trkpt><trkpt lat="45.1490764" lon="8.0318637"><ele>284.0</ele><time>2026-04-18T13:55:34.25Z</time></trkpt><trkpt lat="45.1491508" lon="8.0319031"><ele>284.0</ele><time>2026-04-18T13:55:35.25Z</time></trkpt><trkpt lat="45.1491757" lon="8.0319918"><ele>284.0</ele><time>2026-04-18T13:55:36.251Z</time></trkpt><trkpt lat="45.1491785" lon="8.0320869"><ele>284.0</ele><time>2026-04-18T13:55:37.251Z</time></trkpt><trkpt lat="45.1491618" lon="8.032175"><ele>284.0</ele><time>2026-04-18T13:55:38.25Z</time></trkpt><trkpt lat="45.149155" lon="8.0322703"><ele>284.0</ele><time>2026-04-18T13:55:39.25Z</time></trkpt><trkpt lat="45.1491381" lon="8.0323938"><ele>284.0</ele><time>2026-04-18T13:55:40.251Z</time></trkpt><trkpt lat="45.1491241" lon="8.0325399"><ele>282.4</ele><time>2026-04-18T13:55:41.25Z</time></trkpt><trkpt lat="45.1491048" lon="8.0326904"><ele>280.79999999999995</ele><time>2026-04-18T13:55:42.25Z</time></trkpt><trkpt lat="45.1490792" lon="8.032831"><ele>279.20000000000005</ele><time>2026-04-18T13:55:43.25Z</time></trkpt><trkpt lat="45.1490435" lon="8.0329654"><ele>277.6</ele><time>2026-04-18T13:55:44.25Z</time></trkpt><trkpt lat="45.1489973" lon="8.0330831"><ele>276.0</ele><time>2026-04-18T13:55:45.25Z</time></trkpt><trkpt lat="45.1489515" lon="8.0331948"><ele>276.0</ele><time>2026-04-18T13:55:46.25Z</time></trkpt><trkpt lat="45.1489068" lon="8.0332817"><ele>276.0</ele><time>2026-04-18T13:55:47.25Z</time></trkpt><trkpt lat="45.1488638" lon="8.0333619"><ele>276.0</ele><time>2026-04-18T13:55:48.25Z</time></trkpt><trkpt lat="45.1488174" lon="8.0334387"><ele>276.0</ele><time>2026-04-18T13:55:49.251Z</time></trkpt><trkpt lat="45.1487507" lon="8.0335509"><ele>276.0</ele><time>2026-04-18T13:55:51.25Z</time></trkpt><trkpt lat="45.1487639" lon="8.033641"><ele>276.0</ele><time>2026-04-18T13:55:52.251Z</time></trkpt><trkpt lat="45.1487847" lon="8.0338229"><ele>276.0</ele><time>2026-04-18T13:55:54.25Z</time></trkpt><trkpt lat="45.148801" lon="8.0339376"><ele>276.0</ele><time>2026-04-18T13:55:55.251Z</time></trkpt><trkpt lat="45.1488204" lon="8.0340694"><ele>276.0</ele><time>2026-04-18T13:55:56.251Z</time></trkpt><trkpt lat="45.1488416" lon="8.0341954"><ele>276.0</ele><time>2026-04-18T13:55:57.25Z</time></trkpt><trkpt lat="45.1488838" lon="8.0343075"><ele>276.0</ele><time>2026-04-18T13:55:58.25Z</time></trkpt><trkpt lat="45.148921" lon="8.0343814"><ele>276.0</ele><time>2026-04-18T13:55:59.25Z</time></trkpt><trkpt lat="45.1489458" lon="8.034465"><ele>274.75</ele><time>2026-04-18T13:56:00.25Z</time></trkpt><trkpt lat="45.1489119" lon="8.0346205"><ele>273.5</ele><time>2026-04-18T13:56:02.25Z</time></trkpt><trkpt lat="45.1487971" lon="8.0347425"><ele>272.25</ele><time>2026-04-18T13:56:04.251Z</time></trkpt><trkpt lat="45.1487171" lon="8.0348263"><ele>271.0</ele><time>2026-04-18T13:56:05.25Z</time></trkpt><trkpt lat="45.1486144" lon="8.0348952"><ele>271.0</ele><time>2026-04-18T13:56:06.251Z</time></trkpt><trkpt lat="45.1485117" lon="8.0349555"><ele>271.0</ele><time>2026-04-18T13:56:07.25Z</time></trkpt><trkpt lat="45.1484201" lon="8.0350242"><ele>271.0</ele><time>2026-04-18T13:56:08.25Z</time></trkpt><trkpt lat="45.1483352" lon="8.0351121"><ele>271.0</ele><time>2026-04-18T13:56:09.25Z</time></trkpt><trkpt lat="45.1482459" lon="8.0351894"><ele>271.0</ele><time>2026-04-18T13:56:10.251Z</time></trkpt><trkpt lat="45.148174" lon="8.0352783"><ele>268.2</ele><time>2026-04-18T13:56:11.25Z</time></trkpt><trkpt lat="45.1481039" lon="8.0353728"><ele>265.40000000000003</ele><time>2026-04-18T13:56:12.25Z</time></trkpt><trkpt lat="45.1480642" lon="8.0354851"><ele>262.6</ele><time>2026-04-18T13:56:13.25Z</time></trkpt><trkpt lat="45.1480643" lon="8.0356218"><ele>259.8</ele><time>2026-04-18T13:56:14.25Z</time></trkpt><trkpt lat="45.1480813" lon="8.0357668"><ele>257.0</ele><time>2026-04-18T13:56:15.25Z</time></trkpt><trkpt lat="45.1481185" lon="8.0359381"><ele>257.0</ele><time>2026-04-18T13:56:16.25Z</time></trkpt><trkpt lat="45.1481717" lon="8.0360903"><ele>257.0</ele><time>2026-04-18T13:56:17.25Z</time></trkpt><trkpt lat="45.1482088" lon="8.0362439"><ele>257.0</ele><time>2026-04-18T13:56:18.251Z</time></trkpt><trkpt lat="45.1482244" lon="8.0364235"><ele>257.0</ele><time>2026-04-18T13:56:19.25Z</time></trkpt><trkpt lat="45.1482186" lon="8.0366279"><ele>259.75</ele><time>2026-04-18T13:56:20.25Z</time></trkpt><trkpt lat="45.1482155" lon="8.0368276"><ele>262.5</ele><time>2026-04-18T13:56:21.251Z</time></trkpt><trkpt lat="45.148212" lon="8.0370186"><ele>265.25</ele><time>2026-04-18T13:56:22.25Z</time></trkpt><trkpt lat="45.1481998" lon="8.0372028"><ele>268.0</ele><time>2026-04-18T13:56:23.25Z</time></trkpt><trkpt lat="45.1481914" lon="8.0373832"><ele>259.75</ele><time>2026-04-18T13:56:24.25Z</time></trkpt><trkpt lat="45.1481816" lon="8.0375593"><ele>251.5</ele><time>2026-04-18T13:56:25.251Z</time></trkpt><trkpt lat="45.148152" lon="8.0377353"><ele>243.25</ele><time>2026-04-18T13:56:26.251Z</time></trkpt><trkpt lat="45.1481005" lon="8.0379025"><ele>235.0</ele><time>2026-04-18T13:56:27.251Z</time></trkpt><trkpt lat="45.1480336" lon="8.0380645"><ele>235.0</ele><time>2026-04-18T13:56:28.25Z</time></trkpt><trkpt lat="45.1479646" lon="8.0382036"><ele>235.0</ele><time>2026-04-18T13:56:29.251Z</time></trkpt><trkpt lat="45.1478865" lon="8.0383144"><ele>235.0</ele><time>2026-04-18T13:56:30.25Z</time></trkpt><trkpt lat="45.1477826" lon="8.0383907"><ele>235.0</ele><time>2026-04-18T13:56:31.25Z</time></trkpt><trkpt lat="45.1476721" lon="8.0384551"><ele>234.99999999999997</ele><time>2026-04-18T13:56:32.25Z</time></trkpt><trkpt lat="45.1475675" lon="8.0385075"><ele>235.0</ele><time>2026-04-18T13:56:33.25Z</time></trkpt><trkpt lat="45.1474676" lon="8.0385569"><ele>235.0</ele><time>2026-04-18T13:56:34.251Z</time></trkpt><trkpt lat="45.1473895" lon="8.0386"><ele>235.0</ele><time>2026-04-18T13:56:35.25Z</time></trkpt><trkpt lat="45.1473283" lon="8.0386534"><ele>234.99999999999997</ele><time>2026-04-18T13:56:36.25Z</time></trkpt><trkpt lat="45.1472841" lon="8.0387251"><ele>235.0</ele><time>2026-04-18T13:56:37.25Z</time></trkpt><trkpt lat="45.1472689" lon="8.0388178"><ele>235.0</ele><time>2026-04-18T13:56:38.251Z</time></trkpt><trkpt lat="45.1472815" lon="8.0389226"><ele>235.0</ele><time>2026-04-18T13:56:39.25Z</time></trkpt><trkpt lat="45.1473182" lon="8.0390297"><ele>235.0</ele><time>2026-04-18T13:56:40.251Z</time></trkpt><trkpt lat="45.1473905" lon="8.0391172"><ele>235.0</ele><time>2026-04-18T13:56:41.25Z</time></trkpt><trkpt lat="45.1474723" lon="8.0391968"><ele>235.0</ele><time>2026-04-18T13:56:42.25Z</time></trkpt><trkpt lat="45.1475654" lon="8.0392809"><ele>233.75</ele><time>2026-04-18T13:56:43.25Z</time></trkpt><trkpt lat="45.1476534" lon="8.0393938"><ele>232.5</ele><time>2026-04-18T13:56:44.25Z</time></trkpt><trkpt lat="45.1477389" lon="8.0395346"><ele>231.25</ele><time>2026-04-18T13:56:45.25Z</time></trkpt><trkpt lat="45.1478205" lon="8.0396917"><ele>230.0</ele><time>2026-04-18T13:56:46.251Z</time></trkpt><trkpt lat="45.1479033" lon="8.0398439"><ele>230.0</ele><time>2026-04-18T13:56:47.25Z</time></trkpt><trkpt lat="45.1479955" lon="8.0399896"><ele>230.0</ele><time>2026-04-18T13:56:48.251Z</time></trkpt><trkpt lat="45.1480936" lon="8.0401207"><ele>230.0</ele><time>2026-04-18T13:56:49.25Z</time></trkpt><trkpt lat="45.148198" lon="8.0402562"><ele>230.0</ele><time>2026-04-18T13:56:50.25Z</time></trkpt><trkpt lat="45.1482902" lon="8.0403638"><ele>230.0</ele><time>2026-04-18T13:56:51.25Z</time></trkpt><trkpt lat="45.1483677" lon="8.0404666"><ele>230.0</ele><time>2026-04-18T13:56:52.25Z</time></trkpt><trkpt lat="45.1484211" lon="8.040568"><ele>230.0</ele><time>2026-04-18T13:56:53.25Z</time></trkpt><trkpt lat="45.1484634" lon="8.0406877"><ele>230.0</ele><time>2026-04-18T13:56:54.25Z</time></trkpt><trkpt lat="45.1484713" lon="8.0408248"><ele>230.0</ele><time>2026-04-18T13:56:55.251Z</time></trkpt><trkpt lat="45.1484456" lon="8.0409804"><ele>228.5</ele><time>2026-04-18T13:56:56.251Z</time></trkpt><trkpt lat="45.1484586" lon="8.0411317"><ele>227.0</ele><time>2026-04-18T13:56:57.25Z</time></trkpt><trkpt lat="45.1484853" lon="8.0412941"><ele>225.5</ele><time>2026-04-18T13:56:58.25Z</time></trkpt><trkpt lat="45.1485203" lon="8.041456"><ele>224.0</ele><time>2026-04-18T13:56:59.25Z</time></trkpt><trkpt lat="45.1485565" lon="8.0416225"><ele>222.0</ele><time>2026-04-18T13:57:00.25Z</time></trkpt><trkpt lat="45.1485964" lon="8.041774"><ele>220.0</ele><time>2026-04-18T13:57:01.25Z</time></trkpt><trkpt lat="45.1486207" lon="8.0419203"><ele>218.0</ele><time>2026-04-18T13:57:02.251Z</time></trkpt><trkpt lat="45.1486154" lon="8.0420772"><ele>216.0</ele><time>2026-04-18T13:57:03.25Z</time></trkpt><trkpt lat="45.1485914" lon="8.042245"><ele>216.0</ele><time>2026-04-18T13:57:04.25Z</time></trkpt><trkpt lat="45.1485775" lon="8.0423936"><ele>216.0</ele><time>2026-04-18T13:57:05.25Z</time></trkpt><trkpt lat="45.148596" lon="8.0425586"><ele>216.0</ele><time>2026-04-18T13:57:06.25Z</time></trkpt><trkpt lat="45.1486382" lon="8.0427131"><ele>216.0</ele><time>2026-04-18T13:57:07.251Z</time></trkpt><trkpt lat="45.148706" lon="8.0428767"><ele>216.5</ele><time>2026-04-18T13:57:08.25Z</time></trkpt><trkpt lat="45.1487938" lon="8.0430187"><ele>217.0</ele><time>2026-04-18T13:57:09.251Z</time></trkpt><trkpt lat="45.1488948" lon="8.0431697"><ele>217.5</ele><time>2026-04-18T13:57:10.25Z</time></trkpt><trkpt lat="45.1489965" lon="8.0433419"><ele>218.0</ele><time>2026-04-18T13:57:11.25Z</time></trkpt><trkpt lat="45.1490929" lon="8.0435064"><ele>218.0</ele><time>2026-04-18T13:57:12.251Z</time></trkpt><trkpt lat="45.149209" lon="8.0436819"><ele>218.0</ele><time>2026-04-18T13:57:13.25Z</time></trkpt><trkpt lat="45.1493063" lon="8.043849"><ele>218.0</ele><time>2026-04-18T13:57:14.25Z</time></trkpt><trkpt lat="45.1493948" lon="8.0440201"><ele>214.0</ele><time>2026-04-18T13:57:15.25Z</time></trkpt><trkpt lat="45.1494894" lon="8.0442013"><ele>210.0</ele><time>2026-04-18T13:57:16.251Z</time></trkpt><trkpt lat="45.1495607" lon="8.0443803"><ele>206.0</ele><time>2026-04-18T13:57:17.25Z</time></trkpt><trkpt lat="45.1496403" lon="8.0445549"><ele>206.0</ele><time>2026-04-18T13:57:18.251Z</time></trkpt><trkpt lat="45.1497211" lon="8.0447171"><ele>206.0</ele><time>2026-04-18T13:57:19.25Z</time></trkpt><trkpt lat="45.1498035" lon="8.0448673"><ele>206.0</ele><time>2026-04-18T13:57:20.25Z</time></trkpt><trkpt lat="45.149878" lon="8.0450065"><ele>206.0</ele><time>2026-04-18T13:57:21.25Z</time></trkpt><trkpt lat="45.1499444" lon="8.045153"><ele>206.25</ele><time>2026-04-18T13:57:22.251Z</time></trkpt><trkpt lat="45.1499918" lon="8.0453105"><ele>206.5</ele><time>2026-04-18T13:57:23.25Z</time></trkpt><trkpt lat="45.1500266" lon="8.0454744"><ele>206.75</ele><time>2026-04-18T13:57:24.251Z</time></trkpt><trkpt lat="45.1500625" lon="8.0456523"><ele>207.0</ele><time>2026-04-18T13:57:25.251Z</time></trkpt><trkpt lat="45.1501075" lon="8.0458096"><ele>207.0</ele><time>2026-04-18T13:57:26.25Z</time></trkpt><trkpt lat="45.1501775" lon="8.0459462"><ele>207.0</ele><time>2026-04-18T13:57:27.25Z</time></trkpt><trkpt lat="45.1502644" lon="8.0460485"><ele>207.0</ele><time>2026-04-18T13:57:28.251Z</time></trkpt><trkpt lat="45.1503944" lon="8.0461297"><ele>207.0</ele><time>2026-04-18T13:57:29.25Z</time></trkpt><trkpt lat="45.15052" lon="8.0462173"><ele>207.0</ele><time>2026-04-18T13:57:30.25Z</time></trkpt><trkpt lat="45.1506467" lon="8.046313"><ele>207.0</ele><time>2026-04-18T13:57:31.25Z</time></trkpt><trkpt lat="45.1507605" lon="8.0463905"><ele>207.0</ele><time>2026-04-18T13:57:32.25Z</time></trkpt><trkpt lat="45.1508658" lon="8.0464675"><ele>207.0</ele><time>2026-04-18T13:57:33.25Z</time></trkpt><trkpt lat="45.1509556" lon="8.0465501"><ele>207.0</ele><time>2026-04-18T13:57:34.25Z</time></trkpt><trkpt lat="45.1511106" lon="8.0467724"><ele>207.0</ele><time>2026-04-18T13:57:36.247Z</time></trkpt><trkpt lat="45.1511694" lon="8.0469085"><ele>207.0</ele><time>2026-04-18T13:57:37.249Z</time></trkpt><trkpt lat="45.1512177" lon="8.0470525"><ele>207.0</ele><time>2026-04-18T13:57:38.249Z</time></trkpt><trkpt lat="45.1512639" lon="8.0472062"><ele>207.0</ele><time>2026-04-18T13:57:39.248Z</time></trkpt><trkpt lat="45.1513126" lon="8.0473548"><ele>207.0</ele><time>2026-04-18T13:57:40.247Z</time></trkpt><trkpt lat="45.1513621" lon="8.0474999"><ele>207.0</ele><time>2026-04-18T13:57:41.248Z</time></trkpt><trkpt lat="45.1514116" lon="8.047653"><ele>207.0</ele><time>2026-04-18T13:57:42.247Z</time></trkpt><trkpt lat="45.1514697" lon="8.0478021"><ele>208.0</ele><time>2026-04-18T13:57:43.247Z</time></trkpt><trkpt lat="45.1515414" lon="8.0479429"><ele>209.0</ele><time>2026-04-18T13:57:44.247Z</time></trkpt><trkpt lat="45.151611" lon="8.0480916"><ele>210.0</ele><time>2026-04-18T13:57:45.247Z</time></trkpt><trkpt lat="45.1516959" lon="8.0482334"><ele>211.0</ele><time>2026-04-18T13:57:46.247Z</time></trkpt><trkpt lat="45.1517926" lon="8.0483777"><ele>208.5</ele><time>2026-04-18T13:57:47.248Z</time></trkpt><trkpt lat="45.151884" lon="8.0485236"><ele>206.0</ele><time>2026-04-18T13:57:48.247Z</time></trkpt><trkpt lat="45.1519795" lon="8.0486656"><ele>203.5</ele><time>2026-04-18T13:57:49.248Z</time></trkpt><trkpt lat="45.1520765" lon="8.0487964"><ele>201.0</ele><time>2026-04-18T13:57:50.247Z</time></trkpt><trkpt lat="45.1521837" lon="8.0489144"><ele>201.0</ele><time>2026-04-18T13:57:51.247Z</time></trkpt><trkpt lat="45.1522945" lon="8.049018"><ele>201.0</ele><time>2026-04-18T13:57:52.247Z</time></trkpt><trkpt lat="45.1524115" lon="8.0491189"><ele>201.0</ele><time>2026-04-18T13:57:53.248Z</time></trkpt><trkpt lat="45.152531" lon="8.0492175"><ele>201.0</ele><time>2026-04-18T13:57:54.247Z</time></trkpt><trkpt lat="45.1526338" lon="8.0493174"><ele>198.8</ele><time>2026-04-18T13:57:55.248Z</time></trkpt><trkpt lat="45.1527232" lon="8.0494086"><ele>196.60000000000002</ele><time>2026-04-18T13:57:56.247Z</time></trkpt><trkpt lat="45.152794" lon="8.0494912"><ele>194.4</ele><time>2026-04-18T13:57:57.247Z</time></trkpt><trkpt lat="45.1528445" lon="8.0495953"><ele>192.2</ele><time>2026-04-18T13:57:58.247Z</time></trkpt><trkpt lat="45.1528583" lon="8.0497217"><ele>190.0</ele><time>2026-04-18T13:57:59.247Z</time></trkpt><trkpt lat="45.1528619" lon="8.0498559"><ele>188.0</ele><time>2026-04-18T13:58:00.247Z</time></trkpt><trkpt lat="45.1528601" lon="8.0500019"><ele>186.0</ele><time>2026-04-18T13:58:01.248Z</time></trkpt><trkpt lat="45.1528729" lon="8.0501461"><ele>184.0</ele><time>2026-04-18T13:58:02.248Z</time></trkpt><trkpt lat="45.1529046" lon="8.0502723"><ele>182.0</ele><time>2026-04-18T13:58:03.248Z</time></trkpt><trkpt lat="45.1529503" lon="8.0503905"><ele>180.0</ele><time>2026-04-18T13:58:04.248Z</time></trkpt><trkpt lat="45.1530025" lon="8.0504936"><ele>180.0</ele><time>2026-04-18T13:58:05.248Z</time></trkpt><trkpt lat="45.153052" lon="8.0505722"><ele>180.0</ele><time>2026-04-18T13:58:06.247Z</time></trkpt><trkpt lat="45.1530995" lon="8.0506336"><ele>180.0</ele><time>2026-04-18T13:58:07.247Z</time></trkpt><trkpt lat="45.153169" lon="8.0507201"><ele>180.0</ele><time>2026-04-18T13:58:09.248Z</time></trkpt><trkpt lat="45.1532213" lon="8.0507992"><ele>180.0</ele><time>2026-04-18T13:58:37.247Z</time></trkpt><trkpt lat="45.1532281" lon="8.050924"><ele>180.0</ele><time>2026-04-18T13:58:40.248Z</time></trkpt><trkpt lat="45.1531477" lon="8.0509987"><ele>179.2</ele><time>2026-04-18T13:58:42.247Z</time></trkpt><trkpt lat="45.1530865" lon="8.051037"><ele>178.4</ele><time>2026-04-18T13:58:43.248Z</time></trkpt><trkpt lat="45.1529573" lon="8.0511103"><ele>177.60000000000002</ele><time>2026-04-18T13:58:45.247Z</time></trkpt><trkpt lat="45.1528781" lon="8.051156"><ele>176.8</ele><time>2026-04-18T13:58:46.247Z</time></trkpt><trkpt lat="45.1527895" lon="8.0512006"><ele>176.0</ele><time>2026-04-18T13:58:47.247Z</time></trkpt><trkpt lat="45.1527047" lon="8.0512549"><ele>176.0</ele><time>2026-04-18T13:58:48.247Z</time></trkpt><trkpt lat="45.1526188" lon="8.0513089"><ele>176.0</ele><time>2026-04-18T13:58:49.247Z</time></trkpt><trkpt lat="45.1525349" lon="8.0513708"><ele>176.0</ele><time>2026-04-18T13:58:50.247Z</time></trkpt><trkpt lat="45.1524617" lon="8.0514429"><ele>176.0</ele><time>2026-04-18T13:58:51.247Z</time></trkpt><trkpt lat="45.1523973" lon="8.051491"><ele>176.0</ele><time>2026-04-18T13:58:52.247Z</time></trkpt><trkpt lat="45.1523344" lon="8.0515278"><ele>176.0</ele><time>2026-04-18T13:58:53.248Z</time></trkpt><trkpt lat="45.1522629" lon="8.0516599"><ele>176.20000000000002</ele><time>2026-04-18T13:58:55.247Z</time></trkpt><trkpt lat="45.1522603" lon="8.0517591"><ele>176.4</ele><time>2026-04-18T13:58:56.247Z</time></trkpt><trkpt lat="45.1522776" lon="8.0518745"><ele>176.6</ele><time>2026-04-18T13:58:57.247Z</time></trkpt><trkpt lat="45.152321" lon="8.0519967"><ele>176.8</ele><time>2026-04-18T13:58:58.247Z</time></trkpt><trkpt lat="45.1523695" lon="8.0521318"><ele>177.0</ele><time>2026-04-18T13:58:59.247Z</time></trkpt><trkpt lat="45.1524201" lon="8.0522733"><ele>176.75</ele><time>2026-04-18T13:59:00.247Z</time></trkpt><trkpt lat="45.1524724" lon="8.052427"><ele>176.5</ele><time>2026-04-18T13:59:01.247Z</time></trkpt><trkpt lat="45.1525347" lon="8.0525897"><ele>176.25</ele><time>2026-04-18T13:59:02.248Z</time></trkpt><trkpt lat="45.1525951" lon="8.0527589"><ele>176.0</ele><time>2026-04-18T13:59:03.248Z</time></trkpt><trkpt lat="45.1526572" lon="8.0529496"><ele>176.0</ele><time>2026-04-18T13:59:04.248Z</time></trkpt><trkpt lat="45.1527173" lon="8.0531297"><ele>176.0</ele><time>2026-04-18T13:59:05.248Z</time></trkpt><trkpt lat="45.1527687" lon="8.053306"><ele>176.0</ele><time>2026-04-18T13:59:06.247Z</time></trkpt><trkpt lat="45.1528201" lon="8.0534825"><ele>176.0</ele><time>2026-04-18T13:59:07.247Z</time></trkpt><trkpt lat="45.1528805" lon="8.0536622"><ele>175.5</ele><time>2026-04-18T13:59:08.247Z</time></trkpt><trkpt lat="45.1529444" lon="8.0538404"><ele>175.0</ele><time>2026-04-18T13:59:09.248Z</time></trkpt><trkpt lat="45.1530053" lon="8.0540182"><ele>174.5</ele><time>2026-04-18T13:59:10.248Z</time></trkpt><trkpt lat="45.1530706" lon="8.0541954"><ele>174.0</ele><time>2026-04-18T13:59:11.247Z</time></trkpt><trkpt lat="45.1531345" lon="8.0543748"><ele>174.0</ele><time>2026-04-18T13:59:12.247Z</time></trkpt><trkpt lat="45.1532018" lon="8.0545534"><ele>174.0</ele><time>2026-04-18T13:59:13.247Z</time></trkpt><trkpt lat="45.153253" lon="8.0547347"><ele>174.0</ele><time>2026-04-18T13:59:14.247Z</time></trkpt><trkpt lat="45.1533119" lon="8.0549137"><ele>174.0</ele><time>2026-04-18T13:59:15.248Z</time></trkpt><trkpt lat="45.1533714" lon="8.0550948"><ele>174.0</ele><time>2026-04-18T13:59:16.247Z</time></trkpt><trkpt lat="45.1534245" lon="8.0552744"><ele>174.0</ele><time>2026-04-18T13:59:17.247Z</time></trkpt><trkpt lat="45.1534892" lon="8.0554432"><ele>174.0</ele><time>2026-04-18T13:59:18.247Z</time></trkpt><trkpt lat="45.1535449" lon="8.0556115"><ele>174.0</ele><time>2026-04-18T13:59:19.247Z</time></trkpt><trkpt lat="45.1535923" lon="8.0557717"><ele>174.0</ele><time>2026-04-18T13:59:20.247Z</time></trkpt><trkpt lat="45.1536403" lon="8.0559191"><ele>174.0</ele><time>2026-04-18T13:59:21.247Z</time></trkpt><trkpt lat="45.1536804" lon="8.0560443"><ele>174.0</ele><time>2026-04-18T13:59:22.247Z</time></trkpt><trkpt lat="45.1537405" lon="8.056145"><ele>174.0</ele><time>2026-04-18T13:59:23.247Z</time></trkpt><trkpt lat="45.1538151" lon="8.0562282"><ele>174.0</ele><time>2026-04-18T13:59:24.247Z</time></trkpt><trkpt lat="45.1539082" lon="8.0562912"><ele>174.0</ele><time>2026-04-18T13:59:25.248Z</time></trkpt><trkpt lat="45.1540148" lon="8.0563656"><ele>174.0</ele><time>2026-04-18T13:59:26.248Z</time></trkpt><trkpt lat="45.1541101" lon="8.0564685"><ele>174.0</ele><time>2026-04-18T13:59:27.248Z</time></trkpt><trkpt lat="45.1542087" lon="8.0565908"><ele>174.0</ele><time>2026-04-18T13:59:28.247Z</time></trkpt><trkpt lat="45.1543111" lon="8.0567204"><ele>173.5</ele><time>2026-04-18T13:59:29.247Z</time></trkpt><trkpt lat="45.1544082" lon="8.0568533"><ele>173.0</ele><time>2026-04-18T13:59:30.247Z</time></trkpt><trkpt lat="45.1545118" lon="8.0569857"><ele>172.5</ele><time>2026-04-18T13:59:31.247Z</time></trkpt><trkpt lat="45.1546176" lon="8.0571066"><ele>172.0</ele><time>2026-04-18T13:59:32.247Z</time></trkpt><trkpt lat="45.15472" lon="8.0572335"><ele>172.0</ele><time>2026-04-18T13:59:33.247Z</time></trkpt><trkpt lat="45.1548226" lon="8.0573568"><ele>172.0</ele><time>2026-04-18T13:59:34.247Z</time></trkpt><trkpt lat="45.1549258" lon="8.0574741"><ele>172.0</ele><time>2026-04-18T13:59:35.247Z</time></trkpt><trkpt lat="45.1550278" lon="8.0575903"><ele>172.0</ele><time>2026-04-18T13:59:36.247Z</time></trkpt><trkpt lat="45.155125" lon="8.0577151"><ele>172.0</ele><time>2026-04-18T13:59:37.247Z</time></trkpt><trkpt lat="45.1552286" lon="8.0578331"><ele>172.0</ele><time>2026-04-18T13:59:38.247Z</time></trkpt><trkpt lat="45.1553265" lon="8.0579533"><ele>172.0</ele><time>2026-04-18T13:59:39.248Z</time></trkpt><trkpt lat="45.1554216" lon="8.0580716"><ele>172.0</ele><time>2026-04-18T13:59:40.247Z</time></trkpt><trkpt lat="45.155511" lon="8.0581941"><ele>171.75</ele><time>2026-04-18T13:59:41.247Z</time></trkpt><trkpt lat="45.1555989" lon="8.0583115"><ele>171.5</ele><time>2026-04-18T13:59:42.248Z</time></trkpt><trkpt lat="45.1556881" lon="8.058426"><ele>171.25</ele><time>2026-04-18T13:59:43.247Z</time></trkpt><trkpt lat="45.1557716" lon="8.0585424"><ele>171.0</ele><time>2026-04-18T13:59:44.247Z</time></trkpt><trkpt lat="45.1558458" lon="8.0586856"><ele>171.0</ele><time>2026-04-18T13:59:45.248Z</time></trkpt><trkpt lat="45.1559065" lon="8.0588202"><ele>171.0</ele><time>2026-04-18T13:59:46.248Z</time></trkpt><trkpt lat="45.1559621" lon="8.0589539"><ele>171.0</ele><time>2026-04-18T13:59:47.247Z</time></trkpt><trkpt lat="45.1560096" lon="8.0590753"><ele>171.0</ele><time>2026-04-18T13:59:48.247Z</time></trkpt><trkpt lat="45.156052" lon="8.0591797"><ele>171.0</ele><time>2026-04-18T13:59:49.248Z</time></trkpt><trkpt lat="45.1560811" lon="8.0592645"><ele>171.0</ele><time>2026-04-18T13:59:50.248Z</time></trkpt><trkpt lat="45.1561004" lon="8.0593692"><ele>171.0</ele><time>2026-04-18T13:59:52.247Z</time></trkpt><trkpt lat="45.156116" lon="8.0594774"><ele>171.0</ele><time>2026-04-18T13:59:55.248Z</time></trkpt><trkpt lat="45.1561327" lon="8.0596191"><ele>171.0</ele><time>2026-04-18T13:59:57.247Z</time></trkpt><trkpt lat="45.1561446" lon="8.0597151"><ele>171.0</ele><time>2026-04-18T13:59:58.247Z</time></trkpt><trkpt lat="45.1561598" lon="8.0598302"><ele>171.0</ele><time>2026-04-18T13:59:59.247Z</time></trkpt><trkpt lat="45.1561774" lon="8.0599523"><ele>171.0</ele><time>2026-04-18T14:00:00.248Z</time></trkpt><trkpt lat="45.1561878" lon="8.0600994"><ele>171.0</ele><time>2026-04-18T14:00:01.247Z</time></trkpt><trkpt lat="45.1561879" lon="8.0602533"><ele>171.0</ele><time>2026-04-18T14:00:02.247Z</time></trkpt><trkpt lat="45.1561778" lon="8.0604186"><ele>171.0</ele><time>2026-04-18T14:00:03.248Z</time></trkpt><trkpt lat="45.1561637" lon="8.060594"><ele>171.0</ele><time>2026-04-18T14:00:04.247Z</time></trkpt><trkpt lat="45.1561594" lon="8.0607806"><ele>171.0</ele><time>2026-04-18T14:00:05.247Z</time></trkpt><trkpt lat="45.1561583" lon="8.0609743"><ele>171.0</ele><time>2026-04-18T14:00:06.248Z</time></trkpt><trkpt lat="45.1561474" lon="8.0611752"><ele>171.0</ele><time>2026-04-18T14:00:07.248Z</time></trkpt><trkpt lat="45.1561282" lon="8.0613664"><ele>170.66666666666666</ele><time>2026-04-18T14:00:08.247Z</time></trkpt><trkpt lat="45.1561133" lon="8.0615777"><ele>170.33333333333331</ele><time>2026-04-18T14:00:09.248Z</time></trkpt><trkpt lat="45.1560899" lon="8.0617993"><ele>170.0</ele><time>2026-04-18T14:00:10.247Z</time></trkpt><trkpt lat="45.1560731" lon="8.0620198"><ele>169.66666666666666</ele><time>2026-04-18T14:00:11.247Z</time></trkpt><trkpt lat="45.156051" lon="8.0622448"><ele>169.33333333333334</ele><time>2026-04-18T14:00:12.247Z</time></trkpt><trkpt lat="45.1560259" lon="8.0624574"><ele>169.0</ele><time>2026-04-18T14:00:13.247Z</time></trkpt><trkpt lat="45.1560036" lon="8.0626711"><ele>169.33333333333334</ele><time>2026-04-18T14:00:14.247Z</time></trkpt><trkpt lat="45.1559775" lon="8.0628897"><ele>169.66666666666666</ele><time>2026-04-18T14:00:15.247Z</time></trkpt><trkpt lat="45.1559431" lon="8.063097"><ele>170.0</ele><time>2026-04-18T14:00:16.248Z</time></trkpt><trkpt lat="45.1559122" lon="8.0632985"><ele>170.0</ele><time>2026-04-18T14:00:17.247Z</time></trkpt><trkpt lat="45.1558874" lon="8.0635086"><ele>170.0</ele><time>2026-04-18T14:00:18.247Z</time></trkpt><trkpt lat="45.1558552" lon="8.0637109"><ele>170.0</ele><time>2026-04-18T14:00:19.248Z</time></trkpt><trkpt lat="45.1558286" lon="8.0639069"><ele>170.0</ele><time>2026-04-18T14:00:20.247Z</time></trkpt><trkpt lat="45.1557987" lon="8.0640904"><ele>170.0</ele><time>2026-04-18T14:00:21.247Z</time></trkpt><trkpt lat="45.1557693" lon="8.0642878"><ele>170.0</ele><time>2026-04-18T14:00:22.247Z</time></trkpt><trkpt lat="45.1557449" lon="8.0644795"><ele>170.0</ele><time>2026-04-18T14:00:23.247Z</time></trkpt><trkpt lat="45.155713" lon="8.0646721"><ele>170.0</ele><time>2026-04-18T14:00:24.247Z</time></trkpt><trkpt lat="45.155691" lon="8.0648652"><ele>171.2</ele><time>2026-04-18T14:00:25.247Z</time></trkpt><trkpt lat="45.1556742" lon="8.065043"><ele>172.4</ele><time>2026-04-18T14:00:26.248Z</time></trkpt><trkpt lat="45.1556583" lon="8.0652069"><ele>173.60000000000002</ele><time>2026-04-18T14:00:27.247Z</time></trkpt><trkpt lat="45.1556438" lon="8.0653544"><ele>174.8</ele><time>2026-04-18T14:00:28.248Z</time></trkpt><trkpt lat="45.1556166" lon="8.0654902"><ele>176.0</ele><time>2026-04-18T14:00:29.247Z</time></trkpt><trkpt lat="45.1555829" lon="8.065596"><ele>176.0</ele><time>2026-04-18T14:00:30.247Z</time></trkpt><trkpt lat="45.1555172" lon="8.0656848"><ele>176.0</ele><time>2026-04-18T14:00:31.247Z</time></trkpt><trkpt lat="45.1554478" lon="8.0657635"><ele>176.0</ele><time>2026-04-18T14:00:32.247Z</time></trkpt><trkpt lat="45.1554002" lon="8.0658499"><ele>176.0</ele><time>2026-04-18T14:00:33.247Z</time></trkpt><trkpt lat="45.155369" lon="8.065955"><ele>176.0</ele><time>2026-04-18T14:00:34.247Z</time></trkpt><trkpt lat="45.1553781" lon="8.0660566"><ele>176.0</ele><time>2026-04-18T14:00:35.248Z</time></trkpt><trkpt lat="45.1554227" lon="8.0661424"><ele>175.83333333333331</ele><time>2026-04-18T14:00:36.247Z</time></trkpt><trkpt lat="45.15549" lon="8.0662067"><ele>175.66666666666666</ele><time>2026-04-18T14:00:37.247Z</time></trkpt><trkpt lat="45.1555645" lon="8.0662555"><ele>175.5</ele><time>2026-04-18T14:00:38.247Z</time></trkpt><trkpt lat="45.1556359" lon="8.0663242"><ele>175.33333333333334</ele><time>2026-04-18T14:00:39.247Z</time></trkpt><trkpt lat="45.1556927" lon="8.066423"><ele>175.16666666666669</ele><time>2026-04-18T14:00:40.247Z</time></trkpt><trkpt lat="45.1557392" lon="8.0665474"><ele>175.0</ele><time>2026-04-18T14:00:41.247Z</time></trkpt><trkpt lat="45.1557869" lon="8.0666911"><ele>173.75</ele><time>2026-04-18T14:00:42.248Z</time></trkpt><trkpt lat="45.1558287" lon="8.0668432"><ele>172.5</ele><time>2026-04-18T14:00:43.248Z</time></trkpt><trkpt lat="45.1558752" lon="8.0670026"><ele>171.25</ele><time>2026-04-18T14:00:44.248Z</time></trkpt><trkpt lat="45.1559186" lon="8.0671607"><ele>170.0</ele><time>2026-04-18T14:00:45.248Z</time></trkpt><trkpt lat="45.1559694" lon="8.0673227"><ele>170.5</ele><time>2026-04-18T14:00:46.248Z</time></trkpt><trkpt lat="45.1560176" lon="8.0674978"><ele>171.0</ele><time>2026-04-18T14:00:47.247Z</time></trkpt><trkpt lat="45.1560597" lon="8.0676771"><ele>171.5</ele><time>2026-04-18T14:00:48.247Z</time></trkpt><trkpt lat="45.156108" lon="8.0678545"><ele>172.0</ele><time>2026-04-18T14:00:49.247Z</time></trkpt><trkpt lat="45.1561614" lon="8.0680241"><ele>172.0</ele><time>2026-04-18T14:00:50.247Z</time></trkpt><trkpt lat="45.1562165" lon="8.0682131"><ele>172.0</ele><time>2026-04-18T14:00:51.248Z</time></trkpt><trkpt lat="45.1562581" lon="8.0683838"><ele>172.0</ele><time>2026-04-18T14:00:52.247Z</time></trkpt><trkpt lat="45.1563015" lon="8.0685434"><ele>172.0</ele><time>2026-04-18T14:00:53.248Z</time></trkpt><trkpt lat="45.1563443" lon="8.0687021"><ele>172.5</ele><time>2026-04-18T14:00:54.248Z</time></trkpt><trkpt lat="45.1563904" lon="8.0688657"><ele>173.0</ele><time>2026-04-18T14:00:55.247Z</time></trkpt><trkpt lat="45.156429" lon="8.0690301"><ele>173.5</ele><time>2026-04-18T14:00:56.247Z</time></trkpt><trkpt lat="45.1564606" lon="8.0691758"><ele>174.0</ele><time>2026-04-18T14:00:57.247Z</time></trkpt><trkpt lat="45.1565017" lon="8.0693322"><ele>173.75</ele><time>2026-04-18T14:00:58.247Z</time></trkpt><trkpt lat="45.1565516" lon="8.0694914"><ele>173.5</ele><time>2026-04-18T14:00:59.247Z</time></trkpt><trkpt lat="45.156597" lon="8.0696488"><ele>173.25</ele><time>2026-04-18T14:01:00.247Z</time></trkpt><trkpt lat="45.1566438" lon="8.0698136"><ele>173.0</ele><time>2026-04-18T14:01:01.247Z</time></trkpt><trkpt lat="45.1566847" lon="8.0699717"><ele>172.75</ele><time>2026-04-18T14:01:02.247Z</time></trkpt><trkpt lat="45.1567298" lon="8.0701346"><ele>172.5</ele><time>2026-04-18T14:01:03.248Z</time></trkpt><trkpt lat="45.1567754" lon="8.0702975"><ele>172.25</ele><time>2026-04-18T14:01:04.248Z</time></trkpt><trkpt lat="45.1568202" lon="8.0704624"><ele>172.0</ele><time>2026-04-18T14:01:05.248Z</time></trkpt><trkpt lat="45.1568626" lon="8.0706298"><ele>172.0</ele><time>2026-04-18T14:01:06.248Z</time></trkpt><trkpt lat="45.1569159" lon="8.0708084"><ele>172.0</ele><time>2026-04-18T14:01:07.247Z</time></trkpt><trkpt lat="45.1569651" lon="8.0709827"><ele>172.0</ele><time>2026-04-18T14:01:08.248Z</time></trkpt><trkpt lat="45.1570141" lon="8.0711634"><ele>172.0</ele><time>2026-04-18T14:01:09.247Z</time></trkpt><trkpt lat="45.1570604" lon="8.0713442"><ele>172.0</ele><time>2026-04-18T14:01:10.247Z</time></trkpt><trkpt lat="45.1571084" lon="8.071521"><ele>172.0</ele><time>2026-04-18T14:01:11.247Z</time></trkpt><trkpt lat="45.1571577" lon="8.0717"><ele>172.0</ele><time>2026-04-18T14:01:12.247Z</time></trkpt><trkpt lat="45.1572068" lon="8.0718774"><ele>172.0</ele><time>2026-04-18T14:01:13.248Z</time></trkpt><trkpt lat="45.1572673" lon="8.0720584"><ele>172.0</ele><time>2026-04-18T14:01:14.248Z</time></trkpt><trkpt lat="45.1573125" lon="8.0722337"><ele>172.0</ele><time>2026-04-18T14:01:15.247Z</time></trkpt><trkpt lat="45.1573566" lon="8.072413"><ele>172.0</ele><time>2026-04-18T14:01:16.247Z</time></trkpt><trkpt lat="45.1574025" lon="8.0725816"><ele>172.0</ele><time>2026-04-18T14:01:17.247Z</time></trkpt><trkpt lat="45.157454" lon="8.072758"><ele>172.0</ele><time>2026-04-18T14:01:18.247Z</time></trkpt><trkpt lat="45.1574994" lon="8.0729366"><ele>172.0</ele><time>2026-04-18T14:01:19.247Z</time></trkpt><trkpt lat="45.1575436" lon="8.0731057"><ele>172.0</ele><time>2026-04-18T14:01:20.247Z</time></trkpt><trkpt lat="45.1575881" lon="8.0732763"><ele>172.0</ele><time>2026-04-18T14:01:21.248Z</time></trkpt><trkpt lat="45.1576316" lon="8.0734202"><ele>171.83333333333334</ele><time>2026-04-18T14:01:22.247Z</time></trkpt><trkpt lat="45.1576739" lon="8.0735513"><ele>171.66666666666669</ele><time>2026-04-18T14:01:23.247Z</time></trkpt><trkpt lat="45.1577058" lon="8.0736688"><ele>171.5</ele><time>2026-04-18T14:01:24.247Z</time></trkpt><trkpt lat="45.1577275" lon="8.0737769"><ele>171.33333333333334</ele><time>2026-04-18T14:01:25.247Z</time></trkpt><trkpt lat="45.1577312" lon="8.0738942"><ele>171.16666666666666</ele><time>2026-04-18T14:01:26.247Z</time></trkpt><trkpt lat="45.1577217" lon="8.0740164"><ele>171.0</ele><time>2026-04-18T14:01:27.247Z</time></trkpt><trkpt lat="45.1576933" lon="8.0741296"><ele>171.0</ele><time>2026-04-18T14:01:28.247Z</time></trkpt><trkpt lat="45.1576701" lon="8.074227"><ele>171.0</ele><time>2026-04-18T14:01:29.247Z</time></trkpt><trkpt lat="45.1576482" lon="8.0743276"><ele>171.0</ele><time>2026-04-18T14:01:30.247Z</time></trkpt><trkpt lat="45.1576358" lon="8.0744167"><ele>171.0</ele><time>2026-04-18T14:01:31.248Z</time></trkpt><trkpt lat="45.1576287" lon="8.0745338"><ele>171.0</ele><time>2026-04-18T14:01:33.247Z</time></trkpt><trkpt lat="45.157612" lon="8.074639"><ele>171.0</ele><time>2026-04-18T14:01:45.248Z</time></trkpt><trkpt lat="45.1575785" lon="8.0747967"><ele>171.0</ele><time>2026-04-18T14:01:47.247Z</time></trkpt><trkpt lat="45.1575452" lon="8.0748832"><ele>171.0</ele><time>2026-04-18T14:01:48.248Z</time></trkpt><trkpt lat="45.1575098" lon="8.0749852"><ele>171.0</ele><time>2026-04-18T14:01:49.247Z</time></trkpt><trkpt lat="45.157467" lon="8.0751009"><ele>171.0</ele><time>2026-04-18T14:01:50.247Z</time></trkpt><trkpt lat="45.15742" lon="8.0752298"><ele>171.0</ele><time>2026-04-18T14:01:51.247Z</time></trkpt><trkpt lat="45.1573635" lon="8.0753714"><ele>172.0</ele><time>2026-04-18T14:01:52.248Z</time></trkpt><trkpt lat="45.1573076" lon="8.0755254"><ele>173.0</ele><time>2026-04-18T14:01:53.247Z</time></trkpt><trkpt lat="45.1572531" lon="8.075693"><ele>174.0</ele><time>2026-04-18T14:01:54.247Z</time></trkpt><trkpt lat="45.1571954" lon="8.0758711"><ele>175.0</ele><time>2026-04-18T14:01:55.247Z</time></trkpt><trkpt lat="45.1571381" lon="8.0760423"><ele>176.25</ele><time>2026-04-18T14:01:56.248Z</time></trkpt><trkpt lat="45.1570752" lon="8.076223"><ele>177.5</ele><time>2026-04-18T14:01:57.247Z</time></trkpt><trkpt lat="45.1570092" lon="8.0764016"><ele>178.75</ele><time>2026-04-18T14:01:58.247Z</time></trkpt><trkpt lat="45.1569301" lon="8.0765663"><ele>180.0</ele><time>2026-04-18T14:01:59.247Z</time></trkpt><trkpt lat="45.1568253" lon="8.076705"><ele>180.25</ele><time>2026-04-18T14:02:00.247Z</time></trkpt><trkpt lat="45.1567102" lon="8.0768345"><ele>180.5</ele><time>2026-04-18T14:02:01.247Z</time></trkpt><trkpt lat="45.1565993" lon="8.0769595"><ele>180.75</ele><time>2026-04-18T14:02:02.247Z</time></trkpt><trkpt lat="45.1564986" lon="8.0770793"><ele>181.0</ele><time>2026-04-18T14:02:03.248Z</time></trkpt><trkpt lat="45.1564142" lon="8.077196"><ele>181.0</ele><time>2026-04-18T14:02:04.247Z</time></trkpt><trkpt lat="45.1563551" lon="8.0773324"><ele>181.0</ele><time>2026-04-18T14:02:05.247Z</time></trkpt><trkpt lat="45.1563276" lon="8.0774921"><ele>181.0</ele><time>2026-04-18T14:02:06.247Z</time></trkpt><trkpt lat="45.1563368" lon="8.0776738"><ele>181.0</ele><time>2026-04-18T14:02:07.247Z</time></trkpt><trkpt lat="45.1563618" lon="8.0778684"><ele>183.0</ele><time>2026-04-18T14:02:08.248Z</time></trkpt><trkpt lat="45.1563847" lon="8.0780737"><ele>185.0</ele><time>2026-04-18T14:02:09.248Z</time></trkpt><trkpt lat="45.1563949" lon="8.0782878"><ele>187.0</ele><time>2026-04-18T14:02:10.247Z</time></trkpt><trkpt lat="45.1563699" lon="8.0785112"><ele>189.0</ele><time>2026-04-18T14:02:11.247Z</time></trkpt><trkpt lat="45.1563209" lon="8.0787181"><ele>191.0</ele><time>2026-04-18T14:02:12.247Z</time></trkpt><trkpt lat="45.1562488" lon="8.0789098"><ele>193.0</ele><time>2026-04-18T14:02:13.248Z</time></trkpt><trkpt lat="45.1561538" lon="8.0790833"><ele>194.66666666666666</ele><time>2026-04-18T14:02:14.248Z</time></trkpt><trkpt lat="45.1560482" lon="8.0792462"><ele>196.33333333333331</ele><time>2026-04-18T14:02:15.247Z</time></trkpt><trkpt lat="45.1559432" lon="8.0794148"><ele>198.0</ele><time>2026-04-18T14:02:16.247Z</time></trkpt><trkpt lat="45.1558418" lon="8.0795863"><ele>198.0</ele><time>2026-04-18T14:02:17.248Z</time></trkpt><trkpt lat="45.1557484" lon="8.0797705"><ele>198.0</ele><time>2026-04-18T14:02:18.247Z</time></trkpt><trkpt lat="45.1556633" lon="8.0799533"><ele>198.0</ele><time>2026-04-18T14:02:19.247Z</time></trkpt><trkpt lat="45.155591" lon="8.0801541"><ele>198.0</ele><time>2026-04-18T14:02:20.247Z</time></trkpt><trkpt lat="45.155526" lon="8.0803612"><ele>198.0</ele><time>2026-04-18T14:02:21.247Z</time></trkpt><trkpt lat="45.1554578" lon="8.0805442"><ele>198.0</ele><time>2026-04-18T14:02:22.247Z</time></trkpt><trkpt lat="45.1553986" lon="8.0807087"><ele>198.0</ele><time>2026-04-18T14:02:23.247Z</time></trkpt><trkpt lat="45.1553517" lon="8.0808639"><ele>199.33333333333334</ele><time>2026-04-18T14:02:24.247Z</time></trkpt><trkpt lat="45.1553068" lon="8.0809953"><ele>200.66666666666669</ele><time>2026-04-18T14:02:25.248Z</time></trkpt><trkpt lat="45.1552873" lon="8.0811143"><ele>202.0</ele><time>2026-04-18T14:02:26.247Z</time></trkpt><trkpt lat="45.1552928" lon="8.0812131"><ele>203.33333333333334</ele><time>2026-04-18T14:02:27.248Z</time></trkpt><trkpt lat="45.1553435" lon="8.0812821"><ele>204.66666666666669</ele><time>2026-04-18T14:02:28.247Z</time></trkpt><trkpt lat="45.155405" lon="8.0813189"><ele>206.0</ele><time>2026-04-18T14:02:29.247Z</time></trkpt><trkpt lat="45.1554715" lon="8.0813055"><ele>206.0</ele><time>2026-04-18T14:02:30.247Z</time></trkpt><trkpt lat="45.1555293" lon="8.0812347"><ele>206.0</ele><time>2026-04-18T14:02:31.247Z</time></trkpt><trkpt lat="45.1556041" lon="8.0811203"><ele>206.0</ele><time>2026-04-18T14:02:32.247Z</time></trkpt><trkpt lat="45.1556875" lon="8.080997"><ele>206.0</ele><time>2026-04-18T14:02:33.248Z</time></trkpt><trkpt lat="45.1557714" lon="8.0808692"><ele>206.0</ele><time>2026-04-18T14:02:34.248Z</time></trkpt><trkpt lat="45.1558581" lon="8.0807331"><ele>206.50000000000003</ele><time>2026-04-18T14:02:35.248Z</time></trkpt><trkpt lat="45.1559371" lon="8.0805993"><ele>207.0</ele><time>2026-04-18T14:02:36.247Z</time></trkpt><trkpt lat="45.1560068" lon="8.0804957"><ele>207.5</ele><time>2026-04-18T14:02:37.247Z</time></trkpt><trkpt lat="45.1560715" lon="8.0804201"><ele>208.0</ele><time>2026-04-18T14:02:38.247Z</time></trkpt><trkpt lat="45.1561338" lon="8.0803775"><ele>208.50000000000003</ele><time>2026-04-18T14:02:39.248Z</time></trkpt><trkpt lat="45.156195" lon="8.0803471"><ele>209.0</ele><time>2026-04-18T14:02:40.248Z</time></trkpt><trkpt lat="45.1562397" lon="8.0804144"><ele>209.0</ele><time>2026-04-18T14:02:41.248Z</time></trkpt><trkpt lat="45.1562633" lon="8.0804986"><ele>209.0</ele><time>2026-04-18T14:02:42.248Z</time></trkpt><trkpt lat="45.156256" lon="8.0806141"><ele>209.0</ele><time>2026-04-18T14:02:43.247Z</time></trkpt><trkpt lat="45.1562281" lon="8.0807473"><ele>209.0</ele><time>2026-04-18T14:02:44.247Z</time></trkpt><trkpt lat="45.1561961" lon="8.0808885"><ele>209.0</ele><time>2026-04-18T14:02:45.247Z</time></trkpt><trkpt lat="45.1561697" lon="8.0810524"><ele>211.75</ele><time>2026-04-18T14:02:46.248Z</time></trkpt><trkpt lat="45.1561355" lon="8.0812158"><ele>214.5</ele><time>2026-04-18T14:02:47.248Z</time></trkpt><trkpt lat="45.1560924" lon="8.081397"><ele>217.25</ele><time>2026-04-18T14:02:48.248Z</time></trkpt><trkpt lat="45.1560499" lon="8.0815818"><ele>220.0</ele><time>2026-04-18T14:02:49.248Z</time></trkpt><trkpt lat="45.1560107" lon="8.081771"><ele>221.75</ele><time>2026-04-18T14:02:50.247Z</time></trkpt><trkpt lat="45.1559712" lon="8.0819487"><ele>223.5</ele><time>2026-04-18T14:02:51.247Z</time></trkpt><trkpt lat="45.1559413" lon="8.0821146"><ele>225.25</ele><time>2026-04-18T14:02:52.247Z</time></trkpt><trkpt lat="45.1559081" lon="8.0822676"><ele>227.0</ele><time>2026-04-18T14:02:53.247Z</time></trkpt><trkpt lat="45.1558692" lon="8.0824099"><ele>226.75</ele><time>2026-04-18T14:02:54.248Z</time></trkpt><trkpt lat="45.1558019" lon="8.0825504"><ele>226.5</ele><time>2026-04-18T14:02:55.247Z</time></trkpt><trkpt lat="45.1557343" lon="8.082703"><ele>226.25</ele><time>2026-04-18T14:02:56.247Z</time></trkpt><trkpt lat="45.1556423" lon="8.0828366"><ele>226.0</ele><time>2026-04-18T14:02:57.247Z</time></trkpt><trkpt lat="45.1555666" lon="8.0829672"><ele>226.0</ele><time>2026-04-18T14:02:58.248Z</time></trkpt><trkpt lat="45.1555053" lon="8.0830848"><ele>226.00000000000003</ele><time>2026-04-18T14:02:59.247Z</time></trkpt><trkpt lat="45.1554603" lon="8.0831945"><ele>226.00000000000003</ele><time>2026-04-18T14:03:00.247Z</time></trkpt><trkpt lat="45.1554478" lon="8.0833071"><ele>226.0</ele><time>2026-04-18T14:03:01.247Z</time></trkpt><trkpt lat="45.155454" lon="8.0834271"><ele>226.0</ele><time>2026-04-18T14:03:02.248Z</time></trkpt><trkpt lat="45.1554968" lon="8.0835478"><ele>229.75</ele><time>2026-04-18T14:03:03.247Z</time></trkpt><trkpt lat="45.1555619" lon="8.0836749"><ele>233.5</ele><time>2026-04-18T14:03:04.248Z</time></trkpt><trkpt lat="45.1556302" lon="8.0838066"><ele>237.25</ele><time>2026-04-18T14:03:05.247Z</time></trkpt><trkpt lat="45.155699" lon="8.0839409"><ele>241.0</ele><time>2026-04-18T14:03:06.247Z</time></trkpt><trkpt lat="45.155747" lon="8.0840807"><ele>241.5</ele><time>2026-04-18T14:03:07.248Z</time></trkpt><trkpt lat="45.1557604" lon="8.0842344"><ele>242.0</ele><time>2026-04-18T14:03:08.247Z</time></trkpt><trkpt lat="45.1557411" lon="8.0843953"><ele>242.5</ele><time>2026-04-18T14:03:09.247Z</time></trkpt><trkpt lat="45.1556919" lon="8.0845655"><ele>243.0</ele><time>2026-04-18T14:03:10.247Z</time></trkpt><trkpt lat="45.1556307" lon="8.0847497"><ele>246.33333333333331</ele><time>2026-04-18T14:03:11.247Z</time></trkpt><trkpt lat="45.155567" lon="8.0849361"><ele>249.66666666666666</ele><time>2026-04-18T14:03:12.248Z</time></trkpt><trkpt lat="45.155503" lon="8.085133"><ele>253.0</ele><time>2026-04-18T14:03:13.247Z</time></trkpt><trkpt lat="45.1554361" lon="8.0853318"><ele>253.0</ele><time>2026-04-18T14:03:14.248Z</time></trkpt><trkpt lat="45.1553723" lon="8.0855349"><ele>253.0</ele><time>2026-04-18T14:03:15.248Z</time></trkpt><trkpt lat="45.1553189" lon="8.0857328"><ele>253.0</ele><time>2026-04-18T14:03:16.247Z</time></trkpt><trkpt lat="45.1552789" lon="8.0859278"><ele>253.0</ele><time>2026-04-18T14:03:17.247Z</time></trkpt><trkpt lat="45.1552568" lon="8.0861157"><ele>254.25</ele><time>2026-04-18T14:03:18.247Z</time></trkpt><trkpt lat="45.1552479" lon="8.0862811"><ele>255.5</ele><time>2026-04-18T14:03:19.247Z</time></trkpt><trkpt lat="45.1552565" lon="8.0864457"><ele>256.75</ele><time>2026-04-18T14:03:20.248Z</time></trkpt><trkpt lat="45.1552646" lon="8.0866183"><ele>258.0</ele><time>2026-04-18T14:03:21.248Z</time></trkpt><trkpt lat="45.1552716" lon="8.0868156"><ele>258.0</ele><time>2026-04-18T14:03:22.247Z</time></trkpt><trkpt lat="45.155262" lon="8.0870052"><ele>258.0</ele><time>2026-04-18T14:03:23.247Z</time></trkpt><trkpt lat="45.155228" lon="8.0872011"><ele>258.0</ele><time>2026-04-18T14:03:24.247Z</time></trkpt><trkpt lat="45.1551576" lon="8.0873756"><ele>258.0</ele><time>2026-04-18T14:03:25.248Z</time></trkpt><trkpt lat="45.1550659" lon="8.0875207"><ele>258.75</ele><time>2026-04-18T14:03:26.248Z</time></trkpt><trkpt lat="45.1549671" lon="8.0876434"><ele>259.5</ele><time>2026-04-18T14:03:27.247Z</time></trkpt><trkpt lat="45.1548853" lon="8.087775"><ele>260.25</ele><time>2026-04-18T14:03:28.247Z</time></trkpt><trkpt lat="45.1548325" lon="8.0879199"><ele>261.0</ele><time>2026-04-18T14:03:29.247Z</time></trkpt><trkpt lat="45.1548091" lon="8.0880906"><ele>261.0</ele><time>2026-04-18T14:03:30.247Z</time></trkpt><trkpt lat="45.1548271" lon="8.0882703"><ele>261.0</ele><time>2026-04-18T14:03:31.248Z</time></trkpt><trkpt lat="45.1548807" lon="8.0884397"><ele>261.0</ele><time>2026-04-18T14:03:32.247Z</time></trkpt><trkpt lat="45.1549622" lon="8.0886164"><ele>261.0</ele><time>2026-04-18T14:03:33.248Z</time></trkpt><trkpt lat="45.1550474" lon="8.0888062"><ele>261.0</ele><time>2026-04-18T14:03:34.247Z</time></trkpt><trkpt lat="45.1551384" lon="8.0889971"><ele>261.0</ele><time>2026-04-18T14:03:35.247Z</time></trkpt><trkpt lat="45.1552252" lon="8.0891962"><ele>261.0</ele><time>2026-04-18T14:03:36.247Z</time></trkpt><trkpt lat="45.1553218" lon="8.0893971"><ele>263.6666666666667</ele><time>2026-04-18T14:03:37.247Z</time></trkpt><trkpt lat="45.1554125" lon="8.0895958"><ele>266.33333333333337</ele><time>2026-04-18T14:03:38.248Z</time></trkpt><trkpt lat="45.1555269" lon="8.0897797"><ele>269.0</ele><time>2026-04-18T14:03:39.247Z</time></trkpt><trkpt lat="45.1556617" lon="8.0899373"><ele>269.6666666666667</ele><time>2026-04-18T14:03:40.247Z</time></trkpt><trkpt lat="45.1557941" lon="8.090104"><ele>270.3333333333333</ele><time>2026-04-18T14:03:41.247Z</time></trkpt><trkpt lat="45.1559189" lon="8.0902863"><ele>271.0</ele><time>2026-04-18T14:03:42.248Z</time></trkpt><trkpt lat="45.1560414" lon="8.0904878"><ele>271.0</ele><time>2026-04-18T14:03:43.247Z</time></trkpt><trkpt lat="45.1561514" lon="8.0906906"><ele>271.0</ele><time>2026-04-18T14:03:44.247Z</time></trkpt><trkpt lat="45.156264" lon="8.0908978"><ele>271.0</ele><time>2026-04-18T14:03:45.247Z</time></trkpt><trkpt lat="45.1563697" lon="8.091093"><ele>269.66666666666663</ele><time>2026-04-18T14:03:46.247Z</time></trkpt><trkpt lat="45.1564638" lon="8.0912804"><ele>268.3333333333333</ele><time>2026-04-18T14:03:47.247Z</time></trkpt><trkpt lat="45.1565609" lon="8.0914501"><ele>267.0</ele><time>2026-04-18T14:03:48.247Z</time></trkpt><trkpt lat="45.1566413" lon="8.0916265"><ele>269.75</ele><time>2026-04-18T14:03:49.247Z</time></trkpt><trkpt lat="45.1566957" lon="8.0918155"><ele>272.5</ele><time>2026-04-18T14:03:50.248Z</time></trkpt><trkpt lat="45.1567608" lon="8.0919932"><ele>275.25</ele><time>2026-04-18T14:03:51.247Z</time></trkpt><trkpt lat="45.15682" lon="8.0921652"><ele>278.0</ele><time>2026-04-18T14:03:52.247Z</time></trkpt><trkpt lat="45.1568834" lon="8.0923268"><ele>280.5</ele><time>2026-04-18T14:03:53.247Z</time></trkpt><trkpt lat="45.1569522" lon="8.0924778"><ele>283.0</ele><time>2026-04-18T14:03:54.248Z</time></trkpt><trkpt lat="45.1570264" lon="8.0926118"><ele>285.5</ele><time>2026-04-18T14:03:55.248Z</time></trkpt><trkpt lat="45.1570949" lon="8.092755"><ele>288.0</ele><time>2026-04-18T14:03:56.247Z</time></trkpt><trkpt lat="45.1571503" lon="8.0928736"><ele>288.0</ele><time>2026-04-18T14:03:57.247Z</time></trkpt><trkpt lat="45.1571879" lon="8.0929902"><ele>288.0</ele><time>2026-04-18T14:03:58.248Z</time></trkpt><trkpt lat="45.1572326" lon="8.0930922"><ele>288.0</ele><time>2026-04-18T14:03:59.247Z</time></trkpt><trkpt lat="45.1572489" lon="8.0931808"><ele>288.0</ele><time>2026-04-18T14:04:00.248Z</time></trkpt><trkpt lat="45.1572091" lon="8.0932843"><ele>288.0</ele><time>2026-04-18T14:04:02.247Z</time></trkpt><trkpt lat="45.1571304" lon="8.0933522"><ele>288.0</ele><time>2026-04-18T14:04:04.248Z</time></trkpt><trkpt lat="45.1570566" lon="8.0933773"><ele>288.2</ele><time>2026-04-18T14:04:05.247Z</time></trkpt><trkpt lat="45.1569586" lon="8.0933957"><ele>288.4</ele><time>2026-04-18T14:04:06.247Z</time></trkpt><trkpt lat="45.1568611" lon="8.0934093"><ele>288.59999999999997</ele><time>2026-04-18T14:04:07.247Z</time></trkpt><trkpt lat="45.1567537" lon="8.093413"><ele>288.8</ele><time>2026-04-18T14:04:08.248Z</time></trkpt><trkpt lat="45.1566333" lon="8.093431"><ele>289.0</ele><time>2026-04-18T14:04:09.248Z</time></trkpt><trkpt lat="45.1565089" lon="8.0934432"><ele>290.0</ele><time>2026-04-18T14:04:10.247Z</time></trkpt><trkpt lat="45.1563817" lon="8.0934602"><ele>291.0</ele><time>2026-04-18T14:04:11.247Z</time></trkpt><trkpt lat="45.156256" lon="8.0934838"><ele>292.0</ele><time>2026-04-18T14:04:12.247Z</time></trkpt><trkpt lat="45.156121" lon="8.0935043"><ele>293.0</ele><time>2026-04-18T14:04:13.247Z</time></trkpt><trkpt lat="45.1559879" lon="8.0935264"><ele>293.0</ele><time>2026-04-18T14:04:14.247Z</time></trkpt><trkpt lat="45.1558659" lon="8.093548"><ele>293.0</ele><time>2026-04-18T14:04:15.248Z</time></trkpt><trkpt lat="45.1557503" lon="8.0935658"><ele>293.0</ele><time>2026-04-18T14:04:16.247Z</time></trkpt><trkpt lat="45.1556443" lon="8.0935833"><ele>293.0</ele><time>2026-04-18T14:04:17.247Z</time></trkpt><trkpt lat="45.1555354" lon="8.0935946"><ele>293.6666666666667</ele><time>2026-04-18T14:04:18.248Z</time></trkpt><trkpt lat="45.1554326" lon="8.0936141"><ele>294.33333333333337</ele><time>2026-04-18T14:04:19.247Z</time></trkpt><trkpt lat="45.155339" lon="8.0936241"><ele>295.0</ele><time>2026-04-18T14:04:20.247Z</time></trkpt><trkpt lat="45.1552575" lon="8.0936489"><ele>295.6666666666667</ele><time>2026-04-18T14:04:21.247Z</time></trkpt><trkpt lat="45.1551848" lon="8.0936812"><ele>296.3333333333333</ele><time>2026-04-18T14:04:22.247Z</time></trkpt><trkpt lat="45.1551273" lon="8.0937274"><ele>297.0</ele><time>2026-04-18T14:04:23.248Z</time></trkpt><trkpt lat="45.1550892" lon="8.0938113"><ele>297.0</ele><time>2026-04-18T14:04:24.247Z</time></trkpt><trkpt lat="45.1550591" lon="8.0939306"><ele>297.0</ele><time>2026-04-18T14:04:25.247Z</time></trkpt><trkpt lat="45.1550296" lon="8.0940693"><ele>297.0</ele><time>2026-04-18T14:04:26.248Z</time></trkpt><trkpt lat="45.1549966" lon="8.0942363"><ele>297.0</ele><time>2026-04-18T14:04:27.247Z</time></trkpt><trkpt lat="45.154965" lon="8.0943877"><ele>297.0</ele><time>2026-04-18T14:04:28.247Z</time></trkpt><trkpt lat="45.1549246" lon="8.0945595"><ele>296.0</ele><time>2026-04-18T14:04:29.247Z</time></trkpt><trkpt lat="45.1548761" lon="8.0947419"><ele>295.0</ele><time>2026-04-18T14:04:30.247Z</time></trkpt><trkpt lat="45.1548242" lon="8.0949361"><ele>294.0</ele><time>2026-04-18T14:04:31.247Z</time></trkpt><trkpt lat="45.1547646" lon="8.095128"><ele>293.0</ele><time>2026-04-18T14:04:32.247Z</time></trkpt><trkpt lat="45.1547028" lon="8.0953215"><ele>293.0</ele><time>2026-04-18T14:04:33.247Z</time></trkpt><trkpt lat="45.1546434" lon="8.0955219"><ele>293.0</ele><time>2026-04-18T14:04:34.247Z</time></trkpt><trkpt lat="45.1545942" lon="8.0957352"><ele>293.0</ele><time>2026-04-18T14:04:35.248Z</time></trkpt><trkpt lat="45.1545495" lon="8.0959357"><ele>291.5</ele><time>2026-04-18T14:04:36.247Z</time></trkpt><trkpt lat="45.1545256" lon="8.0961402"><ele>290.0</ele><time>2026-04-18T14:04:37.248Z</time></trkpt><trkpt lat="45.1545133" lon="8.0963521"><ele>288.5</ele><time>2026-04-18T14:04:38.248Z</time></trkpt><trkpt lat="45.1545038" lon="8.09656"><ele>287.0</ele><time>2026-04-18T14:04:39.247Z</time></trkpt><trkpt lat="45.154491" lon="8.0967648"><ele>286.5</ele><time>2026-04-18T14:04:40.248Z</time></trkpt><trkpt lat="45.1544678" lon="8.0969569"><ele>286.0</ele><time>2026-04-18T14:04:41.248Z</time></trkpt><trkpt lat="45.1544169" lon="8.0971425"><ele>285.5</ele><time>2026-04-18T14:04:42.247Z</time></trkpt><trkpt lat="45.1543495" lon="8.0973194"><ele>285.0</ele><time>2026-04-18T14:04:43.247Z</time></trkpt><trkpt lat="45.1542802" lon="8.0974957"><ele>284.3333333333333</ele><time>2026-04-18T14:04:44.247Z</time></trkpt><trkpt lat="45.1541904" lon="8.0976746"><ele>283.66666666666663</ele><time>2026-04-18T14:04:45.247Z</time></trkpt><trkpt lat="45.1540955" lon="8.0978648"><ele>283.0</ele><time>2026-04-18T14:04:46.247Z</time></trkpt><trkpt lat="45.1540066" lon="8.0980535"><ele>283.66666666666663</ele><time>2026-04-18T14:04:47.247Z</time></trkpt><trkpt lat="45.1539184" lon="8.0982481"><ele>284.3333333333333</ele><time>2026-04-18T14:04:48.248Z</time></trkpt><trkpt lat="45.1538268" lon="8.0984459"><ele>285.0</ele><time>2026-04-18T14:04:49.248Z</time></trkpt><trkpt lat="45.15374" lon="8.098641"><ele>285.0</ele><time>2026-04-18T14:04:50.247Z</time></trkpt><trkpt lat="45.1536525" lon="8.0988328"><ele>285.0</ele><time>2026-04-18T14:04:51.247Z</time></trkpt><trkpt lat="45.1535618" lon="8.0990292"><ele>285.0</ele><time>2026-04-18T14:04:52.247Z</time></trkpt><trkpt lat="45.1534736" lon="8.0992105"><ele>285.25</ele><time>2026-04-18T14:04:53.247Z</time></trkpt><trkpt lat="45.1533898" lon="8.0993873"><ele>285.5</ele><time>2026-04-18T14:04:54.248Z</time></trkpt><trkpt lat="45.1533153" lon="8.0995545"><ele>285.75</ele><time>2026-04-18T14:04:55.248Z</time></trkpt><trkpt lat="45.1532445" lon="8.0997179"><ele>286.0</ele><time>2026-04-18T14:04:56.247Z</time></trkpt><trkpt lat="45.1531877" lon="8.0998934"><ele>282.5</ele><time>2026-04-18T14:04:57.247Z</time></trkpt><trkpt lat="45.1531564" lon="8.1000693"><ele>279.0</ele><time>2026-04-18T14:04:58.247Z</time></trkpt><trkpt lat="45.153156" lon="8.1002572"><ele>275.5</ele><time>2026-04-18T14:04:59.247Z</time></trkpt><trkpt lat="45.1531815" lon="8.1004455"><ele>272.0</ele><time>2026-04-18T14:05:00.248Z</time></trkpt><trkpt lat="45.1532041" lon="8.100621"><ele>270.0</ele><time>2026-04-18T14:05:01.248Z</time></trkpt><trkpt lat="45.1531921" lon="8.1007857"><ele>268.0</ele><time>2026-04-18T14:05:02.248Z</time></trkpt><trkpt lat="45.1531431" lon="8.1009458"><ele>266.0</ele><time>2026-04-18T14:05:03.247Z</time></trkpt><trkpt lat="45.1530829" lon="8.1011073"><ele>264.0</ele><time>2026-04-18T14:05:04.247Z</time></trkpt><trkpt lat="45.153035" lon="8.1012883"><ele>264.0</ele><time>2026-04-18T14:05:05.247Z</time></trkpt><trkpt lat="45.1530127" lon="8.1014852"><ele>264.0</ele><time>2026-04-18T14:05:06.247Z</time></trkpt><trkpt lat="45.153004" lon="8.1016998"><ele>264.0</ele><time>2026-04-18T14:05:07.247Z</time></trkpt><trkpt lat="45.1530023" lon="8.1019039"><ele>264.0</ele><time>2026-04-18T14:05:08.247Z</time></trkpt><trkpt lat="45.1530041" lon="8.1020938"><ele>262.25</ele><time>2026-04-18T14:05:09.247Z</time></trkpt><trkpt lat="45.1530357" lon="8.1022738"><ele>260.5</ele><time>2026-04-18T14:05:10.247Z</time></trkpt><trkpt lat="45.153069" lon="8.1024454"><ele>258.75</ele><time>2026-04-18T14:05:11.247Z</time></trkpt><trkpt lat="45.1531285" lon="8.1026336"><ele>257.0</ele><time>2026-04-18T14:05:12.247Z</time></trkpt><trkpt lat="45.1532033" lon="8.1028157"><ele>257.0</ele><time>2026-04-18T14:05:13.248Z</time></trkpt><trkpt lat="45.1532751" lon="8.1029761"><ele>257.0</ele><time>2026-04-18T14:05:14.247Z</time></trkpt><trkpt lat="45.1533514" lon="8.1031145"><ele>257.0</ele><time>2026-04-18T14:05:15.247Z</time></trkpt><trkpt lat="45.1534056" lon="8.1032151"><ele>257.0</ele><time>2026-04-18T14:05:16.247Z</time></trkpt><trkpt lat="45.1534373" lon="8.1033123"><ele>257.0</ele><time>2026-04-18T14:05:17.248Z</time></trkpt><trkpt lat="45.1533808" lon="8.1034611"><ele>257.0</ele><time>2026-04-18T14:05:19.247Z</time></trkpt><trkpt lat="45.1533053" lon="8.10348"><ele>257.0</ele><time>2026-04-18T14:05:20.248Z</time></trkpt><trkpt lat="45.1532137" lon="8.1034416"><ele>257.0</ele><time>2026-04-18T14:05:21.248Z</time></trkpt><trkpt lat="45.1531145" lon="8.1033571"><ele>257.0</ele><time>2026-04-18T14:05:22.247Z</time></trkpt><trkpt lat="45.1530106" lon="8.1032587"><ele>257.0</ele><time>2026-04-18T14:05:23.247Z</time></trkpt><trkpt lat="45.1529162" lon="8.1031539"><ele>256.0</ele><time>2026-04-18T14:05:24.247Z</time></trkpt><trkpt lat="45.152824" lon="8.1030569"><ele>255.0</ele><time>2026-04-18T14:05:25.247Z</time></trkpt><trkpt lat="45.1527425" lon="8.1029624"><ele>254.0</ele><time>2026-04-18T14:05:26.247Z</time></trkpt><trkpt lat="45.1526726" lon="8.1028999"><ele>253.0</ele><time>2026-04-18T14:05:27.247Z</time></trkpt><trkpt lat="45.1525611" lon="8.102934"><ele>252.0</ele><time>2026-04-18T14:05:29.247Z</time></trkpt><trkpt lat="45.1525328" lon="8.1030206"><ele>252.0</ele><time>2026-04-18T14:05:30.247Z</time></trkpt><trkpt lat="45.1525371" lon="8.1031411"><ele>252.0</ele><time>2026-04-18T14:05:31.248Z</time></trkpt><trkpt lat="45.1525815" lon="8.1032844"><ele>252.0</ele><time>2026-04-18T14:05:32.248Z</time></trkpt><trkpt lat="45.1526373" lon="8.1034434"><ele>252.0</ele><time>2026-04-18T14:05:33.248Z</time></trkpt><trkpt lat="45.1527009" lon="8.1036117"><ele>249.0</ele><time>2026-04-18T14:05:34.248Z</time></trkpt><trkpt lat="45.152768" lon="8.103786"><ele>246.0</ele><time>2026-04-18T14:05:35.247Z</time></trkpt><trkpt lat="45.1528343" lon="8.1039892"><ele>243.0</ele><time>2026-04-18T14:05:36.247Z</time></trkpt><trkpt lat="45.1528997" lon="8.1041959"><ele>239.0</ele><time>2026-04-18T14:05:37.247Z</time></trkpt><trkpt lat="45.1529586" lon="8.1044012"><ele>235.0</ele><time>2026-04-18T14:05:38.247Z</time></trkpt><trkpt lat="45.1530213" lon="8.1046052"><ele>231.0</ele><time>2026-04-18T14:05:39.247Z</time></trkpt><trkpt lat="45.1530835" lon="8.1047934"><ele>231.75</ele><time>2026-04-18T14:05:40.247Z</time></trkpt><trkpt lat="45.1531437" lon="8.1049658"><ele>232.5</ele><time>2026-04-18T14:05:41.247Z</time></trkpt><trkpt lat="45.1532167" lon="8.1051233"><ele>233.25</ele><time>2026-04-18T14:05:42.248Z</time></trkpt><trkpt lat="45.1533088" lon="8.1052488"><ele>234.0</ele><time>2026-04-18T14:05:43.247Z</time></trkpt><trkpt lat="45.1534222" lon="8.1053379"><ele>234.0</ele><time>2026-04-18T14:05:44.248Z</time></trkpt><trkpt lat="45.1535352" lon="8.1054109"><ele>234.0</ele><time>2026-04-18T14:05:45.247Z</time></trkpt><trkpt lat="45.1536358" lon="8.1054988"><ele>234.0</ele><time>2026-04-18T14:05:46.247Z</time></trkpt><trkpt lat="45.1537224" lon="8.1056234"><ele>234.0</ele><time>2026-04-18T14:05:47.247Z</time></trkpt><trkpt lat="45.15379" lon="8.1057869"><ele>232.0</ele><time>2026-04-18T14:05:48.247Z</time></trkpt><trkpt lat="45.1538306" lon="8.1059709"><ele>230.0</ele><time>2026-04-18T14:05:49.247Z</time></trkpt><trkpt lat="45.1538598" lon="8.1061683"><ele>228.0</ele><time>2026-04-18T14:05:50.247Z</time></trkpt><trkpt lat="45.1538864" lon="8.1063812"><ele>226.0</ele><time>2026-04-18T14:05:51.247Z</time></trkpt><trkpt lat="45.1539073" lon="8.106577"><ele>222.75</ele><time>2026-04-18T14:05:52.247Z</time></trkpt><trkpt lat="45.1539292" lon="8.1067659"><ele>219.5</ele><time>2026-04-18T14:05:53.248Z</time></trkpt><trkpt lat="45.1539427" lon="8.1069403"><ele>216.25</ele><time>2026-04-18T14:05:54.247Z</time></trkpt><trkpt lat="45.1539608" lon="8.1070867"><ele>213.0</ele><time>2026-04-18T14:05:55.247Z</time></trkpt><trkpt lat="45.1540008" lon="8.1072342"><ele>215.75</ele><time>2026-04-18T14:05:56.247Z</time></trkpt><trkpt lat="45.1540626" lon="8.1073683"><ele>218.5</ele><time>2026-04-18T14:05:57.247Z</time></trkpt><trkpt lat="45.1541348" lon="8.1074972"><ele>221.25</ele><time>2026-04-18T14:05:58.248Z</time></trkpt><trkpt lat="45.1542157" lon="8.1076393"><ele>224.0</ele><time>2026-04-18T14:05:59.247Z</time></trkpt><trkpt lat="45.1542899" lon="8.1077621"><ele>224.0</ele><time>2026-04-18T14:06:00.248Z</time></trkpt><trkpt lat="45.1543645" lon="8.1078525"><ele>223.99999999999997</ele><time>2026-04-18T14:06:01.247Z</time></trkpt><trkpt lat="45.1544547" lon="8.1078926"><ele>223.99999999999997</ele><time>2026-04-18T14:06:02.247Z</time></trkpt><trkpt lat="45.1545615" lon="8.1078962"><ele>224.0</ele><time>2026-04-18T14:06:03.247Z</time></trkpt><trkpt lat="45.1546817" lon="8.1078597"><ele>224.0</ele><time>2026-04-18T14:06:04.247Z</time></trkpt><trkpt lat="45.1548075" lon="8.107785"><ele>224.5</ele><time>2026-04-18T14:06:05.247Z</time></trkpt><trkpt lat="45.1549436" lon="8.1077138"><ele>225.0</ele><time>2026-04-18T14:06:06.247Z</time></trkpt><trkpt lat="45.1550774" lon="8.1076438"><ele>225.5</ele><time>2026-04-18T14:06:07.247Z</time></trkpt><trkpt lat="45.1552058" lon="8.10757"><ele>226.0</ele><time>2026-04-18T14:06:08.248Z</time></trkpt><trkpt lat="45.1553103" lon="8.1075121"><ele>225.99999999999997</ele><time>2026-04-18T14:06:09.247Z</time></trkpt><trkpt lat="45.1553989" lon="8.1074652"><ele>226.0</ele><time>2026-04-18T14:06:10.248Z</time></trkpt><trkpt lat="45.1554691" lon="8.1074585"><ele>226.0</ele><time>2026-04-18T14:06:11.248Z</time></trkpt><trkpt lat="45.1555356" lon="8.1074897"><ele>226.0</ele><time>2026-04-18T14:06:12.247Z</time></trkpt><trkpt lat="45.1555467" lon="8.1076004"><ele>225.99999999999997</ele><time>2026-04-18T14:06:13.247Z</time></trkpt><trkpt lat="45.1555294" lon="8.1076942"><ele>226.0</ele><time>2026-04-18T14:06:14.247Z</time></trkpt><trkpt lat="45.1554776" lon="8.1078066"><ele>226.0</ele><time>2026-04-18T14:06:15.247Z</time></trkpt><trkpt lat="45.1553949" lon="8.1079407"><ele>226.0</ele><time>2026-04-18T14:06:16.247Z</time></trkpt><trkpt lat="45.1553237" lon="8.1080756"><ele>226.0</ele><time>2026-04-18T14:06:17.247Z</time></trkpt><trkpt lat="45.1552376" lon="8.1082327"><ele>226.0</ele><time>2026-04-18T14:06:18.247Z</time></trkpt><trkpt lat="45.1551582" lon="8.1083758"><ele>221.0</ele><time>2026-04-18T14:06:19.248Z</time></trkpt><trkpt lat="45.1550656" lon="8.1084975"><ele>216.0</ele><time>2026-04-18T14:06:20.247Z</time></trkpt><trkpt lat="45.1549594" lon="8.1085962"><ele>211.0</ele><time>2026-04-18T14:06:21.247Z</time></trkpt><trkpt lat="45.1548301" lon="8.1086526"><ele>206.0</ele><time>2026-04-18T14:06:22.247Z</time></trkpt><trkpt lat="45.1547006" lon="8.1086684"><ele>205.5</ele><time>2026-04-18T14:06:23.247Z</time></trkpt><trkpt lat="45.1545687" lon="8.1086682"><ele>205.0</ele><time>2026-04-18T14:06:24.247Z</time></trkpt><trkpt lat="45.1544285" lon="8.1086555"><ele>204.5</ele><time>2026-04-18T14:06:25.247Z</time></trkpt><trkpt lat="45.1542988" lon="8.1086341"><ele>204.0</ele><time>2026-04-18T14:06:26.247Z</time></trkpt><trkpt lat="45.1541719" lon="8.1086149"><ele>204.0</ele><time>2026-04-18T14:06:27.248Z</time></trkpt><trkpt lat="45.1540522" lon="8.108604"><ele>204.0</ele><time>2026-04-18T14:06:28.247Z</time></trkpt><trkpt lat="45.1539438" lon="8.1085876"><ele>204.0</ele><time>2026-04-18T14:06:29.247Z</time></trkpt><trkpt lat="45.1538426" lon="8.1085833"><ele>204.0</ele><time>2026-04-18T14:06:30.247Z</time></trkpt><trkpt lat="45.153753" lon="8.1086057"><ele>204.0</ele><time>2026-04-18T14:06:31.248Z</time></trkpt><trkpt lat="45.153671" lon="8.1086706"><ele>202.0</ele><time>2026-04-18T14:06:32.247Z</time></trkpt><trkpt lat="45.1536007" lon="8.1087803"><ele>200.0</ele><time>2026-04-18T14:06:33.247Z</time></trkpt><trkpt lat="45.1535488" lon="8.1089116"><ele>198.0</ele><time>2026-04-18T14:06:34.248Z</time></trkpt><trkpt lat="45.1535134" lon="8.1090578"><ele>196.0</ele><time>2026-04-18T14:06:35.248Z</time></trkpt><trkpt lat="45.1535124" lon="8.1092186"><ele>194.0</ele><time>2026-04-18T14:06:36.248Z</time></trkpt><trkpt lat="45.1535405" lon="8.1093922"><ele>194.0</ele><time>2026-04-18T14:06:37.247Z</time></trkpt><trkpt lat="45.1535993" lon="8.1095721"><ele>194.0</ele><time>2026-04-18T14:06:38.247Z</time></trkpt><trkpt lat="45.1536651" lon="8.1097428"><ele>194.0</ele><time>2026-04-18T14:06:39.247Z</time></trkpt><trkpt lat="45.1537329" lon="8.1099238"><ele>194.0</ele><time>2026-04-18T14:06:40.247Z</time></trkpt><trkpt lat="45.1538023" lon="8.1101084"><ele>194.25</ele><time>2026-04-18T14:06:41.247Z</time></trkpt><trkpt lat="45.1538792" lon="8.1102828"><ele>194.5</ele><time>2026-04-18T14:06:42.247Z</time></trkpt><trkpt lat="45.1539699" lon="8.1104354"><ele>194.75</ele><time>2026-04-18T14:06:43.247Z</time></trkpt><trkpt lat="45.1540452" lon="8.1105927"><ele>195.0</ele><time>2026-04-18T14:06:44.247Z</time></trkpt><trkpt lat="45.154114" lon="8.1107611"><ele>196.0</ele><time>2026-04-18T14:06:45.248Z</time></trkpt><trkpt lat="45.1541492" lon="8.1109335"><ele>197.0</ele><time>2026-04-18T14:06:46.247Z</time></trkpt><trkpt lat="45.1541503" lon="8.1111252"><ele>198.0</ele><time>2026-04-18T14:06:47.247Z</time></trkpt><trkpt lat="45.1541309" lon="8.1113236"><ele>199.0</ele><time>2026-04-18T14:06:48.247Z</time></trkpt><trkpt lat="45.1541151" lon="8.1115207"><ele>200.75</ele><time>2026-04-18T14:06:49.247Z</time></trkpt><trkpt lat="45.1541254" lon="8.11171"><ele>202.5</ele><time>2026-04-18T14:06:50.247Z</time></trkpt><trkpt lat="45.1541706" lon="8.1118927"><ele>204.25</ele><time>2026-04-18T14:06:51.247Z</time></trkpt><trkpt lat="45.1542433" lon="8.1120633"><ele>206.0</ele><time>2026-04-18T14:06:52.247Z</time></trkpt><trkpt lat="45.1543322" lon="8.1122093"><ele>206.0</ele><time>2026-04-18T14:06:53.247Z</time></trkpt><trkpt lat="45.1544393" lon="8.1123389"><ele>206.0</ele><time>2026-04-18T14:06:54.247Z</time></trkpt><trkpt lat="45.1545733" lon="8.1124404"><ele>206.0</ele><time>2026-04-18T14:06:55.247Z</time></trkpt><trkpt lat="45.1546989" lon="8.1125117"><ele>206.0</ele><time>2026-04-18T14:06:56.247Z</time></trkpt><trkpt lat="45.1548307" lon="8.1125777"><ele>207.25</ele><time>2026-04-18T14:06:57.247Z</time></trkpt><trkpt lat="45.1549618" lon="8.1126623"><ele>208.5</ele><time>2026-04-18T14:06:58.247Z</time></trkpt><trkpt lat="45.1550994" lon="8.1127343"><ele>209.75</ele><time>2026-04-18T14:06:59.247Z</time></trkpt><trkpt lat="45.1552471" lon="8.112767"><ele>211.0</ele><time>2026-04-18T14:07:00.248Z</time></trkpt><trkpt lat="45.1554027" lon="8.1127925"><ele>211.0</ele><time>2026-04-18T14:07:01.247Z</time></trkpt><trkpt lat="45.1555508" lon="8.112829"><ele>211.0</ele><time>2026-04-18T14:07:02.247Z</time></trkpt><trkpt lat="45.1556927" lon="8.1128624"><ele>211.0</ele><time>2026-04-18T14:07:03.247Z</time></trkpt><trkpt lat="45.1558194" lon="8.1128932"><ele>211.0</ele><time>2026-04-18T14:07:04.247Z</time></trkpt><trkpt lat="45.1559328" lon="8.1129222"><ele>210.20000000000002</ele><time>2026-04-18T14:07:05.248Z</time></trkpt><trkpt lat="45.1560356" lon="8.1129464"><ele>209.4</ele><time>2026-04-18T14:07:06.247Z</time></trkpt><trkpt lat="45.1561147" lon="8.1129785"><ele>208.6</ele><time>2026-04-18T14:07:07.247Z</time></trkpt><trkpt lat="45.1561621" lon="8.1130373"><ele>207.8</ele><time>2026-04-18T14:07:08.247Z</time></trkpt><trkpt lat="45.1561352" lon="8.1131436"><ele>207.0</ele><time>2026-04-18T14:07:10.248Z</time></trkpt><trkpt lat="45.156008" lon="8.1131992"><ele>207.0</ele><time>2026-04-18T14:07:12.247Z</time></trkpt><trkpt lat="45.1559025" lon="8.11322"><ele>207.0</ele><time>2026-04-18T14:07:13.248Z</time></trkpt><trkpt lat="45.1557855" lon="8.113253"><ele>207.0</ele><time>2026-04-18T14:07:14.247Z</time></trkpt><trkpt lat="45.155654" lon="8.1132811"><ele>207.0</ele><time>2026-04-18T14:07:15.248Z</time></trkpt><trkpt lat="45.1555218" lon="8.11331"><ele>211.5</ele><time>2026-04-18T14:07:16.248Z</time></trkpt><trkpt lat="45.1553846" lon="8.1133444"><ele>216.0</ele><time>2026-04-18T14:07:17.248Z</time></trkpt><trkpt lat="45.1552445" lon="8.1133685"><ele>220.5</ele><time>2026-04-18T14:07:18.248Z</time></trkpt><trkpt lat="45.1550912" lon="8.1133988"><ele>225.0</ele><time>2026-04-18T14:07:19.248Z</time></trkpt><trkpt lat="45.1549498" lon="8.1134367"><ele>225.75</ele><time>2026-04-18T14:07:20.247Z</time></trkpt><trkpt lat="45.1548287" lon="8.1134892"><ele>226.5</ele><time>2026-04-18T14:07:21.247Z</time></trkpt><trkpt lat="45.1547065" lon="8.1135769"><ele>227.25</ele><time>2026-04-18T14:07:22.247Z</time></trkpt><trkpt lat="45.1545905" lon="8.1136934"><ele>228.0</ele><time>2026-04-18T14:07:23.248Z</time></trkpt><trkpt lat="45.1544726" lon="8.1137919"><ele>228.0</ele><time>2026-04-18T14:07:24.247Z</time></trkpt><trkpt lat="45.1543482" lon="8.1138696"><ele>228.0</ele><time>2026-04-18T14:07:25.248Z</time></trkpt><trkpt lat="45.1542183" lon="8.1139009"><ele>228.0</ele><time>2026-04-18T14:07:26.248Z</time></trkpt><trkpt lat="45.1540954" lon="8.1139134"><ele>228.0</ele><time>2026-04-18T14:07:27.247Z</time></trkpt><trkpt lat="45.1539829" lon="8.1139316"><ele>230.8</ele><time>2026-04-18T14:07:28.247Z</time></trkpt><trkpt lat="45.1538803" lon="8.1139694"><ele>233.60000000000002</ele><time>2026-04-18T14:07:29.247Z</time></trkpt><trkpt lat="45.1537985" lon="8.1140601"><ele>236.39999999999998</ele><time>2026-04-18T14:07:30.247Z</time></trkpt><trkpt lat="45.153735" lon="8.1141771"><ele>239.2</ele><time>2026-04-18T14:07:31.247Z</time></trkpt><trkpt lat="45.1536773" lon="8.1143022"><ele>242.0</ele><time>2026-04-18T14:07:32.247Z</time></trkpt><trkpt lat="45.1536271" lon="8.1144521"><ele>242.2</ele><time>2026-04-18T14:07:33.248Z</time></trkpt><trkpt lat="45.1536083" lon="8.1145968"><ele>242.39999999999998</ele><time>2026-04-18T14:07:34.247Z</time></trkpt><trkpt lat="45.1535983" lon="8.1147392"><ele>242.60000000000002</ele><time>2026-04-18T14:07:35.247Z</time></trkpt><trkpt lat="45.1536092" lon="8.1148829"><ele>242.8</ele><time>2026-04-18T14:07:36.248Z</time></trkpt><trkpt lat="45.1536572" lon="8.1150146"><ele>243.0</ele><time>2026-04-18T14:07:37.247Z</time></trkpt><trkpt lat="45.1537362" lon="8.1151263"><ele>242.0</ele><time>2026-04-18T14:07:38.247Z</time></trkpt><trkpt lat="45.1538368" lon="8.1152117"><ele>241.0</ele><time>2026-04-18T14:07:39.247Z</time></trkpt><trkpt lat="45.1539624" lon="8.1152817"><ele>240.0</ele><time>2026-04-18T14:07:40.248Z</time></trkpt><trkpt lat="45.154089" lon="8.1153483"><ele>239.0</ele><time>2026-04-18T14:07:41.247Z</time></trkpt><trkpt lat="45.1542108" lon="8.1154252"><ele>238.75</ele><time>2026-04-18T14:07:42.248Z</time></trkpt><trkpt lat="45.1543149" lon="8.1155185"><ele>238.5</ele><time>2026-04-18T14:07:43.247Z</time></trkpt><trkpt lat="45.1543983" lon="8.1156354"><ele>238.25</ele><time>2026-04-18T14:07:44.247Z</time></trkpt><trkpt lat="45.1544686" lon="8.1157768"><ele>238.0</ele><time>2026-04-18T14:07:45.247Z</time></trkpt><trkpt lat="45.154524" lon="8.1159622"><ele>235.0</ele><time>2026-04-18T14:07:46.247Z</time></trkpt><trkpt lat="45.1545695" lon="8.116155"><ele>232.0</ele><time>2026-04-18T14:07:47.247Z</time></trkpt><trkpt lat="45.1546126" lon="8.1163646"><ele>229.0</ele><time>2026-04-18T14:07:48.248Z</time></trkpt><trkpt lat="45.1546491" lon="8.1165865"><ele>227.0</ele><time>2026-04-18T14:07:49.248Z</time></trkpt><trkpt lat="45.1546906" lon="8.1168087"><ele>225.0</ele><time>2026-04-18T14:07:50.247Z</time></trkpt><trkpt lat="45.1547358" lon="8.1170413"><ele>223.0</ele><time>2026-04-18T14:07:51.248Z</time></trkpt><trkpt lat="45.1547789" lon="8.1172719"><ele>223.66666666666666</ele><time>2026-04-18T14:07:52.247Z</time></trkpt><trkpt lat="45.1548299" lon="8.1174929"><ele>224.33333333333331</ele><time>2026-04-18T14:07:53.247Z</time></trkpt><trkpt lat="45.1548705" lon="8.1177217"><ele>225.0</ele><time>2026-04-18T14:07:54.247Z</time></trkpt><trkpt lat="45.1549139" lon="8.1179489"><ele>225.0</ele><time>2026-04-18T14:07:55.247Z</time></trkpt><trkpt lat="45.1549527" lon="8.1181882"><ele>225.0</ele><time>2026-04-18T14:07:56.248Z</time></trkpt><trkpt lat="45.1549864" lon="8.1184228"><ele>225.0</ele><time>2026-04-18T14:07:57.247Z</time></trkpt><trkpt lat="45.1550216" lon="8.1186579"><ele>221.66666666666669</ele><time>2026-04-18T14:07:58.248Z</time></trkpt><trkpt lat="45.1550449" lon="8.1188906"><ele>218.33333333333334</ele><time>2026-04-18T14:07:59.248Z</time></trkpt><trkpt lat="45.155053" lon="8.1191054"><ele>215.0</ele><time>2026-04-18T14:08:00.247Z</time></trkpt><trkpt lat="45.1550316" lon="8.1192957"><ele>213.8</ele><time>2026-04-18T14:08:01.247Z</time></trkpt><trkpt lat="45.155002" lon="8.1194574"><ele>212.6</ele><time>2026-04-18T14:08:02.247Z</time></trkpt><trkpt lat="45.1549875" lon="8.1196037"><ele>211.39999999999998</ele><time>2026-04-18T14:08:03.248Z</time></trkpt><trkpt lat="45.1550178" lon="8.1197521"><ele>210.2</ele><time>2026-04-18T14:08:04.248Z</time></trkpt><trkpt lat="45.1550785" lon="8.1198863"><ele>209.0</ele><time>2026-04-18T14:08:05.247Z</time></trkpt><trkpt lat="45.15514" lon="8.1200253"><ele>208.6</ele><time>2026-04-18T14:08:06.247Z</time></trkpt><trkpt lat="45.1551666" lon="8.1201742"><ele>208.2</ele><time>2026-04-18T14:08:07.248Z</time></trkpt><trkpt lat="45.155155" lon="8.1203211"><ele>207.79999999999998</ele><time>2026-04-18T14:08:08.247Z</time></trkpt><trkpt lat="45.1551017" lon="8.1204617"><ele>207.39999999999998</ele><time>2026-04-18T14:08:09.247Z</time></trkpt><trkpt lat="45.1550314" lon="8.1205915"><ele>207.0</ele><time>2026-04-18T14:08:10.247Z</time></trkpt><trkpt lat="45.1549548" lon="8.1207356"><ele>207.0</ele><time>2026-04-18T14:08:11.247Z</time></trkpt><trkpt lat="45.1548714" lon="8.1208903"><ele>207.0</ele><time>2026-04-18T14:08:12.247Z</time></trkpt><trkpt lat="45.1547855" lon="8.1210595"><ele>207.0</ele><time>2026-04-18T14:08:13.247Z</time></trkpt><trkpt lat="45.1546858" lon="8.1212331"><ele>207.0</ele><time>2026-04-18T14:08:14.247Z</time></trkpt><trkpt lat="45.1545874" lon="8.1214242"><ele>203.33333333333331</ele><time>2026-04-18T14:08:15.247Z</time></trkpt><trkpt lat="45.1544839" lon="8.1215954"><ele>199.66666666666666</ele><time>2026-04-18T14:08:16.248Z</time></trkpt><trkpt lat="45.1543736" lon="8.1217743"><ele>196.0</ele><time>2026-04-18T14:08:17.247Z</time></trkpt><trkpt lat="45.1542658" lon="8.1219586"><ele>196.0</ele><time>2026-04-18T14:08:18.248Z</time></trkpt><trkpt lat="45.1541563" lon="8.1221372"><ele>196.0</ele><time>2026-04-18T14:08:19.247Z</time></trkpt><trkpt lat="45.1540474" lon="8.1223198"><ele>196.0</ele><time>2026-04-18T14:08:20.248Z</time></trkpt><trkpt lat="45.1539385" lon="8.1225041"><ele>196.33333333333331</ele><time>2026-04-18T14:08:21.247Z</time></trkpt><trkpt lat="45.1538361" lon="8.1226744"><ele>196.66666666666669</ele><time>2026-04-18T14:08:22.247Z</time></trkpt><trkpt lat="45.1537379" lon="8.1228391"><ele>197.0</ele><time>2026-04-18T14:08:23.248Z</time></trkpt><trkpt lat="45.1536488" lon="8.1229992"><ele>197.0</ele><time>2026-04-18T14:08:24.247Z</time></trkpt><trkpt lat="45.1535606" lon="8.123149"><ele>197.0</ele><time>2026-04-18T14:08:25.247Z</time></trkpt><trkpt lat="45.1534851" lon="8.1233148"><ele>197.0</ele><time>2026-04-18T14:08:26.247Z</time></trkpt><trkpt lat="45.1534167" lon="8.1234826"><ele>197.0</ele><time>2026-04-18T14:08:27.248Z</time></trkpt><trkpt lat="45.1533759" lon="8.1236629"><ele>195.25</ele><time>2026-04-18T14:08:28.247Z</time></trkpt><trkpt lat="45.1533484" lon="8.1238504"><ele>193.5</ele><time>2026-04-18T14:08:29.248Z</time></trkpt><trkpt lat="45.1533507" lon="8.1240506"><ele>191.75</ele><time>2026-04-18T14:08:30.248Z</time></trkpt><trkpt lat="45.1533741" lon="8.1242465"><ele>190.0</ele><time>2026-04-18T14:08:31.248Z</time></trkpt><trkpt lat="45.1534038" lon="8.1244535"><ele>190.0</ele><time>2026-04-18T14:08:32.247Z</time></trkpt><trkpt lat="45.1534342" lon="8.1246613"><ele>190.0</ele><time>2026-04-18T14:08:33.247Z</time></trkpt><trkpt lat="45.1534642" lon="8.1248659"><ele>190.0</ele><time>2026-04-18T14:08:34.248Z</time></trkpt><trkpt lat="45.1534877" lon="8.1250633"><ele>190.0</ele><time>2026-04-18T14:08:35.248Z</time></trkpt><trkpt lat="45.1535071" lon="8.1252475"><ele>190.25</ele><time>2026-04-18T14:08:36.247Z</time></trkpt><trkpt lat="45.1535021" lon="8.1254201"><ele>190.5</ele><time>2026-04-18T14:08:37.248Z</time></trkpt><trkpt lat="45.1534717" lon="8.1255766"><ele>190.75</ele><time>2026-04-18T14:08:38.247Z</time></trkpt><trkpt lat="45.1534446" lon="8.1257279"><ele>191.0</ele><time>2026-04-18T14:08:39.248Z</time></trkpt><trkpt lat="45.1534306" lon="8.1258854"><ele>190.25</ele><time>2026-04-18T14:08:40.247Z</time></trkpt><trkpt lat="45.1534342" lon="8.1260659"><ele>189.5</ele><time>2026-04-18T14:08:41.247Z</time></trkpt><trkpt lat="45.1534308" lon="8.12625"><ele>188.75</ele><time>2026-04-18T14:08:42.247Z</time></trkpt><trkpt lat="45.1534255" lon="8.1264564"><ele>188.0</ele><time>2026-04-18T14:08:43.247Z</time></trkpt><trkpt lat="45.1534265" lon="8.1266765"><ele>186.66666666666666</ele><time>2026-04-18T14:08:44.247Z</time></trkpt><trkpt lat="45.1534295" lon="8.1268971"><ele>185.33333333333334</ele><time>2026-04-18T14:08:45.248Z</time></trkpt><trkpt lat="45.1534365" lon="8.127114"><ele>184.0</ele><time>2026-04-18T14:08:46.248Z</time></trkpt><trkpt lat="45.1534399" lon="8.1273303"><ele>181.75</ele><time>2026-04-18T14:08:47.247Z</time></trkpt><trkpt lat="45.1534424" lon="8.1275483"><ele>179.5</ele><time>2026-04-18T14:08:48.247Z</time></trkpt><trkpt lat="45.1534407" lon="8.1277593"><ele>177.25</ele><time>2026-04-18T14:08:49.247Z</time></trkpt><trkpt lat="45.1534378" lon="8.127958"><ele>175.0</ele><time>2026-04-18T14:08:50.247Z</time></trkpt><trkpt lat="45.1534385" lon="8.1281566"><ele>173.8</ele><time>2026-04-18T14:08:51.248Z</time></trkpt><trkpt lat="45.1534408" lon="8.1283351"><ele>172.6</ele><time>2026-04-18T14:08:52.247Z</time></trkpt><trkpt lat="45.1534473" lon="8.1284985"><ele>171.39999999999998</ele><time>2026-04-18T14:08:53.247Z</time></trkpt><trkpt lat="45.1534664" lon="8.128647"><ele>170.2</ele><time>2026-04-18T14:08:54.247Z</time></trkpt><trkpt lat="45.1535066" lon="8.1287786"><ele>169.0</ele><time>2026-04-18T14:08:55.248Z</time></trkpt><trkpt lat="45.1535867" lon="8.1288959"><ele>169.0</ele><time>2026-04-18T14:08:56.247Z</time></trkpt><trkpt lat="45.1536909" lon="8.1290107"><ele>169.0</ele><time>2026-04-18T14:08:57.247Z</time></trkpt><trkpt lat="45.1538013" lon="8.1291338"><ele>169.0</ele><time>2026-04-18T14:08:58.247Z</time></trkpt><trkpt lat="45.1539184" lon="8.1292575"><ele>169.0</ele><time>2026-04-18T14:08:59.247Z</time></trkpt><trkpt lat="45.1540356" lon="8.1293872"><ele>167.75</ele><time>2026-04-18T14:09:00.247Z</time></trkpt><trkpt lat="45.1541545" lon="8.1295233"><ele>166.5</ele><time>2026-04-18T14:09:01.247Z</time></trkpt><trkpt lat="45.1542662" lon="8.129649"><ele>165.25</ele><time>2026-04-18T14:09:02.247Z</time></trkpt><trkpt lat="45.1543771" lon="8.1297627"><ele>164.0</ele><time>2026-04-18T14:09:03.247Z</time></trkpt><trkpt lat="45.1544994" lon="8.1298632"><ele>163.75</ele><time>2026-04-18T14:09:04.247Z</time></trkpt><trkpt lat="45.1546315" lon="8.1299404"><ele>163.5</ele><time>2026-04-18T14:09:05.248Z</time></trkpt><trkpt lat="45.1547704" lon="8.1300115"><ele>163.25</ele><time>2026-04-18T14:09:06.248Z</time></trkpt><trkpt lat="45.1549171" lon="8.1300927"><ele>163.0</ele><time>2026-04-18T14:09:07.247Z</time></trkpt><trkpt lat="45.1550581" lon="8.1301772"><ele>163.0</ele><time>2026-04-18T14:09:08.247Z</time></trkpt><trkpt lat="45.1551998" lon="8.1302779"><ele>163.0</ele><time>2026-04-18T14:09:09.248Z</time></trkpt><trkpt lat="45.1553433" lon="8.1303783"><ele>163.0</ele><time>2026-04-18T14:09:10.248Z</time></trkpt><trkpt lat="45.1554923" lon="8.1304779"><ele>163.0</ele><time>2026-04-18T14:09:11.247Z</time></trkpt><trkpt lat="45.1556477" lon="8.1305683"><ele>163.0</ele><time>2026-04-18T14:09:12.247Z</time></trkpt><trkpt lat="45.1558035" lon="8.1306431"><ele>163.0</ele><time>2026-04-18T14:09:13.247Z</time></trkpt><trkpt lat="45.1559626" lon="8.1307136"><ele>161.66666666666669</ele><time>2026-04-18T14:09:14.247Z</time></trkpt><trkpt lat="45.1561242" lon="8.130779"><ele>160.33333333333334</ele><time>2026-04-18T14:09:15.247Z</time></trkpt><trkpt lat="45.1562785" lon="8.1308436"><ele>159.0</ele><time>2026-04-18T14:09:16.248Z</time></trkpt><trkpt lat="45.1564407" lon="8.1309021"><ele>160.33333333333334</ele><time>2026-04-18T14:09:17.247Z</time></trkpt><trkpt lat="45.1566044" lon="8.1309551"><ele>161.66666666666669</ele><time>2026-04-18T14:09:18.247Z</time></trkpt><trkpt lat="45.1567627" lon="8.130996"><ele>163.0</ele><time>2026-04-18T14:09:19.247Z</time></trkpt><trkpt lat="45.1569211" lon="8.1310284"><ele>163.0</ele><time>2026-04-18T14:09:20.247Z</time></trkpt><trkpt lat="45.1570853" lon="8.131054"><ele>163.0</ele><time>2026-04-18T14:09:21.247Z</time></trkpt><trkpt lat="45.1572502" lon="8.1310838"><ele>163.0</ele><time>2026-04-18T14:09:22.247Z</time></trkpt><trkpt lat="45.1574133" lon="8.13111"><ele>161.66666666666669</ele><time>2026-04-18T14:09:23.247Z</time></trkpt><trkpt lat="45.1575738" lon="8.1311362"><ele>160.33333333333334</ele><time>2026-04-18T14:09:24.247Z</time></trkpt><trkpt lat="45.1577314" lon="8.1311671"><ele>159.0</ele><time>2026-04-18T14:09:25.248Z</time></trkpt><trkpt lat="45.1578807" lon="8.1312165"><ele>159.0</ele><time>2026-04-18T14:09:26.247Z</time></trkpt><trkpt lat="45.1580271" lon="8.1312718"><ele>159.0</ele><time>2026-04-18T14:09:27.248Z</time></trkpt><trkpt lat="45.1581665" lon="8.1313282"><ele>159.0</ele><time>2026-04-18T14:09:28.248Z</time></trkpt><trkpt lat="45.1583019" lon="8.1313637"><ele>159.0</ele><time>2026-04-18T14:09:29.247Z</time></trkpt><trkpt lat="45.1584338" lon="8.1313896"><ele>158.5</ele><time>2026-04-18T14:09:30.247Z</time></trkpt><trkpt lat="45.158561" lon="8.1314242"><ele>158.0</ele><time>2026-04-18T14:09:31.248Z</time></trkpt><trkpt lat="45.1586899" lon="8.1314802"><ele>157.5</ele><time>2026-04-18T14:09:32.247Z</time></trkpt><trkpt lat="45.1588197" lon="8.1315563"><ele>157.0</ele><time>2026-04-18T14:09:33.247Z</time></trkpt><trkpt lat="45.1589493" lon="8.1316551"><ele>156.0</ele><time>2026-04-18T14:09:34.248Z</time></trkpt><trkpt lat="45.1590834" lon="8.1317742"><ele>155.0</ele><time>2026-04-18T14:09:35.248Z</time></trkpt><trkpt lat="45.1592284" lon="8.1318841"><ele>154.0</ele><time>2026-04-18T14:09:36.247Z</time></trkpt><trkpt lat="45.15938" lon="8.1319897"><ele>154.0</ele><time>2026-04-18T14:09:37.247Z</time></trkpt><trkpt lat="45.1595387" lon="8.1320743"><ele>154.0</ele><time>2026-04-18T14:09:38.247Z</time></trkpt><trkpt lat="45.159698" lon="8.1321576"><ele>154.0</ele><time>2026-04-18T14:09:39.248Z</time></trkpt><trkpt lat="45.1598624" lon="8.1322357"><ele>152.0</ele><time>2026-04-18T14:09:40.247Z</time></trkpt><trkpt lat="45.1600192" lon="8.1323172"><ele>150.0</ele><time>2026-04-18T14:09:41.247Z</time></trkpt><trkpt lat="45.1601795" lon="8.1323993"><ele>148.0</ele><time>2026-04-18T14:09:42.247Z</time></trkpt><trkpt lat="45.160336" lon="8.1324753"><ele>148.0</ele><time>2026-04-18T14:09:43.247Z</time></trkpt><trkpt lat="45.1604865" lon="8.1325609"><ele>148.0</ele><time>2026-04-18T14:09:44.247Z</time></trkpt><trkpt lat="45.1606256" lon="8.1326364"><ele>148.0</ele><time>2026-04-18T14:09:45.247Z</time></trkpt><trkpt lat="45.1607558" lon="8.1327108"><ele>148.0</ele><time>2026-04-18T14:09:46.248Z</time></trkpt><trkpt lat="45.1608651" lon="8.1327732"><ele>148.0</ele><time>2026-04-18T14:09:47.247Z</time></trkpt><trkpt lat="45.1609556" lon="8.1328473"><ele>148.0</ele><time>2026-04-18T14:09:48.247Z</time></trkpt><trkpt lat="45.161023" lon="8.1329379"><ele>148.0</ele><time>2026-04-18T14:09:49.247Z</time></trkpt><trkpt lat="45.1610769" lon="8.133041"><ele>148.0</ele><time>2026-04-18T14:09:50.248Z</time></trkpt><trkpt lat="45.1611113" lon="8.133161"><ele>147.75</ele><time>2026-04-18T14:09:51.247Z</time></trkpt><trkpt lat="45.1611329" lon="8.1333021"><ele>147.5</ele><time>2026-04-18T14:09:52.247Z</time></trkpt><trkpt lat="45.16115" lon="8.1334524"><ele>147.25</ele><time>2026-04-18T14:09:53.247Z</time></trkpt><trkpt lat="45.1611504" lon="8.1336284"><ele>147.0</ele><time>2026-04-18T14:09:54.247Z</time></trkpt><trkpt lat="45.1611543" lon="8.1338078"><ele>147.0</ele><time>2026-04-18T14:09:55.248Z</time></trkpt><trkpt lat="45.1611607" lon="8.134015"><ele>147.0</ele><time>2026-04-18T14:09:56.247Z</time></trkpt><trkpt lat="45.1611744" lon="8.1342304"><ele>147.0</ele><time>2026-04-18T14:09:57.247Z</time></trkpt><trkpt lat="45.1611896" lon="8.1344652"><ele>147.33333333333334</ele><time>2026-04-18T14:09:58.248Z</time></trkpt><trkpt lat="45.1611974" lon="8.1346952"><ele>147.66666666666669</ele><time>2026-04-18T14:09:59.248Z</time></trkpt><trkpt lat="45.1612079" lon="8.1349322"><ele>148.0</ele><time>2026-04-18T14:10:00.247Z</time></trkpt><trkpt lat="45.1612196" lon="8.135171"><ele>147.33333333333334</ele><time>2026-04-18T14:10:01.248Z</time></trkpt><trkpt lat="45.1612342" lon="8.1354285"><ele>146.66666666666666</ele><time>2026-04-18T14:10:02.247Z</time></trkpt><trkpt lat="45.1612469" lon="8.1356856"><ele>146.0</ele><time>2026-04-18T14:10:03.247Z</time></trkpt><trkpt lat="45.1612603" lon="8.1359409"><ele>146.0</ele><time>2026-04-18T14:10:04.248Z</time></trkpt><trkpt lat="45.1612733" lon="8.1362052"><ele>146.0</ele><time>2026-04-18T14:10:05.247Z</time></trkpt><trkpt lat="45.1612874" lon="8.1364736"><ele>146.0</ele><time>2026-04-18T14:10:06.248Z</time></trkpt><trkpt lat="45.1613001" lon="8.1367418"><ele>146.0</ele><time>2026-04-18T14:10:07.247Z</time></trkpt><trkpt lat="45.1613128" lon="8.1370139"><ele>146.0</ele><time>2026-04-18T14:10:08.247Z</time></trkpt><trkpt lat="45.1613261" lon="8.1372746"><ele>146.0</ele><time>2026-04-18T14:10:09.248Z</time></trkpt><trkpt lat="45.1613375" lon="8.1375275"><ele>146.0</ele><time>2026-04-18T14:10:10.247Z</time></trkpt><trkpt lat="45.1613482" lon="8.1377817"><ele>146.0</ele><time>2026-04-18T14:10:11.248Z</time></trkpt><trkpt lat="45.1613637" lon="8.138035"><ele>146.0</ele><time>2026-04-18T14:10:12.247Z</time></trkpt><trkpt lat="45.161376" lon="8.1382772"><ele>146.0</ele><time>2026-04-18T14:10:13.248Z</time></trkpt><trkpt lat="45.1613914" lon="8.138518"><ele>146.0</ele><time>2026-04-18T14:10:14.248Z</time></trkpt><trkpt lat="45.1614011" lon="8.1387627"><ele>146.0</ele><time>2026-04-18T14:10:15.247Z</time></trkpt><trkpt lat="45.161421" lon="8.1390019"><ele>146.0</ele><time>2026-04-18T14:10:16.247Z</time></trkpt><trkpt lat="45.1614366" lon="8.1392433"><ele>146.0</ele><time>2026-04-18T14:10:17.247Z</time></trkpt><trkpt lat="45.1614494" lon="8.1394776"><ele>146.0</ele><time>2026-04-18T14:10:18.248Z</time></trkpt><trkpt lat="45.1614583" lon="8.1397165"><ele>146.0</ele><time>2026-04-18T14:10:19.247Z</time></trkpt><trkpt lat="45.161469" lon="8.1399553"><ele>146.0</ele><time>2026-04-18T14:10:20.248Z</time></trkpt><trkpt lat="45.1614795" lon="8.1401912"><ele>146.0</ele><time>2026-04-18T14:10:21.247Z</time></trkpt><trkpt lat="45.1614884" lon="8.1404235"><ele>146.0</ele><time>2026-04-18T14:10:22.247Z</time></trkpt><trkpt lat="45.1614991" lon="8.1406553"><ele>146.0</ele><time>2026-04-18T14:10:23.247Z</time></trkpt><trkpt lat="45.1615098" lon="8.1408945"><ele>146.0</ele><time>2026-04-18T14:10:24.247Z</time></trkpt><trkpt lat="45.161523" lon="8.1411306"><ele>146.0</ele><time>2026-04-18T14:10:25.248Z</time></trkpt><trkpt lat="45.1615339" lon="8.1413631"><ele>146.0</ele><time>2026-04-18T14:10:26.247Z</time></trkpt><trkpt lat="45.1615513" lon="8.141602"><ele>146.0</ele><time>2026-04-18T14:10:27.247Z</time></trkpt><trkpt lat="45.1615642" lon="8.1418457"><ele>145.66666666666666</ele><time>2026-04-18T14:10:28.247Z</time></trkpt><trkpt lat="45.1615775" lon="8.142081"><ele>145.33333333333334</ele><time>2026-04-18T14:10:29.247Z</time></trkpt><trkpt lat="45.1615911" lon="8.1423032"><ele>145.0</ele><time>2026-04-18T14:10:30.248Z</time></trkpt><trkpt lat="45.161604" lon="8.1425344"><ele>145.0</ele><time>2026-04-18T14:10:31.247Z</time></trkpt><trkpt lat="45.1616245" lon="8.1427655"><ele>145.0</ele><time>2026-04-18T14:10:32.248Z</time></trkpt><trkpt lat="45.1616465" lon="8.1429967"><ele>145.0</ele><time>2026-04-18T14:10:33.248Z</time></trkpt><trkpt lat="45.1616773" lon="8.1432257"><ele>145.33333333333334</ele><time>2026-04-18T14:10:34.247Z</time></trkpt><trkpt lat="45.1617066" lon="8.1434512"><ele>145.66666666666666</ele><time>2026-04-18T14:10:35.247Z</time></trkpt><trkpt lat="45.161741" lon="8.143676"><ele>146.0</ele><time>2026-04-18T14:10:36.248Z</time></trkpt><trkpt lat="45.1617742" lon="8.1439061"><ele>145.66666666666666</ele><time>2026-04-18T14:10:37.248Z</time></trkpt><trkpt lat="45.1618078" lon="8.1441326"><ele>145.33333333333334</ele><time>2026-04-18T14:10:38.247Z</time></trkpt><trkpt lat="45.161848" lon="8.1443653"><ele>145.0</ele><time>2026-04-18T14:10:39.247Z</time></trkpt><trkpt lat="45.1618833" lon="8.1445966"><ele>145.0</ele><time>2026-04-18T14:10:40.248Z</time></trkpt><trkpt lat="45.161917" lon="8.1448333"><ele>145.0</ele><time>2026-04-18T14:10:41.248Z</time></trkpt><trkpt lat="45.1619525" lon="8.1450607"><ele>145.0</ele><time>2026-04-18T14:10:42.247Z</time></trkpt><trkpt lat="45.1619841" lon="8.1452805"><ele>145.66666666666669</ele><time>2026-04-18T14:10:43.248Z</time></trkpt><trkpt lat="45.1620195" lon="8.1454913"><ele>146.33333333333334</ele><time>2026-04-18T14:10:44.247Z</time></trkpt><trkpt lat="45.1620587" lon="8.1457134"><ele>147.0</ele><time>2026-04-18T14:10:45.247Z</time></trkpt><trkpt lat="45.1620931" lon="8.1459369"><ele>149.33333333333334</ele><time>2026-04-18T14:10:46.247Z</time></trkpt><trkpt lat="45.1621295" lon="8.1461714"><ele>151.66666666666669</ele><time>2026-04-18T14:10:47.248Z</time></trkpt><trkpt lat="45.1621665" lon="8.1464045"><ele>154.0</ele><time>2026-04-18T14:10:48.248Z</time></trkpt><trkpt lat="45.1622003" lon="8.1466282"><ele>157.33333333333334</ele><time>2026-04-18T14:10:49.248Z</time></trkpt><trkpt lat="45.162225" lon="8.1468629"><ele>160.66666666666666</ele><time>2026-04-18T14:10:50.247Z</time></trkpt><trkpt lat="45.1622428" lon="8.1470859"><ele>164.0</ele><time>2026-04-18T14:10:51.248Z</time></trkpt><trkpt lat="45.1622474" lon="8.1473017"><ele>165.0</ele><time>2026-04-18T14:10:52.248Z</time></trkpt><trkpt lat="45.1622352" lon="8.1475274"><ele>166.0</ele><time>2026-04-18T14:10:53.247Z</time></trkpt><trkpt lat="45.1622083" lon="8.1477455"><ele>167.0</ele><time>2026-04-18T14:10:54.247Z</time></trkpt><trkpt lat="45.1621699" lon="8.1479748"><ele>167.0</ele><time>2026-04-18T14:10:55.247Z</time></trkpt><trkpt lat="45.1621288" lon="8.1481972"><ele>167.0</ele><time>2026-04-18T14:10:56.247Z</time></trkpt><trkpt lat="45.1620778" lon="8.1484133"><ele>167.0</ele><time>2026-04-18T14:10:57.248Z</time></trkpt><trkpt lat="45.1620362" lon="8.1486292"><ele>167.33333333333331</ele><time>2026-04-18T14:10:58.247Z</time></trkpt><trkpt lat="45.1619896" lon="8.1488485"><ele>167.66666666666666</ele><time>2026-04-18T14:10:59.247Z</time></trkpt><trkpt lat="45.1619413" lon="8.1490581"><ele>168.0</ele><time>2026-04-18T14:11:00.248Z</time></trkpt><trkpt lat="45.1618926" lon="8.1492786"><ele>166.33333333333334</ele><time>2026-04-18T14:11:01.247Z</time></trkpt><trkpt lat="45.1618459" lon="8.1494962"><ele>164.66666666666669</ele><time>2026-04-18T14:11:02.247Z</time></trkpt><trkpt lat="45.1617965" lon="8.1497138"><ele>163.0</ele><time>2026-04-18T14:11:03.247Z</time></trkpt><trkpt lat="45.1617452" lon="8.1499407"><ele>161.66666666666669</ele><time>2026-04-18T14:11:04.248Z</time></trkpt><trkpt lat="45.1616969" lon="8.1501581"><ele>160.33333333333334</ele><time>2026-04-18T14:11:05.247Z</time></trkpt><trkpt lat="45.1616565" lon="8.1503787"><ele>159.0</ele><time>2026-04-18T14:11:06.247Z</time></trkpt><trkpt lat="45.1616357" lon="8.1506129"><ele>156.66666666666666</ele><time>2026-04-18T14:11:07.247Z</time></trkpt><trkpt lat="45.1616195" lon="8.1508459"><ele>154.33333333333331</ele><time>2026-04-18T14:11:08.247Z</time></trkpt><trkpt lat="45.1616153" lon="8.1510942"><ele>152.0</ele><time>2026-04-18T14:11:09.247Z</time></trkpt><trkpt lat="45.161608" lon="8.1513299"><ele>150.33333333333331</ele><time>2026-04-18T14:11:10.247Z</time></trkpt><trkpt lat="45.1616108" lon="8.1515701"><ele>148.66666666666666</ele><time>2026-04-18T14:11:11.247Z</time></trkpt><trkpt lat="45.1616043" lon="8.1518046"><ele>147.0</ele><time>2026-04-18T14:11:12.247Z</time></trkpt><trkpt lat="45.1615896" lon="8.1520389"><ele>147.0</ele><time>2026-04-18T14:11:13.247Z</time></trkpt><trkpt lat="45.1615791" lon="8.1522658"><ele>147.0</ele><time>2026-04-18T14:11:14.247Z</time></trkpt><trkpt lat="45.1615663" lon="8.1524991"><ele>147.0</ele><time>2026-04-18T14:11:15.247Z</time></trkpt><trkpt lat="45.1615554" lon="8.1527303"><ele>146.33333333333334</ele><time>2026-04-18T14:11:16.247Z</time></trkpt><trkpt lat="45.1615475" lon="8.1529608"><ele>145.66666666666669</ele><time>2026-04-18T14:11:17.247Z</time></trkpt><trkpt lat="45.1615323" lon="8.153195"><ele>145.0</ele><time>2026-04-18T14:11:18.247Z</time></trkpt><trkpt lat="45.1615208" lon="8.1534284"><ele>146.33333333333334</ele><time>2026-04-18T14:11:19.247Z</time></trkpt><trkpt lat="45.1615072" lon="8.1536543"><ele>147.66666666666666</ele><time>2026-04-18T14:11:20.248Z</time></trkpt><trkpt lat="45.1614978" lon="8.1538821"><ele>149.0</ele><time>2026-04-18T14:11:21.247Z</time></trkpt><trkpt lat="45.1614944" lon="8.1541184"><ele>149.0</ele><time>2026-04-18T14:11:22.247Z</time></trkpt><trkpt lat="45.1614879" lon="8.1543436"><ele>149.0</ele><time>2026-04-18T14:11:23.247Z</time></trkpt><trkpt lat="45.1614805" lon="8.1545734"><ele>149.0</ele><time>2026-04-18T14:11:24.248Z</time></trkpt><trkpt lat="45.1614691" lon="8.1547967"><ele>148.66666666666666</ele><time>2026-04-18T14:11:25.247Z</time></trkpt><trkpt lat="45.1614608" lon="8.1550126"><ele>148.33333333333334</ele><time>2026-04-18T14:11:26.247Z</time></trkpt><trkpt lat="45.1614558" lon="8.1552295"><ele>148.0</ele><time>2026-04-18T14:11:27.247Z</time></trkpt><trkpt lat="45.1614512" lon="8.1554485"><ele>148.0</ele><time>2026-04-18T14:11:28.247Z</time></trkpt><trkpt lat="45.1614572" lon="8.1556852"><ele>148.0</ele><time>2026-04-18T14:11:29.248Z</time></trkpt><trkpt lat="45.1614722" lon="8.1559149"><ele>148.0</ele><time>2026-04-18T14:11:30.247Z</time></trkpt><trkpt lat="45.1614843" lon="8.1561436"><ele>147.75</ele><time>2026-04-18T14:11:31.247Z</time></trkpt><trkpt lat="45.1614948" lon="8.1563544"><ele>147.5</ele><time>2026-04-18T14:11:32.247Z</time></trkpt><trkpt lat="45.161505" lon="8.1565629"><ele>147.25</ele><time>2026-04-18T14:11:33.247Z</time></trkpt><trkpt lat="45.1615149" lon="8.1567698"><ele>147.0</ele><time>2026-04-18T14:11:34.247Z</time></trkpt><trkpt lat="45.1615236" lon="8.156968"><ele>146.33333333333334</ele><time>2026-04-18T14:11:35.247Z</time></trkpt><trkpt lat="45.1615353" lon="8.1571879"><ele>145.66666666666669</ele><time>2026-04-18T14:11:36.247Z</time></trkpt><trkpt lat="45.1615486" lon="8.1574207"><ele>145.0</ele><time>2026-04-18T14:11:37.247Z</time></trkpt><trkpt lat="45.1615605" lon="8.1576459"><ele>145.0</ele><time>2026-04-18T14:11:38.247Z</time></trkpt><trkpt lat="45.1615691" lon="8.1578814"><ele>145.0</ele><time>2026-04-18T14:11:39.247Z</time></trkpt><trkpt lat="45.1615827" lon="8.1581188"><ele>145.0</ele><time>2026-04-18T14:11:40.247Z</time></trkpt><trkpt lat="45.1615941" lon="8.1583654"><ele>144.66666666666669</ele><time>2026-04-18T14:11:41.247Z</time></trkpt><trkpt lat="45.1616052" lon="8.1586094"><ele>144.33333333333334</ele><time>2026-04-18T14:11:42.247Z</time></trkpt><trkpt lat="45.1616146" lon="8.1588534"><ele>144.0</ele><time>2026-04-18T14:11:43.247Z</time></trkpt><trkpt lat="45.161624" lon="8.1590952"><ele>143.66666666666666</ele><time>2026-04-18T14:11:44.247Z</time></trkpt><trkpt lat="45.1616358" lon="8.1593377"><ele>143.33333333333331</ele><time>2026-04-18T14:11:45.248Z</time></trkpt><trkpt lat="45.1616479" lon="8.1595599"><ele>143.0</ele><time>2026-04-18T14:11:46.247Z</time></trkpt><trkpt lat="45.1616547" lon="8.1597906"><ele>143.0</ele><time>2026-04-18T14:11:47.247Z</time></trkpt><trkpt lat="45.1616612" lon="8.160011"><ele>143.0</ele><time>2026-04-18T14:11:48.247Z</time></trkpt><trkpt lat="45.1616693" lon="8.1602335"><ele>143.0</ele><time>2026-04-18T14:11:49.247Z</time></trkpt><trkpt lat="45.1616807" lon="8.1604641"><ele>143.0</ele><time>2026-04-18T14:11:50.248Z</time></trkpt><trkpt lat="45.1616936" lon="8.1606904"><ele>143.0</ele><time>2026-04-18T14:11:51.247Z</time></trkpt><trkpt lat="45.1617023" lon="8.1609195"><ele>143.0</ele><time>2026-04-18T14:11:52.247Z</time></trkpt><trkpt lat="45.161715" lon="8.161154"><ele>143.0</ele><time>2026-04-18T14:11:53.247Z</time></trkpt><trkpt lat="45.1617233" lon="8.1613884"><ele>143.0</ele><time>2026-04-18T14:11:54.248Z</time></trkpt><trkpt lat="45.1617357" lon="8.1616235"><ele>143.0</ele><time>2026-04-18T14:11:55.248Z</time></trkpt><trkpt lat="45.1617496" lon="8.1618586"><ele>142.66666666666666</ele><time>2026-04-18T14:11:56.248Z</time></trkpt><trkpt lat="45.1617589" lon="8.1620913"><ele>142.33333333333334</ele><time>2026-04-18T14:11:57.247Z</time></trkpt><trkpt lat="45.1617674" lon="8.1623307"><ele>142.0</ele><time>2026-04-18T14:11:58.247Z</time></trkpt><trkpt lat="45.1617825" lon="8.1625683"><ele>142.0</ele><time>2026-04-18T14:11:59.247Z</time></trkpt><trkpt lat="45.1617888" lon="8.1628155"><ele>142.0</ele><time>2026-04-18T14:12:00.248Z</time></trkpt><trkpt lat="45.1618004" lon="8.1630566"><ele>142.0</ele><time>2026-04-18T14:12:01.247Z</time></trkpt><trkpt lat="45.1618119" lon="8.163298"><ele>142.33333333333334</ele><time>2026-04-18T14:12:02.248Z</time></trkpt><trkpt lat="45.1618265" lon="8.1635398"><ele>142.66666666666666</ele><time>2026-04-18T14:12:03.247Z</time></trkpt><trkpt lat="45.1618377" lon="8.1637827"><ele>143.0</ele><time>2026-04-18T14:12:04.248Z</time></trkpt><trkpt lat="45.1618496" lon="8.1640239"><ele>144.33333333333331</ele><time>2026-04-18T14:12:05.248Z</time></trkpt><trkpt lat="45.1618599" lon="8.1642689"><ele>145.66666666666666</ele><time>2026-04-18T14:12:06.247Z</time></trkpt><trkpt lat="45.1618734" lon="8.1645161"><ele>147.0</ele><time>2026-04-18T14:12:07.247Z</time></trkpt><trkpt lat="45.1618863" lon="8.1647545"><ele>147.0</ele><time>2026-04-18T14:12:08.247Z</time></trkpt><trkpt lat="45.1618969" lon="8.1649935"><ele>147.0</ele><time>2026-04-18T14:12:09.247Z</time></trkpt><trkpt lat="45.1619097" lon="8.1652263"><ele>147.0</ele><time>2026-04-18T14:12:10.248Z</time></trkpt><trkpt lat="45.1619245" lon="8.1654651"><ele>146.33333333333334</ele><time>2026-04-18T14:12:11.248Z</time></trkpt><trkpt lat="45.1619358" lon="8.1657038"><ele>145.66666666666669</ele><time>2026-04-18T14:12:12.247Z</time></trkpt><trkpt lat="45.1619416" lon="8.1659334"><ele>145.0</ele><time>2026-04-18T14:12:13.247Z</time></trkpt><trkpt lat="45.1619382" lon="8.1661585"><ele>145.0</ele><time>2026-04-18T14:12:14.248Z</time></trkpt><trkpt lat="45.1619105" lon="8.1663752"><ele>145.0</ele><time>2026-04-18T14:12:15.248Z</time></trkpt><trkpt lat="45.1618554" lon="8.1665751"><ele>145.0</ele><time>2026-04-18T14:12:16.247Z</time></trkpt><trkpt lat="45.1617833" lon="8.1667646"><ele>144.66666666666669</ele><time>2026-04-18T14:12:17.247Z</time></trkpt><trkpt lat="45.1616928" lon="8.1669497"><ele>144.33333333333334</ele><time>2026-04-18T14:12:18.247Z</time></trkpt><trkpt lat="45.1615938" lon="8.1671332"><ele>144.0</ele><time>2026-04-18T14:12:19.248Z</time></trkpt><trkpt lat="45.1614982" lon="8.1673207"><ele>143.33333333333334</ele><time>2026-04-18T14:12:20.247Z</time></trkpt><trkpt lat="45.1613978" lon="8.1675036"><ele>142.66666666666669</ele><time>2026-04-18T14:12:21.247Z</time></trkpt><trkpt lat="45.1612999" lon="8.1676793"><ele>142.0</ele><time>2026-04-18T14:12:22.247Z</time></trkpt><trkpt lat="45.1611908" lon="8.167863"><ele>142.0</ele><time>2026-04-18T14:12:23.247Z</time></trkpt><trkpt lat="45.1610843" lon="8.1680456"><ele>142.0</ele><time>2026-04-18T14:12:24.247Z</time></trkpt><trkpt lat="45.1609763" lon="8.1682222"><ele>142.0</ele><time>2026-04-18T14:12:25.247Z</time></trkpt><trkpt lat="45.1608763" lon="8.1684034"><ele>141.66666666666669</ele><time>2026-04-18T14:12:26.247Z</time></trkpt><trkpt lat="45.1607748" lon="8.1685825"><ele>141.33333333333334</ele><time>2026-04-18T14:12:27.247Z</time></trkpt><trkpt lat="45.1606763" lon="8.1687538"><ele>141.0</ele><time>2026-04-18T14:12:28.247Z</time></trkpt><trkpt lat="45.160574" lon="8.1689245"><ele>141.0</ele><time>2026-04-18T14:12:29.247Z</time></trkpt><trkpt lat="45.1604705" lon="8.1690947"><ele>141.0</ele><time>2026-04-18T14:12:30.247Z</time></trkpt><trkpt lat="45.1603688" lon="8.169267"><ele>141.0</ele><time>2026-04-18T14:12:31.247Z</time></trkpt><trkpt lat="45.1602687" lon="8.169448"><ele>141.0</ele><time>2026-04-18T14:12:32.247Z</time></trkpt><trkpt lat="45.1601698" lon="8.1696239"><ele>141.0</ele><time>2026-04-18T14:12:33.247Z</time></trkpt><trkpt lat="45.1600668" lon="8.1698005"><ele>141.0</ele><time>2026-04-18T14:12:34.247Z</time></trkpt><trkpt lat="45.1599629" lon="8.1699756"><ele>141.0</ele><time>2026-04-18T14:12:35.248Z</time></trkpt><trkpt lat="45.1598624" lon="8.1701528"><ele>141.0</ele><time>2026-04-18T14:12:36.247Z</time></trkpt><trkpt lat="45.1597747" lon="8.1703219"><ele>141.0</ele><time>2026-04-18T14:12:37.248Z</time></trkpt><trkpt lat="45.1597005" lon="8.1705099"><ele>141.33333333333334</ele><time>2026-04-18T14:12:38.247Z</time></trkpt><trkpt lat="45.1596437" lon="8.1707103"><ele>141.66666666666669</ele><time>2026-04-18T14:12:39.247Z</time></trkpt><trkpt lat="45.1596043" lon="8.1709263"><ele>142.0</ele><time>2026-04-18T14:12:40.247Z</time></trkpt><trkpt lat="45.1595821" lon="8.1711555"><ele>142.0</ele><time>2026-04-18T14:12:41.248Z</time></trkpt><trkpt lat="45.1595703" lon="8.1713988"><ele>142.0</ele><time>2026-04-18T14:12:42.248Z</time></trkpt><trkpt lat="45.159559" lon="8.17164"><ele>142.0</ele><time>2026-04-18T14:12:43.247Z</time></trkpt><trkpt lat="45.1595443" lon="8.1718824"><ele>142.0</ele><time>2026-04-18T14:12:44.247Z</time></trkpt><trkpt lat="45.1595311" lon="8.17212"><ele>142.0</ele><time>2026-04-18T14:12:45.247Z</time></trkpt><trkpt lat="45.1595162" lon="8.1723569"><ele>142.0</ele><time>2026-04-18T14:12:46.248Z</time></trkpt><trkpt lat="45.1595025" lon="8.1725947"><ele>142.0</ele><time>2026-04-18T14:12:47.247Z</time></trkpt><trkpt lat="45.1594916" lon="8.1728218"><ele>142.0</ele><time>2026-04-18T14:12:48.247Z</time></trkpt><trkpt lat="45.1594846" lon="8.1730433"><ele>142.0</ele><time>2026-04-18T14:12:49.247Z</time></trkpt><trkpt lat="45.1594723" lon="8.1732485"><ele>142.0</ele><time>2026-04-18T14:12:50.247Z</time></trkpt><trkpt lat="45.1594603" lon="8.1734407"><ele>142.0</ele><time>2026-04-18T14:12:51.247Z</time></trkpt><trkpt lat="45.1594518" lon="8.1736312"><ele>142.0</ele><time>2026-04-18T14:12:52.247Z</time></trkpt><trkpt lat="45.1594432" lon="8.1738172"><ele>142.0</ele><time>2026-04-18T14:12:53.248Z</time></trkpt><trkpt lat="45.1594368" lon="8.1740028"><ele>142.5</ele><time>2026-04-18T14:12:54.247Z</time></trkpt><trkpt lat="45.1594269" lon="8.1742017"><ele>143.0</ele><time>2026-04-18T14:12:55.247Z</time></trkpt><trkpt lat="45.1594186" lon="8.1743931"><ele>143.5</ele><time>2026-04-18T14:12:56.247Z</time></trkpt><trkpt lat="45.1594113" lon="8.1745869"><ele>144.0</ele><time>2026-04-18T14:12:57.247Z</time></trkpt><trkpt lat="45.1594039" lon="8.1747842"><ele>144.25</ele><time>2026-04-18T14:12:58.247Z</time></trkpt><trkpt lat="45.1593932" lon="8.1749794"><ele>144.5</ele><time>2026-04-18T14:12:59.247Z</time></trkpt><trkpt lat="45.1593863" lon="8.1751719"><ele>144.75</ele><time>2026-04-18T14:13:00.247Z</time></trkpt><trkpt lat="45.159381" lon="8.1753688"><ele>145.0</ele><time>2026-04-18T14:13:01.248Z</time></trkpt><trkpt lat="45.159371" lon="8.1755723"><ele>144.75</ele><time>2026-04-18T14:13:02.247Z</time></trkpt><trkpt lat="45.1593604" lon="8.175771"><ele>144.5</ele><time>2026-04-18T14:13:03.247Z</time></trkpt><trkpt lat="45.1593457" lon="8.1759728"><ele>144.25</ele><time>2026-04-18T14:13:04.247Z</time></trkpt><trkpt lat="45.1593425" lon="8.1761677"><ele>144.0</ele><time>2026-04-18T14:13:05.248Z</time></trkpt><trkpt lat="45.1593315" lon="8.1763721"><ele>144.25</ele><time>2026-04-18T14:13:06.247Z</time></trkpt><trkpt lat="45.1593222" lon="8.1765769"><ele>144.5</ele><time>2026-04-18T14:13:07.247Z</time></trkpt><trkpt lat="45.1593092" lon="8.1767824"><ele>144.75</ele><time>2026-04-18T14:13:08.248Z</time></trkpt><trkpt lat="45.1592982" lon="8.1769891"><ele>145.0</ele><time>2026-04-18T14:13:09.247Z</time></trkpt><trkpt lat="45.159293" lon="8.1771888"><ele>144.75</ele><time>2026-04-18T14:13:10.247Z</time></trkpt><trkpt lat="45.159287" lon="8.1773748"><ele>144.5</ele><time>2026-04-18T14:13:11.247Z</time></trkpt><trkpt lat="45.159283" lon="8.1775653"><ele>144.25</ele><time>2026-04-18T14:13:12.247Z</time></trkpt><trkpt lat="45.1592761" lon="8.1777522"><ele>144.0</ele><time>2026-04-18T14:13:13.248Z</time></trkpt><trkpt lat="45.1592703" lon="8.177941"><ele>144.0</ele><time>2026-04-18T14:13:14.247Z</time></trkpt><trkpt lat="45.1592636" lon="8.1781331"><ele>144.0</ele><time>2026-04-18T14:13:15.248Z</time></trkpt><trkpt lat="45.1592511" lon="8.1783246"><ele>144.0</ele><time>2026-04-18T14:13:16.247Z</time></trkpt><trkpt lat="45.1592383" lon="8.178517"><ele>144.0</ele><time>2026-04-18T14:13:17.248Z</time></trkpt><trkpt lat="45.159234" lon="8.1787099"><ele>144.25</ele><time>2026-04-18T14:13:18.247Z</time></trkpt><trkpt lat="45.1592305" lon="8.1788999"><ele>144.5</ele><time>2026-04-18T14:13:19.247Z</time></trkpt><trkpt lat="45.1592092" lon="8.1790727"><ele>144.75</ele><time>2026-04-18T14:13:20.247Z</time></trkpt><trkpt lat="45.1591649" lon="8.1792309"><ele>145.0</ele><time>2026-04-18T14:13:21.248Z</time></trkpt><trkpt lat="45.1590884" lon="8.1793642"><ele>146.0</ele><time>2026-04-18T14:13:22.247Z</time></trkpt><trkpt lat="45.1589819" lon="8.1794807"><ele>147.0</ele><time>2026-04-18T14:13:23.248Z</time></trkpt><trkpt lat="45.1588659" lon="8.1796083"><ele>148.0</ele><time>2026-04-18T14:13:24.247Z</time></trkpt><trkpt lat="45.1587444" lon="8.1797389"><ele>149.0</ele><time>2026-04-18T14:13:25.247Z</time></trkpt><trkpt lat="45.1586258" lon="8.1798758"><ele>149.33333333333331</ele><time>2026-04-18T14:13:26.248Z</time></trkpt><trkpt lat="45.158506" lon="8.1800053"><ele>149.66666666666666</ele><time>2026-04-18T14:13:27.247Z</time></trkpt><trkpt lat="45.1583857" lon="8.1801301"><ele>150.0</ele><time>2026-04-18T14:13:28.247Z</time></trkpt><trkpt lat="45.1582685" lon="8.1802717"><ele>150.66666666666666</ele><time>2026-04-18T14:13:29.247Z</time></trkpt><trkpt lat="45.1581557" lon="8.1804302"><ele>151.33333333333331</ele><time>2026-04-18T14:13:30.248Z</time></trkpt><trkpt lat="45.1580648" lon="8.1806102"><ele>152.0</ele><time>2026-04-18T14:13:31.248Z</time></trkpt><trkpt lat="45.1579866" lon="8.180802"><ele>153.5</ele><time>2026-04-18T14:13:32.247Z</time></trkpt><trkpt lat="45.157917" lon="8.18098"><ele>155.0</ele><time>2026-04-18T14:13:33.247Z</time></trkpt><trkpt lat="45.1578486" lon="8.1811651"><ele>156.5</ele><time>2026-04-18T14:13:34.247Z</time></trkpt><trkpt lat="45.1577792" lon="8.1813431"><ele>158.0</ele><time>2026-04-18T14:13:35.247Z</time></trkpt><trkpt lat="45.1577079" lon="8.1815093"><ele>158.5</ele><time>2026-04-18T14:13:36.248Z</time></trkpt><trkpt lat="45.1576279" lon="8.1816719"><ele>159.0</ele><time>2026-04-18T14:13:37.247Z</time></trkpt><trkpt lat="45.157528" lon="8.1818148"><ele>159.5</ele><time>2026-04-18T14:13:38.248Z</time></trkpt><trkpt lat="45.1574063" lon="8.1819355"><ele>160.0</ele><time>2026-04-18T14:13:39.247Z</time></trkpt><trkpt lat="45.1572733" lon="8.1820263"><ele>160.0</ele><time>2026-04-18T14:13:40.247Z</time></trkpt><trkpt lat="45.1571372" lon="8.1821168"><ele>160.0</ele><time>2026-04-18T14:13:41.248Z</time></trkpt><trkpt lat="45.1570136" lon="8.1822185"><ele>160.0</ele><time>2026-04-18T14:13:42.247Z</time></trkpt><trkpt lat="45.1569081" lon="8.1823565"><ele>160.0</ele><time>2026-04-18T14:13:43.247Z</time></trkpt><trkpt lat="45.1568303" lon="8.1825312"><ele>162.25</ele><time>2026-04-18T14:13:44.247Z</time></trkpt><trkpt lat="45.1567681" lon="8.1827267"><ele>164.5</ele><time>2026-04-18T14:13:45.247Z</time></trkpt><trkpt lat="45.1567053" lon="8.182916"><ele>166.75</ele><time>2026-04-18T14:13:46.247Z</time></trkpt><trkpt lat="45.1566118" lon="8.1830773"><ele>169.0</ele><time>2026-04-18T14:13:47.247Z</time></trkpt><trkpt lat="45.156502" lon="8.183216"><ele>169.0</ele><time>2026-04-18T14:13:48.247Z</time></trkpt><trkpt lat="45.1563905" lon="8.1833302"><ele>169.0</ele><time>2026-04-18T14:13:49.247Z</time></trkpt><trkpt lat="45.1562909" lon="8.1834562"><ele>169.0</ele><time>2026-04-18T14:13:50.247Z</time></trkpt><trkpt lat="45.156209" lon="8.1836053"><ele>169.0</ele><time>2026-04-18T14:13:51.247Z</time></trkpt><trkpt lat="45.1561617" lon="8.1837894"><ele>169.0</ele><time>2026-04-18T14:13:52.247Z</time></trkpt><trkpt lat="45.1561486" lon="8.183993"><ele>169.0</ele><time>2026-04-18T14:13:53.247Z</time></trkpt><trkpt lat="45.1561704" lon="8.1842062"><ele>169.0</ele><time>2026-04-18T14:13:54.248Z</time></trkpt><trkpt lat="45.1562034" lon="8.1844154"><ele>169.0</ele><time>2026-04-18T14:13:55.247Z</time></trkpt><trkpt lat="45.1562638" lon="8.184651"><ele>171.66666666666669</ele><time>2026-04-18T14:13:56.248Z</time></trkpt><trkpt lat="45.1563291" lon="8.184895"><ele>174.33333333333334</ele><time>2026-04-18T14:13:57.247Z</time></trkpt><trkpt lat="45.1563864" lon="8.1851349"><ele>177.0</ele><time>2026-04-18T14:13:58.247Z</time></trkpt><trkpt lat="45.1564485" lon="8.1853713"><ele>177.0</ele><time>2026-04-18T14:13:59.247Z</time></trkpt><trkpt lat="45.1564999" lon="8.1855932"><ele>177.0</ele><time>2026-04-18T14:14:00.247Z</time></trkpt><trkpt lat="45.1565388" lon="8.1858054"><ele>177.0</ele><time>2026-04-18T14:14:01.247Z</time></trkpt><trkpt lat="45.156588" lon="8.1860004"><ele>179.25</ele><time>2026-04-18T14:14:02.248Z</time></trkpt><trkpt lat="45.1566492" lon="8.1861841"><ele>181.5</ele><time>2026-04-18T14:14:03.247Z</time></trkpt><trkpt lat="45.156749" lon="8.1863419"><ele>183.75</ele><time>2026-04-18T14:14:04.247Z</time></trkpt><trkpt lat="45.1568711" lon="8.186472"><ele>186.0</ele><time>2026-04-18T14:14:05.247Z</time></trkpt><trkpt lat="45.157012" lon="8.1865544"><ele>187.5</ele><time>2026-04-18T14:14:06.247Z</time></trkpt><trkpt lat="45.1571539" lon="8.1866197"><ele>189.0</ele><time>2026-04-18T14:14:07.247Z</time></trkpt><trkpt lat="45.1572924" lon="8.1866718"><ele>190.5</ele><time>2026-04-18T14:14:08.248Z</time></trkpt><trkpt lat="45.1574146" lon="8.186749"><ele>192.0</ele><time>2026-04-18T14:14:09.247Z</time></trkpt><trkpt lat="45.1575163" lon="8.1868649"><ele>193.25</ele><time>2026-04-18T14:14:10.248Z</time></trkpt><trkpt lat="45.1575923" lon="8.1870302"><ele>194.5</ele><time>2026-04-18T14:14:11.247Z</time></trkpt><trkpt lat="45.1576221" lon="8.187221"><ele>195.75</ele><time>2026-04-18T14:14:12.247Z</time></trkpt><trkpt lat="45.1576098" lon="8.1874316"><ele>197.0</ele><time>2026-04-18T14:14:13.247Z</time></trkpt><trkpt lat="45.1575834" lon="8.1876476"><ele>199.0</ele><time>2026-04-18T14:14:14.248Z</time></trkpt><trkpt lat="45.1575566" lon="8.1878824"><ele>201.0</ele><time>2026-04-18T14:14:15.247Z</time></trkpt><trkpt lat="45.157535" lon="8.1881114"><ele>203.0</ele><time>2026-04-18T14:14:16.247Z</time></trkpt><trkpt lat="45.1575092" lon="8.1883467"><ele>204.66666666666669</ele><time>2026-04-18T14:14:17.247Z</time></trkpt><trkpt lat="45.1574827" lon="8.1885834"><ele>206.33333333333331</ele><time>2026-04-18T14:14:18.247Z</time></trkpt><trkpt lat="45.1574527" lon="8.1888063"><ele>208.0</ele><time>2026-04-18T14:14:19.247Z</time></trkpt><trkpt lat="45.1574159" lon="8.1890113"><ele>209.5</ele><time>2026-04-18T14:14:20.247Z</time></trkpt><trkpt lat="45.1573523" lon="8.1891913"><ele>211.0</ele><time>2026-04-18T14:14:21.248Z</time></trkpt><trkpt lat="45.1572615" lon="8.1893403"><ele>212.5</ele><time>2026-04-18T14:14:22.248Z</time></trkpt><trkpt lat="45.1571342" lon="8.1894494"><ele>214.0</ele><time>2026-04-18T14:14:23.247Z</time></trkpt><trkpt lat="45.1569959" lon="8.1895115"><ele>214.0</ele><time>2026-04-18T14:14:24.247Z</time></trkpt><trkpt lat="45.1568546" lon="8.1895276"><ele>214.0</ele><time>2026-04-18T14:14:25.247Z</time></trkpt><trkpt lat="45.1567062" lon="8.1895355"><ele>214.0</ele><time>2026-04-18T14:14:26.248Z</time></trkpt><trkpt lat="45.1565614" lon="8.1895452"><ele>214.0</ele><time>2026-04-18T14:14:27.247Z</time></trkpt><trkpt lat="45.1564195" lon="8.1895603"><ele>214.0</ele><time>2026-04-18T14:14:28.247Z</time></trkpt><trkpt lat="45.156294" lon="8.1895827"><ele>213.99999999999997</ele><time>2026-04-18T14:14:29.248Z</time></trkpt><trkpt lat="45.1561767" lon="8.189593"><ele>213.99999999999997</ele><time>2026-04-18T14:14:30.247Z</time></trkpt><trkpt lat="45.1560767" lon="8.1895959"><ele>214.0</ele><time>2026-04-18T14:14:31.247Z</time></trkpt><trkpt lat="45.1559905" lon="8.1895998"><ele>214.0</ele><time>2026-04-18T14:14:32.248Z</time></trkpt><trkpt lat="45.1559233" lon="8.1896017"><ele>213.99999999999997</ele><time>2026-04-18T14:14:33.247Z</time></trkpt><trkpt lat="45.1558364" lon="8.1896628"><ele>214.0</ele><time>2026-04-18T14:14:35.248Z</time></trkpt><trkpt lat="45.1558382" lon="8.189784"><ele>214.0</ele><time>2026-04-18T14:14:37.247Z</time></trkpt><trkpt lat="45.1559004" lon="8.1898478"><ele>214.0</ele><time>2026-04-18T14:14:38.247Z</time></trkpt><trkpt lat="45.1559754" lon="8.1899162"><ele>213.99999999999997</ele><time>2026-04-18T14:14:39.247Z</time></trkpt><trkpt lat="45.1560599" lon="8.1899812"><ele>214.0</ele><time>2026-04-18T14:14:40.247Z</time></trkpt><trkpt lat="45.1561468" lon="8.1900471"><ele>216.75</ele><time>2026-04-18T14:14:41.247Z</time></trkpt><trkpt lat="45.1562422" lon="8.1901222"><ele>219.5</ele><time>2026-04-18T14:14:42.247Z</time></trkpt><trkpt lat="45.1563519" lon="8.1901882"><ele>222.25</ele><time>2026-04-18T14:14:43.247Z</time></trkpt><trkpt lat="45.1564711" lon="8.1902677"><ele>225.0</ele><time>2026-04-18T14:14:44.247Z</time></trkpt><trkpt lat="45.1565883" lon="8.1903488"><ele>225.0</ele><time>2026-04-18T14:14:45.247Z</time></trkpt><trkpt lat="45.156697" lon="8.1904378"><ele>225.0</ele><time>2026-04-18T14:14:46.247Z</time></trkpt><trkpt lat="45.156792" lon="8.1905282"><ele>225.0</ele><time>2026-04-18T14:14:47.247Z</time></trkpt><trkpt lat="45.1568604" lon="8.1906406"><ele>225.0</ele><time>2026-04-18T14:14:48.247Z</time></trkpt><trkpt lat="45.1568949" lon="8.1907785"><ele>225.0</ele><time>2026-04-18T14:14:49.247Z</time></trkpt><trkpt lat="45.1568845" lon="8.190922"><ele>227.75</ele><time>2026-04-18T14:14:50.247Z</time></trkpt><trkpt lat="45.156843" lon="8.1910705"><ele>230.5</ele><time>2026-04-18T14:14:51.248Z</time></trkpt><trkpt lat="45.156794" lon="8.1912324"><ele>233.25</ele><time>2026-04-18T14:14:52.247Z</time></trkpt><trkpt lat="45.1567255" lon="8.1913984"><ele>236.0</ele><time>2026-04-18T14:14:53.247Z</time></trkpt><trkpt lat="45.1566536" lon="8.1915745"><ele>237.33333333333334</ele><time>2026-04-18T14:14:54.248Z</time></trkpt><trkpt lat="45.1565747" lon="8.1917681"><ele>238.66666666666669</ele><time>2026-04-18T14:14:55.248Z</time></trkpt><trkpt lat="45.1565027" lon="8.1919648"><ele>240.0</ele><time>2026-04-18T14:14:56.247Z</time></trkpt><trkpt lat="45.1564154" lon="8.1921727"><ele>237.66666666666669</ele><time>2026-04-18T14:14:57.248Z</time></trkpt><trkpt lat="45.1563347" lon="8.192384"><ele>235.33333333333334</ele><time>2026-04-18T14:14:58.247Z</time></trkpt><trkpt lat="45.156255" lon="8.1925999"><ele>233.0</ele><time>2026-04-18T14:14:59.248Z</time></trkpt><trkpt lat="45.1561784" lon="8.1927959"><ele>233.0</ele><time>2026-04-18T14:15:00.247Z</time></trkpt><trkpt lat="45.1560981" lon="8.1929982"><ele>233.0</ele><time>2026-04-18T14:15:01.247Z</time></trkpt><trkpt lat="45.1560222" lon="8.193181"><ele>233.0</ele><time>2026-04-18T14:15:02.247Z</time></trkpt><trkpt lat="45.1559483" lon="8.1933662"><ele>234.75</ele><time>2026-04-18T14:15:03.247Z</time></trkpt><trkpt lat="45.1558907" lon="8.1935438"><ele>236.5</ele><time>2026-04-18T14:15:04.247Z</time></trkpt><trkpt lat="45.1558407" lon="8.1937219"><ele>238.25</ele><time>2026-04-18T14:15:05.247Z</time></trkpt><trkpt lat="45.155813" lon="8.1939079"><ele>240.0</ele><time>2026-04-18T14:15:06.247Z</time></trkpt><trkpt lat="45.1558024" lon="8.1940977"><ele>241.33333333333331</ele><time>2026-04-18T14:15:07.247Z</time></trkpt><trkpt lat="45.1558105" lon="8.1942933"><ele>242.66666666666666</ele><time>2026-04-18T14:15:08.247Z</time></trkpt><trkpt lat="45.1558271" lon="8.1945053"><ele>244.0</ele><time>2026-04-18T14:15:09.247Z</time></trkpt><trkpt lat="45.1558668" lon="8.1947305"><ele>245.5</ele><time>2026-04-18T14:15:10.248Z</time></trkpt><trkpt lat="45.1559027" lon="8.1949322"><ele>247.0</ele><time>2026-04-18T14:15:11.247Z</time></trkpt><trkpt lat="45.1559354" lon="8.1951393"><ele>248.5</ele><time>2026-04-18T14:15:12.248Z</time></trkpt><trkpt lat="45.155971" lon="8.1953369"><ele>250.0</ele><time>2026-04-18T14:15:13.248Z</time></trkpt><trkpt lat="45.1560156" lon="8.1955155"><ele>250.75</ele><time>2026-04-18T14:15:14.247Z</time></trkpt><trkpt lat="45.1560801" lon="8.1956852"><ele>251.5</ele><time>2026-04-18T14:15:15.247Z</time></trkpt><trkpt lat="45.1561537" lon="8.1958334"><ele>252.25</ele><time>2026-04-18T14:15:16.247Z</time></trkpt><trkpt lat="45.1562284" lon="8.1959542"><ele>253.0</ele><time>2026-04-18T14:15:17.247Z</time></trkpt><trkpt lat="45.156305" lon="8.1960549"><ele>253.0</ele><time>2026-04-18T14:15:18.247Z</time></trkpt><trkpt lat="45.1563801" lon="8.1961027"><ele>253.0</ele><time>2026-04-18T14:15:19.247Z</time></trkpt><trkpt lat="45.1564609" lon="8.1960997"><ele>253.0</ele><time>2026-04-18T14:15:20.247Z</time></trkpt><trkpt lat="45.1565519" lon="8.1960513"><ele>253.0</ele><time>2026-04-18T14:15:21.248Z</time></trkpt><trkpt lat="45.1566496" lon="8.1959613"><ele>253.0</ele><time>2026-04-18T14:15:22.247Z</time></trkpt><trkpt lat="45.1567531" lon="8.1958629"><ele>255.25</ele><time>2026-04-18T14:15:23.248Z</time></trkpt><trkpt lat="45.1568645" lon="8.1957771"><ele>257.5</ele><time>2026-04-18T14:15:24.247Z</time></trkpt><trkpt lat="45.1569768" lon="8.1957214"><ele>259.75</ele><time>2026-04-18T14:15:25.247Z</time></trkpt><trkpt lat="45.1570967" lon="8.1957177"><ele>262.0</ele><time>2026-04-18T14:15:26.248Z</time></trkpt><trkpt lat="45.1572279" lon="8.1957436"><ele>262.0</ele><time>2026-04-18T14:15:27.247Z</time></trkpt><trkpt lat="45.1573498" lon="8.1958049"><ele>262.0</ele><time>2026-04-18T14:15:28.248Z</time></trkpt><trkpt lat="45.1574764" lon="8.1958685"><ele>262.0</ele><time>2026-04-18T14:15:29.247Z</time></trkpt><trkpt lat="45.1576048" lon="8.1959482"><ele>262.0</ele><time>2026-04-18T14:15:30.247Z</time></trkpt><trkpt lat="45.1577178" lon="8.196039"><ele>261.0</ele><time>2026-04-18T14:15:31.248Z</time></trkpt><trkpt lat="45.1578192" lon="8.1961508"><ele>260.0</ele><time>2026-04-18T14:15:32.247Z</time></trkpt><trkpt lat="45.1579042" lon="8.1962637"><ele>259.0</ele><time>2026-04-18T14:15:33.247Z</time></trkpt><trkpt lat="45.157973" lon="8.1963686"><ele>258.0</ele><time>2026-04-18T14:15:34.247Z</time></trkpt><trkpt lat="45.1580341" lon="8.1964626"><ele>257.0</ele><time>2026-04-18T14:15:35.247Z</time></trkpt><trkpt lat="45.1580887" lon="8.196546"><ele>257.0</ele><time>2026-04-18T14:15:36.247Z</time></trkpt><trkpt lat="45.1581527" lon="8.1966052"><ele>257.0</ele><time>2026-04-18T14:15:37.248Z</time></trkpt><trkpt lat="45.1582323" lon="8.1966442"><ele>257.0</ele><time>2026-04-18T14:15:38.247Z</time></trkpt><trkpt lat="45.1583123" lon="8.1966621"><ele>257.0</ele><time>2026-04-18T14:15:39.247Z</time></trkpt><trkpt lat="45.1583986" lon="8.1966612"><ele>257.0</ele><time>2026-04-18T14:15:40.247Z</time></trkpt><trkpt lat="45.1585036" lon="8.1966206"><ele>257.0</ele><time>2026-04-18T14:15:41.247Z</time></trkpt><trkpt lat="45.1585968" lon="8.1965854"><ele>260.8</ele><time>2026-04-18T14:15:42.247Z</time></trkpt><trkpt lat="45.1586926" lon="8.1965405"><ele>264.6</ele><time>2026-04-18T14:15:43.248Z</time></trkpt><trkpt lat="45.158781" lon="8.1964728"><ele>268.40000000000003</ele><time>2026-04-18T14:15:44.247Z</time></trkpt><trkpt lat="45.158852" lon="8.1963987"><ele>272.2</ele><time>2026-04-18T14:15:45.248Z</time></trkpt><trkpt lat="45.1589049" lon="8.1963035"><ele>276.0</ele><time>2026-04-18T14:15:46.248Z</time></trkpt><trkpt lat="45.1589307" lon="8.1961979"><ele>277.8</ele><time>2026-04-18T14:15:47.248Z</time></trkpt><trkpt lat="45.1589342" lon="8.1960768"><ele>279.6</ele><time>2026-04-18T14:15:48.248Z</time></trkpt><trkpt lat="45.1589024" lon="8.1959547"><ele>281.4</ele><time>2026-04-18T14:15:49.247Z</time></trkpt><trkpt lat="45.158844" lon="8.1958294"><ele>283.2</ele><time>2026-04-18T14:15:50.247Z</time></trkpt><trkpt lat="45.1587715" lon="8.1957177"><ele>285.0</ele><time>2026-04-18T14:15:51.247Z</time></trkpt><trkpt lat="45.1587022" lon="8.1956126"><ele>285.5</ele><time>2026-04-18T14:15:52.248Z</time></trkpt><trkpt lat="45.1586409" lon="8.1955097"><ele>286.0</ele><time>2026-04-18T14:15:53.247Z</time></trkpt><trkpt lat="45.1585912" lon="8.1954077"><ele>286.5</ele><time>2026-04-18T14:15:54.247Z</time></trkpt><trkpt lat="45.1585593" lon="8.1953042"><ele>287.0</ele><time>2026-04-18T14:15:55.247Z</time></trkpt><trkpt lat="45.1585474" lon="8.1951966"><ele>287.5</ele><time>2026-04-18T14:15:56.247Z</time></trkpt><trkpt lat="45.1585452" lon="8.1950855"><ele>288.0</ele><time>2026-04-18T14:15:57.247Z</time></trkpt><trkpt lat="45.1585401" lon="8.1949584"><ele>288.6</ele><time>2026-04-18T14:15:58.247Z</time></trkpt><trkpt lat="45.1585452" lon="8.1948188"><ele>289.20000000000005</ele><time>2026-04-18T14:15:59.248Z</time></trkpt><trkpt lat="45.1585667" lon="8.1946714"><ele>289.8</ele><time>2026-04-18T14:16:00.248Z</time></trkpt><trkpt lat="45.1585962" lon="8.1945158"><ele>290.40000000000003</ele><time>2026-04-18T14:16:01.247Z</time></trkpt><trkpt lat="45.1586331" lon="8.1943796"><ele>291.0</ele><time>2026-04-18T14:16:02.247Z</time></trkpt><trkpt lat="45.1586768" lon="8.1942461"><ele>291.0</ele><time>2026-04-18T14:16:03.247Z</time></trkpt><trkpt lat="45.1587324" lon="8.1941242"><ele>291.0</ele><time>2026-04-18T14:16:04.247Z</time></trkpt><trkpt lat="45.1587865" lon="8.1939962"><ele>291.0</ele><time>2026-04-18T14:16:05.248Z</time></trkpt><trkpt lat="45.1588378" lon="8.1938793"><ele>291.0</ele><time>2026-04-18T14:16:06.247Z</time></trkpt><trkpt lat="45.1588827" lon="8.1937775"><ele>291.0</ele><time>2026-04-18T14:16:07.247Z</time></trkpt><trkpt lat="45.1589229" lon="8.1936803"><ele>290.5</ele><time>2026-04-18T14:16:08.247Z</time></trkpt><trkpt lat="45.1589492" lon="8.1935907"><ele>290.0</ele><time>2026-04-18T14:16:09.247Z</time></trkpt><trkpt lat="45.1589416" lon="8.1934874"><ele>289.5</ele><time>2026-04-18T14:16:10.247Z</time></trkpt><trkpt lat="45.1589136" lon="8.193404"><ele>289.0</ele><time>2026-04-18T14:16:11.247Z</time></trkpt><trkpt lat="45.1588698" lon="8.1932673"><ele>288.5</ele><time>2026-04-18T14:16:13.247Z</time></trkpt><trkpt lat="45.1588431" lon="8.1931608"><ele>288.0</ele><time>2026-04-18T14:16:15.247Z</time></trkpt><trkpt lat="45.1588126" lon="8.1930498"><ele>280.0</ele><time>2026-04-18T14:16:18.247Z</time></trkpt><trkpt lat="45.1587537" lon="8.1930087"><ele>280.0</ele><time>2026-04-18T14:16:23.247Z</time></trkpt></trkseg><trkseg><trkpt lat="45.1587964" lon="8.1931039"><ele>280.0</ele><time>2026-04-18T14:28:27.243Z</time></trkpt><trkpt lat="45.1588427" lon="8.1931677"><ele>280.0</ele><time>2026-04-18T14:28:32.244Z</time></trkpt><trkpt lat="45.1588553" lon="8.1932657"><ele>280.0</ele><time>2026-04-18T14:28:36.243Z</time></trkpt><trkpt lat="45.1588575" lon="8.1933586"><ele>280.0</ele><time>2026-04-18T14:28:52.243Z</time></trkpt><trkpt lat="45.1589217" lon="8.193464"><ele>280.0</ele><time>2026-04-18T14:28:55.242Z</time></trkpt><trkpt lat="45.158936" lon="8.193563"><ele>280.0</ele><time>2026-04-18T14:28:57.242Z</time></trkpt><trkpt lat="45.1589097" lon="8.1936907"><ele>281.3333333333333</ele><time>2026-04-18T14:28:59.242Z</time></trkpt><trkpt lat="45.1588433" lon="8.1938473"><ele>282.66666666666663</ele><time>2026-04-18T14:29:01.243Z</time></trkpt><trkpt lat="45.1588106" lon="8.1939268"><ele>284.0</ele><time>2026-04-18T14:29:02.242Z</time></trkpt><trkpt lat="45.158773" lon="8.1940221"><ele>285.3333333333333</ele><time>2026-04-18T14:29:03.243Z</time></trkpt><trkpt lat="45.1587248" lon="8.1941262"><ele>286.6666666666667</ele><time>2026-04-18T14:29:04.242Z</time></trkpt><trkpt lat="45.1586895" lon="8.1942335"><ele>288.0</ele><time>2026-04-18T14:29:05.242Z</time></trkpt><trkpt lat="45.1586362" lon="8.1943437"><ele>288.0</ele><time>2026-04-18T14:29:06.242Z</time></trkpt><trkpt lat="45.1586044" lon="8.1944688"><ele>288.0</ele><time>2026-04-18T14:29:07.242Z</time></trkpt><trkpt lat="45.158568" lon="8.1945994"><ele>288.0</ele><time>2026-04-18T14:29:08.243Z</time></trkpt><trkpt lat="45.1585455" lon="8.1947279"><ele>288.0</ele><time>2026-04-18T14:29:09.243Z</time></trkpt><trkpt lat="45.1585233" lon="8.1948772"><ele>288.0</ele><time>2026-04-18T14:29:10.242Z</time></trkpt><trkpt lat="45.1584993" lon="8.1950122"><ele>288.0</ele><time>2026-04-18T14:29:11.243Z</time></trkpt><trkpt lat="45.1584986" lon="8.1951561"><ele>288.0</ele><time>2026-04-18T14:29:12.242Z</time></trkpt><trkpt lat="45.1585104" lon="8.1952897"><ele>288.0</ele><time>2026-04-18T14:29:13.243Z</time></trkpt><trkpt lat="45.1585428" lon="8.1954206"><ele>288.0</ele><time>2026-04-18T14:29:14.242Z</time></trkpt><trkpt lat="45.158594" lon="8.1955394"><ele>288.0</ele><time>2026-04-18T14:29:15.242Z</time></trkpt><trkpt lat="45.1586521" lon="8.195648"><ele>287.5</ele><time>2026-04-18T14:29:16.242Z</time></trkpt><trkpt lat="45.1587161" lon="8.1957524"><ele>287.0</ele><time>2026-04-18T14:29:17.242Z</time></trkpt><trkpt lat="45.1587824" lon="8.1958456"><ele>286.5</ele><time>2026-04-18T14:29:18.242Z</time></trkpt><trkpt lat="45.1588334" lon="8.1959429"><ele>286.0</ele><time>2026-04-18T14:29:19.242Z</time></trkpt><trkpt lat="45.1588859" lon="8.1960404"><ele>285.5</ele><time>2026-04-18T14:29:20.243Z</time></trkpt><trkpt lat="45.1588927" lon="8.1961398"><ele>285.0</ele><time>2026-04-18T14:29:21.242Z</time></trkpt><trkpt lat="45.1588917" lon="8.1962365"><ele>285.0</ele><time>2026-04-18T14:29:22.243Z</time></trkpt><trkpt lat="45.1588761" lon="8.1963265"><ele>285.0</ele><time>2026-04-18T14:29:23.243Z</time></trkpt><trkpt lat="45.1587934" lon="8.1964265"><ele>285.0</ele><time>2026-04-18T14:29:24.243Z</time></trkpt><trkpt lat="45.1587233" lon="8.1965109"><ele>285.0</ele><time>2026-04-18T14:29:25.242Z</time></trkpt><trkpt lat="45.158642" lon="8.1965664"><ele>285.0</ele><time>2026-04-18T14:29:26.242Z</time></trkpt><trkpt lat="45.1585603" lon="8.1966237"><ele>285.0</ele><time>2026-04-18T14:29:27.242Z</time></trkpt><trkpt lat="45.1584801" lon="8.1966448"><ele>283.5</ele><time>2026-04-18T14:29:28.243Z</time></trkpt><trkpt lat="45.1583799" lon="8.1966536"><ele>282.0</ele><time>2026-04-18T14:29:29.242Z</time></trkpt><trkpt lat="45.1583006" lon="8.1966529"><ele>280.5</ele><time>2026-04-18T14:29:30.242Z</time></trkpt><trkpt lat="45.158224" lon="8.1966202"><ele>279.0</ele><time>2026-04-18T14:29:32.242Z</time></trkpt><trkpt lat="45.1581678" lon="8.1966713"><ele>277.5</ele><time>2026-04-18T14:29:34.243Z</time></trkpt><trkpt lat="45.1581669" lon="8.1967932"><ele>276.0</ele><time>2026-04-18T14:29:36.242Z</time></trkpt><trkpt lat="45.1582055" lon="8.1969922"><ele>276.0</ele><time>2026-04-18T14:29:38.242Z</time></trkpt><trkpt lat="45.1582291" lon="8.1971159"><ele>276.0</ele><time>2026-04-18T14:29:39.242Z</time></trkpt><trkpt lat="45.1582602" lon="8.1972485"><ele>276.0</ele><time>2026-04-18T14:29:40.242Z</time></trkpt><trkpt lat="45.1582912" lon="8.1973886"><ele>276.0</ele><time>2026-04-18T14:29:41.242Z</time></trkpt><trkpt lat="45.158325" lon="8.1975439"><ele>276.0</ele><time>2026-04-18T14:29:42.243Z</time></trkpt><trkpt lat="45.1583607" lon="8.1977261"><ele>275.25</ele><time>2026-04-18T14:29:43.243Z</time></trkpt><trkpt lat="45.1584031" lon="8.1978986"><ele>274.5</ele><time>2026-04-18T14:29:44.242Z</time></trkpt><trkpt lat="45.1584477" lon="8.1980682"><ele>273.75</ele><time>2026-04-18T14:29:45.242Z</time></trkpt><trkpt lat="45.158494" lon="8.1982376"><ele>273.0</ele><time>2026-04-18T14:29:46.242Z</time></trkpt><trkpt lat="45.1585444" lon="8.1983955"><ele>272.0</ele><time>2026-04-18T14:29:47.242Z</time></trkpt><trkpt lat="45.1585963" lon="8.1985612"><ele>271.0</ele><time>2026-04-18T14:29:48.242Z</time></trkpt><trkpt lat="45.1586388" lon="8.1987302"><ele>270.0</ele><time>2026-04-18T14:29:49.242Z</time></trkpt><trkpt lat="45.1586642" lon="8.198906"><ele>269.0</ele><time>2026-04-18T14:29:50.242Z</time></trkpt><trkpt lat="45.1586804" lon="8.1990954"><ele>269.25</ele><time>2026-04-18T14:29:51.242Z</time></trkpt><trkpt lat="45.1586693" lon="8.1992793"><ele>269.5</ele><time>2026-04-18T14:29:52.242Z</time></trkpt><trkpt lat="45.1586474" lon="8.1994612"><ele>269.75</ele><time>2026-04-18T14:29:53.243Z</time></trkpt><trkpt lat="45.158612" lon="8.1996435"><ele>270.0</ele><time>2026-04-18T14:29:54.242Z</time></trkpt><trkpt lat="45.1585754" lon="8.1998359"><ele>270.0</ele><time>2026-04-18T14:29:55.242Z</time></trkpt><trkpt lat="45.1585331" lon="8.2000188"><ele>270.0</ele><time>2026-04-18T14:29:56.242Z</time></trkpt><trkpt lat="45.1584869" lon="8.2002042"><ele>270.0</ele><time>2026-04-18T14:29:57.243Z</time></trkpt><trkpt lat="45.1584328" lon="8.2003862"><ele>270.0</ele><time>2026-04-18T14:29:58.243Z</time></trkpt><trkpt lat="45.1583779" lon="8.2005649"><ele>271.5</ele><time>2026-04-18T14:29:59.242Z</time></trkpt><trkpt lat="45.1583123" lon="8.2007304"><ele>273.0</ele><time>2026-04-18T14:30:00.242Z</time></trkpt><trkpt lat="45.158239" lon="8.2008965"><ele>274.5</ele><time>2026-04-18T14:30:01.242Z</time></trkpt><trkpt lat="45.1581524" lon="8.201068"><ele>276.0</ele><time>2026-04-18T14:30:02.242Z</time></trkpt><trkpt lat="45.1580647" lon="8.2012394"><ele>275.25</ele><time>2026-04-18T14:30:03.243Z</time></trkpt><trkpt lat="45.1579782" lon="8.2013819"><ele>274.5</ele><time>2026-04-18T14:30:04.242Z</time></trkpt><trkpt lat="45.1578979" lon="8.2015376"><ele>273.75</ele><time>2026-04-18T14:30:05.242Z</time></trkpt><trkpt lat="45.157812" lon="8.2016946"><ele>273.0</ele><time>2026-04-18T14:30:06.243Z</time></trkpt><trkpt lat="45.1577248" lon="8.2018476"><ele>273.0</ele><time>2026-04-18T14:30:07.242Z</time></trkpt><trkpt lat="45.1576307" lon="8.2019926"><ele>273.0</ele><time>2026-04-18T14:30:08.242Z</time></trkpt><trkpt lat="45.1575403" lon="8.2021362"><ele>273.0</ele><time>2026-04-18T14:30:09.243Z</time></trkpt><trkpt lat="45.1574658" lon="8.2022678"><ele>273.0</ele><time>2026-04-18T14:30:10.242Z</time></trkpt><trkpt lat="45.1573898" lon="8.2023889"><ele>271.0</ele><time>2026-04-18T14:30:11.243Z</time></trkpt><trkpt lat="45.1573178" lon="8.2025076"><ele>269.0</ele><time>2026-04-18T14:30:12.242Z</time></trkpt><trkpt lat="45.1572272" lon="8.2026027"><ele>267.0</ele><time>2026-04-18T14:30:13.242Z</time></trkpt><trkpt lat="45.1571256" lon="8.2027043"><ele>265.0</ele><time>2026-04-18T14:30:14.243Z</time></trkpt><trkpt lat="45.1570316" lon="8.202814"><ele>265.0</ele><time>2026-04-18T14:30:15.242Z</time></trkpt><trkpt lat="45.1569298" lon="8.2029086"><ele>265.0</ele><time>2026-04-18T14:30:16.242Z</time></trkpt><trkpt lat="45.1568202" lon="8.2030253"><ele>265.0</ele><time>2026-04-18T14:30:17.242Z</time></trkpt><trkpt lat="45.1567079" lon="8.2031486"><ele>265.0</ele><time>2026-04-18T14:30:18.242Z</time></trkpt><trkpt lat="45.1566262" lon="8.2032804"><ele>261.75</ele><time>2026-04-18T14:30:19.242Z</time></trkpt><trkpt lat="45.1565359" lon="8.203434"><ele>258.5</ele><time>2026-04-18T14:30:20.243Z</time></trkpt><trkpt lat="45.1564428" lon="8.2036012"><ele>255.25</ele><time>2026-04-18T14:30:21.242Z</time></trkpt><trkpt lat="45.1563563" lon="8.2037728"><ele>252.0</ele><time>2026-04-18T14:30:22.243Z</time></trkpt><trkpt lat="45.1562834" lon="8.2039433"><ele>254.75</ele><time>2026-04-18T14:30:23.243Z</time></trkpt><trkpt lat="45.1562023" lon="8.2040774"><ele>257.5</ele><time>2026-04-18T14:30:24.243Z</time></trkpt><trkpt lat="45.1561015" lon="8.2042071"><ele>260.25</ele><time>2026-04-18T14:30:25.242Z</time></trkpt><trkpt lat="45.1559996" lon="8.2043293"><ele>263.0</ele><time>2026-04-18T14:30:26.242Z</time></trkpt><trkpt lat="45.155882" lon="8.2044246"><ele>263.0</ele><time>2026-04-18T14:30:27.243Z</time></trkpt><trkpt lat="45.1557718" lon="8.2045086"><ele>263.0</ele><time>2026-04-18T14:30:28.242Z</time></trkpt><trkpt lat="45.1556642" lon="8.2045759"><ele>263.0</ele><time>2026-04-18T14:30:29.242Z</time></trkpt><trkpt lat="45.1555694" lon="8.2046322"><ele>263.0</ele><time>2026-04-18T14:30:30.242Z</time></trkpt><trkpt lat="45.1554759" lon="8.2046875"><ele>263.0</ele><time>2026-04-18T14:30:31.242Z</time></trkpt><trkpt lat="45.1554051" lon="8.2047529"><ele>263.1666666666667</ele><time>2026-04-18T14:30:32.242Z</time></trkpt><trkpt lat="45.1553334" lon="8.2048334"><ele>263.33333333333337</ele><time>2026-04-18T14:30:33.242Z</time></trkpt><trkpt lat="45.1552934" lon="8.2049301"><ele>263.5</ele><time>2026-04-18T14:30:34.242Z</time></trkpt><trkpt lat="45.1552821" lon="8.205032"><ele>263.6666666666667</ele><time>2026-04-18T14:30:35.242Z</time></trkpt><trkpt lat="45.1553013" lon="8.2051407"><ele>263.8333333333333</ele><time>2026-04-18T14:30:36.243Z</time></trkpt><trkpt lat="45.1553502" lon="8.2052314"><ele>264.0</ele><time>2026-04-18T14:30:37.242Z</time></trkpt><trkpt lat="45.1554207" lon="8.2052911"><ele>264.0</ele><time>2026-04-18T14:30:38.243Z</time></trkpt><trkpt lat="45.1555273" lon="8.2053509"><ele>264.0</ele><time>2026-04-18T14:30:39.242Z</time></trkpt><trkpt lat="45.1556315" lon="8.2054123"><ele>264.0</ele><time>2026-04-18T14:30:40.243Z</time></trkpt><trkpt lat="45.1557401" lon="8.2054838"><ele>264.0</ele><time>2026-04-18T14:30:41.242Z</time></trkpt><trkpt lat="45.155838" lon="8.2055691"><ele>264.75</ele><time>2026-04-18T14:30:42.242Z</time></trkpt><trkpt lat="45.1559328" lon="8.2056767"><ele>265.5</ele><time>2026-04-18T14:30:43.242Z</time></trkpt><trkpt lat="45.1560172" lon="8.2058052"><ele>266.25</ele><time>2026-04-18T14:30:44.242Z</time></trkpt><trkpt lat="45.1561001" lon="8.2059268"><ele>267.0</ele><time>2026-04-18T14:30:45.242Z</time></trkpt><trkpt lat="45.1561903" lon="8.2060409"><ele>267.0</ele><time>2026-04-18T14:30:46.242Z</time></trkpt><trkpt lat="45.1562926" lon="8.2061443"><ele>267.0</ele><time>2026-04-18T14:30:47.243Z</time></trkpt><trkpt lat="45.1564" lon="8.2062452"><ele>267.0</ele><time>2026-04-18T14:30:48.242Z</time></trkpt><trkpt lat="45.1565097" lon="8.2063327"><ele>267.0</ele><time>2026-04-18T14:30:49.242Z</time></trkpt><trkpt lat="45.1566151" lon="8.2064228"><ele>267.0</ele><time>2026-04-18T14:30:50.243Z</time></trkpt><trkpt lat="45.1567131" lon="8.2065161"><ele>267.0</ele><time>2026-04-18T14:30:51.242Z</time></trkpt><trkpt lat="45.1567801" lon="8.2066259"><ele>267.0</ele><time>2026-04-18T14:30:52.242Z</time></trkpt><trkpt lat="45.1568292" lon="8.2067791"><ele>267.0</ele><time>2026-04-18T14:30:53.242Z</time></trkpt><trkpt lat="45.1568602" lon="8.2069482"><ele>267.0</ele><time>2026-04-18T14:30:54.242Z</time></trkpt><trkpt lat="45.1568684" lon="8.2071299"><ele>267.0</ele><time>2026-04-18T14:30:55.242Z</time></trkpt><trkpt lat="45.1568657" lon="8.2073348"><ele>267.0</ele><time>2026-04-18T14:30:56.242Z</time></trkpt><trkpt lat="45.1568604" lon="8.2075417"><ele>267.0</ele><time>2026-04-18T14:30:57.243Z</time></trkpt><trkpt lat="45.1568492" lon="8.2077524"><ele>266.5</ele><time>2026-04-18T14:30:58.242Z</time></trkpt><trkpt lat="45.1568357" lon="8.2079508"><ele>266.0</ele><time>2026-04-18T14:30:59.243Z</time></trkpt><trkpt lat="45.1568159" lon="8.2081412"><ele>265.5</ele><time>2026-04-18T14:31:00.242Z</time></trkpt><trkpt lat="45.1567823" lon="8.208322"><ele>265.0</ele><time>2026-04-18T14:31:01.243Z</time></trkpt><trkpt lat="45.156745" lon="8.2085126"><ele>266.5</ele><time>2026-04-18T14:31:02.242Z</time></trkpt><trkpt lat="45.1567042" lon="8.2087065"><ele>268.0</ele><time>2026-04-18T14:31:03.242Z</time></trkpt><trkpt lat="45.1566692" lon="8.2088967"><ele>269.5</ele><time>2026-04-18T14:31:04.242Z</time></trkpt><trkpt lat="45.1566416" lon="8.2091013"><ele>271.0</ele><time>2026-04-18T14:31:05.242Z</time></trkpt><trkpt lat="45.1566104" lon="8.2093022"><ele>269.75</ele><time>2026-04-18T14:31:06.242Z</time></trkpt><trkpt lat="45.1565733" lon="8.2095101"><ele>268.5</ele><time>2026-04-18T14:31:07.243Z</time></trkpt><trkpt lat="45.156519" lon="8.2097081"><ele>267.25</ele><time>2026-04-18T14:31:08.243Z</time></trkpt><trkpt lat="45.156458" lon="8.2098997"><ele>266.0</ele><time>2026-04-18T14:31:09.242Z</time></trkpt><trkpt lat="45.1563983" lon="8.2101071"><ele>266.0</ele><time>2026-04-18T14:31:10.242Z</time></trkpt><trkpt lat="45.1563344" lon="8.2103115"><ele>266.0</ele><time>2026-04-18T14:31:11.242Z</time></trkpt><trkpt lat="45.1562633" lon="8.210505"><ele>266.0</ele><time>2026-04-18T14:31:12.242Z</time></trkpt><trkpt lat="45.156195" lon="8.2107034"><ele>268.75</ele><time>2026-04-18T14:31:13.243Z</time></trkpt><trkpt lat="45.1561216" lon="8.2108963"><ele>271.5</ele><time>2026-04-18T14:31:14.243Z</time></trkpt><trkpt lat="45.1560622" lon="8.2110853"><ele>274.25</ele><time>2026-04-18T14:31:15.243Z</time></trkpt><trkpt lat="45.1560106" lon="8.2112545"><ele>277.0</ele><time>2026-04-18T14:31:16.242Z</time></trkpt><trkpt lat="45.1559768" lon="8.2114185"><ele>281.25</ele><time>2026-04-18T14:31:17.242Z</time></trkpt><trkpt lat="45.1559653" lon="8.2115863"><ele>285.5</ele><time>2026-04-18T14:31:18.242Z</time></trkpt><trkpt lat="45.15598" lon="8.2117552"><ele>289.75</ele><time>2026-04-18T14:31:19.242Z</time></trkpt><trkpt lat="45.1560241" lon="8.2119357"><ele>294.0</ele><time>2026-04-18T14:31:20.242Z</time></trkpt><trkpt lat="45.1560699" lon="8.212116"><ele>294.0</ele><time>2026-04-18T14:31:21.242Z</time></trkpt><trkpt lat="45.156112" lon="8.2122951"><ele>294.0</ele><time>2026-04-18T14:31:22.242Z</time></trkpt><trkpt lat="45.1561489" lon="8.2125057"><ele>294.0</ele><time>2026-04-18T14:31:23.243Z</time></trkpt><trkpt lat="45.156242" lon="8.2127109"><ele>296.0</ele><time>2026-04-18T14:31:24.242Z</time></trkpt><trkpt lat="45.156321" lon="8.2128861"><ele>298.0</ele><time>2026-04-18T14:31:25.243Z</time></trkpt><trkpt lat="45.1563929" lon="8.2130537"><ele>300.0</ele><time>2026-04-18T14:31:26.242Z</time></trkpt><trkpt lat="45.1564684" lon="8.2132325"><ele>302.0</ele><time>2026-04-18T14:31:27.242Z</time></trkpt><trkpt lat="45.1565258" lon="8.2134123"><ele>299.75</ele><time>2026-04-18T14:31:28.243Z</time></trkpt><trkpt lat="45.156579" lon="8.2136029"><ele>297.5</ele><time>2026-04-18T14:31:29.242Z</time></trkpt><trkpt lat="45.1566099" lon="8.2137936"><ele>295.25</ele><time>2026-04-18T14:31:30.242Z</time></trkpt><trkpt lat="45.1566484" lon="8.2139979"><ele>293.0</ele><time>2026-04-18T14:31:31.242Z</time></trkpt><trkpt lat="45.1566544" lon="8.2142027"><ele>293.0</ele><time>2026-04-18T14:31:32.242Z</time></trkpt><trkpt lat="45.1566336" lon="8.2144019"><ele>293.0</ele><time>2026-04-18T14:31:33.242Z</time></trkpt><trkpt lat="45.1566002" lon="8.2146098"><ele>293.0</ele><time>2026-04-18T14:31:34.243Z</time></trkpt><trkpt lat="45.1565604" lon="8.2148102"><ele>293.0</ele><time>2026-04-18T14:31:35.242Z</time></trkpt><trkpt lat="45.1565191" lon="8.2150131"><ele>291.75</ele><time>2026-04-18T14:31:36.243Z</time></trkpt><trkpt lat="45.1564859" lon="8.2152101"><ele>290.5</ele><time>2026-04-18T14:31:37.242Z</time></trkpt><trkpt lat="45.1564648" lon="8.2153984"><ele>289.25</ele><time>2026-04-18T14:31:38.242Z</time></trkpt><trkpt lat="45.1564504" lon="8.2155806"><ele>288.0</ele><time>2026-04-18T14:31:39.242Z</time></trkpt><trkpt lat="45.1564659" lon="8.2157584"><ele>288.0</ele><time>2026-04-18T14:31:40.242Z</time></trkpt><trkpt lat="45.1565055" lon="8.215928"><ele>288.0</ele><time>2026-04-18T14:31:41.242Z</time></trkpt><trkpt lat="45.1565675" lon="8.2160819"><ele>288.0</ele><time>2026-04-18T14:31:42.242Z</time></trkpt><trkpt lat="45.1566533" lon="8.2162082"><ele>288.0</ele><time>2026-04-18T14:31:43.242Z</time></trkpt><trkpt lat="45.1567489" lon="8.2163137"><ele>293.0</ele><time>2026-04-18T14:31:44.243Z</time></trkpt><trkpt lat="45.1568506" lon="8.2164237"><ele>298.0</ele><time>2026-04-18T14:31:45.242Z</time></trkpt><trkpt lat="45.1569437" lon="8.2165722"><ele>303.0</ele><time>2026-04-18T14:31:46.243Z</time></trkpt><trkpt lat="45.1570254" lon="8.2167048"><ele>308.0</ele><time>2026-04-18T14:31:47.242Z</time></trkpt><trkpt lat="45.1571144" lon="8.2168298"><ele>308.75</ele><time>2026-04-18T14:31:48.242Z</time></trkpt><trkpt lat="45.1572061" lon="8.2169378"><ele>309.5</ele><time>2026-04-18T14:31:49.242Z</time></trkpt><trkpt lat="45.1573135" lon="8.2170159"><ele>310.25</ele><time>2026-04-18T14:31:50.242Z</time></trkpt><trkpt lat="45.1574376" lon="8.2170614"><ele>311.0</ele><time>2026-04-18T14:31:51.243Z</time></trkpt><trkpt lat="45.1575737" lon="8.2170786"><ele>311.0</ele><time>2026-04-18T14:31:52.242Z</time></trkpt><trkpt lat="45.1577204" lon="8.2171007"><ele>311.0</ele><time>2026-04-18T14:31:53.242Z</time></trkpt><trkpt lat="45.1578519" lon="8.2171338"><ele>311.0</ele><time>2026-04-18T14:31:54.242Z</time></trkpt><trkpt lat="45.1579721" lon="8.2171645"><ele>311.0</ele><time>2026-04-18T14:31:55.243Z</time></trkpt><trkpt lat="45.1580924" lon="8.217228"><ele>313.25</ele><time>2026-04-18T14:31:56.242Z</time></trkpt><trkpt lat="45.1582044" lon="8.217312"><ele>315.5</ele><time>2026-04-18T14:31:57.242Z</time></trkpt><trkpt lat="45.1583172" lon="8.2173961"><ele>317.75</ele><time>2026-04-18T14:31:58.243Z</time></trkpt><trkpt lat="45.1584344" lon="8.2174932"><ele>320.0</ele><time>2026-04-18T14:31:59.242Z</time></trkpt><trkpt lat="45.1585437" lon="8.2175538"><ele>319.5</ele><time>2026-04-18T14:32:00.242Z</time></trkpt><trkpt lat="45.1586646" lon="8.2175963"><ele>319.0</ele><time>2026-04-18T14:32:01.243Z</time></trkpt><trkpt lat="45.1587828" lon="8.2176378"><ele>318.5</ele><time>2026-04-18T14:32:02.243Z</time></trkpt><trkpt lat="45.1589097" lon="8.2176834"><ele>318.0</ele><time>2026-04-18T14:32:03.243Z</time></trkpt><trkpt lat="45.159039" lon="8.2177272"><ele>318.0</ele><time>2026-04-18T14:32:04.242Z</time></trkpt><trkpt lat="45.1591668" lon="8.2177634"><ele>318.0</ele><time>2026-04-18T14:32:05.243Z</time></trkpt><trkpt lat="45.1592764" lon="8.2177984"><ele>318.0</ele><time>2026-04-18T14:32:06.242Z</time></trkpt><trkpt lat="45.1593763" lon="8.2178528"><ele>318.0</ele><time>2026-04-18T14:32:07.242Z</time></trkpt><trkpt lat="45.1594657" lon="8.2179349"><ele>318.0</ele><time>2026-04-18T14:32:08.242Z</time></trkpt><trkpt lat="45.1595372" lon="8.2180444"><ele>318.0</ele><time>2026-04-18T14:32:09.243Z</time></trkpt><trkpt lat="45.1595938" lon="8.2182011"><ele>318.0</ele><time>2026-04-18T14:32:10.242Z</time></trkpt><trkpt lat="45.159652" lon="8.2183482"><ele>318.0</ele><time>2026-04-18T14:32:11.242Z</time></trkpt><trkpt lat="45.1596935" lon="8.2185138"><ele>318.75</ele><time>2026-04-18T14:32:12.242Z</time></trkpt><trkpt lat="45.1597288" lon="8.2186835"><ele>319.5</ele><time>2026-04-18T14:32:13.242Z</time></trkpt><trkpt lat="45.1597579" lon="8.2188673"><ele>320.25</ele><time>2026-04-18T14:32:14.242Z</time></trkpt><trkpt lat="45.1597522" lon="8.2190559"><ele>321.0</ele><time>2026-04-18T14:32:15.242Z</time></trkpt><trkpt lat="45.1597509" lon="8.2192336"><ele>319.6</ele><time>2026-04-18T14:32:16.243Z</time></trkpt><trkpt lat="45.1597436" lon="8.2194071"><ele>318.20000000000005</ele><time>2026-04-18T14:32:17.242Z</time></trkpt><trkpt lat="45.1597302" lon="8.2195602"><ele>316.79999999999995</ele><time>2026-04-18T14:32:18.242Z</time></trkpt><trkpt lat="45.159717" lon="8.2197067"><ele>315.4</ele><time>2026-04-18T14:32:19.242Z</time></trkpt><trkpt lat="45.1596672" lon="8.219844"><ele>314.0</ele><time>2026-04-18T14:32:20.242Z</time></trkpt><trkpt lat="45.159622" lon="8.2199687"><ele>313.4</ele><time>2026-04-18T14:32:21.242Z</time></trkpt><trkpt lat="45.1595406" lon="8.220076"><ele>312.79999999999995</ele><time>2026-04-18T14:32:22.243Z</time></trkpt><trkpt lat="45.1594707" lon="8.2202103"><ele>312.20000000000005</ele><time>2026-04-18T14:32:23.242Z</time></trkpt><trkpt lat="45.1593968" lon="8.2203238"><ele>311.6</ele><time>2026-04-18T14:32:24.242Z</time></trkpt><trkpt lat="45.1593288" lon="8.2204224"><ele>311.0</ele><time>2026-04-18T14:32:25.242Z</time></trkpt><trkpt lat="45.1592659" lon="8.220532"><ele>311.6</ele><time>2026-04-18T14:32:26.243Z</time></trkpt><trkpt lat="45.159224" lon="8.2206554"><ele>312.20000000000005</ele><time>2026-04-18T14:32:27.242Z</time></trkpt><trkpt lat="45.1591974" lon="8.2207699"><ele>312.79999999999995</ele><time>2026-04-18T14:32:28.242Z</time></trkpt><trkpt lat="45.1591861" lon="8.2209045"><ele>313.4</ele><time>2026-04-18T14:32:29.242Z</time></trkpt><trkpt lat="45.1591892" lon="8.2210447"><ele>314.0</ele><time>2026-04-18T14:32:30.242Z</time></trkpt><trkpt lat="45.1592092" lon="8.2211967"><ele>314.0</ele><time>2026-04-18T14:32:31.242Z</time></trkpt><trkpt lat="45.1592288" lon="8.2213582"><ele>314.0</ele><time>2026-04-18T14:32:32.243Z</time></trkpt><trkpt lat="45.159238" lon="8.2215258"><ele>314.0</ele><time>2026-04-18T14:32:33.242Z</time></trkpt><trkpt lat="45.1592242" lon="8.221681"><ele>314.0</ele><time>2026-04-18T14:32:34.242Z</time></trkpt><trkpt lat="45.1592485" lon="8.2218327"><ele>314.0</ele><time>2026-04-18T14:32:35.242Z</time></trkpt><trkpt lat="45.1592796" lon="8.2219934"><ele>314.0</ele><time>2026-04-18T14:32:36.242Z</time></trkpt><trkpt lat="45.1593303" lon="8.2221373"><ele>314.0</ele><time>2026-04-18T14:32:37.242Z</time></trkpt><trkpt lat="45.1594012" lon="8.2222947"><ele>314.0</ele><time>2026-04-18T14:32:38.242Z</time></trkpt><trkpt lat="45.159474" lon="8.2224601"><ele>314.0</ele><time>2026-04-18T14:32:39.242Z</time></trkpt><trkpt lat="45.1595434" lon="8.2226281"><ele>314.0</ele><time>2026-04-18T14:32:40.242Z</time></trkpt><trkpt lat="45.1596234" lon="8.2228015"><ele>314.0</ele><time>2026-04-18T14:32:41.243Z</time></trkpt><trkpt lat="45.1597081" lon="8.2229765"><ele>314.0</ele><time>2026-04-18T14:32:42.243Z</time></trkpt><trkpt lat="45.1597983" lon="8.2231657"><ele>314.4</ele><time>2026-04-18T14:32:43.243Z</time></trkpt><trkpt lat="45.159866" lon="8.2233036"><ele>314.79999999999995</ele><time>2026-04-18T14:32:44.243Z</time></trkpt><trkpt lat="45.1599164" lon="8.2234431"><ele>315.20000000000005</ele><time>2026-04-18T14:32:45.242Z</time></trkpt><trkpt lat="45.1599476" lon="8.2235867"><ele>315.6</ele><time>2026-04-18T14:32:46.242Z</time></trkpt><trkpt lat="45.15997" lon="8.2237288"><ele>316.0</ele><time>2026-04-18T14:32:47.242Z</time></trkpt><trkpt lat="45.1599275" lon="8.223886"><ele>318.25</ele><time>2026-04-18T14:32:48.242Z</time></trkpt><trkpt lat="45.1599036" lon="8.2240357"><ele>320.5</ele><time>2026-04-18T14:32:49.243Z</time></trkpt><trkpt lat="45.1598976" lon="8.2241964"><ele>322.75</ele><time>2026-04-18T14:32:50.243Z</time></trkpt><trkpt lat="45.1598888" lon="8.2243676"><ele>325.0</ele><time>2026-04-18T14:32:51.242Z</time></trkpt><trkpt lat="45.1598999" lon="8.2245504"><ele>325.0</ele><time>2026-04-18T14:32:52.242Z</time></trkpt><trkpt lat="45.1599042" lon="8.2247338"><ele>325.0</ele><time>2026-04-18T14:32:53.243Z</time></trkpt><trkpt lat="45.1598891" lon="8.22492"><ele>325.0</ele><time>2026-04-18T14:32:54.242Z</time></trkpt><trkpt lat="45.1598642" lon="8.2251178"><ele>325.0</ele><time>2026-04-18T14:32:55.243Z</time></trkpt><trkpt lat="45.1598165" lon="8.2253049"><ele>323.25</ele><time>2026-04-18T14:32:56.242Z</time></trkpt><trkpt lat="45.159763" lon="8.225499"><ele>321.5</ele><time>2026-04-18T14:32:57.243Z</time></trkpt><trkpt lat="45.1597044" lon="8.2256737"><ele>319.75</ele><time>2026-04-18T14:32:58.242Z</time></trkpt><trkpt lat="45.159652" lon="8.2258297"><ele>318.0</ele><time>2026-04-18T14:32:59.243Z</time></trkpt><trkpt lat="45.1595982" lon="8.2259865"><ele>318.0</ele><time>2026-04-18T14:33:00.242Z</time></trkpt><trkpt lat="45.1595373" lon="8.2261282"><ele>318.0</ele><time>2026-04-18T14:33:01.242Z</time></trkpt><trkpt lat="45.1594725" lon="8.2262591"><ele>318.0</ele><time>2026-04-18T14:33:02.242Z</time></trkpt><trkpt lat="45.1594064" lon="8.2263893"><ele>318.0</ele><time>2026-04-18T14:33:03.243Z</time></trkpt><trkpt lat="45.1593449" lon="8.226512"><ele>318.0</ele><time>2026-04-18T14:33:04.243Z</time></trkpt><trkpt lat="45.1592759" lon="8.2266382"><ele>316.8</ele><time>2026-04-18T14:33:05.242Z</time></trkpt><trkpt lat="45.1592123" lon="8.226768"><ele>315.6</ele><time>2026-04-18T14:33:06.243Z</time></trkpt><trkpt lat="45.1591546" lon="8.226882"><ele>314.4</ele><time>2026-04-18T14:33:07.242Z</time></trkpt><trkpt lat="45.1590857" lon="8.2270031"><ele>313.2</ele><time>2026-04-18T14:33:08.243Z</time></trkpt><trkpt lat="45.1590189" lon="8.2271437"><ele>312.0</ele><time>2026-04-18T14:33:09.243Z</time></trkpt><trkpt lat="45.1589519" lon="8.2272848"><ele>316.25</ele><time>2026-04-18T14:33:10.243Z</time></trkpt><trkpt lat="45.1588986" lon="8.2274346"><ele>320.5</ele><time>2026-04-18T14:33:11.242Z</time></trkpt><trkpt lat="45.1588553" lon="8.2275947"><ele>324.75</ele><time>2026-04-18T14:33:12.242Z</time></trkpt><trkpt lat="45.1588076" lon="8.2277403"><ele>329.0</ele><time>2026-04-18T14:33:13.242Z</time></trkpt><trkpt lat="45.1587466" lon="8.2278841"><ele>329.0</ele><time>2026-04-18T14:33:14.243Z</time></trkpt><trkpt lat="45.1586787" lon="8.2280167"><ele>329.0</ele><time>2026-04-18T14:33:15.242Z</time></trkpt><trkpt lat="45.1585931" lon="8.2281416"><ele>329.0</ele><time>2026-04-18T14:33:16.243Z</time></trkpt><trkpt lat="45.1584921" lon="8.2282341"><ele>329.0</ele><time>2026-04-18T14:33:17.242Z</time></trkpt><trkpt lat="45.1583815" lon="8.2283198"><ele>329.0</ele><time>2026-04-18T14:33:18.243Z</time></trkpt><trkpt lat="45.1582712" lon="8.2284059"><ele>329.0</ele><time>2026-04-18T14:33:19.242Z</time></trkpt><trkpt lat="45.1581488" lon="8.2284854"><ele>329.0</ele><time>2026-04-18T14:33:20.242Z</time></trkpt><trkpt lat="45.1580244" lon="8.2285642"><ele>329.0</ele><time>2026-04-18T14:33:21.242Z</time></trkpt><trkpt lat="45.1578973" lon="8.2286626"><ele>327.25</ele><time>2026-04-18T14:33:22.242Z</time></trkpt><trkpt lat="45.1577918" lon="8.2287727"><ele>325.5</ele><time>2026-04-18T14:33:23.243Z</time></trkpt><trkpt lat="45.1576825" lon="8.2288995"><ele>323.75</ele><time>2026-04-18T14:33:24.243Z</time></trkpt><trkpt lat="45.1575624" lon="8.2290092"><ele>322.0</ele><time>2026-04-18T14:33:25.242Z</time></trkpt><trkpt lat="45.1574613" lon="8.2291154"><ele>322.75</ele><time>2026-04-18T14:33:26.243Z</time></trkpt><trkpt lat="45.1573426" lon="8.2292052"><ele>323.5</ele><time>2026-04-18T14:33:27.242Z</time></trkpt><trkpt lat="45.1572179" lon="8.2293112"><ele>324.25</ele><time>2026-04-18T14:33:28.242Z</time></trkpt><trkpt lat="45.1571026" lon="8.2294049"><ele>325.0</ele><time>2026-04-18T14:33:29.242Z</time></trkpt><trkpt lat="45.1569889" lon="8.2294786"><ele>325.0</ele><time>2026-04-18T14:33:30.243Z</time></trkpt><trkpt lat="45.156882" lon="8.229536"><ele>325.0</ele><time>2026-04-18T14:33:31.242Z</time></trkpt><trkpt lat="45.1567806" lon="8.2296034"><ele>325.0</ele><time>2026-04-18T14:33:32.242Z</time></trkpt><trkpt lat="45.1566717" lon="8.2296294"><ele>325.0</ele><time>2026-04-18T14:33:33.242Z</time></trkpt><trkpt lat="45.1565699" lon="8.2295991"><ele>325.0</ele><time>2026-04-18T14:33:34.242Z</time></trkpt><trkpt lat="45.1564621" lon="8.2295896"><ele>323.2</ele><time>2026-04-18T14:33:35.243Z</time></trkpt><trkpt lat="45.1563815" lon="8.2296278"><ele>321.4</ele><time>2026-04-18T14:33:36.242Z</time></trkpt><trkpt lat="45.1563131" lon="8.2296729"><ele>319.6</ele><time>2026-04-18T14:33:37.242Z</time></trkpt><trkpt lat="45.1562283" lon="8.2297186"><ele>317.8</ele><time>2026-04-18T14:33:38.243Z</time></trkpt><trkpt lat="45.1562487" lon="8.2299364"><ele>316.0</ele><time>2026-04-18T14:33:39.242Z</time></trkpt><trkpt lat="45.15623" lon="8.2300661"><ele>316.0</ele><time>2026-04-18T14:33:40.242Z</time></trkpt><trkpt lat="45.1562504" lon="8.2302315"><ele>316.0</ele><time>2026-04-18T14:33:41.242Z</time></trkpt><trkpt lat="45.1562566" lon="8.2304281"><ele>316.0</ele><time>2026-04-18T14:33:42.242Z</time></trkpt><trkpt lat="45.1562514" lon="8.2306249"><ele>316.0</ele><time>2026-04-18T14:33:43.242Z</time></trkpt><trkpt lat="45.1562351" lon="8.2308138"><ele>317.66666666666663</ele><time>2026-04-18T14:33:44.242Z</time></trkpt><trkpt lat="45.1561761" lon="8.2310216"><ele>319.3333333333333</ele><time>2026-04-18T14:33:45.242Z</time></trkpt><trkpt lat="45.156084" lon="8.2311967"><ele>321.0</ele><time>2026-04-18T14:33:46.242Z</time></trkpt><trkpt lat="45.1560095" lon="8.2313866"><ele>321.0</ele><time>2026-04-18T14:33:47.242Z</time></trkpt><trkpt lat="45.155934" lon="8.2315621"><ele>321.0</ele><time>2026-04-18T14:33:48.242Z</time></trkpt><trkpt lat="45.1558788" lon="8.231736"><ele>321.0</ele><time>2026-04-18T14:33:49.242Z</time></trkpt><trkpt lat="45.1558005" lon="8.2319095"><ele>321.0</ele><time>2026-04-18T14:33:50.242Z</time></trkpt><trkpt lat="45.1557014" lon="8.2320523"><ele>321.0</ele><time>2026-04-18T14:33:51.242Z</time></trkpt><trkpt lat="45.1555799" lon="8.2321365"><ele>321.0</ele><time>2026-04-18T14:33:52.242Z</time></trkpt><trkpt lat="45.1554413" lon="8.2322173"><ele>321.0</ele><time>2026-04-18T14:33:53.242Z</time></trkpt><trkpt lat="45.1553124" lon="8.2322783"><ele>321.0</ele><time>2026-04-18T14:33:54.242Z</time></trkpt><trkpt lat="45.1551901" lon="8.2323138"><ele>326.5</ele><time>2026-04-18T14:33:55.243Z</time></trkpt><trkpt lat="45.1550498" lon="8.2323562"><ele>332.0</ele><time>2026-04-18T14:33:56.242Z</time></trkpt><trkpt lat="45.1549203" lon="8.2323863"><ele>337.5</ele><time>2026-04-18T14:33:57.243Z</time></trkpt><trkpt lat="45.1548037" lon="8.232412"><ele>343.0</ele><time>2026-04-18T14:33:58.242Z</time></trkpt><trkpt lat="45.1546973" lon="8.2324496"><ele>343.75</ele><time>2026-04-18T14:33:59.242Z</time></trkpt><trkpt lat="45.1545436" lon="8.2324692"><ele>344.5</ele><time>2026-04-18T14:34:00.242Z</time></trkpt><trkpt lat="45.1544111" lon="8.2324806"><ele>345.25</ele><time>2026-04-18T14:34:01.243Z</time></trkpt><trkpt lat="45.1542735" lon="8.2324972"><ele>346.0</ele><time>2026-04-18T14:34:02.242Z</time></trkpt><trkpt lat="45.1541629" lon="8.2325163"><ele>346.0</ele><time>2026-04-18T14:34:03.242Z</time></trkpt><trkpt lat="45.1540561" lon="8.2325102"><ele>346.0</ele><time>2026-04-18T14:34:04.242Z</time></trkpt><trkpt lat="45.1539465" lon="8.2325239"><ele>346.0</ele><time>2026-04-18T14:34:05.243Z</time></trkpt><trkpt lat="45.1538314" lon="8.2325377"><ele>346.0</ele><time>2026-04-18T14:34:06.242Z</time></trkpt><trkpt lat="45.1537193" lon="8.2325364"><ele>346.0</ele><time>2026-04-18T14:34:07.242Z</time></trkpt><trkpt lat="45.1535986" lon="8.2325294"><ele>345.0</ele><time>2026-04-18T14:34:08.242Z</time></trkpt><trkpt lat="45.1535075" lon="8.232529"><ele>344.0</ele><time>2026-04-18T14:34:09.242Z</time></trkpt><trkpt lat="45.1534246" lon="8.2325406"><ele>343.0</ele><time>2026-04-18T14:34:10.243Z</time></trkpt><trkpt lat="45.1533102" lon="8.2325857"><ele>342.0</ele><time>2026-04-18T14:34:12.242Z</time></trkpt><trkpt lat="45.1532673" lon="8.23271"><ele>341.0</ele><time>2026-04-18T14:34:14.242Z</time></trkpt><trkpt lat="45.1533043" lon="8.2328018"><ele>341.0</ele><time>2026-04-18T14:34:15.242Z</time></trkpt><trkpt lat="45.1533574" lon="8.2329105"><ele>341.0</ele><time>2026-04-18T14:34:16.242Z</time></trkpt><trkpt lat="45.1534348" lon="8.233037"><ele>341.0</ele><time>2026-04-18T14:34:17.243Z</time></trkpt><trkpt lat="45.1535142" lon="8.2331662"><ele>341.0</ele><time>2026-04-18T14:34:18.242Z</time></trkpt><trkpt lat="45.1536021" lon="8.2333146"><ele>341.25</ele><time>2026-04-18T14:34:19.243Z</time></trkpt><trkpt lat="45.1536831" lon="8.2334674"><ele>341.5</ele><time>2026-04-18T14:34:20.242Z</time></trkpt><trkpt lat="45.1537729" lon="8.2336182"><ele>341.75</ele><time>2026-04-18T14:34:21.242Z</time></trkpt><trkpt lat="45.1538636" lon="8.2337688"><ele>342.0</ele><time>2026-04-18T14:34:22.243Z</time></trkpt><trkpt lat="45.1539336" lon="8.2339215"><ele>340.40000000000003</ele><time>2026-04-18T14:34:23.243Z</time></trkpt><trkpt lat="45.1540316" lon="8.234055"><ele>338.8</ele><time>2026-04-18T14:34:24.243Z</time></trkpt><trkpt lat="45.1540593" lon="8.23415"><ele>337.2</ele><time>2026-04-18T14:34:25.243Z</time></trkpt><trkpt lat="45.1540873" lon="8.2342786"><ele>335.6</ele><time>2026-04-18T14:34:26.242Z</time></trkpt><trkpt lat="45.1540769" lon="8.234416"><ele>334.0</ele><time>2026-04-18T14:34:27.243Z</time></trkpt><trkpt lat="45.1540515" lon="8.2345444"><ele>334.0</ele><time>2026-04-18T14:34:28.242Z</time></trkpt><trkpt lat="45.1539874" lon="8.2346663"><ele>334.0</ele><time>2026-04-18T14:34:29.242Z</time></trkpt><trkpt lat="45.1539054" lon="8.2348085"><ele>334.0</ele><time>2026-04-18T14:34:30.242Z</time></trkpt><trkpt lat="45.1538089" lon="8.2349666"><ele>334.0</ele><time>2026-04-18T14:34:31.243Z</time></trkpt><trkpt lat="45.1537097" lon="8.2351282"><ele>334.75</ele><time>2026-04-18T14:34:32.243Z</time></trkpt><trkpt lat="45.1536227" lon="8.235295"><ele>335.5</ele><time>2026-04-18T14:34:33.243Z</time></trkpt><trkpt lat="45.153531" lon="8.2354689"><ele>336.25</ele><time>2026-04-18T14:34:34.242Z</time></trkpt><trkpt lat="45.1534523" lon="8.2356305"><ele>337.0</ele><time>2026-04-18T14:34:35.242Z</time></trkpt><trkpt lat="45.1533705" lon="8.2357988"><ele>335.0</ele><time>2026-04-18T14:34:36.242Z</time></trkpt><trkpt lat="45.1532831" lon="8.2359666"><ele>333.0</ele><time>2026-04-18T14:34:37.242Z</time></trkpt><trkpt lat="45.1532113" lon="8.2361229"><ele>331.0</ele><time>2026-04-18T14:34:38.242Z</time></trkpt><trkpt lat="45.1531416" lon="8.2362814"><ele>329.0</ele><time>2026-04-18T14:34:39.243Z</time></trkpt><trkpt lat="45.1530976" lon="8.2364391"><ele>335.0</ele><time>2026-04-18T14:34:40.243Z</time></trkpt><trkpt lat="45.1530793" lon="8.2365968"><ele>341.0</ele><time>2026-04-18T14:34:41.242Z</time></trkpt><trkpt lat="45.1531112" lon="8.236771"><ele>347.0</ele><time>2026-04-18T14:34:42.242Z</time></trkpt><trkpt lat="45.1531433" lon="8.2369702"><ele>353.0</ele><time>2026-04-18T14:34:43.242Z</time></trkpt><trkpt lat="45.1531533" lon="8.237163"><ele>354.5</ele><time>2026-04-18T14:34:44.242Z</time></trkpt><trkpt lat="45.153147" lon="8.2373739"><ele>356.0</ele><time>2026-04-18T14:34:45.242Z</time></trkpt><trkpt lat="45.1531194" lon="8.2375774"><ele>357.5</ele><time>2026-04-18T14:34:46.243Z</time></trkpt><trkpt lat="45.1530769" lon="8.2377769"><ele>359.0</ele><time>2026-04-18T14:34:47.242Z</time></trkpt><trkpt lat="45.1530099" lon="8.2379624"><ele>359.0</ele><time>2026-04-18T14:34:48.243Z</time></trkpt><trkpt lat="45.1529326" lon="8.2381291"><ele>359.0</ele><time>2026-04-18T14:34:49.242Z</time></trkpt><trkpt lat="45.1528633" lon="8.2383112"><ele>359.0</ele><time>2026-04-18T14:34:50.242Z</time></trkpt><trkpt lat="45.1528265" lon="8.238521"><ele>359.0</ele><time>2026-04-18T14:34:51.243Z</time></trkpt><trkpt lat="45.1527961" lon="8.2387464"><ele>353.75</ele><time>2026-04-18T14:34:52.243Z</time></trkpt><trkpt lat="45.152772" lon="8.2389689"><ele>348.5</ele><time>2026-04-18T14:34:53.242Z</time></trkpt><trkpt lat="45.1527507" lon="8.239173"><ele>343.25</ele><time>2026-04-18T14:34:54.243Z</time></trkpt><trkpt lat="45.1527279" lon="8.2393707"><ele>338.0</ele><time>2026-04-18T14:34:55.243Z</time></trkpt><trkpt lat="45.1527274" lon="8.2395616"><ele>338.0</ele><time>2026-04-18T14:34:56.242Z</time></trkpt><trkpt lat="45.1527711" lon="8.2397507"><ele>338.0</ele><time>2026-04-18T14:34:57.242Z</time></trkpt><trkpt lat="45.1528197" lon="8.2399237"><ele>338.0</ele><time>2026-04-18T14:34:58.242Z</time></trkpt><trkpt lat="45.1529221" lon="8.2400494"><ele>338.0</ele><time>2026-04-18T14:34:59.242Z</time></trkpt><trkpt lat="45.1530361" lon="8.2401721"><ele>338.0</ele><time>2026-04-18T14:35:00.243Z</time></trkpt><trkpt lat="45.1531626" lon="8.2402812"><ele>338.0</ele><time>2026-04-18T14:35:01.242Z</time></trkpt><trkpt lat="45.1532767" lon="8.2403955"><ele>338.0</ele><time>2026-04-18T14:35:02.242Z</time></trkpt><trkpt lat="45.153386" lon="8.240513"><ele>338.0</ele><time>2026-04-18T14:35:03.243Z</time></trkpt><trkpt lat="45.1534851" lon="8.2406468"><ele>342.0</ele><time>2026-04-18T14:35:04.242Z</time></trkpt><trkpt lat="45.1536029" lon="8.2407372"><ele>346.0</ele><time>2026-04-18T14:35:05.242Z</time></trkpt><trkpt lat="45.1537253" lon="8.2407984"><ele>350.0</ele><time>2026-04-18T14:35:06.243Z</time></trkpt><trkpt lat="45.1538545" lon="8.2408122"><ele>354.0</ele><time>2026-04-18T14:35:07.242Z</time></trkpt><trkpt lat="45.153989" lon="8.2408411"><ele>350.25</ele><time>2026-04-18T14:35:08.242Z</time></trkpt><trkpt lat="45.1541081" lon="8.2408879"><ele>346.5</ele><time>2026-04-18T14:35:09.243Z</time></trkpt><trkpt lat="45.1542181" lon="8.2409792"><ele>342.75</ele><time>2026-04-18T14:35:10.242Z</time></trkpt><trkpt lat="45.1543303" lon="8.2410313"><ele>339.0</ele><time>2026-04-18T14:35:11.243Z</time></trkpt><trkpt lat="45.1544561" lon="8.2410311"><ele>339.0</ele><time>2026-04-18T14:35:12.242Z</time></trkpt><trkpt lat="45.1545765" lon="8.2409958"><ele>339.0</ele><time>2026-04-18T14:35:13.242Z</time></trkpt><trkpt lat="45.154687" lon="8.24093"><ele>339.0</ele><time>2026-04-18T14:35:14.242Z</time></trkpt><trkpt lat="45.1547802" lon="8.2408898"><ele>339.0</ele><time>2026-04-18T14:35:15.242Z</time></trkpt><trkpt lat="45.154884" lon="8.240882"><ele>339.0</ele><time>2026-04-18T14:35:16.243Z</time></trkpt><trkpt lat="45.1549876" lon="8.2409442"><ele>336.25</ele><time>2026-04-18T14:35:17.243Z</time></trkpt><trkpt lat="45.1550774" lon="8.2410957"><ele>333.5</ele><time>2026-04-18T14:35:18.242Z</time></trkpt><trkpt lat="45.1551763" lon="8.2412118"><ele>330.75</ele><time>2026-04-18T14:35:19.242Z</time></trkpt><trkpt lat="45.1552734" lon="8.2413486"><ele>328.0</ele><time>2026-04-18T14:35:20.242Z</time></trkpt><trkpt lat="45.1553838" lon="8.2414478"><ele>329.0</ele><time>2026-04-18T14:35:21.242Z</time></trkpt><trkpt lat="45.1555213" lon="8.2414981"><ele>330.0</ele><time>2026-04-18T14:35:22.242Z</time></trkpt><trkpt lat="45.1556762" lon="8.241491"><ele>331.0</ele><time>2026-04-18T14:35:23.243Z</time></trkpt><trkpt lat="45.1558422" lon="8.241477"><ele>328.5</ele><time>2026-04-18T14:35:24.242Z</time></trkpt><trkpt lat="45.1559953" lon="8.2414869"><ele>326.0</ele><time>2026-04-18T14:35:25.243Z</time></trkpt><trkpt lat="45.1561391" lon="8.2415105"><ele>323.5</ele><time>2026-04-18T14:35:26.243Z</time></trkpt><trkpt lat="45.1562849" lon="8.2415675"><ele>321.0</ele><time>2026-04-18T14:35:27.243Z</time></trkpt><trkpt lat="45.1564257" lon="8.2416375"><ele>322.0</ele><time>2026-04-18T14:35:28.242Z</time></trkpt><trkpt lat="45.1565662" lon="8.2417084"><ele>323.0</ele><time>2026-04-18T14:35:29.242Z</time></trkpt><trkpt lat="45.1567073" lon="8.2417964"><ele>324.0</ele><time>2026-04-18T14:35:30.242Z</time></trkpt><trkpt lat="45.1568388" lon="8.2418827"><ele>325.0</ele><time>2026-04-18T14:35:31.242Z</time></trkpt><trkpt lat="45.1569675" lon="8.2419863"><ele>325.0</ele><time>2026-04-18T14:35:32.243Z</time></trkpt><trkpt lat="45.1570887" lon="8.2420894"><ele>325.0</ele><time>2026-04-18T14:35:33.242Z</time></trkpt><trkpt lat="45.1571999" lon="8.2422162"><ele>325.0</ele><time>2026-04-18T14:35:34.242Z</time></trkpt><trkpt lat="45.1572935" lon="8.2423562"><ele>325.0</ele><time>2026-04-18T14:35:35.243Z</time></trkpt><trkpt lat="45.1573857" lon="8.2425032"><ele>323.5</ele><time>2026-04-18T14:35:36.242Z</time></trkpt><trkpt lat="45.1574712" lon="8.242659"><ele>322.0</ele><time>2026-04-18T14:35:37.243Z</time></trkpt><trkpt lat="45.1575657" lon="8.2428283"><ele>320.5</ele><time>2026-04-18T14:35:38.242Z</time></trkpt><trkpt lat="45.1576551" lon="8.2429829"><ele>319.0</ele><time>2026-04-18T14:35:39.242Z</time></trkpt><trkpt lat="45.1577493" lon="8.2431339"><ele>316.75</ele><time>2026-04-18T14:35:40.243Z</time></trkpt><trkpt lat="45.157837" lon="8.24328"><ele>314.5</ele><time>2026-04-18T14:35:41.242Z</time></trkpt><trkpt lat="45.1579273" lon="8.2434305"><ele>312.25</ele><time>2026-04-18T14:35:42.242Z</time></trkpt><trkpt lat="45.1580241" lon="8.2435678"><ele>310.0</ele><time>2026-04-18T14:35:43.243Z</time></trkpt><trkpt lat="45.1581423" lon="8.2436983"><ele>309.75</ele><time>2026-04-18T14:35:44.242Z</time></trkpt><trkpt lat="45.1582548" lon="8.2438161"><ele>309.5</ele><time>2026-04-18T14:35:45.242Z</time></trkpt><trkpt lat="45.1583759" lon="8.2439335"><ele>309.25</ele><time>2026-04-18T14:35:46.242Z</time></trkpt><trkpt lat="45.1584884" lon="8.2440653"><ele>309.0</ele><time>2026-04-18T14:35:47.243Z</time></trkpt><trkpt lat="45.1586012" lon="8.2441757"><ele>309.0</ele><time>2026-04-18T14:35:48.242Z</time></trkpt><trkpt lat="45.158703" lon="8.2442717"><ele>309.0</ele><time>2026-04-18T14:35:49.243Z</time></trkpt><trkpt lat="45.1587925" lon="8.2443776"><ele>309.0</ele><time>2026-04-18T14:35:50.243Z</time></trkpt><trkpt lat="45.1588644" lon="8.2444888"><ele>309.0</ele><time>2026-04-18T14:35:51.242Z</time></trkpt><trkpt lat="45.1589206" lon="8.2446194"><ele>309.0</ele><time>2026-04-18T14:35:52.242Z</time></trkpt><trkpt lat="45.1589411" lon="8.2447702"><ele>309.0</ele><time>2026-04-18T14:35:53.242Z</time></trkpt><trkpt lat="45.1589446" lon="8.2449424"><ele>309.0</ele><time>2026-04-18T14:35:54.242Z</time></trkpt><trkpt lat="45.1589354" lon="8.2451322"><ele>309.0</ele><time>2026-04-18T14:35:55.242Z</time></trkpt><trkpt lat="45.1589279" lon="8.2453179"><ele>306.2</ele><time>2026-04-18T14:35:56.242Z</time></trkpt><trkpt lat="45.1589161" lon="8.2454885"><ele>303.4</ele><time>2026-04-18T14:35:57.242Z</time></trkpt><trkpt lat="45.1589159" lon="8.2456231"><ele>300.6</ele><time>2026-04-18T14:35:58.242Z</time></trkpt><trkpt lat="45.1589288" lon="8.2457447"><ele>297.8</ele><time>2026-04-18T14:35:59.242Z</time></trkpt><trkpt lat="45.1589691" lon="8.2458396"><ele>295.0</ele><time>2026-04-18T14:36:00.243Z</time></trkpt><trkpt lat="45.1590235" lon="8.2459212"><ele>294.3333333333333</ele><time>2026-04-18T14:36:01.242Z</time></trkpt><trkpt lat="45.1590747" lon="8.2460175"><ele>293.66666666666663</ele><time>2026-04-18T14:36:02.243Z</time></trkpt><trkpt lat="45.1590899" lon="8.2461242"><ele>293.0</ele><time>2026-04-18T14:36:03.242Z</time></trkpt><trkpt lat="45.159071" lon="8.2462403"><ele>292.3333333333333</ele><time>2026-04-18T14:36:04.242Z</time></trkpt><trkpt lat="45.1590245" lon="8.2463547"><ele>291.6666666666667</ele><time>2026-04-18T14:36:05.242Z</time></trkpt><trkpt lat="45.1589646" lon="8.2464658"><ele>291.0</ele><time>2026-04-18T14:36:06.243Z</time></trkpt><trkpt lat="45.1589037" lon="8.2465472"><ele>291.0</ele><time>2026-04-18T14:36:07.243Z</time></trkpt><trkpt lat="45.15883" lon="8.2466121"><ele>291.0</ele><time>2026-04-18T14:36:08.243Z</time></trkpt><trkpt lat="45.1587436" lon="8.2466382"><ele>291.0</ele><time>2026-04-18T14:36:09.242Z</time></trkpt><trkpt lat="45.1586605" lon="8.246646"><ele>291.0</ele><time>2026-04-18T14:36:10.242Z</time></trkpt><trkpt lat="45.1586094" lon="8.246568"><ele>291.0</ele><time>2026-04-18T14:36:11.242Z</time></trkpt><trkpt lat="45.158555" lon="8.2464997"><ele>291.0</ele><time>2026-04-18T14:36:12.242Z</time></trkpt><trkpt lat="45.1585476" lon="8.2463441"><ele>291.0</ele><time>2026-04-18T14:36:13.243Z</time></trkpt><trkpt lat="45.1585359" lon="8.2461694"><ele>291.0</ele><time>2026-04-18T14:36:14.242Z</time></trkpt><trkpt lat="45.1585134" lon="8.2459734"><ele>291.0</ele><time>2026-04-18T14:36:15.242Z</time></trkpt><trkpt lat="45.1585036" lon="8.2457684"><ele>291.0</ele><time>2026-04-18T14:36:16.242Z</time></trkpt><trkpt lat="45.1584931" lon="8.2455818"><ele>292.0</ele><time>2026-04-18T14:36:17.242Z</time></trkpt><trkpt lat="45.1584788" lon="8.2454081"><ele>293.0</ele><time>2026-04-18T14:36:18.243Z</time></trkpt><trkpt lat="45.1584647" lon="8.2452302"><ele>294.0</ele><time>2026-04-18T14:36:19.243Z</time></trkpt><trkpt lat="45.1584432" lon="8.2450684"><ele>295.0</ele><time>2026-04-18T14:36:20.243Z</time></trkpt><trkpt lat="45.1584092" lon="8.2449254"><ele>295.0</ele><time>2026-04-18T14:36:21.242Z</time></trkpt><trkpt lat="45.1583515" lon="8.2448096"><ele>295.0</ele><time>2026-04-18T14:36:22.242Z</time></trkpt><trkpt lat="45.1582689" lon="8.2447178"><ele>295.0</ele><time>2026-04-18T14:36:23.242Z</time></trkpt><trkpt lat="45.1581615" lon="8.2446854"><ele>295.0</ele><time>2026-04-18T14:36:24.242Z</time></trkpt><trkpt lat="45.1580396" lon="8.2446879"><ele>295.0</ele><time>2026-04-18T14:36:25.243Z</time></trkpt><trkpt lat="45.1579126" lon="8.2447089"><ele>294.75</ele><time>2026-04-18T14:36:26.242Z</time></trkpt><trkpt lat="45.1577772" lon="8.2447394"><ele>294.5</ele><time>2026-04-18T14:36:27.242Z</time></trkpt><trkpt lat="45.1576383" lon="8.2447556"><ele>294.25</ele><time>2026-04-18T14:36:28.242Z</time></trkpt><trkpt lat="45.1574997" lon="8.2447812"><ele>294.0</ele><time>2026-04-18T14:36:29.243Z</time></trkpt><trkpt lat="45.1573699" lon="8.2447923"><ele>292.0</ele><time>2026-04-18T14:36:30.242Z</time></trkpt><trkpt lat="45.1572341" lon="8.2448231"><ele>290.0</ele><time>2026-04-18T14:36:31.242Z</time></trkpt><trkpt lat="45.1571142" lon="8.2448492"><ele>288.0</ele><time>2026-04-18T14:36:32.242Z</time></trkpt><trkpt lat="45.1570064" lon="8.2448972"><ele>286.0</ele><time>2026-04-18T14:36:33.242Z</time></trkpt><trkpt lat="45.1569221" lon="8.2449747"><ele>286.0</ele><time>2026-04-18T14:36:34.242Z</time></trkpt><trkpt lat="45.1568558" lon="8.2450803"><ele>286.0</ele><time>2026-04-18T14:36:35.242Z</time></trkpt><trkpt lat="45.1568136" lon="8.245221"><ele>286.0</ele><time>2026-04-18T14:36:36.243Z</time></trkpt><trkpt lat="45.1567871" lon="8.2453558"><ele>286.0</ele><time>2026-04-18T14:36:37.242Z</time></trkpt><trkpt lat="45.1567824" lon="8.2454912"><ele>286.0</ele><time>2026-04-18T14:36:38.242Z</time></trkpt><trkpt lat="45.1568187" lon="8.245607"><ele>285.0</ele><time>2026-04-18T14:36:39.242Z</time></trkpt><trkpt lat="45.156883" lon="8.2456941"><ele>284.0</ele><time>2026-04-18T14:36:40.242Z</time></trkpt><trkpt lat="45.1569719" lon="8.2457584"><ele>283.0</ele><time>2026-04-18T14:36:41.242Z</time></trkpt><trkpt lat="45.157087" lon="8.2458036"><ele>282.0</ele><time>2026-04-18T14:36:42.243Z</time></trkpt><trkpt lat="45.1571901" lon="8.2458579"><ele>281.0</ele><time>2026-04-18T14:36:43.242Z</time></trkpt><trkpt lat="45.1572765" lon="8.2459641"><ele>281.0</ele><time>2026-04-18T14:36:44.242Z</time></trkpt><trkpt lat="45.1573439" lon="8.2461015"><ele>281.0</ele><time>2026-04-18T14:36:45.242Z</time></trkpt><trkpt lat="45.1573776" lon="8.2462665"><ele>281.0</ele><time>2026-04-18T14:36:46.242Z</time></trkpt><trkpt lat="45.157396" lon="8.2464615"><ele>281.0</ele><time>2026-04-18T14:36:47.242Z</time></trkpt><trkpt lat="45.1574189" lon="8.2466668"><ele>279.0</ele><time>2026-04-18T14:36:48.242Z</time></trkpt><trkpt lat="45.1574421" lon="8.2468835"><ele>277.0</ele><time>2026-04-18T14:36:49.243Z</time></trkpt><trkpt lat="45.1574678" lon="8.2471024"><ele>275.0</ele><time>2026-04-18T14:36:50.243Z</time></trkpt><trkpt lat="45.1575115" lon="8.2473209"><ele>273.0</ele><time>2026-04-18T14:36:51.242Z</time></trkpt><trkpt lat="45.157576" lon="8.2475238"><ele>271.0</ele><time>2026-04-18T14:36:52.242Z</time></trkpt><trkpt lat="45.1576483" lon="8.2477059"><ele>269.0</ele><time>2026-04-18T14:36:53.242Z</time></trkpt><trkpt lat="45.1577181" lon="8.2478831"><ele>267.0</ele><time>2026-04-18T14:36:54.242Z</time></trkpt><trkpt lat="45.1577855" lon="8.2480588"><ele>264.75</ele><time>2026-04-18T14:36:55.242Z</time></trkpt><trkpt lat="45.1578361" lon="8.2482439"><ele>262.5</ele><time>2026-04-18T14:36:56.242Z</time></trkpt><trkpt lat="45.1578567" lon="8.2484455"><ele>260.25</ele><time>2026-04-18T14:36:57.242Z</time></trkpt><trkpt lat="45.1578732" lon="8.248646"><ele>258.0</ele><time>2026-04-18T14:36:58.242Z</time></trkpt><trkpt lat="45.1578263" lon="8.2488607"><ele>257.0</ele><time>2026-04-18T14:36:59.242Z</time></trkpt><trkpt lat="45.1577786" lon="8.2490575"><ele>256.0</ele><time>2026-04-18T14:37:00.243Z</time></trkpt><trkpt lat="45.1577176" lon="8.2492779"><ele>255.0</ele><time>2026-04-18T14:37:01.242Z</time></trkpt><trkpt lat="45.157654" lon="8.2494948"><ele>255.0</ele><time>2026-04-18T14:37:02.242Z</time></trkpt><trkpt lat="45.1575872" lon="8.2497201"><ele>255.0</ele><time>2026-04-18T14:37:03.242Z</time></trkpt><trkpt lat="45.1575216" lon="8.2499444"><ele>255.0</ele><time>2026-04-18T14:37:04.243Z</time></trkpt><trkpt lat="45.1574506" lon="8.2501814"><ele>254.66666666666669</ele><time>2026-04-18T14:37:05.243Z</time></trkpt><trkpt lat="45.1573882" lon="8.2504192"><ele>254.33333333333334</ele><time>2026-04-18T14:37:06.242Z</time></trkpt><trkpt lat="45.1573222" lon="8.2506466"><ele>254.0</ele><time>2026-04-18T14:37:07.242Z</time></trkpt><trkpt lat="45.1572611" lon="8.2508718"><ele>249.0</ele><time>2026-04-18T14:37:08.242Z</time></trkpt><trkpt lat="45.157197" lon="8.2510753"><ele>244.0</ele><time>2026-04-18T14:37:09.242Z</time></trkpt><trkpt lat="45.157155" lon="8.2512887"><ele>239.0</ele><time>2026-04-18T14:37:10.242Z</time></trkpt><trkpt lat="45.157118" lon="8.2514825"><ele>239.0</ele><time>2026-04-18T14:37:11.243Z</time></trkpt><trkpt lat="45.1570895" lon="8.2516685"><ele>239.0</ele><time>2026-04-18T14:37:12.243Z</time></trkpt><trkpt lat="45.1570692" lon="8.2518463"><ele>239.0</ele><time>2026-04-18T14:37:13.243Z</time></trkpt><trkpt lat="45.1570471" lon="8.2520029"><ele>239.0</ele><time>2026-04-18T14:37:14.243Z</time></trkpt><trkpt lat="45.1570159" lon="8.2521484"><ele>239.0</ele><time>2026-04-18T14:37:15.242Z</time></trkpt><trkpt lat="45.1569706" lon="8.2522727"><ele>239.0</ele><time>2026-04-18T14:37:16.242Z</time></trkpt><trkpt lat="45.1568437" lon="8.2523731"><ele>239.0</ele><time>2026-04-18T14:37:17.242Z</time></trkpt><trkpt lat="45.1567443" lon="8.2524785"><ele>239.0</ele><time>2026-04-18T14:37:18.243Z</time></trkpt><trkpt lat="45.1566344" lon="8.252609"><ele>236.75</ele><time>2026-04-18T14:37:19.242Z</time></trkpt><trkpt lat="45.1565069" lon="8.252741"><ele>234.5</ele><time>2026-04-18T14:37:20.242Z</time></trkpt><trkpt lat="45.1563995" lon="8.2528459"><ele>232.25</ele><time>2026-04-18T14:37:21.242Z</time></trkpt><trkpt lat="45.156316" lon="8.252998"><ele>230.0</ele><time>2026-04-18T14:37:22.242Z</time></trkpt><trkpt lat="45.1562432" lon="8.2531621"><ele>230.0</ele><time>2026-04-18T14:37:23.242Z</time></trkpt><trkpt lat="45.1561793" lon="8.2533063"><ele>230.0</ele><time>2026-04-18T14:37:24.242Z</time></trkpt><trkpt lat="45.1561232" lon="8.2534475"><ele>230.0</ele><time>2026-04-18T14:37:25.243Z</time></trkpt><trkpt lat="45.1560978" lon="8.2535806"><ele>230.0</ele><time>2026-04-18T14:37:26.242Z</time></trkpt><trkpt lat="45.1560995" lon="8.2537133"><ele>230.0</ele><time>2026-04-18T14:37:27.242Z</time></trkpt><trkpt lat="45.1561198" lon="8.2538366"><ele>230.00000000000003</ele><time>2026-04-18T14:37:28.242Z</time></trkpt><trkpt lat="45.1561465" lon="8.2539429"><ele>230.0</ele><time>2026-04-18T14:37:29.243Z</time></trkpt><trkpt lat="45.1561576" lon="8.2540536"><ele>230.0</ele><time>2026-04-18T14:37:30.242Z</time></trkpt><trkpt lat="45.1561314" lon="8.2541606"><ele>230.0</ele><time>2026-04-18T14:37:31.243Z</time></trkpt><trkpt lat="45.1560833" lon="8.2542587"><ele>230.00000000000003</ele><time>2026-04-18T14:37:32.242Z</time></trkpt><trkpt lat="45.1560264" lon="8.2543396"><ele>230.0</ele><time>2026-04-18T14:37:33.243Z</time></trkpt><trkpt lat="45.1559683" lon="8.25443"><ele>230.0</ele><time>2026-04-18T14:37:34.242Z</time></trkpt><trkpt lat="45.1559199" lon="8.2545348"><ele>230.0</ele><time>2026-04-18T14:37:35.242Z</time></trkpt><trkpt lat="45.155884" lon="8.254647"><ele>230.0</ele><time>2026-04-18T14:37:36.242Z</time></trkpt><trkpt lat="45.1558734" lon="8.2548134"><ele>230.0</ele><time>2026-04-18T14:37:37.243Z</time></trkpt><trkpt lat="45.1558789" lon="8.2550001"><ele>230.0</ele><time>2026-04-18T14:37:38.243Z</time></trkpt><trkpt lat="45.155885" lon="8.2552017"><ele>230.66666666666669</ele><time>2026-04-18T14:37:39.242Z</time></trkpt><trkpt lat="45.1558831" lon="8.2554213"><ele>231.33333333333331</ele><time>2026-04-18T14:37:40.243Z</time></trkpt><trkpt lat="45.1558733" lon="8.2556379"><ele>232.0</ele><time>2026-04-18T14:37:41.243Z</time></trkpt><trkpt lat="45.1558731" lon="8.2558551"><ele>230.33333333333331</ele><time>2026-04-18T14:37:42.242Z</time></trkpt><trkpt lat="45.1558708" lon="8.2560798"><ele>228.66666666666669</ele><time>2026-04-18T14:37:43.242Z</time></trkpt><trkpt lat="45.1558663" lon="8.2562984"><ele>227.0</ele><time>2026-04-18T14:37:44.242Z</time></trkpt><trkpt lat="45.1558659" lon="8.2565159"><ele>225.25</ele><time>2026-04-18T14:37:45.242Z</time></trkpt><trkpt lat="45.1558582" lon="8.2567319"><ele>223.5</ele><time>2026-04-18T14:37:46.242Z</time></trkpt><trkpt lat="45.1558233" lon="8.2569303"><ele>221.75</ele><time>2026-04-18T14:37:47.242Z</time></trkpt><trkpt lat="45.1557786" lon="8.25712"><ele>220.0</ele><time>2026-04-18T14:37:48.242Z</time></trkpt><trkpt lat="45.155691" lon="8.2573123"><ele>220.0</ele><time>2026-04-18T14:37:49.242Z</time></trkpt><trkpt lat="45.1556052" lon="8.2574808"><ele>220.0</ele><time>2026-04-18T14:37:50.242Z</time></trkpt><trkpt lat="45.1555097" lon="8.2576494"><ele>220.0</ele><time>2026-04-18T14:37:51.242Z</time></trkpt><trkpt lat="45.155414" lon="8.2578074"><ele>220.0</ele><time>2026-04-18T14:37:52.243Z</time></trkpt><trkpt lat="45.1553282" lon="8.2579469"><ele>220.0</ele><time>2026-04-18T14:37:53.242Z</time></trkpt><trkpt lat="45.1552481" lon="8.258085"><ele>220.0</ele><time>2026-04-18T14:37:54.242Z</time></trkpt><trkpt lat="45.1551813" lon="8.2582413"><ele>220.0</ele><time>2026-04-18T14:37:55.243Z</time></trkpt><trkpt lat="45.1551064" lon="8.2583928"><ele>220.0</ele><time>2026-04-18T14:37:56.242Z</time></trkpt><trkpt lat="45.15502" lon="8.2585539"><ele>220.5</ele><time>2026-04-18T14:37:57.242Z</time></trkpt><trkpt lat="45.1549355" lon="8.2587156"><ele>221.0</ele><time>2026-04-18T14:37:58.243Z</time></trkpt><trkpt lat="45.154856" lon="8.2588737"><ele>221.5</ele><time>2026-04-18T14:37:59.242Z</time></trkpt><trkpt lat="45.1547764" lon="8.2590383"><ele>222.0</ele><time>2026-04-18T14:38:00.242Z</time></trkpt><trkpt lat="45.1546899" lon="8.2591803"><ele>220.25</ele><time>2026-04-18T14:38:01.243Z</time></trkpt><trkpt lat="45.1545908" lon="8.2593077"><ele>218.5</ele><time>2026-04-18T14:38:02.242Z</time></trkpt><trkpt lat="45.1544855" lon="8.2594196"><ele>216.75</ele><time>2026-04-18T14:38:03.242Z</time></trkpt><trkpt lat="45.1543867" lon="8.2595261"><ele>215.0</ele><time>2026-04-18T14:38:04.243Z</time></trkpt><trkpt lat="45.1542789" lon="8.2595989"><ele>215.0</ele><time>2026-04-18T14:38:05.242Z</time></trkpt><trkpt lat="45.1542004" lon="8.2596652"><ele>215.0</ele><time>2026-04-18T14:38:06.242Z</time></trkpt><trkpt lat="45.1541571" lon="8.2597517"><ele>215.0</ele><time>2026-04-18T14:38:07.242Z</time></trkpt><trkpt lat="45.1541336" lon="8.2598741"><ele>215.0</ele><time>2026-04-18T14:38:08.243Z</time></trkpt><trkpt lat="45.154146" lon="8.2600157"><ele>215.0</ele><time>2026-04-18T14:38:09.242Z</time></trkpt><trkpt lat="45.1541914" lon="8.2601602"><ele>216.8</ele><time>2026-04-18T14:38:10.242Z</time></trkpt><trkpt lat="45.1542657" lon="8.2602763"><ele>218.6</ele><time>2026-04-18T14:38:11.242Z</time></trkpt><trkpt lat="45.1543697" lon="8.2603599"><ele>220.39999999999998</ele><time>2026-04-18T14:38:12.242Z</time></trkpt><trkpt lat="45.15448" lon="8.260427"><ele>222.2</ele><time>2026-04-18T14:38:13.242Z</time></trkpt><trkpt lat="45.1545755" lon="8.260462"><ele>224.0</ele><time>2026-04-18T14:38:14.242Z</time></trkpt><trkpt lat="45.1546585" lon="8.2604667"><ele>224.0</ele><time>2026-04-18T14:38:15.242Z</time></trkpt><trkpt lat="45.1547305" lon="8.2604481"><ele>223.99999999999997</ele><time>2026-04-18T14:38:16.243Z</time></trkpt><trkpt lat="45.1547881" lon="8.2603827"><ele>223.99999999999997</ele><time>2026-04-18T14:38:17.242Z</time></trkpt><trkpt lat="45.15483" lon="8.2602711"><ele>224.0</ele><time>2026-04-18T14:38:18.243Z</time></trkpt><trkpt lat="45.1548549" lon="8.26012"><ele>224.0</ele><time>2026-04-18T14:38:19.242Z</time></trkpt><trkpt lat="45.1548556" lon="8.2599534"><ele>224.0</ele><time>2026-04-18T14:38:20.242Z</time></trkpt><trkpt lat="45.1548568" lon="8.2597976"><ele>224.0</ele><time>2026-04-18T14:38:21.243Z</time></trkpt><trkpt lat="45.1548899" lon="8.2596515"><ele>224.0</ele><time>2026-04-18T14:38:22.242Z</time></trkpt><trkpt lat="45.1549561" lon="8.2595048"><ele>224.0</ele><time>2026-04-18T14:38:23.242Z</time></trkpt><trkpt lat="45.1550458" lon="8.259386"><ele>226.5</ele><time>2026-04-18T14:38:24.242Z</time></trkpt><trkpt lat="45.1551418" lon="8.2592639"><ele>229.0</ele><time>2026-04-18T14:38:25.242Z</time></trkpt><trkpt lat="45.1552421" lon="8.2591426"><ele>231.5</ele><time>2026-04-18T14:38:26.242Z</time></trkpt><trkpt lat="45.1553365" lon="8.259041"><ele>234.0</ele><time>2026-04-18T14:38:27.242Z</time></trkpt><trkpt lat="45.1554161" lon="8.2589552"><ele>233.6</ele><time>2026-04-18T14:38:28.242Z</time></trkpt><trkpt lat="45.1555003" lon="8.2588799"><ele>233.2</ele><time>2026-04-18T14:38:29.243Z</time></trkpt><trkpt lat="45.1555928" lon="8.2588148"><ele>232.79999999999998</ele><time>2026-04-18T14:38:30.242Z</time></trkpt><trkpt lat="45.155686" lon="8.2587773"><ele>232.39999999999998</ele><time>2026-04-18T14:38:31.242Z</time></trkpt><trkpt lat="45.1557767" lon="8.2587746"><ele>232.0</ele><time>2026-04-18T14:38:32.242Z</time></trkpt><trkpt lat="45.1558933" lon="8.2588129"><ele>232.0</ele><time>2026-04-18T14:38:33.242Z</time></trkpt><trkpt lat="45.1560069" lon="8.2588544"><ele>232.0</ele><time>2026-04-18T14:38:34.242Z</time></trkpt><trkpt lat="45.1561343" lon="8.2589025"><ele>232.0</ele><time>2026-04-18T14:38:35.242Z</time></trkpt><trkpt lat="45.1562465" lon="8.2589719"><ele>232.0</ele><time>2026-04-18T14:38:36.242Z</time></trkpt><trkpt lat="45.156356" lon="8.2590401"><ele>234.99999999999997</ele><time>2026-04-18T14:38:37.242Z</time></trkpt><trkpt lat="45.1564165" lon="8.2591166"><ele>238.0</ele><time>2026-04-18T14:38:38.243Z</time></trkpt><trkpt lat="45.1564784" lon="8.2591919"><ele>241.0</ele><time>2026-04-18T14:38:39.242Z</time></trkpt><trkpt lat="45.156524" lon="8.2592716"><ele>244.0</ele><time>2026-04-18T14:38:40.243Z</time></trkpt><trkpt lat="45.1565544" lon="8.2593841"><ele>246.99999999999997</ele><time>2026-04-18T14:38:41.242Z</time></trkpt><trkpt lat="45.1565671" lon="8.2595071"><ele>250.0</ele><time>2026-04-18T14:38:42.243Z</time></trkpt><trkpt lat="45.156583" lon="8.2596514"><ele>252.75</ele><time>2026-04-18T14:38:43.243Z</time></trkpt><trkpt lat="45.1566025" lon="8.2598129"><ele>255.5</ele><time>2026-04-18T14:38:44.242Z</time></trkpt><trkpt lat="45.1566224" lon="8.2599899"><ele>258.25</ele><time>2026-04-18T14:38:45.243Z</time></trkpt><trkpt lat="45.1566449" lon="8.2601656"><ele>261.0</ele><time>2026-04-18T14:38:46.243Z</time></trkpt><trkpt lat="45.1566761" lon="8.2603482"><ele>261.0</ele><time>2026-04-18T14:38:47.242Z</time></trkpt><trkpt lat="45.1567081" lon="8.2605314"><ele>261.0</ele><time>2026-04-18T14:38:48.242Z</time></trkpt><trkpt lat="45.1567393" lon="8.2607224"><ele>261.0</ele><time>2026-04-18T14:38:49.243Z</time></trkpt><trkpt lat="45.1567675" lon="8.2609179"><ele>261.0</ele><time>2026-04-18T14:38:50.243Z</time></trkpt><trkpt lat="45.1567924" lon="8.2610945"><ele>261.0</ele><time>2026-04-18T14:38:51.242Z</time></trkpt><trkpt lat="45.1568139" lon="8.2612538"><ele>261.0</ele><time>2026-04-18T14:38:52.242Z</time></trkpt><trkpt lat="45.1568339" lon="8.261392"><ele>261.0</ele><time>2026-04-18T14:38:53.242Z</time></trkpt><trkpt lat="45.1568512" lon="8.2615229"><ele>261.0</ele><time>2026-04-18T14:38:54.242Z</time></trkpt><trkpt lat="45.1568688" lon="8.2616423"><ele>261.0</ele><time>2026-04-18T14:38:55.242Z</time></trkpt><trkpt lat="45.1568839" lon="8.2617605"><ele>261.0</ele><time>2026-04-18T14:38:56.242Z</time></trkpt><trkpt lat="45.1568967" lon="8.2618855"><ele>261.0</ele><time>2026-04-18T14:38:57.243Z</time></trkpt><trkpt lat="45.1569165" lon="8.2620059"><ele>261.0</ele><time>2026-04-18T14:38:58.242Z</time></trkpt><trkpt lat="45.1569507" lon="8.2621141"><ele>261.0</ele><time>2026-04-18T14:38:59.242Z</time></trkpt><trkpt lat="45.1570261" lon="8.2622071"><ele>261.0</ele><time>2026-04-18T14:39:00.243Z</time></trkpt><trkpt lat="45.157125" lon="8.2622864"><ele>261.0</ele><time>2026-04-18T14:39:01.243Z</time></trkpt><trkpt lat="45.1572276" lon="8.2623404"><ele>261.0</ele><time>2026-04-18T14:39:02.243Z</time></trkpt><trkpt lat="45.1573216" lon="8.2624162"><ele>261.0</ele><time>2026-04-18T14:39:03.243Z</time></trkpt><trkpt lat="45.1574123" lon="8.2625052"><ele>261.0</ele><time>2026-04-18T14:39:04.243Z</time></trkpt><trkpt lat="45.1574962" lon="8.2626181"><ele>261.0</ele><time>2026-04-18T14:39:05.242Z</time></trkpt><trkpt lat="45.1575672" lon="8.2627523"><ele>260.75</ele><time>2026-04-18T14:39:06.243Z</time></trkpt><trkpt lat="45.1576202" lon="8.262907"><ele>260.5</ele><time>2026-04-18T14:39:07.242Z</time></trkpt><trkpt lat="45.1576822" lon="8.2630706"><ele>260.25</ele><time>2026-04-18T14:39:08.242Z</time></trkpt><trkpt lat="45.1577419" lon="8.263226"><ele>260.0</ele><time>2026-04-18T14:39:09.242Z</time></trkpt><trkpt lat="45.1578001" lon="8.2633809"><ele>258.25</ele><time>2026-04-18T14:39:10.242Z</time></trkpt><trkpt lat="45.1578614" lon="8.2635315"><ele>256.5</ele><time>2026-04-18T14:39:11.242Z</time></trkpt><trkpt lat="45.1579325" lon="8.2636696"><ele>254.75</ele><time>2026-04-18T14:39:12.242Z</time></trkpt><trkpt lat="45.1580241" lon="8.2637946"><ele>253.0</ele><time>2026-04-18T14:39:13.242Z</time></trkpt><trkpt lat="45.1581298" lon="8.2639074"><ele>253.0</ele><time>2026-04-18T14:39:14.242Z</time></trkpt><trkpt lat="45.1582522" lon="8.2640175"><ele>253.0</ele><time>2026-04-18T14:39:15.242Z</time></trkpt><trkpt lat="45.1583571" lon="8.2641183"><ele>253.0</ele><time>2026-04-18T14:39:16.242Z</time></trkpt><trkpt lat="45.1584554" lon="8.2642165"><ele>253.0</ele><time>2026-04-18T14:39:17.243Z</time></trkpt><trkpt lat="45.158542" lon="8.264312"><ele>253.0</ele><time>2026-04-18T14:39:18.243Z</time></trkpt><trkpt lat="45.1586154" lon="8.2644402"><ele>253.0</ele><time>2026-04-18T14:39:19.242Z</time></trkpt><trkpt lat="45.1586639" lon="8.264589"><ele>253.0</ele><time>2026-04-18T14:39:20.242Z</time></trkpt><trkpt lat="45.1586773" lon="8.2647382"><ele>253.0</ele><time>2026-04-18T14:39:21.243Z</time></trkpt><trkpt lat="45.1586601" lon="8.2649047"><ele>251.75</ele><time>2026-04-18T14:39:22.243Z</time></trkpt><trkpt lat="45.1586316" lon="8.2650729"><ele>250.5</ele><time>2026-04-18T14:39:23.242Z</time></trkpt><trkpt lat="45.1586045" lon="8.2652352"><ele>249.25</ele><time>2026-04-18T14:39:24.242Z</time></trkpt><trkpt lat="45.158577" lon="8.2654149"><ele>248.0</ele><time>2026-04-18T14:39:25.243Z</time></trkpt><trkpt lat="45.1585559" lon="8.2655793"><ele>248.2</ele><time>2026-04-18T14:39:26.242Z</time></trkpt><trkpt lat="45.1585351" lon="8.2657262"><ele>248.4</ele><time>2026-04-18T14:39:27.242Z</time></trkpt><trkpt lat="45.1585123" lon="8.2658762"><ele>248.59999999999997</ele><time>2026-04-18T14:39:28.243Z</time></trkpt><trkpt lat="45.1584892" lon="8.2660283"><ele>248.79999999999998</ele><time>2026-04-18T14:39:29.242Z</time></trkpt><trkpt lat="45.1584594" lon="8.2661838"><ele>249.0</ele><time>2026-04-18T14:39:30.242Z</time></trkpt><trkpt lat="45.1584139" lon="8.2663364"><ele>250.5</ele><time>2026-04-18T14:39:31.242Z</time></trkpt><trkpt lat="45.1583613" lon="8.2664819"><ele>252.0</ele><time>2026-04-18T14:39:32.242Z</time></trkpt><trkpt lat="45.1582974" lon="8.266625"><ele>253.5</ele><time>2026-04-18T14:39:33.242Z</time></trkpt><trkpt lat="45.1582139" lon="8.2667627"><ele>255.0</ele><time>2026-04-18T14:39:34.242Z</time></trkpt><trkpt lat="45.1581194" lon="8.2668909"><ele>253.5</ele><time>2026-04-18T14:39:35.243Z</time></trkpt><trkpt lat="45.1580514" lon="8.2670038"><ele>252.0</ele><time>2026-04-18T14:39:36.242Z</time></trkpt><trkpt lat="45.157952" lon="8.2671114"><ele>250.5</ele><time>2026-04-18T14:39:37.243Z</time></trkpt><trkpt lat="45.1578685" lon="8.2672224"><ele>249.0</ele><time>2026-04-18T14:39:38.243Z</time></trkpt><trkpt lat="45.1578011" lon="8.2673448"><ele>249.0</ele><time>2026-04-18T14:39:39.242Z</time></trkpt><trkpt lat="45.1577618" lon="8.2674814"><ele>248.99999999999997</ele><time>2026-04-18T14:39:40.242Z</time></trkpt><trkpt lat="45.1577498" lon="8.2676285"><ele>248.99999999999997</ele><time>2026-04-18T14:39:41.242Z</time></trkpt><trkpt lat="45.1577447" lon="8.267775"><ele>249.0</ele><time>2026-04-18T14:39:42.242Z</time></trkpt><trkpt lat="45.1577342" lon="8.2679236"><ele>249.0</ele><time>2026-04-18T14:39:43.242Z</time></trkpt><trkpt lat="45.1577258" lon="8.2680402"><ele>249.5</ele><time>2026-04-18T14:39:44.242Z</time></trkpt><trkpt lat="45.1577244" lon="8.2681562"><ele>250.0</ele><time>2026-04-18T14:39:45.242Z</time></trkpt><trkpt lat="45.1577214" lon="8.2682783"><ele>250.5</ele><time>2026-04-18T14:39:46.242Z</time></trkpt><trkpt lat="45.1577174" lon="8.268406"><ele>251.0</ele><time>2026-04-18T14:39:47.242Z</time></trkpt><trkpt lat="45.1577147" lon="8.2685237"><ele>251.5</ele><time>2026-04-18T14:39:48.243Z</time></trkpt><trkpt lat="45.1577282" lon="8.2686426"><ele>252.0</ele><time>2026-04-18T14:39:49.242Z</time></trkpt><trkpt lat="45.1577724" lon="8.2687528"><ele>252.0</ele><time>2026-04-18T14:39:50.242Z</time></trkpt><trkpt lat="45.1578111" lon="8.268847"><ele>252.0</ele><time>2026-04-18T14:39:51.242Z</time></trkpt><trkpt lat="45.1578423" lon="8.268927"><ele>252.0</ele><time>2026-04-18T14:39:52.242Z</time></trkpt><trkpt lat="45.1579062" lon="8.2689786"><ele>252.0</ele><time>2026-04-18T14:39:53.242Z</time></trkpt><trkpt lat="45.1579809" lon="8.2690047"><ele>252.0</ele><time>2026-04-18T14:39:54.242Z</time></trkpt><trkpt lat="45.1580667" lon="8.2690206"><ele>252.0</ele><time>2026-04-18T14:39:55.242Z</time></trkpt><trkpt lat="45.1581716" lon="8.2690362"><ele>250.8</ele><time>2026-04-18T14:39:56.242Z</time></trkpt><trkpt lat="45.1582785" lon="8.2690393"><ele>249.6</ele><time>2026-04-18T14:39:57.242Z</time></trkpt><trkpt lat="45.15839" lon="8.2690762"><ele>248.40000000000003</ele><time>2026-04-18T14:39:58.242Z</time></trkpt><trkpt lat="45.1584957" lon="8.2691184"><ele>247.20000000000002</ele><time>2026-04-18T14:39:59.242Z</time></trkpt><trkpt lat="45.1585986" lon="8.2691629"><ele>246.0</ele><time>2026-04-18T14:40:00.242Z</time></trkpt><trkpt lat="45.1586906" lon="8.2692049"><ele>246.0</ele><time>2026-04-18T14:40:01.242Z</time></trkpt><trkpt lat="45.1587772" lon="8.269267"><ele>246.00000000000003</ele><time>2026-04-18T14:40:02.243Z</time></trkpt><trkpt lat="45.1588448" lon="8.2693584"><ele>246.00000000000003</ele><time>2026-04-18T14:40:03.242Z</time></trkpt><trkpt lat="45.158891" lon="8.2694822"><ele>246.0</ele><time>2026-04-18T14:40:04.243Z</time></trkpt><trkpt lat="45.1589067" lon="8.2696341"><ele>246.0</ele><time>2026-04-18T14:40:05.242Z</time></trkpt><trkpt lat="45.1589032" lon="8.2697986"><ele>243.75</ele><time>2026-04-18T14:40:06.242Z</time></trkpt><trkpt lat="45.1589055" lon="8.2699747"><ele>241.5</ele><time>2026-04-18T14:40:07.242Z</time></trkpt><trkpt lat="45.1589065" lon="8.2701542"><ele>239.25</ele><time>2026-04-18T14:40:08.242Z</time></trkpt><trkpt lat="45.1589091" lon="8.2703369"><ele>237.0</ele><time>2026-04-18T14:40:09.242Z</time></trkpt><trkpt lat="45.1589163" lon="8.2705246"><ele>237.0</ele><time>2026-04-18T14:40:10.243Z</time></trkpt><trkpt lat="45.1589191" lon="8.270722"><ele>237.0</ele><time>2026-04-18T14:40:11.242Z</time></trkpt><trkpt lat="45.1589227" lon="8.2709354"><ele>237.0</ele><time>2026-04-18T14:40:12.242Z</time></trkpt><trkpt lat="45.1589236" lon="8.2711446"><ele>237.0</ele><time>2026-04-18T14:40:13.242Z</time></trkpt><trkpt lat="45.158922" lon="8.2713534"><ele>238.5</ele><time>2026-04-18T14:40:14.242Z</time></trkpt><trkpt lat="45.1589202" lon="8.2715616"><ele>240.0</ele><time>2026-04-18T14:40:15.242Z</time></trkpt><trkpt lat="45.158923" lon="8.2717702"><ele>241.5</ele><time>2026-04-18T14:40:16.242Z</time></trkpt><trkpt lat="45.1589228" lon="8.2719725"><ele>243.0</ele><time>2026-04-18T14:40:17.242Z</time></trkpt><trkpt lat="45.1589173" lon="8.2721684"><ele>244.0</ele><time>2026-04-18T14:40:18.242Z</time></trkpt><trkpt lat="45.1589081" lon="8.2723437"><ele>245.0</ele><time>2026-04-18T14:40:19.242Z</time></trkpt><trkpt lat="45.1588857" lon="8.2725157"><ele>246.0</ele><time>2026-04-18T14:40:20.242Z</time></trkpt><trkpt lat="45.1588567" lon="8.2726297"><ele>247.0</ele><time>2026-04-18T14:40:21.243Z</time></trkpt><trkpt lat="45.1588187" lon="8.2727598"><ele>248.0</ele><time>2026-04-18T14:40:23.242Z</time></trkpt><trkpt lat="45.1587992" lon="8.2728607"><ele>248.00000000000003</ele><time>2026-04-18T14:40:57.242Z</time></trkpt><trkpt lat="45.1587802" lon="8.2730222"><ele>248.0</ele><time>2026-04-18T14:40:59.242Z</time></trkpt><trkpt lat="45.1587693" lon="8.2731248"><ele>248.0</ele><time>2026-04-18T14:41:00.242Z</time></trkpt><trkpt lat="45.1587569" lon="8.2732278"><ele>248.0</ele><time>2026-04-18T14:41:01.242Z</time></trkpt><trkpt lat="45.1587649" lon="8.273339"><ele>248.00000000000003</ele><time>2026-04-18T14:41:02.243Z</time></trkpt><trkpt lat="45.1587894" lon="8.2734591"><ele>248.0</ele><time>2026-04-18T14:41:03.243Z</time></trkpt><trkpt lat="45.1588353" lon="8.273566"><ele>249.00000000000003</ele><time>2026-04-18T14:41:04.242Z</time></trkpt><trkpt lat="45.1588975" lon="8.273643"><ele>250.0</ele><time>2026-04-18T14:41:05.242Z</time></trkpt><trkpt lat="45.1589799" lon="8.2736866"><ele>251.0</ele><time>2026-04-18T14:41:06.243Z</time></trkpt><trkpt lat="45.1590661" lon="8.2737076"><ele>252.0</ele><time>2026-04-18T14:41:07.242Z</time></trkpt><trkpt lat="45.159158" lon="8.2737001"><ele>253.00000000000003</ele><time>2026-04-18T14:41:08.242Z</time></trkpt><trkpt lat="45.1592557" lon="8.2736765"><ele>254.0</ele><time>2026-04-18T14:41:09.243Z</time></trkpt><trkpt lat="45.1593576" lon="8.2736272"><ele>256.25</ele><time>2026-04-18T14:41:10.243Z</time></trkpt><trkpt lat="45.1594577" lon="8.2735655"><ele>258.5</ele><time>2026-04-18T14:41:11.243Z</time></trkpt><trkpt lat="45.1595662" lon="8.2735056"><ele>260.75</ele><time>2026-04-18T14:41:12.242Z</time></trkpt><trkpt lat="45.1596741" lon="8.2734345"><ele>263.0</ele><time>2026-04-18T14:41:13.242Z</time></trkpt><trkpt lat="45.1597792" lon="8.2733613"><ele>265.5</ele><time>2026-04-18T14:41:14.242Z</time></trkpt><trkpt lat="45.1598737" lon="8.273279"><ele>268.0</ele><time>2026-04-18T14:41:15.243Z</time></trkpt><trkpt lat="45.1599567" lon="8.2731708"><ele>270.5</ele><time>2026-04-18T14:41:16.242Z</time></trkpt><trkpt lat="45.1600257" lon="8.2730394"><ele>273.0</ele><time>2026-04-18T14:41:17.242Z</time></trkpt><trkpt lat="45.1600772" lon="8.2728924"><ele>273.0</ele><time>2026-04-18T14:41:18.243Z</time></trkpt><trkpt lat="45.1601091" lon="8.2727399"><ele>273.0</ele><time>2026-04-18T14:41:19.242Z</time></trkpt><trkpt lat="45.1601139" lon="8.2725822"><ele>273.0</ele><time>2026-04-18T14:41:20.243Z</time></trkpt><trkpt lat="45.1601175" lon="8.2724227"><ele>273.0</ele><time>2026-04-18T14:41:21.242Z</time></trkpt><trkpt lat="45.1601264" lon="8.2722761"><ele>273.0</ele><time>2026-04-18T14:41:22.242Z</time></trkpt><trkpt lat="45.1601517" lon="8.2721623"><ele>273.0</ele><time>2026-04-18T14:41:23.243Z</time></trkpt><trkpt lat="45.1601988" lon="8.2720907"><ele>273.0</ele><time>2026-04-18T14:41:24.242Z</time></trkpt><trkpt lat="45.1602619" lon="8.2720459"><ele>273.0</ele><time>2026-04-18T14:41:25.242Z</time></trkpt><trkpt lat="45.1603244" lon="8.2720097"><ele>273.0</ele><time>2026-04-18T14:41:26.243Z</time></trkpt><trkpt lat="45.1603752" lon="8.2720897"><ele>273.0</ele><time>2026-04-18T14:41:27.242Z</time></trkpt><trkpt lat="45.1604053" lon="8.2721801"><ele>273.0</ele><time>2026-04-18T14:41:28.242Z</time></trkpt><trkpt lat="45.1604423" lon="8.2722915"><ele>273.0</ele><time>2026-04-18T14:41:29.242Z</time></trkpt><trkpt lat="45.1604748" lon="8.272429"><ele>273.0</ele><time>2026-04-18T14:41:30.242Z</time></trkpt><trkpt lat="45.1604504" lon="8.2726155"><ele>273.0</ele><time>2026-04-18T14:41:31.242Z</time></trkpt><trkpt lat="45.1604653" lon="8.2727892"><ele>273.0</ele><time>2026-04-18T14:41:32.243Z</time></trkpt><trkpt lat="45.1604861" lon="8.2729586"><ele>273.0</ele><time>2026-04-18T14:41:33.242Z</time></trkpt><trkpt lat="45.1605067" lon="8.2731086"><ele>274.0</ele><time>2026-04-18T14:41:34.242Z</time></trkpt><trkpt lat="45.1605263" lon="8.2732605"><ele>275.0</ele><time>2026-04-18T14:41:35.243Z</time></trkpt><trkpt lat="45.160564" lon="8.2733964"><ele>276.0</ele><time>2026-04-18T14:41:36.242Z</time></trkpt><trkpt lat="45.1606139" lon="8.2735144"><ele>277.0</ele><time>2026-04-18T14:41:37.243Z</time></trkpt><trkpt lat="45.160684" lon="8.2736093"><ele>278.0</ele><time>2026-04-18T14:41:38.242Z</time></trkpt><trkpt lat="45.1607788" lon="8.2737009"><ele>280.8</ele><time>2026-04-18T14:41:39.243Z</time></trkpt><trkpt lat="45.1608735" lon="8.2738074"><ele>283.6</ele><time>2026-04-18T14:41:40.242Z</time></trkpt><trkpt lat="45.1609766" lon="8.2739136"><ele>286.4</ele><time>2026-04-18T14:41:41.242Z</time></trkpt><trkpt lat="45.16106" lon="8.273965"><ele>289.2</ele><time>2026-04-18T14:41:42.242Z</time></trkpt><trkpt lat="45.1611511" lon="8.2740124"><ele>292.0</ele><time>2026-04-18T14:41:43.243Z</time></trkpt><trkpt lat="45.1612813" lon="8.2740368"><ele>292.0</ele><time>2026-04-18T14:41:44.243Z</time></trkpt><trkpt lat="45.1613866" lon="8.2740644"><ele>292.0</ele><time>2026-04-18T14:41:45.242Z</time></trkpt><trkpt lat="45.1615072" lon="8.2741409"><ele>292.0</ele><time>2026-04-18T14:41:46.242Z</time></trkpt><trkpt lat="45.1616214" lon="8.2742393"><ele>292.0</ele><time>2026-04-18T14:41:47.242Z</time></trkpt><trkpt lat="45.1617321" lon="8.2743457"><ele>293.5</ele><time>2026-04-18T14:41:48.242Z</time></trkpt><trkpt lat="45.1618394" lon="8.2744453"><ele>295.0</ele><time>2026-04-18T14:41:49.242Z</time></trkpt><trkpt lat="45.161956" lon="8.2745356"><ele>296.5</ele><time>2026-04-18T14:41:50.242Z</time></trkpt><trkpt lat="45.162071" lon="8.2746349"><ele>298.0</ele><time>2026-04-18T14:41:51.243Z</time></trkpt><trkpt lat="45.1621831" lon="8.2747411"><ele>300.25</ele><time>2026-04-18T14:41:52.243Z</time></trkpt><trkpt lat="45.1622873" lon="8.2748427"><ele>302.5</ele><time>2026-04-18T14:41:53.242Z</time></trkpt><trkpt lat="45.1623716" lon="8.2749663"><ele>304.75</ele><time>2026-04-18T14:41:54.243Z</time></trkpt><trkpt lat="45.1624157" lon="8.2751206"><ele>307.0</ele><time>2026-04-18T14:41:55.242Z</time></trkpt><trkpt lat="45.162429" lon="8.2752801"><ele>307.0</ele><time>2026-04-18T14:41:56.243Z</time></trkpt><trkpt lat="45.1624137" lon="8.2754708"><ele>307.0</ele><time>2026-04-18T14:41:57.242Z</time></trkpt><trkpt lat="45.1623874" lon="8.2756583"><ele>307.0</ele><time>2026-04-18T14:41:58.242Z</time></trkpt><trkpt lat="45.1623703" lon="8.2758652"><ele>307.0</ele><time>2026-04-18T14:41:59.242Z</time></trkpt><trkpt lat="45.1623505" lon="8.2760777"><ele>305.5</ele><time>2026-04-18T14:42:00.242Z</time></trkpt><trkpt lat="45.1623425" lon="8.2762808"><ele>304.0</ele><time>2026-04-18T14:42:01.243Z</time></trkpt><trkpt lat="45.1623536" lon="8.2764789"><ele>302.5</ele><time>2026-04-18T14:42:02.242Z</time></trkpt><trkpt lat="45.1623649" lon="8.2766614"><ele>301.0</ele><time>2026-04-18T14:42:03.242Z</time></trkpt><trkpt lat="45.1623959" lon="8.2768369"><ele>301.0</ele><time>2026-04-18T14:42:04.243Z</time></trkpt><trkpt lat="45.1624466" lon="8.2769821"><ele>301.0</ele><time>2026-04-18T14:42:05.243Z</time></trkpt><trkpt lat="45.1625291" lon="8.2771226"><ele>301.0</ele><time>2026-04-18T14:42:06.242Z</time></trkpt><trkpt lat="45.1626104" lon="8.2772735"><ele>301.0</ele><time>2026-04-18T14:42:07.243Z</time></trkpt><trkpt lat="45.1626642" lon="8.2774438"><ele>301.75</ele><time>2026-04-18T14:42:08.242Z</time></trkpt><trkpt lat="45.1626938" lon="8.2776242"><ele>302.5</ele><time>2026-04-18T14:42:09.242Z</time></trkpt><trkpt lat="45.1627137" lon="8.2778131"><ele>303.25</ele><time>2026-04-18T14:42:10.242Z</time></trkpt><trkpt lat="45.1627053" lon="8.2780193"><ele>304.0</ele><time>2026-04-18T14:42:11.242Z</time></trkpt><trkpt lat="45.1627094" lon="8.278207"><ele>304.0</ele><time>2026-04-18T14:42:12.243Z</time></trkpt><trkpt lat="45.1626954" lon="8.2784009"><ele>304.0</ele><time>2026-04-18T14:42:13.243Z</time></trkpt><trkpt lat="45.1626624" lon="8.2785771"><ele>304.0</ele><time>2026-04-18T14:42:14.243Z</time></trkpt><trkpt lat="45.1626106" lon="8.2787159"><ele>304.0</ele><time>2026-04-18T14:42:15.242Z</time></trkpt><trkpt lat="45.1625357" lon="8.2788011"><ele>304.0</ele><time>2026-04-18T14:42:16.242Z</time></trkpt><trkpt lat="45.1624086" lon="8.2788883"><ele>304.0</ele><time>2026-04-18T14:42:17.242Z</time></trkpt><trkpt lat="45.1622943" lon="8.2789971"><ele>304.0</ele><time>2026-04-18T14:42:18.242Z</time></trkpt><trkpt lat="45.1622132" lon="8.2791467"><ele>304.0</ele><time>2026-04-18T14:42:19.243Z</time></trkpt><trkpt lat="45.1621511" lon="8.2793162"><ele>304.0</ele><time>2026-04-18T14:42:20.243Z</time></trkpt><trkpt lat="45.1620833" lon="8.2794959"><ele>304.0</ele><time>2026-04-18T14:42:21.242Z</time></trkpt><trkpt lat="45.162013" lon="8.2796825"><ele>304.0</ele><time>2026-04-18T14:42:22.242Z</time></trkpt><trkpt lat="45.16194" lon="8.2798641"><ele>304.0</ele><time>2026-04-18T14:42:23.242Z</time></trkpt><trkpt lat="45.1618633" lon="8.2800606"><ele>304.0</ele><time>2026-04-18T14:42:24.242Z</time></trkpt><trkpt lat="45.1618037" lon="8.2802397"><ele>304.0</ele><time>2026-04-18T14:42:25.242Z</time></trkpt><trkpt lat="45.1617444" lon="8.2804142"><ele>304.0</ele><time>2026-04-18T14:42:26.243Z</time></trkpt><trkpt lat="45.1616753" lon="8.2805745"><ele>304.0</ele><time>2026-04-18T14:42:27.243Z</time></trkpt><trkpt lat="45.1615855" lon="8.2807094"><ele>302.75</ele><time>2026-04-18T14:42:28.242Z</time></trkpt><trkpt lat="45.1614801" lon="8.2808142"><ele>301.5</ele><time>2026-04-18T14:42:29.242Z</time></trkpt><trkpt lat="45.1613573" lon="8.2809071"><ele>300.25</ele><time>2026-04-18T14:42:30.242Z</time></trkpt><trkpt lat="45.1612385" lon="8.2809928"><ele>299.0</ele><time>2026-04-18T14:42:31.242Z</time></trkpt><trkpt lat="45.1611229" lon="8.2810842"><ele>299.0</ele><time>2026-04-18T14:42:32.242Z</time></trkpt><trkpt lat="45.161022" lon="8.2811342"><ele>299.0</ele><time>2026-04-18T14:42:33.242Z</time></trkpt><trkpt lat="45.1609319" lon="8.2811849"><ele>299.0</ele><time>2026-04-18T14:42:34.242Z</time></trkpt><trkpt lat="45.1608483" lon="8.2812417"><ele>299.0</ele><time>2026-04-18T14:42:35.243Z</time></trkpt><trkpt lat="45.1607783" lon="8.2813207"><ele>299.0</ele><time>2026-04-18T14:42:36.243Z</time></trkpt><trkpt lat="45.1607128" lon="8.2814101"><ele>296.5</ele><time>2026-04-18T14:42:37.242Z</time></trkpt><trkpt lat="45.1606854" lon="8.281537"><ele>294.0</ele><time>2026-04-18T14:42:38.243Z</time></trkpt><trkpt lat="45.1606531" lon="8.2816589"><ele>291.5</ele><time>2026-04-18T14:42:39.243Z</time></trkpt><trkpt lat="45.1606292" lon="8.2817661"><ele>289.0</ele><time>2026-04-18T14:42:40.243Z</time></trkpt><trkpt lat="45.1606345" lon="8.2818911"><ele>286.5</ele><time>2026-04-18T14:42:41.243Z</time></trkpt><trkpt lat="45.1606415" lon="8.282006"><ele>284.0</ele><time>2026-04-18T14:42:42.242Z</time></trkpt><trkpt lat="45.1606648" lon="8.2821366"><ele>289.0</ele><time>2026-04-18T14:42:43.242Z</time></trkpt><trkpt lat="45.1608032" lon="8.2822222"><ele>294.0</ele><time>2026-04-18T14:42:45.242Z</time></trkpt><trkpt lat="45.1609164" lon="8.2821676"><ele>299.0</ele><time>2026-04-18T14:42:46.242Z</time></trkpt><trkpt lat="45.1610161" lon="8.2821404"><ele>304.0</ele><time>2026-04-18T14:42:47.242Z</time></trkpt><trkpt lat="45.1611204" lon="8.282115"><ele>304.0</ele><time>2026-04-18T14:42:48.242Z</time></trkpt><trkpt lat="45.1612304" lon="8.2821028"><ele>304.0</ele><time>2026-04-18T14:42:49.242Z</time></trkpt><trkpt lat="45.1613389" lon="8.2821197"><ele>304.0</ele><time>2026-04-18T14:42:50.242Z</time></trkpt><trkpt lat="45.1614546" lon="8.282163"><ele>304.0</ele><time>2026-04-18T14:42:51.243Z</time></trkpt><trkpt lat="45.1615725" lon="8.2822062"><ele>306.5</ele><time>2026-04-18T14:42:52.243Z</time></trkpt><trkpt lat="45.1616861" lon="8.2822335"><ele>309.0</ele><time>2026-04-18T14:42:53.243Z</time></trkpt><trkpt lat="45.1618065" lon="8.2822577"><ele>311.5</ele><time>2026-04-18T14:42:54.243Z</time></trkpt><trkpt lat="45.161919" lon="8.2822931"><ele>314.0</ele><time>2026-04-18T14:42:55.242Z</time></trkpt><trkpt lat="45.1620122" lon="8.2823488"><ele>307.25</ele><time>2026-04-18T14:42:56.243Z</time></trkpt><trkpt lat="45.1620953" lon="8.2824074"><ele>300.5</ele><time>2026-04-18T14:42:57.242Z</time></trkpt><trkpt lat="45.162188" lon="8.2825354"><ele>293.75</ele><time>2026-04-18T14:42:58.242Z</time></trkpt><trkpt lat="45.1622568" lon="8.2826845"><ele>287.0</ele><time>2026-04-18T14:42:59.243Z</time></trkpt><trkpt lat="45.1623217" lon="8.2828286"><ele>284.75</ele><time>2026-04-18T14:43:00.242Z</time></trkpt><trkpt lat="45.1623899" lon="8.2829781"><ele>282.5</ele><time>2026-04-18T14:43:01.242Z</time></trkpt><trkpt lat="45.1624669" lon="8.2830948"><ele>280.25</ele><time>2026-04-18T14:43:02.242Z</time></trkpt><trkpt lat="45.1625134" lon="8.2832308"><ele>278.0</ele><time>2026-04-18T14:43:03.243Z</time></trkpt><trkpt lat="45.1625688" lon="8.2833651"><ele>278.0</ele><time>2026-04-18T14:43:04.242Z</time></trkpt><trkpt lat="45.1626304" lon="8.2834583"><ele>278.0</ele><time>2026-04-18T14:43:05.242Z</time></trkpt><trkpt lat="45.1626669" lon="8.2835727"><ele>278.0</ele><time>2026-04-18T14:43:06.242Z</time></trkpt><trkpt lat="45.1626741" lon="8.2837255"><ele>278.0</ele><time>2026-04-18T14:43:08.242Z</time></trkpt><trkpt lat="45.1625819" lon="8.2837967"><ele>278.0</ele><time>2026-04-18T14:43:10.243Z</time></trkpt><trkpt lat="45.1624655" lon="8.2837018"><ele>278.0</ele><time>2026-04-18T14:43:12.242Z</time></trkpt><trkpt lat="45.1624045" lon="8.2836085"><ele>278.0</ele><time>2026-04-18T14:43:13.243Z</time></trkpt><trkpt lat="45.1623264" lon="8.2835286"><ele>278.0</ele><time>2026-04-18T14:43:14.242Z</time></trkpt><trkpt lat="45.1622472" lon="8.2834863"><ele>278.0</ele><time>2026-04-18T14:43:15.242Z</time></trkpt><trkpt lat="45.1621616" lon="8.2834646"><ele>278.0</ele><time>2026-04-18T14:43:16.242Z</time></trkpt><trkpt lat="45.1620991" lon="8.2834791"><ele>278.0</ele><time>2026-04-18T14:43:17.243Z</time></trkpt><trkpt lat="45.1620397" lon="8.2835336"><ele>275.6666666666667</ele><time>2026-04-18T14:43:18.242Z</time></trkpt><trkpt lat="45.1620136" lon="8.2836441"><ele>273.33333333333337</ele><time>2026-04-18T14:43:19.242Z</time></trkpt><trkpt lat="45.1619948" lon="8.2837592"><ele>271.0</ele><time>2026-04-18T14:43:20.242Z</time></trkpt><trkpt lat="45.1619956" lon="8.2838962"><ele>268.6666666666667</ele><time>2026-04-18T14:43:21.242Z</time></trkpt><trkpt lat="45.1619921" lon="8.2840124"><ele>266.3333333333333</ele><time>2026-04-18T14:43:22.242Z</time></trkpt><trkpt lat="45.1619843" lon="8.2841161"><ele>264.0</ele><time>2026-04-18T14:43:23.243Z</time></trkpt><trkpt lat="45.1619684" lon="8.2842155"><ele>262.5</ele><time>2026-04-18T14:43:24.242Z</time></trkpt><trkpt lat="45.1619288" lon="8.2842961"><ele>261.0</ele><time>2026-04-18T14:43:25.242Z</time></trkpt><trkpt lat="45.1619014" lon="8.2844151"><ele>259.5</ele><time>2026-04-18T14:43:26.242Z</time></trkpt><trkpt lat="45.1618944" lon="8.2845377"><ele>258.0</ele><time>2026-04-18T14:43:27.242Z</time></trkpt><trkpt lat="45.1619014" lon="8.2846796"><ele>256.5</ele><time>2026-04-18T14:43:28.242Z</time></trkpt><trkpt lat="45.161927" lon="8.2848173"><ele>255.0</ele><time>2026-04-18T14:43:29.242Z</time></trkpt><trkpt lat="45.1619624" lon="8.2849672"><ele>253.75</ele><time>2026-04-18T14:43:30.242Z</time></trkpt><trkpt lat="45.1620085" lon="8.2851326"><ele>252.5</ele><time>2026-04-18T14:43:31.243Z</time></trkpt><trkpt lat="45.1620587" lon="8.2852902"><ele>251.25</ele><time>2026-04-18T14:43:32.243Z</time></trkpt><trkpt lat="45.1621056" lon="8.2854352"><ele>250.0</ele><time>2026-04-18T14:43:33.243Z</time></trkpt><trkpt lat="45.1621645" lon="8.2855791"><ele>248.25</ele><time>2026-04-18T14:43:34.243Z</time></trkpt><trkpt lat="45.1622144" lon="8.2857377"><ele>246.5</ele><time>2026-04-18T14:43:35.242Z</time></trkpt><trkpt lat="45.1622578" lon="8.2858984"><ele>244.75</ele><time>2026-04-18T14:43:36.242Z</time></trkpt><trkpt lat="45.1622836" lon="8.2860708"><ele>243.0</ele><time>2026-04-18T14:43:37.243Z</time></trkpt><trkpt lat="45.1623067" lon="8.286247"><ele>243.0</ele><time>2026-04-18T14:43:38.242Z</time></trkpt><trkpt lat="45.1623268" lon="8.2864262"><ele>243.0</ele><time>2026-04-18T14:43:39.242Z</time></trkpt><trkpt lat="45.162334" lon="8.2865971"><ele>243.0</ele><time>2026-04-18T14:43:40.242Z</time></trkpt><trkpt lat="45.1623323" lon="8.286765"><ele>243.0</ele><time>2026-04-18T14:43:41.243Z</time></trkpt><trkpt lat="45.1623233" lon="8.2869184"><ele>241.25</ele><time>2026-04-18T14:43:42.243Z</time></trkpt><trkpt lat="45.1622965" lon="8.2870759"><ele>239.5</ele><time>2026-04-18T14:43:43.242Z</time></trkpt><trkpt lat="45.1622545" lon="8.2872348"><ele>237.75</ele><time>2026-04-18T14:43:44.242Z</time></trkpt><trkpt lat="45.1622123" lon="8.2874044"><ele>236.0</ele><time>2026-04-18T14:43:45.242Z</time></trkpt><trkpt lat="45.1621855" lon="8.287575"><ele>235.75</ele><time>2026-04-18T14:43:46.242Z</time></trkpt><trkpt lat="45.1621486" lon="8.2877369"><ele>235.5</ele><time>2026-04-18T14:43:47.242Z</time></trkpt><trkpt lat="45.162097" lon="8.2879089"><ele>235.25</ele><time>2026-04-18T14:43:48.242Z</time></trkpt><trkpt lat="45.1620419" lon="8.2880801"><ele>235.0</ele><time>2026-04-18T14:43:49.242Z</time></trkpt><trkpt lat="45.1619909" lon="8.2882558"><ele>234.0</ele><time>2026-04-18T14:43:50.242Z</time></trkpt><trkpt lat="45.161929" lon="8.2884331"><ele>233.0</ele><time>2026-04-18T14:43:51.243Z</time></trkpt><trkpt lat="45.1618761" lon="8.2886268"><ele>232.0</ele><time>2026-04-18T14:43:52.242Z</time></trkpt><trkpt lat="45.1618215" lon="8.2888074"><ele>231.0</ele><time>2026-04-18T14:43:53.242Z</time></trkpt><trkpt lat="45.1617602" lon="8.2890058"><ele>230.5</ele><time>2026-04-18T14:43:54.243Z</time></trkpt><trkpt lat="45.1617056" lon="8.2892021"><ele>230.0</ele><time>2026-04-18T14:43:55.242Z</time></trkpt><trkpt lat="45.1616495" lon="8.2893883"><ele>229.5</ele><time>2026-04-18T14:43:56.243Z</time></trkpt><trkpt lat="45.1616015" lon="8.2895863"><ele>229.0</ele><time>2026-04-18T14:43:57.242Z</time></trkpt><trkpt lat="45.1615428" lon="8.2897706"><ele>227.75</ele><time>2026-04-18T14:43:58.242Z</time></trkpt><trkpt lat="45.1614903" lon="8.2899562"><ele>226.5</ele><time>2026-04-18T14:43:59.243Z</time></trkpt><trkpt lat="45.1614343" lon="8.2901064"><ele>225.25</ele><time>2026-04-18T14:44:00.242Z</time></trkpt><trkpt lat="45.1613584" lon="8.2902411"><ele>224.0</ele><time>2026-04-18T14:44:01.242Z</time></trkpt><trkpt lat="45.1612727" lon="8.2903301"><ele>224.0</ele><time>2026-04-18T14:44:02.242Z</time></trkpt><trkpt lat="45.1611709" lon="8.2904124"><ele>224.0</ele><time>2026-04-18T14:44:03.242Z</time></trkpt><trkpt lat="45.1610418" lon="8.2904592"><ele>224.0</ele><time>2026-04-18T14:44:04.242Z</time></trkpt><trkpt lat="45.1609195" lon="8.2905065"><ele>224.0</ele><time>2026-04-18T14:44:05.242Z</time></trkpt><trkpt lat="45.1607972" lon="8.2905568"><ele>223.25</ele><time>2026-04-18T14:44:06.242Z</time></trkpt><trkpt lat="45.1606685" lon="8.2906407"><ele>222.5</ele><time>2026-04-18T14:44:07.242Z</time></trkpt><trkpt lat="45.1605474" lon="8.2907187"><ele>221.75</ele><time>2026-04-18T14:44:08.242Z</time></trkpt><trkpt lat="45.1604275" lon="8.2908226"><ele>221.0</ele><time>2026-04-18T14:44:09.243Z</time></trkpt><trkpt lat="45.1603121" lon="8.2909276"><ele>221.0</ele><time>2026-04-18T14:44:10.242Z</time></trkpt><trkpt lat="45.160212" lon="8.2910327"><ele>221.0</ele><time>2026-04-18T14:44:11.242Z</time></trkpt><trkpt lat="45.1601226" lon="8.2911488"><ele>221.0</ele><time>2026-04-18T14:44:12.242Z</time></trkpt><trkpt lat="45.1600426" lon="8.2912529"><ele>221.0</ele><time>2026-04-18T14:44:13.242Z</time></trkpt><trkpt lat="45.1599797" lon="8.2913549"><ele>221.00000000000003</ele><time>2026-04-18T14:44:14.243Z</time></trkpt><trkpt lat="45.1599198" lon="8.2914551"><ele>221.0</ele><time>2026-04-18T14:44:15.242Z</time></trkpt><trkpt lat="45.1598667" lon="8.291542"><ele>221.0</ele><time>2026-04-18T14:44:16.242Z</time></trkpt><trkpt lat="45.1598028" lon="8.2915924"><ele>221.0</ele><time>2026-04-18T14:44:18.242Z</time></trkpt><trkpt lat="45.1597051" lon="8.2916316"><ele>221.00000000000003</ele><time>2026-04-18T14:44:20.242Z</time></trkpt><trkpt lat="45.1596412" lon="8.2916204"><ele>221.0</ele><time>2026-04-18T14:44:21.242Z</time></trkpt><trkpt lat="45.1595072" lon="8.291626"><ele>220.8</ele><time>2026-04-18T14:44:23.242Z</time></trkpt><trkpt lat="45.1594331" lon="8.2916364"><ele>220.60000000000002</ele><time>2026-04-18T14:44:24.242Z</time></trkpt><trkpt lat="45.1593017" lon="8.2916585"><ele>220.4</ele><time>2026-04-18T14:44:25.243Z</time></trkpt><trkpt lat="45.1591928" lon="8.2916702"><ele>220.2</ele><time>2026-04-18T14:44:26.242Z</time></trkpt><trkpt lat="45.1590639" lon="8.2916903"><ele>220.0</ele><time>2026-04-18T14:44:27.243Z</time></trkpt><trkpt lat="45.1589338" lon="8.291716"><ele>217.75</ele><time>2026-04-18T14:44:28.242Z</time></trkpt><trkpt lat="45.1588053" lon="8.2917396"><ele>215.5</ele><time>2026-04-18T14:44:29.242Z</time></trkpt><trkpt lat="45.1586686" lon="8.2917844"><ele>213.25</ele><time>2026-04-18T14:44:30.243Z</time></trkpt><trkpt lat="45.1585285" lon="8.2918551"><ele>211.0</ele><time>2026-04-18T14:44:31.242Z</time></trkpt><trkpt lat="45.1583873" lon="8.2919275"><ele>211.0</ele><time>2026-04-18T14:44:32.243Z</time></trkpt><trkpt lat="45.1582421" lon="8.2920095"><ele>211.0</ele><time>2026-04-18T14:44:33.242Z</time></trkpt><trkpt lat="45.1580924" lon="8.292078"><ele>211.0</ele><time>2026-04-18T14:44:34.243Z</time></trkpt><trkpt lat="45.1579478" lon="8.292159"><ele>212.33333333333331</ele><time>2026-04-18T14:44:35.243Z</time></trkpt><trkpt lat="45.1578142" lon="8.2922436"><ele>213.66666666666669</ele><time>2026-04-18T14:44:36.242Z</time></trkpt><trkpt lat="45.1576743" lon="8.2923239"><ele>215.0</ele><time>2026-04-18T14:44:37.242Z</time></trkpt><trkpt lat="45.1575349" lon="8.2924234"><ele>215.0</ele><time>2026-04-18T14:44:38.242Z</time></trkpt><trkpt lat="45.1574068" lon="8.2925174"><ele>215.0</ele><time>2026-04-18T14:44:39.242Z</time></trkpt><trkpt lat="45.1572714" lon="8.2926103"><ele>215.0</ele><time>2026-04-18T14:44:40.242Z</time></trkpt><trkpt lat="45.157148" lon="8.2927082"><ele>215.0</ele><time>2026-04-18T14:44:41.242Z</time></trkpt><trkpt lat="45.1570218" lon="8.2928035"><ele>213.25</ele><time>2026-04-18T14:44:42.243Z</time></trkpt><trkpt lat="45.1568886" lon="8.29289"><ele>211.5</ele><time>2026-04-18T14:44:43.242Z</time></trkpt><trkpt lat="45.1567431" lon="8.292945"><ele>209.75</ele><time>2026-04-18T14:44:44.242Z</time></trkpt><trkpt lat="45.1565944" lon="8.2929828"><ele>208.0</ele><time>2026-04-18T14:44:45.243Z</time></trkpt><trkpt lat="45.1564408" lon="8.2930025"><ele>205.33333333333331</ele><time>2026-04-18T14:44:46.242Z</time></trkpt><trkpt lat="45.1562878" lon="8.2930007"><ele>202.66666666666669</ele><time>2026-04-18T14:44:47.242Z</time></trkpt><trkpt lat="45.1561422" lon="8.2929962"><ele>200.0</ele><time>2026-04-18T14:44:48.243Z</time></trkpt><trkpt lat="45.1559863" lon="8.2930001"><ele>200.0</ele><time>2026-04-18T14:44:49.243Z</time></trkpt><trkpt lat="45.1558211" lon="8.2930142"><ele>200.0</ele><time>2026-04-18T14:44:50.242Z</time></trkpt><trkpt lat="45.1556611" lon="8.2930212"><ele>200.0</ele><time>2026-04-18T14:44:51.243Z</time></trkpt><trkpt lat="45.1555039" lon="8.2930257"><ele>199.0</ele><time>2026-04-18T14:44:52.242Z</time></trkpt><trkpt lat="45.1553405" lon="8.2930283"><ele>198.0</ele><time>2026-04-18T14:44:53.242Z</time></trkpt><trkpt lat="45.1551873" lon="8.2930209"><ele>197.0</ele><time>2026-04-18T14:44:54.243Z</time></trkpt><trkpt lat="45.1550333" lon="8.2930063"><ele>197.0</ele><time>2026-04-18T14:44:55.243Z</time></trkpt><trkpt lat="45.154887" lon="8.2929869"><ele>197.0</ele><time>2026-04-18T14:44:56.242Z</time></trkpt><trkpt lat="45.1547473" lon="8.2929466"><ele>197.0</ele><time>2026-04-18T14:44:57.243Z</time></trkpt><trkpt lat="45.154603" lon="8.2929144"><ele>197.0</ele><time>2026-04-18T14:44:58.242Z</time></trkpt><trkpt lat="45.1544617" lon="8.2928907"><ele>196.75</ele><time>2026-04-18T14:44:59.242Z</time></trkpt><trkpt lat="45.1543253" lon="8.2928831"><ele>196.5</ele><time>2026-04-18T14:45:00.243Z</time></trkpt><trkpt lat="45.1541864" lon="8.292903"><ele>196.25</ele><time>2026-04-18T14:45:01.243Z</time></trkpt><trkpt lat="45.1540325" lon="8.2929531"><ele>196.0</ele><time>2026-04-18T14:45:02.242Z</time></trkpt><trkpt lat="45.1539202" lon="8.2930427"><ele>195.25</ele><time>2026-04-18T14:45:03.242Z</time></trkpt><trkpt lat="45.1538173" lon="8.2931665"><ele>194.5</ele><time>2026-04-18T14:45:04.242Z</time></trkpt><trkpt lat="45.1537227" lon="8.2933173"><ele>193.75</ele><time>2026-04-18T14:45:05.243Z</time></trkpt><trkpt lat="45.1536474" lon="8.2934991"><ele>193.0</ele><time>2026-04-18T14:45:06.242Z</time></trkpt><trkpt lat="45.1535946" lon="8.2936973"><ele>193.0</ele><time>2026-04-18T14:45:07.243Z</time></trkpt><trkpt lat="45.1535739" lon="8.2939015"><ele>193.0</ele><time>2026-04-18T14:45:08.243Z</time></trkpt><trkpt lat="45.1535846" lon="8.2941036"><ele>193.0</ele><time>2026-04-18T14:45:09.242Z</time></trkpt><trkpt lat="45.1536219" lon="8.294295"><ele>193.0</ele><time>2026-04-18T14:45:10.242Z</time></trkpt><trkpt lat="45.1536773" lon="8.2944657"><ele>193.0</ele><time>2026-04-18T14:45:11.242Z</time></trkpt><trkpt lat="45.1537679" lon="8.2946231"><ele>193.0</ele><time>2026-04-18T14:45:12.243Z</time></trkpt><trkpt lat="45.1538829" lon="8.2947783"><ele>193.0</ele><time>2026-04-18T14:45:13.243Z</time></trkpt><trkpt lat="45.1540029" lon="8.2949217"><ele>193.75</ele><time>2026-04-18T14:45:14.243Z</time></trkpt><trkpt lat="45.1541178" lon="8.2950632"><ele>194.5</ele><time>2026-04-18T14:45:15.242Z</time></trkpt><trkpt lat="45.1542228" lon="8.2951964"><ele>195.25</ele><time>2026-04-18T14:45:16.242Z</time></trkpt><trkpt lat="45.1543174" lon="8.2953368"><ele>196.0</ele><time>2026-04-18T14:45:17.242Z</time></trkpt><trkpt lat="45.154398" lon="8.2954953"><ele>194.0</ele><time>2026-04-18T14:45:18.243Z</time></trkpt><trkpt lat="45.1544674" lon="8.2956587"><ele>192.0</ele><time>2026-04-18T14:45:19.242Z</time></trkpt><trkpt lat="45.154513" lon="8.295836"><ele>190.0</ele><time>2026-04-18T14:45:20.243Z</time></trkpt><trkpt lat="45.1545403" lon="8.2960216"><ele>188.0</ele><time>2026-04-18T14:45:21.242Z</time></trkpt><trkpt lat="45.1545444" lon="8.2962231"><ele>188.25</ele><time>2026-04-18T14:45:22.242Z</time></trkpt><trkpt lat="45.1545194" lon="8.2964338"><ele>188.5</ele><time>2026-04-18T14:45:23.242Z</time></trkpt><trkpt lat="45.1544752" lon="8.2966247"><ele>188.75</ele><time>2026-04-18T14:45:24.242Z</time></trkpt><trkpt lat="45.1544246" lon="8.2968177"><ele>189.0</ele><time>2026-04-18T14:45:25.242Z</time></trkpt><trkpt lat="45.1543522" lon="8.2970026"><ele>189.0</ele><time>2026-04-18T14:45:26.242Z</time></trkpt><trkpt lat="45.1542662" lon="8.2971631"><ele>189.0</ele><time>2026-04-18T14:45:27.243Z</time></trkpt><trkpt lat="45.1541542" lon="8.2973061"><ele>189.0</ele><time>2026-04-18T14:45:28.243Z</time></trkpt><trkpt lat="45.1540502" lon="8.2974708"><ele>189.0</ele><time>2026-04-18T14:45:29.242Z</time></trkpt><trkpt lat="45.1539484" lon="8.2976296"><ele>186.33333333333334</ele><time>2026-04-18T14:45:30.243Z</time></trkpt><trkpt lat="45.1538452" lon="8.2977927"><ele>183.66666666666669</ele><time>2026-04-18T14:45:31.242Z</time></trkpt><trkpt lat="45.1537215" lon="8.2979165"><ele>181.0</ele><time>2026-04-18T14:45:32.242Z</time></trkpt><trkpt lat="45.1535903" lon="8.2980074"><ele>181.0</ele><time>2026-04-18T14:45:33.243Z</time></trkpt><trkpt lat="45.1534568" lon="8.2980639"><ele>181.0</ele><time>2026-04-18T14:45:34.242Z</time></trkpt><trkpt lat="45.1533112" lon="8.298067"><ele>181.0</ele><time>2026-04-18T14:45:35.242Z</time></trkpt><trkpt lat="45.153166" lon="8.2980384"><ele>181.0</ele><time>2026-04-18T14:45:36.242Z</time></trkpt><trkpt lat="45.153024" lon="8.2979796"><ele>180.0</ele><time>2026-04-18T14:45:37.242Z</time></trkpt><trkpt lat="45.1528841" lon="8.2979035"><ele>179.0</ele><time>2026-04-18T14:45:38.243Z</time></trkpt><trkpt lat="45.1527404" lon="8.2978374"><ele>178.0</ele><time>2026-04-18T14:45:39.242Z</time></trkpt><trkpt lat="45.152587" lon="8.2977558"><ele>178.0</ele><time>2026-04-18T14:45:40.243Z</time></trkpt><trkpt lat="45.1524374" lon="8.2976765"><ele>178.0</ele><time>2026-04-18T14:45:41.242Z</time></trkpt><trkpt lat="45.1522821" lon="8.2975988"><ele>178.0</ele><time>2026-04-18T14:45:42.242Z</time></trkpt><trkpt lat="45.1521358" lon="8.2975355"><ele>178.0</ele><time>2026-04-18T14:45:43.242Z</time></trkpt><trkpt lat="45.1519989" lon="8.2974888"><ele>178.0</ele><time>2026-04-18T14:45:44.242Z</time></trkpt><trkpt lat="45.1518514" lon="8.2974659"><ele>178.0</ele><time>2026-04-18T14:45:45.243Z</time></trkpt><trkpt lat="45.1517061" lon="8.2974706"><ele>178.0</ele><time>2026-04-18T14:45:46.242Z</time></trkpt><trkpt lat="45.1515561" lon="8.2974959"><ele>176.33333333333334</ele><time>2026-04-18T14:45:47.242Z</time></trkpt><trkpt lat="45.1514069" lon="8.2975391"><ele>174.66666666666666</ele><time>2026-04-18T14:45:48.242Z</time></trkpt><trkpt lat="45.1512566" lon="8.2976055"><ele>173.0</ele><time>2026-04-18T14:45:49.243Z</time></trkpt><trkpt lat="45.1511172" lon="8.2977017"><ele>173.0</ele><time>2026-04-18T14:45:50.242Z</time></trkpt><trkpt lat="45.1509851" lon="8.2978244"><ele>173.0</ele><time>2026-04-18T14:45:51.243Z</time></trkpt><trkpt lat="45.1508714" lon="8.2979796"><ele>173.0</ele><time>2026-04-18T14:45:52.242Z</time></trkpt><trkpt lat="45.1507692" lon="8.2981533"><ele>170.0</ele><time>2026-04-18T14:45:53.242Z</time></trkpt><trkpt lat="45.1506732" lon="8.2983398"><ele>167.0</ele><time>2026-04-18T14:45:54.242Z</time></trkpt><trkpt lat="45.1505902" lon="8.2985399"><ele>164.0</ele><time>2026-04-18T14:45:55.243Z</time></trkpt><trkpt lat="45.1505204" lon="8.2987509"><ele>164.33333333333331</ele><time>2026-04-18T14:45:56.243Z</time></trkpt><trkpt lat="45.150458" lon="8.2989603"><ele>164.66666666666666</ele><time>2026-04-18T14:45:57.242Z</time></trkpt><trkpt lat="45.1503949" lon="8.2991785"><ele>165.0</ele><time>2026-04-18T14:45:58.242Z</time></trkpt><trkpt lat="45.1503274" lon="8.2993941"><ele>165.0</ele><time>2026-04-18T14:45:59.243Z</time></trkpt><trkpt lat="45.1502427" lon="8.2995837"><ele>165.0</ele><time>2026-04-18T14:46:00.242Z</time></trkpt><trkpt lat="45.150146" lon="8.2997556"><ele>165.0</ele><time>2026-04-18T14:46:01.242Z</time></trkpt><trkpt lat="45.1500248" lon="8.299906"><ele>163.66666666666666</ele><time>2026-04-18T14:46:02.243Z</time></trkpt><trkpt lat="45.1498901" lon="8.3000342"><ele>162.33333333333331</ele><time>2026-04-18T14:46:03.242Z</time></trkpt><trkpt lat="45.1497435" lon="8.300146"><ele>161.0</ele><time>2026-04-18T14:46:04.243Z</time></trkpt><trkpt lat="45.1496095" lon="8.3002757"><ele>161.0</ele><time>2026-04-18T14:46:05.243Z</time></trkpt><trkpt lat="45.1494825" lon="8.3004269"><ele>161.0</ele><time>2026-04-18T14:46:06.242Z</time></trkpt><trkpt lat="45.149362" lon="8.3005919"><ele>161.0</ele><time>2026-04-18T14:46:07.243Z</time></trkpt><trkpt lat="45.149241" lon="8.3007612"><ele>160.66666666666666</ele><time>2026-04-18T14:46:08.242Z</time></trkpt><trkpt lat="45.1491203" lon="8.3009332"><ele>160.33333333333334</ele><time>2026-04-18T14:46:09.242Z</time></trkpt><trkpt lat="45.1490025" lon="8.3010979"><ele>160.0</ele><time>2026-04-18T14:46:10.242Z</time></trkpt><trkpt lat="45.1488823" lon="8.3012587"><ele>161.33333333333334</ele><time>2026-04-18T14:46:11.243Z</time></trkpt><trkpt lat="45.1487639" lon="8.3014238"><ele>162.66666666666666</ele><time>2026-04-18T14:46:12.242Z</time></trkpt><trkpt lat="45.1486263" lon="8.3015619"><ele>164.0</ele><time>2026-04-18T14:46:13.243Z</time></trkpt><trkpt lat="45.1484789" lon="8.3017009"><ele>164.0</ele><time>2026-04-18T14:46:14.242Z</time></trkpt><trkpt lat="45.1483466" lon="8.3018191"><ele>164.0</ele><time>2026-04-18T14:46:15.242Z</time></trkpt><trkpt lat="45.1482146" lon="8.3019383"><ele>164.0</ele><time>2026-04-18T14:46:16.243Z</time></trkpt><trkpt lat="45.1480856" lon="8.3020466"><ele>163.0</ele><time>2026-04-18T14:46:17.243Z</time></trkpt><trkpt lat="45.1479575" lon="8.302167"><ele>162.0</ele><time>2026-04-18T14:46:18.242Z</time></trkpt><trkpt lat="45.1478255" lon="8.3022884"><ele>161.0</ele><time>2026-04-18T14:46:19.242Z</time></trkpt><trkpt lat="45.1476888" lon="8.3024133"><ele>160.33333333333331</ele><time>2026-04-18T14:46:20.242Z</time></trkpt><trkpt lat="45.147566" lon="8.3025413"><ele>159.66666666666666</ele><time>2026-04-18T14:46:21.242Z</time></trkpt><trkpt lat="45.1474417" lon="8.3026581"><ele>159.0</ele><time>2026-04-18T14:46:22.242Z</time></trkpt><trkpt lat="45.147312" lon="8.302773"><ele>159.0</ele><time>2026-04-18T14:46:23.242Z</time></trkpt><trkpt lat="45.147185" lon="8.3029097"><ele>159.0</ele><time>2026-04-18T14:46:24.242Z</time></trkpt><trkpt lat="45.1470607" lon="8.3030603"><ele>159.0</ele><time>2026-04-18T14:46:25.242Z</time></trkpt><trkpt lat="45.1469331" lon="8.3032353"><ele>159.0</ele><time>2026-04-18T14:46:26.243Z</time></trkpt><trkpt lat="45.1468232" lon="8.3034243"><ele>159.0</ele><time>2026-04-18T14:46:27.242Z</time></trkpt><trkpt lat="45.1467288" lon="8.3036224"><ele>159.0</ele><time>2026-04-18T14:46:28.242Z</time></trkpt><trkpt lat="45.1466286" lon="8.3038225"><ele>157.33333333333334</ele><time>2026-04-18T14:46:29.242Z</time></trkpt><trkpt lat="45.1465371" lon="8.3040217"><ele>155.66666666666669</ele><time>2026-04-18T14:46:30.242Z</time></trkpt><trkpt lat="45.1464485" lon="8.3042315"><ele>154.0</ele><time>2026-04-18T14:46:31.242Z</time></trkpt><trkpt lat="45.1463797" lon="8.3044432"><ele>154.0</ele><time>2026-04-18T14:46:32.242Z</time></trkpt><trkpt lat="45.1463137" lon="8.3046607"><ele>154.0</ele><time>2026-04-18T14:46:33.243Z</time></trkpt><trkpt lat="45.1462532" lon="8.3048793"><ele>154.0</ele><time>2026-04-18T14:46:34.242Z</time></trkpt><trkpt lat="45.1461886" lon="8.3050946"><ele>154.33333333333334</ele><time>2026-04-18T14:46:35.242Z</time></trkpt><trkpt lat="45.1461224" lon="8.3053135"><ele>154.66666666666666</ele><time>2026-04-18T14:46:36.243Z</time></trkpt><trkpt lat="45.1460605" lon="8.3055308"><ele>155.0</ele><time>2026-04-18T14:46:37.242Z</time></trkpt><trkpt lat="45.1459971" lon="8.3057434"><ele>155.0</ele><time>2026-04-18T14:46:38.243Z</time></trkpt><trkpt lat="45.1459306" lon="8.3059606"><ele>155.0</ele><time>2026-04-18T14:46:39.242Z</time></trkpt><trkpt lat="45.1458656" lon="8.3061832"><ele>155.0</ele><time>2026-04-18T14:46:40.242Z</time></trkpt><trkpt lat="45.1458022" lon="8.3063973"><ele>155.33333333333331</ele><time>2026-04-18T14:46:41.242Z</time></trkpt><trkpt lat="45.1457388" lon="8.3066132"><ele>155.66666666666666</ele><time>2026-04-18T14:46:42.242Z</time></trkpt><trkpt lat="45.1456739" lon="8.3068234"><ele>156.0</ele><time>2026-04-18T14:46:43.242Z</time></trkpt><trkpt lat="45.1456165" lon="8.3070331"><ele>155.0</ele><time>2026-04-18T14:46:44.242Z</time></trkpt><trkpt lat="45.1455547" lon="8.3072422"><ele>154.0</ele><time>2026-04-18T14:46:45.242Z</time></trkpt><trkpt lat="45.1454729" lon="8.3074296"><ele>153.0</ele><time>2026-04-18T14:46:46.242Z</time></trkpt><trkpt lat="45.1453764" lon="8.3076052"><ele>153.0</ele><time>2026-04-18T14:46:47.243Z</time></trkpt><trkpt lat="45.1452641" lon="8.3077628"><ele>153.0</ele><time>2026-04-18T14:46:48.242Z</time></trkpt><trkpt lat="45.1451432" lon="8.3079256"><ele>153.0</ele><time>2026-04-18T14:46:49.242Z</time></trkpt><trkpt lat="45.1450188" lon="8.3080808"><ele>153.33333333333334</ele><time>2026-04-18T14:46:50.242Z</time></trkpt><trkpt lat="45.1448988" lon="8.3082352"><ele>153.66666666666669</ele><time>2026-04-18T14:46:51.242Z</time></trkpt><trkpt lat="45.1447772" lon="8.3083847"><ele>154.0</ele><time>2026-04-18T14:46:52.242Z</time></trkpt><trkpt lat="45.1446502" lon="8.308536"><ele>154.66666666666669</ele><time>2026-04-18T14:46:53.243Z</time></trkpt><trkpt lat="45.144522" lon="8.3086832"><ele>155.33333333333334</ele><time>2026-04-18T14:46:54.242Z</time></trkpt><trkpt lat="45.1444006" lon="8.3088344"><ele>156.0</ele><time>2026-04-18T14:46:55.242Z</time></trkpt><trkpt lat="45.1442725" lon="8.3089878"><ele>156.33333333333334</ele><time>2026-04-18T14:46:56.242Z</time></trkpt><trkpt lat="45.1441457" lon="8.3091395"><ele>156.66666666666669</ele><time>2026-04-18T14:46:57.242Z</time></trkpt><trkpt lat="45.1440246" lon="8.3092853"><ele>157.0</ele><time>2026-04-18T14:46:58.242Z</time></trkpt><trkpt lat="45.1439039" lon="8.3094412"><ele>155.33333333333334</ele><time>2026-04-18T14:46:59.242Z</time></trkpt><trkpt lat="45.1437866" lon="8.3095942"><ele>153.66666666666666</ele><time>2026-04-18T14:47:00.242Z</time></trkpt><trkpt lat="45.1436709" lon="8.3097308"><ele>152.0</ele><time>2026-04-18T14:47:01.242Z</time></trkpt><trkpt lat="45.1435488" lon="8.3098797"><ele>152.0</ele><time>2026-04-18T14:47:02.242Z</time></trkpt><trkpt lat="45.1434348" lon="8.3100243"><ele>152.0</ele><time>2026-04-18T14:47:03.243Z</time></trkpt><trkpt lat="45.1433147" lon="8.3101623"><ele>152.0</ele><time>2026-04-18T14:47:04.242Z</time></trkpt><trkpt lat="45.143198" lon="8.3103039"><ele>151.33333333333331</ele><time>2026-04-18T14:47:05.242Z</time></trkpt><trkpt lat="45.1430776" lon="8.3104462"><ele>150.66666666666666</ele><time>2026-04-18T14:47:06.242Z</time></trkpt><trkpt lat="45.1429576" lon="8.310588"><ele>150.0</ele><time>2026-04-18T14:47:07.242Z</time></trkpt><trkpt lat="45.1428509" lon="8.3107314"><ele>149.5</ele><time>2026-04-18T14:47:08.242Z</time></trkpt><trkpt lat="45.1427494" lon="8.3108778"><ele>149.0</ele><time>2026-04-18T14:47:09.242Z</time></trkpt><trkpt lat="45.1426503" lon="8.3110336"><ele>148.5</ele><time>2026-04-18T14:47:10.242Z</time></trkpt><trkpt lat="45.142565" lon="8.3111957"><ele>148.0</ele><time>2026-04-18T14:47:11.242Z</time></trkpt><trkpt lat="45.1424816" lon="8.3113855"><ele>147.0</ele><time>2026-04-18T14:47:12.242Z</time></trkpt><trkpt lat="45.1423981" lon="8.3115863"><ele>146.0</ele><time>2026-04-18T14:47:13.243Z</time></trkpt><trkpt lat="45.1423197" lon="8.3118021"><ele>145.0</ele><time>2026-04-18T14:47:14.243Z</time></trkpt><trkpt lat="45.1422441" lon="8.3120353"><ele>145.33333333333334</ele><time>2026-04-18T14:47:15.242Z</time></trkpt><trkpt lat="45.1421739" lon="8.3122638"><ele>145.66666666666666</ele><time>2026-04-18T14:47:16.242Z</time></trkpt><trkpt lat="45.1420929" lon="8.3125061"><ele>146.0</ele><time>2026-04-18T14:47:17.242Z</time></trkpt><trkpt lat="45.1420104" lon="8.3127335"><ele>146.0</ele><time>2026-04-18T14:47:18.243Z</time></trkpt><trkpt lat="45.1419265" lon="8.3129585"><ele>146.0</ele><time>2026-04-18T14:47:19.242Z</time></trkpt><trkpt lat="45.1418438" lon="8.3131831"><ele>146.0</ele><time>2026-04-18T14:47:20.242Z</time></trkpt><trkpt lat="45.1417618" lon="8.3133996"><ele>146.0</ele><time>2026-04-18T14:47:21.242Z</time></trkpt><trkpt lat="45.1416796" lon="8.3136106"><ele>146.0</ele><time>2026-04-18T14:47:22.243Z</time></trkpt><trkpt lat="45.1415994" lon="8.3138256"><ele>146.0</ele><time>2026-04-18T14:47:23.242Z</time></trkpt><trkpt lat="45.1415228" lon="8.3140359"><ele>146.33333333333331</ele><time>2026-04-18T14:47:24.243Z</time></trkpt><trkpt lat="45.141449" lon="8.3142472"><ele>146.66666666666666</ele><time>2026-04-18T14:47:25.243Z</time></trkpt><trkpt lat="45.1413738" lon="8.3144522"><ele>147.0</ele><time>2026-04-18T14:47:26.243Z</time></trkpt><trkpt lat="45.1413052" lon="8.3146679"><ele>146.66666666666666</ele><time>2026-04-18T14:47:27.242Z</time></trkpt><trkpt lat="45.1412312" lon="8.3148716"><ele>146.33333333333331</ele><time>2026-04-18T14:47:28.242Z</time></trkpt><trkpt lat="45.1411629" lon="8.3150777"><ele>146.0</ele><time>2026-04-18T14:47:29.243Z</time></trkpt><trkpt lat="45.1410884" lon="8.3152835"><ele>146.0</ele><time>2026-04-18T14:47:30.242Z</time></trkpt><trkpt lat="45.1410189" lon="8.315485"><ele>146.0</ele><time>2026-04-18T14:47:31.242Z</time></trkpt><trkpt lat="45.1409439" lon="8.3156878"><ele>146.0</ele><time>2026-04-18T14:47:32.242Z</time></trkpt><trkpt lat="45.140869" lon="8.3158956"><ele>146.0</ele><time>2026-04-18T14:47:33.242Z</time></trkpt><trkpt lat="45.1407933" lon="8.3161007"><ele>146.0</ele><time>2026-04-18T14:47:34.242Z</time></trkpt><trkpt lat="45.1407212" lon="8.3163072"><ele>146.0</ele><time>2026-04-18T14:47:35.242Z</time></trkpt><trkpt lat="45.1406521" lon="8.3165167"><ele>146.0</ele><time>2026-04-18T14:47:36.242Z</time></trkpt><trkpt lat="45.140578" lon="8.3167299"><ele>146.0</ele><time>2026-04-18T14:47:37.242Z</time></trkpt><trkpt lat="45.1405133" lon="8.316949"><ele>146.0</ele><time>2026-04-18T14:47:38.242Z</time></trkpt><trkpt lat="45.1404502" lon="8.3171694"><ele>145.0</ele><time>2026-04-18T14:47:39.242Z</time></trkpt><trkpt lat="45.1403878" lon="8.3173949"><ele>144.0</ele><time>2026-04-18T14:47:40.243Z</time></trkpt><trkpt lat="45.140325" lon="8.3176118"><ele>143.0</ele><time>2026-04-18T14:47:41.242Z</time></trkpt><trkpt lat="45.1402624" lon="8.3178337"><ele>143.0</ele><time>2026-04-18T14:47:42.242Z</time></trkpt><trkpt lat="45.1402078" lon="8.3180637"><ele>143.0</ele><time>2026-04-18T14:47:43.242Z</time></trkpt><trkpt lat="45.1401687" lon="8.3182965"><ele>143.0</ele><time>2026-04-18T14:47:44.243Z</time></trkpt><trkpt lat="45.140138" lon="8.3185238"><ele>143.0</ele><time>2026-04-18T14:47:45.242Z</time></trkpt><trkpt lat="45.1401122" lon="8.3187578"><ele>143.0</ele><time>2026-04-18T14:47:46.242Z</time></trkpt><trkpt lat="45.1400944" lon="8.3189873"><ele>143.0</ele><time>2026-04-18T14:47:47.242Z</time></trkpt><trkpt lat="45.1400855" lon="8.319225"><ele>142.33333333333331</ele><time>2026-04-18T14:47:48.242Z</time></trkpt><trkpt lat="45.1400773" lon="8.3194612"><ele>141.66666666666666</ele><time>2026-04-18T14:47:49.243Z</time></trkpt><trkpt lat="45.1400704" lon="8.3196915"><ele>141.0</ele><time>2026-04-18T14:47:50.242Z</time></trkpt><trkpt lat="45.1400706" lon="8.319914"><ele>141.0</ele><time>2026-04-18T14:47:51.242Z</time></trkpt><trkpt lat="45.1400716" lon="8.3201412"><ele>141.0</ele><time>2026-04-18T14:47:52.242Z</time></trkpt><trkpt lat="45.1400723" lon="8.3203713"><ele>141.0</ele><time>2026-04-18T14:47:53.242Z</time></trkpt><trkpt lat="45.140079" lon="8.3206028"><ele>141.0</ele><time>2026-04-18T14:47:54.243Z</time></trkpt><trkpt lat="45.140079" lon="8.3208305"><ele>141.0</ele><time>2026-04-18T14:47:55.242Z</time></trkpt><trkpt lat="45.1400831" lon="8.3210559"><ele>141.0</ele><time>2026-04-18T14:47:56.243Z</time></trkpt><trkpt lat="45.1400878" lon="8.3212873"><ele>140.66666666666666</ele><time>2026-04-18T14:47:57.243Z</time></trkpt><trkpt lat="45.1400976" lon="8.3215164"><ele>140.33333333333331</ele><time>2026-04-18T14:47:58.242Z</time></trkpt><trkpt lat="45.1401061" lon="8.3217514"><ele>140.0</ele><time>2026-04-18T14:47:59.242Z</time></trkpt><trkpt lat="45.1401141" lon="8.3219816"><ele>140.0</ele><time>2026-04-18T14:48:00.242Z</time></trkpt><trkpt lat="45.1401205" lon="8.3222059"><ele>140.0</ele><time>2026-04-18T14:48:01.242Z</time></trkpt><trkpt lat="45.1401275" lon="8.3224266"><ele>140.0</ele><time>2026-04-18T14:48:02.242Z</time></trkpt><trkpt lat="45.1401295" lon="8.3226383"><ele>139.66666666666666</ele><time>2026-04-18T14:48:03.242Z</time></trkpt><trkpt lat="45.1401295" lon="8.3228518"><ele>139.33333333333334</ele><time>2026-04-18T14:48:04.242Z</time></trkpt><trkpt lat="45.1401363" lon="8.323059"><ele>139.0</ele><time>2026-04-18T14:48:05.243Z</time></trkpt><trkpt lat="45.1401393" lon="8.3232798"><ele>139.0</ele><time>2026-04-18T14:48:06.242Z</time></trkpt><trkpt lat="45.1401475" lon="8.3234954"><ele>139.0</ele><time>2026-04-18T14:48:07.243Z</time></trkpt><trkpt lat="45.140154" lon="8.3237083"><ele>139.0</ele><time>2026-04-18T14:48:08.242Z</time></trkpt><trkpt lat="45.140163" lon="8.3239316"><ele>139.66666666666669</ele><time>2026-04-18T14:48:09.243Z</time></trkpt><trkpt lat="45.1401878" lon="8.3241531"><ele>140.33333333333334</ele><time>2026-04-18T14:48:10.243Z</time></trkpt><trkpt lat="45.1402138" lon="8.3243624"><ele>141.0</ele><time>2026-04-18T14:48:11.242Z</time></trkpt><trkpt lat="45.1402484" lon="8.3245682"><ele>141.0</ele><time>2026-04-18T14:48:12.242Z</time></trkpt><trkpt lat="45.1402872" lon="8.3247819"><ele>141.0</ele><time>2026-04-18T14:48:13.243Z</time></trkpt><trkpt lat="45.1403266" lon="8.3249886"><ele>141.0</ele><time>2026-04-18T14:48:14.242Z</time></trkpt><trkpt lat="45.1403688" lon="8.3251947"><ele>141.0</ele><time>2026-04-18T14:48:15.242Z</time></trkpt><trkpt lat="45.1404058" lon="8.325401"><ele>141.0</ele><time>2026-04-18T14:48:16.242Z</time></trkpt><trkpt lat="45.1404406" lon="8.3256073"><ele>141.0</ele><time>2026-04-18T14:48:17.242Z</time></trkpt><trkpt lat="45.1404796" lon="8.3258066"><ele>141.0</ele><time>2026-04-18T14:48:18.243Z</time></trkpt><trkpt lat="45.140521" lon="8.3260107"><ele>140.66666666666666</ele><time>2026-04-18T14:48:19.242Z</time></trkpt><trkpt lat="45.1405589" lon="8.3262142"><ele>140.33333333333331</ele><time>2026-04-18T14:48:20.242Z</time></trkpt><trkpt lat="45.1406087" lon="8.326409"><ele>140.0</ele><time>2026-04-18T14:48:21.242Z</time></trkpt><trkpt lat="45.1406736" lon="8.326617"><ele>141.66666666666666</ele><time>2026-04-18T14:48:22.242Z</time></trkpt><trkpt lat="45.1407547" lon="8.3268085"><ele>143.33333333333334</ele><time>2026-04-18T14:48:23.243Z</time></trkpt><trkpt lat="45.1408444" lon="8.3269972"><ele>145.0</ele><time>2026-04-18T14:48:24.242Z</time></trkpt><trkpt lat="45.1409351" lon="8.3271768"><ele>145.0</ele><time>2026-04-18T14:48:25.243Z</time></trkpt><trkpt lat="45.1410222" lon="8.3273467"><ele>145.0</ele><time>2026-04-18T14:48:26.243Z</time></trkpt><trkpt lat="45.1411067" lon="8.3275099"><ele>145.0</ele><time>2026-04-18T14:48:27.242Z</time></trkpt><trkpt lat="45.1411908" lon="8.3276609"><ele>145.0</ele><time>2026-04-18T14:48:28.242Z</time></trkpt><trkpt lat="45.1412724" lon="8.3278189"><ele>145.0</ele><time>2026-04-18T14:48:29.242Z</time></trkpt><trkpt lat="45.1413486" lon="8.327974"><ele>145.0</ele><time>2026-04-18T14:48:30.243Z</time></trkpt><trkpt lat="45.1414273" lon="8.3281205"><ele>145.0</ele><time>2026-04-18T14:48:31.242Z</time></trkpt><trkpt lat="45.141507" lon="8.3282608"><ele>145.0</ele><time>2026-04-18T14:48:32.242Z</time></trkpt><trkpt lat="45.1415849" lon="8.3283933"><ele>145.25</ele><time>2026-04-18T14:48:33.242Z</time></trkpt><trkpt lat="45.141674" lon="8.3285406"><ele>145.5</ele><time>2026-04-18T14:48:34.242Z</time></trkpt><trkpt lat="45.1417569" lon="8.328685"><ele>145.75</ele><time>2026-04-18T14:48:35.242Z</time></trkpt><trkpt lat="45.141836" lon="8.3288073"><ele>146.0</ele><time>2026-04-18T14:48:36.242Z</time></trkpt><trkpt lat="45.1419195" lon="8.328924"><ele>146.0</ele><time>2026-04-18T14:48:37.242Z</time></trkpt><trkpt lat="45.1419951" lon="8.3290365"><ele>146.0</ele><time>2026-04-18T14:48:38.242Z</time></trkpt><trkpt lat="45.1420721" lon="8.3291432"><ele>146.0</ele><time>2026-04-18T14:48:39.242Z</time></trkpt><trkpt lat="45.1421282" lon="8.32924"><ele>146.0</ele><time>2026-04-18T14:48:40.243Z</time></trkpt><trkpt lat="45.1421917" lon="8.3293622"><ele>146.0</ele><time>2026-04-18T14:48:42.242Z</time></trkpt><trkpt lat="45.1422338" lon="8.3294546"><ele>146.0</ele><time>2026-04-18T14:48:44.242Z</time></trkpt><trkpt lat="45.1422151" lon="8.3295651"><ele>146.0</ele><time>2026-04-18T14:48:46.242Z</time></trkpt><trkpt lat="45.1421067" lon="8.3296794"><ele>146.0</ele><time>2026-04-18T14:48:48.243Z</time></trkpt><trkpt lat="45.142052" lon="8.3297579"><ele>146.0</ele><time>2026-04-18T14:48:49.242Z</time></trkpt><trkpt lat="45.141975" lon="8.3298307"><ele>146.0</ele><time>2026-04-18T14:48:50.243Z</time></trkpt><trkpt lat="45.1419057" lon="8.3298917"><ele>145.8</ele><time>2026-04-18T14:48:51.242Z</time></trkpt><trkpt lat="45.1418312" lon="8.3299608"><ele>145.6</ele><time>2026-04-18T14:48:52.242Z</time></trkpt><trkpt lat="45.1417591" lon="8.3300388"><ele>145.4</ele><time>2026-04-18T14:48:53.242Z</time></trkpt><trkpt lat="45.1416893" lon="8.3301384"><ele>145.2</ele><time>2026-04-18T14:48:54.243Z</time></trkpt><trkpt lat="45.1416442" lon="8.3302821"><ele>145.0</ele><time>2026-04-18T14:48:55.243Z</time></trkpt><trkpt lat="45.1416014" lon="8.3304225"><ele>144.8</ele><time>2026-04-18T14:48:56.242Z</time></trkpt><trkpt lat="45.14156" lon="8.3305791"><ele>144.6</ele><time>2026-04-18T14:48:57.242Z</time></trkpt><trkpt lat="45.1415455" lon="8.3307391"><ele>144.4</ele><time>2026-04-18T14:48:58.243Z</time></trkpt><trkpt lat="45.1415532" lon="8.3308913"><ele>144.2</ele><time>2026-04-18T14:48:59.242Z</time></trkpt><trkpt lat="45.1415633" lon="8.3310461"><ele>144.0</ele><time>2026-04-18T14:49:00.243Z</time></trkpt><trkpt lat="45.1415713" lon="8.331199"><ele>144.0</ele><time>2026-04-18T14:49:01.243Z</time></trkpt><trkpt lat="45.1415847" lon="8.3313613"><ele>144.0</ele><time>2026-04-18T14:49:02.242Z</time></trkpt><trkpt lat="45.1416032" lon="8.3315206"><ele>144.0</ele><time>2026-04-18T14:49:03.242Z</time></trkpt><trkpt lat="45.1416256" lon="8.3316891"><ele>144.0</ele><time>2026-04-18T14:49:04.242Z</time></trkpt><trkpt lat="45.1416431" lon="8.3318563"><ele>143.75</ele><time>2026-04-18T14:49:05.242Z</time></trkpt><trkpt lat="45.1416615" lon="8.3320343"><ele>143.5</ele><time>2026-04-18T14:49:06.242Z</time></trkpt><trkpt lat="45.1416902" lon="8.3322022"><ele>143.25</ele><time>2026-04-18T14:49:07.242Z</time></trkpt><trkpt lat="45.1417186" lon="8.3323808"><ele>143.0</ele><time>2026-04-18T14:49:08.242Z</time></trkpt><trkpt lat="45.1417469" lon="8.3325483"><ele>142.8</ele><time>2026-04-18T14:49:09.243Z</time></trkpt><trkpt lat="45.1417832" lon="8.3326966"><ele>142.60000000000002</ele><time>2026-04-18T14:49:10.242Z</time></trkpt><trkpt lat="45.1418143" lon="8.3328484"><ele>142.39999999999998</ele><time>2026-04-18T14:49:11.243Z</time></trkpt><trkpt lat="45.1418328" lon="8.3329998"><ele>142.2</ele><time>2026-04-18T14:49:12.243Z</time></trkpt><trkpt lat="45.1418565" lon="8.3331521"><ele>142.0</ele><time>2026-04-18T14:49:13.242Z</time></trkpt><trkpt lat="45.1418998" lon="8.3332968"><ele>141.79999999999998</ele><time>2026-04-18T14:49:14.243Z</time></trkpt><trkpt lat="45.1419322" lon="8.3334546"><ele>141.6</ele><time>2026-04-18T14:49:15.243Z</time></trkpt><trkpt lat="45.141936" lon="8.3336021"><ele>141.39999999999998</ele><time>2026-04-18T14:49:16.242Z</time></trkpt><trkpt lat="45.1419571" lon="8.3337318"><ele>141.2</ele><time>2026-04-18T14:49:17.242Z</time></trkpt><trkpt lat="45.1419923" lon="8.3338625"><ele>141.0</ele><time>2026-04-18T14:49:18.242Z</time></trkpt><trkpt lat="45.1420192" lon="8.3339918"><ele>140.6</ele><time>2026-04-18T14:49:19.243Z</time></trkpt><trkpt lat="45.1420437" lon="8.3341185"><ele>140.2</ele><time>2026-04-18T14:49:20.243Z</time></trkpt><trkpt lat="45.1420598" lon="8.3342257"><ele>139.8</ele><time>2026-04-18T14:49:21.243Z</time></trkpt><trkpt lat="45.1420814" lon="8.3343423"><ele>139.4</ele><time>2026-04-18T14:49:22.242Z</time></trkpt><trkpt lat="45.142104" lon="8.3344385"><ele>139.0</ele><time>2026-04-18T14:49:23.242Z</time></trkpt><trkpt lat="45.1421432" lon="8.334604"><ele>139.0</ele><time>2026-04-18T14:49:25.242Z</time></trkpt><trkpt lat="45.1421745" lon="8.3346929"><ele>139.0</ele><time>2026-04-18T14:49:26.242Z</time></trkpt><trkpt lat="45.1422107" lon="8.3348422"><ele>139.0</ele><time>2026-04-18T14:49:28.242Z</time></trkpt><trkpt lat="45.1422496" lon="8.3350007"><ele>139.0</ele><time>2026-04-18T14:49:30.242Z</time></trkpt><trkpt lat="45.1422795" lon="8.3351228"><ele>139.0</ele><time>2026-04-18T14:49:31.242Z</time></trkpt><trkpt lat="45.1423049" lon="8.3352435"><ele>138.75</ele><time>2026-04-18T14:49:32.243Z</time></trkpt><trkpt lat="45.1423282" lon="8.3353905"><ele>138.5</ele><time>2026-04-18T14:49:33.242Z</time></trkpt><trkpt lat="45.1423573" lon="8.3355402"><ele>138.25</ele><time>2026-04-18T14:49:34.242Z</time></trkpt><trkpt lat="45.142376" lon="8.3357097"><ele>138.0</ele><time>2026-04-18T14:49:35.242Z</time></trkpt><trkpt lat="45.1423637" lon="8.3359045"><ele>137.75</ele><time>2026-04-18T14:49:36.242Z</time></trkpt><trkpt lat="45.1423551" lon="8.3360871"><ele>137.5</ele><time>2026-04-18T14:49:37.243Z</time></trkpt><trkpt lat="45.1423182" lon="8.3362589"><ele>137.25</ele><time>2026-04-18T14:49:38.242Z</time></trkpt><trkpt lat="45.1422774" lon="8.3364555"><ele>137.0</ele><time>2026-04-18T14:49:39.243Z</time></trkpt><trkpt lat="45.142227" lon="8.336655"><ele>136.5</ele><time>2026-04-18T14:49:40.243Z</time></trkpt><trkpt lat="45.1421724" lon="8.3368465"><ele>136.0</ele><time>2026-04-18T14:49:41.243Z</time></trkpt><trkpt lat="45.1421173" lon="8.3370427"><ele>135.5</ele><time>2026-04-18T14:49:42.242Z</time></trkpt><trkpt lat="45.1420582" lon="8.3372395"><ele>135.0</ele><time>2026-04-18T14:49:43.242Z</time></trkpt><trkpt lat="45.142004" lon="8.337438"><ele>134.0</ele><time>2026-04-18T14:49:44.243Z</time></trkpt><trkpt lat="45.1419494" lon="8.3376464"><ele>133.0</ele><time>2026-04-18T14:49:45.242Z</time></trkpt><trkpt lat="45.1418968" lon="8.3378525"><ele>132.0</ele><time>2026-04-18T14:49:46.243Z</time></trkpt><trkpt lat="45.141828" lon="8.3380563"><ele>131.66666666666666</ele><time>2026-04-18T14:49:47.243Z</time></trkpt><trkpt lat="45.14177" lon="8.3382653"><ele>131.33333333333331</ele><time>2026-04-18T14:49:48.242Z</time></trkpt><trkpt lat="45.1417102" lon="8.3384808"><ele>131.0</ele><time>2026-04-18T14:49:49.242Z</time></trkpt><trkpt lat="45.1416506" lon="8.3386864"><ele>131.33333333333331</ele><time>2026-04-18T14:49:50.242Z</time></trkpt><trkpt lat="45.1415924" lon="8.3389078"><ele>131.66666666666666</ele><time>2026-04-18T14:49:51.242Z</time></trkpt><trkpt lat="45.1415396" lon="8.3391223"><ele>132.0</ele><time>2026-04-18T14:49:52.242Z</time></trkpt><trkpt lat="45.1414864" lon="8.339346"><ele>132.0</ele><time>2026-04-18T14:49:53.242Z</time></trkpt><trkpt lat="45.1414311" lon="8.3395639"><ele>132.0</ele><time>2026-04-18T14:49:54.243Z</time></trkpt><trkpt lat="45.1413715" lon="8.3397827"><ele>132.0</ele><time>2026-04-18T14:49:55.242Z</time></trkpt><trkpt lat="45.1413174" lon="8.3399942"><ele>130.66666666666666</ele><time>2026-04-18T14:49:56.242Z</time></trkpt><trkpt lat="45.1412599" lon="8.3402038"><ele>129.33333333333331</ele><time>2026-04-18T14:49:57.242Z</time></trkpt><trkpt lat="45.1412043" lon="8.3404162"><ele>128.0</ele><time>2026-04-18T14:49:58.242Z</time></trkpt><trkpt lat="45.1411467" lon="8.3406345"><ele>128.0</ele><time>2026-04-18T14:49:59.243Z</time></trkpt><trkpt lat="45.1410961" lon="8.3408517"><ele>128.0</ele><time>2026-04-18T14:50:00.242Z</time></trkpt><trkpt lat="45.1410413" lon="8.3410613"><ele>128.0</ele><time>2026-04-18T14:50:01.243Z</time></trkpt><trkpt lat="45.1409906" lon="8.3412789"><ele>128.0</ele><time>2026-04-18T14:50:02.242Z</time></trkpt><trkpt lat="45.1409386" lon="8.3414916"><ele>128.0</ele><time>2026-04-18T14:50:03.243Z</time></trkpt><trkpt lat="45.1408733" lon="8.3416986"><ele>128.0</ele><time>2026-04-18T14:50:04.242Z</time></trkpt><trkpt lat="45.1408166" lon="8.341897"><ele>128.0</ele><time>2026-04-18T14:50:05.242Z</time></trkpt><trkpt lat="45.1407593" lon="8.342096"><ele>128.0</ele><time>2026-04-18T14:50:06.242Z</time></trkpt><trkpt lat="45.1406994" lon="8.342314"><ele>128.0</ele><time>2026-04-18T14:50:07.242Z</time></trkpt><trkpt lat="45.1406438" lon="8.3425326"><ele>128.33333333333331</ele><time>2026-04-18T14:50:08.242Z</time></trkpt><trkpt lat="45.1405818" lon="8.3427664"><ele>128.66666666666666</ele><time>2026-04-18T14:50:09.242Z</time></trkpt><trkpt lat="45.1405282" lon="8.3429886"><ele>129.0</ele><time>2026-04-18T14:50:10.243Z</time></trkpt><trkpt lat="45.1404714" lon="8.3432174"><ele>129.0</ele><time>2026-04-18T14:50:11.242Z</time></trkpt><trkpt lat="45.1404187" lon="8.3434434"><ele>129.0</ele><time>2026-04-18T14:50:12.242Z</time></trkpt><trkpt lat="45.140356" lon="8.343664"><ele>129.0</ele><time>2026-04-18T14:50:13.242Z</time></trkpt><trkpt lat="45.1402932" lon="8.3438811"><ele>128.66666666666666</ele><time>2026-04-18T14:50:14.242Z</time></trkpt><trkpt lat="45.1402287" lon="8.3441093"><ele>128.33333333333331</ele><time>2026-04-18T14:50:15.242Z</time></trkpt><trkpt lat="45.1401716" lon="8.3443384"><ele>128.0</ele><time>2026-04-18T14:50:16.243Z</time></trkpt><trkpt lat="45.1401011" lon="8.3445427"><ele>127.66666666666666</ele><time>2026-04-18T14:50:17.243Z</time></trkpt><trkpt lat="45.1400325" lon="8.3447629"><ele>127.33333333333334</ele><time>2026-04-18T14:50:18.242Z</time></trkpt><trkpt lat="45.1399825" lon="8.3449874"><ele>127.0</ele><time>2026-04-18T14:50:19.242Z</time></trkpt><trkpt lat="45.1399186" lon="8.3451925"><ele>126.66666666666667</ele><time>2026-04-18T14:50:20.242Z</time></trkpt><trkpt lat="45.1398713" lon="8.345399"><ele>126.33333333333334</ele><time>2026-04-18T14:50:21.242Z</time></trkpt><trkpt lat="45.1398132" lon="8.3456088"><ele>126.0</ele><time>2026-04-18T14:50:22.242Z</time></trkpt><trkpt lat="45.1397559" lon="8.3458047"><ele>125.66666666666666</ele><time>2026-04-18T14:50:23.242Z</time></trkpt><trkpt lat="45.1396927" lon="8.3460031"><ele>125.33333333333333</ele><time>2026-04-18T14:50:24.243Z</time></trkpt><trkpt lat="45.1396356" lon="8.3462058"><ele>125.0</ele><time>2026-04-18T14:50:25.242Z</time></trkpt><trkpt lat="45.1395751" lon="8.3464101"><ele>125.0</ele><time>2026-04-18T14:50:26.243Z</time></trkpt><trkpt lat="45.139514" lon="8.3466139"><ele>125.0</ele><time>2026-04-18T14:50:27.242Z</time></trkpt><trkpt lat="45.1394519" lon="8.3468216"><ele>125.0</ele><time>2026-04-18T14:50:28.242Z</time></trkpt><trkpt lat="45.1393869" lon="8.3470338"><ele>125.66666666666666</ele><time>2026-04-18T14:50:29.242Z</time></trkpt><trkpt lat="45.1393212" lon="8.3472605"><ele>126.33333333333334</ele><time>2026-04-18T14:50:30.242Z</time></trkpt><trkpt lat="45.1392605" lon="8.3474652"><ele>127.0</ele><time>2026-04-18T14:50:31.242Z</time></trkpt><trkpt lat="45.139199" lon="8.3476767"><ele>127.0</ele><time>2026-04-18T14:50:32.242Z</time></trkpt><trkpt lat="45.1391363" lon="8.3478863"><ele>127.0</ele><time>2026-04-18T14:50:33.242Z</time></trkpt><trkpt lat="45.1390757" lon="8.3480919"><ele>127.0</ele><time>2026-04-18T14:50:34.243Z</time></trkpt><trkpt lat="45.1390144" lon="8.3482938"><ele>128.66666666666669</ele><time>2026-04-18T14:50:35.242Z</time></trkpt><trkpt lat="45.1389489" lon="8.3484917"><ele>130.33333333333334</ele><time>2026-04-18T14:50:36.242Z</time></trkpt><trkpt lat="45.1388888" lon="8.3486836"><ele>132.0</ele><time>2026-04-18T14:50:37.242Z</time></trkpt><trkpt lat="45.1388316" lon="8.3488797"><ele>132.75</ele><time>2026-04-18T14:50:38.242Z</time></trkpt><trkpt lat="45.1387807" lon="8.3490578"><ele>133.5</ele><time>2026-04-18T14:50:39.243Z</time></trkpt><trkpt lat="45.13875" lon="8.3492382"><ele>134.25</ele><time>2026-04-18T14:50:40.242Z</time></trkpt><trkpt lat="45.138741" lon="8.3494129"><ele>135.0</ele><time>2026-04-18T14:50:41.243Z</time></trkpt><trkpt lat="45.1387541" lon="8.3495984"><ele>135.5</ele><time>2026-04-18T14:50:42.242Z</time></trkpt><trkpt lat="45.1387945" lon="8.3497804"><ele>136.0</ele><time>2026-04-18T14:50:43.242Z</time></trkpt><trkpt lat="45.1388552" lon="8.3499682"><ele>136.5</ele><time>2026-04-18T14:50:44.242Z</time></trkpt><trkpt lat="45.13892" lon="8.3501604"><ele>137.0</ele><time>2026-04-18T14:50:45.242Z</time></trkpt><trkpt lat="45.1389826" lon="8.3503512"><ele>137.0</ele><time>2026-04-18T14:50:46.242Z</time></trkpt><trkpt lat="45.1390434" lon="8.3505324"><ele>137.0</ele><time>2026-04-18T14:50:47.242Z</time></trkpt><trkpt lat="45.139104" lon="8.3507099"><ele>137.0</ele><time>2026-04-18T14:50:48.243Z</time></trkpt><trkpt lat="45.1391671" lon="8.3508847"><ele>137.0</ele><time>2026-04-18T14:50:49.242Z</time></trkpt><trkpt lat="45.1392164" lon="8.3510639"><ele>137.75</ele><time>2026-04-18T14:50:50.243Z</time></trkpt><trkpt lat="45.1392512" lon="8.3512438"><ele>138.5</ele><time>2026-04-18T14:50:51.242Z</time></trkpt><trkpt lat="45.139264" lon="8.3514232"><ele>139.25</ele><time>2026-04-18T14:50:52.243Z</time></trkpt><trkpt lat="45.1392338" lon="8.3515915"><ele>140.0</ele><time>2026-04-18T14:50:53.242Z</time></trkpt><trkpt lat="45.1391982" lon="8.3517631"><ele>141.75</ele><time>2026-04-18T14:50:54.243Z</time></trkpt><trkpt lat="45.139106" lon="8.3518968"><ele>143.5</ele><time>2026-04-18T14:50:55.243Z</time></trkpt><trkpt lat="45.1390241" lon="8.3520442"><ele>145.25</ele><time>2026-04-18T14:50:56.242Z</time></trkpt><trkpt lat="45.1389515" lon="8.3521901"><ele>147.0</ele><time>2026-04-18T14:50:57.243Z</time></trkpt><trkpt lat="45.1388849" lon="8.3523405"><ele>150.75</ele><time>2026-04-18T14:50:58.242Z</time></trkpt><trkpt lat="45.1388518" lon="8.3524942"><ele>154.5</ele><time>2026-04-18T14:50:59.242Z</time></trkpt><trkpt lat="45.1388415" lon="8.3526639"><ele>158.25</ele><time>2026-04-18T14:51:00.243Z</time></trkpt><trkpt lat="45.1388643" lon="8.3528161"><ele>162.0</ele><time>2026-04-18T14:51:01.242Z</time></trkpt><trkpt lat="45.1389206" lon="8.3529513"><ele>163.5</ele><time>2026-04-18T14:51:02.242Z</time></trkpt><trkpt lat="45.1390067" lon="8.353069"><ele>165.0</ele><time>2026-04-18T14:51:03.242Z</time></trkpt><trkpt lat="45.1391296" lon="8.3531546"><ele>166.5</ele><time>2026-04-18T14:51:04.242Z</time></trkpt><trkpt lat="45.1392687" lon="8.3532091"><ele>168.0</ele><time>2026-04-18T14:51:05.242Z</time></trkpt><trkpt lat="45.1394185" lon="8.3532537"><ele>163.66666666666666</ele><time>2026-04-18T14:51:06.243Z</time></trkpt><trkpt lat="45.139569" lon="8.3532749"><ele>159.33333333333331</ele><time>2026-04-18T14:51:07.242Z</time></trkpt><trkpt lat="45.1397211" lon="8.3532689"><ele>155.0</ele><time>2026-04-18T14:51:08.242Z</time></trkpt><trkpt lat="45.1398673" lon="8.3532172"><ele>156.33333333333331</ele><time>2026-04-18T14:51:09.242Z</time></trkpt><trkpt lat="45.1400025" lon="8.3531227"><ele>157.66666666666666</ele><time>2026-04-18T14:51:10.243Z</time></trkpt><trkpt lat="45.1401201" lon="8.3530047"><ele>159.0</ele><time>2026-04-18T14:51:11.243Z</time></trkpt><trkpt lat="45.1402315" lon="8.3528371"><ele>159.0</ele><time>2026-04-18T14:51:12.243Z</time></trkpt><trkpt lat="45.1403173" lon="8.3526577"><ele>159.0</ele><time>2026-04-18T14:51:13.243Z</time></trkpt><trkpt lat="45.1403876" lon="8.3524617"><ele>159.0</ele><time>2026-04-18T14:51:14.242Z</time></trkpt><trkpt lat="45.1404567" lon="8.3522564"><ele>158.0</ele><time>2026-04-18T14:51:15.243Z</time></trkpt><trkpt lat="45.1405227" lon="8.3520746"><ele>157.0</ele><time>2026-04-18T14:51:16.242Z</time></trkpt><trkpt lat="45.1405765" lon="8.3519192"><ele>156.0</ele><time>2026-04-18T14:51:17.242Z</time></trkpt><trkpt lat="45.1406379" lon="8.3518036"><ele>155.0</ele><time>2026-04-18T14:51:18.242Z</time></trkpt><trkpt lat="45.1407153" lon="8.3517384"><ele>157.2</ele><time>2026-04-18T14:51:19.242Z</time></trkpt><trkpt lat="45.1407995" lon="8.3517223"><ele>159.4</ele><time>2026-04-18T14:51:20.243Z</time></trkpt><trkpt lat="45.1408825" lon="8.3517545"><ele>161.60000000000002</ele><time>2026-04-18T14:51:21.242Z</time></trkpt><trkpt lat="45.1409502" lon="8.3518558"><ele>163.8</ele><time>2026-04-18T14:51:22.242Z</time></trkpt><trkpt lat="45.140992" lon="8.3519866"><ele>166.0</ele><time>2026-04-18T14:51:23.242Z</time></trkpt><trkpt lat="45.1409932" lon="8.352143"><ele>167.0</ele><time>2026-04-18T14:51:24.242Z</time></trkpt><trkpt lat="45.1409739" lon="8.3523208"><ele>168.0</ele><time>2026-04-18T14:51:25.242Z</time></trkpt><trkpt lat="45.1409527" lon="8.3525072"><ele>169.0</ele><time>2026-04-18T14:51:26.242Z</time></trkpt><trkpt lat="45.1409218" lon="8.3527056"><ele>170.0</ele><time>2026-04-18T14:51:27.242Z</time></trkpt><trkpt lat="45.1408891" lon="8.3529339"><ele>172.66666666666666</ele><time>2026-04-18T14:51:28.242Z</time></trkpt><trkpt lat="45.1408415" lon="8.3531456"><ele>175.33333333333334</ele><time>2026-04-18T14:51:29.242Z</time></trkpt><trkpt lat="45.1407929" lon="8.3533751"><ele>178.0</ele><time>2026-04-18T14:51:30.242Z</time></trkpt><trkpt lat="45.1407434" lon="8.3536049"><ele>175.33333333333334</ele><time>2026-04-18T14:51:31.243Z</time></trkpt><trkpt lat="45.1406909" lon="8.3538359"><ele>172.66666666666666</ele><time>2026-04-18T14:51:32.242Z</time></trkpt><trkpt lat="45.1406416" lon="8.3540546"><ele>170.0</ele><time>2026-04-18T14:51:33.242Z</time></trkpt><trkpt lat="45.140599" lon="8.3542747"><ele>170.0</ele><time>2026-04-18T14:51:34.242Z</time></trkpt><trkpt lat="45.1405622" lon="8.3545012"><ele>170.0</ele><time>2026-04-18T14:51:35.242Z</time></trkpt><trkpt lat="45.1405352" lon="8.354729"><ele>170.0</ele><time>2026-04-18T14:51:36.242Z</time></trkpt><trkpt lat="45.1405199" lon="8.3549687"><ele>172.33333333333331</ele><time>2026-04-18T14:51:37.242Z</time></trkpt><trkpt lat="45.1405276" lon="8.3551975"><ele>174.66666666666666</ele><time>2026-04-18T14:51:38.242Z</time></trkpt><trkpt lat="45.1405451" lon="8.3554243"><ele>177.0</ele><time>2026-04-18T14:51:39.242Z</time></trkpt><trkpt lat="45.140569" lon="8.3556474"><ele>178.75</ele><time>2026-04-18T14:51:40.242Z</time></trkpt><trkpt lat="45.1405791" lon="8.3558584"><ele>180.5</ele><time>2026-04-18T14:51:41.242Z</time></trkpt><trkpt lat="45.1405572" lon="8.3560612"><ele>182.25</ele><time>2026-04-18T14:51:42.242Z</time></trkpt><trkpt lat="45.1405058" lon="8.3562572"><ele>184.0</ele><time>2026-04-18T14:51:43.242Z</time></trkpt><trkpt lat="45.1404289" lon="8.3564474"><ele>187.0</ele><time>2026-04-18T14:51:44.242Z</time></trkpt><trkpt lat="45.1403226" lon="8.356616"><ele>190.0</ele><time>2026-04-18T14:51:45.242Z</time></trkpt><trkpt lat="45.1401984" lon="8.3567703"><ele>193.0</ele><time>2026-04-18T14:51:46.242Z</time></trkpt><trkpt lat="45.1400628" lon="8.356887"><ele>193.0</ele><time>2026-04-18T14:51:47.242Z</time></trkpt><trkpt lat="45.1399196" lon="8.3569548"><ele>193.0</ele><time>2026-04-18T14:51:48.242Z</time></trkpt><trkpt lat="45.139776" lon="8.3569814"><ele>193.0</ele><time>2026-04-18T14:51:49.243Z</time></trkpt><trkpt lat="45.139624" lon="8.3569818"><ele>193.0</ele><time>2026-04-18T14:51:50.242Z</time></trkpt><trkpt lat="45.1394694" lon="8.356932"><ele>194.5</ele><time>2026-04-18T14:51:51.243Z</time></trkpt><trkpt lat="45.1393228" lon="8.3568491"><ele>196.0</ele><time>2026-04-18T14:51:52.242Z</time></trkpt><trkpt lat="45.139187" lon="8.3567598"><ele>197.5</ele><time>2026-04-18T14:51:53.243Z</time></trkpt><trkpt lat="45.1390635" lon="8.3566679"><ele>199.0</ele><time>2026-04-18T14:51:54.242Z</time></trkpt><trkpt lat="45.1389447" lon="8.3565958"><ele>199.0</ele><time>2026-04-18T14:51:55.242Z</time></trkpt><trkpt lat="45.1388274" lon="8.3565547"><ele>199.0</ele><time>2026-04-18T14:51:56.242Z</time></trkpt><trkpt lat="45.138713" lon="8.3565455"><ele>199.0</ele><time>2026-04-18T14:51:57.242Z</time></trkpt><trkpt lat="45.1386081" lon="8.3565649"><ele>199.0</ele><time>2026-04-18T14:51:58.243Z</time></trkpt><trkpt lat="45.138511" lon="8.3566407"><ele>199.0</ele><time>2026-04-18T14:51:59.242Z</time></trkpt><trkpt lat="45.1384548" lon="8.3567647"><ele>199.0</ele><time>2026-04-18T14:52:00.243Z</time></trkpt><trkpt lat="45.1384141" lon="8.3569241"><ele>199.0</ele><time>2026-04-18T14:52:01.242Z</time></trkpt><trkpt lat="45.1383856" lon="8.3570956"><ele>199.0</ele><time>2026-04-18T14:52:02.242Z</time></trkpt><trkpt lat="45.1383614" lon="8.3572928"><ele>202.0</ele><time>2026-04-18T14:52:03.243Z</time></trkpt><trkpt lat="45.1383474" lon="8.3575068"><ele>205.0</ele><time>2026-04-18T14:52:04.242Z</time></trkpt><trkpt lat="45.1383388" lon="8.3577357"><ele>208.0</ele><time>2026-04-18T14:52:05.243Z</time></trkpt><trkpt lat="45.1383352" lon="8.3579654"><ele>210.0</ele><time>2026-04-18T14:52:06.243Z</time></trkpt><trkpt lat="45.1383379" lon="8.3582076"><ele>212.0</ele><time>2026-04-18T14:52:07.242Z</time></trkpt><trkpt lat="45.1383402" lon="8.3584365"><ele>214.0</ele><time>2026-04-18T14:52:08.242Z</time></trkpt><trkpt lat="45.1383415" lon="8.3586647"><ele>214.75</ele><time>2026-04-18T14:52:09.242Z</time></trkpt><trkpt lat="45.1383432" lon="8.3588963"><ele>215.5</ele><time>2026-04-18T14:52:10.242Z</time></trkpt><trkpt lat="45.1383471" lon="8.359107"><ele>216.25</ele><time>2026-04-18T14:52:11.242Z</time></trkpt><trkpt lat="45.1383591" lon="8.3592958"><ele>217.0</ele><time>2026-04-18T14:52:12.242Z</time></trkpt><trkpt lat="45.138372" lon="8.3594661"><ele>217.0</ele><time>2026-04-18T14:52:13.242Z</time></trkpt><trkpt lat="45.1383981" lon="8.3596121"><ele>217.0</ele><time>2026-04-18T14:52:14.243Z</time></trkpt><trkpt lat="45.1384207" lon="8.3597489"><ele>217.0</ele><time>2026-04-18T14:52:15.242Z</time></trkpt><trkpt lat="45.1384422" lon="8.3598665"><ele>217.0</ele><time>2026-04-18T14:52:16.242Z</time></trkpt><trkpt lat="45.1384831" lon="8.3600142"><ele>217.0</ele><time>2026-04-18T14:52:18.242Z</time></trkpt><trkpt lat="45.1384337" lon="8.3601011"><ele>216.6</ele><time>2026-04-18T14:52:21.243Z</time></trkpt><trkpt lat="45.1383786" lon="8.3600044"><ele>216.2</ele><time>2026-04-18T14:52:23.242Z</time></trkpt><trkpt lat="45.1383342" lon="8.3598451"><ele>215.8</ele><time>2026-04-18T14:52:25.243Z</time></trkpt><trkpt lat="45.138242" lon="8.3597437"><ele>215.4</ele><time>2026-04-18T14:52:27.243Z</time></trkpt><trkpt lat="45.1381346" lon="8.3597769"><ele>215.0</ele><time>2026-04-18T14:52:29.242Z</time></trkpt><trkpt lat="45.1380795" lon="8.3598803"><ele>215.0</ele><time>2026-04-18T14:52:30.243Z</time></trkpt><trkpt lat="45.1380108" lon="8.3600028"><ele>215.0</ele><time>2026-04-18T14:52:31.242Z</time></trkpt><trkpt lat="45.1379511" lon="8.3601317"><ele>215.0</ele><time>2026-04-18T14:52:32.242Z</time></trkpt><trkpt lat="45.1378828" lon="8.3602756"><ele>215.0</ele><time>2026-04-18T14:52:33.243Z</time></trkpt><trkpt lat="45.1378018" lon="8.3604115"><ele>215.25</ele><time>2026-04-18T14:52:34.242Z</time></trkpt><trkpt lat="45.1377144" lon="8.360557"><ele>215.5</ele><time>2026-04-18T14:52:35.242Z</time></trkpt><trkpt lat="45.1376321" lon="8.3607168"><ele>215.75</ele><time>2026-04-18T14:52:36.243Z</time></trkpt><trkpt lat="45.1375444" lon="8.3608727"><ele>216.0</ele><time>2026-04-18T14:52:37.242Z</time></trkpt><trkpt lat="45.1374472" lon="8.3610443"><ele>216.0</ele><time>2026-04-18T14:52:38.243Z</time></trkpt><trkpt lat="45.1373449" lon="8.3612056"><ele>216.0</ele><time>2026-04-18T14:52:39.242Z</time></trkpt><trkpt lat="45.1372496" lon="8.3613739"><ele>216.0</ele><time>2026-04-18T14:52:40.243Z</time></trkpt><trkpt lat="45.1371517" lon="8.3615343"><ele>216.0</ele><time>2026-04-18T14:52:41.242Z</time></trkpt><trkpt lat="45.1370553" lon="8.3616909"><ele>216.0</ele><time>2026-04-18T14:52:42.242Z</time></trkpt><trkpt lat="45.136951" lon="8.361845"><ele>216.0</ele><time>2026-04-18T14:52:43.242Z</time></trkpt><trkpt lat="45.136856" lon="8.3619886"><ele>216.0</ele><time>2026-04-18T14:52:44.243Z</time></trkpt><trkpt lat="45.1367596" lon="8.3621221"><ele>215.5</ele><time>2026-04-18T14:52:45.243Z</time></trkpt><trkpt lat="45.1366676" lon="8.3622345"><ele>215.0</ele><time>2026-04-18T14:52:46.242Z</time></trkpt><trkpt lat="45.1365681" lon="8.3623246"><ele>214.5</ele><time>2026-04-18T14:52:47.242Z</time></trkpt><trkpt lat="45.1364437" lon="8.3624002"><ele>214.0</ele><time>2026-04-18T14:52:48.242Z</time></trkpt><trkpt lat="45.1363224" lon="8.3624574"><ele>215.25</ele><time>2026-04-18T14:52:49.242Z</time></trkpt><trkpt lat="45.1361887" lon="8.362499"><ele>216.5</ele><time>2026-04-18T14:52:50.242Z</time></trkpt><trkpt lat="45.1360599" lon="8.3625656"><ele>217.75</ele><time>2026-04-18T14:52:51.242Z</time></trkpt><trkpt lat="45.1359204" lon="8.3626295"><ele>219.0</ele><time>2026-04-18T14:52:52.242Z</time></trkpt><trkpt lat="45.1357822" lon="8.3626691"><ele>218.66666666666669</ele><time>2026-04-18T14:52:53.243Z</time></trkpt><trkpt lat="45.135632" lon="8.3626808"><ele>218.33333333333334</ele><time>2026-04-18T14:52:54.242Z</time></trkpt><trkpt lat="45.1354717" lon="8.3626714"><ele>218.0</ele><time>2026-04-18T14:52:55.242Z</time></trkpt><trkpt lat="45.1353005" lon="8.3626512"><ele>218.0</ele><time>2026-04-18T14:52:56.243Z</time></trkpt><trkpt lat="45.1351257" lon="8.3626274"><ele>218.0</ele><time>2026-04-18T14:52:57.242Z</time></trkpt><trkpt lat="45.1349474" lon="8.3626022"><ele>218.0</ele><time>2026-04-18T14:52:58.242Z</time></trkpt><trkpt lat="45.1347626" lon="8.3625791"><ele>218.33333333333334</ele><time>2026-04-18T14:52:59.242Z</time></trkpt><trkpt lat="45.1345846" lon="8.3625459"><ele>218.66666666666669</ele><time>2026-04-18T14:53:00.243Z</time></trkpt><trkpt lat="45.134396" lon="8.3625326"><ele>219.0</ele><time>2026-04-18T14:53:01.243Z</time></trkpt><trkpt lat="45.1342135" lon="8.3625087"><ele>220.33333333333331</ele><time>2026-04-18T14:53:02.242Z</time></trkpt><trkpt lat="45.1340269" lon="8.3624956"><ele>221.66666666666666</ele><time>2026-04-18T14:53:03.242Z</time></trkpt><trkpt lat="45.1338461" lon="8.3624793"><ele>223.0</ele><time>2026-04-18T14:53:04.242Z</time></trkpt><trkpt lat="45.1336653" lon="8.3624646"><ele>223.0</ele><time>2026-04-18T14:53:05.242Z</time></trkpt><trkpt lat="45.1334946" lon="8.3624207"><ele>223.0</ele><time>2026-04-18T14:53:06.243Z</time></trkpt><trkpt lat="45.133324" lon="8.3623573"><ele>223.0</ele><time>2026-04-18T14:53:07.242Z</time></trkpt><trkpt lat="45.133155" lon="8.3622869"><ele>224.33333333333331</ele><time>2026-04-18T14:53:08.242Z</time></trkpt><trkpt lat="45.1329968" lon="8.3621926"><ele>225.66666666666669</ele><time>2026-04-18T14:53:09.242Z</time></trkpt><trkpt lat="45.1328328" lon="8.3620912"><ele>227.0</ele><time>2026-04-18T14:53:10.242Z</time></trkpt><trkpt lat="45.1326792" lon="8.3619807"><ele>227.0</ele><time>2026-04-18T14:53:11.243Z</time></trkpt><trkpt lat="45.1325267" lon="8.3618703"><ele>227.0</ele><time>2026-04-18T14:53:12.242Z</time></trkpt><trkpt lat="45.1323818" lon="8.3617607"><ele>227.0</ele><time>2026-04-18T14:53:13.242Z</time></trkpt><trkpt lat="45.1322321" lon="8.3616716"><ele>228.0</ele><time>2026-04-18T14:53:14.242Z</time></trkpt><trkpt lat="45.1320867" lon="8.3615782"><ele>229.0</ele><time>2026-04-18T14:53:15.242Z</time></trkpt><trkpt lat="45.1319477" lon="8.3614936"><ele>230.0</ele><time>2026-04-18T14:53:16.242Z</time></trkpt><trkpt lat="45.1318128" lon="8.3614059"><ele>230.5</ele><time>2026-04-18T14:53:17.243Z</time></trkpt><trkpt lat="45.131685" lon="8.3613222"><ele>231.0</ele><time>2026-04-18T14:53:18.243Z</time></trkpt><trkpt lat="45.1315461" lon="8.3612293"><ele>231.5</ele><time>2026-04-18T14:53:19.242Z</time></trkpt><trkpt lat="45.1314078" lon="8.3611404"><ele>232.0</ele><time>2026-04-18T14:53:20.242Z</time></trkpt><trkpt lat="45.1312643" lon="8.3610549"><ele>232.66666666666666</ele><time>2026-04-18T14:53:21.243Z</time></trkpt><trkpt lat="45.1311067" lon="8.3609558"><ele>233.33333333333331</ele><time>2026-04-18T14:53:22.242Z</time></trkpt><trkpt lat="45.1309617" lon="8.3608684"><ele>234.0</ele><time>2026-04-18T14:53:23.242Z</time></trkpt><trkpt lat="45.1308078" lon="8.3607925"><ele>235.33333333333331</ele><time>2026-04-18T14:53:24.242Z</time></trkpt><trkpt lat="45.1306612" lon="8.3607022"><ele>236.66666666666666</ele><time>2026-04-18T14:53:25.242Z</time></trkpt><trkpt lat="45.1305133" lon="8.3606087"><ele>238.0</ele><time>2026-04-18T14:53:26.242Z</time></trkpt><trkpt lat="45.1303755" lon="8.3605101"><ele>239.0</ele><time>2026-04-18T14:53:27.243Z</time></trkpt><trkpt lat="45.1302545" lon="8.3603872"><ele>240.0</ele><time>2026-04-18T14:53:28.242Z</time></trkpt><trkpt lat="45.1301384" lon="8.3602609"><ele>241.0</ele><time>2026-04-18T14:53:29.242Z</time></trkpt><trkpt lat="45.1300624" lon="8.3600871"><ele>242.0</ele><time>2026-04-18T14:53:30.242Z</time></trkpt><trkpt lat="45.1299835" lon="8.359899"><ele>241.0</ele><time>2026-04-18T14:53:31.243Z</time></trkpt><trkpt lat="45.1299228" lon="8.3596908"><ele>240.0</ele><time>2026-04-18T14:53:32.243Z</time></trkpt><trkpt lat="45.1298544" lon="8.359469"><ele>239.0</ele><time>2026-04-18T14:53:33.243Z</time></trkpt><trkpt lat="45.1297943" lon="8.3592521"><ele>244.0</ele><time>2026-04-18T14:53:34.242Z</time></trkpt><trkpt lat="45.1297389" lon="8.3590438"><ele>249.0</ele><time>2026-04-18T14:53:35.242Z</time></trkpt><trkpt lat="45.1296837" lon="8.3588329"><ele>254.0</ele><time>2026-04-18T14:53:36.243Z</time></trkpt><trkpt lat="45.1296379" lon="8.3586284"><ele>254.0</ele><time>2026-04-18T14:53:37.242Z</time></trkpt><trkpt lat="45.1295883" lon="8.3584332"><ele>254.0</ele><time>2026-04-18T14:53:38.242Z</time></trkpt><trkpt lat="45.1295385" lon="8.3582482"><ele>254.0</ele><time>2026-04-18T14:53:39.243Z</time></trkpt><trkpt lat="45.129494" lon="8.3580558"><ele>254.0</ele><time>2026-04-18T14:53:40.242Z</time></trkpt><trkpt lat="45.1294562" lon="8.3578583"><ele>252.25</ele><time>2026-04-18T14:53:41.242Z</time></trkpt><trkpt lat="45.1294145" lon="8.3576587"><ele>250.5</ele><time>2026-04-18T14:53:42.242Z</time></trkpt><trkpt lat="45.1293848" lon="8.3574556"><ele>248.75</ele><time>2026-04-18T14:53:43.242Z</time></trkpt><trkpt lat="45.1293527" lon="8.3572476"><ele>247.0</ele><time>2026-04-18T14:53:44.243Z</time></trkpt><trkpt lat="45.1293256" lon="8.3570448"><ele>243.66666666666666</ele><time>2026-04-18T14:53:45.242Z</time></trkpt><trkpt lat="45.1293006" lon="8.3568317"><ele>240.33333333333331</ele><time>2026-04-18T14:53:46.243Z</time></trkpt><trkpt lat="45.1292793" lon="8.3566157"><ele>237.0</ele><time>2026-04-18T14:53:47.242Z</time></trkpt><trkpt lat="45.1292483" lon="8.3564041"><ele>235.25</ele><time>2026-04-18T14:53:48.242Z</time></trkpt><trkpt lat="45.1292242" lon="8.3561908"><ele>233.5</ele><time>2026-04-18T14:53:49.242Z</time></trkpt><trkpt lat="45.1292041" lon="8.3559823"><ele>231.75</ele><time>2026-04-18T14:53:50.242Z</time></trkpt><trkpt lat="45.1291828" lon="8.3557787"><ele>230.0</ele><time>2026-04-18T14:53:51.242Z</time></trkpt><trkpt lat="45.1291692" lon="8.3555818"><ele>229.75</ele><time>2026-04-18T14:53:52.242Z</time></trkpt><trkpt lat="45.1291511" lon="8.35538"><ele>229.5</ele><time>2026-04-18T14:53:53.242Z</time></trkpt><trkpt lat="45.1291369" lon="8.3551952"><ele>229.25</ele><time>2026-04-18T14:53:54.242Z</time></trkpt><trkpt lat="45.1291302" lon="8.3550337"><ele>229.0</ele><time>2026-04-18T14:53:55.242Z</time></trkpt><trkpt lat="45.1291259" lon="8.3549018"><ele>229.0</ele><time>2026-04-18T14:53:56.242Z</time></trkpt><trkpt lat="45.1291116" lon="8.3547299"><ele>229.0</ele><time>2026-04-18T14:53:58.243Z</time></trkpt><trkpt lat="45.1290672" lon="8.3546102"><ele>229.0</ele><time>2026-04-18T14:54:00.242Z</time></trkpt><trkpt lat="45.1289053" lon="8.3545872"><ele>229.0</ele><time>2026-04-18T14:54:02.243Z</time></trkpt><trkpt lat="45.1288314" lon="8.3545899"><ele>228.2</ele><time>2026-04-18T14:54:03.242Z</time></trkpt><trkpt lat="45.1287355" lon="8.3546037"><ele>227.39999999999998</ele><time>2026-04-18T14:54:04.242Z</time></trkpt><trkpt lat="45.1286145" lon="8.3545842"><ele>226.6</ele><time>2026-04-18T14:54:05.242Z</time></trkpt><trkpt lat="45.1285144" lon="8.3545616"><ele>225.8</ele><time>2026-04-18T14:54:06.242Z</time></trkpt><trkpt lat="45.1283923" lon="8.3546089"><ele>225.0</ele><time>2026-04-18T14:54:07.243Z</time></trkpt><trkpt lat="45.1282541" lon="8.354598"><ele>224.75</ele><time>2026-04-18T14:54:08.242Z</time></trkpt><trkpt lat="45.1281169" lon="8.3546027"><ele>224.5</ele><time>2026-04-18T14:54:09.242Z</time></trkpt><trkpt lat="45.1279768" lon="8.3545837"><ele>224.25</ele><time>2026-04-18T14:54:10.242Z</time></trkpt><trkpt lat="45.1278513" lon="8.3545718"><ele>224.0</ele><time>2026-04-18T14:54:11.242Z</time></trkpt><trkpt lat="45.1277469" lon="8.3545411"><ele>224.0</ele><time>2026-04-18T14:54:12.242Z</time></trkpt><trkpt lat="45.1276443" lon="8.354502"><ele>223.99999999999997</ele><time>2026-04-18T14:54:13.242Z</time></trkpt><trkpt lat="45.1275315" lon="8.3544604"><ele>223.99999999999997</ele><time>2026-04-18T14:54:15.243Z</time></trkpt><trkpt lat="45.1274575" lon="8.354426"><ele>224.0</ele><time>2026-04-18T14:54:17.242Z</time></trkpt><trkpt lat="45.1273506" lon="8.3544342"><ele>224.0</ele><time>2026-04-18T14:54:20.242Z</time></trkpt><trkpt lat="45.1272498" lon="8.3544353"><ele>222.39999999999998</ele><time>2026-04-18T14:54:22.242Z</time></trkpt><trkpt lat="45.1271511" lon="8.3544937"><ele>220.79999999999998</ele><time>2026-04-18T14:54:24.243Z</time></trkpt><trkpt lat="45.1270582" lon="8.3545296"><ele>219.20000000000002</ele><time>2026-04-18T14:54:25.242Z</time></trkpt><trkpt lat="45.1269563" lon="8.3545682"><ele>217.60000000000002</ele><time>2026-04-18T14:54:26.242Z</time></trkpt><trkpt lat="45.1268504" lon="8.3546215"><ele>216.0</ele><time>2026-04-18T14:54:27.242Z</time></trkpt><trkpt lat="45.1267328" lon="8.3546483"><ele>216.0</ele><time>2026-04-18T14:54:28.242Z</time></trkpt><trkpt lat="45.1266168" lon="8.3546689"><ele>216.0</ele><time>2026-04-18T14:54:29.243Z</time></trkpt><trkpt lat="45.1264979" lon="8.354708"><ele>216.0</ele><time>2026-04-18T14:54:30.242Z</time></trkpt><trkpt lat="45.1263812" lon="8.3547559"><ele>216.0</ele><time>2026-04-18T14:54:31.242Z</time></trkpt><trkpt lat="45.1262739" lon="8.35478"><ele>215.60000000000002</ele><time>2026-04-18T14:54:32.242Z</time></trkpt><trkpt lat="45.1261678" lon="8.3548316"><ele>215.20000000000002</ele><time>2026-04-18T14:54:33.242Z</time></trkpt><trkpt lat="45.1260748" lon="8.3549084"><ele>214.79999999999998</ele><time>2026-04-18T14:54:34.242Z</time></trkpt><trkpt lat="45.1259889" lon="8.355001"><ele>214.39999999999998</ele><time>2026-04-18T14:54:35.242Z</time></trkpt><trkpt lat="45.1259059" lon="8.3551042"><ele>214.0</ele><time>2026-04-18T14:54:36.242Z</time></trkpt><trkpt lat="45.1258214" lon="8.3552351"><ele>214.0</ele><time>2026-04-18T14:54:37.242Z</time></trkpt><trkpt lat="45.1257521" lon="8.355356"><ele>213.99999999999997</ele><time>2026-04-18T14:54:38.242Z</time></trkpt><trkpt lat="45.1256899" lon="8.3554718"><ele>213.99999999999997</ele><time>2026-04-18T14:54:39.242Z</time></trkpt><trkpt lat="45.1256274" lon="8.3556134"><ele>214.0</ele><time>2026-04-18T14:54:40.242Z</time></trkpt><trkpt lat="45.1255794" lon="8.3557617"><ele>214.0</ele><time>2026-04-18T14:54:41.243Z</time></trkpt><trkpt lat="45.1255212" lon="8.3559031"><ele>214.0</ele><time>2026-04-18T14:54:42.242Z</time></trkpt><trkpt lat="45.1254716" lon="8.3560281"><ele>213.99999999999997</ele><time>2026-04-18T14:54:43.242Z</time></trkpt><trkpt lat="45.1254214" lon="8.3561407"><ele>213.99999999999997</ele><time>2026-04-18T14:54:44.242Z</time></trkpt><trkpt lat="45.1253761" lon="8.3562418"><ele>214.0</ele><time>2026-04-18T14:54:45.243Z</time></trkpt><trkpt lat="45.1253266" lon="8.356323"><ele>214.0</ele><time>2026-04-18T14:54:46.242Z</time></trkpt><trkpt lat="45.1252013" lon="8.3563592"><ele>214.0</ele><time>2026-04-18T14:54:48.242Z</time></trkpt><trkpt lat="45.1251273" lon="8.3563161"><ele>213.99999999999997</ele><time>2026-04-18T14:54:49.242Z</time></trkpt><trkpt lat="45.1250552" lon="8.3562318"><ele>213.99999999999997</ele><time>2026-04-18T14:54:50.242Z</time></trkpt><trkpt lat="45.1249701" lon="8.3561533"><ele>214.0</ele><time>2026-04-18T14:54:51.242Z</time></trkpt><trkpt lat="45.1248712" lon="8.3560514"><ele>214.0</ele><time>2026-04-18T14:54:52.242Z</time></trkpt><trkpt lat="45.1247614" lon="8.3559297"><ele>213.75</ele><time>2026-04-18T14:54:53.242Z</time></trkpt><trkpt lat="45.1246461" lon="8.3558117"><ele>213.5</ele><time>2026-04-18T14:54:54.243Z</time></trkpt><trkpt lat="45.1245316" lon="8.3556971"><ele>213.25</ele><time>2026-04-18T14:54:55.242Z</time></trkpt><trkpt lat="45.1243995" lon="8.3555775"><ele>213.0</ele><time>2026-04-18T14:54:56.242Z</time></trkpt><trkpt lat="45.1242796" lon="8.3554544"><ele>213.0</ele><time>2026-04-18T14:54:57.242Z</time></trkpt><trkpt lat="45.1241804" lon="8.3553294"><ele>213.0</ele><time>2026-04-18T14:54:58.242Z</time></trkpt><trkpt lat="45.1240727" lon="8.3551908"><ele>213.0</ele><time>2026-04-18T14:54:59.242Z</time></trkpt><trkpt lat="45.123983" lon="8.35505"><ele>213.0</ele><time>2026-04-18T14:55:00.242Z</time></trkpt><trkpt lat="45.1239047" lon="8.3548981"><ele>214.5</ele><time>2026-04-18T14:55:01.243Z</time></trkpt><trkpt lat="45.1238224" lon="8.3547505"><ele>216.0</ele><time>2026-04-18T14:55:02.242Z</time></trkpt><trkpt lat="45.123742" lon="8.3546258"><ele>217.5</ele><time>2026-04-18T14:55:03.242Z</time></trkpt><trkpt lat="45.1236517" lon="8.354525"><ele>219.0</ele><time>2026-04-18T14:55:04.243Z</time></trkpt><trkpt lat="45.1235694" lon="8.3544444"><ele>219.0</ele><time>2026-04-18T14:55:05.243Z</time></trkpt><trkpt lat="45.1234635" lon="8.3543906"><ele>219.0</ele><time>2026-04-18T14:55:06.242Z</time></trkpt><trkpt lat="45.1233597" lon="8.3543515"><ele>219.0</ele><time>2026-04-18T14:55:07.242Z</time></trkpt><trkpt lat="45.1232411" lon="8.3543195"><ele>219.0</ele><time>2026-04-18T14:55:08.242Z</time></trkpt><trkpt lat="45.1231229" lon="8.3542921"><ele>220.5</ele><time>2026-04-18T14:55:09.243Z</time></trkpt><trkpt lat="45.1230098" lon="8.35427"><ele>222.0</ele><time>2026-04-18T14:55:10.242Z</time></trkpt><trkpt lat="45.1228884" lon="8.3542681"><ele>223.5</ele><time>2026-04-18T14:55:11.243Z</time></trkpt><trkpt lat="45.1227735" lon="8.3542912"><ele>225.0</ele><time>2026-04-18T14:55:12.242Z</time></trkpt><trkpt lat="45.1226522" lon="8.3543379"><ele>225.0</ele><time>2026-04-18T14:55:13.242Z</time></trkpt><trkpt lat="45.1225192" lon="8.3543687"><ele>225.0</ele><time>2026-04-18T14:55:14.242Z</time></trkpt><trkpt lat="45.1223803" lon="8.3544028"><ele>225.0</ele><time>2026-04-18T14:55:15.242Z</time></trkpt><trkpt lat="45.122239" lon="8.3544341"><ele>225.0</ele><time>2026-04-18T14:55:16.242Z</time></trkpt><trkpt lat="45.122103" lon="8.3544669"><ele>225.6</ele><time>2026-04-18T14:55:17.242Z</time></trkpt><trkpt lat="45.1219879" lon="8.3544911"><ele>226.2</ele><time>2026-04-18T14:55:18.242Z</time></trkpt><trkpt lat="45.1218768" lon="8.3544939"><ele>226.8</ele><time>2026-04-18T14:55:19.242Z</time></trkpt><trkpt lat="45.1217746" lon="8.3544803"><ele>227.4</ele><time>2026-04-18T14:55:20.242Z</time></trkpt><trkpt lat="45.1216836" lon="8.3544504"><ele>228.0</ele><time>2026-04-18T14:55:21.243Z</time></trkpt><trkpt lat="45.1215739" lon="8.3544178"><ele>227.8</ele><time>2026-04-18T14:55:22.243Z</time></trkpt><trkpt lat="45.1214755" lon="8.3543882"><ele>227.60000000000002</ele><time>2026-04-18T14:55:23.242Z</time></trkpt><trkpt lat="45.1213907" lon="8.3543625"><ele>227.39999999999998</ele><time>2026-04-18T14:55:24.243Z</time></trkpt><trkpt lat="45.1212851" lon="8.3543644"><ele>227.2</ele><time>2026-04-18T14:55:26.243Z</time></trkpt><trkpt lat="45.1212399" lon="8.3544422"><ele>227.0</ele><time>2026-04-18T14:55:28.243Z</time></trkpt><trkpt lat="45.1212343" lon="8.3546058"><ele>227.66666666666669</ele><time>2026-04-18T14:55:30.243Z</time></trkpt><trkpt lat="45.1212441" lon="8.3547079"><ele>228.33333333333334</ele><time>2026-04-18T14:55:31.243Z</time></trkpt><trkpt lat="45.1212589" lon="8.3548092"><ele>229.0</ele><time>2026-04-18T14:55:32.242Z</time></trkpt><trkpt lat="45.1212732" lon="8.3549279"><ele>229.66666666666669</ele><time>2026-04-18T14:55:33.242Z</time></trkpt><trkpt lat="45.1212855" lon="8.3550478"><ele>230.33333333333334</ele><time>2026-04-18T14:55:34.242Z</time></trkpt><trkpt lat="45.1213293" lon="8.3551738"><ele>231.0</ele><time>2026-04-18T14:55:36.242Z</time></trkpt><trkpt lat="45.1213549" lon="8.3552813"><ele>231.0</ele><time>2026-04-18T14:55:38.243Z</time></trkpt><trkpt lat="45.1212552" lon="8.3553256"><ele>231.00000000000003</ele><time>2026-04-18T14:55:40.242Z</time></trkpt><trkpt lat="45.1211601" lon="8.3553202"><ele>231.00000000000003</ele><time>2026-04-18T14:55:41.242Z</time></trkpt><trkpt lat="45.1210886" lon="8.3552955"><ele>231.0</ele><time>2026-04-18T14:55:42.242Z</time></trkpt><trkpt lat="45.1209925" lon="8.3552879"><ele>231.0</ele><time>2026-04-18T14:55:43.242Z</time></trkpt><trkpt lat="45.1208804" lon="8.3553047"><ele>231.0</ele><time>2026-04-18T14:55:44.242Z</time></trkpt><trkpt lat="45.1207705" lon="8.3553169"><ele>231.0</ele><time>2026-04-18T14:55:45.243Z</time></trkpt><trkpt lat="45.1206445" lon="8.3553987"><ele>231.0</ele><time>2026-04-18T14:55:46.242Z</time></trkpt><trkpt lat="45.1205276" lon="8.3554623"><ele>231.0</ele><time>2026-04-18T14:55:47.243Z</time></trkpt><trkpt lat="45.1204092" lon="8.3555223"><ele>229.25</ele><time>2026-04-18T14:55:48.242Z</time></trkpt><trkpt lat="45.1202848" lon="8.3555764"><ele>227.5</ele><time>2026-04-18T14:55:49.242Z</time></trkpt><trkpt lat="45.1201551" lon="8.3556242"><ele>225.75</ele><time>2026-04-18T14:55:50.242Z</time></trkpt><trkpt lat="45.1200257" lon="8.3556553"><ele>224.0</ele><time>2026-04-18T14:55:51.242Z</time></trkpt><trkpt lat="45.1198798" lon="8.3556835"><ele>223.25</ele><time>2026-04-18T14:55:52.242Z</time></trkpt><trkpt lat="45.1197329" lon="8.3556893"><ele>222.5</ele><time>2026-04-18T14:55:53.243Z</time></trkpt><trkpt lat="45.1195857" lon="8.355695"><ele>221.75</ele><time>2026-04-18T14:55:54.242Z</time></trkpt><trkpt lat="45.1194488" lon="8.3556973"><ele>221.0</ele><time>2026-04-18T14:55:55.242Z</time></trkpt><trkpt lat="45.1193226" lon="8.3556914"><ele>221.0</ele><time>2026-04-18T14:55:56.243Z</time></trkpt><trkpt lat="45.1192021" lon="8.3556919"><ele>221.00000000000003</ele><time>2026-04-18T14:55:57.243Z</time></trkpt><trkpt lat="45.1190945" lon="8.3556663"><ele>221.00000000000003</ele><time>2026-04-18T14:55:58.242Z</time></trkpt><trkpt lat="45.1189894" lon="8.3556193"><ele>221.0</ele><time>2026-04-18T14:55:59.243Z</time></trkpt><trkpt lat="45.1189036" lon="8.3555237"><ele>221.0</ele><time>2026-04-18T14:56:00.242Z</time></trkpt><trkpt lat="45.1188056" lon="8.3554225"><ele>219.25</ele><time>2026-04-18T14:56:01.242Z</time></trkpt><trkpt lat="45.1187045" lon="8.3553332"><ele>217.5</ele><time>2026-04-18T14:56:02.242Z</time></trkpt><trkpt lat="45.1185985" lon="8.3552699"><ele>215.75</ele><time>2026-04-18T14:56:03.243Z</time></trkpt><trkpt lat="45.118478" lon="8.3552301"><ele>214.0</ele><time>2026-04-18T14:56:04.242Z</time></trkpt><trkpt lat="45.1183548" lon="8.3552051"><ele>212.5</ele><time>2026-04-18T14:56:05.242Z</time></trkpt><trkpt lat="45.1182203" lon="8.355184"><ele>211.0</ele><time>2026-04-18T14:56:06.242Z</time></trkpt><trkpt lat="45.1181077" lon="8.3551697"><ele>209.5</ele><time>2026-04-18T14:56:07.242Z</time></trkpt><trkpt lat="45.117991" lon="8.3551458"><ele>208.0</ele><time>2026-04-18T14:56:08.242Z</time></trkpt><trkpt lat="45.117881" lon="8.3551215"><ele>208.0</ele><time>2026-04-18T14:56:09.242Z</time></trkpt><trkpt lat="45.1177833" lon="8.3550984"><ele>208.0</ele><time>2026-04-18T14:56:10.242Z</time></trkpt><trkpt lat="45.1176855" lon="8.3550709"><ele>208.0</ele><time>2026-04-18T14:56:11.242Z</time></trkpt><trkpt lat="45.1175861" lon="8.3550328"><ele>208.0</ele><time>2026-04-18T14:56:12.243Z</time></trkpt><trkpt lat="45.1174844" lon="8.3549769"><ele>208.0</ele><time>2026-04-18T14:56:13.242Z</time></trkpt><trkpt lat="45.1173822" lon="8.3548966"><ele>206.5</ele><time>2026-04-18T14:56:14.243Z</time></trkpt><trkpt lat="45.1172622" lon="8.3548175"><ele>205.0</ele><time>2026-04-18T14:56:15.242Z</time></trkpt><trkpt lat="45.1171414" lon="8.35472"><ele>203.5</ele><time>2026-04-18T14:56:16.243Z</time></trkpt><trkpt lat="45.1170143" lon="8.3546168"><ele>202.0</ele><time>2026-04-18T14:56:17.242Z</time></trkpt><trkpt lat="45.1168847" lon="8.3545187"><ele>202.0</ele><time>2026-04-18T14:56:18.242Z</time></trkpt><trkpt lat="45.116761" lon="8.3544123"><ele>202.0</ele><time>2026-04-18T14:56:19.243Z</time></trkpt><trkpt lat="45.1166251" lon="8.3543058"><ele>202.0</ele><time>2026-04-18T14:56:20.242Z</time></trkpt><trkpt lat="45.1164833" lon="8.3542092"><ele>198.66666666666666</ele><time>2026-04-18T14:56:21.242Z</time></trkpt><trkpt lat="45.1163474" lon="8.3541048"><ele>195.33333333333331</ele><time>2026-04-18T14:56:22.243Z</time></trkpt><trkpt lat="45.116218" lon="8.3539955"><ele>192.0</ele><time>2026-04-18T14:56:23.242Z</time></trkpt><trkpt lat="45.1160846" lon="8.3538921"><ele>192.33333333333331</ele><time>2026-04-18T14:56:24.243Z</time></trkpt><trkpt lat="45.1159466" lon="8.3537898"><ele>192.66666666666666</ele><time>2026-04-18T14:56:25.243Z</time></trkpt><trkpt lat="45.115805" lon="8.3536808"><ele>193.0</ele><time>2026-04-18T14:56:26.242Z</time></trkpt><trkpt lat="45.1156702" lon="8.3535742"><ele>192.25</ele><time>2026-04-18T14:56:27.242Z</time></trkpt><trkpt lat="45.1155478" lon="8.3534747"><ele>191.5</ele><time>2026-04-18T14:56:28.243Z</time></trkpt><trkpt lat="45.1154324" lon="8.3533758"><ele>190.75</ele><time>2026-04-18T14:56:29.243Z</time></trkpt><trkpt lat="45.1153217" lon="8.3532792"><ele>190.0</ele><time>2026-04-18T14:56:30.242Z</time></trkpt><trkpt lat="45.1152005" lon="8.353188"><ele>190.0</ele><time>2026-04-18T14:56:31.243Z</time></trkpt><trkpt lat="45.1150716" lon="8.3530937"><ele>190.0</ele><time>2026-04-18T14:56:32.242Z</time></trkpt><trkpt lat="45.1149458" lon="8.3530001"><ele>190.0</ele><time>2026-04-18T14:56:33.243Z</time></trkpt><trkpt lat="45.1148229" lon="8.3528991"><ele>190.0</ele><time>2026-04-18T14:56:34.243Z</time></trkpt><trkpt lat="45.1146897" lon="8.3527933"><ele>187.25</ele><time>2026-04-18T14:56:35.242Z</time></trkpt><trkpt lat="45.114561" lon="8.3526929"><ele>184.5</ele><time>2026-04-18T14:56:36.242Z</time></trkpt><trkpt lat="45.1144334" lon="8.3525973"><ele>181.75</ele><time>2026-04-18T14:56:37.242Z</time></trkpt><trkpt lat="45.1143104" lon="8.3525007"><ele>179.0</ele><time>2026-04-18T14:56:38.242Z</time></trkpt><trkpt lat="45.1141888" lon="8.3524061"><ele>178.25</ele><time>2026-04-18T14:56:39.242Z</time></trkpt><trkpt lat="45.1140634" lon="8.352318"><ele>177.5</ele><time>2026-04-18T14:56:40.242Z</time></trkpt><trkpt lat="45.1139512" lon="8.3522336"><ele>176.75</ele><time>2026-04-18T14:56:41.242Z</time></trkpt><trkpt lat="45.1138286" lon="8.3521553"><ele>176.0</ele><time>2026-04-18T14:56:42.243Z</time></trkpt><trkpt lat="45.1136961" lon="8.3521008"><ele>174.25</ele><time>2026-04-18T14:56:43.243Z</time></trkpt><trkpt lat="45.1135489" lon="8.3520635"><ele>172.5</ele><time>2026-04-18T14:56:44.242Z</time></trkpt><trkpt lat="45.1134042" lon="8.3520429"><ele>170.75</ele><time>2026-04-18T14:56:45.242Z</time></trkpt><trkpt lat="45.1132533" lon="8.3520207"><ele>169.0</ele><time>2026-04-18T14:56:46.243Z</time></trkpt><trkpt lat="45.1131026" lon="8.3520011"><ele>167.25</ele><time>2026-04-18T14:56:47.243Z</time></trkpt><trkpt lat="45.1129576" lon="8.3519992"><ele>165.5</ele><time>2026-04-18T14:56:48.242Z</time></trkpt><trkpt lat="45.1128261" lon="8.3520045"><ele>163.75</ele><time>2026-04-18T14:56:49.243Z</time></trkpt><trkpt lat="45.1126979" lon="8.3520181"><ele>162.0</ele><time>2026-04-18T14:56:50.243Z</time></trkpt><trkpt lat="45.1125707" lon="8.3520427"><ele>162.0</ele><time>2026-04-18T14:56:51.242Z</time></trkpt><trkpt lat="45.1124577" lon="8.3520928"><ele>162.0</ele><time>2026-04-18T14:56:52.243Z</time></trkpt><trkpt lat="45.1123474" lon="8.3521591"><ele>162.0</ele><time>2026-04-18T14:56:53.242Z</time></trkpt><trkpt lat="45.1122414" lon="8.352253"><ele>162.0</ele><time>2026-04-18T14:56:54.242Z</time></trkpt><trkpt lat="45.1121288" lon="8.3523689"><ele>161.0</ele><time>2026-04-18T14:56:55.243Z</time></trkpt><trkpt lat="45.1120131" lon="8.3524938"><ele>160.0</ele><time>2026-04-18T14:56:56.242Z</time></trkpt><trkpt lat="45.1119028" lon="8.3526107"><ele>159.0</ele><time>2026-04-18T14:56:57.243Z</time></trkpt><trkpt lat="45.1117898" lon="8.3527194"><ele>158.0</ele><time>2026-04-18T14:56:58.243Z</time></trkpt><trkpt lat="45.111688" lon="8.3528243"><ele>158.0</ele><time>2026-04-18T14:56:59.242Z</time></trkpt><trkpt lat="45.1115781" lon="8.3529537"><ele>158.0</ele><time>2026-04-18T14:57:00.242Z</time></trkpt><trkpt lat="45.1114679" lon="8.3530736"><ele>158.0</ele><time>2026-04-18T14:57:01.242Z</time></trkpt><trkpt lat="45.1113548" lon="8.3531907"><ele>158.0</ele><time>2026-04-18T14:57:02.243Z</time></trkpt><trkpt lat="45.1112374" lon="8.3533277"><ele>155.33333333333331</ele><time>2026-04-18T14:57:03.242Z</time></trkpt><trkpt lat="45.111118" lon="8.3534687"><ele>152.66666666666666</ele><time>2026-04-18T14:57:04.242Z</time></trkpt><trkpt lat="45.1109977" lon="8.3535979"><ele>150.0</ele><time>2026-04-18T14:57:05.242Z</time></trkpt><trkpt lat="45.1108789" lon="8.3537174"><ele>150.0</ele><time>2026-04-18T14:57:06.243Z</time></trkpt><trkpt lat="45.1107609" lon="8.3538201"><ele>150.0</ele><time>2026-04-18T14:57:07.243Z</time></trkpt><trkpt lat="45.1106395" lon="8.3538999"><ele>150.0</ele><time>2026-04-18T14:57:08.243Z</time></trkpt><trkpt lat="45.1105156" lon="8.3539342"><ele>150.0</ele><time>2026-04-18T14:57:09.242Z</time></trkpt><trkpt lat="45.1103916" lon="8.3539554"><ele>149.6</ele><time>2026-04-18T14:57:10.242Z</time></trkpt><trkpt lat="45.1102782" lon="8.3539544"><ele>149.2</ele><time>2026-04-18T14:57:11.242Z</time></trkpt><trkpt lat="45.1101736" lon="8.3539281"><ele>148.8</ele><time>2026-04-18T14:57:12.242Z</time></trkpt><trkpt lat="45.1100712" lon="8.3538979"><ele>148.4</ele><time>2026-04-18T14:57:13.242Z</time></trkpt><trkpt lat="45.1099674" lon="8.3538615"><ele>148.0</ele><time>2026-04-18T14:57:14.243Z</time></trkpt><trkpt lat="45.1098525" lon="8.3538251"><ele>148.0</ele><time>2026-04-18T14:57:15.242Z</time></trkpt><trkpt lat="45.1097332" lon="8.3537936"><ele>148.0</ele><time>2026-04-18T14:57:16.242Z</time></trkpt><trkpt lat="45.1096084" lon="8.3537622"><ele>148.0</ele><time>2026-04-18T14:57:17.242Z</time></trkpt><trkpt lat="45.1094687" lon="8.3537223"><ele>148.0</ele><time>2026-04-18T14:57:18.242Z</time></trkpt><trkpt lat="45.1093162" lon="8.353664"><ele>148.0</ele><time>2026-04-18T14:57:19.243Z</time></trkpt><trkpt lat="45.1091562" lon="8.3536123"><ele>148.0</ele><time>2026-04-18T14:57:20.242Z</time></trkpt><trkpt lat="45.1089893" lon="8.3535529"><ele>148.0</ele><time>2026-04-18T14:57:21.242Z</time></trkpt><trkpt lat="45.1088377" lon="8.3535052"><ele>149.33333333333334</ele><time>2026-04-18T14:57:22.243Z</time></trkpt><trkpt lat="45.1086765" lon="8.3534433"><ele>150.66666666666666</ele><time>2026-04-18T14:57:23.242Z</time></trkpt><trkpt lat="45.1085271" lon="8.3533968"><ele>152.0</ele><time>2026-04-18T14:57:24.242Z</time></trkpt><trkpt lat="45.1083884" lon="8.353348"><ele>152.0</ele><time>2026-04-18T14:57:25.242Z</time></trkpt><trkpt lat="45.1082636" lon="8.3533026"><ele>152.0</ele><time>2026-04-18T14:57:26.242Z</time></trkpt><trkpt lat="45.1081458" lon="8.3532662"><ele>152.0</ele><time>2026-04-18T14:57:27.243Z</time></trkpt><trkpt lat="45.1080479" lon="8.3532275"><ele>152.0</ele><time>2026-04-18T14:57:28.242Z</time></trkpt><trkpt lat="45.1079577" lon="8.353211"><ele>152.0</ele><time>2026-04-18T14:57:29.243Z</time></trkpt><trkpt lat="45.1078867" lon="8.3531869"><ele>152.16666666666666</ele><time>2026-04-18T14:57:30.242Z</time></trkpt><trkpt lat="45.1078222" lon="8.3531711"><ele>152.33333333333331</ele><time>2026-04-18T14:57:31.243Z</time></trkpt><trkpt lat="45.1077585" lon="8.3531317"><ele>152.5</ele><time>2026-04-18T14:57:34.243Z</time></trkpt><trkpt lat="45.1076995" lon="8.3530982"><ele>152.66666666666666</ele><time>2026-04-18T14:57:39.243Z</time></trkpt><trkpt lat="45.107662" lon="8.3530176"><ele>152.83333333333334</ele><time>2026-04-18T14:57:41.242Z</time></trkpt><trkpt lat="45.1076608" lon="8.352843"><ele>153.0</ele><time>2026-04-18T14:57:43.242Z</time></trkpt><trkpt lat="45.1076732" lon="8.3527136"><ele>153.0</ele><time>2026-04-18T14:57:44.242Z</time></trkpt><trkpt lat="45.1076848" lon="8.3525743"><ele>153.0</ele><time>2026-04-18T14:57:45.242Z</time></trkpt><trkpt lat="45.1076842" lon="8.3524108"><ele>153.0</ele><time>2026-04-18T14:57:46.243Z</time></trkpt><trkpt lat="45.1076862" lon="8.3522247"><ele>153.0</ele><time>2026-04-18T14:57:47.242Z</time></trkpt><trkpt lat="45.1076943" lon="8.3520282"><ele>152.66666666666666</ele><time>2026-04-18T14:57:48.242Z</time></trkpt><trkpt lat="45.1076958" lon="8.3518162"><ele>152.33333333333331</ele><time>2026-04-18T14:57:49.243Z</time></trkpt><trkpt lat="45.107699" lon="8.3515868"><ele>152.0</ele><time>2026-04-18T14:57:50.242Z</time></trkpt><trkpt lat="45.1077071" lon="8.3513554"><ele>152.0</ele><time>2026-04-18T14:57:51.242Z</time></trkpt><trkpt lat="45.107714" lon="8.3511332"><ele>152.0</ele><time>2026-04-18T14:57:52.243Z</time></trkpt><trkpt lat="45.1077194" lon="8.3509005"><ele>152.0</ele><time>2026-04-18T14:57:53.243Z</time></trkpt><trkpt lat="45.1077222" lon="8.350669"><ele>151.66666666666666</ele><time>2026-04-18T14:57:54.242Z</time></trkpt><trkpt lat="45.1077263" lon="8.350434"><ele>151.33333333333334</ele><time>2026-04-18T14:57:55.242Z</time></trkpt><trkpt lat="45.107731" lon="8.3501911"><ele>151.0</ele><time>2026-04-18T14:57:56.242Z</time></trkpt><trkpt lat="45.1077388" lon="8.3499498"><ele>151.0</ele><time>2026-04-18T14:57:57.242Z</time></trkpt><trkpt lat="45.1077421" lon="8.3497097"><ele>151.0</ele><time>2026-04-18T14:57:58.242Z</time></trkpt><trkpt lat="45.1077486" lon="8.3494682"><ele>151.0</ele><time>2026-04-18T14:57:59.242Z</time></trkpt><trkpt lat="45.1077553" lon="8.3492382"><ele>151.0</ele><time>2026-04-18T14:58:00.243Z</time></trkpt><trkpt lat="45.1077601" lon="8.3490128"><ele>151.0</ele><time>2026-04-18T14:58:01.242Z</time></trkpt><trkpt lat="45.1077604" lon="8.3487928"><ele>151.0</ele><time>2026-04-18T14:58:02.242Z</time></trkpt><trkpt lat="45.1077637" lon="8.3485776"><ele>150.66666666666669</ele><time>2026-04-18T14:58:03.242Z</time></trkpt><trkpt lat="45.1077669" lon="8.3483529"><ele>150.33333333333334</ele><time>2026-04-18T14:58:04.243Z</time></trkpt><trkpt lat="45.1077687" lon="8.3481274"><ele>150.0</ele><time>2026-04-18T14:58:05.243Z</time></trkpt><trkpt lat="45.1077723" lon="8.347906"><ele>150.0</ele><time>2026-04-18T14:58:06.242Z</time></trkpt><trkpt lat="45.1077753" lon="8.347679"><ele>150.0</ele><time>2026-04-18T14:58:07.242Z</time></trkpt><trkpt lat="45.1077764" lon="8.347445"><ele>150.0</ele><time>2026-04-18T14:58:08.243Z</time></trkpt><trkpt lat="45.1077858" lon="8.3472071"><ele>149.66666666666666</ele><time>2026-04-18T14:58:09.243Z</time></trkpt><trkpt lat="45.1077907" lon="8.3469713"><ele>149.33333333333331</ele><time>2026-04-18T14:58:10.242Z</time></trkpt><trkpt lat="45.1077974" lon="8.3467303"><ele>149.0</ele><time>2026-04-18T14:58:11.243Z</time></trkpt><trkpt lat="45.1078006" lon="8.3464879"><ele>147.66666666666666</ele><time>2026-04-18T14:58:12.242Z</time></trkpt><trkpt lat="45.1078006" lon="8.3462395"><ele>146.33333333333334</ele><time>2026-04-18T14:58:13.242Z</time></trkpt><trkpt lat="45.1078017" lon="8.3459965"><ele>145.0</ele><time>2026-04-18T14:58:14.243Z</time></trkpt><trkpt lat="45.1078087" lon="8.3457527"><ele>144.66666666666669</ele><time>2026-04-18T14:58:15.243Z</time></trkpt><trkpt lat="45.1078074" lon="8.3455131"><ele>144.33333333333334</ele><time>2026-04-18T14:58:16.243Z</time></trkpt><trkpt lat="45.1078118" lon="8.345272"><ele>144.0</ele><time>2026-04-18T14:58:17.242Z</time></trkpt><trkpt lat="45.1078198" lon="8.3450338"><ele>144.0</ele><time>2026-04-18T14:58:18.242Z</time></trkpt><trkpt lat="45.1078226" lon="8.3447957"><ele>144.0</ele><time>2026-04-18T14:58:19.242Z</time></trkpt><trkpt lat="45.1078348" lon="8.344551"><ele>144.0</ele><time>2026-04-18T14:58:20.242Z</time></trkpt><trkpt lat="45.1078365" lon="8.3443173"><ele>143.66666666666666</ele><time>2026-04-18T14:58:21.243Z</time></trkpt><trkpt lat="45.1078451" lon="8.3440802"><ele>143.33333333333331</ele><time>2026-04-18T14:58:22.242Z</time></trkpt><trkpt lat="45.1078493" lon="8.3438375"><ele>143.0</ele><time>2026-04-18T14:58:23.243Z</time></trkpt><trkpt lat="45.1078523" lon="8.3436073"><ele>143.0</ele><time>2026-04-18T14:58:24.243Z</time></trkpt><trkpt lat="45.1078608" lon="8.3433754"><ele>143.0</ele><time>2026-04-18T14:58:25.242Z</time></trkpt><trkpt lat="45.1078732" lon="8.3431379"><ele>143.0</ele><time>2026-04-18T14:58:26.243Z</time></trkpt><trkpt lat="45.1078759" lon="8.3429047"><ele>143.0</ele><time>2026-04-18T14:58:27.243Z</time></trkpt><trkpt lat="45.1078841" lon="8.3426696"><ele>143.0</ele><time>2026-04-18T14:58:28.243Z</time></trkpt><trkpt lat="45.1078862" lon="8.3424343"><ele>143.0</ele><time>2026-04-18T14:58:29.242Z</time></trkpt><trkpt lat="45.1078926" lon="8.3422025"><ele>143.0</ele><time>2026-04-18T14:58:30.242Z</time></trkpt><trkpt lat="45.1078951" lon="8.3419688"><ele>143.0</ele><time>2026-04-18T14:58:31.243Z</time></trkpt><trkpt lat="45.1078953" lon="8.3417399"><ele>143.0</ele><time>2026-04-18T14:58:32.243Z</time></trkpt><trkpt lat="45.1078966" lon="8.3415134"><ele>141.66666666666666</ele><time>2026-04-18T14:58:33.242Z</time></trkpt><trkpt lat="45.1079035" lon="8.3412779"><ele>140.33333333333334</ele><time>2026-04-18T14:58:34.242Z</time></trkpt><trkpt lat="45.1079096" lon="8.3410513"><ele>139.0</ele><time>2026-04-18T14:58:35.242Z</time></trkpt><trkpt lat="45.1079247" lon="8.340811"><ele>139.0</ele><time>2026-04-18T14:58:36.242Z</time></trkpt><trkpt lat="45.107931" lon="8.3405743"><ele>139.0</ele><time>2026-04-18T14:58:37.242Z</time></trkpt><trkpt lat="45.1079416" lon="8.3403448"><ele>139.0</ele><time>2026-04-18T14:58:38.242Z</time></trkpt><trkpt lat="45.1079482" lon="8.3401212"><ele>139.0</ele><time>2026-04-18T14:58:39.243Z</time></trkpt><trkpt lat="45.1079563" lon="8.3398922"><ele>139.0</ele><time>2026-04-18T14:58:40.242Z</time></trkpt><trkpt lat="45.1079681" lon="8.3396675"><ele>139.0</ele><time>2026-04-18T14:58:41.242Z</time></trkpt><trkpt lat="45.1079804" lon="8.3394407"><ele>139.0</ele><time>2026-04-18T14:58:42.243Z</time></trkpt><trkpt lat="45.1080042" lon="8.3392097"><ele>139.0</ele><time>2026-04-18T14:58:43.242Z</time></trkpt><trkpt lat="45.108036" lon="8.3389888"><ele>139.0</ele><time>2026-04-18T14:58:44.243Z</time></trkpt><trkpt lat="45.1080852" lon="8.3387725"><ele>138.66666666666669</ele><time>2026-04-18T14:58:45.242Z</time></trkpt><trkpt lat="45.1081309" lon="8.3385624"><ele>138.33333333333334</ele><time>2026-04-18T14:58:46.242Z</time></trkpt><trkpt lat="45.1081833" lon="8.3383476"><ele>138.0</ele><time>2026-04-18T14:58:47.242Z</time></trkpt><trkpt lat="45.1082387" lon="8.338147"><ele>138.0</ele><time>2026-04-18T14:58:48.242Z</time></trkpt><trkpt lat="45.1082899" lon="8.3379495"><ele>138.0</ele><time>2026-04-18T14:58:49.242Z</time></trkpt><trkpt lat="45.1083395" lon="8.3377689"><ele>138.0</ele><time>2026-04-18T14:58:50.243Z</time></trkpt><trkpt lat="45.1083842" lon="8.3375968"><ele>138.0</ele><time>2026-04-18T14:58:51.243Z</time></trkpt><trkpt lat="45.1084345" lon="8.3374239"><ele>138.0</ele><time>2026-04-18T14:58:52.243Z</time></trkpt><trkpt lat="45.1084768" lon="8.3372482"><ele>138.0</ele><time>2026-04-18T14:58:53.243Z</time></trkpt><trkpt lat="45.1085079" lon="8.3370519"><ele>138.0</ele><time>2026-04-18T14:58:54.243Z</time></trkpt><trkpt lat="45.1085377" lon="8.3368526"><ele>138.0</ele><time>2026-04-18T14:58:55.242Z</time></trkpt><trkpt lat="45.1085591" lon="8.3366267"><ele>138.0</ele><time>2026-04-18T14:58:56.242Z</time></trkpt><trkpt lat="45.1085623" lon="8.336412"><ele>138.0</ele><time>2026-04-18T14:58:57.243Z</time></trkpt><trkpt lat="45.1085603" lon="8.3362037"><ele>138.0</ele><time>2026-04-18T14:58:58.243Z</time></trkpt><trkpt lat="45.1085466" lon="8.3359899"><ele>138.0</ele><time>2026-04-18T14:58:59.243Z</time></trkpt><trkpt lat="45.1085149" lon="8.3357889"><ele>138.0</ele><time>2026-04-18T14:59:00.242Z</time></trkpt><trkpt lat="45.1084791" lon="8.3355695"><ele>138.0</ele><time>2026-04-18T14:59:01.242Z</time></trkpt><trkpt lat="45.1084313" lon="8.3353543"><ele>138.0</ele><time>2026-04-18T14:59:02.242Z</time></trkpt><trkpt lat="45.1083854" lon="8.3351289"><ele>138.0</ele><time>2026-04-18T14:59:03.242Z</time></trkpt><trkpt lat="45.1083366" lon="8.3349131"><ele>138.0</ele><time>2026-04-18T14:59:04.242Z</time></trkpt><trkpt lat="45.1082925" lon="8.3346857"><ele>137.66666666666666</ele><time>2026-04-18T14:59:05.242Z</time></trkpt><trkpt lat="45.1082351" lon="8.3344515"><ele>137.33333333333331</ele><time>2026-04-18T14:59:06.242Z</time></trkpt><trkpt lat="45.1081809" lon="8.334227"><ele>137.0</ele><time>2026-04-18T14:59:07.242Z</time></trkpt><trkpt lat="45.1081392" lon="8.3339943"><ele>136.66666666666666</ele><time>2026-04-18T14:59:08.242Z</time></trkpt><trkpt lat="45.1080953" lon="8.3337705"><ele>136.33333333333334</ele><time>2026-04-18T14:59:09.243Z</time></trkpt><trkpt lat="45.1080536" lon="8.3335411"><ele>136.0</ele><time>2026-04-18T14:59:10.243Z</time></trkpt><trkpt lat="45.1080032" lon="8.3333146"><ele>136.0</ele><time>2026-04-18T14:59:11.242Z</time></trkpt><trkpt lat="45.1079634" lon="8.3330854"><ele>136.0</ele><time>2026-04-18T14:59:12.242Z</time></trkpt><trkpt lat="45.1079151" lon="8.3328471"><ele>136.0</ele><time>2026-04-18T14:59:13.242Z</time></trkpt><trkpt lat="45.1078696" lon="8.3326155"><ele>136.0</ele><time>2026-04-18T14:59:14.242Z</time></trkpt><trkpt lat="45.107823" lon="8.3323836"><ele>136.0</ele><time>2026-04-18T14:59:15.242Z</time></trkpt><trkpt lat="45.1077697" lon="8.3321589"><ele>136.0</ele><time>2026-04-18T14:59:16.242Z</time></trkpt><trkpt lat="45.107726" lon="8.3319261"><ele>136.0</ele><time>2026-04-18T14:59:17.242Z</time></trkpt><trkpt lat="45.1076897" lon="8.3317054"><ele>136.0</ele><time>2026-04-18T14:59:18.242Z</time></trkpt><trkpt lat="45.1076476" lon="8.331495"><ele>136.0</ele><time>2026-04-18T14:59:19.242Z</time></trkpt><trkpt lat="45.1076018" lon="8.3312802"><ele>135.66666666666669</ele><time>2026-04-18T14:59:20.242Z</time></trkpt><trkpt lat="45.1075576" lon="8.3310639"><ele>135.33333333333334</ele><time>2026-04-18T14:59:21.242Z</time></trkpt><trkpt lat="45.1075116" lon="8.3308538"><ele>135.0</ele><time>2026-04-18T14:59:22.242Z</time></trkpt><trkpt lat="45.1074629" lon="8.3306393"><ele>135.33333333333334</ele><time>2026-04-18T14:59:23.242Z</time></trkpt><trkpt lat="45.1074187" lon="8.3304282"><ele>135.66666666666669</ele><time>2026-04-18T14:59:24.242Z</time></trkpt><trkpt lat="45.1073748" lon="8.3302148"><ele>136.0</ele><time>2026-04-18T14:59:25.242Z</time></trkpt><trkpt lat="45.1073283" lon="8.3300018"><ele>138.33333333333334</ele><time>2026-04-18T14:59:26.242Z</time></trkpt><trkpt lat="45.107279" lon="8.3298022"><ele>140.66666666666666</ele><time>2026-04-18T14:59:27.242Z</time></trkpt><trkpt lat="45.1072367" lon="8.3296014"><ele>143.0</ele><time>2026-04-18T14:59:28.242Z</time></trkpt><trkpt lat="45.1071916" lon="8.32939"><ele>143.66666666666666</ele><time>2026-04-18T14:59:29.242Z</time></trkpt><trkpt lat="45.1071411" lon="8.3291852"><ele>144.33333333333334</ele><time>2026-04-18T14:59:30.242Z</time></trkpt><trkpt lat="45.1070992" lon="8.328972"><ele>145.0</ele><time>2026-04-18T14:59:31.242Z</time></trkpt><trkpt lat="45.1070566" lon="8.3287608"><ele>145.0</ele><time>2026-04-18T14:59:32.242Z</time></trkpt><trkpt lat="45.1070113" lon="8.3285573"><ele>145.0</ele><time>2026-04-18T14:59:33.242Z</time></trkpt><trkpt lat="45.1069666" lon="8.3283372"><ele>145.0</ele><time>2026-04-18T14:59:34.242Z</time></trkpt><trkpt lat="45.1069244" lon="8.3281244"><ele>144.0</ele><time>2026-04-18T14:59:35.243Z</time></trkpt><trkpt lat="45.1068854" lon="8.3279051"><ele>143.0</ele><time>2026-04-18T14:59:36.242Z</time></trkpt><trkpt lat="45.1068436" lon="8.3276861"><ele>142.0</ele><time>2026-04-18T14:59:37.243Z</time></trkpt><trkpt lat="45.1067952" lon="8.3274701"><ele>142.0</ele><time>2026-04-18T14:59:38.242Z</time></trkpt><trkpt lat="45.1067463" lon="8.3272466"><ele>142.0</ele><time>2026-04-18T14:59:39.242Z</time></trkpt><trkpt lat="45.106696" lon="8.3270185"><ele>142.0</ele><time>2026-04-18T14:59:40.243Z</time></trkpt><trkpt lat="45.1066501" lon="8.326788"><ele>140.66666666666669</ele><time>2026-04-18T14:59:41.242Z</time></trkpt><trkpt lat="45.1065992" lon="8.3265561"><ele>139.33333333333334</ele><time>2026-04-18T14:59:42.243Z</time></trkpt><trkpt lat="45.106552" lon="8.3263272"><ele>138.0</ele><time>2026-04-18T14:59:43.242Z</time></trkpt><trkpt lat="45.1065046" lon="8.3261006"><ele>140.66666666666666</ele><time>2026-04-18T14:59:44.243Z</time></trkpt><trkpt lat="45.1064549" lon="8.3258615"><ele>143.33333333333331</ele><time>2026-04-18T14:59:45.242Z</time></trkpt><trkpt lat="45.1064061" lon="8.3256301"><ele>146.0</ele><time>2026-04-18T14:59:46.242Z</time></trkpt><trkpt lat="45.1063586" lon="8.3253985"><ele>146.0</ele><time>2026-04-18T14:59:47.242Z</time></trkpt><trkpt lat="45.1063128" lon="8.3251692"><ele>146.0</ele><time>2026-04-18T14:59:48.243Z</time></trkpt><trkpt lat="45.1062666" lon="8.3249373"><ele>146.0</ele><time>2026-04-18T14:59:49.242Z</time></trkpt><trkpt lat="45.1062162" lon="8.3247024"><ele>145.33333333333331</ele><time>2026-04-18T14:59:50.243Z</time></trkpt><trkpt lat="45.106164" lon="8.3244745"><ele>144.66666666666666</ele><time>2026-04-18T14:59:51.242Z</time></trkpt><trkpt lat="45.1061106" lon="8.3242509"><ele>144.0</ele><time>2026-04-18T14:59:52.242Z</time></trkpt><trkpt lat="45.1060637" lon="8.3240271"><ele>143.33333333333334</ele><time>2026-04-18T14:59:53.243Z</time></trkpt><trkpt lat="45.1060149" lon="8.3237918"><ele>142.66666666666669</ele><time>2026-04-18T14:59:54.242Z</time></trkpt><trkpt lat="45.1059703" lon="8.3235627"><ele>142.0</ele><time>2026-04-18T14:59:55.242Z</time></trkpt><trkpt lat="45.1059218" lon="8.3233456"><ele>142.0</ele><time>2026-04-18T14:59:56.242Z</time></trkpt><trkpt lat="45.1058762" lon="8.3231258"><ele>142.0</ele><time>2026-04-18T14:59:57.242Z</time></trkpt><trkpt lat="45.1058281" lon="8.3229113"><ele>142.0</ele><time>2026-04-18T14:59:58.242Z</time></trkpt><trkpt lat="45.1057888" lon="8.3226881"><ele>143.33333333333334</ele><time>2026-04-18T14:59:59.242Z</time></trkpt><trkpt lat="45.1057441" lon="8.322462"><ele>144.66666666666666</ele><time>2026-04-18T15:00:00.243Z</time></trkpt><trkpt lat="45.105699" lon="8.3222437"><ele>146.0</ele><time>2026-04-18T15:00:01.242Z</time></trkpt><trkpt lat="45.1056464" lon="8.3220271"><ele>146.0</ele><time>2026-04-18T15:00:02.243Z</time></trkpt><trkpt lat="45.1056001" lon="8.3218069"><ele>146.0</ele><time>2026-04-18T15:00:03.242Z</time></trkpt><trkpt lat="45.1055531" lon="8.3215855"><ele>146.0</ele><time>2026-04-18T15:00:04.242Z</time></trkpt><trkpt lat="45.1055014" lon="8.3213682"><ele>145.33333333333331</ele><time>2026-04-18T15:00:05.242Z</time></trkpt><trkpt lat="45.1054567" lon="8.3211411"><ele>144.66666666666666</ele><time>2026-04-18T15:00:06.242Z</time></trkpt><trkpt lat="45.10541" lon="8.3209164"><ele>144.0</ele><time>2026-04-18T15:00:07.242Z</time></trkpt><trkpt lat="45.1053659" lon="8.3206954"><ele>143.0</ele><time>2026-04-18T15:00:08.242Z</time></trkpt><trkpt lat="45.1053258" lon="8.3204792"><ele>142.0</ele><time>2026-04-18T15:00:09.242Z</time></trkpt><trkpt lat="45.1052756" lon="8.3202604"><ele>141.0</ele><time>2026-04-18T15:00:10.242Z</time></trkpt><trkpt lat="45.1052314" lon="8.3200497"><ele>141.0</ele><time>2026-04-18T15:00:11.242Z</time></trkpt><trkpt lat="45.1051912" lon="8.3198509"><ele>141.0</ele><time>2026-04-18T15:00:12.242Z</time></trkpt><trkpt lat="45.1051507" lon="8.3196748"><ele>141.0</ele><time>2026-04-18T15:00:13.242Z</time></trkpt><trkpt lat="45.1051146" lon="8.3195186"><ele>141.0</ele><time>2026-04-18T15:00:14.243Z</time></trkpt><trkpt lat="45.1050845" lon="8.3193894"><ele>141.16666666666666</ele><time>2026-04-18T15:00:15.242Z</time></trkpt><trkpt lat="45.1050531" lon="8.3192866"><ele>141.33333333333334</ele><time>2026-04-18T15:00:16.242Z</time></trkpt><trkpt lat="45.1049643" lon="8.3191842"><ele>141.5</ele><time>2026-04-18T15:00:18.242Z</time></trkpt><trkpt lat="45.1048985" lon="8.3191775"><ele>141.66666666666669</ele><time>2026-04-18T15:00:19.243Z</time></trkpt><trkpt lat="45.1048268" lon="8.3192117"><ele>141.83333333333334</ele><time>2026-04-18T15:00:20.242Z</time></trkpt><trkpt lat="45.1047452" lon="8.3192757"><ele>142.0</ele><time>2026-04-18T15:00:21.243Z</time></trkpt><trkpt lat="45.1046472" lon="8.3193557"><ele>142.0</ele><time>2026-04-18T15:00:22.242Z</time></trkpt><trkpt lat="45.1045384" lon="8.3194561"><ele>142.0</ele><time>2026-04-18T15:00:23.242Z</time></trkpt><trkpt lat="45.1044238" lon="8.3195653"><ele>142.0</ele><time>2026-04-18T15:00:24.243Z</time></trkpt><trkpt lat="45.1042941" lon="8.3196815"><ele>142.0</ele><time>2026-04-18T15:00:25.242Z</time></trkpt><trkpt lat="45.1041655" lon="8.3197956"><ele>143.33333333333334</ele><time>2026-04-18T15:00:26.243Z</time></trkpt><trkpt lat="45.1040258" lon="8.3199185"><ele>144.66666666666666</ele><time>2026-04-18T15:00:27.242Z</time></trkpt><trkpt lat="45.1038871" lon="8.3200476"><ele>146.0</ele><time>2026-04-18T15:00:28.242Z</time></trkpt><trkpt lat="45.1037428" lon="8.3201747"><ele>146.0</ele><time>2026-04-18T15:00:29.243Z</time></trkpt><trkpt lat="45.1036039" lon="8.3202905"><ele>146.0</ele><time>2026-04-18T15:00:30.242Z</time></trkpt><trkpt lat="45.1034639" lon="8.3204105"><ele>146.0</ele><time>2026-04-18T15:00:31.242Z</time></trkpt><trkpt lat="45.1033179" lon="8.3205258"><ele>147.0</ele><time>2026-04-18T15:00:32.242Z</time></trkpt><trkpt lat="45.1031813" lon="8.3206385"><ele>148.0</ele><time>2026-04-18T15:00:33.242Z</time></trkpt><trkpt lat="45.1030431" lon="8.3207584"><ele>149.0</ele><time>2026-04-18T15:00:34.243Z</time></trkpt><trkpt lat="45.1028938" lon="8.3208885"><ele>149.0</ele><time>2026-04-18T15:00:35.242Z</time></trkpt><trkpt lat="45.1027534" lon="8.3210069"><ele>149.0</ele><time>2026-04-18T15:00:36.242Z</time></trkpt><trkpt lat="45.1026076" lon="8.3211281"><ele>149.0</ele><time>2026-04-18T15:00:37.242Z</time></trkpt><trkpt lat="45.1024651" lon="8.3212556"><ele>149.0</ele><time>2026-04-18T15:00:38.242Z</time></trkpt><trkpt lat="45.1023154" lon="8.3213854"><ele>149.0</ele><time>2026-04-18T15:00:39.242Z</time></trkpt><trkpt lat="45.1021602" lon="8.3215176"><ele>149.0</ele><time>2026-04-18T15:00:40.243Z</time></trkpt><trkpt lat="45.1020141" lon="8.3216458"><ele>149.0</ele><time>2026-04-18T15:00:41.243Z</time></trkpt><trkpt lat="45.1018614" lon="8.3217746"><ele>149.0</ele><time>2026-04-18T15:00:42.242Z</time></trkpt><trkpt lat="45.101716" lon="8.3219005"><ele>149.0</ele><time>2026-04-18T15:00:43.243Z</time></trkpt><trkpt lat="45.1015783" lon="8.3220364"><ele>148.66666666666666</ele><time>2026-04-18T15:00:44.242Z</time></trkpt><trkpt lat="45.1014394" lon="8.3221733"><ele>148.33333333333334</ele><time>2026-04-18T15:00:45.243Z</time></trkpt><trkpt lat="45.1013035" lon="8.3223166"><ele>148.0</ele><time>2026-04-18T15:00:46.242Z</time></trkpt><trkpt lat="45.1011603" lon="8.3224732"><ele>149.66666666666669</ele><time>2026-04-18T15:00:47.242Z</time></trkpt><trkpt lat="45.1010225" lon="8.322622"><ele>151.33333333333334</ele><time>2026-04-18T15:00:48.242Z</time></trkpt><trkpt lat="45.1008934" lon="8.3227681"><ele>153.0</ele><time>2026-04-18T15:00:49.242Z</time></trkpt><trkpt lat="45.100779" lon="8.322921"><ele>153.33333333333334</ele><time>2026-04-18T15:00:50.242Z</time></trkpt><trkpt lat="45.1006516" lon="8.3230795"><ele>153.66666666666669</ele><time>2026-04-18T15:00:51.243Z</time></trkpt><trkpt lat="45.1005317" lon="8.3232564"><ele>154.0</ele><time>2026-04-18T15:00:52.243Z</time></trkpt><trkpt lat="45.1004118" lon="8.3234141"><ele>154.0</ele><time>2026-04-18T15:00:53.242Z</time></trkpt><trkpt lat="45.1002797" lon="8.3235623"><ele>154.0</ele><time>2026-04-18T15:00:54.242Z</time></trkpt><trkpt lat="45.1001448" lon="8.3237009"><ele>154.0</ele><time>2026-04-18T15:00:55.242Z</time></trkpt><trkpt lat="45.100013" lon="8.3238288"><ele>155.33333333333334</ele><time>2026-04-18T15:00:56.242Z</time></trkpt><trkpt lat="45.0998788" lon="8.3239558"><ele>156.66666666666666</ele><time>2026-04-18T15:00:57.242Z</time></trkpt><trkpt lat="45.0997374" lon="8.324095"><ele>158.0</ele><time>2026-04-18T15:00:58.243Z</time></trkpt><trkpt lat="45.0996038" lon="8.3242252"><ele>158.0</ele><time>2026-04-18T15:00:59.242Z</time></trkpt><trkpt lat="45.0994628" lon="8.3243541"><ele>158.0</ele><time>2026-04-18T15:01:00.243Z</time></trkpt><trkpt lat="45.0993209" lon="8.3244879"><ele>158.0</ele><time>2026-04-18T15:01:01.243Z</time></trkpt><trkpt lat="45.0991756" lon="8.3246229"><ele>157.33333333333331</ele><time>2026-04-18T15:01:02.242Z</time></trkpt><trkpt lat="45.0990345" lon="8.3247613"><ele>156.66666666666666</ele><time>2026-04-18T15:01:03.242Z</time></trkpt><trkpt lat="45.0988938" lon="8.3248964"><ele>156.0</ele><time>2026-04-18T15:01:04.242Z</time></trkpt><trkpt lat="45.0987551" lon="8.3250355"><ele>156.0</ele><time>2026-04-18T15:01:05.242Z</time></trkpt><trkpt lat="45.0986252" lon="8.3251707"><ele>156.0</ele><time>2026-04-18T15:01:06.242Z</time></trkpt><trkpt lat="45.0984859" lon="8.3253034"><ele>156.0</ele><time>2026-04-18T15:01:07.243Z</time></trkpt><trkpt lat="45.0983519" lon="8.3254399"><ele>157.33333333333334</ele><time>2026-04-18T15:01:08.242Z</time></trkpt><trkpt lat="45.0982203" lon="8.3255653"><ele>158.66666666666669</ele><time>2026-04-18T15:01:09.243Z</time></trkpt><trkpt lat="45.0980868" lon="8.3256883"><ele>160.0</ele><time>2026-04-18T15:01:10.242Z</time></trkpt><trkpt lat="45.0979546" lon="8.3258149"><ele>160.0</ele><time>2026-04-18T15:01:11.242Z</time></trkpt><trkpt lat="45.0978279" lon="8.3259387"><ele>160.0</ele><time>2026-04-18T15:01:12.242Z</time></trkpt><trkpt lat="45.0977051" lon="8.3260625"><ele>160.0</ele><time>2026-04-18T15:01:13.242Z</time></trkpt><trkpt lat="45.0975828" lon="8.3261804"><ele>160.0</ele><time>2026-04-18T15:01:14.243Z</time></trkpt><trkpt lat="45.0974556" lon="8.3262977"><ele>160.0</ele><time>2026-04-18T15:01:15.243Z</time></trkpt><trkpt lat="45.0973305" lon="8.3264248"><ele>160.0</ele><time>2026-04-18T15:01:16.243Z</time></trkpt><trkpt lat="45.0971966" lon="8.3265512"><ele>160.0</ele><time>2026-04-18T15:01:17.242Z</time></trkpt><trkpt lat="45.0970571" lon="8.3266827"><ele>160.0</ele><time>2026-04-18T15:01:18.242Z</time></trkpt><trkpt lat="45.0969261" lon="8.3268224"><ele>160.0</ele><time>2026-04-18T15:01:19.242Z</time></trkpt><trkpt lat="45.0967939" lon="8.3269575"><ele>160.0</ele><time>2026-04-18T15:01:20.242Z</time></trkpt><trkpt lat="45.0966556" lon="8.3270886"><ele>160.0</ele><time>2026-04-18T15:01:21.242Z</time></trkpt><trkpt lat="45.0965254" lon="8.3272203"><ele>160.0</ele><time>2026-04-18T15:01:22.242Z</time></trkpt><trkpt lat="45.0963952" lon="8.3273489"><ele>160.66666666666669</ele><time>2026-04-18T15:01:23.243Z</time></trkpt><trkpt lat="45.0962593" lon="8.3274605"><ele>161.33333333333334</ele><time>2026-04-18T15:01:24.242Z</time></trkpt><trkpt lat="45.096122" lon="8.3275452"><ele>162.0</ele><time>2026-04-18T15:01:25.242Z</time></trkpt><trkpt lat="45.0959812" lon="8.3275983"><ele>162.0</ele><time>2026-04-18T15:01:26.242Z</time></trkpt><trkpt lat="45.0958358" lon="8.3276237"><ele>162.0</ele><time>2026-04-18T15:01:27.242Z</time></trkpt><trkpt lat="45.0956881" lon="8.3276136"><ele>162.0</ele><time>2026-04-18T15:01:28.242Z</time></trkpt><trkpt lat="45.0955365" lon="8.3275804"><ele>162.0</ele><time>2026-04-18T15:01:29.242Z</time></trkpt><trkpt lat="45.0953842" lon="8.3275264"><ele>162.33333333333334</ele><time>2026-04-18T15:01:30.242Z</time></trkpt><trkpt lat="45.0952442" lon="8.3274415"><ele>162.66666666666669</ele><time>2026-04-18T15:01:31.242Z</time></trkpt><trkpt lat="45.0950969" lon="8.3273576"><ele>163.0</ele><time>2026-04-18T15:01:32.243Z</time></trkpt><trkpt lat="45.0949515" lon="8.3272705"><ele>162.66666666666669</ele><time>2026-04-18T15:01:33.242Z</time></trkpt><trkpt lat="45.0948005" lon="8.3271863"><ele>162.33333333333334</ele><time>2026-04-18T15:01:34.243Z</time></trkpt><trkpt lat="45.0946463" lon="8.3270872"><ele>162.0</ele><time>2026-04-18T15:01:35.242Z</time></trkpt><trkpt lat="45.0944906" lon="8.3269943"><ele>162.0</ele><time>2026-04-18T15:01:36.242Z</time></trkpt><trkpt lat="45.0943357" lon="8.3269006"><ele>162.0</ele><time>2026-04-18T15:01:37.242Z</time></trkpt><trkpt lat="45.0941954" lon="8.3268181"><ele>162.0</ele><time>2026-04-18T15:01:38.242Z</time></trkpt><trkpt lat="45.0940505" lon="8.3267332"><ele>163.0</ele><time>2026-04-18T15:01:39.242Z</time></trkpt><trkpt lat="45.0939035" lon="8.3266446"><ele>164.0</ele><time>2026-04-18T15:01:40.242Z</time></trkpt><trkpt lat="45.0937572" lon="8.3265556"><ele>165.0</ele><time>2026-04-18T15:01:41.242Z</time></trkpt><trkpt lat="45.0936115" lon="8.3264615"><ele>166.33333333333334</ele><time>2026-04-18T15:01:42.242Z</time></trkpt><trkpt lat="45.0934605" lon="8.3263855"><ele>167.66666666666669</ele><time>2026-04-18T15:01:43.242Z</time></trkpt><trkpt lat="45.0933061" lon="8.3263008"><ele>169.0</ele><time>2026-04-18T15:01:44.242Z</time></trkpt><trkpt lat="45.0931498" lon="8.3262108"><ele>169.33333333333334</ele><time>2026-04-18T15:01:45.242Z</time></trkpt><trkpt lat="45.0929985" lon="8.326127"><ele>169.66666666666666</ele><time>2026-04-18T15:01:46.242Z</time></trkpt><trkpt lat="45.0928521" lon="8.3260365"><ele>170.0</ele><time>2026-04-18T15:01:47.242Z</time></trkpt><trkpt lat="45.0926978" lon="8.3259456"><ele>170.0</ele><time>2026-04-18T15:01:48.242Z</time></trkpt><trkpt lat="45.0925483" lon="8.3258555"><ele>170.0</ele><time>2026-04-18T15:01:49.242Z</time></trkpt><trkpt lat="45.092398" lon="8.3257658"><ele>170.0</ele><time>2026-04-18T15:01:50.242Z</time></trkpt><trkpt lat="45.0922442" lon="8.3256844"><ele>170.33333333333331</ele><time>2026-04-18T15:01:51.242Z</time></trkpt><trkpt lat="45.0921006" lon="8.3255979"><ele>170.66666666666666</ele><time>2026-04-18T15:01:52.243Z</time></trkpt><trkpt lat="45.0919503" lon="8.3255125"><ele>171.0</ele><time>2026-04-18T15:01:53.242Z</time></trkpt><trkpt lat="45.0918034" lon="8.3254344"><ele>171.0</ele><time>2026-04-18T15:01:54.242Z</time></trkpt><trkpt lat="45.0916625" lon="8.3253521"><ele>171.0</ele><time>2026-04-18T15:01:55.242Z</time></trkpt><trkpt lat="45.0915168" lon="8.3252663"><ele>171.0</ele><time>2026-04-18T15:01:56.242Z</time></trkpt><trkpt lat="45.0913754" lon="8.3251777"><ele>170.66666666666666</ele><time>2026-04-18T15:01:57.242Z</time></trkpt><trkpt lat="45.0912316" lon="8.3250863"><ele>170.33333333333331</ele><time>2026-04-18T15:01:58.243Z</time></trkpt><trkpt lat="45.0910854" lon="8.3250051"><ele>170.0</ele><time>2026-04-18T15:01:59.242Z</time></trkpt><trkpt lat="45.0909407" lon="8.3249151"><ele>170.0</ele><time>2026-04-18T15:02:00.242Z</time></trkpt><trkpt lat="45.0907979" lon="8.324829"><ele>170.0</ele><time>2026-04-18T15:02:01.242Z</time></trkpt><trkpt lat="45.0906598" lon="8.3247298"><ele>170.0</ele><time>2026-04-18T15:02:02.242Z</time></trkpt><trkpt lat="45.0905181" lon="8.3246425"><ele>173.66666666666666</ele><time>2026-04-18T15:02:03.243Z</time></trkpt><trkpt lat="45.0903627" lon="8.3245586"><ele>177.33333333333334</ele><time>2026-04-18T15:02:04.242Z</time></trkpt><trkpt lat="45.0902002" lon="8.3244772"><ele>181.0</ele><time>2026-04-18T15:02:05.242Z</time></trkpt><trkpt lat="45.0900312" lon="8.3243893"><ele>181.33333333333334</ele><time>2026-04-18T15:02:06.243Z</time></trkpt><trkpt lat="45.0898675" lon="8.3242851"><ele>181.66666666666666</ele><time>2026-04-18T15:02:07.242Z</time></trkpt><trkpt lat="45.0897025" lon="8.3241813"><ele>182.0</ele><time>2026-04-18T15:02:08.242Z</time></trkpt><trkpt lat="45.0895407" lon="8.3240763"><ele>182.0</ele><time>2026-04-18T15:02:09.242Z</time></trkpt><trkpt lat="45.0893766" lon="8.3239652"><ele>182.0</ele><time>2026-04-18T15:02:10.243Z</time></trkpt><trkpt lat="45.089212" lon="8.3238535"><ele>182.0</ele><time>2026-04-18T15:02:11.242Z</time></trkpt><trkpt lat="45.0890617" lon="8.3237209"><ele>184.33333333333331</ele><time>2026-04-18T15:02:12.242Z</time></trkpt><trkpt lat="45.0889231" lon="8.3235961"><ele>186.66666666666666</ele><time>2026-04-18T15:02:13.242Z</time></trkpt><trkpt lat="45.0888293" lon="8.3234284"><ele>189.0</ele><time>2026-04-18T15:02:14.242Z</time></trkpt><trkpt lat="45.0887026" lon="8.323268"><ele>189.0</ele><time>2026-04-18T15:02:15.242Z</time></trkpt><trkpt lat="45.0885892" lon="8.3231125"><ele>189.0</ele><time>2026-04-18T15:02:16.243Z</time></trkpt><trkpt lat="45.0884783" lon="8.3229535"><ele>189.0</ele><time>2026-04-18T15:02:17.243Z</time></trkpt><trkpt lat="45.0883582" lon="8.3228005"><ele>191.33333333333331</ele><time>2026-04-18T15:02:18.242Z</time></trkpt><trkpt lat="45.088244" lon="8.3226522"><ele>193.66666666666666</ele><time>2026-04-18T15:02:19.243Z</time></trkpt><trkpt lat="45.08813" lon="8.3225083"><ele>196.0</ele><time>2026-04-18T15:02:20.242Z</time></trkpt><trkpt lat="45.0880168" lon="8.3223628"><ele>197.0</ele><time>2026-04-18T15:02:21.242Z</time></trkpt><trkpt lat="45.0878943" lon="8.322214"><ele>198.0</ele><time>2026-04-18T15:02:22.242Z</time></trkpt><trkpt lat="45.0877813" lon="8.3220603"><ele>199.0</ele><time>2026-04-18T15:02:23.242Z</time></trkpt><trkpt lat="45.0876751" lon="8.3219105"><ele>199.0</ele><time>2026-04-18T15:02:24.242Z</time></trkpt><trkpt lat="45.087561" lon="8.3217671"><ele>199.0</ele><time>2026-04-18T15:02:25.243Z</time></trkpt><trkpt lat="45.0874578" lon="8.3216231"><ele>199.0</ele><time>2026-04-18T15:02:26.242Z</time></trkpt><trkpt lat="45.0873498" lon="8.3214757"><ele>199.0</ele><time>2026-04-18T15:02:27.243Z</time></trkpt><trkpt lat="45.0872622" lon="8.321315"><ele>200.0</ele><time>2026-04-18T15:02:28.242Z</time></trkpt><trkpt lat="45.0871707" lon="8.3211567"><ele>201.0</ele><time>2026-04-18T15:02:29.242Z</time></trkpt><trkpt lat="45.0871027" lon="8.3209643"><ele>202.0</ele><time>2026-04-18T15:02:30.242Z</time></trkpt><trkpt lat="45.087036" lon="8.3207756"><ele>203.0</ele><time>2026-04-18T15:02:31.243Z</time></trkpt><trkpt lat="45.0869737" lon="8.3205919"><ele>204.25</ele><time>2026-04-18T15:02:32.243Z</time></trkpt><trkpt lat="45.0869096" lon="8.3204042"><ele>205.5</ele><time>2026-04-18T15:02:33.243Z</time></trkpt><trkpt lat="45.0868558" lon="8.3202045"><ele>206.75</ele><time>2026-04-18T15:02:34.242Z</time></trkpt><trkpt lat="45.0867967" lon="8.320016"><ele>208.0</ele><time>2026-04-18T15:02:35.242Z</time></trkpt><trkpt lat="45.0867204" lon="8.3198405"><ele>210.0</ele><time>2026-04-18T15:02:36.242Z</time></trkpt><trkpt lat="45.0866572" lon="8.3196627"><ele>212.0</ele><time>2026-04-18T15:02:37.242Z</time></trkpt><trkpt lat="45.0865975" lon="8.3194775"><ele>214.0</ele><time>2026-04-18T15:02:38.242Z</time></trkpt><trkpt lat="45.0865353" lon="8.319297"><ele>216.0</ele><time>2026-04-18T15:02:39.242Z</time></trkpt><trkpt lat="45.0864567" lon="8.3191329"><ele>216.75</ele><time>2026-04-18T15:02:40.243Z</time></trkpt><trkpt lat="45.0863742" lon="8.3189715"><ele>217.5</ele><time>2026-04-18T15:02:41.242Z</time></trkpt><trkpt lat="45.0862785" lon="8.318831"><ele>218.25</ele><time>2026-04-18T15:02:42.243Z</time></trkpt><trkpt lat="45.0861622" lon="8.3187018"><ele>219.0</ele><time>2026-04-18T15:02:43.242Z</time></trkpt><trkpt lat="45.0860545" lon="8.3185661"><ele>219.75</ele><time>2026-04-18T15:02:44.243Z</time></trkpt><trkpt lat="45.0859729" lon="8.3184097"><ele>220.5</ele><time>2026-04-18T15:02:45.242Z</time></trkpt><trkpt lat="45.0858762" lon="8.3182665"><ele>221.25</ele><time>2026-04-18T15:02:46.242Z</time></trkpt><trkpt lat="45.0857854" lon="8.3181534"><ele>222.0</ele><time>2026-04-18T15:02:47.243Z</time></trkpt><trkpt lat="45.0856969" lon="8.3180821"><ele>223.0</ele><time>2026-04-18T15:02:48.242Z</time></trkpt><trkpt lat="45.0856265" lon="8.3179711"><ele>224.0</ele><time>2026-04-18T15:02:49.243Z</time></trkpt><trkpt lat="45.0855534" lon="8.3178924"><ele>225.0</ele><time>2026-04-18T15:02:50.243Z</time></trkpt><trkpt lat="45.0854854" lon="8.3177978"><ele>226.0</ele><time>2026-04-18T15:02:51.242Z</time></trkpt><trkpt lat="45.0853977" lon="8.3177378"><ele>227.0</ele><time>2026-04-18T15:02:52.242Z</time></trkpt><trkpt lat="45.0853096" lon="8.3176894"><ele>227.00000000000003</ele><time>2026-04-18T15:02:53.242Z</time></trkpt><trkpt lat="45.0852185" lon="8.3176809"><ele>227.0</ele><time>2026-04-18T15:02:54.242Z</time></trkpt><trkpt lat="45.0851317" lon="8.3177165"><ele>227.0</ele><time>2026-04-18T15:02:55.242Z</time></trkpt><trkpt lat="45.0850504" lon="8.3177326"><ele>227.0</ele><time>2026-04-18T15:02:56.243Z</time></trkpt><trkpt lat="45.084975" lon="8.3177045"><ele>227.00000000000003</ele><time>2026-04-18T15:02:57.242Z</time></trkpt><trkpt lat="45.0849093" lon="8.3176401"><ele>227.0</ele><time>2026-04-18T15:02:58.243Z</time></trkpt><trkpt lat="45.0848425" lon="8.317521"><ele>228.0</ele><time>2026-04-18T15:02:59.242Z</time></trkpt><trkpt lat="45.084756" lon="8.317407"><ele>229.0</ele><time>2026-04-18T15:03:00.242Z</time></trkpt><trkpt lat="45.0846691" lon="8.3172943"><ele>230.0</ele><time>2026-04-18T15:03:01.242Z</time></trkpt><trkpt lat="45.0845833" lon="8.3171744"><ele>231.0</ele><time>2026-04-18T15:03:02.242Z</time></trkpt><trkpt lat="45.0844903" lon="8.3170501"><ele>231.0</ele><time>2026-04-18T15:03:03.242Z</time></trkpt><trkpt lat="45.0843946" lon="8.3169481"><ele>231.00000000000003</ele><time>2026-04-18T15:03:04.242Z</time></trkpt><trkpt lat="45.084314" lon="8.3168387"><ele>231.00000000000003</ele><time>2026-04-18T15:03:05.243Z</time></trkpt><trkpt lat="45.084242" lon="8.3167558"><ele>231.0</ele><time>2026-04-18T15:03:06.242Z</time></trkpt><trkpt lat="45.0841733" lon="8.316671"><ele>231.0</ele><time>2026-04-18T15:03:07.242Z</time></trkpt><trkpt lat="45.0841049" lon="8.3166616"><ele>232.8</ele><time>2026-04-18T15:03:08.242Z</time></trkpt><trkpt lat="45.0840048" lon="8.3166485"><ele>234.60000000000002</ele><time>2026-04-18T15:03:09.243Z</time></trkpt><trkpt lat="45.0839243" lon="8.3165943"><ele>236.4</ele><time>2026-04-18T15:03:10.243Z</time></trkpt><trkpt lat="45.0838195" lon="8.3165511"><ele>238.2</ele><time>2026-04-18T15:03:11.242Z</time></trkpt><trkpt lat="45.083704" lon="8.3165125"><ele>240.0</ele><time>2026-04-18T15:03:12.242Z</time></trkpt><trkpt lat="45.0835752" lon="8.3164429"><ele>241.25</ele><time>2026-04-18T15:03:13.242Z</time></trkpt><trkpt lat="45.0834505" lon="8.3163652"><ele>242.5</ele><time>2026-04-18T15:03:14.242Z</time></trkpt><trkpt lat="45.0833329" lon="8.3162782"><ele>243.75</ele><time>2026-04-18T15:03:15.242Z</time></trkpt><trkpt lat="45.0832296" lon="8.3161766"><ele>245.0</ele><time>2026-04-18T15:03:16.242Z</time></trkpt><trkpt lat="45.083116" lon="8.3160811"><ele>245.0</ele><time>2026-04-18T15:03:17.242Z</time></trkpt><trkpt lat="45.0830014" lon="8.3159857"><ele>245.0</ele><time>2026-04-18T15:03:18.243Z</time></trkpt><trkpt lat="45.082888" lon="8.3158904"><ele>245.0</ele><time>2026-04-18T15:03:19.242Z</time></trkpt><trkpt lat="45.0827737" lon="8.315786"><ele>245.0</ele><time>2026-04-18T15:03:20.243Z</time></trkpt><trkpt lat="45.0826729" lon="8.3156879"><ele>245.0</ele><time>2026-04-18T15:03:21.243Z</time></trkpt><trkpt lat="45.0825515" lon="8.3155925"><ele>245.0</ele><time>2026-04-18T15:03:22.243Z</time></trkpt><trkpt lat="45.0824376" lon="8.3155244"><ele>245.0</ele><time>2026-04-18T15:03:23.242Z</time></trkpt><trkpt lat="45.0823186" lon="8.3155015"><ele>245.0</ele><time>2026-04-18T15:03:24.242Z</time></trkpt><trkpt lat="45.0822185" lon="8.3155203"><ele>244.25</ele><time>2026-04-18T15:03:25.243Z</time></trkpt><trkpt lat="45.0821196" lon="8.3155959"><ele>243.5</ele><time>2026-04-18T15:03:26.242Z</time></trkpt><trkpt lat="45.0820324" lon="8.3157051"><ele>242.75</ele><time>2026-04-18T15:03:27.242Z</time></trkpt><trkpt lat="45.0819384" lon="8.3158328"><ele>242.0</ele><time>2026-04-18T15:03:28.242Z</time></trkpt><trkpt lat="45.0818489" lon="8.3159664"><ele>242.0</ele><time>2026-04-18T15:03:29.243Z</time></trkpt><trkpt lat="45.0817765" lon="8.3161175"><ele>242.0</ele><time>2026-04-18T15:03:30.242Z</time></trkpt><trkpt lat="45.0817189" lon="8.3162875"><ele>242.0</ele><time>2026-04-18T15:03:31.242Z</time></trkpt><trkpt lat="45.0816713" lon="8.3164668"><ele>242.0</ele><time>2026-04-18T15:03:32.242Z</time></trkpt><trkpt lat="45.0816216" lon="8.3166593"><ele>239.66666666666669</ele><time>2026-04-18T15:03:33.243Z</time></trkpt><trkpt lat="45.0815703" lon="8.3168598"><ele>237.33333333333331</ele><time>2026-04-18T15:03:34.242Z</time></trkpt><trkpt lat="45.0815287" lon="8.317069"><ele>235.0</ele><time>2026-04-18T15:03:35.242Z</time></trkpt><trkpt lat="45.0814823" lon="8.3172721"><ele>235.0</ele><time>2026-04-18T15:03:36.243Z</time></trkpt><trkpt lat="45.0814306" lon="8.3174579"><ele>235.0</ele><time>2026-04-18T15:03:37.242Z</time></trkpt><trkpt lat="45.0813624" lon="8.3176331"><ele>235.0</ele><time>2026-04-18T15:03:38.242Z</time></trkpt><trkpt lat="45.0812732" lon="8.3177847"><ele>235.0</ele><time>2026-04-18T15:03:39.242Z</time></trkpt><trkpt lat="45.0811655" lon="8.3179247"><ele>235.0</ele><time>2026-04-18T15:03:40.242Z</time></trkpt><trkpt lat="45.081049" lon="8.3180377"><ele>235.0</ele><time>2026-04-18T15:03:41.242Z</time></trkpt><trkpt lat="45.0809076" lon="8.3181384"><ele>235.0</ele><time>2026-04-18T15:03:42.242Z</time></trkpt><trkpt lat="45.0807618" lon="8.3182277"><ele>235.33333333333331</ele><time>2026-04-18T15:03:43.243Z</time></trkpt><trkpt lat="45.0806112" lon="8.318336"><ele>235.66666666666669</ele><time>2026-04-18T15:03:44.242Z</time></trkpt><trkpt lat="45.0804631" lon="8.3184435"><ele>236.0</ele><time>2026-04-18T15:03:45.243Z</time></trkpt><trkpt lat="45.0803075" lon="8.3185601"><ele>236.0</ele><time>2026-04-18T15:03:46.242Z</time></trkpt><trkpt lat="45.0801509" lon="8.3186709"><ele>236.0</ele><time>2026-04-18T15:03:47.237Z</time></trkpt><trkpt lat="45.0799892" lon="8.3187791"><ele>236.0</ele><time>2026-04-18T15:03:48.243Z</time></trkpt><trkpt lat="45.0798332" lon="8.3188917"><ele>237.0</ele><time>2026-04-18T15:03:49.247Z</time></trkpt><trkpt lat="45.0796711" lon="8.3189992"><ele>238.0</ele><time>2026-04-18T15:03:50.238Z</time></trkpt><trkpt lat="45.079517" lon="8.3191096"><ele>239.0</ele><time>2026-04-18T15:03:51.236Z</time></trkpt><trkpt lat="45.0793712" lon="8.3192076"><ele>239.0</ele><time>2026-04-18T15:03:52.238Z</time></trkpt><trkpt lat="45.0792329" lon="8.3192978"><ele>239.0</ele><time>2026-04-18T15:03:53.238Z</time></trkpt><trkpt lat="45.0791053" lon="8.3193865"><ele>239.0</ele><time>2026-04-18T15:03:54.238Z</time></trkpt><trkpt lat="45.0789745" lon="8.3194831"><ele>239.0</ele><time>2026-04-18T15:03:55.238Z</time></trkpt><trkpt lat="45.0788447" lon="8.3195856"><ele>239.33333333333334</ele><time>2026-04-18T15:03:56.239Z</time></trkpt><trkpt lat="45.0787084" lon="8.3197097"><ele>239.66666666666669</ele><time>2026-04-18T15:03:57.239Z</time></trkpt><trkpt lat="45.0785772" lon="8.3198547"><ele>240.0</ele><time>2026-04-18T15:03:58.238Z</time></trkpt><trkpt lat="45.0784579" lon="8.3200076"><ele>240.0</ele><time>2026-04-18T15:03:59.238Z</time></trkpt><trkpt lat="45.0783502" lon="8.3201507"><ele>240.0</ele><time>2026-04-18T15:04:00.238Z</time></trkpt><trkpt lat="45.0782585" lon="8.3202856"><ele>240.0</ele><time>2026-04-18T15:04:01.238Z</time></trkpt><trkpt lat="45.0781878" lon="8.3204286"><ele>240.0</ele><time>2026-04-18T15:04:02.239Z</time></trkpt><trkpt lat="45.0781307" lon="8.3205719"><ele>235.75</ele><time>2026-04-18T15:04:03.238Z</time></trkpt><trkpt lat="45.0781212" lon="8.3207556"><ele>231.5</ele><time>2026-04-18T15:04:04.238Z</time></trkpt><trkpt lat="45.0781198" lon="8.3209493"><ele>227.25</ele><time>2026-04-18T15:04:05.238Z</time></trkpt><trkpt lat="45.0781346" lon="8.3211563"><ele>223.0</ele><time>2026-04-18T15:04:06.239Z</time></trkpt><trkpt lat="45.078132" lon="8.3213605"><ele>223.0</ele><time>2026-04-18T15:04:07.238Z</time></trkpt><trkpt lat="45.0780946" lon="8.3215775"><ele>223.0</ele><time>2026-04-18T15:04:08.239Z</time></trkpt><trkpt lat="45.0780485" lon="8.3217657"><ele>223.0</ele><time>2026-04-18T15:04:09.238Z</time></trkpt><trkpt lat="45.0779742" lon="8.3219449"><ele>223.0</ele><time>2026-04-18T15:04:10.238Z</time></trkpt><trkpt lat="45.0778737" lon="8.3220993"><ele>226.0</ele><time>2026-04-18T15:04:11.238Z</time></trkpt><trkpt lat="45.0777567" lon="8.3222537"><ele>229.0</ele><time>2026-04-18T15:04:12.239Z</time></trkpt><trkpt lat="45.0776523" lon="8.3223993"><ele>232.0</ele><time>2026-04-18T15:04:13.238Z</time></trkpt><trkpt lat="45.0775572" lon="8.322567"><ele>232.0</ele><time>2026-04-18T15:04:14.238Z</time></trkpt><trkpt lat="45.0774744" lon="8.3227415"><ele>232.0</ele><time>2026-04-18T15:04:15.238Z</time></trkpt><trkpt lat="45.0773899" lon="8.3229241"><ele>232.0</ele><time>2026-04-18T15:04:16.239Z</time></trkpt><trkpt lat="45.077309" lon="8.3231153"><ele>228.0</ele><time>2026-04-18T15:04:17.238Z</time></trkpt><trkpt lat="45.0772309" lon="8.3233085"><ele>224.0</ele><time>2026-04-18T15:04:18.238Z</time></trkpt><trkpt lat="45.0771488" lon="8.3234999"><ele>220.0</ele><time>2026-04-18T15:04:19.238Z</time></trkpt><trkpt lat="45.0770616" lon="8.3236755"><ele>220.0</ele><time>2026-04-18T15:04:20.238Z</time></trkpt><trkpt lat="45.0769609" lon="8.3238542"><ele>220.0</ele><time>2026-04-18T15:04:21.238Z</time></trkpt><trkpt lat="45.0768485" lon="8.3240168"><ele>220.0</ele><time>2026-04-18T15:04:22.238Z</time></trkpt><trkpt lat="45.0767371" lon="8.3241858"><ele>221.0</ele><time>2026-04-18T15:04:23.239Z</time></trkpt><trkpt lat="45.0766225" lon="8.3243502"><ele>222.0</ele><time>2026-04-18T15:04:24.238Z</time></trkpt><trkpt lat="45.0765075" lon="8.3245129"><ele>223.0</ele><time>2026-04-18T15:04:25.239Z</time></trkpt><trkpt lat="45.0764031" lon="8.3246709"><ele>223.0</ele><time>2026-04-18T15:04:26.238Z</time></trkpt><trkpt lat="45.0763001" lon="8.3248339"><ele>223.0</ele><time>2026-04-18T15:04:27.238Z</time></trkpt><trkpt lat="45.0762091" lon="8.3250141"><ele>223.0</ele><time>2026-04-18T15:04:28.238Z</time></trkpt><trkpt lat="45.0761374" lon="8.3252086"><ele>223.0</ele><time>2026-04-18T15:04:29.239Z</time></trkpt><trkpt lat="45.0760652" lon="8.3254056"><ele>223.0</ele><time>2026-04-18T15:04:30.238Z</time></trkpt><trkpt lat="45.0759976" lon="8.3256221"><ele>223.0</ele><time>2026-04-18T15:04:31.238Z</time></trkpt><trkpt lat="45.0759338" lon="8.3258313"><ele>224.66666666666666</ele><time>2026-04-18T15:04:32.238Z</time></trkpt><trkpt lat="45.0758743" lon="8.3260457"><ele>226.33333333333331</ele><time>2026-04-18T15:04:33.238Z</time></trkpt><trkpt lat="45.0758163" lon="8.3262595"><ele>228.0</ele><time>2026-04-18T15:04:34.238Z</time></trkpt><trkpt lat="45.0757572" lon="8.3264799"><ele>224.66666666666669</ele><time>2026-04-18T15:04:35.238Z</time></trkpt><trkpt lat="45.0756904" lon="8.3266926"><ele>221.33333333333334</ele><time>2026-04-18T15:04:36.238Z</time></trkpt><trkpt lat="45.075616" lon="8.3269027"><ele>218.0</ele><time>2026-04-18T15:04:37.238Z</time></trkpt><trkpt lat="45.0755241" lon="8.3270939"><ele>221.66666666666669</ele><time>2026-04-18T15:04:38.238Z</time></trkpt><trkpt lat="45.0754187" lon="8.3272735"><ele>225.33333333333331</ele><time>2026-04-18T15:04:39.239Z</time></trkpt><trkpt lat="45.0753014" lon="8.3274301"><ele>229.0</ele><time>2026-04-18T15:04:40.239Z</time></trkpt><trkpt lat="45.0751646" lon="8.3275738"><ele>229.0</ele><time>2026-04-18T15:04:41.238Z</time></trkpt><trkpt lat="45.0750219" lon="8.3277044"><ele>229.0</ele><time>2026-04-18T15:04:42.238Z</time></trkpt><trkpt lat="45.0748875" lon="8.3278222"><ele>229.0</ele><time>2026-04-18T15:04:43.238Z</time></trkpt><trkpt lat="45.074747" lon="8.3279523"><ele>229.25</ele><time>2026-04-18T15:04:44.239Z</time></trkpt><trkpt lat="45.0746178" lon="8.3280462"><ele>229.5</ele><time>2026-04-18T15:04:45.238Z</time></trkpt><trkpt lat="45.07448" lon="8.3281147"><ele>229.75</ele><time>2026-04-18T15:04:46.238Z</time></trkpt><trkpt lat="45.0743332" lon="8.3281413"><ele>230.0</ele><time>2026-04-18T15:04:47.238Z</time></trkpt><trkpt lat="45.0741777" lon="8.3281468"><ele>230.0</ele><time>2026-04-18T15:04:48.238Z</time></trkpt><trkpt lat="45.0740167" lon="8.328141"><ele>230.0</ele><time>2026-04-18T15:04:49.238Z</time></trkpt><trkpt lat="45.0738543" lon="8.3281481"><ele>230.0</ele><time>2026-04-18T15:04:50.238Z</time></trkpt><trkpt lat="45.0736886" lon="8.3281559"><ele>230.0</ele><time>2026-04-18T15:04:51.239Z</time></trkpt><trkpt lat="45.0735201" lon="8.3281765"><ele>230.0</ele><time>2026-04-18T15:04:52.239Z</time></trkpt><trkpt lat="45.0733574" lon="8.3282177"><ele>230.0</ele><time>2026-04-18T15:04:53.238Z</time></trkpt><trkpt lat="45.073192" lon="8.3282658"><ele>229.33333333333334</ele><time>2026-04-18T15:04:54.238Z</time></trkpt><trkpt lat="45.0730265" lon="8.328324"><ele>228.66666666666669</ele><time>2026-04-18T15:04:55.238Z</time></trkpt><trkpt lat="45.0728621" lon="8.3283829"><ele>228.0</ele><time>2026-04-18T15:04:56.239Z</time></trkpt><trkpt lat="45.0726956" lon="8.3284498"><ele>228.0</ele><time>2026-04-18T15:04:57.238Z</time></trkpt><trkpt lat="45.0725376" lon="8.32851"><ele>228.0</ele><time>2026-04-18T15:04:58.238Z</time></trkpt><trkpt lat="45.0723749" lon="8.328581"><ele>228.0</ele><time>2026-04-18T15:04:59.239Z</time></trkpt><trkpt lat="45.072216" lon="8.3286593"><ele>228.0</ele><time>2026-04-18T15:05:00.238Z</time></trkpt><trkpt lat="45.0720622" lon="8.3287471"><ele>228.0</ele><time>2026-04-18T15:05:01.238Z</time></trkpt><trkpt lat="45.0719094" lon="8.3288346"><ele>228.0</ele><time>2026-04-18T15:05:02.238Z</time></trkpt><trkpt lat="45.0717597" lon="8.3289285"><ele>230.33333333333331</ele><time>2026-04-18T15:05:03.238Z</time></trkpt><trkpt lat="45.071614" lon="8.3290221"><ele>232.66666666666666</ele><time>2026-04-18T15:05:04.239Z</time></trkpt><trkpt lat="45.0714684" lon="8.3291144"><ele>235.0</ele><time>2026-04-18T15:05:05.239Z</time></trkpt><trkpt lat="45.0713202" lon="8.3292022"><ele>235.66666666666666</ele><time>2026-04-18T15:05:06.238Z</time></trkpt><trkpt lat="45.0711738" lon="8.3292859"><ele>236.33333333333331</ele><time>2026-04-18T15:05:07.239Z</time></trkpt><trkpt lat="45.0710246" lon="8.3293738"><ele>237.0</ele><time>2026-04-18T15:05:08.238Z</time></trkpt><trkpt lat="45.0708729" lon="8.3294619"><ele>235.33333333333331</ele><time>2026-04-18T15:05:09.238Z</time></trkpt><trkpt lat="45.0707227" lon="8.3295448"><ele>233.66666666666666</ele><time>2026-04-18T15:05:10.238Z</time></trkpt><trkpt lat="45.0705751" lon="8.3296417"><ele>232.0</ele><time>2026-04-18T15:05:11.238Z</time></trkpt><trkpt lat="45.0704214" lon="8.3297458"><ele>236.0</ele><time>2026-04-18T15:05:12.238Z</time></trkpt><trkpt lat="45.0702745" lon="8.3298386"><ele>240.0</ele><time>2026-04-18T15:05:13.238Z</time></trkpt><trkpt lat="45.0701182" lon="8.329932"><ele>244.0</ele><time>2026-04-18T15:05:14.238Z</time></trkpt><trkpt lat="45.0699719" lon="8.3300224"><ele>245.0</ele><time>2026-04-18T15:05:15.239Z</time></trkpt><trkpt lat="45.0698239" lon="8.3301218"><ele>246.0</ele><time>2026-04-18T15:05:16.238Z</time></trkpt><trkpt lat="45.0696825" lon="8.3302025"><ele>247.0</ele><time>2026-04-18T15:05:17.238Z</time></trkpt><trkpt lat="45.0695554" lon="8.3302922"><ele>247.0</ele><time>2026-04-18T15:05:18.238Z</time></trkpt><trkpt lat="45.0694422" lon="8.3303661"><ele>247.0</ele><time>2026-04-18T15:05:19.238Z</time></trkpt><trkpt lat="45.0693372" lon="8.3304426"><ele>247.0</ele><time>2026-04-18T15:05:20.238Z</time></trkpt><trkpt lat="45.0692226" lon="8.3305039"><ele>247.0</ele><time>2026-04-18T15:05:21.238Z</time></trkpt><trkpt lat="45.0691099" lon="8.3305604"><ele>250.0</ele><time>2026-04-18T15:05:22.239Z</time></trkpt><trkpt lat="45.0689923" lon="8.3306099"><ele>253.0</ele><time>2026-04-18T15:05:23.238Z</time></trkpt><trkpt lat="45.0688864" lon="8.3306869"><ele>256.0</ele><time>2026-04-18T15:05:24.238Z</time></trkpt><trkpt lat="45.0687816" lon="8.3307945"><ele>259.0</ele><time>2026-04-18T15:05:25.238Z</time></trkpt><trkpt lat="45.0686849" lon="8.3309234"><ele>259.0</ele><time>2026-04-18T15:05:26.238Z</time></trkpt><trkpt lat="45.0685841" lon="8.3310418"><ele>259.0</ele><time>2026-04-18T15:05:27.238Z</time></trkpt><trkpt lat="45.0684877" lon="8.331127"><ele>259.0</ele><time>2026-04-18T15:05:28.239Z</time></trkpt><trkpt lat="45.0683892" lon="8.3311695"><ele>259.0</ele><time>2026-04-18T15:05:29.238Z</time></trkpt><trkpt lat="45.0682784" lon="8.3311546"><ele>261.4</ele><time>2026-04-18T15:05:30.238Z</time></trkpt><trkpt lat="45.0681643" lon="8.3311138"><ele>263.79999999999995</ele><time>2026-04-18T15:05:31.238Z</time></trkpt><trkpt lat="45.0680683" lon="8.3310662"><ele>266.20000000000005</ele><time>2026-04-18T15:05:32.238Z</time></trkpt><trkpt lat="45.0679721" lon="8.3310003"><ele>268.6</ele><time>2026-04-18T15:05:33.239Z</time></trkpt><trkpt lat="45.0678963" lon="8.3309057"><ele>271.0</ele><time>2026-04-18T15:05:34.238Z</time></trkpt><trkpt lat="45.0678523" lon="8.3307823"><ele>271.0</ele><time>2026-04-18T15:05:35.238Z</time></trkpt><trkpt lat="45.0678147" lon="8.3306446"><ele>271.0</ele><time>2026-04-18T15:05:36.239Z</time></trkpt><trkpt lat="45.0677889" lon="8.330526"><ele>271.0</ele><time>2026-04-18T15:05:37.238Z</time></trkpt><trkpt lat="45.0677432" lon="8.3304258"><ele>271.0</ele><time>2026-04-18T15:05:38.238Z</time></trkpt><trkpt lat="45.0676705" lon="8.3303279"><ele>271.0</ele><time>2026-04-18T15:05:39.238Z</time></trkpt><trkpt lat="45.0675871" lon="8.3302478"><ele>270.0</ele><time>2026-04-18T15:05:40.239Z</time></trkpt><trkpt lat="45.0675058" lon="8.3301863"><ele>269.0</ele><time>2026-04-18T15:05:41.238Z</time></trkpt><trkpt lat="45.0674385" lon="8.3301271"><ele>268.0</ele><time>2026-04-18T15:05:42.238Z</time></trkpt><trkpt lat="45.0673709" lon="8.3300879"><ele>267.0</ele><time>2026-04-18T15:05:43.239Z</time></trkpt><trkpt lat="45.0673026" lon="8.3300898"><ele>266.0</ele><time>2026-04-18T15:05:44.238Z</time></trkpt><trkpt lat="45.0672384" lon="8.330222"><ele>265.0</ele><time>2026-04-18T15:05:46.238Z</time></trkpt><trkpt lat="45.0672355" lon="8.3303337"><ele>264.4</ele><time>2026-04-18T15:05:47.238Z</time></trkpt><trkpt lat="45.067251" lon="8.3304715"><ele>263.8</ele><time>2026-04-18T15:05:48.239Z</time></trkpt><trkpt lat="45.0672652" lon="8.3306206"><ele>263.2</ele><time>2026-04-18T15:05:49.238Z</time></trkpt><trkpt lat="45.0672762" lon="8.3307765"><ele>262.6</ele><time>2026-04-18T15:05:50.238Z</time></trkpt><trkpt lat="45.0672628" lon="8.3309384"><ele>262.0</ele><time>2026-04-18T15:05:51.239Z</time></trkpt><trkpt lat="45.0672296" lon="8.3310957"><ele>262.0</ele><time>2026-04-18T15:05:52.238Z</time></trkpt><trkpt lat="45.0671725" lon="8.3312464"><ele>262.0</ele><time>2026-04-18T15:05:53.238Z</time></trkpt><trkpt lat="45.0671054" lon="8.3313908"><ele>262.0</ele><time>2026-04-18T15:05:54.239Z</time></trkpt><trkpt lat="45.0670116" lon="8.3315312"><ele>262.0</ele><time>2026-04-18T15:05:55.238Z</time></trkpt><trkpt lat="45.066913" lon="8.3316556"><ele>264.75</ele><time>2026-04-18T15:05:56.238Z</time></trkpt><trkpt lat="45.0668064" lon="8.3317785"><ele>267.5</ele><time>2026-04-18T15:05:57.238Z</time></trkpt><trkpt lat="45.0667175" lon="8.3319178"><ele>270.25</ele><time>2026-04-18T15:05:58.238Z</time></trkpt><trkpt lat="45.0666503" lon="8.3320722"><ele>273.0</ele><time>2026-04-18T15:05:59.238Z</time></trkpt><trkpt lat="45.0665885" lon="8.3322528"><ele>273.0</ele><time>2026-04-18T15:06:00.238Z</time></trkpt><trkpt lat="45.0665241" lon="8.332439"><ele>273.0</ele><time>2026-04-18T15:06:01.239Z</time></trkpt><trkpt lat="45.0664572" lon="8.3325951"><ele>273.0</ele><time>2026-04-18T15:06:02.238Z</time></trkpt><trkpt lat="45.066397" lon="8.3327644"><ele>273.0</ele><time>2026-04-18T15:06:03.239Z</time></trkpt><trkpt lat="45.0663386" lon="8.3329502"><ele>276.25</ele><time>2026-04-18T15:06:04.238Z</time></trkpt><trkpt lat="45.0662781" lon="8.3331234"><ele>279.5</ele><time>2026-04-18T15:06:05.238Z</time></trkpt><trkpt lat="45.0662172" lon="8.3333171"><ele>282.75</ele><time>2026-04-18T15:06:06.238Z</time></trkpt><trkpt lat="45.066159" lon="8.3334831"><ele>286.0</ele><time>2026-04-18T15:06:07.238Z</time></trkpt><trkpt lat="45.0660994" lon="8.333629"><ele>286.0</ele><time>2026-04-18T15:06:08.239Z</time></trkpt><trkpt lat="45.0660285" lon="8.3337527"><ele>286.0</ele><time>2026-04-18T15:06:09.238Z</time></trkpt><trkpt lat="45.0659286" lon="8.3338557"><ele>286.0</ele><time>2026-04-18T15:06:10.238Z</time></trkpt><trkpt lat="45.0658242" lon="8.3339502"><ele>286.0</ele><time>2026-04-18T15:06:11.238Z</time></trkpt><trkpt lat="45.0657017" lon="8.3340009"><ele>286.0</ele><time>2026-04-18T15:06:12.238Z</time></trkpt><trkpt lat="45.0655871" lon="8.3340691"><ele>286.0</ele><time>2026-04-18T15:06:13.239Z</time></trkpt><trkpt lat="45.0654776" lon="8.3341602"><ele>286.0</ele><time>2026-04-18T15:06:14.238Z</time></trkpt><trkpt lat="45.0653718" lon="8.3342817"><ele>286.0</ele><time>2026-04-18T15:06:15.238Z</time></trkpt><trkpt lat="45.0652715" lon="8.3344111"><ele>286.0</ele><time>2026-04-18T15:06:16.239Z</time></trkpt><trkpt lat="45.0651608" lon="8.3345264"><ele>286.0</ele><time>2026-04-18T15:06:17.238Z</time></trkpt><trkpt lat="45.0650568" lon="8.3346095"><ele>286.0</ele><time>2026-04-18T15:06:18.238Z</time></trkpt><trkpt lat="45.0648964" lon="8.3346507"><ele>286.0</ele><time>2026-04-18T15:06:19.238Z</time></trkpt><trkpt lat="45.0647601" lon="8.3347102"><ele>287.25</ele><time>2026-04-18T15:06:20.239Z</time></trkpt><trkpt lat="45.0646261" lon="8.3347579"><ele>288.5</ele><time>2026-04-18T15:06:21.238Z</time></trkpt><trkpt lat="45.064502" lon="8.3347936"><ele>289.75</ele><time>2026-04-18T15:06:22.238Z</time></trkpt><trkpt lat="45.0643927" lon="8.3348211"><ele>291.0</ele><time>2026-04-18T15:06:23.239Z</time></trkpt><trkpt lat="45.0642813" lon="8.3348779"><ele>291.0</ele><time>2026-04-18T15:06:24.238Z</time></trkpt><trkpt lat="45.0642407" lon="8.3349826"><ele>291.0</ele><time>2026-04-18T15:06:25.238Z</time></trkpt><trkpt lat="45.0642106" lon="8.3351212"><ele>291.0</ele><time>2026-04-18T15:06:26.238Z</time></trkpt><trkpt lat="45.0641966" lon="8.3352749"><ele>291.0</ele><time>2026-04-18T15:06:27.239Z</time></trkpt><trkpt lat="45.0641925" lon="8.3354415"><ele>291.0</ele><time>2026-04-18T15:06:28.239Z</time></trkpt><trkpt lat="45.0641925" lon="8.3356186"><ele>291.25</ele><time>2026-04-18T15:06:29.239Z</time></trkpt><trkpt lat="45.0641923" lon="8.335811"><ele>291.5</ele><time>2026-04-18T15:06:30.238Z</time></trkpt><trkpt lat="45.0641885" lon="8.3360018"><ele>291.75</ele><time>2026-04-18T15:06:31.238Z</time></trkpt><trkpt lat="45.0641621" lon="8.336207"><ele>292.0</ele><time>2026-04-18T15:06:32.238Z</time></trkpt><trkpt lat="45.0641094" lon="8.3363905"><ele>288.75</ele><time>2026-04-18T15:06:33.238Z</time></trkpt><trkpt lat="45.0640338" lon="8.336566"><ele>285.5</ele><time>2026-04-18T15:06:34.239Z</time></trkpt><trkpt lat="45.0639488" lon="8.336727"><ele>282.25</ele><time>2026-04-18T15:06:35.239Z</time></trkpt><trkpt lat="45.0638634" lon="8.3369068"><ele>279.0</ele><time>2026-04-18T15:06:36.239Z</time></trkpt><trkpt lat="45.0637685" lon="8.3370936"><ele>280.0</ele><time>2026-04-18T15:06:37.238Z</time></trkpt><trkpt lat="45.0636827" lon="8.3372848"><ele>281.0</ele><time>2026-04-18T15:06:38.238Z</time></trkpt><trkpt lat="45.0635909" lon="8.3374695"><ele>282.0</ele><time>2026-04-18T15:06:39.238Z</time></trkpt><trkpt lat="45.0635031" lon="8.3376668"><ele>282.0</ele><time>2026-04-18T15:06:40.238Z</time></trkpt><trkpt lat="45.0634127" lon="8.3378556"><ele>282.0</ele><time>2026-04-18T15:06:41.238Z</time></trkpt><trkpt lat="45.0633175" lon="8.3380456"><ele>282.0</ele><time>2026-04-18T15:06:42.238Z</time></trkpt><trkpt lat="45.0632265" lon="8.3382462"><ele>282.25</ele><time>2026-04-18T15:06:43.238Z</time></trkpt><trkpt lat="45.0631418" lon="8.3384311"><ele>282.5</ele><time>2026-04-18T15:06:44.238Z</time></trkpt><trkpt lat="45.0630583" lon="8.3385938"><ele>282.75</ele><time>2026-04-18T15:06:45.238Z</time></trkpt><trkpt lat="45.0629831" lon="8.3387502"><ele>283.0</ele><time>2026-04-18T15:06:46.238Z</time></trkpt><trkpt lat="45.0629213" lon="8.33891"><ele>283.0</ele><time>2026-04-18T15:06:47.238Z</time></trkpt><trkpt lat="45.0628727" lon="8.3390727"><ele>283.0</ele><time>2026-04-18T15:06:48.239Z</time></trkpt><trkpt lat="45.0628433" lon="8.3392349"><ele>283.0</ele><time>2026-04-18T15:06:49.238Z</time></trkpt><trkpt lat="45.0628183" lon="8.3393736"><ele>283.0</ele><time>2026-04-18T15:06:50.238Z</time></trkpt><trkpt lat="45.0628029" lon="8.3394899"><ele>283.0</ele><time>2026-04-18T15:06:51.239Z</time></trkpt><trkpt lat="45.0627897" lon="8.3395894"><ele>283.0</ele><time>2026-04-18T15:06:52.238Z</time></trkpt><trkpt lat="45.0627257" lon="8.3397432"><ele>283.0</ele><time>2026-04-18T15:06:54.238Z</time></trkpt><trkpt lat="45.062592" lon="8.3397987"><ele>283.0</ele><time>2026-04-18T15:06:56.239Z</time></trkpt><trkpt lat="45.0625075" lon="8.3398178"><ele>283.0</ele><time>2026-04-18T15:06:57.238Z</time></trkpt><trkpt lat="45.0624102" lon="8.3398431"><ele>283.0</ele><time>2026-04-18T15:06:58.239Z</time></trkpt><trkpt lat="45.0623173" lon="8.339881"><ele>283.0</ele><time>2026-04-18T15:06:59.239Z</time></trkpt><trkpt lat="45.0622158" lon="8.3399416"><ele>283.0</ele><time>2026-04-18T15:07:00.239Z</time></trkpt><trkpt lat="45.062111" lon="8.3400292"><ele>283.0</ele><time>2026-04-18T15:07:01.238Z</time></trkpt><trkpt lat="45.0619993" lon="8.3401257"><ele>283.0</ele><time>2026-04-18T15:07:02.239Z</time></trkpt><trkpt lat="45.0618793" lon="8.3402225"><ele>283.0</ele><time>2026-04-18T15:07:03.238Z</time></trkpt><trkpt lat="45.0617558" lon="8.3403294"><ele>283.0</ele><time>2026-04-18T15:07:04.238Z</time></trkpt><trkpt lat="45.0616265" lon="8.3404432"><ele>283.0</ele><time>2026-04-18T15:07:05.239Z</time></trkpt><trkpt lat="45.0614987" lon="8.3405407"><ele>282.5</ele><time>2026-04-18T15:07:06.239Z</time></trkpt><trkpt lat="45.0613746" lon="8.3406423"><ele>282.0</ele><time>2026-04-18T15:07:07.238Z</time></trkpt><trkpt lat="45.0612497" lon="8.3407447"><ele>281.5</ele><time>2026-04-18T15:07:08.238Z</time></trkpt><trkpt lat="45.0611317" lon="8.3408306"><ele>281.0</ele><time>2026-04-18T15:07:09.239Z</time></trkpt><trkpt lat="45.0610002" lon="8.3409056"><ele>281.0</ele><time>2026-04-18T15:07:10.238Z</time></trkpt><trkpt lat="45.0608589" lon="8.3409718"><ele>281.0</ele><time>2026-04-18T15:07:11.238Z</time></trkpt><trkpt lat="45.060718" lon="8.3410046"><ele>281.0</ele><time>2026-04-18T15:07:12.238Z</time></trkpt><trkpt lat="45.0605695" lon="8.3410304"><ele>281.0</ele><time>2026-04-18T15:07:13.238Z</time></trkpt><trkpt lat="45.0604141" lon="8.3410288"><ele>279.33333333333337</ele><time>2026-04-18T15:07:14.238Z</time></trkpt><trkpt lat="45.0602537" lon="8.3410179"><ele>277.6666666666667</ele><time>2026-04-18T15:07:15.238Z</time></trkpt><trkpt lat="45.0600934" lon="8.34101"><ele>276.0</ele><time>2026-04-18T15:07:16.238Z</time></trkpt><trkpt lat="45.0599277" lon="8.3410025"><ele>274.0</ele><time>2026-04-18T15:07:17.238Z</time></trkpt><trkpt lat="45.0597603" lon="8.3409963"><ele>272.0</ele><time>2026-04-18T15:07:18.239Z</time></trkpt><trkpt lat="45.0595987" lon="8.3409905"><ele>270.0</ele><time>2026-04-18T15:07:19.238Z</time></trkpt><trkpt lat="45.0594392" lon="8.3409814"><ele>270.0</ele><time>2026-04-18T15:07:20.238Z</time></trkpt><trkpt lat="45.0592846" lon="8.3409798"><ele>270.0</ele><time>2026-04-18T15:07:21.238Z</time></trkpt><trkpt lat="45.0591354" lon="8.3409793"><ele>270.0</ele><time>2026-04-18T15:07:22.238Z</time></trkpt><trkpt lat="45.0589875" lon="8.3409708"><ele>270.5</ele><time>2026-04-18T15:07:23.238Z</time></trkpt><trkpt lat="45.0588512" lon="8.3409687"><ele>271.0</ele><time>2026-04-18T15:07:24.238Z</time></trkpt><trkpt lat="45.0587245" lon="8.3409571"><ele>271.5</ele><time>2026-04-18T15:07:25.238Z</time></trkpt><trkpt lat="45.0586026" lon="8.3409532"><ele>272.0</ele><time>2026-04-18T15:07:26.239Z</time></trkpt><trkpt lat="45.0584984" lon="8.3409504"><ele>272.0</ele><time>2026-04-18T15:07:27.238Z</time></trkpt><trkpt lat="45.0584102" lon="8.340965"><ele>272.0</ele><time>2026-04-18T15:07:28.239Z</time></trkpt><trkpt lat="45.0583346" lon="8.3410109"><ele>272.0</ele><time>2026-04-18T15:07:29.238Z</time></trkpt><trkpt lat="45.0582788" lon="8.3410871"><ele>272.0</ele><time>2026-04-18T15:07:30.238Z</time></trkpt><trkpt lat="45.0582374" lon="8.3411958"><ele>272.0</ele><time>2026-04-18T15:07:31.238Z</time></trkpt><trkpt lat="45.0582639" lon="8.3413194"><ele>272.0</ele><time>2026-04-18T15:07:32.238Z</time></trkpt><trkpt lat="45.0582975" lon="8.3414576"><ele>271.4</ele><time>2026-04-18T15:07:33.238Z</time></trkpt><trkpt lat="45.0583755" lon="8.3415705"><ele>270.79999999999995</ele><time>2026-04-18T15:07:34.238Z</time></trkpt><trkpt lat="45.0584654" lon="8.3416512"><ele>270.2</ele><time>2026-04-18T15:07:35.238Z</time></trkpt><trkpt lat="45.0585695" lon="8.3417086"><ele>269.59999999999997</ele><time>2026-04-18T15:07:36.239Z</time></trkpt><trkpt lat="45.058657" lon="8.3417672"><ele>269.0</ele><time>2026-04-18T15:07:37.238Z</time></trkpt><trkpt lat="45.0587406" lon="8.3418536"><ele>269.0</ele><time>2026-04-18T15:07:38.238Z</time></trkpt><trkpt lat="45.0587991" lon="8.3419672"><ele>269.0</ele><time>2026-04-18T15:07:39.238Z</time></trkpt><trkpt lat="45.0588244" lon="8.3421015"><ele>269.0</ele><time>2026-04-18T15:07:40.238Z</time></trkpt><trkpt lat="45.0588068" lon="8.3422501"><ele>269.0</ele><time>2026-04-18T15:07:41.239Z</time></trkpt><trkpt lat="45.0587593" lon="8.3423923"><ele>269.0</ele><time>2026-04-18T15:07:42.238Z</time></trkpt><trkpt lat="45.0586966" lon="8.342534"><ele>267.25</ele><time>2026-04-18T15:07:43.239Z</time></trkpt><trkpt lat="45.058629" lon="8.3426923"><ele>265.5</ele><time>2026-04-18T15:07:44.239Z</time></trkpt><trkpt lat="45.0585613" lon="8.3428505"><ele>263.75</ele><time>2026-04-18T15:07:45.238Z</time></trkpt><trkpt lat="45.0584909" lon="8.3430187"><ele>262.0</ele><time>2026-04-18T15:07:46.238Z</time></trkpt><trkpt lat="45.0584289" lon="8.3431928"><ele>261.5</ele><time>2026-04-18T15:07:47.238Z</time></trkpt><trkpt lat="45.0583603" lon="8.3433561"><ele>261.0</ele><time>2026-04-18T15:07:48.238Z</time></trkpt><trkpt lat="45.0582932" lon="8.3435125"><ele>260.5</ele><time>2026-04-18T15:07:49.238Z</time></trkpt><trkpt lat="45.0582214" lon="8.3436724"><ele>260.0</ele><time>2026-04-18T15:07:50.238Z</time></trkpt><trkpt lat="45.0581339" lon="8.3438052"><ele>259.0</ele><time>2026-04-18T15:07:51.238Z</time></trkpt><trkpt lat="45.0580327" lon="8.3439305"><ele>258.0</ele><time>2026-04-18T15:07:52.239Z</time></trkpt><trkpt lat="45.0579222" lon="8.3440433"><ele>257.0</ele><time>2026-04-18T15:07:53.238Z</time></trkpt><trkpt lat="45.0577963" lon="8.3441164"><ele>256.0</ele><time>2026-04-18T15:07:54.238Z</time></trkpt><trkpt lat="45.0576637" lon="8.3441722"><ele>256.0</ele><time>2026-04-18T15:07:55.239Z</time></trkpt><trkpt lat="45.0575304" lon="8.3442155"><ele>256.0</ele><time>2026-04-18T15:07:56.238Z</time></trkpt><trkpt lat="45.0573937" lon="8.3442526"><ele>256.0</ele><time>2026-04-18T15:07:57.238Z</time></trkpt><trkpt lat="45.057265" lon="8.3442821"><ele>256.0</ele><time>2026-04-18T15:07:58.238Z</time></trkpt><trkpt lat="45.0571482" lon="8.3443204"><ele>254.4</ele><time>2026-04-18T15:07:59.238Z</time></trkpt><trkpt lat="45.0570475" lon="8.344337"><ele>252.8</ele><time>2026-04-18T15:08:00.238Z</time></trkpt><trkpt lat="45.05693" lon="8.344327"><ele>251.20000000000002</ele><time>2026-04-18T15:08:01.238Z</time></trkpt><trkpt lat="45.0568291" lon="8.344302"><ele>249.60000000000002</ele><time>2026-04-18T15:08:02.239Z</time></trkpt><trkpt lat="45.0567362" lon="8.344251"><ele>248.0</ele><time>2026-04-18T15:08:03.238Z</time></trkpt><trkpt lat="45.0566594" lon="8.3441811"><ele>247.4</ele><time>2026-04-18T15:08:04.239Z</time></trkpt><trkpt lat="45.0566085" lon="8.3440719"><ele>246.8</ele><time>2026-04-18T15:08:05.238Z</time></trkpt><trkpt lat="45.0565918" lon="8.3439392"><ele>246.2</ele><time>2026-04-18T15:08:06.238Z</time></trkpt><trkpt lat="45.0566228" lon="8.3437998"><ele>245.6</ele><time>2026-04-18T15:08:07.238Z</time></trkpt><trkpt lat="45.0566916" lon="8.3436715"><ele>245.0</ele><time>2026-04-18T15:08:08.238Z</time></trkpt><trkpt lat="45.056762" lon="8.3435481"><ele>243.5</ele><time>2026-04-18T15:08:09.238Z</time></trkpt><trkpt lat="45.0568411" lon="8.3434125"><ele>242.0</ele><time>2026-04-18T15:08:10.239Z</time></trkpt><trkpt lat="45.0569075" lon="8.3432849"><ele>240.5</ele><time>2026-04-18T15:08:11.238Z</time></trkpt><trkpt lat="45.0569704" lon="8.3431561"><ele>239.0</ele><time>2026-04-18T15:08:12.239Z</time></trkpt><trkpt lat="45.057008" lon="8.3430088"><ele>238.5</ele><time>2026-04-18T15:08:13.238Z</time></trkpt><trkpt lat="45.057009" lon="8.3428472"><ele>238.0</ele><time>2026-04-18T15:08:14.238Z</time></trkpt><trkpt lat="45.05699" lon="8.3426829"><ele>237.5</ele><time>2026-04-18T15:08:15.239Z</time></trkpt><trkpt lat="45.0569445" lon="8.3425212"><ele>237.0</ele><time>2026-04-18T15:08:16.238Z</time></trkpt><trkpt lat="45.0568273" lon="8.3423902"><ele>237.0</ele><time>2026-04-18T15:08:17.238Z</time></trkpt><trkpt lat="45.0567272" lon="8.3422523"><ele>237.0</ele><time>2026-04-18T15:08:18.238Z</time></trkpt><trkpt lat="45.0566225" lon="8.342134"><ele>237.0</ele><time>2026-04-18T15:08:19.239Z</time></trkpt><trkpt lat="45.0565192" lon="8.3420274"><ele>237.0</ele><time>2026-04-18T15:08:20.238Z</time></trkpt><trkpt lat="45.0564071" lon="8.3419298"><ele>235.75</ele><time>2026-04-18T15:08:21.238Z</time></trkpt><trkpt lat="45.0562935" lon="8.341842"><ele>234.5</ele><time>2026-04-18T15:08:22.238Z</time></trkpt><trkpt lat="45.0561753" lon="8.3417643"><ele>233.25</ele><time>2026-04-18T15:08:23.238Z</time></trkpt><trkpt lat="45.05605" lon="8.3416898"><ele>232.0</ele><time>2026-04-18T15:08:24.238Z</time></trkpt><trkpt lat="45.0559311" lon="8.3416147"><ele>232.0</ele><time>2026-04-18T15:08:25.238Z</time></trkpt><trkpt lat="45.0558007" lon="8.3415477"><ele>232.0</ele><time>2026-04-18T15:08:26.239Z</time></trkpt><trkpt lat="45.0556678" lon="8.341487"><ele>232.0</ele><time>2026-04-18T15:08:27.238Z</time></trkpt><trkpt lat="45.0555434" lon="8.341412"><ele>232.0</ele><time>2026-04-18T15:08:28.238Z</time></trkpt><trkpt lat="45.0554181" lon="8.3413524"><ele>231.25</ele><time>2026-04-18T15:08:29.238Z</time></trkpt><trkpt lat="45.0553054" lon="8.3412782"><ele>230.5</ele><time>2026-04-18T15:08:30.238Z</time></trkpt><trkpt lat="45.0551832" lon="8.341208"><ele>229.75</ele><time>2026-04-18T15:08:31.238Z</time></trkpt><trkpt lat="45.0550768" lon="8.3411249"><ele>229.0</ele><time>2026-04-18T15:08:32.238Z</time></trkpt><trkpt lat="45.0549493" lon="8.341061"><ele>228.0</ele><time>2026-04-18T15:08:33.239Z</time></trkpt><trkpt lat="45.0548408" lon="8.3409644"><ele>227.0</ele><time>2026-04-18T15:08:34.239Z</time></trkpt><trkpt lat="45.0547249" lon="8.3408764"><ele>226.0</ele><time>2026-04-18T15:08:35.238Z</time></trkpt><trkpt lat="45.0546037" lon="8.340808"><ele>225.0</ele><time>2026-04-18T15:08:36.238Z</time></trkpt><trkpt lat="45.0544864" lon="8.3407217"><ele>225.0</ele><time>2026-04-18T15:08:37.238Z</time></trkpt><trkpt lat="45.0543898" lon="8.3406198"><ele>225.0</ele><time>2026-04-18T15:08:38.238Z</time></trkpt><trkpt lat="45.0542753" lon="8.3405043"><ele>225.0</ele><time>2026-04-18T15:08:39.239Z</time></trkpt><trkpt lat="45.0541789" lon="8.3403928"><ele>225.0</ele><time>2026-04-18T15:08:40.238Z</time></trkpt><trkpt lat="45.0540754" lon="8.3402709"><ele>223.25</ele><time>2026-04-18T15:08:41.238Z</time></trkpt><trkpt lat="45.0539622" lon="8.3401585"><ele>221.5</ele><time>2026-04-18T15:08:42.238Z</time></trkpt><trkpt lat="45.0538512" lon="8.3400397"><ele>219.75</ele><time>2026-04-18T15:08:43.238Z</time></trkpt><trkpt lat="45.0537373" lon="8.3399284"><ele>218.0</ele><time>2026-04-18T15:08:44.239Z</time></trkpt><trkpt lat="45.0536451" lon="8.3398167"><ele>218.8</ele><time>2026-04-18T15:08:45.239Z</time></trkpt><trkpt lat="45.0535523" lon="8.3397128"><ele>219.60000000000002</ele><time>2026-04-18T15:08:46.239Z</time></trkpt><trkpt lat="45.0534702" lon="8.3396183"><ele>220.39999999999998</ele><time>2026-04-18T15:08:47.239Z</time></trkpt><trkpt lat="45.0533966" lon="8.3394966"><ele>221.2</ele><time>2026-04-18T15:08:48.238Z</time></trkpt><trkpt lat="45.053315" lon="8.3394009"><ele>222.0</ele><time>2026-04-18T15:08:49.238Z</time></trkpt><trkpt lat="45.0532331" lon="8.339297"><ele>219.8</ele><time>2026-04-18T15:08:50.238Z</time></trkpt><trkpt lat="45.0531345" lon="8.3392147"><ele>217.6</ele><time>2026-04-18T15:08:51.239Z</time></trkpt><trkpt lat="45.0530824" lon="8.3390709"><ele>215.4</ele><time>2026-04-18T15:08:52.238Z</time></trkpt><trkpt lat="45.0529902" lon="8.3389779"><ele>213.20000000000002</ele><time>2026-04-18T15:08:53.239Z</time></trkpt><trkpt lat="45.0529444" lon="8.3388534"><ele>211.0</ele><time>2026-04-18T15:08:54.238Z</time></trkpt><trkpt lat="45.0528821" lon="8.3387653"><ele>210.60000000000002</ele><time>2026-04-18T15:08:55.238Z</time></trkpt><trkpt lat="45.0528247" lon="8.3386226"><ele>210.2</ele><time>2026-04-18T15:08:56.239Z</time></trkpt><trkpt lat="45.0527332" lon="8.3385303"><ele>209.8</ele><time>2026-04-18T15:08:57.238Z</time></trkpt><trkpt lat="45.0526548" lon="8.3384421"><ele>209.39999999999998</ele><time>2026-04-18T15:08:58.238Z</time></trkpt><trkpt lat="45.0525724" lon="8.3383575"><ele>209.0</ele><time>2026-04-18T15:08:59.238Z</time></trkpt><trkpt lat="45.0524916" lon="8.3382738"><ele>208.50000000000003</ele><time>2026-04-18T15:09:00.238Z</time></trkpt><trkpt lat="45.0524462" lon="8.3382026"><ele>208.0</ele><time>2026-04-18T15:09:01.239Z</time></trkpt><trkpt lat="45.0523649" lon="8.3381657"><ele>207.5</ele><time>2026-04-18T15:09:02.238Z</time></trkpt><trkpt lat="45.0522838" lon="8.3381361"><ele>207.0</ele><time>2026-04-18T15:09:03.238Z</time></trkpt><trkpt lat="45.0521937" lon="8.3381223"><ele>206.50000000000003</ele><time>2026-04-18T15:09:04.239Z</time></trkpt><trkpt lat="45.0520967" lon="8.3380972"><ele>206.0</ele><time>2026-04-18T15:09:05.238Z</time></trkpt><trkpt lat="45.0520021" lon="8.3380677"><ele>206.0</ele><time>2026-04-18T15:09:06.238Z</time></trkpt><trkpt lat="45.0518681" lon="8.3380625"><ele>206.0</ele><time>2026-04-18T15:09:07.239Z</time></trkpt><trkpt lat="45.0517605" lon="8.3381147"><ele>206.0</ele><time>2026-04-18T15:09:08.239Z</time></trkpt><trkpt lat="45.0516451" lon="8.3381504"><ele>206.0</ele><time>2026-04-18T15:09:09.238Z</time></trkpt><trkpt lat="45.0515468" lon="8.3381978"><ele>205.25</ele><time>2026-04-18T15:09:10.238Z</time></trkpt><trkpt lat="45.0514409" lon="8.3382422"><ele>204.5</ele><time>2026-04-18T15:09:11.238Z</time></trkpt><trkpt lat="45.0513397" lon="8.3383153"><ele>203.75</ele><time>2026-04-18T15:09:12.238Z</time></trkpt><trkpt lat="45.0512442" lon="8.3383947"><ele>203.0</ele><time>2026-04-18T15:09:13.238Z</time></trkpt><trkpt lat="45.0511229" lon="8.3384915"><ele>203.0</ele><time>2026-04-18T15:09:14.239Z</time></trkpt><trkpt lat="45.0510085" lon="8.3385686"><ele>203.0</ele><time>2026-04-18T15:09:15.239Z</time></trkpt><trkpt lat="45.0509051" lon="8.3386466"><ele>203.0</ele><time>2026-04-18T15:09:16.238Z</time></trkpt><trkpt lat="45.050806" lon="8.33874"><ele>203.0</ele><time>2026-04-18T15:09:17.238Z</time></trkpt><trkpt lat="45.0507107" lon="8.338879"><ele>203.25</ele><time>2026-04-18T15:09:18.238Z</time></trkpt><trkpt lat="45.0506097" lon="8.3390067"><ele>203.5</ele><time>2026-04-18T15:09:19.238Z</time></trkpt><trkpt lat="45.0505201" lon="8.3391436"><ele>203.75</ele><time>2026-04-18T15:09:20.238Z</time></trkpt><trkpt lat="45.0504227" lon="8.3392791"><ele>204.0</ele><time>2026-04-18T15:09:21.239Z</time></trkpt><trkpt lat="45.0503368" lon="8.3394068"><ele>204.0</ele><time>2026-04-18T15:09:22.238Z</time></trkpt><trkpt lat="45.0502403" lon="8.3395487"><ele>204.0</ele><time>2026-04-18T15:09:23.238Z</time></trkpt><trkpt lat="45.0501324" lon="8.3397039"><ele>204.0</ele><time>2026-04-18T15:09:24.238Z</time></trkpt><trkpt lat="45.0500131" lon="8.3398711"><ele>202.66666666666669</ele><time>2026-04-18T15:09:25.238Z</time></trkpt><trkpt lat="45.0499116" lon="8.3400188"><ele>201.33333333333334</ele><time>2026-04-18T15:09:26.238Z</time></trkpt><trkpt lat="45.0497978" lon="8.3401833"><ele>200.0</ele><time>2026-04-18T15:09:27.238Z</time></trkpt><trkpt lat="45.0496938" lon="8.3403419"><ele>200.0</ele><time>2026-04-18T15:09:28.238Z</time></trkpt><trkpt lat="45.0495835" lon="8.3404998"><ele>200.0</ele><time>2026-04-18T15:09:29.239Z</time></trkpt><trkpt lat="45.0494638" lon="8.3406645"><ele>200.0</ele><time>2026-04-18T15:09:30.238Z</time></trkpt><trkpt lat="45.0493497" lon="8.3408344"><ele>200.0</ele><time>2026-04-18T15:09:31.238Z</time></trkpt><trkpt lat="45.0492405" lon="8.3410004"><ele>200.0</ele><time>2026-04-18T15:09:32.238Z</time></trkpt><trkpt lat="45.0491162" lon="8.3411716"><ele>200.0</ele><time>2026-04-18T15:09:33.238Z</time></trkpt><trkpt lat="45.0489972" lon="8.3413413"><ele>199.66666666666669</ele><time>2026-04-18T15:09:34.238Z</time></trkpt><trkpt lat="45.0488816" lon="8.3415123"><ele>199.33333333333331</ele><time>2026-04-18T15:09:35.238Z</time></trkpt><trkpt lat="45.0487617" lon="8.3416854"><ele>199.0</ele><time>2026-04-18T15:09:36.238Z</time></trkpt><trkpt lat="45.04864" lon="8.3418554"><ele>199.0</ele><time>2026-04-18T15:09:37.239Z</time></trkpt><trkpt lat="45.0485218" lon="8.3420268"><ele>199.0</ele><time>2026-04-18T15:09:38.238Z</time></trkpt><trkpt lat="45.0484003" lon="8.3422093"><ele>199.0</ele><time>2026-04-18T15:09:39.238Z</time></trkpt><trkpt lat="45.0482812" lon="8.3423865"><ele>197.66666666666666</ele><time>2026-04-18T15:09:40.238Z</time></trkpt><trkpt lat="45.0481605" lon="8.3425656"><ele>196.33333333333331</ele><time>2026-04-18T15:09:41.238Z</time></trkpt><trkpt lat="45.0480343" lon="8.3427388"><ele>195.0</ele><time>2026-04-18T15:09:42.238Z</time></trkpt><trkpt lat="45.0479069" lon="8.3428987"><ele>195.66666666666669</ele><time>2026-04-18T15:09:43.238Z</time></trkpt><trkpt lat="45.0477824" lon="8.3430665"><ele>196.33333333333334</ele><time>2026-04-18T15:09:44.238Z</time></trkpt><trkpt lat="45.0476516" lon="8.3432255"><ele>197.0</ele><time>2026-04-18T15:09:45.239Z</time></trkpt><trkpt lat="45.0475185" lon="8.3433926"><ele>195.66666666666669</ele><time>2026-04-18T15:09:46.238Z</time></trkpt><trkpt lat="45.0473801" lon="8.3435547"><ele>194.33333333333331</ele><time>2026-04-18T15:09:47.238Z</time></trkpt><trkpt lat="45.047245" lon="8.3437143"><ele>193.0</ele><time>2026-04-18T15:09:48.239Z</time></trkpt><trkpt lat="45.0471184" lon="8.3438688"><ele>193.66666666666666</ele><time>2026-04-18T15:09:49.238Z</time></trkpt><trkpt lat="45.0469912" lon="8.3440234"><ele>194.33333333333331</ele><time>2026-04-18T15:09:50.239Z</time></trkpt><trkpt lat="45.0468649" lon="8.3441731"><ele>195.0</ele><time>2026-04-18T15:09:51.238Z</time></trkpt><trkpt lat="45.0467396" lon="8.3443243"><ele>194.0</ele><time>2026-04-18T15:09:52.238Z</time></trkpt><trkpt lat="45.0466216" lon="8.3444712"><ele>193.0</ele><time>2026-04-18T15:09:53.238Z</time></trkpt><trkpt lat="45.0464986" lon="8.3446252"><ele>192.0</ele><time>2026-04-18T15:09:54.238Z</time></trkpt><trkpt lat="45.0463773" lon="8.3447679"><ele>192.0</ele><time>2026-04-18T15:09:55.238Z</time></trkpt><trkpt lat="45.0462626" lon="8.3449162"><ele>192.0</ele><time>2026-04-18T15:09:56.239Z</time></trkpt><trkpt lat="45.0461378" lon="8.3450646"><ele>192.0</ele><time>2026-04-18T15:09:57.239Z</time></trkpt><trkpt lat="45.0460173" lon="8.3452113"><ele>192.0</ele><time>2026-04-18T15:09:58.238Z</time></trkpt><trkpt lat="45.0458925" lon="8.3453557"><ele>192.0</ele><time>2026-04-18T15:09:59.238Z</time></trkpt><trkpt lat="45.0457722" lon="8.3455142"><ele>192.0</ele><time>2026-04-18T15:10:00.239Z</time></trkpt><trkpt lat="45.0456592" lon="8.3456549"><ele>192.33333333333331</ele><time>2026-04-18T15:10:01.238Z</time></trkpt><trkpt lat="45.0455433" lon="8.3457949"><ele>192.66666666666666</ele><time>2026-04-18T15:10:02.238Z</time></trkpt><trkpt lat="45.0454257" lon="8.3459421"><ele>193.0</ele><time>2026-04-18T15:10:03.239Z</time></trkpt><trkpt lat="45.0453116" lon="8.3460864"><ele>193.0</ele><time>2026-04-18T15:10:04.238Z</time></trkpt><trkpt lat="45.045197" lon="8.3462224"><ele>193.0</ele><time>2026-04-18T15:10:05.238Z</time></trkpt><trkpt lat="45.0450792" lon="8.3463724"><ele>193.0</ele><time>2026-04-18T15:10:06.239Z</time></trkpt><trkpt lat="45.0449592" lon="8.3465183"><ele>192.66666666666666</ele><time>2026-04-18T15:10:07.238Z</time></trkpt><trkpt lat="45.0448387" lon="8.3466542"><ele>192.33333333333331</ele><time>2026-04-18T15:10:08.239Z</time></trkpt><trkpt lat="45.044706" lon="8.3467805"><ele>192.0</ele><time>2026-04-18T15:10:09.239Z</time></trkpt><trkpt lat="45.044568" lon="8.3468913"><ele>192.0</ele><time>2026-04-18T15:10:10.238Z</time></trkpt><trkpt lat="45.044417" lon="8.346978"><ele>192.0</ele><time>2026-04-18T15:10:11.238Z</time></trkpt><trkpt lat="45.0442589" lon="8.3470438"><ele>192.0</ele><time>2026-04-18T15:10:12.239Z</time></trkpt><trkpt lat="45.0440998" lon="8.3470917"><ele>190.66666666666666</ele><time>2026-04-18T15:10:13.238Z</time></trkpt><trkpt lat="45.043937" lon="8.3471253"><ele>189.33333333333331</ele><time>2026-04-18T15:10:14.238Z</time></trkpt><trkpt lat="45.0437734" lon="8.3471569"><ele>188.0</ele><time>2026-04-18T15:10:15.239Z</time></trkpt><trkpt lat="45.04361" lon="8.3472019"><ele>189.33333333333331</ele><time>2026-04-18T15:10:16.239Z</time></trkpt><trkpt lat="45.0434466" lon="8.3472456"><ele>190.66666666666666</ele><time>2026-04-18T15:10:17.239Z</time></trkpt><trkpt lat="45.0432867" lon="8.3472905"><ele>192.0</ele><time>2026-04-18T15:10:18.239Z</time></trkpt><trkpt lat="45.0431296" lon="8.3473455"><ele>192.0</ele><time>2026-04-18T15:10:19.238Z</time></trkpt><trkpt lat="45.0429711" lon="8.3474068"><ele>192.0</ele><time>2026-04-18T15:10:20.238Z</time></trkpt><trkpt lat="45.0428103" lon="8.3474656"><ele>192.0</ele><time>2026-04-18T15:10:21.238Z</time></trkpt><trkpt lat="45.0426544" lon="8.3475185"><ele>192.0</ele><time>2026-04-18T15:10:22.238Z</time></trkpt><trkpt lat="45.042494" lon="8.3475729"><ele>192.0</ele><time>2026-04-18T15:10:23.238Z</time></trkpt><trkpt lat="45.0423394" lon="8.3476318"><ele>192.0</ele><time>2026-04-18T15:10:24.239Z</time></trkpt><trkpt lat="45.0421802" lon="8.3476916"><ele>190.66666666666666</ele><time>2026-04-18T15:10:25.238Z</time></trkpt><trkpt lat="45.0420186" lon="8.3477532"><ele>189.33333333333331</ele><time>2026-04-18T15:10:26.239Z</time></trkpt><trkpt lat="45.0418712" lon="8.3478022"><ele>188.0</ele><time>2026-04-18T15:10:27.238Z</time></trkpt><trkpt lat="45.0417152" lon="8.3478574"><ele>187.66666666666666</ele><time>2026-04-18T15:10:28.239Z</time></trkpt><trkpt lat="45.04157" lon="8.3479166"><ele>187.33333333333334</ele><time>2026-04-18T15:10:29.239Z</time></trkpt><trkpt lat="45.0414231" lon="8.3479858"><ele>187.0</ele><time>2026-04-18T15:10:30.239Z</time></trkpt><trkpt lat="45.0412856" lon="8.3480648"><ele>187.0</ele><time>2026-04-18T15:10:31.238Z</time></trkpt><trkpt lat="45.0411609" lon="8.348172"><ele>187.0</ele><time>2026-04-18T15:10:32.238Z</time></trkpt><trkpt lat="45.0410595" lon="8.3482988"><ele>187.0</ele><time>2026-04-18T15:10:33.239Z</time></trkpt><trkpt lat="45.0409627" lon="8.3484505"><ele>187.0</ele><time>2026-04-18T15:10:34.238Z</time></trkpt><trkpt lat="45.0408739" lon="8.3486177"><ele>186.66666666666669</ele><time>2026-04-18T15:10:35.239Z</time></trkpt><trkpt lat="45.0407781" lon="8.3488053"><ele>186.33333333333334</ele><time>2026-04-18T15:10:36.239Z</time></trkpt><trkpt lat="45.0406779" lon="8.3490023"><ele>186.0</ele><time>2026-04-18T15:10:37.238Z</time></trkpt><trkpt lat="45.0405773" lon="8.3492"><ele>186.0</ele><time>2026-04-18T15:10:38.239Z</time></trkpt><trkpt lat="45.040474" lon="8.3493945"><ele>186.0</ele><time>2026-04-18T15:10:39.238Z</time></trkpt><trkpt lat="45.0403711" lon="8.3495945"><ele>186.0</ele><time>2026-04-18T15:10:40.238Z</time></trkpt><trkpt lat="45.0402733" lon="8.3497956"><ele>187.33333333333334</ele><time>2026-04-18T15:10:41.239Z</time></trkpt><trkpt lat="45.0401702" lon="8.3499886"><ele>188.66666666666669</ele><time>2026-04-18T15:10:42.238Z</time></trkpt><trkpt lat="45.0400753" lon="8.3501827"><ele>190.0</ele><time>2026-04-18T15:10:43.239Z</time></trkpt><trkpt lat="45.0399829" lon="8.3503721"><ele>188.5</ele><time>2026-04-18T15:10:44.239Z</time></trkpt><trkpt lat="45.0398909" lon="8.3505532"><ele>187.0</ele><time>2026-04-18T15:10:45.238Z</time></trkpt><trkpt lat="45.0398098" lon="8.3507241"><ele>185.5</ele><time>2026-04-18T15:10:46.239Z</time></trkpt><trkpt lat="45.0397485" lon="8.350907"><ele>184.0</ele><time>2026-04-18T15:10:47.238Z</time></trkpt><trkpt lat="45.0397176" lon="8.3511034"><ele>184.0</ele><time>2026-04-18T15:10:48.239Z</time></trkpt><trkpt lat="45.0397028" lon="8.3512886"><ele>184.0</ele><time>2026-04-18T15:10:49.238Z</time></trkpt><trkpt lat="45.0397331" lon="8.3515235"><ele>184.0</ele><time>2026-04-18T15:10:50.238Z</time></trkpt><trkpt lat="45.0397771" lon="8.3517293"><ele>185.0</ele><time>2026-04-18T15:10:51.238Z</time></trkpt><trkpt lat="45.0398286" lon="8.3519552"><ele>186.0</ele><time>2026-04-18T15:10:52.239Z</time></trkpt><trkpt lat="45.0398614" lon="8.352191"><ele>187.0</ele><time>2026-04-18T15:10:53.239Z</time></trkpt><trkpt lat="45.0399026" lon="8.3524196"><ele>187.66666666666669</ele><time>2026-04-18T15:10:54.238Z</time></trkpt><trkpt lat="45.0399426" lon="8.3526499"><ele>188.33333333333334</ele><time>2026-04-18T15:10:55.239Z</time></trkpt><trkpt lat="45.0399854" lon="8.3528809"><ele>189.0</ele><time>2026-04-18T15:10:56.238Z</time></trkpt><trkpt lat="45.0400323" lon="8.3531116"><ele>193.0</ele><time>2026-04-18T15:10:57.239Z</time></trkpt><trkpt lat="45.0400733" lon="8.3533353"><ele>197.0</ele><time>2026-04-18T15:10:58.238Z</time></trkpt><trkpt lat="45.0401133" lon="8.353559"><ele>201.0</ele><time>2026-04-18T15:10:59.239Z</time></trkpt><trkpt lat="45.0401455" lon="8.3537842"><ele>201.0</ele><time>2026-04-18T15:11:00.238Z</time></trkpt><trkpt lat="45.0401559" lon="8.3540146"><ele>201.0</ele><time>2026-04-18T15:11:01.239Z</time></trkpt><trkpt lat="45.040152" lon="8.3542515"><ele>201.0</ele><time>2026-04-18T15:11:02.238Z</time></trkpt><trkpt lat="45.0401369" lon="8.3544887"><ele>201.66666666666669</ele><time>2026-04-18T15:11:03.238Z</time></trkpt><trkpt lat="45.0401107" lon="8.3547382"><ele>202.33333333333334</ele><time>2026-04-18T15:11:04.238Z</time></trkpt><trkpt lat="45.0400862" lon="8.3549894"><ele>203.0</ele><time>2026-04-18T15:11:05.238Z</time></trkpt><trkpt lat="45.0400623" lon="8.3552415"><ele>203.0</ele><time>2026-04-18T15:11:06.238Z</time></trkpt><trkpt lat="45.0400332" lon="8.355478"><ele>203.0</ele><time>2026-04-18T15:11:07.238Z</time></trkpt><trkpt lat="45.0400108" lon="8.3557214"><ele>203.0</ele><time>2026-04-18T15:11:08.238Z</time></trkpt><trkpt lat="45.0399921" lon="8.3559543"><ele>203.75</ele><time>2026-04-18T15:11:09.238Z</time></trkpt><trkpt lat="45.0399761" lon="8.3561695"><ele>204.5</ele><time>2026-04-18T15:11:10.238Z</time></trkpt><trkpt lat="45.0399578" lon="8.3563528"><ele>205.25</ele><time>2026-04-18T15:11:11.238Z</time></trkpt><trkpt lat="45.0399415" lon="8.3565214"><ele>206.0</ele><time>2026-04-18T15:11:12.239Z</time></trkpt><trkpt lat="45.0399367" lon="8.3567016"><ele>206.5</ele><time>2026-04-18T15:11:13.238Z</time></trkpt><trkpt lat="45.0399694" lon="8.3568855"><ele>207.0</ele><time>2026-04-18T15:11:14.238Z</time></trkpt><trkpt lat="45.0400344" lon="8.3570648"><ele>207.5</ele><time>2026-04-18T15:11:15.238Z</time></trkpt><trkpt lat="45.0401153" lon="8.35724"><ele>208.0</ele><time>2026-04-18T15:11:16.238Z</time></trkpt><trkpt lat="45.0401927" lon="8.3574253"><ele>208.0</ele><time>2026-04-18T15:11:17.239Z</time></trkpt><trkpt lat="45.0402746" lon="8.3575964"><ele>208.0</ele><time>2026-04-18T15:11:18.238Z</time></trkpt><trkpt lat="45.040366" lon="8.357771"><ele>208.0</ele><time>2026-04-18T15:11:19.238Z</time></trkpt><trkpt lat="45.0404594" lon="8.3579374"><ele>209.5</ele><time>2026-04-18T15:11:20.238Z</time></trkpt><trkpt lat="45.040561" lon="8.3580677"><ele>211.0</ele><time>2026-04-18T15:11:21.238Z</time></trkpt><trkpt lat="45.0406651" lon="8.3581682"><ele>212.5</ele><time>2026-04-18T15:11:22.238Z</time></trkpt><trkpt lat="45.0407808" lon="8.3582289"><ele>214.0</ele><time>2026-04-18T15:11:23.238Z</time></trkpt><trkpt lat="45.0408941" lon="8.3582641"><ele>214.0</ele><time>2026-04-18T15:11:24.239Z</time></trkpt><trkpt lat="45.0410387" lon="8.3582253"><ele>214.0</ele><time>2026-04-18T15:11:25.239Z</time></trkpt><trkpt lat="45.0411689" lon="8.358197"><ele>214.0</ele><time>2026-04-18T15:11:26.238Z</time></trkpt><trkpt lat="45.0412936" lon="8.3581777"><ele>214.0</ele><time>2026-04-18T15:11:27.238Z</time></trkpt><trkpt lat="45.0414069" lon="8.3582031"><ele>214.0</ele><time>2026-04-18T15:11:28.238Z</time></trkpt><trkpt lat="45.0415027" lon="8.3582738"><ele>214.0</ele><time>2026-04-18T15:11:29.239Z</time></trkpt><trkpt lat="45.0415837" lon="8.3584009"><ele>214.0</ele><time>2026-04-18T15:11:30.238Z</time></trkpt><trkpt lat="45.0416426" lon="8.3585521"><ele>214.0</ele><time>2026-04-18T15:11:31.238Z</time></trkpt><trkpt lat="45.0416914" lon="8.3587346"><ele>215.25</ele><time>2026-04-18T15:11:32.238Z</time></trkpt><trkpt lat="45.0417153" lon="8.3589328"><ele>216.5</ele><time>2026-04-18T15:11:33.238Z</time></trkpt><trkpt lat="45.0417265" lon="8.3591323"><ele>217.75</ele><time>2026-04-18T15:11:34.238Z</time></trkpt><trkpt lat="45.0417389" lon="8.3593141"><ele>219.0</ele><time>2026-04-18T15:11:35.238Z</time></trkpt><trkpt lat="45.0417834" lon="8.3594849"><ele>219.0</ele><time>2026-04-18T15:11:36.238Z</time></trkpt><trkpt lat="45.0418473" lon="8.3596366"><ele>219.0</ele><time>2026-04-18T15:11:37.238Z</time></trkpt><trkpt lat="45.0419513" lon="8.3597552"><ele>219.0</ele><time>2026-04-18T15:11:38.239Z</time></trkpt><trkpt lat="45.0420578" lon="8.3598618"><ele>219.0</ele><time>2026-04-18T15:11:39.239Z</time></trkpt><trkpt lat="45.0421828" lon="8.3599433"><ele>218.25</ele><time>2026-04-18T15:11:40.238Z</time></trkpt><trkpt lat="45.0422998" lon="8.360009"><ele>217.5</ele><time>2026-04-18T15:11:41.239Z</time></trkpt><trkpt lat="45.0423942" lon="8.3601123"><ele>216.75</ele><time>2026-04-18T15:11:42.238Z</time></trkpt><trkpt lat="45.042461" lon="8.360241"><ele>216.0</ele><time>2026-04-18T15:11:43.239Z</time></trkpt><trkpt lat="45.0424612" lon="8.360438"><ele>216.25</ele><time>2026-04-18T15:11:44.238Z</time></trkpt><trkpt lat="45.0424462" lon="8.3606356"><ele>216.5</ele><time>2026-04-18T15:11:45.238Z</time></trkpt><trkpt lat="45.0424257" lon="8.3608433"><ele>216.75</ele><time>2026-04-18T15:11:46.239Z</time></trkpt><trkpt lat="45.0423958" lon="8.3610325"><ele>217.0</ele><time>2026-04-18T15:11:47.238Z</time></trkpt><trkpt lat="45.042304" lon="8.3612248"><ele>218.33333333333331</ele><time>2026-04-18T15:11:48.239Z</time></trkpt><trkpt lat="45.042231" lon="8.3614272"><ele>219.66666666666669</ele><time>2026-04-18T15:11:49.239Z</time></trkpt><trkpt lat="45.0421689" lon="8.361631"><ele>221.0</ele><time>2026-04-18T15:11:50.239Z</time></trkpt><trkpt lat="45.0421304" lon="8.3618392"><ele>221.0</ele><time>2026-04-18T15:11:51.238Z</time></trkpt><trkpt lat="45.0420849" lon="8.3620337"><ele>221.0</ele><time>2026-04-18T15:11:52.238Z</time></trkpt><trkpt lat="45.0420396" lon="8.3622196"><ele>221.0</ele><time>2026-04-18T15:11:53.239Z</time></trkpt><trkpt lat="45.0419802" lon="8.3623848"><ele>221.0</ele><time>2026-04-18T15:11:54.238Z</time></trkpt><trkpt lat="45.0418954" lon="8.3625274"><ele>223.0</ele><time>2026-04-18T15:11:55.238Z</time></trkpt><trkpt lat="45.0417993" lon="8.3626632"><ele>225.0</ele><time>2026-04-18T15:11:56.239Z</time></trkpt><trkpt lat="45.0416851" lon="8.3627741"><ele>227.0</ele><time>2026-04-18T15:11:57.238Z</time></trkpt><trkpt lat="45.0415743" lon="8.3628728"><ele>229.0</ele><time>2026-04-18T15:11:58.239Z</time></trkpt><trkpt lat="45.0414669" lon="8.3629832"><ele>230.0</ele><time>2026-04-18T15:11:59.238Z</time></trkpt><trkpt lat="45.0413668" lon="8.3631121"><ele>231.0</ele><time>2026-04-18T15:12:00.238Z</time></trkpt><trkpt lat="45.0412677" lon="8.3632706"><ele>232.0</ele><time>2026-04-18T15:12:01.238Z</time></trkpt><trkpt lat="45.0411836" lon="8.3634174"><ele>233.0</ele><time>2026-04-18T15:12:02.238Z</time></trkpt><trkpt lat="45.0410962" lon="8.3636056"><ele>233.0</ele><time>2026-04-18T15:12:03.238Z</time></trkpt><trkpt lat="45.0410101" lon="8.3637964"><ele>233.0</ele><time>2026-04-18T15:12:04.238Z</time></trkpt><trkpt lat="45.0409234" lon="8.3639857"><ele>233.0</ele><time>2026-04-18T15:12:05.238Z</time></trkpt><trkpt lat="45.0408342" lon="8.3641724"><ele>236.0</ele><time>2026-04-18T15:12:06.238Z</time></trkpt><trkpt lat="45.0407369" lon="8.364344"><ele>239.0</ele><time>2026-04-18T15:12:07.238Z</time></trkpt><trkpt lat="45.0406255" lon="8.3645038"><ele>242.0</ele><time>2026-04-18T15:12:08.239Z</time></trkpt><trkpt lat="45.0405093" lon="8.3646694"><ele>239.66666666666669</ele><time>2026-04-18T15:12:09.238Z</time></trkpt><trkpt lat="45.0403864" lon="8.3648331"><ele>237.33333333333331</ele><time>2026-04-18T15:12:10.239Z</time></trkpt><trkpt lat="45.0402572" lon="8.3650075"><ele>235.0</ele><time>2026-04-18T15:12:11.238Z</time></trkpt><trkpt lat="45.0401296" lon="8.3651783"><ele>235.0</ele><time>2026-04-18T15:12:12.238Z</time></trkpt><trkpt lat="45.0400015" lon="8.3653513"><ele>235.0</ele><time>2026-04-18T15:12:13.238Z</time></trkpt><trkpt lat="45.0398771" lon="8.3655237"><ele>235.0</ele><time>2026-04-18T15:12:14.239Z</time></trkpt><trkpt lat="45.0397519" lon="8.3656843"><ele>239.33333333333331</ele><time>2026-04-18T15:12:15.238Z</time></trkpt><trkpt lat="45.0396255" lon="8.365859"><ele>243.66666666666669</ele><time>2026-04-18T15:12:16.239Z</time></trkpt><trkpt lat="45.0395001" lon="8.3660261"><ele>248.0</ele><time>2026-04-18T15:12:17.239Z</time></trkpt><trkpt lat="45.0393749" lon="8.3662017"><ele>244.0</ele><time>2026-04-18T15:12:18.239Z</time></trkpt><trkpt lat="45.0392514" lon="8.3663717"><ele>240.0</ele><time>2026-04-18T15:12:19.239Z</time></trkpt><trkpt lat="45.0391188" lon="8.3665504"><ele>236.0</ele><time>2026-04-18T15:12:20.238Z</time></trkpt><trkpt lat="45.0389944" lon="8.3667181"><ele>241.33333333333334</ele><time>2026-04-18T15:12:21.239Z</time></trkpt><trkpt lat="45.038879" lon="8.3668857"><ele>246.66666666666669</ele><time>2026-04-18T15:12:22.238Z</time></trkpt><trkpt lat="45.0387773" lon="8.3670604"><ele>252.0</ele><time>2026-04-18T15:12:23.238Z</time></trkpt><trkpt lat="45.03868" lon="8.3672551"><ele>252.0</ele><time>2026-04-18T15:12:24.238Z</time></trkpt><trkpt lat="45.0385948" lon="8.3674611"><ele>252.0</ele><time>2026-04-18T15:12:25.238Z</time></trkpt><trkpt lat="45.0384988" lon="8.3676839"><ele>252.0</ele><time>2026-04-18T15:12:26.238Z</time></trkpt><trkpt lat="45.0384116" lon="8.367898"><ele>256.0</ele><time>2026-04-18T15:12:27.239Z</time></trkpt><trkpt lat="45.0383238" lon="8.3681045"><ele>260.0</ele><time>2026-04-18T15:12:28.238Z</time></trkpt><trkpt lat="45.038241" lon="8.3683118"><ele>264.0</ele><time>2026-04-18T15:12:29.238Z</time></trkpt><trkpt lat="45.0381551" lon="8.3685266"><ele>264.0</ele><time>2026-04-18T15:12:30.238Z</time></trkpt><trkpt lat="45.0380617" lon="8.3687448"><ele>264.0</ele><time>2026-04-18T15:12:31.239Z</time></trkpt><trkpt lat="45.0379751" lon="8.3689638"><ele>264.0</ele><time>2026-04-18T15:12:32.239Z</time></trkpt><trkpt lat="45.0378756" lon="8.3691898"><ele>260.6666666666667</ele><time>2026-04-18T15:12:33.238Z</time></trkpt><trkpt lat="45.0377884" lon="8.3694021"><ele>257.33333333333337</ele><time>2026-04-18T15:12:34.238Z</time></trkpt><trkpt lat="45.0376995" lon="8.369613"><ele>254.0</ele><time>2026-04-18T15:12:35.238Z</time></trkpt><trkpt lat="45.0376029" lon="8.3698221"><ele>252.0</ele><time>2026-04-18T15:12:36.238Z</time></trkpt><trkpt lat="45.0375212" lon="8.3700333"><ele>250.0</ele><time>2026-04-18T15:12:37.239Z</time></trkpt><trkpt lat="45.0374424" lon="8.3702374"><ele>248.0</ele><time>2026-04-18T15:12:38.238Z</time></trkpt><trkpt lat="45.0373652" lon="8.3704476"><ele>245.66666666666669</ele><time>2026-04-18T15:12:39.239Z</time></trkpt><trkpt lat="45.0373064" lon="8.3706472"><ele>243.33333333333331</ele><time>2026-04-18T15:12:40.238Z</time></trkpt><trkpt lat="45.0372686" lon="8.3708557"><ele>241.0</ele><time>2026-04-18T15:12:41.238Z</time></trkpt><trkpt lat="45.0372466" lon="8.3710725"><ele>241.0</ele><time>2026-04-18T15:12:42.239Z</time></trkpt><trkpt lat="45.0372362" lon="8.3712829"><ele>241.0</ele><time>2026-04-18T15:12:43.238Z</time></trkpt><trkpt lat="45.0372426" lon="8.371491"><ele>241.0</ele><time>2026-04-18T15:12:44.238Z</time></trkpt><trkpt lat="45.0372486" lon="8.3716762"><ele>241.0</ele><time>2026-04-18T15:12:45.238Z</time></trkpt><trkpt lat="45.0372618" lon="8.3718309"><ele>240.99999999999997</ele><time>2026-04-18T15:12:46.238Z</time></trkpt><trkpt lat="45.0372712" lon="8.3719557"><ele>241.0</ele><time>2026-04-18T15:12:47.238Z</time></trkpt><trkpt lat="45.0372744" lon="8.372054"><ele>241.0</ele><time>2026-04-18T15:12:48.238Z</time></trkpt><trkpt lat="45.0372109" lon="8.3721176"><ele>241.0</ele><time>2026-04-18T15:12:50.238Z</time></trkpt><trkpt lat="45.0371504" lon="8.3720752"><ele>240.99999999999997</ele><time>2026-04-18T15:12:52.238Z</time></trkpt><trkpt lat="45.0370745" lon="8.3719676"><ele>241.0</ele><time>2026-04-18T15:12:54.239Z</time></trkpt><trkpt lat="45.0370161" lon="8.3718773"><ele>241.0</ele><time>2026-04-18T15:12:55.238Z</time></trkpt><trkpt lat="45.0369723" lon="8.3717727"><ele>241.00000000000003</ele><time>2026-04-18T15:12:56.238Z</time></trkpt><trkpt lat="45.036925" lon="8.371665"><ele>241.00000000000003</ele><time>2026-04-18T15:12:57.239Z</time></trkpt><trkpt lat="45.0368744" lon="8.3715556"><ele>241.0</ele><time>2026-04-18T15:12:58.238Z</time></trkpt><trkpt lat="45.0368548" lon="8.3714198"><ele>241.0</ele><time>2026-04-18T15:12:59.238Z</time></trkpt><trkpt lat="45.0368291" lon="8.3712939"><ele>241.0</ele><time>2026-04-18T15:13:00.238Z</time></trkpt><trkpt lat="45.0368142" lon="8.3711363"><ele>241.0</ele><time>2026-04-18T15:13:01.239Z</time></trkpt><trkpt lat="45.036813" lon="8.3709783"><ele>241.0</ele><time>2026-04-18T15:13:02.239Z</time></trkpt><trkpt lat="45.0368196" lon="8.3708152"><ele>241.0</ele><time>2026-04-18T15:13:03.238Z</time></trkpt><trkpt lat="45.0368344" lon="8.3706504"><ele>242.75</ele><time>2026-04-18T15:13:04.238Z</time></trkpt><trkpt lat="45.0368488" lon="8.3704773"><ele>244.5</ele><time>2026-04-18T15:13:05.239Z</time></trkpt><trkpt lat="45.0368661" lon="8.3702983"><ele>246.25</ele><time>2026-04-18T15:13:06.239Z</time></trkpt><trkpt lat="45.0368723" lon="8.3701354"><ele>248.0</ele><time>2026-04-18T15:13:07.239Z</time></trkpt><trkpt lat="45.0368873" lon="8.3699735"><ele>248.0</ele><time>2026-04-18T15:13:08.239Z</time></trkpt><trkpt lat="45.0368972" lon="8.3698335"><ele>248.0</ele><time>2026-04-18T15:13:09.238Z</time></trkpt><trkpt lat="45.0368947" lon="8.3696698"><ele>248.0</ele><time>2026-04-18T15:13:10.238Z</time></trkpt><trkpt lat="45.0368734" lon="8.3695262"><ele>248.0</ele><time>2026-04-18T15:13:11.238Z</time></trkpt><trkpt lat="45.0368555" lon="8.3693691"><ele>248.0</ele><time>2026-04-18T15:13:12.238Z</time></trkpt><trkpt lat="45.0368399" lon="8.3692116"><ele>250.60000000000002</ele><time>2026-04-18T15:13:13.239Z</time></trkpt><trkpt lat="45.0368048" lon="8.369074"><ele>253.20000000000002</ele><time>2026-04-18T15:13:14.238Z</time></trkpt><trkpt lat="45.0367617" lon="8.3689391"><ele>255.8</ele><time>2026-04-18T15:13:15.239Z</time></trkpt><trkpt lat="45.0367172" lon="8.3688017"><ele>258.40000000000003</ele><time>2026-04-18T15:13:16.239Z</time></trkpt><trkpt lat="45.0366714" lon="8.3686714"><ele>261.0</ele><time>2026-04-18T15:13:17.238Z</time></trkpt><trkpt lat="45.0366437" lon="8.3685607"><ele>261.1666666666667</ele><time>2026-04-18T15:13:18.238Z</time></trkpt><trkpt lat="45.0366023" lon="8.3684549"><ele>261.3333333333333</ele><time>2026-04-18T15:13:19.238Z</time></trkpt><trkpt lat="45.0365695" lon="8.3683714"><ele>261.5</ele><time>2026-04-18T15:13:20.238Z</time></trkpt><trkpt lat="45.0365058" lon="8.3682515"><ele>261.66666666666663</ele><time>2026-04-18T15:13:22.239Z</time></trkpt><trkpt lat="45.0364961" lon="8.3681356"><ele>261.8333333333333</ele><time>2026-04-18T15:13:25.238Z</time></trkpt><trkpt lat="45.0365614" lon="8.3680549"><ele>262.0</ele><time>2026-04-18T15:13:27.238Z</time></trkpt><trkpt lat="45.0366228" lon="8.367976"><ele>262.6</ele><time>2026-04-18T15:13:29.239Z</time></trkpt><trkpt lat="45.0366757" lon="8.3678855"><ele>263.2</ele><time>2026-04-18T15:13:31.238Z</time></trkpt><trkpt lat="45.0367752" lon="8.3677713"><ele>263.8</ele><time>2026-04-18T15:13:33.238Z</time></trkpt><trkpt lat="45.0368576" lon="8.3676697"><ele>264.4</ele><time>2026-04-18T15:13:35.238Z</time></trkpt><trkpt lat="45.0369395" lon="8.3676113"><ele>265.0</ele><time>2026-04-18T15:13:37.238Z</time></trkpt><trkpt lat="45.0370328" lon="8.3675333"><ele>265.0</ele><time>2026-04-18T15:13:39.238Z</time></trkpt><trkpt lat="45.0371266" lon="8.3674869"><ele>265.0</ele><time>2026-04-18T15:13:41.238Z</time></trkpt><trkpt lat="45.037214" lon="8.3674167"><ele>265.0</ele><time>2026-04-18T15:13:43.239Z</time></trkpt><trkpt lat="45.0372863" lon="8.3673803"><ele>265.0</ele><time>2026-04-18T15:13:45.238Z</time></trkpt><trkpt lat="45.037319" lon="8.3672934"><ele>265.0</ele><time>2026-04-18T15:13:48.239Z</time></trkpt></trkseg><trkseg><trkpt lat="45.0372945" lon="8.3673312"><ele>265.0</ele><time>2026-04-18T16:10:16.238Z</time></trkpt><trkpt lat="45.037256" lon="8.3674307"><ele>265.0</ele><time>2026-04-18T16:10:29.238Z</time></trkpt><trkpt lat="45.0371422" lon="8.3675344"><ele>265.0</ele><time>2026-04-18T16:10:30.239Z</time></trkpt><trkpt lat="45.0370838" lon="8.3676069"><ele>265.0</ele><time>2026-04-18T16:10:32.238Z</time></trkpt><trkpt lat="45.0370304" lon="8.3676739"><ele>265.0</ele><time>2026-04-18T16:10:34.238Z</time></trkpt><trkpt lat="45.0369968" lon="8.3677688"><ele>265.0</ele><time>2026-04-18T16:10:35.238Z</time></trkpt><trkpt lat="45.0369493" lon="8.3678313"><ele>265.0</ele><time>2026-04-18T16:10:36.238Z</time></trkpt><trkpt lat="45.0368932" lon="8.3679548"><ele>265.0</ele><time>2026-04-18T16:10:38.238Z</time></trkpt><trkpt lat="45.0368104" lon="8.3679941"><ele>265.0</ele><time>2026-04-18T16:10:39.238Z</time></trkpt><trkpt lat="45.0367677" lon="8.3680879"><ele>265.0</ele><time>2026-04-18T16:10:41.239Z</time></trkpt><trkpt lat="45.0366877" lon="8.3680988"><ele>265.0</ele><time>2026-04-18T16:10:42.238Z</time></trkpt><trkpt lat="45.0366338" lon="8.3681738"><ele>265.0</ele><time>2026-04-18T16:10:45.238Z</time></trkpt><trkpt lat="45.0365343" lon="8.3681449"><ele>264.57142857142856</ele><time>2026-04-18T16:10:46.238Z</time></trkpt><trkpt lat="45.0364633" lon="8.3681322"><ele>264.1428571428571</ele><time>2026-04-18T16:10:49.239Z</time></trkpt><trkpt lat="45.0364117" lon="8.3680707"><ele>263.7142857142857</ele><time>2026-04-18T16:10:51.239Z</time></trkpt><trkpt lat="45.0363572" lon="8.3680002"><ele>263.2857142857143</ele><time>2026-04-18T16:10:53.238Z</time></trkpt><trkpt lat="45.0363191" lon="8.3679134"><ele>262.8571428571429</ele><time>2026-04-18T16:10:55.239Z</time></trkpt><trkpt lat="45.0363013" lon="8.3678046"><ele>262.42857142857144</ele><time>2026-04-18T16:10:57.239Z</time></trkpt><trkpt lat="45.0363536" lon="8.3677179"><ele>262.0</ele><time>2026-04-18T16:11:00.238Z</time></trkpt><trkpt lat="45.0364314" lon="8.3676525"><ele>262.6</ele><time>2026-04-18T16:11:03.239Z</time></trkpt><trkpt lat="45.0364898" lon="8.3675988"><ele>263.2</ele><time>2026-04-18T16:11:05.238Z</time></trkpt><trkpt lat="45.0365618" lon="8.3675269"><ele>263.8</ele><time>2026-04-18T16:11:08.238Z</time></trkpt><trkpt lat="45.0366586" lon="8.3674213"><ele>264.4</ele><time>2026-04-18T16:11:10.239Z</time></trkpt><trkpt lat="45.0367609" lon="8.3673362"><ele>265.0</ele><time>2026-04-18T16:11:12.238Z</time></trkpt><trkpt lat="45.0368335" lon="8.3672488"><ele>261.2</ele><time>2026-04-18T16:11:14.238Z</time></trkpt><trkpt lat="45.0369489" lon="8.3671873"><ele>257.4</ele><time>2026-04-18T16:11:16.238Z</time></trkpt><trkpt lat="45.0370441" lon="8.3671687"><ele>253.60000000000002</ele><time>2026-04-18T16:11:17.239Z</time></trkpt><trkpt lat="45.0371344" lon="8.3670954"><ele>249.8</ele><time>2026-04-18T16:11:19.238Z</time></trkpt><trkpt lat="45.0371954" lon="8.3669959"><ele>246.0</ele><time>2026-04-18T16:11:21.239Z</time></trkpt><trkpt lat="45.0372869" lon="8.3669261"><ele>246.0</ele><time>2026-04-18T16:11:23.238Z</time></trkpt><trkpt lat="45.0373623" lon="8.366887"><ele>246.00000000000003</ele><time>2026-04-18T16:11:25.238Z</time></trkpt><trkpt lat="45.0374622" lon="8.3668704"><ele>246.00000000000003</ele><time>2026-04-18T16:11:27.239Z</time></trkpt><trkpt lat="45.0375545" lon="8.3668719"><ele>246.0</ele><time>2026-04-18T16:11:29.238Z</time></trkpt><trkpt lat="45.0376632" lon="8.3668845"><ele>246.0</ele><time>2026-04-18T16:11:31.238Z</time></trkpt><trkpt lat="45.0377815" lon="8.3668865"><ele>248.8</ele><time>2026-04-18T16:11:33.239Z</time></trkpt><trkpt lat="45.0378604" lon="8.3668822"><ele>251.60000000000002</ele><time>2026-04-18T16:11:35.239Z</time></trkpt><trkpt lat="45.0379635" lon="8.366854"><ele>254.4</ele><time>2026-04-18T16:11:37.238Z</time></trkpt><trkpt lat="45.0380683" lon="8.3668432"><ele>257.2</ele><time>2026-04-18T16:11:39.238Z</time></trkpt><trkpt lat="45.0381591" lon="8.366758"><ele>260.0</ele><time>2026-04-18T16:11:41.238Z</time></trkpt><trkpt lat="45.0382421" lon="8.3667323"><ele>260.0</ele><time>2026-04-18T16:11:42.239Z</time></trkpt><trkpt lat="45.038335" lon="8.3666253"><ele>260.0</ele><time>2026-04-18T16:11:44.239Z</time></trkpt><trkpt lat="45.0383956" lon="8.3665343"><ele>260.0</ele><time>2026-04-18T16:11:45.238Z</time></trkpt><trkpt lat="45.0384392" lon="8.3664657"><ele>260.0</ele><time>2026-04-18T16:11:46.238Z</time></trkpt><trkpt lat="45.038502" lon="8.3663785"><ele>260.0</ele><time>2026-04-18T16:11:47.238Z</time></trkpt><trkpt lat="45.0385659" lon="8.3663019"><ele>260.0</ele><time>2026-04-18T16:11:48.238Z</time></trkpt><trkpt lat="45.0386333" lon="8.3662154"><ele>260.2</ele><time>2026-04-18T16:11:49.238Z</time></trkpt><trkpt lat="45.0387053" lon="8.3661473"><ele>260.4</ele><time>2026-04-18T16:11:50.238Z</time></trkpt><trkpt lat="45.0387729" lon="8.3660608"><ele>260.6</ele><time>2026-04-18T16:11:51.239Z</time></trkpt><trkpt lat="45.0388457" lon="8.3659723"><ele>260.8</ele><time>2026-04-18T16:11:52.238Z</time></trkpt><trkpt lat="45.0389033" lon="8.3658958"><ele>261.0</ele><time>2026-04-18T16:11:53.238Z</time></trkpt><trkpt lat="45.038975" lon="8.3657798"><ele>261.0</ele><time>2026-04-18T16:11:54.238Z</time></trkpt><trkpt lat="45.0389948" lon="8.3656513"><ele>261.0</ele><time>2026-04-18T16:11:55.238Z</time></trkpt><trkpt lat="45.0390091" lon="8.3655331"><ele>261.0</ele><time>2026-04-18T16:11:56.239Z</time></trkpt><trkpt lat="45.0390139" lon="8.3654204"><ele>261.0</ele><time>2026-04-18T16:11:57.239Z</time></trkpt><trkpt lat="45.0390069" lon="8.3652905"><ele>261.0</ele><time>2026-04-18T16:11:58.239Z</time></trkpt><trkpt lat="45.0390062" lon="8.3651566"><ele>261.0</ele><time>2026-04-18T16:11:59.239Z</time></trkpt><trkpt lat="45.039012" lon="8.3650362"><ele>261.1666666666667</ele><time>2026-04-18T16:12:00.238Z</time></trkpt><trkpt lat="45.0390358" lon="8.3649219"><ele>261.3333333333333</ele><time>2026-04-18T16:12:01.238Z</time></trkpt><trkpt lat="45.0390826" lon="8.364809"><ele>261.5</ele><time>2026-04-18T16:12:02.239Z</time></trkpt><trkpt lat="45.0391433" lon="8.3647083"><ele>261.66666666666663</ele><time>2026-04-18T16:12:03.238Z</time></trkpt><trkpt lat="45.039204" lon="8.3646371"><ele>261.8333333333333</ele><time>2026-04-18T16:12:04.239Z</time></trkpt><trkpt lat="45.0392878" lon="8.3646043"><ele>262.0</ele><time>2026-04-18T16:12:05.238Z</time></trkpt><trkpt lat="45.0394126" lon="8.3645621"><ele>261.25</ele><time>2026-04-18T16:12:06.238Z</time></trkpt><trkpt lat="45.0394995" lon="8.3645241"><ele>260.5</ele><time>2026-04-18T16:12:07.238Z</time></trkpt><trkpt lat="45.0395962" lon="8.3644437"><ele>259.75</ele><time>2026-04-18T16:12:08.238Z</time></trkpt><trkpt lat="45.0397036" lon="8.3643477"><ele>259.0</ele><time>2026-04-18T16:12:09.239Z</time></trkpt><trkpt lat="45.0398082" lon="8.3642395"><ele>259.0</ele><time>2026-04-18T16:12:10.238Z</time></trkpt><trkpt lat="45.0399162" lon="8.3641376"><ele>259.0</ele><time>2026-04-18T16:12:11.238Z</time></trkpt><trkpt lat="45.0400165" lon="8.364032"><ele>259.0</ele><time>2026-04-18T16:12:12.239Z</time></trkpt><trkpt lat="45.0401275" lon="8.3639233"><ele>259.0</ele><time>2026-04-18T16:12:13.238Z</time></trkpt><trkpt lat="45.0402341" lon="8.3638139"><ele>253.75</ele><time>2026-04-18T16:12:14.238Z</time></trkpt><trkpt lat="45.0403385" lon="8.3637083"><ele>248.5</ele><time>2026-04-18T16:12:15.238Z</time></trkpt><trkpt lat="45.0404342" lon="8.363609"><ele>243.25</ele><time>2026-04-18T16:12:16.238Z</time></trkpt><trkpt lat="45.0405346" lon="8.3635168"><ele>238.0</ele><time>2026-04-18T16:12:17.239Z</time></trkpt><trkpt lat="45.0406336" lon="8.3634287"><ele>238.0</ele><time>2026-04-18T16:12:18.238Z</time></trkpt><trkpt lat="45.040733" lon="8.3633508"><ele>238.0</ele><time>2026-04-18T16:12:19.239Z</time></trkpt><trkpt lat="45.0408388" lon="8.3632923"><ele>238.0</ele><time>2026-04-18T16:12:20.239Z</time></trkpt><trkpt lat="45.0409392" lon="8.3632556"><ele>238.0</ele><time>2026-04-18T16:12:21.239Z</time></trkpt><trkpt lat="45.0410238" lon="8.3632453"><ele>238.0</ele><time>2026-04-18T16:12:22.238Z</time></trkpt><trkpt lat="45.041114" lon="8.3632383"><ele>237.16666666666666</ele><time>2026-04-18T16:12:23.238Z</time></trkpt><trkpt lat="45.041177" lon="8.3632442"><ele>236.33333333333331</ele><time>2026-04-18T16:12:24.238Z</time></trkpt><trkpt lat="45.0412465" lon="8.3632308"><ele>235.5</ele><time>2026-04-18T16:12:34.238Z</time></trkpt><trkpt lat="45.0413424" lon="8.3631875"><ele>234.66666666666669</ele><time>2026-04-18T16:12:37.238Z</time></trkpt><trkpt lat="45.04143" lon="8.3630685"><ele>233.83333333333334</ele><time>2026-04-18T16:12:39.238Z</time></trkpt><trkpt lat="45.0414905" lon="8.3629926"><ele>233.0</ele><time>2026-04-18T16:12:40.238Z</time></trkpt><trkpt lat="45.0415629" lon="8.3629148"><ele>232.60000000000002</ele><time>2026-04-18T16:12:41.238Z</time></trkpt><trkpt lat="45.0416314" lon="8.3628377"><ele>232.20000000000002</ele><time>2026-04-18T16:12:42.239Z</time></trkpt><trkpt lat="45.0417127" lon="8.362756"><ele>231.8</ele><time>2026-04-18T16:12:43.238Z</time></trkpt><trkpt lat="45.0418037" lon="8.3626598"><ele>231.4</ele><time>2026-04-18T16:12:44.238Z</time></trkpt><trkpt lat="45.0418934" lon="8.3625683"><ele>231.0</ele><time>2026-04-18T16:12:45.238Z</time></trkpt><trkpt lat="45.0419544" lon="8.3624603"><ele>231.0</ele><time>2026-04-18T16:12:46.239Z</time></trkpt><trkpt lat="45.042022" lon="8.3623162"><ele>231.0</ele><time>2026-04-18T16:12:47.239Z</time></trkpt><trkpt lat="45.0420621" lon="8.36213"><ele>231.0</ele><time>2026-04-18T16:12:48.238Z</time></trkpt><trkpt lat="45.0420959" lon="8.3619694"><ele>231.0</ele><time>2026-04-18T16:12:49.238Z</time></trkpt><trkpt lat="45.0421408" lon="8.3618033"><ele>228.5</ele><time>2026-04-18T16:12:50.238Z</time></trkpt><trkpt lat="45.0421755" lon="8.3616613"><ele>226.0</ele><time>2026-04-18T16:12:51.239Z</time></trkpt><trkpt lat="45.0422142" lon="8.3614991"><ele>223.5</ele><time>2026-04-18T16:12:52.238Z</time></trkpt><trkpt lat="45.0422629" lon="8.361354"><ele>221.0</ele><time>2026-04-18T16:12:53.238Z</time></trkpt><trkpt lat="45.0423122" lon="8.3612079"><ele>220.20000000000002</ele><time>2026-04-18T16:12:54.238Z</time></trkpt><trkpt lat="45.0423615" lon="8.3610604"><ele>219.40000000000003</ele><time>2026-04-18T16:12:55.238Z</time></trkpt><trkpt lat="45.0424162" lon="8.3609198"><ele>218.6</ele><time>2026-04-18T16:12:56.238Z</time></trkpt><trkpt lat="45.0424551" lon="8.3607557"><ele>217.8</ele><time>2026-04-18T16:12:57.238Z</time></trkpt><trkpt lat="45.0424798" lon="8.3606264"><ele>217.0</ele><time>2026-04-18T16:12:58.238Z</time></trkpt><trkpt lat="45.0424824" lon="8.3604714"><ele>216.8</ele><time>2026-04-18T16:12:59.238Z</time></trkpt><trkpt lat="45.0424625" lon="8.3603378"><ele>216.6</ele><time>2026-04-18T16:13:00.238Z</time></trkpt><trkpt lat="45.0424415" lon="8.3602122"><ele>216.40000000000003</ele><time>2026-04-18T16:13:01.238Z</time></trkpt><trkpt lat="45.042398" lon="8.3600978"><ele>216.20000000000002</ele><time>2026-04-18T16:13:02.238Z</time></trkpt><trkpt lat="45.0423389" lon="8.3600048"><ele>216.0</ele><time>2026-04-18T16:13:03.239Z</time></trkpt><trkpt lat="45.0422338" lon="8.3599242"><ele>216.0</ele><time>2026-04-18T16:13:04.239Z</time></trkpt><trkpt lat="45.0421166" lon="8.3598579"><ele>216.00000000000003</ele><time>2026-04-18T16:13:05.238Z</time></trkpt><trkpt lat="45.0420242" lon="8.3597984"><ele>216.00000000000003</ele><time>2026-04-18T16:13:06.238Z</time></trkpt><trkpt lat="45.041948" lon="8.3597161"><ele>216.0</ele><time>2026-04-18T16:13:07.238Z</time></trkpt><trkpt lat="45.0418654" lon="8.3596042"><ele>216.0</ele><time>2026-04-18T16:13:08.239Z</time></trkpt><trkpt lat="45.0417974" lon="8.3594723"><ele>216.75</ele><time>2026-04-18T16:13:09.238Z</time></trkpt><trkpt lat="45.0417607" lon="8.359336"><ele>217.5</ele><time>2026-04-18T16:13:10.238Z</time></trkpt><trkpt lat="45.0417473" lon="8.359143"><ele>218.25</ele><time>2026-04-18T16:13:11.239Z</time></trkpt><trkpt lat="45.0417238" lon="8.3589714"><ele>219.0</ele><time>2026-04-18T16:13:12.239Z</time></trkpt><trkpt lat="45.041671" lon="8.3587911"><ele>219.79999999999998</ele><time>2026-04-18T16:13:13.239Z</time></trkpt><trkpt lat="45.0416365" lon="8.358615"><ele>220.59999999999997</ele><time>2026-04-18T16:13:14.238Z</time></trkpt><trkpt lat="45.0416119" lon="8.3584656"><ele>221.4</ele><time>2026-04-18T16:13:15.239Z</time></trkpt><trkpt lat="45.0415639" lon="8.3583297"><ele>222.2</ele><time>2026-04-18T16:13:16.238Z</time></trkpt><trkpt lat="45.0415079" lon="8.3582285"><ele>223.0</ele><time>2026-04-18T16:13:17.239Z</time></trkpt><trkpt lat="45.0414441" lon="8.3581643"><ele>221.2</ele><time>2026-04-18T16:13:18.238Z</time></trkpt><trkpt lat="45.0413456" lon="8.3581528"><ele>219.4</ele><time>2026-04-18T16:13:19.238Z</time></trkpt><trkpt lat="45.0412429" lon="8.3581564"><ele>217.59999999999997</ele><time>2026-04-18T16:13:20.239Z</time></trkpt><trkpt lat="45.0411423" lon="8.3581831"><ele>215.79999999999998</ele><time>2026-04-18T16:13:21.239Z</time></trkpt><trkpt lat="45.0410346" lon="8.3582077"><ele>214.0</ele><time>2026-04-18T16:13:22.238Z</time></trkpt><trkpt lat="45.0409286" lon="8.3582143"><ele>214.0</ele><time>2026-04-18T16:13:23.238Z</time></trkpt><trkpt lat="45.0408224" lon="8.358193"><ele>213.99999999999997</ele><time>2026-04-18T16:13:24.238Z</time></trkpt><trkpt lat="45.0407163" lon="8.3581513"><ele>213.99999999999997</ele><time>2026-04-18T16:13:25.238Z</time></trkpt><trkpt lat="45.0406171" lon="8.3580827"><ele>214.0</ele><time>2026-04-18T16:13:26.239Z</time></trkpt><trkpt lat="45.0405336" lon="8.3580058"><ele>214.0</ele><time>2026-04-18T16:13:27.238Z</time></trkpt><trkpt lat="45.0404417" lon="8.3578515"><ele>213.25</ele><time>2026-04-18T16:13:28.239Z</time></trkpt><trkpt lat="45.0403481" lon="8.3577019"><ele>212.5</ele><time>2026-04-18T16:13:29.238Z</time></trkpt><trkpt lat="45.0402677" lon="8.357537"><ele>211.75</ele><time>2026-04-18T16:13:30.238Z</time></trkpt><trkpt lat="45.0401812" lon="8.3573569"><ele>211.0</ele><time>2026-04-18T16:13:31.239Z</time></trkpt><trkpt lat="45.0400989" lon="8.3571848"><ele>211.0</ele><time>2026-04-18T16:13:32.239Z</time></trkpt><trkpt lat="45.0400347" lon="8.3570172"><ele>211.0</ele><time>2026-04-18T16:13:33.238Z</time></trkpt><trkpt lat="45.0399851" lon="8.3568419"><ele>211.0</ele><time>2026-04-18T16:13:34.238Z</time></trkpt><trkpt lat="45.0399451" lon="8.3566628"><ele>211.0</ele><time>2026-04-18T16:13:35.238Z</time></trkpt><trkpt lat="45.0399229" lon="8.3564754"><ele>209.33333333333331</ele><time>2026-04-18T16:13:36.238Z</time></trkpt><trkpt lat="45.0399495" lon="8.3561913"><ele>207.66666666666669</ele><time>2026-04-18T16:13:37.238Z</time></trkpt><trkpt lat="45.0399719" lon="8.3559755"><ele>206.0</ele><time>2026-04-18T16:13:38.239Z</time></trkpt><trkpt lat="45.040005" lon="8.3557491"><ele>205.0</ele><time>2026-04-18T16:13:39.238Z</time></trkpt><trkpt lat="45.0400275" lon="8.3555325"><ele>204.0</ele><time>2026-04-18T16:13:40.238Z</time></trkpt><trkpt lat="45.0400594" lon="8.3553103"><ele>203.0</ele><time>2026-04-18T16:13:41.238Z</time></trkpt><trkpt lat="45.0401067" lon="8.3550937"><ele>203.0</ele><time>2026-04-18T16:13:42.238Z</time></trkpt><trkpt lat="45.0401366" lon="8.3548729"><ele>203.0</ele><time>2026-04-18T16:13:43.238Z</time></trkpt><trkpt lat="45.0401668" lon="8.3546665"><ele>203.0</ele><time>2026-04-18T16:13:44.238Z</time></trkpt><trkpt lat="45.0401955" lon="8.3544502"><ele>202.5</ele><time>2026-04-18T16:13:45.239Z</time></trkpt><trkpt lat="45.0402113" lon="8.3542589"><ele>202.0</ele><time>2026-04-18T16:13:46.238Z</time></trkpt><trkpt lat="45.040206" lon="8.3540627"><ele>201.5</ele><time>2026-04-18T16:13:47.238Z</time></trkpt><trkpt lat="45.0402135" lon="8.3538667"><ele>201.0</ele><time>2026-04-18T16:13:48.238Z</time></trkpt><trkpt lat="45.0401705" lon="8.3536381"><ele>201.0</ele><time>2026-04-18T16:13:49.238Z</time></trkpt><trkpt lat="45.0401186" lon="8.3534188"><ele>201.0</ele><time>2026-04-18T16:13:50.238Z</time></trkpt><trkpt lat="45.0400535" lon="8.353117"><ele>201.0</ele><time>2026-04-18T16:13:51.238Z</time></trkpt><trkpt lat="45.0400031" lon="8.3528349"><ele>197.0</ele><time>2026-04-18T16:13:52.239Z</time></trkpt><trkpt lat="45.0399525" lon="8.3525736"><ele>193.0</ele><time>2026-04-18T16:13:53.238Z</time></trkpt><trkpt lat="45.0399135" lon="8.3523217"><ele>189.0</ele><time>2026-04-18T16:13:54.239Z</time></trkpt><trkpt lat="45.0398771" lon="8.3520754"><ele>188.33333333333334</ele><time>2026-04-18T16:13:55.239Z</time></trkpt><trkpt lat="45.0398301" lon="8.3518476"><ele>187.66666666666669</ele><time>2026-04-18T16:13:56.238Z</time></trkpt><trkpt lat="45.0397807" lon="8.3516222"><ele>187.0</ele><time>2026-04-18T16:13:57.238Z</time></trkpt><trkpt lat="45.0397591" lon="8.3514322"><ele>186.0</ele><time>2026-04-18T16:13:58.238Z</time></trkpt><trkpt lat="45.0397342" lon="8.351224"><ele>185.0</ele><time>2026-04-18T16:13:59.238Z</time></trkpt><trkpt lat="45.0397094" lon="8.351017"><ele>184.0</ele><time>2026-04-18T16:14:00.238Z</time></trkpt><trkpt lat="45.0396923" lon="8.3507886"><ele>184.0</ele><time>2026-04-18T16:14:01.238Z</time></trkpt><trkpt lat="45.0397581" lon="8.3505851"><ele>184.0</ele><time>2026-04-18T16:14:02.238Z</time></trkpt><trkpt lat="45.0397933" lon="8.3504096"><ele>184.0</ele><time>2026-04-18T16:14:03.238Z</time></trkpt><trkpt lat="45.039933" lon="8.3502778"><ele>186.0</ele><time>2026-04-18T16:14:04.239Z</time></trkpt><trkpt lat="45.0400495" lon="8.3501388"><ele>188.0</ele><time>2026-04-18T16:14:05.238Z</time></trkpt><trkpt lat="45.0401737" lon="8.3499914"><ele>190.0</ele><time>2026-04-18T16:14:06.238Z</time></trkpt><trkpt lat="45.040257" lon="8.3498307"><ele>189.0</ele><time>2026-04-18T16:14:07.238Z</time></trkpt><trkpt lat="45.0403432" lon="8.3496739"><ele>188.0</ele><time>2026-04-18T16:14:08.238Z</time></trkpt><trkpt lat="45.0404219" lon="8.349509"><ele>187.0</ele><time>2026-04-18T16:14:09.238Z</time></trkpt><trkpt lat="45.0405155" lon="8.3493365"><ele>186.0</ele><time>2026-04-18T16:14:10.238Z</time></trkpt><trkpt lat="45.0405985" lon="8.3491649"><ele>186.0</ele><time>2026-04-18T16:14:11.238Z</time></trkpt><trkpt lat="45.0406826" lon="8.3489863"><ele>186.0</ele><time>2026-04-18T16:14:12.238Z</time></trkpt><trkpt lat="45.0407667" lon="8.348832"><ele>186.0</ele><time>2026-04-18T16:14:13.238Z</time></trkpt><trkpt lat="45.040871" lon="8.3486524"><ele>186.25</ele><time>2026-04-18T16:14:14.239Z</time></trkpt><trkpt lat="45.0409627" lon="8.348491"><ele>186.5</ele><time>2026-04-18T16:14:15.238Z</time></trkpt><trkpt lat="45.0410601" lon="8.3483354"><ele>186.75</ele><time>2026-04-18T16:14:16.239Z</time></trkpt><trkpt lat="45.0411722" lon="8.3482012"><ele>187.0</ele><time>2026-04-18T16:14:17.238Z</time></trkpt><trkpt lat="45.0413014" lon="8.3480936"><ele>187.33333333333334</ele><time>2026-04-18T16:14:18.238Z</time></trkpt><trkpt lat="45.0414412" lon="8.3480225"><ele>187.66666666666666</ele><time>2026-04-18T16:14:19.239Z</time></trkpt><trkpt lat="45.0415794" lon="8.347951"><ele>188.0</ele><time>2026-04-18T16:14:20.238Z</time></trkpt><trkpt lat="45.0417349" lon="8.3479078"><ele>188.0</ele><time>2026-04-18T16:14:21.239Z</time></trkpt><trkpt lat="45.0418903" lon="8.347846"><ele>188.0</ele><time>2026-04-18T16:14:22.238Z</time></trkpt><trkpt lat="45.0420456" lon="8.347794"><ele>188.0</ele><time>2026-04-18T16:14:23.238Z</time></trkpt><trkpt lat="45.0421961" lon="8.3477439"><ele>188.0</ele><time>2026-04-18T16:14:24.239Z</time></trkpt><trkpt lat="45.0423471" lon="8.3476959"><ele>188.0</ele><time>2026-04-18T16:14:25.238Z</time></trkpt><trkpt lat="45.042503" lon="8.347645"><ele>188.0</ele><time>2026-04-18T16:14:26.239Z</time></trkpt><trkpt lat="45.0426576" lon="8.3475936"><ele>189.33333333333331</ele><time>2026-04-18T16:14:27.239Z</time></trkpt><trkpt lat="45.0428165" lon="8.3475386"><ele>190.66666666666666</ele><time>2026-04-18T16:14:28.238Z</time></trkpt><trkpt lat="45.0429764" lon="8.3474847"><ele>192.0</ele><time>2026-04-18T16:14:29.239Z</time></trkpt><trkpt lat="45.0431384" lon="8.3474336"><ele>192.0</ele><time>2026-04-18T16:14:30.238Z</time></trkpt><trkpt lat="45.0432952" lon="8.3473786"><ele>192.0</ele><time>2026-04-18T16:14:31.239Z</time></trkpt><trkpt lat="45.0434481" lon="8.3473201"><ele>192.0</ele><time>2026-04-18T16:14:32.238Z</time></trkpt><trkpt lat="45.0436113" lon="8.3472771"><ele>190.66666666666666</ele><time>2026-04-18T16:14:33.238Z</time></trkpt><trkpt lat="45.0437816" lon="8.3472401"><ele>189.33333333333331</ele><time>2026-04-18T16:14:34.238Z</time></trkpt><trkpt lat="45.0439288" lon="8.3472033"><ele>188.0</ele><time>2026-04-18T16:14:35.238Z</time></trkpt><trkpt lat="45.0440824" lon="8.347152"><ele>189.33333333333331</ele><time>2026-04-18T16:14:36.238Z</time></trkpt><trkpt lat="45.0442457" lon="8.3471078"><ele>190.66666666666666</ele><time>2026-04-18T16:14:37.238Z</time></trkpt><trkpt lat="45.0443927" lon="8.3470562"><ele>192.0</ele><time>2026-04-18T16:14:38.239Z</time></trkpt><trkpt lat="45.0445498" lon="8.3469697"><ele>192.0</ele><time>2026-04-18T16:14:39.238Z</time></trkpt><trkpt lat="45.044699" lon="8.3468696"><ele>192.0</ele><time>2026-04-18T16:14:40.238Z</time></trkpt><trkpt lat="45.044834" lon="8.3467227"><ele>192.0</ele><time>2026-04-18T16:14:41.238Z</time></trkpt><trkpt lat="45.0449647" lon="8.346575"><ele>192.33333333333331</ele><time>2026-04-18T16:14:42.239Z</time></trkpt><trkpt lat="45.0450911" lon="8.34642"><ele>192.66666666666666</ele><time>2026-04-18T16:14:43.238Z</time></trkpt><trkpt lat="45.0452185" lon="8.3462636"><ele>193.0</ele><time>2026-04-18T16:14:44.238Z</time></trkpt><trkpt lat="45.0453436" lon="8.3461074"><ele>193.0</ele><time>2026-04-18T16:14:45.239Z</time></trkpt><trkpt lat="45.0454718" lon="8.3459489"><ele>193.0</ele><time>2026-04-18T16:14:46.239Z</time></trkpt><trkpt lat="45.0455958" lon="8.3457953"><ele>193.0</ele><time>2026-04-18T16:14:47.239Z</time></trkpt><trkpt lat="45.0457224" lon="8.345639"><ele>192.66666666666666</ele><time>2026-04-18T16:14:48.238Z</time></trkpt><trkpt lat="45.0458491" lon="8.3454876"><ele>192.33333333333331</ele><time>2026-04-18T16:14:49.239Z</time></trkpt><trkpt lat="45.0459717" lon="8.3453304"><ele>192.0</ele><time>2026-04-18T16:14:50.238Z</time></trkpt><trkpt lat="45.0460994" lon="8.3451761"><ele>192.0</ele><time>2026-04-18T16:14:51.238Z</time></trkpt><trkpt lat="45.0462248" lon="8.3450163"><ele>192.0</ele><time>2026-04-18T16:14:52.238Z</time></trkpt><trkpt lat="45.046353" lon="8.3448625"><ele>192.0</ele><time>2026-04-18T16:14:53.238Z</time></trkpt><trkpt lat="45.0464791" lon="8.3447095"><ele>192.0</ele><time>2026-04-18T16:14:54.239Z</time></trkpt><trkpt lat="45.0466051" lon="8.3445539"><ele>192.0</ele><time>2026-04-18T16:14:55.239Z</time></trkpt><trkpt lat="45.0467306" lon="8.3444019"><ele>192.0</ele><time>2026-04-18T16:14:56.238Z</time></trkpt><trkpt lat="45.0468543" lon="8.3442502"><ele>192.33333333333331</ele><time>2026-04-18T16:14:57.239Z</time></trkpt><trkpt lat="45.0469792" lon="8.3441007"><ele>192.66666666666666</ele><time>2026-04-18T16:14:58.238Z</time></trkpt><trkpt lat="45.047105" lon="8.3439481"><ele>193.0</ele><time>2026-04-18T16:14:59.238Z</time></trkpt><trkpt lat="45.0472293" lon="8.3437968"><ele>193.0</ele><time>2026-04-18T16:15:00.238Z</time></trkpt><trkpt lat="45.047357" lon="8.3436435"><ele>193.0</ele><time>2026-04-18T16:15:01.238Z</time></trkpt><trkpt lat="45.0474833" lon="8.343491"><ele>193.0</ele><time>2026-04-18T16:15:02.239Z</time></trkpt><trkpt lat="45.0476083" lon="8.3433221"><ele>193.66666666666666</ele><time>2026-04-18T16:15:03.239Z</time></trkpt><trkpt lat="45.0477378" lon="8.3431695"><ele>194.33333333333331</ele><time>2026-04-18T16:15:04.239Z</time></trkpt><trkpt lat="45.0478584" lon="8.3430414"><ele>195.0</ele><time>2026-04-18T16:15:05.238Z</time></trkpt><trkpt lat="45.0479867" lon="8.342885"><ele>195.0</ele><time>2026-04-18T16:15:06.239Z</time></trkpt><trkpt lat="45.0481037" lon="8.3427218"><ele>195.0</ele><time>2026-04-18T16:15:07.238Z</time></trkpt><trkpt lat="45.0482164" lon="8.3425433"><ele>195.0</ele><time>2026-04-18T16:15:08.238Z</time></trkpt><trkpt lat="45.0483337" lon="8.3423723"><ele>196.33333333333331</ele><time>2026-04-18T16:15:09.238Z</time></trkpt><trkpt lat="45.0484496" lon="8.342195"><ele>197.66666666666666</ele><time>2026-04-18T16:15:10.239Z</time></trkpt><trkpt lat="45.0485645" lon="8.3420304"><ele>199.0</ele><time>2026-04-18T16:15:11.239Z</time></trkpt><trkpt lat="45.0486786" lon="8.3418635"><ele>199.0</ele><time>2026-04-18T16:15:12.238Z</time></trkpt><trkpt lat="45.0487935" lon="8.341693"><ele>199.0</ele><time>2026-04-18T16:15:13.239Z</time></trkpt><trkpt lat="45.0489072" lon="8.3415246"><ele>199.0</ele><time>2026-04-18T16:15:14.239Z</time></trkpt><trkpt lat="45.0490146" lon="8.3413642"><ele>199.33333333333331</ele><time>2026-04-18T16:15:15.238Z</time></trkpt><trkpt lat="45.0491281" lon="8.3412007"><ele>199.66666666666669</ele><time>2026-04-18T16:15:16.238Z</time></trkpt><trkpt lat="45.0492394" lon="8.3410384"><ele>200.0</ele><time>2026-04-18T16:15:17.239Z</time></trkpt><trkpt lat="45.049354" lon="8.3408778"><ele>200.0</ele><time>2026-04-18T16:15:18.239Z</time></trkpt><trkpt lat="45.0494676" lon="8.3407177"><ele>200.0</ele><time>2026-04-18T16:15:19.239Z</time></trkpt><trkpt lat="45.0495794" lon="8.3405578"><ele>200.0</ele><time>2026-04-18T16:15:20.238Z</time></trkpt><trkpt lat="45.0496944" lon="8.3403936"><ele>200.0</ele><time>2026-04-18T16:15:21.239Z</time></trkpt><trkpt lat="45.0498091" lon="8.3402259"><ele>200.0</ele><time>2026-04-18T16:15:22.238Z</time></trkpt><trkpt lat="45.0499227" lon="8.3400594"><ele>200.0</ele><time>2026-04-18T16:15:23.238Z</time></trkpt><trkpt lat="45.050036" lon="8.3398962"><ele>201.33333333333334</ele><time>2026-04-18T16:15:24.238Z</time></trkpt><trkpt lat="45.0501468" lon="8.3397271"><ele>202.66666666666669</ele><time>2026-04-18T16:15:25.238Z</time></trkpt><trkpt lat="45.0502561" lon="8.3395691"><ele>204.0</ele><time>2026-04-18T16:15:26.239Z</time></trkpt><trkpt lat="45.0503603" lon="8.3394184"><ele>204.0</ele><time>2026-04-18T16:15:27.238Z</time></trkpt><trkpt lat="45.0504547" lon="8.3392722"><ele>204.0</ele><time>2026-04-18T16:15:28.239Z</time></trkpt><trkpt lat="45.0505525" lon="8.3391393"><ele>204.0</ele><time>2026-04-18T16:15:29.238Z</time></trkpt><trkpt lat="45.050631" lon="8.3389904"><ele>204.0</ele><time>2026-04-18T16:15:30.238Z</time></trkpt><trkpt lat="45.0507337" lon="8.3388704"><ele>203.75</ele><time>2026-04-18T16:15:31.238Z</time></trkpt><trkpt lat="45.0508412" lon="8.3387553"><ele>203.5</ele><time>2026-04-18T16:15:32.238Z</time></trkpt><trkpt lat="45.0509504" lon="8.3386573"><ele>203.25</ele><time>2026-04-18T16:15:33.238Z</time></trkpt><trkpt lat="45.0510237" lon="8.338574"><ele>203.0</ele><time>2026-04-18T16:15:34.238Z</time></trkpt><trkpt lat="45.0511384" lon="8.3385011"><ele>203.0</ele><time>2026-04-18T16:15:35.238Z</time></trkpt><trkpt lat="45.05125" lon="8.338433"><ele>203.0</ele><time>2026-04-18T16:15:36.238Z</time></trkpt><trkpt lat="45.0513612" lon="8.3383522"><ele>203.0</ele><time>2026-04-18T16:15:37.239Z</time></trkpt><trkpt lat="45.051427" lon="8.3382992"><ele>203.0</ele><time>2026-04-18T16:15:38.238Z</time></trkpt><trkpt lat="45.0515062" lon="8.3382513"><ele>203.0</ele><time>2026-04-18T16:15:39.239Z</time></trkpt><trkpt lat="45.0516" lon="8.3382069"><ele>203.60000000000002</ele><time>2026-04-18T16:15:40.238Z</time></trkpt><trkpt lat="45.0516908" lon="8.3381695"><ele>204.20000000000002</ele><time>2026-04-18T16:15:41.239Z</time></trkpt><trkpt lat="45.0517935" lon="8.338138"><ele>204.8</ele><time>2026-04-18T16:15:42.238Z</time></trkpt><trkpt lat="45.0518912" lon="8.3381222"><ele>205.4</ele><time>2026-04-18T16:15:43.238Z</time></trkpt><trkpt lat="45.0519889" lon="8.3380967"><ele>206.0</ele><time>2026-04-18T16:15:44.238Z</time></trkpt><trkpt lat="45.0520771" lon="8.3381011"><ele>206.00000000000003</ele><time>2026-04-18T16:15:45.238Z</time></trkpt><trkpt lat="45.0521569" lon="8.338102"><ele>206.0</ele><time>2026-04-18T16:15:46.238Z</time></trkpt><trkpt lat="45.0522353" lon="8.3380994"><ele>206.0</ele><time>2026-04-18T16:15:47.239Z</time></trkpt><trkpt lat="45.0522993" lon="8.3381005"><ele>206.0</ele><time>2026-04-18T16:15:48.238Z</time></trkpt><trkpt lat="45.0523746" lon="8.3380807"><ele>206.00000000000003</ele><time>2026-04-18T16:15:50.238Z</time></trkpt><trkpt lat="45.0523438" lon="8.3379755"><ele>206.0</ele><time>2026-04-18T16:15:52.238Z</time></trkpt><trkpt lat="45.0522724" lon="8.337785"><ele>206.20000000000002</ele><time>2026-04-18T16:15:54.238Z</time></trkpt><trkpt lat="45.0522344" lon="8.3376896"><ele>206.4</ele><time>2026-04-18T16:15:55.238Z</time></trkpt><trkpt lat="45.0521594" lon="8.3375635"><ele>206.6</ele><time>2026-04-18T16:15:56.239Z</time></trkpt><trkpt lat="45.0521227" lon="8.3374479"><ele>206.8</ele><time>2026-04-18T16:15:57.238Z</time></trkpt><trkpt lat="45.0520733" lon="8.3373833"><ele>207.0</ele><time>2026-04-18T16:15:58.238Z</time></trkpt><trkpt lat="45.0519432" lon="8.3373441"><ele>207.0</ele><time>2026-04-18T16:15:59.239Z</time></trkpt><trkpt lat="45.0518441" lon="8.3373279"><ele>207.0</ele><time>2026-04-18T16:16:00.238Z</time></trkpt><trkpt lat="45.0517525" lon="8.337286"><ele>207.0</ele><time>2026-04-18T16:16:01.238Z</time></trkpt><trkpt lat="45.0516483" lon="8.3372608"><ele>207.0</ele><time>2026-04-18T16:16:02.238Z</time></trkpt><trkpt lat="45.0515409" lon="8.3372243"><ele>207.0</ele><time>2026-04-18T16:16:03.238Z</time></trkpt><trkpt lat="45.0514778" lon="8.3371097"><ele>206.5</ele><time>2026-04-18T16:16:04.238Z</time></trkpt><trkpt lat="45.0513894" lon="8.3370293"><ele>206.0</ele><time>2026-04-18T16:16:05.239Z</time></trkpt><trkpt lat="45.0512895" lon="8.3369438"><ele>205.5</ele><time>2026-04-18T16:16:06.238Z</time></trkpt><trkpt lat="45.051206" lon="8.3368319"><ele>205.0</ele><time>2026-04-18T16:16:07.238Z</time></trkpt><trkpt lat="45.0511028" lon="8.3367227"><ele>205.0</ele><time>2026-04-18T16:16:08.238Z</time></trkpt><trkpt lat="45.0509955" lon="8.3365956"><ele>205.0</ele><time>2026-04-18T16:16:09.238Z</time></trkpt><trkpt lat="45.0508908" lon="8.3364872"><ele>205.0</ele><time>2026-04-18T16:16:10.238Z</time></trkpt><trkpt lat="45.0507803" lon="8.336366"><ele>205.0</ele><time>2026-04-18T16:16:11.238Z</time></trkpt><trkpt lat="45.0506624" lon="8.336247"><ele>205.25</ele><time>2026-04-18T16:16:12.238Z</time></trkpt><trkpt lat="45.0505527" lon="8.3361228"><ele>205.5</ele><time>2026-04-18T16:16:13.239Z</time></trkpt><trkpt lat="45.0504418" lon="8.3360077"><ele>205.75</ele><time>2026-04-18T16:16:14.239Z</time></trkpt><trkpt lat="45.0503286" lon="8.3358857"><ele>206.0</ele><time>2026-04-18T16:16:15.238Z</time></trkpt><trkpt lat="45.0502295" lon="8.3357625"><ele>206.0</ele><time>2026-04-18T16:16:16.238Z</time></trkpt><trkpt lat="45.0501226" lon="8.3356503"><ele>206.0</ele><time>2026-04-18T16:16:17.239Z</time></trkpt><trkpt lat="45.050026" lon="8.3355478"><ele>206.0</ele><time>2026-04-18T16:16:18.238Z</time></trkpt><trkpt lat="45.0499313" lon="8.3354414"><ele>206.0</ele><time>2026-04-18T16:16:19.238Z</time></trkpt><trkpt lat="45.0498427" lon="8.335353"><ele>208.8</ele><time>2026-04-18T16:16:20.238Z</time></trkpt><trkpt lat="45.0497433" lon="8.3352909"><ele>211.60000000000002</ele><time>2026-04-18T16:16:21.239Z</time></trkpt><trkpt lat="45.0496385" lon="8.3352702"><ele>214.4</ele><time>2026-04-18T16:16:22.238Z</time></trkpt><trkpt lat="45.0495346" lon="8.3352693"><ele>217.2</ele><time>2026-04-18T16:16:23.238Z</time></trkpt><trkpt lat="45.0494363" lon="8.3353296"><ele>220.0</ele><time>2026-04-18T16:16:24.239Z</time></trkpt><trkpt lat="45.0493899" lon="8.3355153"><ele>219.25</ele><time>2026-04-18T16:16:25.238Z</time></trkpt><trkpt lat="45.0493375" lon="8.3356711"><ele>218.5</ele><time>2026-04-18T16:16:26.238Z</time></trkpt><trkpt lat="45.0492894" lon="8.3358291"><ele>217.75</ele><time>2026-04-18T16:16:27.238Z</time></trkpt><trkpt lat="45.0492683" lon="8.3360674"><ele>217.0</ele><time>2026-04-18T16:16:28.238Z</time></trkpt><trkpt lat="45.0492452" lon="8.3362734"><ele>216.75</ele><time>2026-04-18T16:16:29.238Z</time></trkpt><trkpt lat="45.0492267" lon="8.3364915"><ele>216.5</ele><time>2026-04-18T16:16:30.238Z</time></trkpt><trkpt lat="45.0492004" lon="8.3367"><ele>216.25</ele><time>2026-04-18T16:16:31.239Z</time></trkpt><trkpt lat="45.0491594" lon="8.3368577"><ele>216.0</ele><time>2026-04-18T16:16:32.238Z</time></trkpt><trkpt lat="45.0491129" lon="8.3370277"><ele>218.33333333333331</ele><time>2026-04-18T16:16:33.238Z</time></trkpt><trkpt lat="45.049057" lon="8.3372593"><ele>220.66666666666666</ele><time>2026-04-18T16:16:34.239Z</time></trkpt><trkpt lat="45.0489237" lon="8.3372651"><ele>223.0</ele><time>2026-04-18T16:16:35.238Z</time></trkpt><trkpt lat="45.0487319" lon="8.3372768"><ele>223.0</ele><time>2026-04-18T16:16:36.238Z</time></trkpt><trkpt lat="45.0486023" lon="8.3373679"><ele>223.0</ele><time>2026-04-18T16:16:37.238Z</time></trkpt><trkpt lat="45.0484487" lon="8.3374594"><ele>223.0</ele><time>2026-04-18T16:16:38.239Z</time></trkpt><trkpt lat="45.0482911" lon="8.3375727"><ele>225.5</ele><time>2026-04-18T16:16:39.238Z</time></trkpt><trkpt lat="45.0481403" lon="8.3376732"><ele>228.0</ele><time>2026-04-18T16:16:40.238Z</time></trkpt><trkpt lat="45.0480256" lon="8.3377533"><ele>230.5</ele><time>2026-04-18T16:16:41.238Z</time></trkpt><trkpt lat="45.0478933" lon="8.3378295"><ele>233.0</ele><time>2026-04-18T16:16:42.239Z</time></trkpt><trkpt lat="45.0478017" lon="8.3379588"><ele>232.60000000000002</ele><time>2026-04-18T16:16:43.239Z</time></trkpt><trkpt lat="45.0477008" lon="8.3380748"><ele>232.20000000000002</ele><time>2026-04-18T16:16:44.238Z</time></trkpt><trkpt lat="45.0476418" lon="8.3381906"><ele>231.8</ele><time>2026-04-18T16:16:45.239Z</time></trkpt><trkpt lat="45.0475709" lon="8.3382648"><ele>231.4</ele><time>2026-04-18T16:16:46.239Z</time></trkpt><trkpt lat="45.0474943" lon="8.3383449"><ele>231.0</ele><time>2026-04-18T16:16:47.239Z</time></trkpt><trkpt lat="45.0474112" lon="8.3383905"><ele>233.20000000000002</ele><time>2026-04-18T16:16:48.238Z</time></trkpt><trkpt lat="45.0473163" lon="8.3383835"><ele>235.40000000000003</ele><time>2026-04-18T16:16:49.238Z</time></trkpt><trkpt lat="45.0472541" lon="8.3382641"><ele>237.6</ele><time>2026-04-18T16:16:50.239Z</time></trkpt><trkpt lat="45.0472022" lon="8.338117"><ele>239.8</ele><time>2026-04-18T16:16:51.239Z</time></trkpt><trkpt lat="45.0472249" lon="8.3379545"><ele>242.0</ele><time>2026-04-18T16:16:52.239Z</time></trkpt><trkpt lat="45.0473447" lon="8.3378149"><ele>242.0</ele><time>2026-04-18T16:16:53.239Z</time></trkpt><trkpt lat="45.0474334" lon="8.3376562"><ele>242.0</ele><time>2026-04-18T16:16:54.238Z</time></trkpt><trkpt lat="45.0475097" lon="8.3374962"><ele>242.0</ele><time>2026-04-18T16:16:55.238Z</time></trkpt><trkpt lat="45.0475962" lon="8.3373363"><ele>242.0</ele><time>2026-04-18T16:16:56.239Z</time></trkpt><trkpt lat="45.0476891" lon="8.3371791"><ele>242.0</ele><time>2026-04-18T16:16:57.238Z</time></trkpt><trkpt lat="45.0477822" lon="8.3370044"><ele>242.0</ele><time>2026-04-18T16:16:58.238Z</time></trkpt><trkpt lat="45.0478643" lon="8.336821"><ele>242.0</ele><time>2026-04-18T16:16:59.239Z</time></trkpt><trkpt lat="45.0479407" lon="8.3366382"><ele>242.0</ele><time>2026-04-18T16:17:00.238Z</time></trkpt><trkpt lat="45.0480387" lon="8.3364312"><ele>242.0</ele><time>2026-04-18T16:17:01.238Z</time></trkpt><trkpt lat="45.0481102" lon="8.3362447"><ele>242.0</ele><time>2026-04-18T16:17:02.238Z</time></trkpt><trkpt lat="45.0481498" lon="8.3360385"><ele>244.66666666666669</ele><time>2026-04-18T16:17:03.238Z</time></trkpt><trkpt lat="45.0481804" lon="8.3358453"><ele>247.33333333333331</ele><time>2026-04-18T16:17:04.238Z</time></trkpt><trkpt lat="45.0482202" lon="8.3356176"><ele>250.0</ele><time>2026-04-18T16:17:05.239Z</time></trkpt><trkpt lat="45.0481871" lon="8.3353987"><ele>252.0</ele><time>2026-04-18T16:17:06.238Z</time></trkpt><trkpt lat="45.0481326" lon="8.3351699"><ele>254.0</ele><time>2026-04-18T16:17:07.239Z</time></trkpt><trkpt lat="45.0481104" lon="8.3349526"><ele>256.0</ele><time>2026-04-18T16:17:08.238Z</time></trkpt><trkpt lat="45.048133" lon="8.334751"><ele>256.66666666666663</ele><time>2026-04-18T16:17:09.238Z</time></trkpt><trkpt lat="45.0480934" lon="8.3345054"><ele>257.3333333333333</ele><time>2026-04-18T16:17:10.238Z</time></trkpt><trkpt lat="45.0480745" lon="8.3342657"><ele>258.0</ele><time>2026-04-18T16:17:11.239Z</time></trkpt><trkpt lat="45.0480573" lon="8.3340552"><ele>257.6666666666667</ele><time>2026-04-18T16:17:12.238Z</time></trkpt><trkpt lat="45.0480279" lon="8.3338424"><ele>257.33333333333337</ele><time>2026-04-18T16:17:13.238Z</time></trkpt><trkpt lat="45.0479832" lon="8.3335624"><ele>257.0</ele><time>2026-04-18T16:17:14.238Z</time></trkpt><trkpt lat="45.0479675" lon="8.3333337"><ele>257.0</ele><time>2026-04-18T16:17:15.239Z</time></trkpt><trkpt lat="45.0479385" lon="8.333091"><ele>257.0</ele><time>2026-04-18T16:17:16.239Z</time></trkpt><trkpt lat="45.0479114" lon="8.332853"><ele>257.0</ele><time>2026-04-18T16:17:17.239Z</time></trkpt><trkpt lat="45.0478788" lon="8.3325931"><ele>256.33333333333337</ele><time>2026-04-18T16:17:18.238Z</time></trkpt><trkpt lat="45.0478438" lon="8.3323415"><ele>255.66666666666669</ele><time>2026-04-18T16:17:19.238Z</time></trkpt><trkpt lat="45.0478509" lon="8.3321115"><ele>255.0</ele><time>2026-04-18T16:17:20.238Z</time></trkpt><trkpt lat="45.0478428" lon="8.3318868"><ele>255.0</ele><time>2026-04-18T16:17:21.239Z</time></trkpt><trkpt lat="45.04783" lon="8.3316452"><ele>255.0</ele><time>2026-04-18T16:17:22.239Z</time></trkpt><trkpt lat="45.0478195" lon="8.3314292"><ele>255.0</ele><time>2026-04-18T16:17:23.239Z</time></trkpt><trkpt lat="45.0477978" lon="8.3312127"><ele>255.0</ele><time>2026-04-18T16:17:24.238Z</time></trkpt><trkpt lat="45.0477765" lon="8.3309816"><ele>255.0</ele><time>2026-04-18T16:17:25.238Z</time></trkpt><trkpt lat="45.0477557" lon="8.3307309"><ele>255.0</ele><time>2026-04-18T16:17:26.238Z</time></trkpt><trkpt lat="45.0477319" lon="8.3304718"><ele>256.3333333333333</ele><time>2026-04-18T16:17:27.238Z</time></trkpt><trkpt lat="45.0476951" lon="8.3302602"><ele>257.66666666666663</ele><time>2026-04-18T16:17:28.238Z</time></trkpt><trkpt lat="45.0476522" lon="8.3300015"><ele>259.0</ele><time>2026-04-18T16:17:29.238Z</time></trkpt><trkpt lat="45.0475841" lon="8.3297699"><ele>260.66666666666663</ele><time>2026-04-18T16:17:30.238Z</time></trkpt><trkpt lat="45.0474875" lon="8.3295652"><ele>262.3333333333333</ele><time>2026-04-18T16:17:31.238Z</time></trkpt><trkpt lat="45.0473798" lon="8.3293631"><ele>264.0</ele><time>2026-04-18T16:17:32.239Z</time></trkpt><trkpt lat="45.0472713" lon="8.3291639"><ele>262.3333333333333</ele><time>2026-04-18T16:17:33.238Z</time></trkpt><trkpt lat="45.0471619" lon="8.3289743"><ele>260.66666666666663</ele><time>2026-04-18T16:17:34.239Z</time></trkpt><trkpt lat="45.0470604" lon="8.3287884"><ele>259.0</ele><time>2026-04-18T16:17:35.238Z</time></trkpt><trkpt lat="45.0469584" lon="8.3286138"><ele>259.0</ele><time>2026-04-18T16:17:36.238Z</time></trkpt><trkpt lat="45.0468728" lon="8.3284506"><ele>259.0</ele><time>2026-04-18T16:17:37.238Z</time></trkpt><trkpt lat="45.0467665" lon="8.3282768"><ele>259.0</ele><time>2026-04-18T16:17:38.238Z</time></trkpt><trkpt lat="45.0466909" lon="8.3281107"><ele>259.0</ele><time>2026-04-18T16:17:39.238Z</time></trkpt><trkpt lat="45.0466121" lon="8.327957"><ele>260.25</ele><time>2026-04-18T16:17:40.239Z</time></trkpt><trkpt lat="45.0465277" lon="8.3278054"><ele>261.5</ele><time>2026-04-18T16:17:41.239Z</time></trkpt><trkpt lat="45.0464452" lon="8.3276552"><ele>262.75</ele><time>2026-04-18T16:17:42.239Z</time></trkpt><trkpt lat="45.0463568" lon="8.3275079"><ele>264.0</ele><time>2026-04-18T16:17:43.238Z</time></trkpt><trkpt lat="45.0462398" lon="8.3273408"><ele>264.6666666666667</ele><time>2026-04-18T16:17:44.239Z</time></trkpt><trkpt lat="45.0461516" lon="8.3271873"><ele>265.33333333333337</ele><time>2026-04-18T16:17:45.238Z</time></trkpt><trkpt lat="45.0460509" lon="8.3270374"><ele>266.0</ele><time>2026-04-18T16:17:46.239Z</time></trkpt><trkpt lat="45.0459287" lon="8.3268585"><ele>266.0</ele><time>2026-04-18T16:17:47.239Z</time></trkpt><trkpt lat="45.0458248" lon="8.326719"><ele>266.0</ele><time>2026-04-18T16:17:48.238Z</time></trkpt><trkpt lat="45.0458164" lon="8.3266202"><ele>266.0</ele><time>2026-04-18T16:17:49.238Z</time></trkpt><trkpt lat="45.0457601" lon="8.3264353"><ele>266.0</ele><time>2026-04-18T16:17:50.238Z</time></trkpt><trkpt lat="45.0457493" lon="8.326244"><ele>265.25</ele><time>2026-04-18T16:17:51.238Z</time></trkpt><trkpt lat="45.0457802" lon="8.3260863"><ele>264.5</ele><time>2026-04-18T16:17:52.239Z</time></trkpt><trkpt lat="45.045809" lon="8.3259108"><ele>263.75</ele><time>2026-04-18T16:17:53.239Z</time></trkpt><trkpt lat="45.0458935" lon="8.3257609"><ele>263.0</ele><time>2026-04-18T16:17:54.238Z</time></trkpt><trkpt lat="45.0459992" lon="8.3256176"><ele>260.75</ele><time>2026-04-18T16:17:55.238Z</time></trkpt><trkpt lat="45.0461043" lon="8.3254998"><ele>258.5</ele><time>2026-04-18T16:17:56.238Z</time></trkpt><trkpt lat="45.04618" lon="8.3253864"><ele>256.25</ele><time>2026-04-18T16:17:57.238Z</time></trkpt><trkpt lat="45.0462444" lon="8.3252613"><ele>254.0</ele><time>2026-04-18T16:17:58.238Z</time></trkpt><trkpt lat="45.0462952" lon="8.32511"><ele>254.0</ele><time>2026-04-18T16:17:59.238Z</time></trkpt><trkpt lat="45.0463374" lon="8.3249511"><ele>254.0</ele><time>2026-04-18T16:18:00.238Z</time></trkpt><trkpt lat="45.0463389" lon="8.3247941"><ele>254.0</ele><time>2026-04-18T16:18:01.238Z</time></trkpt><trkpt lat="45.0462443" lon="8.3245662"><ele>254.0</ele><time>2026-04-18T16:18:02.239Z</time></trkpt><trkpt lat="45.0461918" lon="8.3243882"><ele>252.75</ele><time>2026-04-18T16:18:03.238Z</time></trkpt><trkpt lat="45.0461384" lon="8.3242088"><ele>251.5</ele><time>2026-04-18T16:18:04.239Z</time></trkpt><trkpt lat="45.0461062" lon="8.3239869"><ele>250.25</ele><time>2026-04-18T16:18:05.238Z</time></trkpt><trkpt lat="45.0460634" lon="8.3237851"><ele>249.0</ele><time>2026-04-18T16:18:06.238Z</time></trkpt><trkpt lat="45.0460192" lon="8.3236008"><ele>248.5</ele><time>2026-04-18T16:18:07.238Z</time></trkpt><trkpt lat="45.0459796" lon="8.32341"><ele>248.0</ele><time>2026-04-18T16:18:08.239Z</time></trkpt><trkpt lat="45.0459564" lon="8.3232159"><ele>247.5</ele><time>2026-04-18T16:18:09.239Z</time></trkpt><trkpt lat="45.045989" lon="8.3230255"><ele>247.0</ele><time>2026-04-18T16:18:10.239Z</time></trkpt><trkpt lat="45.0459951" lon="8.3228313"><ele>246.25</ele><time>2026-04-18T16:18:11.238Z</time></trkpt><trkpt lat="45.0461046" lon="8.322676"><ele>245.5</ele><time>2026-04-18T16:18:12.239Z</time></trkpt><trkpt lat="45.046154" lon="8.3225056"><ele>244.75</ele><time>2026-04-18T16:18:13.238Z</time></trkpt><trkpt lat="45.046229" lon="8.3223426"><ele>244.0</ele><time>2026-04-18T16:18:14.238Z</time></trkpt><trkpt lat="45.0462932" lon="8.3221539"><ele>242.5</ele><time>2026-04-18T16:18:15.238Z</time></trkpt><trkpt lat="45.046351" lon="8.321969"><ele>241.0</ele><time>2026-04-18T16:18:16.238Z</time></trkpt><trkpt lat="45.0464109" lon="8.3217887"><ele>239.5</ele><time>2026-04-18T16:18:17.238Z</time></trkpt><trkpt lat="45.0464541" lon="8.3215985"><ele>238.0</ele><time>2026-04-18T16:18:18.239Z</time></trkpt><trkpt lat="45.0464881" lon="8.3214122"><ele>237.25</ele><time>2026-04-18T16:18:19.239Z</time></trkpt><trkpt lat="45.0465213" lon="8.3212213"><ele>236.5</ele><time>2026-04-18T16:18:20.238Z</time></trkpt><trkpt lat="45.0465438" lon="8.3210229"><ele>235.75</ele><time>2026-04-18T16:18:21.238Z</time></trkpt><trkpt lat="45.046558" lon="8.3208551"><ele>235.0</ele><time>2026-04-18T16:18:22.238Z</time></trkpt><trkpt lat="45.0465702" lon="8.32068"><ele>237.2</ele><time>2026-04-18T16:18:23.239Z</time></trkpt><trkpt lat="45.0465696" lon="8.3205307"><ele>239.4</ele><time>2026-04-18T16:18:24.238Z</time></trkpt><trkpt lat="45.046549" lon="8.3204019"><ele>241.60000000000002</ele><time>2026-04-18T16:18:25.238Z</time></trkpt><trkpt lat="45.0465126" lon="8.3202682"><ele>243.8</ele><time>2026-04-18T16:18:26.238Z</time></trkpt><trkpt lat="45.0464323" lon="8.3201458"><ele>246.0</ele><time>2026-04-18T16:18:27.239Z</time></trkpt><trkpt lat="45.0463463" lon="8.3200534"><ele>246.0</ele><time>2026-04-18T16:18:28.238Z</time></trkpt><trkpt lat="45.046237" lon="8.320063"><ele>246.0</ele><time>2026-04-18T16:18:29.238Z</time></trkpt><trkpt lat="45.0461289" lon="8.3200608"><ele>246.0</ele><time>2026-04-18T16:18:30.238Z</time></trkpt><trkpt lat="45.045991" lon="8.3200837"><ele>246.0</ele><time>2026-04-18T16:18:31.238Z</time></trkpt><trkpt lat="45.0458519" lon="8.3201309"><ele>246.25</ele><time>2026-04-18T16:18:32.238Z</time></trkpt><trkpt lat="45.0457471" lon="8.3201531"><ele>246.5</ele><time>2026-04-18T16:18:33.239Z</time></trkpt><trkpt lat="45.0456287" lon="8.3201686"><ele>246.75</ele><time>2026-04-18T16:18:34.238Z</time></trkpt><trkpt lat="45.0455242" lon="8.3202232"><ele>247.0</ele><time>2026-04-18T16:18:35.238Z</time></trkpt><trkpt lat="45.0453671" lon="8.3202608"><ele>247.0</ele><time>2026-04-18T16:18:36.238Z</time></trkpt><trkpt lat="45.045217" lon="8.3202828"><ele>247.0</ele><time>2026-04-18T16:18:37.239Z</time></trkpt><trkpt lat="45.045073" lon="8.3203003"><ele>247.0</ele><time>2026-04-18T16:18:38.238Z</time></trkpt><trkpt lat="45.044928" lon="8.320272"><ele>247.0</ele><time>2026-04-18T16:18:39.238Z</time></trkpt><trkpt lat="45.0447976" lon="8.3202097"><ele>247.0</ele><time>2026-04-18T16:18:40.238Z</time></trkpt><trkpt lat="45.044652" lon="8.3201238"><ele>247.0</ele><time>2026-04-18T16:18:41.238Z</time></trkpt><trkpt lat="45.0445031" lon="8.3200274"><ele>247.0</ele><time>2026-04-18T16:18:42.238Z</time></trkpt><trkpt lat="45.0443756" lon="8.3199087"><ele>247.0</ele><time>2026-04-18T16:18:43.238Z</time></trkpt><trkpt lat="45.0442507" lon="8.3197617"><ele>247.0</ele><time>2026-04-18T16:18:44.238Z</time></trkpt><trkpt lat="45.0442207" lon="8.3196284"><ele>247.0</ele><time>2026-04-18T16:18:45.239Z</time></trkpt><trkpt lat="45.0442083" lon="8.3195072"><ele>247.0</ele><time>2026-04-18T16:18:46.238Z</time></trkpt><trkpt lat="45.0442042" lon="8.319324"><ele>246.66666666666666</ele><time>2026-04-18T16:18:47.238Z</time></trkpt><trkpt lat="45.0442389" lon="8.3191067"><ele>246.33333333333331</ele><time>2026-04-18T16:18:48.238Z</time></trkpt><trkpt lat="45.0443147" lon="8.3189135"><ele>246.0</ele><time>2026-04-18T16:18:49.238Z</time></trkpt><trkpt lat="45.0443629" lon="8.3187043"><ele>244.33333333333331</ele><time>2026-04-18T16:18:50.238Z</time></trkpt><trkpt lat="45.0444093" lon="8.3184944"><ele>242.66666666666666</ele><time>2026-04-18T16:18:51.238Z</time></trkpt><trkpt lat="45.0444564" lon="8.3182787"><ele>241.0</ele><time>2026-04-18T16:18:52.238Z</time></trkpt><trkpt lat="45.0445155" lon="8.318061"><ele>239.33333333333331</ele><time>2026-04-18T16:18:53.238Z</time></trkpt><trkpt lat="45.044572" lon="8.3178506"><ele>237.66666666666669</ele><time>2026-04-18T16:18:54.239Z</time></trkpt><trkpt lat="45.0446295" lon="8.3176362"><ele>236.0</ele><time>2026-04-18T16:18:55.239Z</time></trkpt><trkpt lat="45.0446775" lon="8.3174249"><ele>234.33333333333334</ele><time>2026-04-18T16:18:56.239Z</time></trkpt><trkpt lat="45.0447283" lon="8.3171991"><ele>232.66666666666669</ele><time>2026-04-18T16:18:57.238Z</time></trkpt><trkpt lat="45.0447792" lon="8.3169733"><ele>231.0</ele><time>2026-04-18T16:18:58.238Z</time></trkpt><trkpt lat="45.044832" lon="8.3167581"><ele>231.0</ele><time>2026-04-18T16:18:59.239Z</time></trkpt><trkpt lat="45.044882" lon="8.3165328"><ele>231.0</ele><time>2026-04-18T16:19:00.238Z</time></trkpt><trkpt lat="45.0449325" lon="8.3162994"><ele>231.0</ele><time>2026-04-18T16:19:01.238Z</time></trkpt><trkpt lat="45.0449796" lon="8.316076"><ele>231.33333333333331</ele><time>2026-04-18T16:19:02.238Z</time></trkpt><trkpt lat="45.0450267" lon="8.3158683"><ele>231.66666666666666</ele><time>2026-04-18T16:19:03.239Z</time></trkpt><trkpt lat="45.0450738" lon="8.3156577"><ele>232.0</ele><time>2026-04-18T16:19:04.238Z</time></trkpt><trkpt lat="45.0451173" lon="8.315452"><ele>232.0</ele><time>2026-04-18T16:19:05.239Z</time></trkpt><trkpt lat="45.0451616" lon="8.3152648"><ele>232.0</ele><time>2026-04-18T16:19:06.239Z</time></trkpt><trkpt lat="45.0452058" lon="8.3150648"><ele>232.0</ele><time>2026-04-18T16:19:07.239Z</time></trkpt><trkpt lat="45.0452286" lon="8.3148761"><ele>232.0</ele><time>2026-04-18T16:19:08.238Z</time></trkpt><trkpt lat="45.0452276" lon="8.314701"><ele>231.75</ele><time>2026-04-18T16:19:09.238Z</time></trkpt><trkpt lat="45.0452276" lon="8.3145094"><ele>231.5</ele><time>2026-04-18T16:19:10.238Z</time></trkpt><trkpt lat="45.0451901" lon="8.3143194"><ele>231.25</ele><time>2026-04-18T16:19:11.238Z</time></trkpt><trkpt lat="45.0451184" lon="8.3141146"><ele>231.0</ele><time>2026-04-18T16:19:12.239Z</time></trkpt><trkpt lat="45.0450563" lon="8.3139163"><ele>231.20000000000002</ele><time>2026-04-18T16:19:13.238Z</time></trkpt><trkpt lat="45.0450109" lon="8.3137538"><ele>231.40000000000003</ele><time>2026-04-18T16:19:14.238Z</time></trkpt><trkpt lat="45.0449533" lon="8.3136121"><ele>231.6</ele><time>2026-04-18T16:19:15.239Z</time></trkpt><trkpt lat="45.044889" lon="8.3134897"><ele>231.8</ele><time>2026-04-18T16:19:16.238Z</time></trkpt><trkpt lat="45.0448139" lon="8.3133948"><ele>232.0</ele><time>2026-04-18T16:19:17.238Z</time></trkpt><trkpt lat="45.0447276" lon="8.3133156"><ele>233.6</ele><time>2026-04-18T16:19:18.238Z</time></trkpt><trkpt lat="45.0446397" lon="8.3133137"><ele>235.2</ele><time>2026-04-18T16:19:19.238Z</time></trkpt><trkpt lat="45.0445414" lon="8.3133144"><ele>236.8</ele><time>2026-04-18T16:19:20.238Z</time></trkpt><trkpt lat="45.0444236" lon="8.3133606"><ele>238.4</ele><time>2026-04-18T16:19:21.238Z</time></trkpt><trkpt lat="45.0443271" lon="8.3134192"><ele>240.0</ele><time>2026-04-18T16:19:22.239Z</time></trkpt><trkpt lat="45.0442275" lon="8.3134751"><ele>240.0</ele><time>2026-04-18T16:19:23.238Z</time></trkpt><trkpt lat="45.044143" lon="8.3134902"><ele>240.0</ele><time>2026-04-18T16:19:24.238Z</time></trkpt><trkpt lat="45.0440757" lon="8.3134934"><ele>240.0</ele><time>2026-04-18T16:19:25.238Z</time></trkpt><trkpt lat="45.0440555" lon="8.3133725"><ele>240.0</ele><time>2026-04-18T16:19:26.239Z</time></trkpt><trkpt lat="45.0440033" lon="8.3132284"><ele>240.0</ele><time>2026-04-18T16:19:28.238Z</time></trkpt><trkpt lat="45.0440121" lon="8.3130836"><ele>241.6</ele><time>2026-04-18T16:19:29.238Z</time></trkpt><trkpt lat="45.0440684" lon="8.3129798"><ele>243.2</ele><time>2026-04-18T16:19:30.238Z</time></trkpt><trkpt lat="45.04415" lon="8.3128612"><ele>244.8</ele><time>2026-04-18T16:19:31.238Z</time></trkpt><trkpt lat="45.0442135" lon="8.3127398"><ele>246.4</ele><time>2026-04-18T16:19:32.238Z</time></trkpt><trkpt lat="45.0442936" lon="8.3126182"><ele>248.0</ele><time>2026-04-18T16:19:33.238Z</time></trkpt><trkpt lat="45.0443568" lon="8.3124746"><ele>248.0</ele><time>2026-04-18T16:19:34.238Z</time></trkpt><trkpt lat="45.0444281" lon="8.3123313"><ele>248.0</ele><time>2026-04-18T16:19:35.238Z</time></trkpt><trkpt lat="45.0444683" lon="8.3121651"><ele>248.0</ele><time>2026-04-18T16:19:36.239Z</time></trkpt><trkpt lat="45.0445212" lon="8.3119929"><ele>248.0</ele><time>2026-04-18T16:19:37.238Z</time></trkpt><trkpt lat="45.0445604" lon="8.3118152"><ele>250.25</ele><time>2026-04-18T16:19:38.238Z</time></trkpt><trkpt lat="45.0446029" lon="8.3116395"><ele>252.5</ele><time>2026-04-18T16:19:39.239Z</time></trkpt><trkpt lat="45.0446307" lon="8.3114713"><ele>254.75</ele><time>2026-04-18T16:19:40.238Z</time></trkpt><trkpt lat="45.0446884" lon="8.3112395"><ele>257.0</ele><time>2026-04-18T16:19:41.238Z</time></trkpt><trkpt lat="45.0447327" lon="8.3110422"><ele>260.33333333333337</ele><time>2026-04-18T16:19:42.238Z</time></trkpt><trkpt lat="45.0447887" lon="8.3108475"><ele>263.6666666666667</ele><time>2026-04-18T16:19:43.238Z</time></trkpt><trkpt lat="45.0448685" lon="8.3106338"><ele>267.0</ele><time>2026-04-18T16:19:44.238Z</time></trkpt><trkpt lat="45.0449389" lon="8.3104521"><ele>267.75</ele><time>2026-04-18T16:19:45.238Z</time></trkpt><trkpt lat="45.0450008" lon="8.3102771"><ele>268.5</ele><time>2026-04-18T16:19:46.238Z</time></trkpt><trkpt lat="45.0450587" lon="8.3100907"><ele>269.25</ele><time>2026-04-18T16:19:47.239Z</time></trkpt><trkpt lat="45.0451272" lon="8.3099095"><ele>270.0</ele><time>2026-04-18T16:19:48.238Z</time></trkpt><trkpt lat="45.0451794" lon="8.309722"><ele>270.0</ele><time>2026-04-18T16:19:49.238Z</time></trkpt><trkpt lat="45.0452551" lon="8.3095376"><ele>270.0</ele><time>2026-04-18T16:19:50.239Z</time></trkpt><trkpt lat="45.0453211" lon="8.3093598"><ele>270.0</ele><time>2026-04-18T16:19:51.238Z</time></trkpt><trkpt lat="45.0453882" lon="8.309191"><ele>270.0</ele><time>2026-04-18T16:19:52.238Z</time></trkpt><trkpt lat="45.0454347" lon="8.3090284"><ele>271.2</ele><time>2026-04-18T16:19:53.238Z</time></trkpt><trkpt lat="45.0454802" lon="8.3088762"><ele>272.4</ele><time>2026-04-18T16:19:54.238Z</time></trkpt><trkpt lat="45.0454865" lon="8.3087023"><ele>273.6</ele><time>2026-04-18T16:19:55.238Z</time></trkpt><trkpt lat="45.0454839" lon="8.3085443"><ele>274.8</ele><time>2026-04-18T16:19:56.239Z</time></trkpt><trkpt lat="45.0454799" lon="8.3084085"><ele>276.0</ele><time>2026-04-18T16:19:57.238Z</time></trkpt><trkpt lat="45.0454512" lon="8.308292"><ele>276.0</ele><time>2026-04-18T16:19:58.239Z</time></trkpt><trkpt lat="45.045426" lon="8.3081879"><ele>276.0</ele><time>2026-04-18T16:19:59.238Z</time></trkpt><trkpt lat="45.045422" lon="8.308086"><ele>276.0</ele><time>2026-04-18T16:20:00.239Z</time></trkpt><trkpt lat="45.0454112" lon="8.3079745"><ele>276.0</ele><time>2026-04-18T16:20:01.238Z</time></trkpt><trkpt lat="45.045422" lon="8.3078245"><ele>276.0</ele><time>2026-04-18T16:20:02.238Z</time></trkpt><trkpt lat="45.0454556" lon="8.3076736"><ele>276.0</ele><time>2026-04-18T16:20:03.239Z</time></trkpt><trkpt lat="45.0454849" lon="8.3075034"><ele>277.5</ele><time>2026-04-18T16:20:04.238Z</time></trkpt><trkpt lat="45.0455087" lon="8.3073274"><ele>279.0</ele><time>2026-04-18T16:20:05.238Z</time></trkpt><trkpt lat="45.0455338" lon="8.3071517"><ele>280.5</ele><time>2026-04-18T16:20:06.238Z</time></trkpt><trkpt lat="45.0455681" lon="8.3069752"><ele>282.0</ele><time>2026-04-18T16:20:07.238Z</time></trkpt><trkpt lat="45.0456041" lon="8.3067915"><ele>282.25</ele><time>2026-04-18T16:20:08.239Z</time></trkpt><trkpt lat="45.0456158" lon="8.3066143"><ele>282.5</ele><time>2026-04-18T16:20:09.238Z</time></trkpt><trkpt lat="45.0456493" lon="8.3064236"><ele>282.75</ele><time>2026-04-18T16:20:10.238Z</time></trkpt><trkpt lat="45.0456885" lon="8.3062336"><ele>283.0</ele><time>2026-04-18T16:20:11.238Z</time></trkpt><trkpt lat="45.0457445" lon="8.3060592"><ele>282.0</ele><time>2026-04-18T16:20:12.238Z</time></trkpt><trkpt lat="45.0458079" lon="8.3058677"><ele>281.0</ele><time>2026-04-18T16:20:13.238Z</time></trkpt><trkpt lat="45.0458745" lon="8.3056892"><ele>280.0</ele><time>2026-04-18T16:20:14.238Z</time></trkpt><trkpt lat="45.0459489" lon="8.3054991"><ele>279.0</ele><time>2026-04-18T16:20:15.238Z</time></trkpt><trkpt lat="45.0460381" lon="8.3053069"><ele>277.0</ele><time>2026-04-18T16:20:16.238Z</time></trkpt><trkpt lat="45.0461044" lon="8.3051122"><ele>275.0</ele><time>2026-04-18T16:20:17.239Z</time></trkpt><trkpt lat="45.046181" lon="8.3049266"><ele>273.0</ele><time>2026-04-18T16:20:18.239Z</time></trkpt><trkpt lat="45.0462676" lon="8.3047389"><ele>271.0</ele><time>2026-04-18T16:20:19.238Z</time></trkpt><trkpt lat="45.0463487" lon="8.3045448"><ele>269.0</ele><time>2026-04-18T16:20:20.238Z</time></trkpt><trkpt lat="45.0464256" lon="8.304357"><ele>267.0</ele><time>2026-04-18T16:20:21.238Z</time></trkpt><trkpt lat="45.0465064" lon="8.3041682"><ele>267.0</ele><time>2026-04-18T16:20:22.238Z</time></trkpt><trkpt lat="45.0465877" lon="8.3039853"><ele>267.0</ele><time>2026-04-18T16:20:23.238Z</time></trkpt><trkpt lat="45.0466719" lon="8.3037951"><ele>267.0</ele><time>2026-04-18T16:20:24.238Z</time></trkpt><trkpt lat="45.0467444" lon="8.3036044"><ele>265.3333333333333</ele><time>2026-04-18T16:20:25.238Z</time></trkpt><trkpt lat="45.0468173" lon="8.3034206"><ele>263.66666666666663</ele><time>2026-04-18T16:20:26.239Z</time></trkpt><trkpt lat="45.0468869" lon="8.3032293"><ele>262.0</ele><time>2026-04-18T16:20:27.238Z</time></trkpt><trkpt lat="45.0469535" lon="8.3030382"><ele>260.66666666666663</ele><time>2026-04-18T16:20:28.239Z</time></trkpt><trkpt lat="45.0470098" lon="8.3028206"><ele>259.3333333333333</ele><time>2026-04-18T16:20:29.238Z</time></trkpt><trkpt lat="45.0470633" lon="8.3025688"><ele>258.0</ele><time>2026-04-18T16:20:30.238Z</time></trkpt><trkpt lat="45.0470847" lon="8.3023645"><ele>258.3333333333333</ele><time>2026-04-18T16:20:31.238Z</time></trkpt><trkpt lat="45.0471235" lon="8.3021516"><ele>258.66666666666663</ele><time>2026-04-18T16:20:32.238Z</time></trkpt><trkpt lat="45.0471624" lon="8.3019414"><ele>259.0</ele><time>2026-04-18T16:20:33.239Z</time></trkpt><trkpt lat="45.0472155" lon="8.3017124"><ele>259.0</ele><time>2026-04-18T16:20:34.238Z</time></trkpt><trkpt lat="45.0472499" lon="8.3014884"><ele>259.0</ele><time>2026-04-18T16:20:35.238Z</time></trkpt><trkpt lat="45.0472914" lon="8.3012841"><ele>259.0</ele><time>2026-04-18T16:20:36.238Z</time></trkpt><trkpt lat="45.0473389" lon="8.3010783"><ele>258.75</ele><time>2026-04-18T16:20:37.239Z</time></trkpt><trkpt lat="45.0473793" lon="8.3008885"><ele>258.5</ele><time>2026-04-18T16:20:38.239Z</time></trkpt><trkpt lat="45.0474237" lon="8.3007047"><ele>258.25</ele><time>2026-04-18T16:20:39.238Z</time></trkpt><trkpt lat="45.0474674" lon="8.3005198"><ele>258.0</ele><time>2026-04-18T16:20:40.238Z</time></trkpt><trkpt lat="45.0475069" lon="8.3003338"><ele>257.75</ele><time>2026-04-18T16:20:41.238Z</time></trkpt><trkpt lat="45.0475556" lon="8.3001465"><ele>257.5</ele><time>2026-04-18T16:20:42.238Z</time></trkpt><trkpt lat="45.047603" lon="8.2999416"><ele>257.25</ele><time>2026-04-18T16:20:43.239Z</time></trkpt><trkpt lat="45.0476554" lon="8.2997575"><ele>257.0</ele><time>2026-04-18T16:20:44.238Z</time></trkpt><trkpt lat="45.047712" lon="8.2995797"><ele>257.5</ele><time>2026-04-18T16:20:45.238Z</time></trkpt><trkpt lat="45.0477612" lon="8.299398"><ele>258.0</ele><time>2026-04-18T16:20:46.238Z</time></trkpt><trkpt lat="45.0477996" lon="8.2992381"><ele>258.5</ele><time>2026-04-18T16:20:47.238Z</time></trkpt><trkpt lat="45.0478336" lon="8.2990839"><ele>259.0</ele><time>2026-04-18T16:20:48.238Z</time></trkpt><trkpt lat="45.0478385" lon="8.2989128"><ele>259.0</ele><time>2026-04-18T16:20:49.238Z</time></trkpt><trkpt lat="45.0478264" lon="8.2987334"><ele>259.0</ele><time>2026-04-18T16:20:50.238Z</time></trkpt><trkpt lat="45.0477935" lon="8.2985322"><ele>259.0</ele><time>2026-04-18T16:20:51.239Z</time></trkpt><trkpt lat="45.0477589" lon="8.2983412"><ele>259.0</ele><time>2026-04-18T16:20:52.239Z</time></trkpt><trkpt lat="45.0477072" lon="8.2981527"><ele>255.66666666666666</ele><time>2026-04-18T16:20:53.238Z</time></trkpt><trkpt lat="45.047644" lon="8.2979576"><ele>252.33333333333331</ele><time>2026-04-18T16:20:54.238Z</time></trkpt><trkpt lat="45.0476009" lon="8.2977445"><ele>249.0</ele><time>2026-04-18T16:20:55.238Z</time></trkpt><trkpt lat="45.0475575" lon="8.2974976"><ele>249.0</ele><time>2026-04-18T16:20:56.238Z</time></trkpt><trkpt lat="45.0475217" lon="8.2972844"><ele>249.0</ele><time>2026-04-18T16:20:57.239Z</time></trkpt><trkpt lat="45.0474898" lon="8.2970637"><ele>249.0</ele><time>2026-04-18T16:20:58.238Z</time></trkpt><trkpt lat="45.0474712" lon="8.2968438"><ele>250.75</ele><time>2026-04-18T16:20:59.238Z</time></trkpt><trkpt lat="45.0474446" lon="8.2966438"><ele>252.5</ele><time>2026-04-18T16:21:00.239Z</time></trkpt><trkpt lat="45.0473859" lon="8.2964494"><ele>254.25</ele><time>2026-04-18T16:21:01.238Z</time></trkpt><trkpt lat="45.0473534" lon="8.296249"><ele>256.0</ele><time>2026-04-18T16:21:02.238Z</time></trkpt><trkpt lat="45.0473433" lon="8.2960418"><ele>256.0</ele><time>2026-04-18T16:21:03.238Z</time></trkpt><trkpt lat="45.0473232" lon="8.2958411"><ele>256.0</ele><time>2026-04-18T16:21:04.238Z</time></trkpt><trkpt lat="45.0473338" lon="8.2956916"><ele>256.0</ele><time>2026-04-18T16:21:05.238Z</time></trkpt><trkpt lat="45.0473243" lon="8.2955215"><ele>256.0</ele><time>2026-04-18T16:21:06.238Z</time></trkpt><trkpt lat="45.0473521" lon="8.2953726"><ele>256.25</ele><time>2026-04-18T16:21:07.238Z</time></trkpt><trkpt lat="45.0474056" lon="8.2952069"><ele>256.5</ele><time>2026-04-18T16:21:08.239Z</time></trkpt><trkpt lat="45.0474853" lon="8.2950807"><ele>256.75</ele><time>2026-04-18T16:21:09.239Z</time></trkpt><trkpt lat="45.0476253" lon="8.2950361"><ele>257.0</ele><time>2026-04-18T16:21:10.239Z</time></trkpt><trkpt lat="45.0477566" lon="8.2949913"><ele>253.0</ele><time>2026-04-18T16:21:11.238Z</time></trkpt><trkpt lat="45.0478863" lon="8.2950113"><ele>249.0</ele><time>2026-04-18T16:21:12.239Z</time></trkpt><trkpt lat="45.0479984" lon="8.2950809"><ele>245.0</ele><time>2026-04-18T16:21:13.238Z</time></trkpt><trkpt lat="45.0481004" lon="8.2951971"><ele>241.0</ele><time>2026-04-18T16:21:14.238Z</time></trkpt><trkpt lat="45.0481792" lon="8.2953294"><ele>241.0</ele><time>2026-04-18T16:21:15.238Z</time></trkpt><trkpt lat="45.0482452" lon="8.2954737"><ele>241.0</ele><time>2026-04-18T16:21:16.239Z</time></trkpt><trkpt lat="45.0482479" lon="8.295649"><ele>241.0</ele><time>2026-04-18T16:21:17.239Z</time></trkpt><trkpt lat="45.0482692" lon="8.2958196"><ele>241.0</ele><time>2026-04-18T16:21:18.239Z</time></trkpt><trkpt lat="45.0483117" lon="8.2959786"><ele>238.75</ele><time>2026-04-18T16:21:19.238Z</time></trkpt><trkpt lat="45.0483767" lon="8.2961266"><ele>236.5</ele><time>2026-04-18T16:21:20.238Z</time></trkpt><trkpt lat="45.0484486" lon="8.2962446"><ele>234.25</ele><time>2026-04-18T16:21:21.239Z</time></trkpt><trkpt lat="45.0485601" lon="8.2963462"><ele>232.0</ele><time>2026-04-18T16:21:22.238Z</time></trkpt><trkpt lat="45.0486448" lon="8.2964085"><ele>232.0</ele><time>2026-04-18T16:21:23.238Z</time></trkpt><trkpt lat="45.048753" lon="8.2964263"><ele>232.0</ele><time>2026-04-18T16:21:24.239Z</time></trkpt><trkpt lat="45.0489137" lon="8.2964117"><ele>232.0</ele><time>2026-04-18T16:21:25.238Z</time></trkpt><trkpt lat="45.0490389" lon="8.296421"><ele>232.0</ele><time>2026-04-18T16:21:26.238Z</time></trkpt><trkpt lat="45.0491901" lon="8.2964106"><ele>231.0</ele><time>2026-04-18T16:21:27.238Z</time></trkpt><trkpt lat="45.0493402" lon="8.2964022"><ele>230.0</ele><time>2026-04-18T16:21:28.238Z</time></trkpt><trkpt lat="45.0494932" lon="8.2963975"><ele>229.0</ele><time>2026-04-18T16:21:29.238Z</time></trkpt><trkpt lat="45.0496452" lon="8.2963888"><ele>229.0</ele><time>2026-04-18T16:21:30.238Z</time></trkpt><trkpt lat="45.0498034" lon="8.2963792"><ele>229.0</ele><time>2026-04-18T16:21:31.238Z</time></trkpt><trkpt lat="45.0499576" lon="8.2963648"><ele>229.0</ele><time>2026-04-18T16:21:32.238Z</time></trkpt><trkpt lat="45.0501231" lon="8.2963159"><ele>227.33333333333331</ele><time>2026-04-18T16:21:33.238Z</time></trkpt><trkpt lat="45.0502528" lon="8.296294"><ele>225.66666666666669</ele><time>2026-04-18T16:21:34.238Z</time></trkpt><trkpt lat="45.0504041" lon="8.2962095"><ele>224.0</ele><time>2026-04-18T16:21:35.238Z</time></trkpt><trkpt lat="45.050582" lon="8.2961163"><ele>224.0</ele><time>2026-04-18T16:21:36.238Z</time></trkpt><trkpt lat="45.0507382" lon="8.2960345"><ele>224.0</ele><time>2026-04-18T16:21:37.239Z</time></trkpt><trkpt lat="45.0508691" lon="8.2959621"><ele>224.0</ele><time>2026-04-18T16:21:38.239Z</time></trkpt><trkpt lat="45.0509934" lon="8.2958739"><ele>224.0</ele><time>2026-04-18T16:21:39.239Z</time></trkpt><trkpt lat="45.0511408" lon="8.2957807"><ele>224.5</ele><time>2026-04-18T16:21:40.239Z</time></trkpt><trkpt lat="45.0512745" lon="8.2956998"><ele>225.0</ele><time>2026-04-18T16:21:41.239Z</time></trkpt><trkpt lat="45.05141" lon="8.2956024"><ele>225.5</ele><time>2026-04-18T16:21:42.238Z</time></trkpt><trkpt lat="45.051547" lon="8.2955115"><ele>226.0</ele><time>2026-04-18T16:21:43.238Z</time></trkpt><trkpt lat="45.0516857" lon="8.2954039"><ele>223.66666666666666</ele><time>2026-04-18T16:21:44.238Z</time></trkpt><trkpt lat="45.0518227" lon="8.2952941"><ele>221.33333333333331</ele><time>2026-04-18T16:21:45.238Z</time></trkpt><trkpt lat="45.0519646" lon="8.2951673"><ele>219.0</ele><time>2026-04-18T16:21:46.238Z</time></trkpt><trkpt lat="45.0521156" lon="8.2950908"><ele>219.0</ele><time>2026-04-18T16:21:47.238Z</time></trkpt><trkpt lat="45.0522553" lon="8.2950385"><ele>219.0</ele><time>2026-04-18T16:21:48.238Z</time></trkpt><trkpt lat="45.0523944" lon="8.2949406"><ele>219.0</ele><time>2026-04-18T16:21:49.238Z</time></trkpt><trkpt lat="45.052544" lon="8.2948472"><ele>218.0</ele><time>2026-04-18T16:21:50.238Z</time></trkpt><trkpt lat="45.0526664" lon="8.2946971"><ele>217.0</ele><time>2026-04-18T16:21:51.239Z</time></trkpt><trkpt lat="45.0527691" lon="8.2945625"><ele>216.0</ele><time>2026-04-18T16:21:52.238Z</time></trkpt><trkpt lat="45.0528754" lon="8.2943785"><ele>216.0</ele><time>2026-04-18T16:21:53.238Z</time></trkpt><trkpt lat="45.0529803" lon="8.2941831"><ele>216.0</ele><time>2026-04-18T16:21:54.238Z</time></trkpt><trkpt lat="45.0530704" lon="8.2939887"><ele>216.0</ele><time>2026-04-18T16:21:55.238Z</time></trkpt><trkpt lat="45.0531593" lon="8.2937975"><ele>216.0</ele><time>2026-04-18T16:21:56.238Z</time></trkpt><trkpt lat="45.0532499" lon="8.2936102"><ele>216.0</ele><time>2026-04-18T16:21:57.239Z</time></trkpt><trkpt lat="45.0533371" lon="8.2934326"><ele>216.0</ele><time>2026-04-18T16:21:58.238Z</time></trkpt><trkpt lat="45.0534142" lon="8.2932556"><ele>214.5</ele><time>2026-04-18T16:21:59.238Z</time></trkpt><trkpt lat="45.0534741" lon="8.2930715"><ele>213.0</ele><time>2026-04-18T16:22:00.238Z</time></trkpt><trkpt lat="45.0535349" lon="8.2928876"><ele>211.5</ele><time>2026-04-18T16:22:01.238Z</time></trkpt><trkpt lat="45.0535643" lon="8.2926854"><ele>210.0</ele><time>2026-04-18T16:22:02.239Z</time></trkpt><trkpt lat="45.05355" lon="8.2924574"><ele>209.66666666666669</ele><time>2026-04-18T16:22:03.238Z</time></trkpt><trkpt lat="45.0535375" lon="8.2922401"><ele>209.33333333333334</ele><time>2026-04-18T16:22:04.238Z</time></trkpt><trkpt lat="45.0535477" lon="8.2920237"><ele>209.0</ele><time>2026-04-18T16:22:05.238Z</time></trkpt><trkpt lat="45.0535409" lon="8.291812"><ele>209.0</ele><time>2026-04-18T16:22:06.238Z</time></trkpt><trkpt lat="45.0535181" lon="8.2915633"><ele>209.0</ele><time>2026-04-18T16:22:07.238Z</time></trkpt><trkpt lat="45.0535059" lon="8.2913406"><ele>209.0</ele><time>2026-04-18T16:22:08.238Z</time></trkpt><trkpt lat="45.0534958" lon="8.2911"><ele>208.66666666666669</ele><time>2026-04-18T16:22:09.239Z</time></trkpt><trkpt lat="45.0535009" lon="8.2908855"><ele>208.33333333333331</ele><time>2026-04-18T16:22:10.238Z</time></trkpt><trkpt lat="45.0535004" lon="8.2906674"><ele>208.0</ele><time>2026-04-18T16:22:11.239Z</time></trkpt><trkpt lat="45.0534943" lon="8.2904374"><ele>207.33333333333331</ele><time>2026-04-18T16:22:12.238Z</time></trkpt><trkpt lat="45.053485" lon="8.2902072"><ele>206.66666666666669</ele><time>2026-04-18T16:22:13.238Z</time></trkpt><trkpt lat="45.0534811" lon="8.2899717"><ele>206.0</ele><time>2026-04-18T16:22:14.238Z</time></trkpt><trkpt lat="45.0534756" lon="8.2897499"><ele>204.66666666666669</ele><time>2026-04-18T16:22:15.238Z</time></trkpt><trkpt lat="45.0534677" lon="8.2895229"><ele>203.33333333333331</ele><time>2026-04-18T16:22:16.239Z</time></trkpt><trkpt lat="45.0534711" lon="8.2892872"><ele>202.0</ele><time>2026-04-18T16:22:17.238Z</time></trkpt><trkpt lat="45.0534727" lon="8.2890745"><ele>200.33333333333331</ele><time>2026-04-18T16:22:18.238Z</time></trkpt><trkpt lat="45.0534607" lon="8.2888467"><ele>198.66666666666669</ele><time>2026-04-18T16:22:19.238Z</time></trkpt><trkpt lat="45.0534541" lon="8.2886023"><ele>197.0</ele><time>2026-04-18T16:22:20.238Z</time></trkpt><trkpt lat="45.0534574" lon="8.2883884"><ele>197.0</ele><time>2026-04-18T16:22:21.238Z</time></trkpt><trkpt lat="45.0534853" lon="8.2881842"><ele>197.0</ele><time>2026-04-18T16:22:22.238Z</time></trkpt><trkpt lat="45.0534989" lon="8.2879466"><ele>197.0</ele><time>2026-04-18T16:22:23.238Z</time></trkpt><trkpt lat="45.0535142" lon="8.2876924"><ele>196.33333333333334</ele><time>2026-04-18T16:22:24.238Z</time></trkpt><trkpt lat="45.0535153" lon="8.2874633"><ele>195.66666666666669</ele><time>2026-04-18T16:22:25.238Z</time></trkpt><trkpt lat="45.0535358" lon="8.2872429"><ele>195.0</ele><time>2026-04-18T16:22:26.239Z</time></trkpt><trkpt lat="45.0535465" lon="8.2870358"><ele>194.66666666666669</ele><time>2026-04-18T16:22:27.238Z</time></trkpt><trkpt lat="45.0535596" lon="8.2868081"><ele>194.33333333333334</ele><time>2026-04-18T16:22:28.238Z</time></trkpt><trkpt lat="45.0535837" lon="8.2865758"><ele>194.0</ele><time>2026-04-18T16:22:29.238Z</time></trkpt><trkpt lat="45.0535985" lon="8.2863625"><ele>193.0</ele><time>2026-04-18T16:22:30.239Z</time></trkpt><trkpt lat="45.0536226" lon="8.2861577"><ele>192.0</ele><time>2026-04-18T16:22:31.238Z</time></trkpt><trkpt lat="45.0536343" lon="8.2859377"><ele>191.0</ele><time>2026-04-18T16:22:32.238Z</time></trkpt><trkpt lat="45.0536571" lon="8.28572"><ele>190.5</ele><time>2026-04-18T16:22:33.238Z</time></trkpt><trkpt lat="45.0536826" lon="8.2855097"><ele>190.0</ele><time>2026-04-18T16:22:34.239Z</time></trkpt><trkpt lat="45.0536958" lon="8.2853037"><ele>189.5</ele><time>2026-04-18T16:22:35.238Z</time></trkpt><trkpt lat="45.0537328" lon="8.2850945"><ele>189.0</ele><time>2026-04-18T16:22:36.238Z</time></trkpt><trkpt lat="45.0537879" lon="8.2848696"><ele>189.0</ele><time>2026-04-18T16:22:37.239Z</time></trkpt><trkpt lat="45.0538594" lon="8.2846824"><ele>189.0</ele><time>2026-04-18T16:22:38.238Z</time></trkpt><trkpt lat="45.0539292" lon="8.2844973"><ele>189.0</ele><time>2026-04-18T16:22:39.238Z</time></trkpt><trkpt lat="45.0540119" lon="8.2843036"><ele>189.0</ele><time>2026-04-18T16:22:40.239Z</time></trkpt><trkpt lat="45.0541044" lon="8.2841449"><ele>189.0</ele><time>2026-04-18T16:22:41.239Z</time></trkpt><trkpt lat="45.0542029" lon="8.2839719"><ele>189.0</ele><time>2026-04-18T16:22:42.238Z</time></trkpt><trkpt lat="45.0542948" lon="8.2837968"><ele>190.0</ele><time>2026-04-18T16:22:43.239Z</time></trkpt><trkpt lat="45.0543949" lon="8.2836096"><ele>191.0</ele><time>2026-04-18T16:22:44.238Z</time></trkpt><trkpt lat="45.0544939" lon="8.2834419"><ele>192.0</ele><time>2026-04-18T16:22:45.238Z</time></trkpt><trkpt lat="45.0545929" lon="8.2832745"><ele>192.0</ele><time>2026-04-18T16:22:46.239Z</time></trkpt><trkpt lat="45.0546874" lon="8.2831119"><ele>192.0</ele><time>2026-04-18T16:22:47.239Z</time></trkpt><trkpt lat="45.0547796" lon="8.2829397"><ele>192.0</ele><time>2026-04-18T16:22:48.239Z</time></trkpt><trkpt lat="45.0548759" lon="8.2827767"><ele>190.0</ele><time>2026-04-18T16:22:49.239Z</time></trkpt><trkpt lat="45.0549664" lon="8.2826089"><ele>188.0</ele><time>2026-04-18T16:22:50.238Z</time></trkpt><trkpt lat="45.0550545" lon="8.2824477"><ele>186.0</ele><time>2026-04-18T16:22:51.238Z</time></trkpt><trkpt lat="45.0551517" lon="8.2822914"><ele>184.0</ele><time>2026-04-18T16:22:52.239Z</time></trkpt><trkpt lat="45.0552423" lon="8.2821227"><ele>184.0</ele><time>2026-04-18T16:22:53.239Z</time></trkpt><trkpt lat="45.0553385" lon="8.2819539"><ele>184.0</ele><time>2026-04-18T16:22:54.239Z</time></trkpt><trkpt lat="45.0554265" lon="8.2817867"><ele>184.0</ele><time>2026-04-18T16:22:55.238Z</time></trkpt><trkpt lat="45.0555195" lon="8.2816235"><ele>184.0</ele><time>2026-04-18T16:22:56.238Z</time></trkpt><trkpt lat="45.0556071" lon="8.2814675"><ele>184.0</ele><time>2026-04-18T16:22:57.238Z</time></trkpt><trkpt lat="45.0556954" lon="8.281308"><ele>184.0</ele><time>2026-04-18T16:22:58.239Z</time></trkpt><trkpt lat="45.0557805" lon="8.2811569"><ele>184.0</ele><time>2026-04-18T16:22:59.238Z</time></trkpt><trkpt lat="45.055861" lon="8.2810194"><ele>184.0</ele><time>2026-04-18T16:23:00.238Z</time></trkpt><trkpt lat="45.0559376" lon="8.2808832"><ele>183.83333333333334</ele><time>2026-04-18T16:23:01.238Z</time></trkpt><trkpt lat="45.0560113" lon="8.2807641"><ele>183.66666666666669</ele><time>2026-04-18T16:23:02.238Z</time></trkpt><trkpt lat="45.0560558" lon="8.2806934"><ele>183.5</ele><time>2026-04-18T16:23:03.238Z</time></trkpt><trkpt lat="45.0561261" lon="8.2805851"><ele>183.33333333333334</ele><time>2026-04-18T16:23:05.238Z</time></trkpt><trkpt lat="45.0561361" lon="8.280492"><ele>183.16666666666666</ele><time>2026-04-18T16:25:04.238Z</time></trkpt><trkpt lat="45.0561237" lon="8.2803825"><ele>183.0</ele><time>2026-04-18T16:25:08.238Z</time></trkpt><trkpt lat="45.0561239" lon="8.2802573"><ele>183.0</ele><time>2026-04-18T16:25:54.238Z</time></trkpt><trkpt lat="45.0560819" lon="8.2801849"><ele>183.0</ele><time>2026-04-18T16:28:35.238Z</time></trkpt><trkpt lat="45.0560582" lon="8.2802889"><ele>183.0</ele><time>2026-04-18T16:29:09.238Z</time></trkpt><trkpt lat="45.0560341" lon="8.2803986"><ele>183.0</ele><time>2026-04-18T16:29:12.238Z</time></trkpt><trkpt lat="45.0560505" lon="8.2805003"><ele>183.0</ele><time>2026-04-18T16:29:15.238Z</time></trkpt><trkpt lat="45.0561282" lon="8.2805302"><ele>183.0</ele><time>2026-04-18T16:29:24.238Z</time></trkpt><trkpt lat="45.0561859" lon="8.280475"><ele>183.0</ele><time>2026-04-18T16:29:25.238Z</time></trkpt><trkpt lat="45.0562654" lon="8.2803269"><ele>183.0</ele><time>2026-04-18T16:29:27.238Z</time></trkpt><trkpt lat="45.0563125" lon="8.2802351"><ele>183.0</ele><time>2026-04-18T16:29:28.238Z</time></trkpt><trkpt lat="45.0563628" lon="8.2801443"><ele>183.0</ele><time>2026-04-18T16:29:29.239Z</time></trkpt><trkpt lat="45.0564116" lon="8.2800396"><ele>183.0</ele><time>2026-04-18T16:29:30.238Z</time></trkpt><trkpt lat="45.0564784" lon="8.2799213"><ele>183.0</ele><time>2026-04-18T16:29:31.239Z</time></trkpt><trkpt lat="45.0565505" lon="8.2797883"><ele>182.75</ele><time>2026-04-18T16:29:32.238Z</time></trkpt><trkpt lat="45.0566264" lon="8.2796531"><ele>182.5</ele><time>2026-04-18T16:29:33.238Z</time></trkpt><trkpt lat="45.056708" lon="8.2795108"><ele>182.25</ele><time>2026-04-18T16:29:34.239Z</time></trkpt><trkpt lat="45.0567864" lon="8.2793609"><ele>182.0</ele><time>2026-04-18T16:29:35.234Z</time></trkpt><trkpt lat="45.0568703" lon="8.2792046"><ele>182.0</ele><time>2026-04-18T16:29:36.239Z</time></trkpt><trkpt lat="45.0569657" lon="8.2790493"><ele>182.0</ele><time>2026-04-18T16:29:37.238Z</time></trkpt><trkpt lat="45.0570497" lon="8.2788969"><ele>182.0</ele><time>2026-04-18T16:29:38.238Z</time></trkpt><trkpt lat="45.057137" lon="8.2787522"><ele>182.0</ele><time>2026-04-18T16:29:39.238Z</time></trkpt><trkpt lat="45.0572019" lon="8.2786328"><ele>181.8</ele><time>2026-04-18T16:29:40.238Z</time></trkpt><trkpt lat="45.0572718" lon="8.2785146"><ele>181.6</ele><time>2026-04-18T16:29:41.238Z</time></trkpt><trkpt lat="45.0573392" lon="8.2783978"><ele>181.4</ele><time>2026-04-18T16:29:42.238Z</time></trkpt><trkpt lat="45.0573891" lon="8.2782953"><ele>181.20000000000002</ele><time>2026-04-18T16:29:43.238Z</time></trkpt><trkpt lat="45.057448" lon="8.2781883"><ele>181.0</ele><time>2026-04-18T16:29:44.239Z</time></trkpt><trkpt lat="45.0575021" lon="8.2780787"><ele>180.83333333333334</ele><time>2026-04-18T16:29:45.238Z</time></trkpt><trkpt lat="45.0575507" lon="8.277987"><ele>180.66666666666669</ele><time>2026-04-18T16:29:46.238Z</time></trkpt><trkpt lat="45.0575979" lon="8.2779096"><ele>180.5</ele><time>2026-04-18T16:29:47.238Z</time></trkpt><trkpt lat="45.0576498" lon="8.2778211"><ele>180.33333333333334</ele><time>2026-04-18T16:29:48.238Z</time></trkpt><trkpt lat="45.057697" lon="8.2777395"><ele>180.16666666666666</ele><time>2026-04-18T16:29:49.238Z</time></trkpt><trkpt lat="45.0577476" lon="8.2776633"><ele>180.0</ele><time>2026-04-18T16:29:50.238Z</time></trkpt><trkpt lat="45.057794" lon="8.2775846"><ele>180.0</ele><time>2026-04-18T16:29:51.238Z</time></trkpt><trkpt lat="45.0578466" lon="8.277499"><ele>180.0</ele><time>2026-04-18T16:29:52.238Z</time></trkpt><trkpt lat="45.0579015" lon="8.2774141"><ele>180.0</ele><time>2026-04-18T16:29:53.239Z</time></trkpt><trkpt lat="45.0579695" lon="8.2772978"><ele>180.0</ele><time>2026-04-18T16:29:54.238Z</time></trkpt><trkpt lat="45.0580236" lon="8.2771966"><ele>180.0</ele><time>2026-04-18T16:29:55.238Z</time></trkpt><trkpt lat="45.0580899" lon="8.2770982"><ele>180.0</ele><time>2026-04-18T16:29:56.238Z</time></trkpt><trkpt lat="45.058123" lon="8.2769551"><ele>180.0</ele><time>2026-04-18T16:29:58.238Z</time></trkpt><trkpt lat="45.0581474" lon="8.2767909"><ele>180.0</ele><time>2026-04-18T16:30:00.238Z</time></trkpt><trkpt lat="45.058121" lon="8.2764804"><ele>180.0</ele><time>2026-04-18T16:30:02.239Z</time></trkpt><trkpt lat="45.0581223" lon="8.2763298"><ele>180.0</ele><time>2026-04-18T16:30:03.238Z</time></trkpt><trkpt lat="45.0581194" lon="8.2761597"><ele>180.0</ele><time>2026-04-18T16:30:04.238Z</time></trkpt><trkpt lat="45.0581813" lon="8.2759669"><ele>180.0</ele><time>2026-04-18T16:30:05.238Z</time></trkpt><trkpt lat="45.0582275" lon="8.2757949"><ele>180.0</ele><time>2026-04-18T16:30:06.239Z</time></trkpt><trkpt lat="45.0582841" lon="8.2756126"><ele>180.5</ele><time>2026-04-18T16:30:07.239Z</time></trkpt><trkpt lat="45.0583438" lon="8.2754446"><ele>181.0</ele><time>2026-04-18T16:30:08.238Z</time></trkpt><trkpt lat="45.0583988" lon="8.2752541"><ele>181.5</ele><time>2026-04-18T16:30:09.239Z</time></trkpt><trkpt lat="45.0584549" lon="8.2750508"><ele>182.0</ele><time>2026-04-18T16:30:10.238Z</time></trkpt><trkpt lat="45.0585177" lon="8.2748594"><ele>183.0</ele><time>2026-04-18T16:30:11.238Z</time></trkpt><trkpt lat="45.0585637" lon="8.274666"><ele>184.0</ele><time>2026-04-18T16:30:12.238Z</time></trkpt><trkpt lat="45.0586177" lon="8.2744721"><ele>185.0</ele><time>2026-04-18T16:30:13.239Z</time></trkpt><trkpt lat="45.0586752" lon="8.2742766"><ele>186.0</ele><time>2026-04-18T16:30:14.238Z</time></trkpt><trkpt lat="45.058741" lon="8.2740874"><ele>188.0</ele><time>2026-04-18T16:30:15.238Z</time></trkpt><trkpt lat="45.0588002" lon="8.2738802"><ele>190.0</ele><time>2026-04-18T16:30:16.239Z</time></trkpt><trkpt lat="45.0588566" lon="8.2736725"><ele>192.0</ele><time>2026-04-18T16:30:17.238Z</time></trkpt><trkpt lat="45.0589252" lon="8.2734622"><ele>192.0</ele><time>2026-04-18T16:30:18.238Z</time></trkpt><trkpt lat="45.0589847" lon="8.273261"><ele>192.0</ele><time>2026-04-18T16:30:19.239Z</time></trkpt><trkpt lat="45.0590445" lon="8.2730604"><ele>192.0</ele><time>2026-04-18T16:30:20.238Z</time></trkpt><trkpt lat="45.0591019" lon="8.2728596"><ele>190.66666666666666</ele><time>2026-04-18T16:30:21.239Z</time></trkpt><trkpt lat="45.0591641" lon="8.2726456"><ele>189.33333333333331</ele><time>2026-04-18T16:30:22.238Z</time></trkpt><trkpt lat="45.059224" lon="8.272426"><ele>188.0</ele><time>2026-04-18T16:30:23.239Z</time></trkpt><trkpt lat="45.0592767" lon="8.2722172"><ele>188.0</ele><time>2026-04-18T16:30:24.239Z</time></trkpt><trkpt lat="45.0593362" lon="8.2720094"><ele>188.0</ele><time>2026-04-18T16:30:25.239Z</time></trkpt><trkpt lat="45.0593759" lon="8.2717923"><ele>188.0</ele><time>2026-04-18T16:30:26.238Z</time></trkpt><trkpt lat="45.0594333" lon="8.2715756"><ele>188.33333333333331</ele><time>2026-04-18T16:30:27.239Z</time></trkpt><trkpt lat="45.0594969" lon="8.2713465"><ele>188.66666666666666</ele><time>2026-04-18T16:30:28.238Z</time></trkpt><trkpt lat="45.0595513" lon="8.2711168"><ele>189.0</ele><time>2026-04-18T16:30:29.238Z</time></trkpt><trkpt lat="45.0596058" lon="8.2708855"><ele>189.0</ele><time>2026-04-18T16:30:30.238Z</time></trkpt><trkpt lat="45.0596617" lon="8.2706499"><ele>189.0</ele><time>2026-04-18T16:30:31.238Z</time></trkpt><trkpt lat="45.0597079" lon="8.2704256"><ele>189.0</ele><time>2026-04-18T16:30:32.239Z</time></trkpt><trkpt lat="45.0597498" lon="8.2701772"><ele>189.66666666666666</ele><time>2026-04-18T16:30:33.238Z</time></trkpt><trkpt lat="45.0597687" lon="8.2699544"><ele>190.33333333333331</ele><time>2026-04-18T16:30:34.238Z</time></trkpt><trkpt lat="45.0597836" lon="8.2697185"><ele>191.0</ele><time>2026-04-18T16:30:35.238Z</time></trkpt><trkpt lat="45.0597956" lon="8.2694745"><ele>191.33333333333331</ele><time>2026-04-18T16:30:36.238Z</time></trkpt><trkpt lat="45.0598063" lon="8.2692364"><ele>191.66666666666666</ele><time>2026-04-18T16:30:37.239Z</time></trkpt><trkpt lat="45.0598234" lon="8.2690021"><ele>192.0</ele><time>2026-04-18T16:30:38.239Z</time></trkpt><trkpt lat="45.0598237" lon="8.2687745"><ele>192.33333333333331</ele><time>2026-04-18T16:30:39.238Z</time></trkpt><trkpt lat="45.0598247" lon="8.2685308"><ele>192.66666666666666</ele><time>2026-04-18T16:30:40.238Z</time></trkpt><trkpt lat="45.0598251" lon="8.2682915"><ele>193.0</ele><time>2026-04-18T16:30:41.238Z</time></trkpt><trkpt lat="45.0598129" lon="8.2680641"><ele>194.33333333333331</ele><time>2026-04-18T16:30:42.238Z</time></trkpt><trkpt lat="45.0597948" lon="8.2678339"><ele>195.66666666666669</ele><time>2026-04-18T16:30:43.239Z</time></trkpt><trkpt lat="45.0597767" lon="8.2675935"><ele>197.0</ele><time>2026-04-18T16:30:44.238Z</time></trkpt><trkpt lat="45.0597648" lon="8.2673551"><ele>197.0</ele><time>2026-04-18T16:30:45.239Z</time></trkpt><trkpt lat="45.0597513" lon="8.2671139"><ele>197.0</ele><time>2026-04-18T16:30:46.238Z</time></trkpt><trkpt lat="45.059744" lon="8.2668651"><ele>197.0</ele><time>2026-04-18T16:30:47.239Z</time></trkpt><trkpt lat="45.0597243" lon="8.2666343"><ele>196.66666666666669</ele><time>2026-04-18T16:30:48.238Z</time></trkpt><trkpt lat="45.0597001" lon="8.266398"><ele>196.33333333333331</ele><time>2026-04-18T16:30:49.238Z</time></trkpt><trkpt lat="45.0596833" lon="8.2661609"><ele>196.0</ele><time>2026-04-18T16:30:50.239Z</time></trkpt><trkpt lat="45.0596634" lon="8.2659376"><ele>196.0</ele><time>2026-04-18T16:30:51.238Z</time></trkpt><trkpt lat="45.0596543" lon="8.2656887"><ele>196.0</ele><time>2026-04-18T16:30:52.239Z</time></trkpt><trkpt lat="45.0596408" lon="8.2654543"><ele>196.0</ele><time>2026-04-18T16:30:53.239Z</time></trkpt><trkpt lat="45.0595985" lon="8.2652122"><ele>195.66666666666666</ele><time>2026-04-18T16:30:54.239Z</time></trkpt><trkpt lat="45.059567" lon="8.2649902"><ele>195.33333333333331</ele><time>2026-04-18T16:30:55.238Z</time></trkpt><trkpt lat="45.0595241" lon="8.2647621"><ele>195.0</ele><time>2026-04-18T16:30:56.238Z</time></trkpt><trkpt lat="45.0594797" lon="8.2645476"><ele>195.0</ele><time>2026-04-18T16:30:57.238Z</time></trkpt><trkpt lat="45.059432" lon="8.2643333"><ele>195.0</ele><time>2026-04-18T16:30:58.238Z</time></trkpt><trkpt lat="45.0593833" lon="8.2641218"><ele>195.0</ele><time>2026-04-18T16:30:59.238Z</time></trkpt><trkpt lat="45.0593444" lon="8.2639167"><ele>194.25</ele><time>2026-04-18T16:31:00.239Z</time></trkpt><trkpt lat="45.0593116" lon="8.2637029"><ele>193.5</ele><time>2026-04-18T16:31:01.238Z</time></trkpt><trkpt lat="45.0592889" lon="8.2635093"><ele>192.75</ele><time>2026-04-18T16:31:02.238Z</time></trkpt><trkpt lat="45.0592639" lon="8.2632971"><ele>192.0</ele><time>2026-04-18T16:31:03.239Z</time></trkpt><trkpt lat="45.0592608" lon="8.2630752"><ele>191.66666666666666</ele><time>2026-04-18T16:31:04.239Z</time></trkpt><trkpt lat="45.0592509" lon="8.2628558"><ele>191.33333333333331</ele><time>2026-04-18T16:31:05.238Z</time></trkpt><trkpt lat="45.0592124" lon="8.2626028"><ele>191.0</ele><time>2026-04-18T16:31:06.238Z</time></trkpt><trkpt lat="45.0592175" lon="8.2623876"><ele>191.0</ele><time>2026-04-18T16:31:07.238Z</time></trkpt><trkpt lat="45.0592218" lon="8.2621919"><ele>191.0</ele><time>2026-04-18T16:31:08.238Z</time></trkpt><trkpt lat="45.0592313" lon="8.2619931"><ele>191.0</ele><time>2026-04-18T16:31:09.238Z</time></trkpt><trkpt lat="45.0592471" lon="8.2617871"><ele>191.0</ele><time>2026-04-18T16:31:10.238Z</time></trkpt><trkpt lat="45.0592584" lon="8.2615901"><ele>191.25</ele><time>2026-04-18T16:31:11.238Z</time></trkpt><trkpt lat="45.0592782" lon="8.2614033"><ele>191.5</ele><time>2026-04-18T16:31:12.238Z</time></trkpt><trkpt lat="45.0592945" lon="8.2612225"><ele>191.75</ele><time>2026-04-18T16:31:13.238Z</time></trkpt><trkpt lat="45.059313" lon="8.261028"><ele>192.0</ele><time>2026-04-18T16:31:14.238Z</time></trkpt><trkpt lat="45.0593197" lon="8.2608577"><ele>192.0</ele><time>2026-04-18T16:31:15.239Z</time></trkpt><trkpt lat="45.0593338" lon="8.2607057"><ele>192.0</ele><time>2026-04-18T16:31:16.238Z</time></trkpt><trkpt lat="45.0593428" lon="8.2605584"><ele>192.0</ele><time>2026-04-18T16:31:17.238Z</time></trkpt><trkpt lat="45.0593652" lon="8.2604356"><ele>192.0</ele><time>2026-04-18T16:31:18.238Z</time></trkpt><trkpt lat="45.0593787" lon="8.2602665"><ele>192.0</ele><time>2026-04-18T16:31:19.239Z</time></trkpt><trkpt lat="45.0593721" lon="8.2601698"><ele>192.2</ele><time>2026-04-18T16:31:20.238Z</time></trkpt><trkpt lat="45.0593585" lon="8.2600715"><ele>192.39999999999998</ele><time>2026-04-18T16:31:21.238Z</time></trkpt><trkpt lat="45.0593696" lon="8.2599778"><ele>192.60000000000002</ele><time>2026-04-18T16:31:22.238Z</time></trkpt><trkpt lat="45.0594521" lon="8.2598554"><ele>192.8</ele><time>2026-04-18T16:31:24.238Z</time></trkpt><trkpt lat="45.0595815" lon="8.2598516"><ele>193.0</ele><time>2026-04-18T16:31:26.238Z</time></trkpt><trkpt lat="45.0596792" lon="8.2598479"><ele>193.0</ele><time>2026-04-18T16:31:27.238Z</time></trkpt><trkpt lat="45.0597739" lon="8.2598717"><ele>193.0</ele><time>2026-04-18T16:31:28.238Z</time></trkpt><trkpt lat="45.0598606" lon="8.2598783"><ele>193.0</ele><time>2026-04-18T16:31:29.238Z</time></trkpt><trkpt lat="45.0599735" lon="8.2598953"><ele>193.0</ele><time>2026-04-18T16:31:30.238Z</time></trkpt><trkpt lat="45.0600604" lon="8.2598743"><ele>193.0</ele><time>2026-04-18T16:31:31.238Z</time></trkpt><trkpt lat="45.0601514" lon="8.2598694"><ele>192.25</ele><time>2026-04-18T16:31:32.238Z</time></trkpt><trkpt lat="45.0602781" lon="8.2598841"><ele>191.5</ele><time>2026-04-18T16:31:33.239Z</time></trkpt><trkpt lat="45.0604089" lon="8.259926"><ele>190.75</ele><time>2026-04-18T16:31:34.239Z</time></trkpt><trkpt lat="45.0605298" lon="8.2599353"><ele>190.0</ele><time>2026-04-18T16:31:35.239Z</time></trkpt><trkpt lat="45.0606571" lon="8.2599479"><ele>189.33333333333334</ele><time>2026-04-18T16:31:36.238Z</time></trkpt><trkpt lat="45.0608058" lon="8.2599595"><ele>188.66666666666666</ele><time>2026-04-18T16:31:37.239Z</time></trkpt><trkpt lat="45.0609778" lon="8.2599642"><ele>188.0</ele><time>2026-04-18T16:31:38.238Z</time></trkpt><trkpt lat="45.0611144" lon="8.2599992"><ele>188.0</ele><time>2026-04-18T16:31:39.239Z</time></trkpt><trkpt lat="45.0612242" lon="8.2600223"><ele>188.0</ele><time>2026-04-18T16:31:40.238Z</time></trkpt><trkpt lat="45.0613331" lon="8.2600423"><ele>188.0</ele><time>2026-04-18T16:31:41.238Z</time></trkpt><trkpt lat="45.0614337" lon="8.2600571"><ele>188.0</ele><time>2026-04-18T16:31:42.238Z</time></trkpt><trkpt lat="45.0615286" lon="8.2600846"><ele>188.0</ele><time>2026-04-18T16:31:43.238Z</time></trkpt><trkpt lat="45.0615973" lon="8.260061"><ele>187.75</ele><time>2026-04-18T16:31:44.239Z</time></trkpt><trkpt lat="45.0616336" lon="8.2598776"><ele>187.5</ele><time>2026-04-18T16:31:45.238Z</time></trkpt><trkpt lat="45.0616802" lon="8.259755"><ele>187.25</ele><time>2026-04-18T16:31:46.238Z</time></trkpt><trkpt lat="45.0617019" lon="8.2595776"><ele>187.0</ele><time>2026-04-18T16:31:47.239Z</time></trkpt><trkpt lat="45.0617289" lon="8.2593904"><ele>186.75</ele><time>2026-04-18T16:31:48.238Z</time></trkpt><trkpt lat="45.0617798" lon="8.2592036"><ele>186.5</ele><time>2026-04-18T16:31:49.239Z</time></trkpt><trkpt lat="45.0618182" lon="8.259014"><ele>186.25</ele><time>2026-04-18T16:31:50.238Z</time></trkpt><trkpt lat="45.0618443" lon="8.2588216"><ele>186.0</ele><time>2026-04-18T16:31:51.238Z</time></trkpt><trkpt lat="45.0618824" lon="8.2586294"><ele>186.0</ele><time>2026-04-18T16:31:52.238Z</time></trkpt><trkpt lat="45.061918" lon="8.2584289"><ele>186.0</ele><time>2026-04-18T16:31:53.238Z</time></trkpt><trkpt lat="45.0619455" lon="8.2582272"><ele>186.0</ele><time>2026-04-18T16:31:54.238Z</time></trkpt><trkpt lat="45.0619987" lon="8.2579977"><ele>187.0</ele><time>2026-04-18T16:31:55.238Z</time></trkpt><trkpt lat="45.0620441" lon="8.257803"><ele>188.0</ele><time>2026-04-18T16:31:56.239Z</time></trkpt><trkpt lat="45.0620783" lon="8.2575744"><ele>189.0</ele><time>2026-04-18T16:31:57.239Z</time></trkpt><trkpt lat="45.0621178" lon="8.2573531"><ele>190.0</ele><time>2026-04-18T16:31:58.238Z</time></trkpt><trkpt lat="45.0621566" lon="8.2571295"><ele>191.0</ele><time>2026-04-18T16:31:59.239Z</time></trkpt><trkpt lat="45.0622073" lon="8.2569014"><ele>192.0</ele><time>2026-04-18T16:32:00.239Z</time></trkpt><trkpt lat="45.0622695" lon="8.2566896"><ele>192.0</ele><time>2026-04-18T16:32:01.238Z</time></trkpt><trkpt lat="45.0623032" lon="8.2564512"><ele>192.0</ele><time>2026-04-18T16:32:02.238Z</time></trkpt><trkpt lat="45.0623459" lon="8.2562327"><ele>192.0</ele><time>2026-04-18T16:32:03.239Z</time></trkpt><trkpt lat="45.06239" lon="8.2560016"><ele>192.0</ele><time>2026-04-18T16:32:04.238Z</time></trkpt><trkpt lat="45.0624293" lon="8.2557737"><ele>192.0</ele><time>2026-04-18T16:32:05.239Z</time></trkpt><trkpt lat="45.0624587" lon="8.2555347"><ele>192.0</ele><time>2026-04-18T16:32:06.238Z</time></trkpt><trkpt lat="45.0625029" lon="8.2553038"><ele>191.66666666666666</ele><time>2026-04-18T16:32:07.238Z</time></trkpt><trkpt lat="45.0625503" lon="8.2550553"><ele>191.33333333333331</ele><time>2026-04-18T16:32:08.238Z</time></trkpt><trkpt lat="45.0625888" lon="8.2548435"><ele>191.0</ele><time>2026-04-18T16:32:09.238Z</time></trkpt><trkpt lat="45.0626466" lon="8.2545929"><ele>191.0</ele><time>2026-04-18T16:32:10.238Z</time></trkpt><trkpt lat="45.0626898" lon="8.254382"><ele>191.0</ele><time>2026-04-18T16:32:11.239Z</time></trkpt><trkpt lat="45.0627191" lon="8.2541515"><ele>191.0</ele><time>2026-04-18T16:32:12.238Z</time></trkpt><trkpt lat="45.0627476" lon="8.2539033"><ele>191.0</ele><time>2026-04-18T16:32:13.238Z</time></trkpt><trkpt lat="45.0627652" lon="8.2536754"><ele>191.0</ele><time>2026-04-18T16:32:14.238Z</time></trkpt><trkpt lat="45.0627759" lon="8.2534544"><ele>191.0</ele><time>2026-04-18T16:32:15.239Z</time></trkpt><trkpt lat="45.06279" lon="8.2532182"><ele>191.0</ele><time>2026-04-18T16:32:16.239Z</time></trkpt><trkpt lat="45.0627927" lon="8.252993"><ele>191.0</ele><time>2026-04-18T16:32:17.238Z</time></trkpt><trkpt lat="45.0627952" lon="8.2527512"><ele>191.0</ele><time>2026-04-18T16:32:18.238Z</time></trkpt><trkpt lat="45.0628052" lon="8.2525305"><ele>191.0</ele><time>2026-04-18T16:32:19.239Z</time></trkpt><trkpt lat="45.0628158" lon="8.2522943"><ele>191.0</ele><time>2026-04-18T16:32:20.239Z</time></trkpt><trkpt lat="45.0628474" lon="8.2520571"><ele>191.0</ele><time>2026-04-18T16:32:21.238Z</time></trkpt><trkpt lat="45.0628529" lon="8.2518135"><ele>192.66666666666666</ele><time>2026-04-18T16:32:22.239Z</time></trkpt><trkpt lat="45.0628875" lon="8.2515792"><ele>194.33333333333331</ele><time>2026-04-18T16:32:23.238Z</time></trkpt><trkpt lat="45.0629244" lon="8.2513555"><ele>196.0</ele><time>2026-04-18T16:32:24.239Z</time></trkpt><trkpt lat="45.0629723" lon="8.251133"><ele>196.66666666666666</ele><time>2026-04-18T16:32:25.238Z</time></trkpt><trkpt lat="45.0630215" lon="8.2508988"><ele>197.33333333333331</ele><time>2026-04-18T16:32:26.238Z</time></trkpt><trkpt lat="45.0630774" lon="8.2506739"><ele>198.0</ele><time>2026-04-18T16:32:27.239Z</time></trkpt><trkpt lat="45.0631332" lon="8.250459"><ele>197.66666666666669</ele><time>2026-04-18T16:32:28.238Z</time></trkpt><trkpt lat="45.0631873" lon="8.2502368"><ele>197.33333333333334</ele><time>2026-04-18T16:32:29.238Z</time></trkpt><trkpt lat="45.0632405" lon="8.2500171"><ele>197.0</ele><time>2026-04-18T16:32:30.239Z</time></trkpt><trkpt lat="45.0633008" lon="8.2497965"><ele>197.66666666666669</ele><time>2026-04-18T16:32:31.239Z</time></trkpt><trkpt lat="45.0633536" lon="8.2495741"><ele>198.33333333333331</ele><time>2026-04-18T16:32:32.238Z</time></trkpt><trkpt lat="45.0634087" lon="8.249352"><ele>199.0</ele><time>2026-04-18T16:32:33.238Z</time></trkpt><trkpt lat="45.0634697" lon="8.2491416"><ele>198.66666666666666</ele><time>2026-04-18T16:32:34.239Z</time></trkpt><trkpt lat="45.0635249" lon="8.2489307"><ele>198.33333333333331</ele><time>2026-04-18T16:32:35.238Z</time></trkpt><trkpt lat="45.063579" lon="8.2487159"><ele>198.0</ele><time>2026-04-18T16:32:36.239Z</time></trkpt><trkpt lat="45.0636308" lon="8.2485065"><ele>198.0</ele><time>2026-04-18T16:32:37.238Z</time></trkpt><trkpt lat="45.0636828" lon="8.2482982"><ele>198.0</ele><time>2026-04-18T16:32:38.238Z</time></trkpt><trkpt lat="45.0637359" lon="8.2480939"><ele>198.0</ele><time>2026-04-18T16:32:39.238Z</time></trkpt><trkpt lat="45.0637868" lon="8.2478817"><ele>198.33333333333331</ele><time>2026-04-18T16:32:40.238Z</time></trkpt><trkpt lat="45.0638365" lon="8.2476696"><ele>198.66666666666666</ele><time>2026-04-18T16:32:41.239Z</time></trkpt><trkpt lat="45.0638873" lon="8.2474661"><ele>199.0</ele><time>2026-04-18T16:32:42.239Z</time></trkpt><trkpt lat="45.0639398" lon="8.2472536"><ele>199.66666666666666</ele><time>2026-04-18T16:32:43.239Z</time></trkpt><trkpt lat="45.0639938" lon="8.2470379"><ele>200.33333333333331</ele><time>2026-04-18T16:32:44.238Z</time></trkpt><trkpt lat="45.0640472" lon="8.2468237"><ele>201.0</ele><time>2026-04-18T16:32:45.238Z</time></trkpt><trkpt lat="45.0641061" lon="8.2466045"><ele>201.66666666666669</ele><time>2026-04-18T16:32:46.238Z</time></trkpt><trkpt lat="45.0641672" lon="8.2463944"><ele>202.33333333333334</ele><time>2026-04-18T16:32:47.238Z</time></trkpt><trkpt lat="45.0642243" lon="8.2461801"><ele>203.0</ele><time>2026-04-18T16:32:48.239Z</time></trkpt><trkpt lat="45.0642804" lon="8.2459688"><ele>203.0</ele><time>2026-04-18T16:32:49.238Z</time></trkpt><trkpt lat="45.0643409" lon="8.245756"><ele>203.0</ele><time>2026-04-18T16:32:50.239Z</time></trkpt><trkpt lat="45.0643842" lon="8.2455423"><ele>203.0</ele><time>2026-04-18T16:32:51.238Z</time></trkpt><trkpt lat="45.0644407" lon="8.2453363"><ele>203.33333333333334</ele><time>2026-04-18T16:32:52.238Z</time></trkpt><trkpt lat="45.0644944" lon="8.245131"><ele>203.66666666666669</ele><time>2026-04-18T16:32:53.238Z</time></trkpt><trkpt lat="45.0645475" lon="8.2449107"><ele>204.0</ele><time>2026-04-18T16:32:54.238Z</time></trkpt><trkpt lat="45.0646043" lon="8.2447063"><ele>204.0</ele><time>2026-04-18T16:32:55.239Z</time></trkpt><trkpt lat="45.0646587" lon="8.2444884"><ele>204.0</ele><time>2026-04-18T16:32:56.238Z</time></trkpt><trkpt lat="45.0647099" lon="8.2442824"><ele>204.0</ele><time>2026-04-18T16:32:57.238Z</time></trkpt><trkpt lat="45.0647584" lon="8.2440762"><ele>204.0</ele><time>2026-04-18T16:32:58.238Z</time></trkpt><trkpt lat="45.0648116" lon="8.2438784"><ele>204.0</ele><time>2026-04-18T16:32:59.239Z</time></trkpt><trkpt lat="45.0648553" lon="8.2437013"><ele>204.0</ele><time>2026-04-18T16:33:00.239Z</time></trkpt><trkpt lat="45.0648998" lon="8.2435303"><ele>204.0</ele><time>2026-04-18T16:33:01.238Z</time></trkpt><trkpt lat="45.0649456" lon="8.2433693"><ele>204.0</ele><time>2026-04-18T16:33:02.239Z</time></trkpt><trkpt lat="45.0649825" lon="8.2432285"><ele>204.0</ele><time>2026-04-18T16:33:03.238Z</time></trkpt><trkpt lat="45.0650278" lon="8.2430981"><ele>204.0</ele><time>2026-04-18T16:33:04.238Z</time></trkpt><trkpt lat="45.0650748" lon="8.2429698"><ele>204.0</ele><time>2026-04-18T16:33:05.238Z</time></trkpt><trkpt lat="45.0650889" lon="8.2428694"><ele>204.0</ele><time>2026-04-18T16:33:06.239Z</time></trkpt><trkpt lat="45.065084" lon="8.2427174"><ele>204.0</ele><time>2026-04-18T16:33:08.238Z</time></trkpt><trkpt lat="45.0650226" lon="8.2426326"><ele>204.0</ele><time>2026-04-18T16:33:09.239Z</time></trkpt><trkpt lat="45.0648729" lon="8.2425614"><ele>204.0</ele><time>2026-04-18T16:33:11.238Z</time></trkpt><trkpt lat="45.0647591" lon="8.2425367"><ele>204.0</ele><time>2026-04-18T16:33:12.239Z</time></trkpt><trkpt lat="45.0646593" lon="8.2425027"><ele>204.0</ele><time>2026-04-18T16:33:13.238Z</time></trkpt><trkpt lat="45.0645344" lon="8.242426"><ele>204.0</ele><time>2026-04-18T16:33:14.238Z</time></trkpt><trkpt lat="45.0643989" lon="8.2423384"><ele>204.0</ele><time>2026-04-18T16:33:15.239Z</time></trkpt><trkpt lat="45.0642717" lon="8.2422433"><ele>204.0</ele><time>2026-04-18T16:33:16.238Z</time></trkpt><trkpt lat="45.0641315" lon="8.2421121"><ele>204.5</ele><time>2026-04-18T16:33:17.238Z</time></trkpt><trkpt lat="45.0640128" lon="8.241988"><ele>205.0</ele><time>2026-04-18T16:33:18.239Z</time></trkpt><trkpt lat="45.0638975" lon="8.2418393"><ele>205.5</ele><time>2026-04-18T16:33:19.239Z</time></trkpt><trkpt lat="45.0637914" lon="8.2416979"><ele>206.0</ele><time>2026-04-18T16:33:20.238Z</time></trkpt><trkpt lat="45.0636871" lon="8.2415158"><ele>207.66666666666669</ele><time>2026-04-18T16:33:21.238Z</time></trkpt><trkpt lat="45.0635859" lon="8.2413686"><ele>209.33333333333331</ele><time>2026-04-18T16:33:22.238Z</time></trkpt><trkpt lat="45.0634815" lon="8.2412112"><ele>211.0</ele><time>2026-04-18T16:33:23.238Z</time></trkpt><trkpt lat="45.0633748" lon="8.241052"><ele>212.75</ele><time>2026-04-18T16:33:24.239Z</time></trkpt><trkpt lat="45.0632794" lon="8.2409138"><ele>214.5</ele><time>2026-04-18T16:33:25.238Z</time></trkpt><trkpt lat="45.0631785" lon="8.2407455"><ele>216.25</ele><time>2026-04-18T16:33:26.239Z</time></trkpt><trkpt lat="45.0630831" lon="8.2406131"><ele>218.0</ele><time>2026-04-18T16:33:27.238Z</time></trkpt><trkpt lat="45.0629741" lon="8.2404641"><ele>218.0</ele><time>2026-04-18T16:33:28.239Z</time></trkpt><trkpt lat="45.0628941" lon="8.2403499"><ele>218.0</ele><time>2026-04-18T16:33:29.238Z</time></trkpt><trkpt lat="45.0628442" lon="8.2402694"><ele>218.0</ele><time>2026-04-18T16:33:30.238Z</time></trkpt><trkpt lat="45.0627855" lon="8.2401839"><ele>218.0</ele><time>2026-04-18T16:33:31.239Z</time></trkpt><trkpt lat="45.0627974" lon="8.239978"><ele>218.0</ele><time>2026-04-18T16:33:33.239Z</time></trkpt><trkpt lat="45.0628406" lon="8.2398746"><ele>217.5</ele><time>2026-04-18T16:33:34.239Z</time></trkpt><trkpt lat="45.0629544" lon="8.2397669"><ele>217.0</ele><time>2026-04-18T16:33:35.239Z</time></trkpt><trkpt lat="45.0630351" lon="8.2396964"><ele>216.5</ele><time>2026-04-18T16:33:36.238Z</time></trkpt><trkpt lat="45.0631244" lon="8.2395868"><ele>216.0</ele><time>2026-04-18T16:33:37.238Z</time></trkpt><trkpt lat="45.0632633" lon="8.2394776"><ele>217.0</ele><time>2026-04-18T16:33:38.239Z</time></trkpt><trkpt lat="45.0633716" lon="8.2393782"><ele>218.0</ele><time>2026-04-18T16:33:39.238Z</time></trkpt><trkpt lat="45.0635062" lon="8.2392761"><ele>219.0</ele><time>2026-04-18T16:33:40.238Z</time></trkpt><trkpt lat="45.0636379" lon="8.239148"><ele>220.0</ele><time>2026-04-18T16:33:41.238Z</time></trkpt><trkpt lat="45.063766" lon="8.2390254"><ele>219.33333333333331</ele><time>2026-04-18T16:33:42.238Z</time></trkpt><trkpt lat="45.0638873" lon="8.2389044"><ele>218.66666666666669</ele><time>2026-04-18T16:33:43.239Z</time></trkpt><trkpt lat="45.0640064" lon="8.2387807"><ele>218.0</ele><time>2026-04-18T16:33:44.239Z</time></trkpt><trkpt lat="45.0641417" lon="8.2386589"><ele>221.33333333333334</ele><time>2026-04-18T16:33:45.238Z</time></trkpt><trkpt lat="45.064252" lon="8.2385305"><ele>224.66666666666669</ele><time>2026-04-18T16:33:46.238Z</time></trkpt><trkpt lat="45.064379" lon="8.2383899"><ele>228.0</ele><time>2026-04-18T16:33:47.238Z</time></trkpt><trkpt lat="45.0644915" lon="8.2382254"><ele>228.33333333333331</ele><time>2026-04-18T16:33:48.239Z</time></trkpt><trkpt lat="45.0646011" lon="8.2380527"><ele>228.66666666666666</ele><time>2026-04-18T16:33:49.238Z</time></trkpt><trkpt lat="45.0647088" lon="8.2378833"><ele>229.0</ele><time>2026-04-18T16:33:50.239Z</time></trkpt><trkpt lat="45.0647976" lon="8.2377111"><ele>229.0</ele><time>2026-04-18T16:33:51.238Z</time></trkpt><trkpt lat="45.0648629" lon="8.2375555"><ele>229.0</ele><time>2026-04-18T16:33:52.238Z</time></trkpt><trkpt lat="45.0649535" lon="8.2373762"><ele>229.0</ele><time>2026-04-18T16:33:53.238Z</time></trkpt><trkpt lat="45.0650602" lon="8.2371807"><ele>231.33333333333331</ele><time>2026-04-18T16:33:54.238Z</time></trkpt><trkpt lat="45.0651358" lon="8.2369927"><ele>233.66666666666669</ele><time>2026-04-18T16:33:55.238Z</time></trkpt><trkpt lat="45.0652173" lon="8.2368167"><ele>236.0</ele><time>2026-04-18T16:33:56.238Z</time></trkpt><trkpt lat="45.0652894" lon="8.2366289"><ele>235.33333333333334</ele><time>2026-04-18T16:33:57.238Z</time></trkpt><trkpt lat="45.0653634" lon="8.2364338"><ele>234.66666666666669</ele><time>2026-04-18T16:33:58.239Z</time></trkpt><trkpt lat="45.065425" lon="8.2362351"><ele>234.0</ele><time>2026-04-18T16:33:59.238Z</time></trkpt><trkpt lat="45.0655018" lon="8.2360153"><ele>234.0</ele><time>2026-04-18T16:34:00.239Z</time></trkpt><trkpt lat="45.0655643" lon="8.2357832"><ele>234.0</ele><time>2026-04-18T16:34:01.238Z</time></trkpt><trkpt lat="45.0656212" lon="8.2355354"><ele>234.0</ele><time>2026-04-18T16:34:02.239Z</time></trkpt><trkpt lat="45.0656811" lon="8.2353252"><ele>234.33333333333331</ele><time>2026-04-18T16:34:03.238Z</time></trkpt><trkpt lat="45.0657342" lon="8.2350969"><ele>234.66666666666666</ele><time>2026-04-18T16:34:04.238Z</time></trkpt><trkpt lat="45.0657942" lon="8.2348796"><ele>235.0</ele><time>2026-04-18T16:34:05.238Z</time></trkpt><trkpt lat="45.0658653" lon="8.2346745"><ele>239.0</ele><time>2026-04-18T16:34:06.238Z</time></trkpt><trkpt lat="45.0659216" lon="8.234451"><ele>243.0</ele><time>2026-04-18T16:34:07.239Z</time></trkpt><trkpt lat="45.0659791" lon="8.2342352"><ele>247.0</ele><time>2026-04-18T16:34:08.238Z</time></trkpt><trkpt lat="45.0660319" lon="8.2340408"><ele>246.66666666666666</ele><time>2026-04-18T16:34:09.238Z</time></trkpt><trkpt lat="45.0660976" lon="8.2338258"><ele>246.33333333333331</ele><time>2026-04-18T16:34:10.239Z</time></trkpt><trkpt lat="45.0661447" lon="8.2336106"><ele>246.0</ele><time>2026-04-18T16:34:11.238Z</time></trkpt><trkpt lat="45.0661974" lon="8.2333946"><ele>246.0</ele><time>2026-04-18T16:34:12.238Z</time></trkpt><trkpt lat="45.0662658" lon="8.233183"><ele>246.0</ele><time>2026-04-18T16:34:13.239Z</time></trkpt><trkpt lat="45.0663226" lon="8.232941"><ele>246.0</ele><time>2026-04-18T16:34:14.239Z</time></trkpt><trkpt lat="45.0663789" lon="8.2327232"><ele>246.66666666666669</ele><time>2026-04-18T16:34:15.238Z</time></trkpt><trkpt lat="45.0664389" lon="8.2325041"><ele>247.33333333333334</ele><time>2026-04-18T16:34:16.238Z</time></trkpt><trkpt lat="45.0664961" lon="8.232293"><ele>248.0</ele><time>2026-04-18T16:34:17.238Z</time></trkpt><trkpt lat="45.0665641" lon="8.2320776"><ele>251.5</ele><time>2026-04-18T16:34:18.238Z</time></trkpt><trkpt lat="45.0666144" lon="8.2318889"><ele>255.0</ele><time>2026-04-18T16:34:19.238Z</time></trkpt><trkpt lat="45.0666743" lon="8.2316913"><ele>258.5</ele><time>2026-04-18T16:34:20.238Z</time></trkpt><trkpt lat="45.0667294" lon="8.231495"><ele>262.0</ele><time>2026-04-18T16:34:21.239Z</time></trkpt><trkpt lat="45.0667704" lon="8.2313217"><ele>262.75</ele><time>2026-04-18T16:34:22.238Z</time></trkpt><trkpt lat="45.0668068" lon="8.2311485"><ele>263.5</ele><time>2026-04-18T16:34:23.238Z</time></trkpt><trkpt lat="45.0668466" lon="8.2310154"><ele>264.25</ele><time>2026-04-18T16:34:24.238Z</time></trkpt><trkpt lat="45.0668744" lon="8.2308697"><ele>265.0</ele><time>2026-04-18T16:34:25.239Z</time></trkpt><trkpt lat="45.0668074" lon="8.2306621"><ele>265.75</ele><time>2026-04-18T16:34:26.239Z</time></trkpt><trkpt lat="45.0667789" lon="8.2304941"><ele>266.5</ele><time>2026-04-18T16:34:27.238Z</time></trkpt><trkpt lat="45.0666722" lon="8.2303098"><ele>267.25</ele><time>2026-04-18T16:34:28.239Z</time></trkpt><trkpt lat="45.0665807" lon="8.2301567"><ele>268.0</ele><time>2026-04-18T16:34:29.238Z</time></trkpt><trkpt lat="45.0664834" lon="8.2299958"><ele>267.0</ele><time>2026-04-18T16:34:30.238Z</time></trkpt><trkpt lat="45.0663721" lon="8.2298368"><ele>266.0</ele><time>2026-04-18T16:34:31.239Z</time></trkpt><trkpt lat="45.0662695" lon="8.2296638"><ele>265.0</ele><time>2026-04-18T16:34:32.238Z</time></trkpt><trkpt lat="45.0661616" lon="8.2295017"><ele>265.0</ele><time>2026-04-18T16:34:33.238Z</time></trkpt><trkpt lat="45.0660584" lon="8.2293443"><ele>265.0</ele><time>2026-04-18T16:34:34.239Z</time></trkpt><trkpt lat="45.0659532" lon="8.229187"><ele>265.0</ele><time>2026-04-18T16:34:35.238Z</time></trkpt><trkpt lat="45.0658409" lon="8.2290264"><ele>265.75</ele><time>2026-04-18T16:34:36.239Z</time></trkpt><trkpt lat="45.0657394" lon="8.2288832"><ele>266.5</ele><time>2026-04-18T16:34:37.238Z</time></trkpt><trkpt lat="45.0656548" lon="8.2287494"><ele>267.25</ele><time>2026-04-18T16:34:38.238Z</time></trkpt><trkpt lat="45.0655586" lon="8.2286092"><ele>268.0</ele><time>2026-04-18T16:34:39.239Z</time></trkpt><trkpt lat="45.0654673" lon="8.2284794"><ele>268.0</ele><time>2026-04-18T16:34:40.238Z</time></trkpt><trkpt lat="45.065358" lon="8.228351"><ele>268.0</ele><time>2026-04-18T16:34:41.238Z</time></trkpt><trkpt lat="45.0652606" lon="8.2282425"><ele>268.0</ele><time>2026-04-18T16:34:42.238Z</time></trkpt><trkpt lat="45.0651636" lon="8.2281423"><ele>268.0</ele><time>2026-04-18T16:34:43.238Z</time></trkpt><trkpt lat="45.0650624" lon="8.2280593"><ele>268.6</ele><time>2026-04-18T16:34:44.238Z</time></trkpt><trkpt lat="45.0649699" lon="8.2279758"><ele>269.20000000000005</ele><time>2026-04-18T16:34:45.238Z</time></trkpt><trkpt lat="45.0648978" lon="8.2278968"><ele>269.8</ele><time>2026-04-18T16:34:46.238Z</time></trkpt><trkpt lat="45.0648387" lon="8.227804"><ele>270.40000000000003</ele><time>2026-04-18T16:34:47.238Z</time></trkpt><trkpt lat="45.0647807" lon="8.2276883"><ele>271.0</ele><time>2026-04-18T16:34:48.239Z</time></trkpt><trkpt lat="45.0647534" lon="8.2275917"><ele>271.0</ele><time>2026-04-18T16:34:49.238Z</time></trkpt><trkpt lat="45.0648369" lon="8.2274016"><ele>271.0</ele><time>2026-04-18T16:34:50.238Z</time></trkpt><trkpt lat="45.0648615" lon="8.2272351"><ele>271.0</ele><time>2026-04-18T16:34:51.238Z</time></trkpt><trkpt lat="45.0648989" lon="8.2270712"><ele>271.0</ele><time>2026-04-18T16:34:52.238Z</time></trkpt><trkpt lat="45.0649145" lon="8.2269179"><ele>271.0</ele><time>2026-04-18T16:34:53.238Z</time></trkpt><trkpt lat="45.0649322" lon="8.2267699"><ele>271.0</ele><time>2026-04-18T16:34:54.239Z</time></trkpt><trkpt lat="45.0649546" lon="8.2266284"><ele>271.0</ele><time>2026-04-18T16:34:55.239Z</time></trkpt><trkpt lat="45.0649819" lon="8.2264974"><ele>271.0</ele><time>2026-04-18T16:34:56.239Z</time></trkpt><trkpt lat="45.0650344" lon="8.226368"><ele>271.0</ele><time>2026-04-18T16:34:57.239Z</time></trkpt><trkpt lat="45.0650864" lon="8.2262601"><ele>267.66666666666663</ele><time>2026-04-18T16:34:58.238Z</time></trkpt><trkpt lat="45.065168" lon="8.2261713"><ele>264.3333333333333</ele><time>2026-04-18T16:34:59.239Z</time></trkpt><trkpt lat="45.065291" lon="8.226125"><ele>261.0</ele><time>2026-04-18T16:35:00.239Z</time></trkpt><trkpt lat="45.0655166" lon="8.2261518"><ele>261.0</ele><time>2026-04-18T16:35:01.239Z</time></trkpt><trkpt lat="45.0656649" lon="8.2261154"><ele>261.0</ele><time>2026-04-18T16:35:02.238Z</time></trkpt><trkpt lat="45.0658111" lon="8.2260682"><ele>261.0</ele><time>2026-04-18T16:35:03.238Z</time></trkpt><trkpt lat="45.0659473" lon="8.226037"><ele>261.0</ele><time>2026-04-18T16:35:04.238Z</time></trkpt><trkpt lat="45.066086" lon="8.2259948"><ele>261.3333333333333</ele><time>2026-04-18T16:35:05.238Z</time></trkpt><trkpt lat="45.0662317" lon="8.2259897"><ele>261.66666666666663</ele><time>2026-04-18T16:35:06.238Z</time></trkpt><trkpt lat="45.0663885" lon="8.2259638"><ele>262.0</ele><time>2026-04-18T16:35:07.239Z</time></trkpt><trkpt lat="45.0665874" lon="8.2258548"><ele>261.0</ele><time>2026-04-18T16:35:08.238Z</time></trkpt><trkpt lat="45.0667424" lon="8.2258239"><ele>260.0</ele><time>2026-04-18T16:35:09.239Z</time></trkpt><trkpt lat="45.0668936" lon="8.2257978"><ele>259.0</ele><time>2026-04-18T16:35:10.238Z</time></trkpt><trkpt lat="45.0670475" lon="8.2257491"><ele>259.0</ele><time>2026-04-18T16:35:11.239Z</time></trkpt><trkpt lat="45.0672112" lon="8.2257113"><ele>259.0</ele><time>2026-04-18T16:35:12.238Z</time></trkpt><trkpt lat="45.0673912" lon="8.2256637"><ele>259.0</ele><time>2026-04-18T16:35:13.238Z</time></trkpt><trkpt lat="45.0675449" lon="8.2256203"><ele>257.66666666666663</ele><time>2026-04-18T16:35:14.238Z</time></trkpt><trkpt lat="45.067722" lon="8.2255499"><ele>256.3333333333333</ele><time>2026-04-18T16:35:15.238Z</time></trkpt><trkpt lat="45.0678639" lon="8.2255148"><ele>255.0</ele><time>2026-04-18T16:35:16.239Z</time></trkpt><trkpt lat="45.06801" lon="8.2254754"><ele>255.0</ele><time>2026-04-18T16:35:17.238Z</time></trkpt><trkpt lat="45.0681624" lon="8.2254019"><ele>255.0</ele><time>2026-04-18T16:35:18.239Z</time></trkpt><trkpt lat="45.0682773" lon="8.2253337"><ele>255.0</ele><time>2026-04-18T16:35:19.238Z</time></trkpt><trkpt lat="45.0684128" lon="8.2252373"><ele>255.0</ele><time>2026-04-18T16:35:20.238Z</time></trkpt><trkpt lat="45.0685106" lon="8.2251125"><ele>255.33333333333331</ele><time>2026-04-18T16:35:21.238Z</time></trkpt><trkpt lat="45.0686198" lon="8.2249643"><ele>255.66666666666666</ele><time>2026-04-18T16:35:22.239Z</time></trkpt><trkpt lat="45.0687251" lon="8.2248027"><ele>256.0</ele><time>2026-04-18T16:35:23.238Z</time></trkpt><trkpt lat="45.0688363" lon="8.2246455"><ele>256.0</ele><time>2026-04-18T16:35:24.238Z</time></trkpt><trkpt lat="45.0689541" lon="8.224474"><ele>256.0</ele><time>2026-04-18T16:35:25.239Z</time></trkpt><trkpt lat="45.0690678" lon="8.2243116"><ele>256.0</ele><time>2026-04-18T16:35:26.238Z</time></trkpt><trkpt lat="45.069184" lon="8.224147"><ele>259.0</ele><time>2026-04-18T16:35:27.238Z</time></trkpt><trkpt lat="45.0692929" lon="8.2239789"><ele>262.0</ele><time>2026-04-18T16:35:28.238Z</time></trkpt><trkpt lat="45.0694063" lon="8.2238039"><ele>265.0</ele><time>2026-04-18T16:35:29.238Z</time></trkpt><trkpt lat="45.0695156" lon="8.2236348"><ele>265.0</ele><time>2026-04-18T16:35:30.238Z</time></trkpt><trkpt lat="45.0696252" lon="8.2234895"><ele>265.0</ele><time>2026-04-18T16:35:31.239Z</time></trkpt><trkpt lat="45.0697323" lon="8.2233401"><ele>265.0</ele><time>2026-04-18T16:35:32.238Z</time></trkpt><trkpt lat="45.0698398" lon="8.2231713"><ele>263.5</ele><time>2026-04-18T16:35:33.238Z</time></trkpt><trkpt lat="45.0699217" lon="8.2230219"><ele>262.0</ele><time>2026-04-18T16:35:34.238Z</time></trkpt><trkpt lat="45.0699998" lon="8.2228375"><ele>260.5</ele><time>2026-04-18T16:35:35.238Z</time></trkpt><trkpt lat="45.0700684" lon="8.2226588"><ele>259.0</ele><time>2026-04-18T16:35:36.238Z</time></trkpt><trkpt lat="45.070064" lon="8.2223986"><ele>263.3333333333333</ele><time>2026-04-18T16:35:37.238Z</time></trkpt><trkpt lat="45.0700884" lon="8.2221666"><ele>267.6666666666667</ele><time>2026-04-18T16:35:38.238Z</time></trkpt><trkpt lat="45.0701014" lon="8.2219363"><ele>272.0</ele><time>2026-04-18T16:35:39.238Z</time></trkpt><trkpt lat="45.0701154" lon="8.2217215"><ele>272.0</ele><time>2026-04-18T16:35:40.238Z</time></trkpt><trkpt lat="45.0701374" lon="8.2214931"><ele>272.0</ele><time>2026-04-18T16:35:41.238Z</time></trkpt><trkpt lat="45.0701463" lon="8.22125"><ele>272.0</ele><time>2026-04-18T16:35:42.238Z</time></trkpt><trkpt lat="45.0701636" lon="8.2210038"><ele>272.33333333333337</ele><time>2026-04-18T16:35:43.238Z</time></trkpt><trkpt lat="45.0701863" lon="8.2207659"><ele>272.6666666666667</ele><time>2026-04-18T16:35:44.239Z</time></trkpt><trkpt lat="45.0702" lon="8.2205258"><ele>273.0</ele><time>2026-04-18T16:35:45.238Z</time></trkpt><trkpt lat="45.0701948" lon="8.2203011"><ele>273.0</ele><time>2026-04-18T16:35:46.238Z</time></trkpt><trkpt lat="45.0701869" lon="8.220093"><ele>273.0</ele><time>2026-04-18T16:35:47.238Z</time></trkpt><trkpt lat="45.0701793" lon="8.2198327"><ele>273.0</ele><time>2026-04-18T16:35:48.239Z</time></trkpt><trkpt lat="45.0701367" lon="8.2195974"><ele>276.0</ele><time>2026-04-18T16:35:49.238Z</time></trkpt><trkpt lat="45.0701201" lon="8.2193813"><ele>279.0</ele><time>2026-04-18T16:35:50.238Z</time></trkpt><trkpt lat="45.0701127" lon="8.2191692"><ele>282.0</ele><time>2026-04-18T16:35:51.238Z</time></trkpt><trkpt lat="45.0701069" lon="8.2189356"><ele>283.5</ele><time>2026-04-18T16:35:52.239Z</time></trkpt><trkpt lat="45.0700937" lon="8.2187009"><ele>285.0</ele><time>2026-04-18T16:35:53.238Z</time></trkpt><trkpt lat="45.070098" lon="8.2185117"><ele>286.5</ele><time>2026-04-18T16:35:54.238Z</time></trkpt><trkpt lat="45.0700938" lon="8.2183046"><ele>288.0</ele><time>2026-04-18T16:35:55.238Z</time></trkpt><trkpt lat="45.0700912" lon="8.2180836"><ele>290.0</ele><time>2026-04-18T16:35:56.239Z</time></trkpt><trkpt lat="45.0700879" lon="8.2178648"><ele>292.0</ele><time>2026-04-18T16:35:57.238Z</time></trkpt><trkpt lat="45.0700901" lon="8.2176661"><ele>294.0</ele><time>2026-04-18T16:35:58.238Z</time></trkpt><trkpt lat="45.0700942" lon="8.2174664"><ele>296.0</ele><time>2026-04-18T16:35:59.238Z</time></trkpt><trkpt lat="45.0700991" lon="8.2172629"><ele>297.0</ele><time>2026-04-18T16:36:00.238Z</time></trkpt><trkpt lat="45.0701002" lon="8.2170605"><ele>298.0</ele><time>2026-04-18T16:36:01.238Z</time></trkpt><trkpt lat="45.0701113" lon="8.2168898"><ele>299.0</ele><time>2026-04-18T16:36:02.238Z</time></trkpt><trkpt lat="45.0701245" lon="8.2167677"><ele>300.0</ele><time>2026-04-18T16:36:03.239Z</time></trkpt><trkpt lat="45.0701425" lon="8.2166089"><ele>299.2</ele><time>2026-04-18T16:36:04.238Z</time></trkpt><trkpt lat="45.0701552" lon="8.2164661"><ele>298.4</ele><time>2026-04-18T16:36:05.238Z</time></trkpt><trkpt lat="45.0701792" lon="8.2163253"><ele>297.6</ele><time>2026-04-18T16:36:06.239Z</time></trkpt><trkpt lat="45.0702118" lon="8.2161979"><ele>296.8</ele><time>2026-04-18T16:36:07.238Z</time></trkpt><trkpt lat="45.0702606" lon="8.2160714"><ele>296.0</ele><time>2026-04-18T16:36:08.239Z</time></trkpt><trkpt lat="45.0703461" lon="8.2159577"><ele>296.0</ele><time>2026-04-18T16:36:09.239Z</time></trkpt><trkpt lat="45.0704522" lon="8.2159199"><ele>296.0</ele><time>2026-04-18T16:36:10.238Z</time></trkpt><trkpt lat="45.0705572" lon="8.2159058"><ele>296.0</ele><time>2026-04-18T16:36:11.238Z</time></trkpt><trkpt lat="45.07067" lon="8.2158136"><ele>296.0</ele><time>2026-04-18T16:36:12.239Z</time></trkpt><trkpt lat="45.0707756" lon="8.2157143"><ele>294.2</ele><time>2026-04-18T16:36:13.238Z</time></trkpt><trkpt lat="45.0708432" lon="8.2156283"><ele>292.40000000000003</ele><time>2026-04-18T16:36:14.239Z</time></trkpt><trkpt lat="45.0708782" lon="8.2154457"><ele>290.6</ele><time>2026-04-18T16:36:15.239Z</time></trkpt><trkpt lat="45.070933" lon="8.2152774"><ele>288.8</ele><time>2026-04-18T16:36:16.238Z</time></trkpt><trkpt lat="45.0709498" lon="8.2151473"><ele>287.0</ele><time>2026-04-18T16:36:17.238Z</time></trkpt><trkpt lat="45.0709415" lon="8.2149982"><ele>285.5</ele><time>2026-04-18T16:36:18.238Z</time></trkpt><trkpt lat="45.0708892" lon="8.2148119"><ele>284.0</ele><time>2026-04-18T16:36:19.238Z</time></trkpt><trkpt lat="45.070865" lon="8.2146589"><ele>282.5</ele><time>2026-04-18T16:36:20.238Z</time></trkpt><trkpt lat="45.0708455" lon="8.2145097"><ele>281.0</ele><time>2026-04-18T16:36:21.239Z</time></trkpt><trkpt lat="45.0708652" lon="8.2143689"><ele>281.0</ele><time>2026-04-18T16:36:22.239Z</time></trkpt><trkpt lat="45.0709055" lon="8.2142009"><ele>281.0</ele><time>2026-04-18T16:36:23.239Z</time></trkpt><trkpt lat="45.0709502" lon="8.2140331"><ele>281.0</ele><time>2026-04-18T16:36:24.238Z</time></trkpt><trkpt lat="45.0710209" lon="8.2138361"><ele>281.0</ele><time>2026-04-18T16:36:25.238Z</time></trkpt><trkpt lat="45.0710796" lon="8.2136633"><ele>279.5</ele><time>2026-04-18T16:36:26.239Z</time></trkpt><trkpt lat="45.0711418" lon="8.213476"><ele>278.0</ele><time>2026-04-18T16:36:27.239Z</time></trkpt><trkpt lat="45.0711991" lon="8.2132855"><ele>276.5</ele><time>2026-04-18T16:36:28.239Z</time></trkpt><trkpt lat="45.0712626" lon="8.2131155"><ele>275.0</ele><time>2026-04-18T16:36:29.238Z</time></trkpt><trkpt lat="45.0713293" lon="8.2129431"><ele>273.25</ele><time>2026-04-18T16:36:30.239Z</time></trkpt><trkpt lat="45.0713959" lon="8.2127736"><ele>271.5</ele><time>2026-04-18T16:36:31.238Z</time></trkpt><trkpt lat="45.0714529" lon="8.2126062"><ele>269.75</ele><time>2026-04-18T16:36:32.239Z</time></trkpt><trkpt lat="45.0715246" lon="8.2124542"><ele>268.0</ele><time>2026-04-18T16:36:33.238Z</time></trkpt><trkpt lat="45.0715899" lon="8.2123099"><ele>270.0</ele><time>2026-04-18T16:36:34.238Z</time></trkpt><trkpt lat="45.0716748" lon="8.2121955"><ele>272.0</ele><time>2026-04-18T16:36:35.239Z</time></trkpt><trkpt lat="45.0717677" lon="8.2120809"><ele>274.0</ele><time>2026-04-18T16:36:36.238Z</time></trkpt><trkpt lat="45.0718358" lon="8.211973"><ele>276.0</ele><time>2026-04-18T16:36:37.238Z</time></trkpt><trkpt lat="45.0718671" lon="8.2118114"><ele>276.0</ele><time>2026-04-18T16:36:38.238Z</time></trkpt><trkpt lat="45.0719013" lon="8.2116723"><ele>276.0</ele><time>2026-04-18T16:36:39.238Z</time></trkpt><trkpt lat="45.0718948" lon="8.211512"><ele>276.0</ele><time>2026-04-18T16:36:40.238Z</time></trkpt><trkpt lat="45.0718276" lon="8.2113156"><ele>276.0</ele><time>2026-04-18T16:36:41.239Z</time></trkpt><trkpt lat="45.0717843" lon="8.211133"><ele>276.75</ele><time>2026-04-18T16:36:42.238Z</time></trkpt><trkpt lat="45.0717351" lon="8.2109531"><ele>277.5</ele><time>2026-04-18T16:36:43.239Z</time></trkpt><trkpt lat="45.0716719" lon="8.210777"><ele>278.25</ele><time>2026-04-18T16:36:44.238Z</time></trkpt><trkpt lat="45.0716189" lon="8.2105979"><ele>279.0</ele><time>2026-04-18T16:36:45.238Z</time></trkpt><trkpt lat="45.0715742" lon="8.2104192"><ele>280.25</ele><time>2026-04-18T16:36:46.238Z</time></trkpt><trkpt lat="45.0715531" lon="8.2102387"><ele>281.5</ele><time>2026-04-18T16:36:47.239Z</time></trkpt><trkpt lat="45.0715606" lon="8.2100698"><ele>282.75</ele><time>2026-04-18T16:36:48.239Z</time></trkpt><trkpt lat="45.0716044" lon="8.2098881"><ele>284.0</ele><time>2026-04-18T16:36:49.238Z</time></trkpt><trkpt lat="45.0716303" lon="8.2096785"><ele>284.0</ele><time>2026-04-18T16:36:50.238Z</time></trkpt><trkpt lat="45.0716512" lon="8.2094695"><ele>284.0</ele><time>2026-04-18T16:36:51.239Z</time></trkpt><trkpt lat="45.0716637" lon="8.2092611"><ele>284.0</ele><time>2026-04-18T16:36:52.238Z</time></trkpt><trkpt lat="45.0716898" lon="8.2090467"><ele>284.33333333333337</ele><time>2026-04-18T16:36:53.238Z</time></trkpt><trkpt lat="45.0717138" lon="8.2088335"><ele>284.6666666666667</ele><time>2026-04-18T16:36:54.238Z</time></trkpt><trkpt lat="45.0717385" lon="8.2086222"><ele>285.0</ele><time>2026-04-18T16:36:55.238Z</time></trkpt><trkpt lat="45.0717777" lon="8.2084198"><ele>285.0</ele><time>2026-04-18T16:36:56.238Z</time></trkpt><trkpt lat="45.0718132" lon="8.2082244"><ele>285.0</ele><time>2026-04-18T16:36:57.238Z</time></trkpt><trkpt lat="45.0718236" lon="8.2080116"><ele>285.0</ele><time>2026-04-18T16:36:58.238Z</time></trkpt><trkpt lat="45.0718291" lon="8.2078153"><ele>285.0</ele><time>2026-04-18T16:36:59.238Z</time></trkpt><trkpt lat="45.0718142" lon="8.2076324"><ele>285.5</ele><time>2026-04-18T16:37:00.238Z</time></trkpt><trkpt lat="45.0718013" lon="8.207449"><ele>286.0</ele><time>2026-04-18T16:37:01.239Z</time></trkpt><trkpt lat="45.0717242" lon="8.2072568"><ele>286.5</ele><time>2026-04-18T16:37:02.238Z</time></trkpt><trkpt lat="45.0716738" lon="8.2070888"><ele>287.0</ele><time>2026-04-18T16:37:03.238Z</time></trkpt><trkpt lat="45.0716206" lon="8.2069243"><ele>285.5</ele><time>2026-04-18T16:37:04.238Z</time></trkpt><trkpt lat="45.0715595" lon="8.2067502"><ele>284.0</ele><time>2026-04-18T16:37:05.239Z</time></trkpt><trkpt lat="45.0714912" lon="8.2066104"><ele>282.5</ele><time>2026-04-18T16:37:06.238Z</time></trkpt><trkpt lat="45.071395" lon="8.2064767"><ele>281.0</ele><time>2026-04-18T16:37:07.239Z</time></trkpt><trkpt lat="45.0713072" lon="8.206354"><ele>281.0</ele><time>2026-04-18T16:37:08.238Z</time></trkpt><trkpt lat="45.0712139" lon="8.2062198"><ele>281.0</ele><time>2026-04-18T16:37:09.239Z</time></trkpt><trkpt lat="45.0711464" lon="8.2061212"><ele>281.0</ele><time>2026-04-18T16:37:10.238Z</time></trkpt><trkpt lat="45.0710729" lon="8.2060156"><ele>281.0</ele><time>2026-04-18T16:37:11.238Z</time></trkpt><trkpt lat="45.0710049" lon="8.2058946"><ele>281.0</ele><time>2026-04-18T16:37:12.239Z</time></trkpt><trkpt lat="45.0709767" lon="8.2057894"><ele>280.40000000000003</ele><time>2026-04-18T16:37:13.238Z</time></trkpt><trkpt lat="45.0709771" lon="8.2056271"><ele>279.8</ele><time>2026-04-18T16:37:14.238Z</time></trkpt><trkpt lat="45.0709683" lon="8.2054808"><ele>279.20000000000005</ele><time>2026-04-18T16:37:15.239Z</time></trkpt><trkpt lat="45.0709734" lon="8.2053593"><ele>278.6</ele><time>2026-04-18T16:37:16.238Z</time></trkpt><trkpt lat="45.0709949" lon="8.2052469"><ele>278.0</ele><time>2026-04-18T16:37:17.238Z</time></trkpt><trkpt lat="45.07103" lon="8.2051546"><ele>278.0</ele><time>2026-04-18T16:37:18.239Z</time></trkpt><trkpt lat="45.0711246" lon="8.2051055"><ele>278.0</ele><time>2026-04-18T16:37:19.238Z</time></trkpt><trkpt lat="45.0712241" lon="8.2050655"><ele>278.0</ele><time>2026-04-18T16:37:20.238Z</time></trkpt><trkpt lat="45.0713649" lon="8.2050504"><ele>278.0</ele><time>2026-04-18T16:37:21.238Z</time></trkpt><trkpt lat="45.0715545" lon="8.2051639"><ele>277.5</ele><time>2026-04-18T16:37:22.238Z</time></trkpt><trkpt lat="45.0717001" lon="8.2052224"><ele>277.0</ele><time>2026-04-18T16:37:23.238Z</time></trkpt><trkpt lat="45.0718412" lon="8.2052765"><ele>276.5</ele><time>2026-04-18T16:37:24.238Z</time></trkpt><trkpt lat="45.0719678" lon="8.2052772"><ele>276.0</ele><time>2026-04-18T16:37:25.238Z</time></trkpt><trkpt lat="45.0720926" lon="8.2052796"><ele>276.0</ele><time>2026-04-18T16:37:26.238Z</time></trkpt><trkpt lat="45.0722144" lon="8.205225"><ele>276.0</ele><time>2026-04-18T16:37:27.238Z</time></trkpt><trkpt lat="45.0723444" lon="8.2051539"><ele>276.0</ele><time>2026-04-18T16:37:28.238Z</time></trkpt><trkpt lat="45.0724705" lon="8.20507"><ele>276.0</ele><time>2026-04-18T16:37:29.238Z</time></trkpt><trkpt lat="45.0725922" lon="8.2049959"><ele>276.5</ele><time>2026-04-18T16:37:30.238Z</time></trkpt><trkpt lat="45.0727392" lon="8.2049077"><ele>277.0</ele><time>2026-04-18T16:37:31.238Z</time></trkpt><trkpt lat="45.0728548" lon="8.2048108"><ele>277.5</ele><time>2026-04-18T16:37:32.238Z</time></trkpt><trkpt lat="45.072978" lon="8.2047341"><ele>278.0</ele><time>2026-04-18T16:37:33.238Z</time></trkpt><trkpt lat="45.0730971" lon="8.2047122"><ele>275.75</ele><time>2026-04-18T16:37:34.239Z</time></trkpt><trkpt lat="45.0732245" lon="8.2046886"><ele>273.5</ele><time>2026-04-18T16:37:35.238Z</time></trkpt><trkpt lat="45.0733235" lon="8.2046905"><ele>271.25</ele><time>2026-04-18T16:37:36.238Z</time></trkpt><trkpt lat="45.0734663" lon="8.2047284"><ele>269.0</ele><time>2026-04-18T16:37:37.238Z</time></trkpt><trkpt lat="45.0735653" lon="8.2048042"><ele>271.2</ele><time>2026-04-18T16:37:38.238Z</time></trkpt><trkpt lat="45.0736648" lon="8.2048639"><ele>273.4</ele><time>2026-04-18T16:37:39.238Z</time></trkpt><trkpt lat="45.0737815" lon="8.2049344"><ele>275.6</ele><time>2026-04-18T16:37:40.239Z</time></trkpt><trkpt lat="45.0738425" lon="8.2049737"><ele>277.8</ele><time>2026-04-18T16:37:41.239Z</time></trkpt><trkpt lat="45.0739601" lon="8.204994"><ele>280.0</ele><time>2026-04-18T16:37:42.238Z</time></trkpt><trkpt lat="45.0740535" lon="8.2050043"><ele>279.8</ele><time>2026-04-18T16:37:43.238Z</time></trkpt><trkpt lat="45.0741493" lon="8.204905"><ele>279.6</ele><time>2026-04-18T16:37:44.239Z</time></trkpt><trkpt lat="45.0742447" lon="8.2048241"><ele>279.4</ele><time>2026-04-18T16:37:45.239Z</time></trkpt><trkpt lat="45.0743023" lon="8.2047084"><ele>279.2</ele><time>2026-04-18T16:37:46.239Z</time></trkpt><trkpt lat="45.074335" lon="8.2045685"><ele>279.0</ele><time>2026-04-18T16:37:47.238Z</time></trkpt><trkpt lat="45.0743308" lon="8.2044149"><ele>278.0</ele><time>2026-04-18T16:37:48.238Z</time></trkpt><trkpt lat="45.0742602" lon="8.20424"><ele>277.0</ele><time>2026-04-18T16:37:49.238Z</time></trkpt><trkpt lat="45.0742064" lon="8.2041025"><ele>276.0</ele><time>2026-04-18T16:37:50.238Z</time></trkpt><trkpt lat="45.0741325" lon="8.2039473"><ele>275.0</ele><time>2026-04-18T16:37:51.238Z</time></trkpt><trkpt lat="45.0740115" lon="8.2038316"><ele>272.25</ele><time>2026-04-18T16:37:52.238Z</time></trkpt><trkpt lat="45.0739157" lon="8.2036707"><ele>269.5</ele><time>2026-04-18T16:37:53.238Z</time></trkpt><trkpt lat="45.0738172" lon="8.2035173"><ele>266.75</ele><time>2026-04-18T16:37:54.238Z</time></trkpt><trkpt lat="45.073728" lon="8.2033551"><ele>264.0</ele><time>2026-04-18T16:37:55.238Z</time></trkpt><trkpt lat="45.0736529" lon="8.2031799"><ele>267.3333333333333</ele><time>2026-04-18T16:37:56.239Z</time></trkpt><trkpt lat="45.0735663" lon="8.2029961"><ele>270.66666666666663</ele><time>2026-04-18T16:37:57.239Z</time></trkpt><trkpt lat="45.0734939" lon="8.2027958"><ele>274.0</ele><time>2026-04-18T16:37:58.238Z</time></trkpt><trkpt lat="45.0734347" lon="8.202619"><ele>274.0</ele><time>2026-04-18T16:37:59.238Z</time></trkpt><trkpt lat="45.0734036" lon="8.2024391"><ele>274.0</ele><time>2026-04-18T16:38:00.239Z</time></trkpt><trkpt lat="45.0733835" lon="8.2022397"><ele>274.0</ele><time>2026-04-18T16:38:01.239Z</time></trkpt><trkpt lat="45.0733782" lon="8.2020229"><ele>274.0</ele><time>2026-04-18T16:38:02.239Z</time></trkpt><trkpt lat="45.0733743" lon="8.2018263"><ele>274.66666666666663</ele><time>2026-04-18T16:38:03.238Z</time></trkpt><trkpt lat="45.0733591" lon="8.2016201"><ele>275.3333333333333</ele><time>2026-04-18T16:38:04.238Z</time></trkpt><trkpt lat="45.073312" lon="8.2014003"><ele>276.0</ele><time>2026-04-18T16:38:05.238Z</time></trkpt><trkpt lat="45.0732568" lon="8.2011969"><ele>275.25</ele><time>2026-04-18T16:38:06.239Z</time></trkpt><trkpt lat="45.0731918" lon="8.2010172"><ele>274.5</ele><time>2026-04-18T16:38:07.238Z</time></trkpt><trkpt lat="45.0731123" lon="8.2008367"><ele>273.75</ele><time>2026-04-18T16:38:08.239Z</time></trkpt><trkpt lat="45.0730452" lon="8.2006623"><ele>273.0</ele><time>2026-04-18T16:38:09.238Z</time></trkpt><trkpt lat="45.0729668" lon="8.2004787"><ele>273.0</ele><time>2026-04-18T16:38:10.239Z</time></trkpt><trkpt lat="45.0729" lon="8.2003031"><ele>273.0</ele><time>2026-04-18T16:38:11.238Z</time></trkpt><trkpt lat="45.0728324" lon="8.2001314"><ele>273.0</ele><time>2026-04-18T16:38:12.238Z</time></trkpt><trkpt lat="45.0727577" lon="8.1999622"><ele>273.0</ele><time>2026-04-18T16:38:13.238Z</time></trkpt><trkpt lat="45.072679" lon="8.1998006"><ele>274.5</ele><time>2026-04-18T16:38:14.239Z</time></trkpt><trkpt lat="45.0726223" lon="8.1996309"><ele>276.0</ele><time>2026-04-18T16:38:15.239Z</time></trkpt><trkpt lat="45.0725436" lon="8.1994544"><ele>277.5</ele><time>2026-04-18T16:38:16.238Z</time></trkpt><trkpt lat="45.0724798" lon="8.1992934"><ele>279.0</ele><time>2026-04-18T16:38:17.239Z</time></trkpt><trkpt lat="45.0724068" lon="8.199133"><ele>274.4</ele><time>2026-04-18T16:38:18.238Z</time></trkpt><trkpt lat="45.0723371" lon="8.1989723"><ele>269.79999999999995</ele><time>2026-04-18T16:38:19.238Z</time></trkpt><trkpt lat="45.0722975" lon="8.1988222"><ele>265.20000000000005</ele><time>2026-04-18T16:38:20.239Z</time></trkpt><trkpt lat="45.0722937" lon="8.1986889"><ele>260.6</ele><time>2026-04-18T16:38:21.238Z</time></trkpt><trkpt lat="45.0723171" lon="8.1985478"><ele>256.0</ele><time>2026-04-18T16:38:22.239Z</time></trkpt><trkpt lat="45.0723686" lon="8.1984346"><ele>257.5</ele><time>2026-04-18T16:38:23.239Z</time></trkpt><trkpt lat="45.0724625" lon="8.198313"><ele>259.0</ele><time>2026-04-18T16:38:24.238Z</time></trkpt><trkpt lat="45.072558" lon="8.1982366"><ele>260.5</ele><time>2026-04-18T16:38:25.238Z</time></trkpt><trkpt lat="45.0726915" lon="8.1981331"><ele>262.0</ele><time>2026-04-18T16:38:26.238Z</time></trkpt><trkpt lat="45.0728302" lon="8.1979661"><ele>262.0</ele><time>2026-04-18T16:38:27.238Z</time></trkpt><trkpt lat="45.0729342" lon="8.1978407"><ele>262.0</ele><time>2026-04-18T16:38:28.238Z</time></trkpt><trkpt lat="45.0730498" lon="8.1977168"><ele>262.0</ele><time>2026-04-18T16:38:29.239Z</time></trkpt><trkpt lat="45.0731803" lon="8.1976355"><ele>262.0</ele><time>2026-04-18T16:38:30.238Z</time></trkpt><trkpt lat="45.0733133" lon="8.1976132"><ele>264.0</ele><time>2026-04-18T16:38:31.238Z</time></trkpt><trkpt lat="45.0734496" lon="8.1975747"><ele>266.0</ele><time>2026-04-18T16:38:32.238Z</time></trkpt><trkpt lat="45.0735973" lon="8.1976464"><ele>268.0</ele><time>2026-04-18T16:38:33.238Z</time></trkpt><trkpt lat="45.0737235" lon="8.1976734"><ele>270.0</ele><time>2026-04-18T16:38:34.239Z</time></trkpt><trkpt lat="45.0738624" lon="8.1976842"><ele>270.0</ele><time>2026-04-18T16:38:35.238Z</time></trkpt><trkpt lat="45.0739963" lon="8.1976276"><ele>270.0</ele><time>2026-04-18T16:38:36.239Z</time></trkpt><trkpt lat="45.0741372" lon="8.1975238"><ele>270.0</ele><time>2026-04-18T16:38:37.238Z</time></trkpt><trkpt lat="45.0742611" lon="8.197445"><ele>270.0</ele><time>2026-04-18T16:38:38.238Z</time></trkpt><trkpt lat="45.0744" lon="8.1973964"><ele>270.25</ele><time>2026-04-18T16:38:39.239Z</time></trkpt><trkpt lat="45.0745348" lon="8.1973526"><ele>270.5</ele><time>2026-04-18T16:38:40.238Z</time></trkpt><trkpt lat="45.0746741" lon="8.1973576"><ele>270.75</ele><time>2026-04-18T16:38:41.238Z</time></trkpt><trkpt lat="45.0748178" lon="8.1973405"><ele>271.0</ele><time>2026-04-18T16:38:42.238Z</time></trkpt><trkpt lat="45.0749512" lon="8.1973192"><ele>271.0</ele><time>2026-04-18T16:38:43.238Z</time></trkpt><trkpt lat="45.0750853" lon="8.1972762"><ele>271.0</ele><time>2026-04-18T16:38:44.238Z</time></trkpt><trkpt lat="45.0752187" lon="8.1972669"><ele>271.0</ele><time>2026-04-18T16:38:45.238Z</time></trkpt><trkpt lat="45.0752951" lon="8.197222"><ele>271.0</ele><time>2026-04-18T16:38:46.238Z</time></trkpt><trkpt lat="45.07531" lon="8.1970708"><ele>271.0</ele><time>2026-04-18T16:38:47.238Z</time></trkpt><trkpt lat="45.0753685" lon="8.1969601"><ele>271.0</ele><time>2026-04-18T16:38:48.238Z</time></trkpt><trkpt lat="45.0754116" lon="8.19686"><ele>271.0</ele><time>2026-04-18T16:38:49.238Z</time></trkpt><trkpt lat="45.0754977" lon="8.1967423"><ele>271.0</ele><time>2026-04-18T16:38:50.239Z</time></trkpt><trkpt lat="45.0755445" lon="8.1965582"><ele>271.0</ele><time>2026-04-18T16:38:51.238Z</time></trkpt><trkpt lat="45.0755573" lon="8.1963359"><ele>270.0</ele><time>2026-04-18T16:38:52.238Z</time></trkpt><trkpt lat="45.0755882" lon="8.1961735"><ele>269.0</ele><time>2026-04-18T16:38:53.239Z</time></trkpt><trkpt lat="45.0756804" lon="8.1960209"><ele>268.0</ele><time>2026-04-18T16:38:54.239Z</time></trkpt><trkpt lat="45.0757701" lon="8.195868"><ele>267.0</ele><time>2026-04-18T16:38:55.238Z</time></trkpt><trkpt lat="45.0758682" lon="8.1957258"><ele>267.25</ele><time>2026-04-18T16:38:56.238Z</time></trkpt><trkpt lat="45.0759684" lon="8.1955718"><ele>267.5</ele><time>2026-04-18T16:38:57.238Z</time></trkpt><trkpt lat="45.0760697" lon="8.1954723"><ele>267.75</ele><time>2026-04-18T16:38:58.238Z</time></trkpt><trkpt lat="45.076178" lon="8.1954005"><ele>268.0</ele><time>2026-04-18T16:38:59.238Z</time></trkpt><trkpt lat="45.0762899" lon="8.1954012"><ele>268.0</ele><time>2026-04-18T16:39:00.239Z</time></trkpt><trkpt lat="45.0764101" lon="8.1953676"><ele>268.0</ele><time>2026-04-18T16:39:01.239Z</time></trkpt><trkpt lat="45.0765209" lon="8.1953979"><ele>268.0</ele><time>2026-04-18T16:39:02.239Z</time></trkpt><trkpt lat="45.0766347" lon="8.1954271"><ele>268.0</ele><time>2026-04-18T16:39:03.238Z</time></trkpt><trkpt lat="45.0767377" lon="8.195467"><ele>269.4</ele><time>2026-04-18T16:39:04.238Z</time></trkpt><trkpt lat="45.0768457" lon="8.1954745"><ele>270.8</ele><time>2026-04-18T16:39:05.239Z</time></trkpt><trkpt lat="45.0769463" lon="8.1954604"><ele>272.2</ele><time>2026-04-18T16:39:06.238Z</time></trkpt><trkpt lat="45.0770374" lon="8.1953898"><ele>273.6</ele><time>2026-04-18T16:39:07.239Z</time></trkpt><trkpt lat="45.0770946" lon="8.1952458"><ele>275.0</ele><time>2026-04-18T16:39:08.238Z</time></trkpt><trkpt lat="45.0771804" lon="8.1950971"><ele>275.0</ele><time>2026-04-18T16:39:09.238Z</time></trkpt><trkpt lat="45.0772469" lon="8.194935"><ele>275.0</ele><time>2026-04-18T16:39:10.238Z</time></trkpt><trkpt lat="45.0773154" lon="8.1947581"><ele>275.0</ele><time>2026-04-18T16:39:11.238Z</time></trkpt><trkpt lat="45.0774004" lon="8.1945831"><ele>275.0</ele><time>2026-04-18T16:39:12.238Z</time></trkpt><trkpt lat="45.0774925" lon="8.1944264"><ele>275.0</ele><time>2026-04-18T16:39:13.238Z</time></trkpt><trkpt lat="45.077587" lon="8.1942807"><ele>275.0</ele><time>2026-04-18T16:39:14.238Z</time></trkpt><trkpt lat="45.0776808" lon="8.1941237"><ele>275.0</ele><time>2026-04-18T16:39:15.238Z</time></trkpt><trkpt lat="45.0777801" lon="8.1939808"><ele>275.0</ele><time>2026-04-18T16:39:16.238Z</time></trkpt><trkpt lat="45.0778872" lon="8.1938583"><ele>275.0</ele><time>2026-04-18T16:39:17.238Z</time></trkpt><trkpt lat="45.0780069" lon="8.1937214"><ele>275.0</ele><time>2026-04-18T16:39:18.238Z</time></trkpt><trkpt lat="45.0781308" lon="8.1935956"><ele>275.0</ele><time>2026-04-18T16:39:19.239Z</time></trkpt><trkpt lat="45.0782431" lon="8.1934898"><ele>275.0</ele><time>2026-04-18T16:39:20.238Z</time></trkpt><trkpt lat="45.0783659" lon="8.1933724"><ele>277.25</ele><time>2026-04-18T16:39:21.238Z</time></trkpt><trkpt lat="45.078503" lon="8.1932716"><ele>279.5</ele><time>2026-04-18T16:39:22.238Z</time></trkpt><trkpt lat="45.0785912" lon="8.193209"><ele>281.75</ele><time>2026-04-18T16:39:23.238Z</time></trkpt><trkpt lat="45.078724" lon="8.1932095"><ele>284.0</ele><time>2026-04-18T16:39:24.238Z</time></trkpt><trkpt lat="45.0788785" lon="8.1932609"><ele>284.0</ele><time>2026-04-18T16:39:25.239Z</time></trkpt><trkpt lat="45.0790308" lon="8.1933641"><ele>284.0</ele><time>2026-04-18T16:39:26.238Z</time></trkpt><trkpt lat="45.0791464" lon="8.1934485"><ele>284.0</ele><time>2026-04-18T16:39:27.238Z</time></trkpt><trkpt lat="45.0792975" lon="8.1935553"><ele>286.5</ele><time>2026-04-18T16:39:28.239Z</time></trkpt><trkpt lat="45.0794555" lon="8.1935959"><ele>289.0</ele><time>2026-04-18T16:39:29.238Z</time></trkpt><trkpt lat="45.0796161" lon="8.1936546"><ele>291.5</ele><time>2026-04-18T16:39:30.239Z</time></trkpt><trkpt lat="45.0797379" lon="8.1936622"><ele>294.0</ele><time>2026-04-18T16:39:31.238Z</time></trkpt><trkpt lat="45.0798744" lon="8.1936878"><ele>294.6666666666667</ele><time>2026-04-18T16:39:32.238Z</time></trkpt><trkpt lat="45.0800713" lon="8.1937806"><ele>295.33333333333337</ele><time>2026-04-18T16:39:33.239Z</time></trkpt><trkpt lat="45.0802351" lon="8.1938401"><ele>296.0</ele><time>2026-04-18T16:39:34.238Z</time></trkpt><trkpt lat="45.0803771" lon="8.1938995"><ele>296.0</ele><time>2026-04-18T16:39:35.238Z</time></trkpt><trkpt lat="45.0805221" lon="8.1939173"><ele>296.0</ele><time>2026-04-18T16:39:36.239Z</time></trkpt><trkpt lat="45.0806402" lon="8.1939317"><ele>296.0</ele><time>2026-04-18T16:39:37.239Z</time></trkpt><trkpt lat="45.0807873" lon="8.1939733"><ele>296.0</ele><time>2026-04-18T16:39:38.238Z</time></trkpt><trkpt lat="45.0808823" lon="8.1940112"><ele>297.40000000000003</ele><time>2026-04-18T16:39:39.239Z</time></trkpt><trkpt lat="45.0809701" lon="8.1939773"><ele>298.8</ele><time>2026-04-18T16:39:40.238Z</time></trkpt><trkpt lat="45.0810502" lon="8.1940008"><ele>300.20000000000005</ele><time>2026-04-18T16:39:41.239Z</time></trkpt><trkpt lat="45.0811297" lon="8.1939676"><ele>301.6</ele><time>2026-04-18T16:39:42.238Z</time></trkpt><trkpt lat="45.0812184" lon="8.1938596"><ele>303.0</ele><time>2026-04-18T16:39:43.238Z</time></trkpt><trkpt lat="45.0812984" lon="8.1937348"><ele>303.0</ele><time>2026-04-18T16:39:44.239Z</time></trkpt><trkpt lat="45.0813463" lon="8.19356"><ele>303.0</ele><time>2026-04-18T16:39:45.238Z</time></trkpt><trkpt lat="45.0813904" lon="8.1934011"><ele>303.0</ele><time>2026-04-18T16:39:46.239Z</time></trkpt><trkpt lat="45.0814416" lon="8.1932393"><ele>303.0</ele><time>2026-04-18T16:39:47.238Z</time></trkpt><trkpt lat="45.081445" lon="8.193084"><ele>303.5</ele><time>2026-04-18T16:39:48.238Z</time></trkpt><trkpt lat="45.0814192" lon="8.1928895"><ele>304.0</ele><time>2026-04-18T16:39:49.238Z</time></trkpt><trkpt lat="45.0813662" lon="8.1927189"><ele>304.5</ele><time>2026-04-18T16:39:50.238Z</time></trkpt><trkpt lat="45.0813331" lon="8.1925519"><ele>305.0</ele><time>2026-04-18T16:39:51.238Z</time></trkpt><trkpt lat="45.0811742" lon="8.1924274"><ele>309.5</ele><time>2026-04-18T16:39:52.238Z</time></trkpt><trkpt lat="45.0810933" lon="8.192291"><ele>314.0</ele><time>2026-04-18T16:39:53.239Z</time></trkpt><trkpt lat="45.0810145" lon="8.1921367"><ele>318.5</ele><time>2026-04-18T16:39:54.238Z</time></trkpt><trkpt lat="45.0809716" lon="8.1919871"><ele>323.0</ele><time>2026-04-18T16:39:55.238Z</time></trkpt><trkpt lat="45.0809185" lon="8.1918375"><ele>323.0</ele><time>2026-04-18T16:39:56.238Z</time></trkpt><trkpt lat="45.0808756" lon="8.1917016"><ele>323.0</ele><time>2026-04-18T16:39:57.239Z</time></trkpt><trkpt lat="45.0808144" lon="8.1915887"><ele>323.0</ele><time>2026-04-18T16:39:58.238Z</time></trkpt><trkpt lat="45.0807525" lon="8.1915702"><ele>323.0</ele><time>2026-04-18T16:39:59.238Z</time></trkpt><trkpt lat="45.0806611" lon="8.1915698"><ele>323.0</ele><time>2026-04-18T16:40:00.239Z</time></trkpt><trkpt lat="45.0805424" lon="8.1915318"><ele>323.2</ele><time>2026-04-18T16:40:01.238Z</time></trkpt><trkpt lat="45.0804169" lon="8.1915261"><ele>323.4</ele><time>2026-04-18T16:40:02.238Z</time></trkpt><trkpt lat="45.0803406" lon="8.1914586"><ele>323.59999999999997</ele><time>2026-04-18T16:40:03.238Z</time></trkpt><trkpt lat="45.0802859" lon="8.1913831"><ele>323.79999999999995</ele><time>2026-04-18T16:40:04.238Z</time></trkpt><trkpt lat="45.0802495" lon="8.1912971"><ele>324.0</ele><time>2026-04-18T16:40:05.239Z</time></trkpt><trkpt lat="45.0802395" lon="8.1911552"><ele>324.0</ele><time>2026-04-18T16:40:06.238Z</time></trkpt><trkpt lat="45.0801967" lon="8.1910552"><ele>324.0</ele><time>2026-04-18T16:40:07.238Z</time></trkpt><trkpt lat="45.0801097" lon="8.1909873"><ele>324.0</ele><time>2026-04-18T16:40:08.238Z</time></trkpt><trkpt lat="45.0800051" lon="8.1909431"><ele>324.0</ele><time>2026-04-18T16:40:09.238Z</time></trkpt><trkpt lat="45.0799227" lon="8.1909406"><ele>324.0</ele><time>2026-04-18T16:40:10.239Z</time></trkpt><trkpt lat="45.0798402" lon="8.1909553"><ele>321.4</ele><time>2026-04-18T16:40:11.238Z</time></trkpt><trkpt lat="45.0797505" lon="8.1909362"><ele>318.79999999999995</ele><time>2026-04-18T16:40:12.238Z</time></trkpt><trkpt lat="45.0796733" lon="8.1908862"><ele>316.20000000000005</ele><time>2026-04-18T16:40:13.238Z</time></trkpt><trkpt lat="45.0796345" lon="8.1907964"><ele>313.6</ele><time>2026-04-18T16:40:14.239Z</time></trkpt><trkpt lat="45.0795831" lon="8.1905614"><ele>311.0</ele><time>2026-04-18T16:40:15.239Z</time></trkpt><trkpt lat="45.0795698" lon="8.1904158"><ele>311.0</ele><time>2026-04-18T16:40:16.238Z</time></trkpt><trkpt lat="45.0796392" lon="8.1902168"><ele>311.0</ele><time>2026-04-18T16:40:17.238Z</time></trkpt><trkpt lat="45.0796306" lon="8.1900235"><ele>311.0</ele><time>2026-04-18T16:40:18.238Z</time></trkpt><trkpt lat="45.0796567" lon="8.1898572"><ele>311.0</ele><time>2026-04-18T16:40:19.238Z</time></trkpt><trkpt lat="45.0796463" lon="8.189661"><ele>311.25</ele><time>2026-04-18T16:40:20.238Z</time></trkpt><trkpt lat="45.0796345" lon="8.1894794"><ele>311.5</ele><time>2026-04-18T16:40:21.239Z</time></trkpt><trkpt lat="45.0796418" lon="8.1893049"><ele>311.75</ele><time>2026-04-18T16:40:22.239Z</time></trkpt><trkpt lat="45.0796709" lon="8.1891275"><ele>312.0</ele><time>2026-04-18T16:40:23.239Z</time></trkpt><trkpt lat="45.0797065" lon="8.1889436"><ele>313.0</ele><time>2026-04-18T16:40:24.239Z</time></trkpt><trkpt lat="45.0797577" lon="8.1887654"><ele>314.0</ele><time>2026-04-18T16:40:25.238Z</time></trkpt><trkpt lat="45.0798138" lon="8.1885915"><ele>315.0</ele><time>2026-04-18T16:40:26.239Z</time></trkpt><trkpt lat="45.0798713" lon="8.1884191"><ele>316.0</ele><time>2026-04-18T16:40:27.238Z</time></trkpt><trkpt lat="45.0799294" lon="8.1882547"><ele>318.75</ele><time>2026-04-18T16:40:28.238Z</time></trkpt><trkpt lat="45.0799935" lon="8.1880837"><ele>321.5</ele><time>2026-04-18T16:40:29.238Z</time></trkpt><trkpt lat="45.0800548" lon="8.1879286"><ele>324.25</ele><time>2026-04-18T16:40:30.238Z</time></trkpt><trkpt lat="45.0800847" lon="8.1877748"><ele>327.0</ele><time>2026-04-18T16:40:31.238Z</time></trkpt><trkpt lat="45.0800569" lon="8.1875853"><ele>327.0</ele><time>2026-04-18T16:40:32.239Z</time></trkpt><trkpt lat="45.0800693" lon="8.1874275"><ele>327.0</ele><time>2026-04-18T16:40:33.238Z</time></trkpt><trkpt lat="45.0801011" lon="8.1872821"><ele>327.0</ele><time>2026-04-18T16:40:34.239Z</time></trkpt><trkpt lat="45.0801328" lon="8.1871306"><ele>327.0</ele><time>2026-04-18T16:40:35.239Z</time></trkpt><trkpt lat="45.0801378" lon="8.1870057"><ele>327.0</ele><time>2026-04-18T16:40:36.238Z</time></trkpt><trkpt lat="45.0801101" lon="8.1868794"><ele>326.0</ele><time>2026-04-18T16:40:37.238Z</time></trkpt><trkpt lat="45.0800767" lon="8.1867407"><ele>325.0</ele><time>2026-04-18T16:40:38.238Z</time></trkpt><trkpt lat="45.080001" lon="8.1865451"><ele>324.0</ele><time>2026-04-18T16:40:39.239Z</time></trkpt><trkpt lat="45.0799341" lon="8.1863728"><ele>323.0</ele><time>2026-04-18T16:40:40.238Z</time></trkpt><trkpt lat="45.0798935" lon="8.1861961"><ele>321.5</ele><time>2026-04-18T16:40:41.238Z</time></trkpt><trkpt lat="45.0798587" lon="8.1860259"><ele>320.0</ele><time>2026-04-18T16:40:42.238Z</time></trkpt><trkpt lat="45.0798459" lon="8.185868"><ele>318.5</ele><time>2026-04-18T16:40:43.239Z</time></trkpt><trkpt lat="45.0798392" lon="8.1856872"><ele>317.0</ele><time>2026-04-18T16:40:44.238Z</time></trkpt><trkpt lat="45.0798578" lon="8.1855506"><ele>317.0</ele><time>2026-04-18T16:40:45.238Z</time></trkpt><trkpt lat="45.0799058" lon="8.1853757"><ele>317.0</ele><time>2026-04-18T16:40:46.238Z</time></trkpt><trkpt lat="45.0799914" lon="8.185284"><ele>317.0</ele><time>2026-04-18T16:40:47.238Z</time></trkpt><trkpt lat="45.0800972" lon="8.1851756"><ele>317.0</ele><time>2026-04-18T16:40:48.239Z</time></trkpt><trkpt lat="45.080211" lon="8.1850876"><ele>315.5</ele><time>2026-04-18T16:40:49.238Z</time></trkpt><trkpt lat="45.0803666" lon="8.1850385"><ele>314.0</ele><time>2026-04-18T16:40:50.238Z</time></trkpt><trkpt lat="45.0804856" lon="8.1849595"><ele>312.5</ele><time>2026-04-18T16:40:51.238Z</time></trkpt><trkpt lat="45.0806039" lon="8.1848566"><ele>311.0</ele><time>2026-04-18T16:40:52.238Z</time></trkpt><trkpt lat="45.0807074" lon="8.1847417"><ele>307.75</ele><time>2026-04-18T16:40:53.239Z</time></trkpt><trkpt lat="45.0808025" lon="8.1846087"><ele>304.5</ele><time>2026-04-18T16:40:54.238Z</time></trkpt><trkpt lat="45.08089" lon="8.1845079"><ele>301.25</ele><time>2026-04-18T16:40:55.238Z</time></trkpt><trkpt lat="45.0809834" lon="8.1844089"><ele>298.0</ele><time>2026-04-18T16:40:56.238Z</time></trkpt><trkpt lat="45.081087" lon="8.1843728"><ele>298.0</ele><time>2026-04-18T16:40:57.238Z</time></trkpt><trkpt lat="45.0811981" lon="8.1843659"><ele>298.0</ele><time>2026-04-18T16:40:58.238Z</time></trkpt><trkpt lat="45.0813056" lon="8.1843491"><ele>298.0</ele><time>2026-04-18T16:40:59.239Z</time></trkpt><trkpt lat="45.0814179" lon="8.1843288"><ele>298.0</ele><time>2026-04-18T16:41:00.238Z</time></trkpt><trkpt lat="45.0815116" lon="8.1842919"><ele>298.0</ele><time>2026-04-18T16:41:01.238Z</time></trkpt><trkpt lat="45.0816152" lon="8.1841965"><ele>299.75</ele><time>2026-04-18T16:41:02.238Z</time></trkpt><trkpt lat="45.0817117" lon="8.1840945"><ele>301.5</ele><time>2026-04-18T16:41:03.239Z</time></trkpt><trkpt lat="45.0818035" lon="8.183943"><ele>303.25</ele><time>2026-04-18T16:41:04.238Z</time></trkpt><trkpt lat="45.0818975" lon="8.1838172"><ele>305.0</ele><time>2026-04-18T16:41:05.238Z</time></trkpt><trkpt lat="45.0819998" lon="8.183691"><ele>301.75</ele><time>2026-04-18T16:41:06.239Z</time></trkpt><trkpt lat="45.0821368" lon="8.1836262"><ele>298.5</ele><time>2026-04-18T16:41:07.238Z</time></trkpt><trkpt lat="45.0822487" lon="8.1835566"><ele>295.25</ele><time>2026-04-18T16:41:08.238Z</time></trkpt><trkpt lat="45.0823605" lon="8.1834675"><ele>292.0</ele><time>2026-04-18T16:41:09.239Z</time></trkpt><trkpt lat="45.08245" lon="8.1834363"><ele>292.0</ele><time>2026-04-18T16:41:10.238Z</time></trkpt><trkpt lat="45.0825442" lon="8.1833762"><ele>292.0</ele><time>2026-04-18T16:41:11.238Z</time></trkpt><trkpt lat="45.0823961" lon="8.1832209"><ele>292.0</ele><time>2026-04-18T16:41:13.238Z</time></trkpt><trkpt lat="45.0822999" lon="8.1832076"><ele>292.0</ele><time>2026-04-18T16:41:15.238Z</time></trkpt><trkpt lat="45.0822247" lon="8.1832197"><ele>290.25</ele><time>2026-04-18T16:41:16.238Z</time></trkpt><trkpt lat="45.0821446" lon="8.1833069"><ele>288.5</ele><time>2026-04-18T16:41:17.238Z</time></trkpt><trkpt lat="45.0820031" lon="8.183467"><ele>286.75</ele><time>2026-04-18T16:41:18.238Z</time></trkpt><trkpt lat="45.0818996" lon="8.1835502"><ele>285.0</ele><time>2026-04-18T16:41:19.239Z</time></trkpt><trkpt lat="45.0817944" lon="8.1836329"><ele>285.0</ele><time>2026-04-18T16:41:20.238Z</time></trkpt><trkpt lat="45.081705" lon="8.1837247"><ele>285.0</ele><time>2026-04-18T16:41:21.238Z</time></trkpt><trkpt lat="45.0816021" lon="8.1837804"><ele>285.0</ele><time>2026-04-18T16:41:22.238Z</time></trkpt><trkpt lat="45.0815028" lon="8.1838208"><ele>285.0</ele><time>2026-04-18T16:41:23.238Z</time></trkpt><trkpt lat="45.0814064" lon="8.1838298"><ele>285.0</ele><time>2026-04-18T16:41:24.238Z</time></trkpt><trkpt lat="45.0813208" lon="8.1838525"><ele>284.1666666666667</ele><time>2026-04-18T16:41:25.239Z</time></trkpt><trkpt lat="45.0812438" lon="8.1837753"><ele>283.3333333333333</ele><time>2026-04-18T16:41:26.238Z</time></trkpt><trkpt lat="45.081146" lon="8.1837423"><ele>282.5</ele><time>2026-04-18T16:41:27.238Z</time></trkpt><trkpt lat="45.0810704" lon="8.1836721"><ele>281.66666666666663</ele><time>2026-04-18T16:41:28.238Z</time></trkpt><trkpt lat="45.0810296" lon="8.1835955"><ele>280.8333333333333</ele><time>2026-04-18T16:41:29.238Z</time></trkpt><trkpt lat="45.0809596" lon="8.1835341"><ele>280.0</ele><time>2026-04-18T16:41:30.238Z</time></trkpt><trkpt lat="45.0808813" lon="8.1834547"><ele>280.0</ele><time>2026-04-18T16:41:31.238Z</time></trkpt><trkpt lat="45.080809" lon="8.1834475"><ele>280.0</ele><time>2026-04-18T16:41:32.239Z</time></trkpt><trkpt lat="45.0807021" lon="8.1835986"><ele>280.0</ele><time>2026-04-18T16:41:33.238Z</time></trkpt><trkpt lat="45.0806064" lon="8.1836565"><ele>280.0</ele><time>2026-04-18T16:41:34.239Z</time></trkpt><trkpt lat="45.0805112" lon="8.1837178"><ele>280.0</ele><time>2026-04-18T16:41:35.238Z</time></trkpt><trkpt lat="45.080449" lon="8.1837856"><ele>278.0</ele><time>2026-04-18T16:41:36.238Z</time></trkpt><trkpt lat="45.0803664" lon="8.1838674"><ele>276.0</ele><time>2026-04-18T16:41:37.238Z</time></trkpt><trkpt lat="45.0802719" lon="8.1839386"><ele>274.0</ele><time>2026-04-18T16:41:38.238Z</time></trkpt><trkpt lat="45.0801629" lon="8.1838155"><ele>272.0</ele><time>2026-04-18T16:41:39.239Z</time></trkpt><trkpt lat="45.0800589" lon="8.1837819"><ele>272.0</ele><time>2026-04-18T16:41:40.238Z</time></trkpt><trkpt lat="45.0799554" lon="8.1837541"><ele>272.0</ele><time>2026-04-18T16:41:41.239Z</time></trkpt><trkpt lat="45.0798583" lon="8.1836773"><ele>272.0</ele><time>2026-04-18T16:41:42.239Z</time></trkpt><trkpt lat="45.0797925" lon="8.1835351"><ele>272.0</ele><time>2026-04-18T16:41:43.238Z</time></trkpt><trkpt lat="45.0797309" lon="8.1833976"><ele>272.4</ele><time>2026-04-18T16:41:44.238Z</time></trkpt><trkpt lat="45.0796936" lon="8.1832852"><ele>272.79999999999995</ele><time>2026-04-18T16:41:45.238Z</time></trkpt><trkpt lat="45.0795716" lon="8.1832843"><ele>273.2</ele><time>2026-04-18T16:41:47.238Z</time></trkpt><trkpt lat="45.0794982" lon="8.1832945"><ele>273.59999999999997</ele><time>2026-04-18T16:41:48.238Z</time></trkpt><trkpt lat="45.0794205" lon="8.1833555"><ele>274.0</ele><time>2026-04-18T16:41:49.238Z</time></trkpt><trkpt lat="45.0793343" lon="8.1834669"><ele>274.0</ele><time>2026-04-18T16:41:51.238Z</time></trkpt><trkpt lat="45.0792484" lon="8.183459"><ele>274.0</ele><time>2026-04-18T16:41:53.239Z</time></trkpt><trkpt lat="45.0793768" lon="8.1831544"><ele>274.0</ele><time>2026-04-18T16:41:55.238Z</time></trkpt><trkpt lat="45.079448" lon="8.1830348"><ele>274.0</ele><time>2026-04-18T16:41:56.238Z</time></trkpt><trkpt lat="45.0794914" lon="8.1829336"><ele>271.2</ele><time>2026-04-18T16:41:57.238Z</time></trkpt><trkpt lat="45.0795403" lon="8.1828661"><ele>268.4</ele><time>2026-04-18T16:41:58.239Z</time></trkpt><trkpt lat="45.0796014" lon="8.1828134"><ele>265.6</ele><time>2026-04-18T16:41:59.238Z</time></trkpt><trkpt lat="45.0797408" lon="8.1828413"><ele>262.8</ele><time>2026-04-18T16:42:01.239Z</time></trkpt><trkpt lat="45.0798082" lon="8.1828969"><ele>260.0</ele><time>2026-04-18T16:42:02.238Z</time></trkpt><trkpt lat="45.079867" lon="8.1830162"><ele>260.0</ele><time>2026-04-18T16:42:03.238Z</time></trkpt><trkpt lat="45.0799245" lon="8.1830846"><ele>260.0</ele><time>2026-04-18T16:42:04.238Z</time></trkpt><trkpt lat="45.0800577" lon="8.1830373"><ele>260.0</ele><time>2026-04-18T16:42:05.238Z</time></trkpt><trkpt lat="45.080164" lon="8.1830795"><ele>260.0</ele><time>2026-04-18T16:42:06.238Z</time></trkpt><trkpt lat="45.0802619" lon="8.1830593"><ele>260.0</ele><time>2026-04-18T16:42:07.239Z</time></trkpt><trkpt lat="45.08031" lon="8.1828915"><ele>260.2</ele><time>2026-04-18T16:42:08.239Z</time></trkpt><trkpt lat="45.0803671" lon="8.1827659"><ele>260.4</ele><time>2026-04-18T16:42:09.238Z</time></trkpt><trkpt lat="45.0804276" lon="8.1826446"><ele>260.6</ele><time>2026-04-18T16:42:10.239Z</time></trkpt><trkpt lat="45.0804919" lon="8.1825051"><ele>260.8</ele><time>2026-04-18T16:42:11.239Z</time></trkpt><trkpt lat="45.0805218" lon="8.1823396"><ele>261.0</ele><time>2026-04-18T16:42:12.238Z</time></trkpt><trkpt lat="45.0805477" lon="8.1822248"><ele>259.1666666666667</ele><time>2026-04-18T16:42:13.238Z</time></trkpt><trkpt lat="45.0806057" lon="8.1821168"><ele>257.3333333333333</ele><time>2026-04-18T16:42:14.239Z</time></trkpt><trkpt lat="45.0806598" lon="8.1820447"><ele>255.5</ele><time>2026-04-18T16:42:15.238Z</time></trkpt><trkpt lat="45.0807214" lon="8.1820236"><ele>253.66666666666666</ele><time>2026-04-18T16:42:16.238Z</time></trkpt><trkpt lat="45.0808016" lon="8.1820272"><ele>251.83333333333331</ele><time>2026-04-18T16:42:17.239Z</time></trkpt><trkpt lat="45.0808697" lon="8.182054"><ele>250.0</ele><time>2026-04-18T16:42:18.238Z</time></trkpt><trkpt lat="45.0809806" lon="8.1820872"><ele>249.6</ele><time>2026-04-18T16:42:19.238Z</time></trkpt><trkpt lat="45.0811097" lon="8.1821131"><ele>249.2</ele><time>2026-04-18T16:42:20.238Z</time></trkpt><trkpt lat="45.0812292" lon="8.1821362"><ele>248.8</ele><time>2026-04-18T16:42:21.238Z</time></trkpt><trkpt lat="45.0813073" lon="8.1821011"><ele>248.4</ele><time>2026-04-18T16:42:22.239Z</time></trkpt><trkpt lat="45.0813865" lon="8.182021"><ele>248.0</ele><time>2026-04-18T16:42:23.238Z</time></trkpt><trkpt lat="45.0814645" lon="8.1817503"><ele>248.0</ele><time>2026-04-18T16:42:24.238Z</time></trkpt><trkpt lat="45.081551" lon="8.1816174"><ele>248.0</ele><time>2026-04-18T16:42:25.238Z</time></trkpt><trkpt lat="45.0816453" lon="8.1815064"><ele>248.0</ele><time>2026-04-18T16:42:26.238Z</time></trkpt><trkpt lat="45.0817463" lon="8.1814101"><ele>248.0</ele><time>2026-04-18T16:42:27.239Z</time></trkpt><trkpt lat="45.0818608" lon="8.1813268"><ele>246.0</ele><time>2026-04-18T16:42:28.238Z</time></trkpt><trkpt lat="45.0819719" lon="8.1812539"><ele>244.0</ele><time>2026-04-18T16:42:29.238Z</time></trkpt><trkpt lat="45.0820766" lon="8.1811725"><ele>242.0</ele><time>2026-04-18T16:42:30.238Z</time></trkpt><trkpt lat="45.0821753" lon="8.181055"><ele>240.0</ele><time>2026-04-18T16:42:31.238Z</time></trkpt><trkpt lat="45.0822405" lon="8.1809133"><ele>240.0</ele><time>2026-04-18T16:42:32.239Z</time></trkpt><trkpt lat="45.082304" lon="8.1807608"><ele>240.0</ele><time>2026-04-18T16:42:33.238Z</time></trkpt><trkpt lat="45.0823542" lon="8.1805817"><ele>240.0</ele><time>2026-04-18T16:42:34.238Z</time></trkpt><trkpt lat="45.0824067" lon="8.1803991"><ele>240.0</ele><time>2026-04-18T16:42:35.239Z</time></trkpt><trkpt lat="45.0824409" lon="8.1802464"><ele>238.6</ele><time>2026-04-18T16:42:36.238Z</time></trkpt><trkpt lat="45.0824892" lon="8.1800562"><ele>237.2</ele><time>2026-04-18T16:42:37.239Z</time></trkpt><trkpt lat="45.0825215" lon="8.1799608"><ele>235.8</ele><time>2026-04-18T16:42:38.238Z</time></trkpt><trkpt lat="45.0825805" lon="8.1798446"><ele>234.4</ele><time>2026-04-18T16:42:39.238Z</time></trkpt><trkpt lat="45.0826466" lon="8.1797366"><ele>233.0</ele><time>2026-04-18T16:42:40.238Z</time></trkpt><trkpt lat="45.0827048" lon="8.1796549"><ele>230.4</ele><time>2026-04-18T16:42:41.238Z</time></trkpt><trkpt lat="45.0827803" lon="8.17957"><ele>227.8</ele><time>2026-04-18T16:42:42.238Z</time></trkpt><trkpt lat="45.0828897" lon="8.179544"><ele>225.2</ele><time>2026-04-18T16:42:43.238Z</time></trkpt><trkpt lat="45.0829964" lon="8.1795656"><ele>222.6</ele><time>2026-04-18T16:42:44.238Z</time></trkpt><trkpt lat="45.0830975" lon="8.1795606"><ele>220.0</ele><time>2026-04-18T16:42:45.239Z</time></trkpt><trkpt lat="45.0831898" lon="8.1796202"><ele>220.0</ele><time>2026-04-18T16:42:46.238Z</time></trkpt><trkpt lat="45.0832893" lon="8.1798205"><ele>220.0</ele><time>2026-04-18T16:42:47.238Z</time></trkpt><trkpt lat="45.083388" lon="8.1799238"><ele>220.0</ele><time>2026-04-18T16:42:48.238Z</time></trkpt><trkpt lat="45.0834803" lon="8.1800197"><ele>220.0</ele><time>2026-04-18T16:42:49.239Z</time></trkpt><trkpt lat="45.0835658" lon="8.1801257"><ele>222.5</ele><time>2026-04-18T16:42:50.239Z</time></trkpt><trkpt lat="45.0836499" lon="8.1802256"><ele>225.0</ele><time>2026-04-18T16:42:51.238Z</time></trkpt><trkpt lat="45.0836899" lon="8.1803558"><ele>227.5</ele><time>2026-04-18T16:42:52.238Z</time></trkpt><trkpt lat="45.0837395" lon="8.1805005"><ele>230.0</ele><time>2026-04-18T16:42:53.238Z</time></trkpt><trkpt lat="45.08362" lon="8.1806043"><ele>230.6</ele><time>2026-04-18T16:42:54.238Z</time></trkpt><trkpt lat="45.0835734" lon="8.1807294"><ele>231.2</ele><time>2026-04-18T16:42:55.238Z</time></trkpt><trkpt lat="45.083538" lon="8.1808473"><ele>231.8</ele><time>2026-04-18T16:42:56.238Z</time></trkpt><trkpt lat="45.0835238" lon="8.1809787"><ele>232.4</ele><time>2026-04-18T16:42:57.239Z</time></trkpt><trkpt lat="45.0835265" lon="8.1811"><ele>233.0</ele><time>2026-04-18T16:42:58.238Z</time></trkpt><trkpt lat="45.0835569" lon="8.1812052"><ele>233.00000000000003</ele><time>2026-04-18T16:42:59.238Z</time></trkpt><trkpt lat="45.0836177" lon="8.1812981"><ele>233.0</ele><time>2026-04-18T16:43:00.239Z</time></trkpt><trkpt lat="45.0836952" lon="8.181367"><ele>233.0</ele><time>2026-04-18T16:43:01.239Z</time></trkpt><trkpt lat="45.083781" lon="8.1813808"><ele>233.0</ele><time>2026-04-18T16:43:02.238Z</time></trkpt><trkpt lat="45.0838554" lon="8.1813209"><ele>233.00000000000003</ele><time>2026-04-18T16:43:03.238Z</time></trkpt><trkpt lat="45.0839317" lon="8.1812592"><ele>233.0</ele><time>2026-04-18T16:43:04.238Z</time></trkpt><trkpt lat="45.0839687" lon="8.1811103"><ele>233.0</ele><time>2026-04-18T16:43:05.238Z</time></trkpt><trkpt lat="45.0840023" lon="8.1809848"><ele>233.0</ele><time>2026-04-18T16:43:06.239Z</time></trkpt><trkpt lat="45.0840342" lon="8.1808639"><ele>233.0</ele><time>2026-04-18T16:43:07.238Z</time></trkpt><trkpt lat="45.0840741" lon="8.1807591"><ele>233.0</ele><time>2026-04-18T16:43:08.239Z</time></trkpt><trkpt lat="45.0841307" lon="8.1806887"><ele>233.0</ele><time>2026-04-18T16:43:09.238Z</time></trkpt><trkpt lat="45.0842431" lon="8.1807275"><ele>229.4</ele><time>2026-04-18T16:43:11.238Z</time></trkpt><trkpt lat="45.0843118" lon="8.1808937"><ele>225.8</ele><time>2026-04-18T16:43:12.239Z</time></trkpt><trkpt lat="45.084357" lon="8.1810092"><ele>222.2</ele><time>2026-04-18T16:43:13.238Z</time></trkpt><trkpt lat="45.0843947" lon="8.181154"><ele>218.6</ele><time>2026-04-18T16:43:14.238Z</time></trkpt><trkpt lat="45.0844319" lon="8.1813003"><ele>215.0</ele><time>2026-04-18T16:43:15.238Z</time></trkpt><trkpt lat="45.084465" lon="8.1814455"><ele>215.4</ele><time>2026-04-18T16:43:16.238Z</time></trkpt><trkpt lat="45.0844997" lon="8.1815853"><ele>215.8</ele><time>2026-04-18T16:43:17.239Z</time></trkpt><trkpt lat="45.0845576" lon="8.1817078"><ele>216.2</ele><time>2026-04-18T16:43:18.239Z</time></trkpt><trkpt lat="45.0846315" lon="8.181805"><ele>216.6</ele><time>2026-04-18T16:43:19.238Z</time></trkpt><trkpt lat="45.0847339" lon="8.1818556"><ele>217.0</ele><time>2026-04-18T16:43:20.239Z</time></trkpt><trkpt lat="45.0848449" lon="8.1818594"><ele>214.75</ele><time>2026-04-18T16:43:21.238Z</time></trkpt><trkpt lat="45.0849399" lon="8.181845"><ele>212.5</ele><time>2026-04-18T16:43:22.239Z</time></trkpt><trkpt lat="45.0850477" lon="8.1818284"><ele>210.25</ele><time>2026-04-18T16:43:23.239Z</time></trkpt><trkpt lat="45.0851745" lon="8.1817102"><ele>208.0</ele><time>2026-04-18T16:43:24.238Z</time></trkpt><trkpt lat="45.0852897" lon="8.1816317"><ele>206.33333333333331</ele><time>2026-04-18T16:43:25.238Z</time></trkpt><trkpt lat="45.0853852" lon="8.1814789"><ele>204.66666666666669</ele><time>2026-04-18T16:43:26.238Z</time></trkpt><trkpt lat="45.0854885" lon="8.1813673"><ele>203.0</ele><time>2026-04-18T16:43:27.238Z</time></trkpt><trkpt lat="45.0855546" lon="8.1811256"><ele>203.0</ele><time>2026-04-18T16:43:28.238Z</time></trkpt><trkpt lat="45.0856332" lon="8.1809332"><ele>203.0</ele><time>2026-04-18T16:43:29.238Z</time></trkpt><trkpt lat="45.0857128" lon="8.1807351"><ele>203.0</ele><time>2026-04-18T16:43:30.238Z</time></trkpt><trkpt lat="45.0857953" lon="8.1805415"><ele>201.0</ele><time>2026-04-18T16:43:31.238Z</time></trkpt><trkpt lat="45.0858779" lon="8.1803561"><ele>199.0</ele><time>2026-04-18T16:43:32.238Z</time></trkpt><trkpt lat="45.0859534" lon="8.1801753"><ele>197.0</ele><time>2026-04-18T16:43:33.239Z</time></trkpt><trkpt lat="45.0860346" lon="8.1799863"><ele>196.66666666666669</ele><time>2026-04-18T16:43:34.239Z</time></trkpt><trkpt lat="45.0861127" lon="8.1797999"><ele>196.33333333333331</ele><time>2026-04-18T16:43:35.238Z</time></trkpt><trkpt lat="45.0861906" lon="8.1796197"><ele>196.0</ele><time>2026-04-18T16:43:36.238Z</time></trkpt><trkpt lat="45.0862716" lon="8.1794433"><ele>196.0</ele><time>2026-04-18T16:43:37.238Z</time></trkpt><trkpt lat="45.0863525" lon="8.1792493"><ele>196.0</ele><time>2026-04-18T16:43:38.239Z</time></trkpt><trkpt lat="45.0864398" lon="8.1790839"><ele>196.0</ele><time>2026-04-18T16:43:39.238Z</time></trkpt><trkpt lat="45.0865241" lon="8.1789098"><ele>196.0</ele><time>2026-04-18T16:43:40.238Z</time></trkpt><trkpt lat="45.0865976" lon="8.1787439"><ele>196.0</ele><time>2026-04-18T16:43:41.238Z</time></trkpt><trkpt lat="45.0866688" lon="8.1785644"><ele>196.0</ele><time>2026-04-18T16:43:42.238Z</time></trkpt><trkpt lat="45.0867449" lon="8.1783938"><ele>196.0</ele><time>2026-04-18T16:43:43.238Z</time></trkpt><trkpt lat="45.0868233" lon="8.178222"><ele>196.0</ele><time>2026-04-18T16:43:44.238Z</time></trkpt><trkpt lat="45.0868991" lon="8.1780348"><ele>196.0</ele><time>2026-04-18T16:43:45.238Z</time></trkpt><trkpt lat="45.086975" lon="8.1778494"><ele>196.0</ele><time>2026-04-18T16:43:46.238Z</time></trkpt><trkpt lat="45.0870497" lon="8.1777022"><ele>196.0</ele><time>2026-04-18T16:43:47.238Z</time></trkpt><trkpt lat="45.0871028" lon="8.177544"><ele>196.0</ele><time>2026-04-18T16:43:48.238Z</time></trkpt><trkpt lat="45.0871586" lon="8.1773871"><ele>196.0</ele><time>2026-04-18T16:43:49.238Z</time></trkpt><trkpt lat="45.0872195" lon="8.1772371"><ele>196.0</ele><time>2026-04-18T16:43:50.238Z</time></trkpt><trkpt lat="45.0872816" lon="8.1770835"><ele>196.0</ele><time>2026-04-18T16:43:51.239Z</time></trkpt><trkpt lat="45.0873454" lon="8.176947"><ele>196.16666666666666</ele><time>2026-04-18T16:43:52.238Z</time></trkpt><trkpt lat="45.0873939" lon="8.1768513"><ele>196.33333333333331</ele><time>2026-04-18T16:43:53.238Z</time></trkpt><trkpt lat="45.087435" lon="8.1767585"><ele>196.5</ele><time>2026-04-18T16:43:54.238Z</time></trkpt><trkpt lat="45.0874656" lon="8.1766706"><ele>196.66666666666669</ele><time>2026-04-18T16:43:55.238Z</time></trkpt><trkpt lat="45.0875187" lon="8.1765616"><ele>196.83333333333334</ele><time>2026-04-18T16:43:57.238Z</time></trkpt><trkpt lat="45.0875565" lon="8.1764669"><ele>197.0</ele><time>2026-04-18T16:44:06.238Z</time></trkpt><trkpt lat="45.087486" lon="8.1763252"><ele>197.39999999999998</ele><time>2026-04-18T16:44:09.239Z</time></trkpt><trkpt lat="45.0874259" lon="8.1762531"><ele>197.79999999999998</ele><time>2026-04-18T16:44:10.239Z</time></trkpt><trkpt lat="45.0873687" lon="8.1761768"><ele>198.2</ele><time>2026-04-18T16:44:11.238Z</time></trkpt><trkpt lat="45.0873001" lon="8.1760868"><ele>198.6</ele><time>2026-04-18T16:44:12.238Z</time></trkpt><trkpt lat="45.0872233" lon="8.1759942"><ele>199.0</ele><time>2026-04-18T16:44:13.239Z</time></trkpt><trkpt lat="45.0871513" lon="8.1758913"><ele>199.0</ele><time>2026-04-18T16:44:14.238Z</time></trkpt><trkpt lat="45.087076" lon="8.175798"><ele>199.0</ele><time>2026-04-18T16:44:15.238Z</time></trkpt><trkpt lat="45.0869985" lon="8.1757001"><ele>199.0</ele><time>2026-04-18T16:44:16.238Z</time></trkpt><trkpt lat="45.0869146" lon="8.1756049"><ele>199.0</ele><time>2026-04-18T16:44:17.238Z</time></trkpt><trkpt lat="45.0868302" lon="8.1755014"><ele>199.0</ele><time>2026-04-18T16:44:18.239Z</time></trkpt><trkpt lat="45.0867453" lon="8.1754042"><ele>198.75</ele><time>2026-04-18T16:44:19.238Z</time></trkpt><trkpt lat="45.0866587" lon="8.1752783"><ele>198.5</ele><time>2026-04-18T16:44:20.238Z</time></trkpt><trkpt lat="45.0865633" lon="8.1751646"><ele>198.25</ele><time>2026-04-18T16:44:21.238Z</time></trkpt><trkpt lat="45.0864737" lon="8.1750313"><ele>198.0</ele><time>2026-04-18T16:44:22.238Z</time></trkpt><trkpt lat="45.0863841" lon="8.1749069"><ele>198.5</ele><time>2026-04-18T16:44:23.238Z</time></trkpt><trkpt lat="45.0862835" lon="8.1747741"><ele>199.0</ele><time>2026-04-18T16:44:24.239Z</time></trkpt><trkpt lat="45.0861773" lon="8.1746385"><ele>199.5</ele><time>2026-04-18T16:44:25.238Z</time></trkpt><trkpt lat="45.0860698" lon="8.1745006"><ele>200.0</ele><time>2026-04-18T16:44:26.238Z</time></trkpt><trkpt lat="45.0859665" lon="8.1743535"><ele>200.0</ele><time>2026-04-18T16:44:27.238Z</time></trkpt><trkpt lat="45.0858605" lon="8.1742005"><ele>200.0</ele><time>2026-04-18T16:44:28.238Z</time></trkpt><trkpt lat="45.0857539" lon="8.1740503"><ele>200.0</ele><time>2026-04-18T16:44:29.238Z</time></trkpt><trkpt lat="45.0856471" lon="8.1738964"><ele>200.33333333333334</ele><time>2026-04-18T16:44:30.238Z</time></trkpt><trkpt lat="45.0855401" lon="8.1737297"><ele>200.66666666666669</ele><time>2026-04-18T16:44:31.238Z</time></trkpt><trkpt lat="45.0854329" lon="8.1735591"><ele>201.0</ele><time>2026-04-18T16:44:32.238Z</time></trkpt><trkpt lat="45.0853256" lon="8.1733887"><ele>201.0</ele><time>2026-04-18T16:44:33.239Z</time></trkpt><trkpt lat="45.0852155" lon="8.1732111"><ele>201.0</ele><time>2026-04-18T16:44:34.238Z</time></trkpt><trkpt lat="45.0851097" lon="8.1730369"><ele>201.0</ele><time>2026-04-18T16:44:35.239Z</time></trkpt><trkpt lat="45.0849992" lon="8.1728584"><ele>200.66666666666669</ele><time>2026-04-18T16:44:36.239Z</time></trkpt><trkpt lat="45.0849018" lon="8.1726801"><ele>200.33333333333334</ele><time>2026-04-18T16:44:37.238Z</time></trkpt><trkpt lat="45.0848" lon="8.1724772"><ele>200.0</ele><time>2026-04-18T16:44:38.238Z</time></trkpt><trkpt lat="45.0846972" lon="8.1723018"><ele>199.66666666666669</ele><time>2026-04-18T16:44:39.239Z</time></trkpt><trkpt lat="45.0846049" lon="8.1721368"><ele>199.33333333333331</ele><time>2026-04-18T16:44:40.238Z</time></trkpt><trkpt lat="45.0845016" lon="8.1719379"><ele>199.0</ele><time>2026-04-18T16:44:41.238Z</time></trkpt><trkpt lat="45.0844004" lon="8.1717366"><ele>199.0</ele><time>2026-04-18T16:44:42.238Z</time></trkpt><trkpt lat="45.0843011" lon="8.171532"><ele>199.0</ele><time>2026-04-18T16:44:43.238Z</time></trkpt><trkpt lat="45.0841977" lon="8.1713304"><ele>199.0</ele><time>2026-04-18T16:44:44.238Z</time></trkpt><trkpt lat="45.0840975" lon="8.1711273"><ele>199.33333333333331</ele><time>2026-04-18T16:44:45.239Z</time></trkpt><trkpt lat="45.0840045" lon="8.1709328"><ele>199.66666666666669</ele><time>2026-04-18T16:44:46.239Z</time></trkpt><trkpt lat="45.0839079" lon="8.1707256"><ele>200.0</ele><time>2026-04-18T16:44:47.238Z</time></trkpt><trkpt lat="45.0838197" lon="8.1705207"><ele>200.0</ele><time>2026-04-18T16:44:48.239Z</time></trkpt><trkpt lat="45.083728" lon="8.1703073"><ele>200.0</ele><time>2026-04-18T16:44:49.238Z</time></trkpt><trkpt lat="45.0836564" lon="8.1701092"><ele>200.0</ele><time>2026-04-18T16:44:50.238Z</time></trkpt><trkpt lat="45.0835696" lon="8.1699095"><ele>200.66666666666669</ele><time>2026-04-18T16:44:51.239Z</time></trkpt><trkpt lat="45.0834878" lon="8.169711"><ele>201.33333333333331</ele><time>2026-04-18T16:44:52.238Z</time></trkpt><trkpt lat="45.0834097" lon="8.1695169"><ele>202.0</ele><time>2026-04-18T16:44:53.238Z</time></trkpt><trkpt lat="45.0833393" lon="8.1693256"><ele>202.0</ele><time>2026-04-18T16:44:54.238Z</time></trkpt><trkpt lat="45.0832699" lon="8.1691373"><ele>202.0</ele><time>2026-04-18T16:44:55.238Z</time></trkpt><trkpt lat="45.0832009" lon="8.1689374"><ele>202.0</ele><time>2026-04-18T16:44:56.238Z</time></trkpt><trkpt lat="45.0831278" lon="8.1687384"><ele>202.66666666666666</ele><time>2026-04-18T16:44:57.239Z</time></trkpt><trkpt lat="45.0830737" lon="8.1685422"><ele>203.33333333333331</ele><time>2026-04-18T16:44:58.239Z</time></trkpt><trkpt lat="45.0830127" lon="8.1683421"><ele>204.0</ele><time>2026-04-18T16:44:59.238Z</time></trkpt><trkpt lat="45.0829422" lon="8.1681344"><ele>204.0</ele><time>2026-04-18T16:45:00.238Z</time></trkpt><trkpt lat="45.0828738" lon="8.1679343"><ele>204.0</ele><time>2026-04-18T16:45:01.238Z</time></trkpt><trkpt lat="45.0828114" lon="8.1677339"><ele>204.0</ele><time>2026-04-18T16:45:02.238Z</time></trkpt><trkpt lat="45.0827476" lon="8.1675215"><ele>204.66666666666669</ele><time>2026-04-18T16:45:03.238Z</time></trkpt><trkpt lat="45.0826893" lon="8.1673103"><ele>205.33333333333334</ele><time>2026-04-18T16:45:04.238Z</time></trkpt><trkpt lat="45.0826357" lon="8.1671045"><ele>206.0</ele><time>2026-04-18T16:45:05.238Z</time></trkpt><trkpt lat="45.0825777" lon="8.1668965"><ele>206.0</ele><time>2026-04-18T16:45:06.238Z</time></trkpt><trkpt lat="45.0825175" lon="8.1666817"><ele>206.0</ele><time>2026-04-18T16:45:07.239Z</time></trkpt><trkpt lat="45.0824604" lon="8.1664709"><ele>206.0</ele><time>2026-04-18T16:45:08.239Z</time></trkpt><trkpt lat="45.0824094" lon="8.1662669"><ele>206.33333333333334</ele><time>2026-04-18T16:45:09.239Z</time></trkpt><trkpt lat="45.0823559" lon="8.1660618"><ele>206.66666666666669</ele><time>2026-04-18T16:45:10.238Z</time></trkpt><trkpt lat="45.0823035" lon="8.1658516"><ele>207.0</ele><time>2026-04-18T16:45:11.238Z</time></trkpt><trkpt lat="45.0822485" lon="8.1656437"><ele>207.0</ele><time>2026-04-18T16:45:12.238Z</time></trkpt><trkpt lat="45.0821889" lon="8.1654256"><ele>207.0</ele><time>2026-04-18T16:45:13.238Z</time></trkpt><trkpt lat="45.0821351" lon="8.1651937"><ele>207.0</ele><time>2026-04-18T16:45:14.238Z</time></trkpt><trkpt lat="45.0820714" lon="8.1649567"><ele>206.66666666666669</ele><time>2026-04-18T16:45:15.238Z</time></trkpt><trkpt lat="45.0820291" lon="8.1647671"><ele>206.33333333333334</ele><time>2026-04-18T16:45:16.238Z</time></trkpt><trkpt lat="45.0819746" lon="8.1645593"><ele>206.0</ele><time>2026-04-18T16:45:17.238Z</time></trkpt><trkpt lat="45.0819185" lon="8.1643462"><ele>206.0</ele><time>2026-04-18T16:45:18.239Z</time></trkpt><trkpt lat="45.0818536" lon="8.1641223"><ele>206.0</ele><time>2026-04-18T16:45:19.239Z</time></trkpt><trkpt lat="45.0817987" lon="8.1639281"><ele>206.0</ele><time>2026-04-18T16:45:20.238Z</time></trkpt><trkpt lat="45.0817491" lon="8.1637089"><ele>206.0</ele><time>2026-04-18T16:45:21.238Z</time></trkpt><trkpt lat="45.0816969" lon="8.1635074"><ele>206.0</ele><time>2026-04-18T16:45:22.239Z</time></trkpt><trkpt lat="45.0816367" lon="8.1632885"><ele>206.0</ele><time>2026-04-18T16:45:23.239Z</time></trkpt><trkpt lat="45.0815823" lon="8.163079"><ele>204.66666666666669</ele><time>2026-04-18T16:45:24.238Z</time></trkpt><trkpt lat="45.0815319" lon="8.1628665"><ele>203.33333333333331</ele><time>2026-04-18T16:45:25.238Z</time></trkpt><trkpt lat="45.0814802" lon="8.1626581"><ele>202.0</ele><time>2026-04-18T16:45:26.238Z</time></trkpt><trkpt lat="45.0814233" lon="8.1624485"><ele>203.66666666666666</ele><time>2026-04-18T16:45:27.239Z</time></trkpt><trkpt lat="45.0813771" lon="8.1622052"><ele>205.33333333333331</ele><time>2026-04-18T16:45:28.238Z</time></trkpt><trkpt lat="45.0813242" lon="8.1619932"><ele>207.0</ele><time>2026-04-18T16:45:29.238Z</time></trkpt><trkpt lat="45.0812684" lon="8.1617934"><ele>207.0</ele><time>2026-04-18T16:45:30.238Z</time></trkpt><trkpt lat="45.0812202" lon="8.1615873"><ele>207.0</ele><time>2026-04-18T16:45:31.238Z</time></trkpt><trkpt lat="45.0811708" lon="8.161382"><ele>207.0</ele><time>2026-04-18T16:45:32.238Z</time></trkpt><trkpt lat="45.0811086" lon="8.1611777"><ele>206.66666666666669</ele><time>2026-04-18T16:45:33.238Z</time></trkpt><trkpt lat="45.0810481" lon="8.1609697"><ele>206.33333333333334</ele><time>2026-04-18T16:45:34.238Z</time></trkpt><trkpt lat="45.0809911" lon="8.1607558"><ele>206.0</ele><time>2026-04-18T16:45:35.239Z</time></trkpt><trkpt lat="45.0809459" lon="8.1605522"><ele>206.0</ele><time>2026-04-18T16:45:36.238Z</time></trkpt><trkpt lat="45.080895" lon="8.160346"><ele>206.0</ele><time>2026-04-18T16:45:37.238Z</time></trkpt><trkpt lat="45.0808445" lon="8.1601323"><ele>206.0</ele><time>2026-04-18T16:45:38.238Z</time></trkpt><trkpt lat="45.0808041" lon="8.1599162"><ele>205.66666666666669</ele><time>2026-04-18T16:45:39.238Z</time></trkpt><trkpt lat="45.0807703" lon="8.159695"><ele>205.33333333333331</ele><time>2026-04-18T16:45:40.238Z</time></trkpt><trkpt lat="45.080747" lon="8.1594814"><ele>205.0</ele><time>2026-04-18T16:45:41.238Z</time></trkpt><trkpt lat="45.0807269" lon="8.1592521"><ele>205.33333333333331</ele><time>2026-04-18T16:45:42.238Z</time></trkpt><trkpt lat="45.0807224" lon="8.1590237"><ele>205.66666666666669</ele><time>2026-04-18T16:45:43.239Z</time></trkpt><trkpt lat="45.0807293" lon="8.1588035"><ele>206.0</ele><time>2026-04-18T16:45:44.238Z</time></trkpt><trkpt lat="45.0807361" lon="8.1585877"><ele>206.0</ele><time>2026-04-18T16:45:45.238Z</time></trkpt><trkpt lat="45.0807629" lon="8.1583686"><ele>206.0</ele><time>2026-04-18T16:45:46.238Z</time></trkpt><trkpt lat="45.0807947" lon="8.1581563"><ele>206.0</ele><time>2026-04-18T16:45:47.238Z</time></trkpt><trkpt lat="45.0808318" lon="8.1579351"><ele>208.0</ele><time>2026-04-18T16:45:48.238Z</time></trkpt><trkpt lat="45.0808665" lon="8.1577265"><ele>210.0</ele><time>2026-04-18T16:45:49.238Z</time></trkpt><trkpt lat="45.0809324" lon="8.1575173"><ele>212.0</ele><time>2026-04-18T16:45:50.238Z</time></trkpt><trkpt lat="45.0809999" lon="8.1573105"><ele>212.0</ele><time>2026-04-18T16:45:51.238Z</time></trkpt><trkpt lat="45.0810627" lon="8.1571017"><ele>212.0</ele><time>2026-04-18T16:45:52.238Z</time></trkpt><trkpt lat="45.0811366" lon="8.1568951"><ele>212.0</ele><time>2026-04-18T16:45:53.239Z</time></trkpt><trkpt lat="45.0811985" lon="8.1566885"><ele>211.66666666666669</ele><time>2026-04-18T16:45:54.238Z</time></trkpt><trkpt lat="45.081274" lon="8.156476"><ele>211.33333333333331</ele><time>2026-04-18T16:45:55.238Z</time></trkpt><trkpt lat="45.0813433" lon="8.1562732"><ele>211.0</ele><time>2026-04-18T16:45:56.239Z</time></trkpt><trkpt lat="45.0814015" lon="8.1560651"><ele>211.0</ele><time>2026-04-18T16:45:57.239Z</time></trkpt><trkpt lat="45.0814671" lon="8.15585"><ele>211.0</ele><time>2026-04-18T16:45:58.238Z</time></trkpt><trkpt lat="45.0815406" lon="8.1556415"><ele>211.0</ele><time>2026-04-18T16:45:59.239Z</time></trkpt><trkpt lat="45.0816064" lon="8.1554322"><ele>211.0</ele><time>2026-04-18T16:46:00.238Z</time></trkpt><trkpt lat="45.0816741" lon="8.1552234"><ele>211.0</ele><time>2026-04-18T16:46:01.238Z</time></trkpt><trkpt lat="45.0817474" lon="8.1550006"><ele>211.0</ele><time>2026-04-18T16:46:02.238Z</time></trkpt><trkpt lat="45.0818132" lon="8.1547931"><ele>211.0</ele><time>2026-04-18T16:46:03.239Z</time></trkpt><trkpt lat="45.081889" lon="8.1545993"><ele>211.0</ele><time>2026-04-18T16:46:04.238Z</time></trkpt><trkpt lat="45.0819614" lon="8.1544039"><ele>211.0</ele><time>2026-04-18T16:46:05.238Z</time></trkpt><trkpt lat="45.0820281" lon="8.154194"><ele>211.33333333333331</ele><time>2026-04-18T16:46:06.238Z</time></trkpt><trkpt lat="45.0821067" lon="8.1539995"><ele>211.66666666666669</ele><time>2026-04-18T16:46:07.238Z</time></trkpt><trkpt lat="45.0821869" lon="8.1537893"><ele>212.0</ele><time>2026-04-18T16:46:08.238Z</time></trkpt><trkpt lat="45.0822669" lon="8.1535963"><ele>212.0</ele><time>2026-04-18T16:46:09.238Z</time></trkpt><trkpt lat="45.0823519" lon="8.1534126"><ele>212.0</ele><time>2026-04-18T16:46:10.239Z</time></trkpt><trkpt lat="45.0824544" lon="8.1532408"><ele>212.0</ele><time>2026-04-18T16:46:11.238Z</time></trkpt><trkpt lat="45.082558" lon="8.1530693"><ele>211.33333333333334</ele><time>2026-04-18T16:46:12.238Z</time></trkpt><trkpt lat="45.0826722" lon="8.1529176"><ele>210.66666666666669</ele><time>2026-04-18T16:46:13.238Z</time></trkpt><trkpt lat="45.0827905" lon="8.1527814"><ele>210.0</ele><time>2026-04-18T16:46:14.238Z</time></trkpt><trkpt lat="45.0829181" lon="8.1526568"><ele>210.0</ele><time>2026-04-18T16:46:15.238Z</time></trkpt><trkpt lat="45.0830577" lon="8.1525276"><ele>210.0</ele><time>2026-04-18T16:46:16.239Z</time></trkpt><trkpt lat="45.0831895" lon="8.1524069"><ele>210.0</ele><time>2026-04-18T16:46:17.238Z</time></trkpt><trkpt lat="45.0833326" lon="8.1522953"><ele>211.0</ele><time>2026-04-18T16:46:18.239Z</time></trkpt><trkpt lat="45.0834762" lon="8.1521957"><ele>212.0</ele><time>2026-04-18T16:46:19.238Z</time></trkpt><trkpt lat="45.0836319" lon="8.1520847"><ele>213.0</ele><time>2026-04-18T16:46:20.238Z</time></trkpt><trkpt lat="45.0837645" lon="8.1519593"><ele>213.0</ele><time>2026-04-18T16:46:21.238Z</time></trkpt><trkpt lat="45.0839047" lon="8.1518648"><ele>213.0</ele><time>2026-04-18T16:46:22.238Z</time></trkpt><trkpt lat="45.0840482" lon="8.1517666"><ele>213.0</ele><time>2026-04-18T16:46:23.238Z</time></trkpt><trkpt lat="45.0841904" lon="8.1516704"><ele>212.66666666666669</ele><time>2026-04-18T16:46:24.238Z</time></trkpt><trkpt lat="45.0843321" lon="8.1515631"><ele>212.33333333333334</ele><time>2026-04-18T16:46:25.238Z</time></trkpt><trkpt lat="45.0844765" lon="8.1514594"><ele>212.0</ele><time>2026-04-18T16:46:26.238Z</time></trkpt><trkpt lat="45.0846222" lon="8.1513558"><ele>212.0</ele><time>2026-04-18T16:46:27.238Z</time></trkpt><trkpt lat="45.0847608" lon="8.1512505"><ele>212.0</ele><time>2026-04-18T16:46:28.238Z</time></trkpt><trkpt lat="45.0849066" lon="8.1511428"><ele>212.0</ele><time>2026-04-18T16:46:29.238Z</time></trkpt><trkpt lat="45.085043" lon="8.1510424"><ele>213.33333333333334</ele><time>2026-04-18T16:46:30.238Z</time></trkpt><trkpt lat="45.0851991" lon="8.1509325"><ele>214.66666666666669</ele><time>2026-04-18T16:46:31.238Z</time></trkpt><trkpt lat="45.0853505" lon="8.150837"><ele>216.0</ele><time>2026-04-18T16:46:32.238Z</time></trkpt><trkpt lat="45.0854916" lon="8.150734"><ele>216.0</ele><time>2026-04-18T16:46:33.238Z</time></trkpt><trkpt lat="45.0856381" lon="8.1506226"><ele>216.0</ele><time>2026-04-18T16:46:34.239Z</time></trkpt><trkpt lat="45.0857892" lon="8.150513"><ele>216.0</ele><time>2026-04-18T16:46:35.238Z</time></trkpt><trkpt lat="45.0859297" lon="8.1504073"><ele>216.0</ele><time>2026-04-18T16:46:36.238Z</time></trkpt><trkpt lat="45.0860744" lon="8.150308"><ele>216.0</ele><time>2026-04-18T16:46:37.239Z</time></trkpt><trkpt lat="45.0862225" lon="8.1502076"><ele>216.0</ele><time>2026-04-18T16:46:38.239Z</time></trkpt><trkpt lat="45.0863708" lon="8.1501123"><ele>216.0</ele><time>2026-04-18T16:46:39.239Z</time></trkpt><trkpt lat="45.0864994" lon="8.1499967"><ele>216.0</ele><time>2026-04-18T16:46:40.238Z</time></trkpt><trkpt lat="45.0866198" lon="8.1498401"><ele>216.0</ele><time>2026-04-18T16:46:41.239Z</time></trkpt><trkpt lat="45.0867346" lon="8.1497052"><ele>216.0</ele><time>2026-04-18T16:46:42.239Z</time></trkpt><trkpt lat="45.0868548" lon="8.1495616"><ele>216.0</ele><time>2026-04-18T16:46:43.239Z</time></trkpt><trkpt lat="45.0869327" lon="8.1493999"><ele>216.0</ele><time>2026-04-18T16:46:44.238Z</time></trkpt><trkpt lat="45.0870285" lon="8.1492708"><ele>216.0</ele><time>2026-04-18T16:46:45.239Z</time></trkpt><trkpt lat="45.0871084" lon="8.1491037"><ele>216.0</ele><time>2026-04-18T16:46:46.238Z</time></trkpt><trkpt lat="45.0871991" lon="8.1489334"><ele>216.0</ele><time>2026-04-18T16:46:47.238Z</time></trkpt><trkpt lat="45.0872705" lon="8.1487748"><ele>216.0</ele><time>2026-04-18T16:46:48.239Z</time></trkpt><trkpt lat="45.0873144" lon="8.1486367"><ele>216.0</ele><time>2026-04-18T16:46:49.238Z</time></trkpt><trkpt lat="45.0873646" lon="8.1485064"><ele>216.0</ele><time>2026-04-18T16:46:50.238Z</time></trkpt><trkpt lat="45.087392" lon="8.1483273"><ele>216.0</ele><time>2026-04-18T16:46:52.238Z</time></trkpt><trkpt lat="45.0873497" lon="8.1482318"><ele>216.0</ele><time>2026-04-18T16:46:53.238Z</time></trkpt><trkpt lat="45.0872238" lon="8.1480759"><ele>216.0</ele><time>2026-04-18T16:46:55.238Z</time></trkpt><trkpt lat="45.0871481" lon="8.1479869"><ele>215.5</ele><time>2026-04-18T16:46:56.239Z</time></trkpt><trkpt lat="45.0870498" lon="8.1478895"><ele>215.0</ele><time>2026-04-18T16:46:57.238Z</time></trkpt><trkpt lat="45.0869693" lon="8.1477733"><ele>214.5</ele><time>2026-04-18T16:46:58.239Z</time></trkpt><trkpt lat="45.0868798" lon="8.1476545"><ele>214.0</ele><time>2026-04-18T16:46:59.238Z</time></trkpt><trkpt lat="45.0867497" lon="8.1474955"><ele>215.33333333333331</ele><time>2026-04-18T16:47:00.238Z</time></trkpt><trkpt lat="45.086636" lon="8.1473609"><ele>216.66666666666669</ele><time>2026-04-18T16:47:01.238Z</time></trkpt><trkpt lat="45.0865235" lon="8.1472292"><ele>218.0</ele><time>2026-04-18T16:47:02.238Z</time></trkpt><trkpt lat="45.0863975" lon="8.1470798"><ele>219.33333333333334</ele><time>2026-04-18T16:47:03.239Z</time></trkpt><trkpt lat="45.086285" lon="8.1469404"><ele>220.66666666666669</ele><time>2026-04-18T16:47:04.239Z</time></trkpt><trkpt lat="45.0861705" lon="8.1468086"><ele>222.0</ele><time>2026-04-18T16:47:05.238Z</time></trkpt><trkpt lat="45.0860511" lon="8.1466731"><ele>222.0</ele><time>2026-04-18T16:47:06.238Z</time></trkpt><trkpt lat="45.0859215" lon="8.1465582"><ele>222.0</ele><time>2026-04-18T16:47:07.239Z</time></trkpt><trkpt lat="45.0857769" lon="8.1464746"><ele>222.0</ele><time>2026-04-18T16:47:08.239Z</time></trkpt><trkpt lat="45.085633" lon="8.1463913"><ele>224.0</ele><time>2026-04-18T16:47:09.238Z</time></trkpt><trkpt lat="45.0854722" lon="8.1462977"><ele>226.0</ele><time>2026-04-18T16:47:10.238Z</time></trkpt><trkpt lat="45.0853203" lon="8.1462306"><ele>228.0</ele><time>2026-04-18T16:47:11.238Z</time></trkpt><trkpt lat="45.0851545" lon="8.1461629"><ele>228.0</ele><time>2026-04-18T16:47:12.238Z</time></trkpt><trkpt lat="45.0850067" lon="8.1461096"><ele>228.0</ele><time>2026-04-18T16:47:13.239Z</time></trkpt><trkpt lat="45.0848648" lon="8.1460465"><ele>228.0</ele><time>2026-04-18T16:47:14.238Z</time></trkpt><trkpt lat="45.0847356" lon="8.1459856"><ele>228.0</ele><time>2026-04-18T16:47:15.238Z</time></trkpt><trkpt lat="45.0846126" lon="8.1458884"><ele>228.5</ele><time>2026-04-18T16:47:16.238Z</time></trkpt><trkpt lat="45.0844919" lon="8.1457832"><ele>229.0</ele><time>2026-04-18T16:47:17.239Z</time></trkpt><trkpt lat="45.0843878" lon="8.1456623"><ele>229.5</ele><time>2026-04-18T16:47:18.238Z</time></trkpt><trkpt lat="45.0842819" lon="8.1454816"><ele>230.0</ele><time>2026-04-18T16:47:19.238Z</time></trkpt><trkpt lat="45.0842051" lon="8.1453066"><ele>230.0</ele><time>2026-04-18T16:47:20.238Z</time></trkpt><trkpt lat="45.0840983" lon="8.1451207"><ele>230.0</ele><time>2026-04-18T16:47:21.238Z</time></trkpt><trkpt lat="45.0840086" lon="8.1449309"><ele>230.0</ele><time>2026-04-18T16:47:22.238Z</time></trkpt><trkpt lat="45.0839326" lon="8.1447178"><ele>237.0</ele><time>2026-04-18T16:47:23.238Z</time></trkpt><trkpt lat="45.083839" lon="8.1445099"><ele>244.0</ele><time>2026-04-18T16:47:24.239Z</time></trkpt><trkpt lat="45.0837577" lon="8.144336"><ele>251.0</ele><time>2026-04-18T16:47:25.238Z</time></trkpt><trkpt lat="45.0836723" lon="8.1441353"><ele>249.0</ele><time>2026-04-18T16:47:26.238Z</time></trkpt><trkpt lat="45.0835809" lon="8.1439395"><ele>247.0</ele><time>2026-04-18T16:47:27.238Z</time></trkpt><trkpt lat="45.0835038" lon="8.1437432"><ele>245.0</ele><time>2026-04-18T16:47:28.238Z</time></trkpt><trkpt lat="45.0834236" lon="8.1435449"><ele>245.0</ele><time>2026-04-18T16:47:29.239Z</time></trkpt><trkpt lat="45.0833266" lon="8.1433166"><ele>245.0</ele><time>2026-04-18T16:47:30.238Z</time></trkpt><trkpt lat="45.0832503" lon="8.1431425"><ele>245.0</ele><time>2026-04-18T16:47:31.238Z</time></trkpt><trkpt lat="45.0831753" lon="8.1429557"><ele>244.0</ele><time>2026-04-18T16:47:32.238Z</time></trkpt><trkpt lat="45.0830902" lon="8.1427565"><ele>243.0</ele><time>2026-04-18T16:47:33.239Z</time></trkpt><trkpt lat="45.0830185" lon="8.1425478"><ele>242.0</ele><time>2026-04-18T16:47:34.239Z</time></trkpt><trkpt lat="45.0829379" lon="8.1423353"><ele>241.66666666666669</ele><time>2026-04-18T16:47:35.239Z</time></trkpt><trkpt lat="45.0828662" lon="8.14214"><ele>241.33333333333331</ele><time>2026-04-18T16:47:36.238Z</time></trkpt><trkpt lat="45.0827762" lon="8.1419461"><ele>241.0</ele><time>2026-04-18T16:47:37.238Z</time></trkpt><trkpt lat="45.0826928" lon="8.14175"><ele>242.66666666666666</ele><time>2026-04-18T16:47:38.238Z</time></trkpt><trkpt lat="45.0826188" lon="8.1415424"><ele>244.33333333333331</ele><time>2026-04-18T16:47:39.239Z</time></trkpt><trkpt lat="45.0825494" lon="8.1413225"><ele>246.0</ele><time>2026-04-18T16:47:40.238Z</time></trkpt><trkpt lat="45.0824872" lon="8.1411104"><ele>246.0</ele><time>2026-04-18T16:47:41.239Z</time></trkpt><trkpt lat="45.0824381" lon="8.1408857"><ele>246.0</ele><time>2026-04-18T16:47:42.238Z</time></trkpt><trkpt lat="45.0823973" lon="8.1406665"><ele>246.0</ele><time>2026-04-18T16:47:43.238Z</time></trkpt><trkpt lat="45.0823432" lon="8.140448"><ele>246.0</ele><time>2026-04-18T16:47:44.238Z</time></trkpt><trkpt lat="45.0822955" lon="8.1402343"><ele>246.0</ele><time>2026-04-18T16:47:45.238Z</time></trkpt><trkpt lat="45.0822559" lon="8.1400139"><ele>246.0</ele><time>2026-04-18T16:47:46.238Z</time></trkpt><trkpt lat="45.0822179" lon="8.1398061"><ele>248.0</ele><time>2026-04-18T16:47:47.239Z</time></trkpt><trkpt lat="45.0821643" lon="8.1395995"><ele>250.0</ele><time>2026-04-18T16:47:48.238Z</time></trkpt><trkpt lat="45.0821162" lon="8.1393745"><ele>252.0</ele><time>2026-04-18T16:47:49.238Z</time></trkpt><trkpt lat="45.0820803" lon="8.1391695"><ele>253.25</ele><time>2026-04-18T16:47:50.238Z</time></trkpt><trkpt lat="45.0820394" lon="8.1389578"><ele>254.5</ele><time>2026-04-18T16:47:51.239Z</time></trkpt><trkpt lat="45.0820067" lon="8.1387599"><ele>255.75</ele><time>2026-04-18T16:47:52.239Z</time></trkpt><trkpt lat="45.0819637" lon="8.1385624"><ele>257.0</ele><time>2026-04-18T16:47:53.238Z</time></trkpt><trkpt lat="45.081915" lon="8.1383618"><ele>258.33333333333337</ele><time>2026-04-18T16:47:54.238Z</time></trkpt><trkpt lat="45.0818691" lon="8.1381498"><ele>259.6666666666667</ele><time>2026-04-18T16:47:55.238Z</time></trkpt><trkpt lat="45.0818339" lon="8.1379282"><ele>261.0</ele><time>2026-04-18T16:47:56.239Z</time></trkpt><trkpt lat="45.0817876" lon="8.1377251"><ele>261.0</ele><time>2026-04-18T16:47:57.238Z</time></trkpt><trkpt lat="45.0817483" lon="8.1375198"><ele>261.0</ele><time>2026-04-18T16:47:58.239Z</time></trkpt><trkpt lat="45.0817055" lon="8.1372986"><ele>261.0</ele><time>2026-04-18T16:47:59.238Z</time></trkpt><trkpt lat="45.081668" lon="8.1370955"><ele>262.0</ele><time>2026-04-18T16:48:00.239Z</time></trkpt><trkpt lat="45.081632" lon="8.1368979"><ele>263.0</ele><time>2026-04-18T16:48:01.238Z</time></trkpt><trkpt lat="45.0815873" lon="8.1366976"><ele>264.0</ele><time>2026-04-18T16:48:02.238Z</time></trkpt><trkpt lat="45.0815432" lon="8.1364954"><ele>265.0</ele><time>2026-04-18T16:48:03.238Z</time></trkpt><trkpt lat="45.0815024" lon="8.1363022"><ele>266.0</ele><time>2026-04-18T16:48:04.239Z</time></trkpt><trkpt lat="45.0814746" lon="8.1361365"><ele>267.0</ele><time>2026-04-18T16:48:05.238Z</time></trkpt><trkpt lat="45.0814455" lon="8.1359693"><ele>268.0</ele><time>2026-04-18T16:48:06.238Z</time></trkpt><trkpt lat="45.0814091" lon="8.1358075"><ele>269.0</ele><time>2026-04-18T16:48:07.238Z</time></trkpt><trkpt lat="45.0813751" lon="8.1356969"><ele>270.0</ele><time>2026-04-18T16:48:08.239Z</time></trkpt><trkpt lat="45.0813582" lon="8.135573"><ele>270.3333333333333</ele><time>2026-04-18T16:48:09.239Z</time></trkpt><trkpt lat="45.0813615" lon="8.135477"><ele>270.6666666666667</ele><time>2026-04-18T16:48:11.238Z</time></trkpt><trkpt lat="45.0813414" lon="8.1353647"><ele>271.0</ele><time>2026-04-18T16:48:13.239Z</time></trkpt><trkpt lat="45.081281" lon="8.1352907"><ele>271.33333333333337</ele><time>2026-04-18T16:48:16.239Z</time></trkpt><trkpt lat="45.0811779" lon="8.1352062"><ele>271.6666666666667</ele><time>2026-04-18T16:48:18.238Z</time></trkpt><trkpt lat="45.0811113" lon="8.1351649"><ele>272.0</ele><time>2026-04-18T16:48:19.238Z</time></trkpt><trkpt lat="45.0810278" lon="8.1351105"><ele>272.0</ele><time>2026-04-18T16:48:20.238Z</time></trkpt><trkpt lat="45.0809309" lon="8.1350604"><ele>272.0</ele><time>2026-04-18T16:48:21.238Z</time></trkpt><trkpt lat="45.0808477" lon="8.1350227"><ele>272.0</ele><time>2026-04-18T16:48:22.238Z</time></trkpt><trkpt lat="45.0807571" lon="8.1349314"><ele>272.0</ele><time>2026-04-18T16:48:23.239Z</time></trkpt><trkpt lat="45.0806729" lon="8.1348317"><ele>272.0</ele><time>2026-04-18T16:48:24.239Z</time></trkpt><trkpt lat="45.0805703" lon="8.1347132"><ele>274.0</ele><time>2026-04-18T16:48:25.239Z</time></trkpt><trkpt lat="45.0805325" lon="8.1345786"><ele>276.0</ele><time>2026-04-18T16:48:26.239Z</time></trkpt><trkpt lat="45.0805182" lon="8.1343897"><ele>278.0</ele><time>2026-04-18T16:48:27.238Z</time></trkpt><trkpt lat="45.0805102" lon="8.1342216"><ele>280.0</ele><time>2026-04-18T16:48:28.239Z</time></trkpt><trkpt lat="45.0805341" lon="8.1340814"><ele>280.25</ele><time>2026-04-18T16:48:29.238Z</time></trkpt><trkpt lat="45.0805258" lon="8.133891"><ele>280.5</ele><time>2026-04-18T16:48:30.238Z</time></trkpt><trkpt lat="45.0805218" lon="8.1336881"><ele>280.75</ele><time>2026-04-18T16:48:31.239Z</time></trkpt><trkpt lat="45.080522" lon="8.1335041"><ele>281.0</ele><time>2026-04-18T16:48:32.239Z</time></trkpt><trkpt lat="45.0805127" lon="8.1333371"><ele>280.5</ele><time>2026-04-18T16:48:33.239Z</time></trkpt><trkpt lat="45.0805099" lon="8.133148"><ele>280.0</ele><time>2026-04-18T16:48:34.238Z</time></trkpt><trkpt lat="45.0805006" lon="8.1329403"><ele>279.5</ele><time>2026-04-18T16:48:35.238Z</time></trkpt><trkpt lat="45.0804899" lon="8.1327401"><ele>279.0</ele><time>2026-04-18T16:48:36.239Z</time></trkpt><trkpt lat="45.0804807" lon="8.1325364"><ele>278.5</ele><time>2026-04-18T16:48:37.238Z</time></trkpt><trkpt lat="45.0804786" lon="8.1323453"><ele>278.0</ele><time>2026-04-18T16:48:38.239Z</time></trkpt><trkpt lat="45.0804659" lon="8.1321766"><ele>277.5</ele><time>2026-04-18T16:48:39.238Z</time></trkpt><trkpt lat="45.0804574" lon="8.1319859"><ele>277.0</ele><time>2026-04-18T16:48:40.238Z</time></trkpt><trkpt lat="45.080441" lon="8.1318394"><ele>277.0</ele><time>2026-04-18T16:48:41.238Z</time></trkpt><trkpt lat="45.0804356" lon="8.1316802"><ele>277.0</ele><time>2026-04-18T16:48:42.239Z</time></trkpt><trkpt lat="45.0803589" lon="8.131541"><ele>277.0</ele><time>2026-04-18T16:48:43.238Z</time></trkpt><trkpt lat="45.0803108" lon="8.1314064"><ele>277.0</ele><time>2026-04-18T16:48:44.238Z</time></trkpt><trkpt lat="45.0802301" lon="8.1313285"><ele>277.0</ele><time>2026-04-18T16:48:45.239Z</time></trkpt><trkpt lat="45.0801281" lon="8.1312631"><ele>276.0</ele><time>2026-04-18T16:48:46.238Z</time></trkpt><trkpt lat="45.0800425" lon="8.1312075"><ele>275.0</ele><time>2026-04-18T16:48:47.239Z</time></trkpt><trkpt lat="45.0798975" lon="8.1312409"><ele>274.0</ele><time>2026-04-18T16:48:48.238Z</time></trkpt><trkpt lat="45.0797519" lon="8.1312535"><ele>273.0</ele><time>2026-04-18T16:48:49.238Z</time></trkpt><trkpt lat="45.0795759" lon="8.1312755"><ele>269.0</ele><time>2026-04-18T16:48:50.239Z</time></trkpt><trkpt lat="45.0794247" lon="8.1312934"><ele>265.0</ele><time>2026-04-18T16:48:51.239Z</time></trkpt><trkpt lat="45.0792615" lon="8.1313253"><ele>261.0</ele><time>2026-04-18T16:48:52.238Z</time></trkpt><trkpt lat="45.0790933" lon="8.1313708"><ele>259.6666666666667</ele><time>2026-04-18T16:48:53.238Z</time></trkpt><trkpt lat="45.0789169" lon="8.131431"><ele>258.33333333333337</ele><time>2026-04-18T16:48:54.238Z</time></trkpt><trkpt lat="45.0787563" lon="8.1314992"><ele>257.0</ele><time>2026-04-18T16:48:55.239Z</time></trkpt><trkpt lat="45.0786055" lon="8.1315534"><ele>259.33333333333337</ele><time>2026-04-18T16:48:56.238Z</time></trkpt><trkpt lat="45.0784358" lon="8.1316252"><ele>261.6666666666667</ele><time>2026-04-18T16:48:57.239Z</time></trkpt><trkpt lat="45.0782803" lon="8.13171"><ele>264.0</ele><time>2026-04-18T16:48:58.239Z</time></trkpt><trkpt lat="45.078097" lon="8.1317709"><ele>265.0</ele><time>2026-04-18T16:48:59.238Z</time></trkpt><trkpt lat="45.077923" lon="8.1318045"><ele>266.0</ele><time>2026-04-18T16:49:00.238Z</time></trkpt><trkpt lat="45.0777615" lon="8.1318345"><ele>267.0</ele><time>2026-04-18T16:49:01.239Z</time></trkpt><trkpt lat="45.0775963" lon="8.1318492"><ele>269.6666666666667</ele><time>2026-04-18T16:49:02.238Z</time></trkpt><trkpt lat="45.0774343" lon="8.1318535"><ele>272.33333333333337</ele><time>2026-04-18T16:49:03.238Z</time></trkpt><trkpt lat="45.0772694" lon="8.1318508"><ele>275.0</ele><time>2026-04-18T16:49:04.239Z</time></trkpt><trkpt lat="45.0771085" lon="8.131856"><ele>275.0</ele><time>2026-04-18T16:49:05.238Z</time></trkpt><trkpt lat="45.0769401" lon="8.1318631"><ele>275.0</ele><time>2026-04-18T16:49:06.238Z</time></trkpt><trkpt lat="45.07675" lon="8.131874"><ele>275.0</ele><time>2026-04-18T16:49:07.238Z</time></trkpt><trkpt lat="45.0765796" lon="8.1318712"><ele>277.6666666666667</ele><time>2026-04-18T16:49:08.238Z</time></trkpt><trkpt lat="45.0764266" lon="8.1318781"><ele>280.3333333333333</ele><time>2026-04-18T16:49:09.238Z</time></trkpt><trkpt lat="45.0762616" lon="8.1318687"><ele>283.0</ele><time>2026-04-18T16:49:10.238Z</time></trkpt><trkpt lat="45.0761053" lon="8.131866"><ele>283.0</ele><time>2026-04-18T16:49:11.238Z</time></trkpt><trkpt lat="45.0759568" lon="8.1318471"><ele>283.0</ele><time>2026-04-18T16:49:12.238Z</time></trkpt><trkpt lat="45.0757978" lon="8.1318201"><ele>283.0</ele><time>2026-04-18T16:49:13.238Z</time></trkpt><trkpt lat="45.0756485" lon="8.1317957"><ele>283.3333333333333</ele><time>2026-04-18T16:49:14.238Z</time></trkpt><trkpt lat="45.0754943" lon="8.131767"><ele>283.6666666666667</ele><time>2026-04-18T16:49:15.238Z</time></trkpt><trkpt lat="45.0753226" lon="8.1317331"><ele>284.0</ele><time>2026-04-18T16:49:16.239Z</time></trkpt><trkpt lat="45.0751612" lon="8.1316939"><ele>284.0</ele><time>2026-04-18T16:49:17.238Z</time></trkpt><trkpt lat="45.0750049" lon="8.1316573"><ele>284.0</ele><time>2026-04-18T16:49:18.239Z</time></trkpt><trkpt lat="45.0748324" lon="8.1316303"><ele>284.0</ele><time>2026-04-18T16:49:19.239Z</time></trkpt><trkpt lat="45.0746716" lon="8.1316079"><ele>283.33333333333337</ele><time>2026-04-18T16:49:20.239Z</time></trkpt><trkpt lat="45.07451" lon="8.1315795"><ele>282.6666666666667</ele><time>2026-04-18T16:49:21.238Z</time></trkpt><trkpt lat="45.0743475" lon="8.1315604"><ele>282.0</ele><time>2026-04-18T16:49:22.238Z</time></trkpt><trkpt lat="45.074191" lon="8.1315409"><ele>279.0</ele><time>2026-04-18T16:49:23.239Z</time></trkpt><trkpt lat="45.074024" lon="8.1315279"><ele>276.0</ele><time>2026-04-18T16:49:24.238Z</time></trkpt><trkpt lat="45.0738783" lon="8.1315166"><ele>273.0</ele><time>2026-04-18T16:49:25.238Z</time></trkpt><trkpt lat="45.0737141" lon="8.1315261"><ele>274.3333333333333</ele><time>2026-04-18T16:49:26.238Z</time></trkpt><trkpt lat="45.0735426" lon="8.1315661"><ele>275.66666666666663</ele><time>2026-04-18T16:49:27.238Z</time></trkpt><trkpt lat="45.0733824" lon="8.13161"><ele>277.0</ele><time>2026-04-18T16:49:28.239Z</time></trkpt><trkpt lat="45.0732254" lon="8.1316458"><ele>277.0</ele><time>2026-04-18T16:49:29.239Z</time></trkpt><trkpt lat="45.0730733" lon="8.1316857"><ele>277.0</ele><time>2026-04-18T16:49:30.238Z</time></trkpt><trkpt lat="45.072916" lon="8.1317235"><ele>277.0</ele><time>2026-04-18T16:49:31.238Z</time></trkpt><trkpt lat="45.0727634" lon="8.131768"><ele>277.0</ele><time>2026-04-18T16:49:32.238Z</time></trkpt><trkpt lat="45.0726118" lon="8.1318087"><ele>277.0</ele><time>2026-04-18T16:49:33.238Z</time></trkpt><trkpt lat="45.0724663" lon="8.1318435"><ele>277.0</ele><time>2026-04-18T16:49:34.239Z</time></trkpt><trkpt lat="45.0723191" lon="8.1318292"><ele>277.0</ele><time>2026-04-18T16:49:35.239Z</time></trkpt><trkpt lat="45.0721707" lon="8.1318045"><ele>277.3333333333333</ele><time>2026-04-18T16:49:36.238Z</time></trkpt><trkpt lat="45.0720197" lon="8.1317555"><ele>277.6666666666667</ele><time>2026-04-18T16:49:37.239Z</time></trkpt><trkpt lat="45.0718666" lon="8.1317192"><ele>278.0</ele><time>2026-04-18T16:49:38.238Z</time></trkpt><trkpt lat="45.071718" lon="8.1316773"><ele>280.0</ele><time>2026-04-18T16:49:39.238Z</time></trkpt><trkpt lat="45.0715612" lon="8.1316215"><ele>282.0</ele><time>2026-04-18T16:49:40.239Z</time></trkpt><trkpt lat="45.0714035" lon="8.1315772"><ele>284.0</ele><time>2026-04-18T16:49:41.238Z</time></trkpt><trkpt lat="45.0712383" lon="8.1315278"><ele>281.33333333333337</ele><time>2026-04-18T16:49:42.239Z</time></trkpt><trkpt lat="45.0710792" lon="8.1314834"><ele>278.6666666666667</ele><time>2026-04-18T16:49:43.238Z</time></trkpt><trkpt lat="45.0709212" lon="8.1314348"><ele>276.0</ele><time>2026-04-18T16:49:44.238Z</time></trkpt><trkpt lat="45.0707722" lon="8.131373"><ele>276.0</ele><time>2026-04-18T16:49:45.238Z</time></trkpt><trkpt lat="45.0706313" lon="8.1312648"><ele>276.0</ele><time>2026-04-18T16:49:46.239Z</time></trkpt><trkpt lat="45.0704941" lon="8.1311826"><ele>276.0</ele><time>2026-04-18T16:49:47.238Z</time></trkpt><trkpt lat="45.0703534" lon="8.1310479"><ele>276.0</ele><time>2026-04-18T16:49:48.239Z</time></trkpt><trkpt lat="45.0702421" lon="8.1308921"><ele>276.0</ele><time>2026-04-18T16:49:49.238Z</time></trkpt><trkpt lat="45.0701259" lon="8.1306894"><ele>276.0</ele><time>2026-04-18T16:49:50.239Z</time></trkpt><trkpt lat="45.0700176" lon="8.1304876"><ele>275.0</ele><time>2026-04-18T16:49:51.238Z</time></trkpt><trkpt lat="45.0699117" lon="8.130316"><ele>274.0</ele><time>2026-04-18T16:49:52.238Z</time></trkpt><trkpt lat="45.06981" lon="8.1301335"><ele>273.0</ele><time>2026-04-18T16:49:53.238Z</time></trkpt><trkpt lat="45.0696976" lon="8.129992"><ele>270.6666666666667</ele><time>2026-04-18T16:49:54.239Z</time></trkpt><trkpt lat="45.0695825" lon="8.129836"><ele>268.33333333333337</ele><time>2026-04-18T16:49:55.239Z</time></trkpt><trkpt lat="45.0694684" lon="8.1296939"><ele>266.0</ele><time>2026-04-18T16:49:56.238Z</time></trkpt><trkpt lat="45.0693622" lon="8.1295624"><ele>266.0</ele><time>2026-04-18T16:49:57.239Z</time></trkpt><trkpt lat="45.0692638" lon="8.1294265"><ele>266.0</ele><time>2026-04-18T16:49:58.238Z</time></trkpt><trkpt lat="45.0691594" lon="8.1293075"><ele>266.0</ele><time>2026-04-18T16:49:59.239Z</time></trkpt><trkpt lat="45.0690449" lon="8.1292359"><ele>266.0</ele><time>2026-04-18T16:50:00.239Z</time></trkpt><trkpt lat="45.0689261" lon="8.1291811"><ele>266.5</ele><time>2026-04-18T16:50:01.238Z</time></trkpt><trkpt lat="45.0687899" lon="8.1291955"><ele>267.0</ele><time>2026-04-18T16:50:02.239Z</time></trkpt><trkpt lat="45.0686725" lon="8.129226"><ele>267.5</ele><time>2026-04-18T16:50:03.238Z</time></trkpt><trkpt lat="45.0685396" lon="8.1292852"><ele>268.0</ele><time>2026-04-18T16:50:04.238Z</time></trkpt><trkpt lat="45.0684182" lon="8.1293664"><ele>268.0</ele><time>2026-04-18T16:50:05.238Z</time></trkpt><trkpt lat="45.0682863" lon="8.1294108"><ele>268.0</ele><time>2026-04-18T16:50:06.238Z</time></trkpt><trkpt lat="45.0681553" lon="8.1294355"><ele>268.0</ele><time>2026-04-18T16:50:07.238Z</time></trkpt><trkpt lat="45.0680157" lon="8.1294319"><ele>268.0</ele><time>2026-04-18T16:50:08.238Z</time></trkpt><trkpt lat="45.0678886" lon="8.1294225"><ele>265.66666666666663</ele><time>2026-04-18T16:50:09.238Z</time></trkpt><trkpt lat="45.0677553" lon="8.1292522"><ele>263.3333333333333</ele><time>2026-04-18T16:50:10.238Z</time></trkpt><trkpt lat="45.0676269" lon="8.1291516"><ele>261.0</ele><time>2026-04-18T16:50:11.239Z</time></trkpt><trkpt lat="45.0674818" lon="8.1290368"><ele>260.3333333333333</ele><time>2026-04-18T16:50:12.239Z</time></trkpt><trkpt lat="45.0673284" lon="8.1289184"><ele>259.66666666666663</ele><time>2026-04-18T16:50:13.238Z</time></trkpt><trkpt lat="45.0671988" lon="8.1287903"><ele>259.0</ele><time>2026-04-18T16:50:14.238Z</time></trkpt><trkpt lat="45.067059" lon="8.128656"><ele>259.0</ele><time>2026-04-18T16:50:15.238Z</time></trkpt><trkpt lat="45.0669201" lon="8.1285396"><ele>259.0</ele><time>2026-04-18T16:50:16.238Z</time></trkpt><trkpt lat="45.0667663" lon="8.1284359"><ele>259.0</ele><time>2026-04-18T16:50:17.238Z</time></trkpt><trkpt lat="45.0666084" lon="8.1283532"><ele>259.0</ele><time>2026-04-18T16:50:18.238Z</time></trkpt><trkpt lat="45.066474" lon="8.1282768"><ele>259.0</ele><time>2026-04-18T16:50:19.239Z</time></trkpt><trkpt lat="45.0663116" lon="8.1282221"><ele>259.0</ele><time>2026-04-18T16:50:20.238Z</time></trkpt><trkpt lat="45.0661679" lon="8.1281762"><ele>259.0</ele><time>2026-04-18T16:50:21.239Z</time></trkpt><trkpt lat="45.0660068" lon="8.1281426"><ele>259.0</ele><time>2026-04-18T16:50:22.238Z</time></trkpt><trkpt lat="45.0658503" lon="8.1281047"><ele>259.0</ele><time>2026-04-18T16:50:23.238Z</time></trkpt><trkpt lat="45.0656937" lon="8.1280685"><ele>258.3333333333333</ele><time>2026-04-18T16:50:24.239Z</time></trkpt><trkpt lat="45.0655088" lon="8.1280517"><ele>257.6666666666667</ele><time>2026-04-18T16:50:25.238Z</time></trkpt><trkpt lat="45.0653458" lon="8.1280061"><ele>257.0</ele><time>2026-04-18T16:50:26.238Z</time></trkpt><trkpt lat="45.0651805" lon="8.1279588"><ele>257.0</ele><time>2026-04-18T16:50:27.238Z</time></trkpt><trkpt lat="45.0650179" lon="8.1279233"><ele>257.0</ele><time>2026-04-18T16:50:28.238Z</time></trkpt><trkpt lat="45.0648883" lon="8.1278732"><ele>257.0</ele><time>2026-04-18T16:50:29.238Z</time></trkpt><trkpt lat="45.0647181" lon="8.1278469"><ele>257.0</ele><time>2026-04-18T16:50:30.238Z</time></trkpt><trkpt lat="45.0645514" lon="8.1278166"><ele>257.0</ele><time>2026-04-18T16:50:31.238Z</time></trkpt><trkpt lat="45.0643747" lon="8.1277712"><ele>257.0</ele><time>2026-04-18T16:50:32.238Z</time></trkpt><trkpt lat="45.064201" lon="8.1277274"><ele>256.0</ele><time>2026-04-18T16:50:33.238Z</time></trkpt><trkpt lat="45.0640403" lon="8.1276851"><ele>255.0</ele><time>2026-04-18T16:50:34.238Z</time></trkpt><trkpt lat="45.0638775" lon="8.1276491"><ele>254.0</ele><time>2026-04-18T16:50:35.239Z</time></trkpt><trkpt lat="45.0637356" lon="8.1276102"><ele>254.0</ele><time>2026-04-18T16:50:36.238Z</time></trkpt><trkpt lat="45.06359" lon="8.127565"><ele>254.0</ele><time>2026-04-18T16:50:37.239Z</time></trkpt><trkpt lat="45.0634446" lon="8.1275034"><ele>254.0</ele><time>2026-04-18T16:50:38.238Z</time></trkpt><trkpt lat="45.0632817" lon="8.127443"><ele>253.66666666666669</ele><time>2026-04-18T16:50:39.238Z</time></trkpt><trkpt lat="45.063098" lon="8.1273624"><ele>253.33333333333331</ele><time>2026-04-18T16:50:40.238Z</time></trkpt><trkpt lat="45.062948" lon="8.1272901"><ele>253.0</ele><time>2026-04-18T16:50:41.238Z</time></trkpt><trkpt lat="45.0628083" lon="8.1272254"><ele>253.0</ele><time>2026-04-18T16:50:42.238Z</time></trkpt><trkpt lat="45.0626324" lon="8.1271505"><ele>253.0</ele><time>2026-04-18T16:50:43.239Z</time></trkpt><trkpt lat="45.0624772" lon="8.1270786"><ele>253.0</ele><time>2026-04-18T16:50:44.238Z</time></trkpt><trkpt lat="45.0623236" lon="8.1269939"><ele>249.75</ele><time>2026-04-18T16:50:45.238Z</time></trkpt><trkpt lat="45.0621773" lon="8.1269163"><ele>246.5</ele><time>2026-04-18T16:50:46.238Z</time></trkpt><trkpt lat="45.0620562" lon="8.1268178"><ele>243.25</ele><time>2026-04-18T16:50:47.238Z</time></trkpt><trkpt lat="45.0619418" lon="8.1267107"><ele>240.0</ele><time>2026-04-18T16:50:48.238Z</time></trkpt><trkpt lat="45.0618429" lon="8.1265824"><ele>240.66666666666669</ele><time>2026-04-18T16:50:49.239Z</time></trkpt><trkpt lat="45.0617131" lon="8.1264242"><ele>241.33333333333334</ele><time>2026-04-18T16:50:50.238Z</time></trkpt><trkpt lat="45.0615854" lon="8.1262272"><ele>242.0</ele><time>2026-04-18T16:50:51.238Z</time></trkpt><trkpt lat="45.0614773" lon="8.1260348"><ele>240.66666666666669</ele><time>2026-04-18T16:50:52.238Z</time></trkpt><trkpt lat="45.061338" lon="8.1258492"><ele>239.33333333333331</ele><time>2026-04-18T16:50:53.238Z</time></trkpt><trkpt lat="45.0612305" lon="8.1256866"><ele>238.0</ele><time>2026-04-18T16:50:54.238Z</time></trkpt><trkpt lat="45.0611336" lon="8.1255508"><ele>238.0</ele><time>2026-04-18T16:50:55.238Z</time></trkpt><trkpt lat="45.0609954" lon="8.1253642"><ele>238.0</ele><time>2026-04-18T16:50:56.238Z</time></trkpt><trkpt lat="45.0608837" lon="8.1251849"><ele>238.0</ele><time>2026-04-18T16:50:57.238Z</time></trkpt><trkpt lat="45.0607787" lon="8.1250204"><ele>238.33333333333331</ele><time>2026-04-18T16:50:58.238Z</time></trkpt><trkpt lat="45.06065" lon="8.1248385"><ele>238.66666666666669</ele><time>2026-04-18T16:50:59.238Z</time></trkpt><trkpt lat="45.0605435" lon="8.1246718"><ele>239.0</ele><time>2026-04-18T16:51:00.238Z</time></trkpt><trkpt lat="45.0604456" lon="8.1245136"><ele>239.0</ele><time>2026-04-18T16:51:01.239Z</time></trkpt><trkpt lat="45.0603445" lon="8.1243618"><ele>239.0</ele><time>2026-04-18T16:51:02.238Z</time></trkpt><trkpt lat="45.0602455" lon="8.1242146"><ele>239.0</ele><time>2026-04-18T16:51:03.238Z</time></trkpt><trkpt lat="45.0601276" lon="8.1240762"><ele>239.0</ele><time>2026-04-18T16:51:04.238Z</time></trkpt><trkpt lat="45.060004" lon="8.1239986"><ele>238.33333333333334</ele><time>2026-04-18T16:51:05.238Z</time></trkpt><trkpt lat="45.0598454" lon="8.1239684"><ele>237.66666666666669</ele><time>2026-04-18T16:51:06.239Z</time></trkpt><trkpt lat="45.0597037" lon="8.123931"><ele>237.0</ele><time>2026-04-18T16:51:07.238Z</time></trkpt><trkpt lat="45.0595292" lon="8.1239362"><ele>237.0</ele><time>2026-04-18T16:51:08.238Z</time></trkpt><trkpt lat="45.0593695" lon="8.1239271"><ele>237.0</ele><time>2026-04-18T16:51:09.238Z</time></trkpt><trkpt lat="45.0591943" lon="8.1239269"><ele>237.0</ele><time>2026-04-18T16:51:10.238Z</time></trkpt><trkpt lat="45.0590192" lon="8.1239188"><ele>235.66666666666669</ele><time>2026-04-18T16:51:11.238Z</time></trkpt><trkpt lat="45.0588638" lon="8.1239125"><ele>234.33333333333334</ele><time>2026-04-18T16:51:12.238Z</time></trkpt><trkpt lat="45.0586881" lon="8.1239371"><ele>233.0</ele><time>2026-04-18T16:51:13.238Z</time></trkpt><trkpt lat="45.0585264" lon="8.1239361"><ele>233.0</ele><time>2026-04-18T16:51:14.239Z</time></trkpt><trkpt lat="45.0583705" lon="8.1239337"><ele>233.0</ele><time>2026-04-18T16:51:15.238Z</time></trkpt><trkpt lat="45.0582249" lon="8.1239217"><ele>233.0</ele><time>2026-04-18T16:51:16.238Z</time></trkpt><trkpt lat="45.0580669" lon="8.1239103"><ele>234.33333333333334</ele><time>2026-04-18T16:51:17.239Z</time></trkpt><trkpt lat="45.0579169" lon="8.1239406"><ele>235.66666666666669</ele><time>2026-04-18T16:51:18.239Z</time></trkpt><trkpt lat="45.0577735" lon="8.1239751"><ele>237.0</ele><time>2026-04-18T16:51:19.239Z</time></trkpt><trkpt lat="45.0576194" lon="8.1240774"><ele>238.0</ele><time>2026-04-18T16:51:20.238Z</time></trkpt><trkpt lat="45.0574803" lon="8.1241817"><ele>239.0</ele><time>2026-04-18T16:51:21.238Z</time></trkpt><trkpt lat="45.0573476" lon="8.1242922"><ele>240.0</ele><time>2026-04-18T16:51:22.239Z</time></trkpt><trkpt lat="45.0571973" lon="8.1244269"><ele>240.0</ele><time>2026-04-18T16:51:23.239Z</time></trkpt><trkpt lat="45.0570513" lon="8.1245495"><ele>240.0</ele><time>2026-04-18T16:51:24.238Z</time></trkpt><trkpt lat="45.0568981" lon="8.1246768"><ele>240.0</ele><time>2026-04-18T16:51:25.239Z</time></trkpt><trkpt lat="45.0567345" lon="8.1247747"><ele>239.33333333333331</ele><time>2026-04-18T16:51:26.238Z</time></trkpt><trkpt lat="45.0565821" lon="8.1248582"><ele>238.66666666666666</ele><time>2026-04-18T16:51:27.238Z</time></trkpt><trkpt lat="45.0564139" lon="8.1249418"><ele>238.0</ele><time>2026-04-18T16:51:28.238Z</time></trkpt><trkpt lat="45.0562581" lon="8.1249945"><ele>238.0</ele><time>2026-04-18T16:51:29.239Z</time></trkpt><trkpt lat="45.0560917" lon="8.1250928"><ele>238.0</ele><time>2026-04-18T16:51:30.239Z</time></trkpt><trkpt lat="45.0559409" lon="8.1251831"><ele>238.0</ele><time>2026-04-18T16:51:31.238Z</time></trkpt><trkpt lat="45.0558016" lon="8.1253245"><ele>238.0</ele><time>2026-04-18T16:51:32.238Z</time></trkpt><trkpt lat="45.0556492" lon="8.1254778"><ele>238.0</ele><time>2026-04-18T16:51:33.239Z</time></trkpt><trkpt lat="45.0555216" lon="8.1256551"><ele>238.0</ele><time>2026-04-18T16:51:34.238Z</time></trkpt><trkpt lat="45.0553912" lon="8.1258239"><ele>238.0</ele><time>2026-04-18T16:51:35.239Z</time></trkpt><trkpt lat="45.0552972" lon="8.1260359"><ele>238.0</ele><time>2026-04-18T16:51:36.238Z</time></trkpt><trkpt lat="45.0551907" lon="8.126198"><ele>238.0</ele><time>2026-04-18T16:51:37.238Z</time></trkpt><trkpt lat="45.0550766" lon="8.1263738"><ele>238.0</ele><time>2026-04-18T16:51:38.239Z</time></trkpt><trkpt lat="45.0549548" lon="8.1265406"><ele>238.0</ele><time>2026-04-18T16:51:39.238Z</time></trkpt><trkpt lat="45.0548347" lon="8.126718"><ele>238.0</ele><time>2026-04-18T16:51:40.239Z</time></trkpt><trkpt lat="45.0547308" lon="8.1268982"><ele>239.66666666666666</ele><time>2026-04-18T16:51:41.239Z</time></trkpt><trkpt lat="45.0546118" lon="8.1270815"><ele>241.33333333333331</ele><time>2026-04-18T16:51:42.238Z</time></trkpt><trkpt lat="45.0545105" lon="8.1272416"><ele>243.0</ele><time>2026-04-18T16:51:43.238Z</time></trkpt><trkpt lat="45.0544208" lon="8.1274392"><ele>243.0</ele><time>2026-04-18T16:51:44.238Z</time></trkpt><trkpt lat="45.0543095" lon="8.1276093"><ele>243.0</ele><time>2026-04-18T16:51:45.238Z</time></trkpt><trkpt lat="45.0541816" lon="8.127753"><ele>243.0</ele><time>2026-04-18T16:51:46.239Z</time></trkpt><trkpt lat="45.0540676" lon="8.1279093"><ele>243.66666666666669</ele><time>2026-04-18T16:51:47.238Z</time></trkpt><trkpt lat="45.0539357" lon="8.1280489"><ele>244.33333333333334</ele><time>2026-04-18T16:51:48.238Z</time></trkpt><trkpt lat="45.0538047" lon="8.1281758"><ele>245.0</ele><time>2026-04-18T16:51:49.238Z</time></trkpt><trkpt lat="45.0536552" lon="8.1283141"><ele>245.0</ele><time>2026-04-18T16:51:50.238Z</time></trkpt><trkpt lat="45.0534939" lon="8.1284361"><ele>245.0</ele><time>2026-04-18T16:51:51.238Z</time></trkpt><trkpt lat="45.0533467" lon="8.128564"><ele>245.0</ele><time>2026-04-18T16:51:52.238Z</time></trkpt><trkpt lat="45.0532125" lon="8.1287148"><ele>245.33333333333334</ele><time>2026-04-18T16:51:53.238Z</time></trkpt><trkpt lat="45.0530658" lon="8.1288561"><ele>245.66666666666669</ele><time>2026-04-18T16:51:54.239Z</time></trkpt><trkpt lat="45.0529191" lon="8.1289793"><ele>246.0</ele><time>2026-04-18T16:51:55.239Z</time></trkpt><trkpt lat="45.0527769" lon="8.1291048"><ele>246.0</ele><time>2026-04-18T16:51:56.238Z</time></trkpt><trkpt lat="45.052652" lon="8.1292289"><ele>246.0</ele><time>2026-04-18T16:51:57.239Z</time></trkpt><trkpt lat="45.0524961" lon="8.1293326"><ele>246.0</ele><time>2026-04-18T16:51:58.239Z</time></trkpt><trkpt lat="45.0523181" lon="8.1293721"><ele>245.66666666666669</ele><time>2026-04-18T16:51:59.239Z</time></trkpt><trkpt lat="45.0521471" lon="8.1294396"><ele>245.33333333333334</ele><time>2026-04-18T16:52:00.238Z</time></trkpt><trkpt lat="45.0519914" lon="8.1294811"><ele>245.0</ele><time>2026-04-18T16:52:01.238Z</time></trkpt><trkpt lat="45.051796" lon="8.129541"><ele>242.0</ele><time>2026-04-18T16:52:02.238Z</time></trkpt><trkpt lat="45.0515996" lon="8.1295956"><ele>239.0</ele><time>2026-04-18T16:52:03.238Z</time></trkpt><trkpt lat="45.0514221" lon="8.1296599"><ele>236.0</ele><time>2026-04-18T16:52:04.238Z</time></trkpt><trkpt lat="45.0512564" lon="8.1297347"><ele>236.0</ele><time>2026-04-18T16:52:05.238Z</time></trkpt><trkpt lat="45.0510927" lon="8.1297922"><ele>236.0</ele><time>2026-04-18T16:52:06.238Z</time></trkpt><trkpt lat="45.0509246" lon="8.1298472"><ele>236.0</ele><time>2026-04-18T16:52:07.238Z</time></trkpt><trkpt lat="45.0507768" lon="8.1298976"><ele>235.66666666666669</ele><time>2026-04-18T16:52:08.238Z</time></trkpt><trkpt lat="45.0506304" lon="8.1299606"><ele>235.33333333333331</ele><time>2026-04-18T16:52:09.239Z</time></trkpt><trkpt lat="45.0505045" lon="8.1300447"><ele>235.0</ele><time>2026-04-18T16:52:10.238Z</time></trkpt><trkpt lat="45.050354" lon="8.1301254"><ele>235.0</ele><time>2026-04-18T16:52:11.239Z</time></trkpt><trkpt lat="45.0502287" lon="8.1302483"><ele>235.0</ele><time>2026-04-18T16:52:12.238Z</time></trkpt><trkpt lat="45.0501057" lon="8.130368"><ele>235.0</ele><time>2026-04-18T16:52:13.238Z</time></trkpt><trkpt lat="45.0499816" lon="8.1304886"><ele>234.25</ele><time>2026-04-18T16:52:14.239Z</time></trkpt><trkpt lat="45.0498607" lon="8.1306124"><ele>233.5</ele><time>2026-04-18T16:52:15.239Z</time></trkpt><trkpt lat="45.0497402" lon="8.1307309"><ele>232.75</ele><time>2026-04-18T16:52:16.238Z</time></trkpt><trkpt lat="45.0496171" lon="8.1308435"><ele>232.0</ele><time>2026-04-18T16:52:17.239Z</time></trkpt><trkpt lat="45.0495005" lon="8.1309753"><ele>235.33333333333331</ele><time>2026-04-18T16:52:18.238Z</time></trkpt><trkpt lat="45.0493764" lon="8.1311005"><ele>238.66666666666669</ele><time>2026-04-18T16:52:19.239Z</time></trkpt><trkpt lat="45.049247" lon="8.1312144"><ele>242.0</ele><time>2026-04-18T16:52:20.238Z</time></trkpt><trkpt lat="45.0491261" lon="8.1313342"><ele>243.66666666666669</ele><time>2026-04-18T16:52:21.238Z</time></trkpt><trkpt lat="45.0490035" lon="8.1314671"><ele>245.33333333333331</ele><time>2026-04-18T16:52:22.238Z</time></trkpt><trkpt lat="45.04888" lon="8.1315948"><ele>247.0</ele><time>2026-04-18T16:52:23.238Z</time></trkpt><trkpt lat="45.0487574" lon="8.1317334"><ele>247.0</ele><time>2026-04-18T16:52:24.239Z</time></trkpt><trkpt lat="45.0486699" lon="8.1318488"><ele>247.0</ele><time>2026-04-18T16:52:25.238Z</time></trkpt><trkpt lat="45.0485671" lon="8.1319692"><ele>247.0</ele><time>2026-04-18T16:52:26.238Z</time></trkpt><trkpt lat="45.0484592" lon="8.1320825"><ele>247.0</ele><time>2026-04-18T16:52:27.238Z</time></trkpt><trkpt lat="45.0483362" lon="8.1321915"><ele>247.5</ele><time>2026-04-18T16:52:28.238Z</time></trkpt><trkpt lat="45.0482076" lon="8.132283"><ele>248.0</ele><time>2026-04-18T16:52:29.238Z</time></trkpt><trkpt lat="45.048073" lon="8.1323644"><ele>248.5</ele><time>2026-04-18T16:52:30.238Z</time></trkpt><trkpt lat="45.0479568" lon="8.1324695"><ele>249.0</ele><time>2026-04-18T16:52:31.238Z</time></trkpt><trkpt lat="45.0478508" lon="8.1325773"><ele>249.0</ele><time>2026-04-18T16:52:32.238Z</time></trkpt><trkpt lat="45.047748" lon="8.1326954"><ele>249.0</ele><time>2026-04-18T16:52:33.239Z</time></trkpt><trkpt lat="45.0476563" lon="8.1328173"><ele>249.0</ele><time>2026-04-18T16:52:34.238Z</time></trkpt><trkpt lat="45.0475909" lon="8.1329156"><ele>249.0</ele><time>2026-04-18T16:52:35.238Z</time></trkpt><trkpt lat="45.0475355" lon="8.1330497"><ele>249.0</ele><time>2026-04-18T16:52:36.238Z</time></trkpt><trkpt lat="45.047476" lon="8.1331527"><ele>248.99999999999997</ele><time>2026-04-18T16:52:37.238Z</time></trkpt><trkpt lat="45.0474381" lon="8.1332318"><ele>248.99999999999997</ele><time>2026-04-18T16:52:38.238Z</time></trkpt><trkpt lat="45.0473447" lon="8.1333197"><ele>249.0</ele><time>2026-04-18T16:52:40.238Z</time></trkpt><trkpt lat="45.0471827" lon="8.1332551"><ele>249.0</ele><time>2026-04-18T16:52:42.238Z</time></trkpt><trkpt lat="45.0471198" lon="8.1332298"><ele>248.39999999999998</ele><time>2026-04-18T16:52:43.239Z</time></trkpt><trkpt lat="45.0470619" lon="8.1331222"><ele>247.79999999999998</ele><time>2026-04-18T16:52:44.238Z</time></trkpt><trkpt lat="45.046999" lon="8.133063"><ele>247.20000000000002</ele><time>2026-04-18T16:52:45.238Z</time></trkpt><trkpt lat="45.0469075" lon="8.1330412"><ele>246.60000000000002</ele><time>2026-04-18T16:52:46.239Z</time></trkpt><trkpt lat="45.0467944" lon="8.1330114"><ele>246.0</ele><time>2026-04-18T16:52:47.239Z</time></trkpt><trkpt lat="45.0466957" lon="8.1330073"><ele>245.4</ele><time>2026-04-18T16:52:48.239Z</time></trkpt><trkpt lat="45.0465711" lon="8.132988"><ele>244.8</ele><time>2026-04-18T16:52:49.238Z</time></trkpt><trkpt lat="45.0464691" lon="8.1329811"><ele>244.20000000000002</ele><time>2026-04-18T16:52:50.239Z</time></trkpt><trkpt lat="45.0463752" lon="8.1329705"><ele>243.60000000000002</ele><time>2026-04-18T16:52:51.238Z</time></trkpt><trkpt lat="45.0462681" lon="8.1329372"><ele>243.0</ele><time>2026-04-18T16:52:52.238Z</time></trkpt><trkpt lat="45.0461383" lon="8.1329698"><ele>243.0</ele><time>2026-04-18T16:52:53.238Z</time></trkpt><trkpt lat="45.0460195" lon="8.1330348"><ele>243.0</ele><time>2026-04-18T16:52:54.238Z</time></trkpt><trkpt lat="45.0459789" lon="8.1332277"><ele>243.0</ele><time>2026-04-18T16:52:55.238Z</time></trkpt><trkpt lat="45.0458833" lon="8.1333493"><ele>243.0</ele><time>2026-04-18T16:52:56.238Z</time></trkpt><trkpt lat="45.0458387" lon="8.1335094"><ele>242.25</ele><time>2026-04-18T16:52:57.238Z</time></trkpt><trkpt lat="45.0457747" lon="8.1336666"><ele>241.5</ele><time>2026-04-18T16:52:58.238Z</time></trkpt><trkpt lat="45.0457219" lon="8.1338184"><ele>240.75</ele><time>2026-04-18T16:52:59.239Z</time></trkpt><trkpt lat="45.0456717" lon="8.133976"><ele>240.0</ele><time>2026-04-18T16:53:00.238Z</time></trkpt><trkpt lat="45.0456267" lon="8.1341266"><ele>240.0</ele><time>2026-04-18T16:53:01.238Z</time></trkpt><trkpt lat="45.0455812" lon="8.1342885"><ele>240.0</ele><time>2026-04-18T16:53:02.239Z</time></trkpt><trkpt lat="45.0455746" lon="8.1344717"><ele>240.0</ele><time>2026-04-18T16:53:03.238Z</time></trkpt><trkpt lat="45.0455711" lon="8.1346369"><ele>240.0</ele><time>2026-04-18T16:53:04.238Z</time></trkpt><trkpt lat="45.0455663" lon="8.1347914"><ele>240.0</ele><time>2026-04-18T16:53:05.239Z</time></trkpt><trkpt lat="45.0455684" lon="8.1349232"><ele>240.0</ele><time>2026-04-18T16:53:06.238Z</time></trkpt><trkpt lat="45.0455819" lon="8.1350485"><ele>240.0</ele><time>2026-04-18T16:53:07.238Z</time></trkpt><trkpt lat="45.0455813" lon="8.1351702"><ele>240.0</ele><time>2026-04-18T16:53:08.239Z</time></trkpt><trkpt lat="45.0455284" lon="8.135251"><ele>240.0</ele><time>2026-04-18T16:53:09.238Z</time></trkpt><trkpt lat="45.0454853" lon="8.1353183"><ele>240.0</ele><time>2026-04-18T16:53:10.239Z</time></trkpt><trkpt lat="45.0453937" lon="8.1354281"><ele>240.0</ele><time>2026-04-18T16:53:11.238Z</time></trkpt><trkpt lat="45.0453102" lon="8.135529"><ele>240.0</ele><time>2026-04-18T16:53:12.239Z</time></trkpt><trkpt lat="45.0451651" lon="8.1355956"><ele>240.0</ele><time>2026-04-18T16:53:13.239Z</time></trkpt><trkpt lat="45.0450351" lon="8.1357188"><ele>240.0</ele><time>2026-04-18T16:53:14.238Z</time></trkpt><trkpt lat="45.0449372" lon="8.135833"><ele>238.5</ele><time>2026-04-18T16:53:15.239Z</time></trkpt><trkpt lat="45.0448255" lon="8.1359558"><ele>237.0</ele><time>2026-04-18T16:53:16.238Z</time></trkpt><trkpt lat="45.0446765" lon="8.1360455"><ele>235.5</ele><time>2026-04-18T16:53:17.239Z</time></trkpt><trkpt lat="45.0445558" lon="8.1361577"><ele>234.0</ele><time>2026-04-18T16:53:18.238Z</time></trkpt><trkpt lat="45.044401" lon="8.1362332"><ele>234.0</ele><time>2026-04-18T16:53:19.238Z</time></trkpt><trkpt lat="45.0442755" lon="8.1363467"><ele>234.0</ele><time>2026-04-18T16:53:20.238Z</time></trkpt><trkpt lat="45.0441453" lon="8.1364524"><ele>234.0</ele><time>2026-04-18T16:53:21.238Z</time></trkpt><trkpt lat="45.0440197" lon="8.1365603"><ele>234.0</ele><time>2026-04-18T16:53:22.239Z</time></trkpt><trkpt lat="45.0438853" lon="8.1366705"><ele>232.75</ele><time>2026-04-18T16:53:23.238Z</time></trkpt><trkpt lat="45.0437527" lon="8.1367547"><ele>231.5</ele><time>2026-04-18T16:53:24.238Z</time></trkpt><trkpt lat="45.0436123" lon="8.1368062"><ele>230.25</ele><time>2026-04-18T16:53:25.238Z</time></trkpt><trkpt lat="45.0434616" lon="8.1368492"><ele>229.0</ele><time>2026-04-18T16:53:26.238Z</time></trkpt><trkpt lat="45.043318" lon="8.1368612"><ele>227.33333333333331</ele><time>2026-04-18T16:53:27.239Z</time></trkpt><trkpt lat="45.0431606" lon="8.1368489"><ele>225.66666666666669</ele><time>2026-04-18T16:53:28.238Z</time></trkpt><trkpt lat="45.0429973" lon="8.1368289"><ele>224.0</ele><time>2026-04-18T16:53:29.238Z</time></trkpt><trkpt lat="45.0428365" lon="8.1368078"><ele>224.0</ele><time>2026-04-18T16:53:30.238Z</time></trkpt><trkpt lat="45.042679" lon="8.136791"><ele>224.0</ele><time>2026-04-18T16:53:31.238Z</time></trkpt><trkpt lat="45.0425155" lon="8.1367696"><ele>224.0</ele><time>2026-04-18T16:53:32.238Z</time></trkpt><trkpt lat="45.0423527" lon="8.1367598"><ele>222.33333333333334</ele><time>2026-04-18T16:53:33.239Z</time></trkpt><trkpt lat="45.0422001" lon="8.1367541"><ele>220.66666666666669</ele><time>2026-04-18T16:53:34.238Z</time></trkpt><trkpt lat="45.0420442" lon="8.1367651"><ele>219.0</ele><time>2026-04-18T16:53:35.239Z</time></trkpt><trkpt lat="45.0418843" lon="8.1367908"><ele>219.0</ele><time>2026-04-18T16:53:36.238Z</time></trkpt><trkpt lat="45.0417186" lon="8.1368202"><ele>219.0</ele><time>2026-04-18T16:53:37.239Z</time></trkpt><trkpt lat="45.0415614" lon="8.1368555"><ele>219.0</ele><time>2026-04-18T16:53:38.238Z</time></trkpt><trkpt lat="45.0414043" lon="8.1368912"><ele>218.0</ele><time>2026-04-18T16:53:39.238Z</time></trkpt><trkpt lat="45.0412337" lon="8.1368977"><ele>217.0</ele><time>2026-04-18T16:53:40.238Z</time></trkpt><trkpt lat="45.0410648" lon="8.1368888"><ele>216.0</ele><time>2026-04-18T16:53:41.239Z</time></trkpt><trkpt lat="45.0408865" lon="8.136865"><ele>215.0</ele><time>2026-04-18T16:53:42.238Z</time></trkpt><trkpt lat="45.0407238" lon="8.136819"><ele>214.0</ele><time>2026-04-18T16:53:43.238Z</time></trkpt><trkpt lat="45.0405612" lon="8.1367642"><ele>213.0</ele><time>2026-04-18T16:53:44.238Z</time></trkpt><trkpt lat="45.040391" lon="8.1367177"><ele>213.0</ele><time>2026-04-18T16:53:45.238Z</time></trkpt><trkpt lat="45.0402345" lon="8.1366582"><ele>213.0</ele><time>2026-04-18T16:53:46.239Z</time></trkpt><trkpt lat="45.04007" lon="8.1366168"><ele>213.0</ele><time>2026-04-18T16:53:47.238Z</time></trkpt><trkpt lat="45.0399224" lon="8.1365897"><ele>213.5</ele><time>2026-04-18T16:53:48.238Z</time></trkpt><trkpt lat="45.0397638" lon="8.1365757"><ele>214.0</ele><time>2026-04-18T16:53:49.239Z</time></trkpt><trkpt lat="45.0396265" lon="8.1365702"><ele>214.5</ele><time>2026-04-18T16:53:50.238Z</time></trkpt><trkpt lat="45.0394859" lon="8.1365815"><ele>215.0</ele><time>2026-04-18T16:53:51.238Z</time></trkpt><trkpt lat="45.0393373" lon="8.1365873"><ele>213.0</ele><time>2026-04-18T16:53:52.238Z</time></trkpt><trkpt lat="45.0392088" lon="8.1365506"><ele>211.0</ele><time>2026-04-18T16:53:53.238Z</time></trkpt><trkpt lat="45.0390823" lon="8.1364856"><ele>209.0</ele><time>2026-04-18T16:53:54.239Z</time></trkpt><trkpt lat="45.0389793" lon="8.1363516"><ele>207.0</ele><time>2026-04-18T16:53:55.239Z</time></trkpt><trkpt lat="45.0388908" lon="8.1362044"><ele>207.0</ele><time>2026-04-18T16:53:56.239Z</time></trkpt><trkpt lat="45.0388194" lon="8.1360411"><ele>207.0</ele><time>2026-04-18T16:53:57.238Z</time></trkpt><trkpt lat="45.0387526" lon="8.1358804"><ele>207.0</ele><time>2026-04-18T16:53:58.238Z</time></trkpt><trkpt lat="45.0386684" lon="8.135708"><ele>207.0</ele><time>2026-04-18T16:53:59.238Z</time></trkpt><trkpt lat="45.0385823" lon="8.1355823"><ele>204.5</ele><time>2026-04-18T16:54:00.238Z</time></trkpt><trkpt lat="45.0384724" lon="8.135469"><ele>202.0</ele><time>2026-04-18T16:54:01.238Z</time></trkpt><trkpt lat="45.0383526" lon="8.1353433"><ele>199.5</ele><time>2026-04-18T16:54:02.238Z</time></trkpt><trkpt lat="45.0382316" lon="8.1352807"><ele>197.0</ele><time>2026-04-18T16:54:03.239Z</time></trkpt><trkpt lat="45.0380717" lon="8.1352243"><ele>197.0</ele><time>2026-04-18T16:54:04.239Z</time></trkpt><trkpt lat="45.0379128" lon="8.1351579"><ele>197.0</ele><time>2026-04-18T16:54:05.238Z</time></trkpt><trkpt lat="45.0377694" lon="8.1351063"><ele>197.0</ele><time>2026-04-18T16:54:06.238Z</time></trkpt><trkpt lat="45.0376134" lon="8.135051"><ele>194.5</ele><time>2026-04-18T16:54:07.239Z</time></trkpt><trkpt lat="45.0374501" lon="8.135044"><ele>192.0</ele><time>2026-04-18T16:54:08.238Z</time></trkpt><trkpt lat="45.0373188" lon="8.1350417"><ele>189.5</ele><time>2026-04-18T16:54:09.238Z</time></trkpt><trkpt lat="45.0371992" lon="8.1350897"><ele>187.0</ele><time>2026-04-18T16:54:10.239Z</time></trkpt><trkpt lat="45.0370772" lon="8.1351447"><ele>187.0</ele><time>2026-04-18T16:54:11.238Z</time></trkpt><trkpt lat="45.0369324" lon="8.1352486"><ele>187.0</ele><time>2026-04-18T16:54:12.239Z</time></trkpt><trkpt lat="45.0368063" lon="8.1353508"><ele>187.0</ele><time>2026-04-18T16:54:13.238Z</time></trkpt><trkpt lat="45.0366859" lon="8.1354453"><ele>187.0</ele><time>2026-04-18T16:54:14.238Z</time></trkpt><trkpt lat="45.0365679" lon="8.1355338"><ele>186.0</ele><time>2026-04-18T16:54:15.238Z</time></trkpt><trkpt lat="45.0364419" lon="8.1356276"><ele>185.0</ele><time>2026-04-18T16:54:16.238Z</time></trkpt><trkpt lat="45.0363365" lon="8.1356684"><ele>184.0</ele><time>2026-04-18T16:54:17.238Z</time></trkpt><trkpt lat="45.0362344" lon="8.1356987"><ele>183.0</ele><time>2026-04-18T16:54:18.239Z</time></trkpt><trkpt lat="45.0361119" lon="8.1356215"><ele>183.0</ele><time>2026-04-18T16:54:19.238Z</time></trkpt><trkpt lat="45.0360032" lon="8.1355249"><ele>183.0</ele><time>2026-04-18T16:54:20.238Z</time></trkpt><trkpt lat="45.035935" lon="8.1354039"><ele>183.0</ele><time>2026-04-18T16:54:21.238Z</time></trkpt><trkpt lat="45.0358592" lon="8.1352351"><ele>183.0</ele><time>2026-04-18T16:54:22.238Z</time></trkpt><trkpt lat="45.0357992" lon="8.1350375"><ele>185.66666666666666</ele><time>2026-04-18T16:54:23.238Z</time></trkpt><trkpt lat="45.0357653" lon="8.1348185"><ele>188.33333333333331</ele><time>2026-04-18T16:54:24.238Z</time></trkpt><trkpt lat="45.0357159" lon="8.1345886"><ele>191.0</ele><time>2026-04-18T16:54:25.238Z</time></trkpt><trkpt lat="45.0356785" lon="8.1343829"><ele>191.0</ele><time>2026-04-18T16:54:26.238Z</time></trkpt><trkpt lat="45.0356522" lon="8.134167"><ele>191.0</ele><time>2026-04-18T16:54:27.238Z</time></trkpt><trkpt lat="45.0355521" lon="8.1339217"><ele>191.0</ele><time>2026-04-18T16:54:28.239Z</time></trkpt><trkpt lat="45.0354762" lon="8.1336964"><ele>189.33333333333331</ele><time>2026-04-18T16:54:29.239Z</time></trkpt><trkpt lat="45.0353807" lon="8.1334777"><ele>187.66666666666666</ele><time>2026-04-18T16:54:30.239Z</time></trkpt><trkpt lat="45.0352909" lon="8.1332673"><ele>186.0</ele><time>2026-04-18T16:54:31.238Z</time></trkpt><trkpt lat="45.0352069" lon="8.1330716"><ele>186.33333333333334</ele><time>2026-04-18T16:54:32.239Z</time></trkpt><trkpt lat="45.0350976" lon="8.1328381"><ele>186.66666666666669</ele><time>2026-04-18T16:54:33.238Z</time></trkpt><trkpt lat="45.0349996" lon="8.1326305"><ele>187.0</ele><time>2026-04-18T16:54:34.239Z</time></trkpt><trkpt lat="45.0349306" lon="8.1324431"><ele>183.0</ele><time>2026-04-18T16:54:35.239Z</time></trkpt><trkpt lat="45.0348574" lon="8.1322588"><ele>179.0</ele><time>2026-04-18T16:54:36.238Z</time></trkpt><trkpt lat="45.0347827" lon="8.1320535"><ele>175.0</ele><time>2026-04-18T16:54:37.239Z</time></trkpt><trkpt lat="45.0346965" lon="8.1319029"><ele>175.0</ele><time>2026-04-18T16:54:38.239Z</time></trkpt><trkpt lat="45.0346122" lon="8.1317568"><ele>175.0</ele><time>2026-04-18T16:54:39.238Z</time></trkpt><trkpt lat="45.0345236" lon="8.1316376"><ele>175.0</ele><time>2026-04-18T16:54:40.238Z</time></trkpt><trkpt lat="45.0344215" lon="8.1315567"><ele>175.0</ele><time>2026-04-18T16:54:41.238Z</time></trkpt><trkpt lat="45.0343136" lon="8.1315092"><ele>173.66666666666669</ele><time>2026-04-18T16:54:42.238Z</time></trkpt><trkpt lat="45.0341864" lon="8.1315563"><ele>172.33333333333334</ele><time>2026-04-18T16:54:43.239Z</time></trkpt><trkpt lat="45.0340272" lon="8.1316085"><ele>171.0</ele><time>2026-04-18T16:54:44.238Z</time></trkpt><trkpt lat="45.0338262" lon="8.1317197"><ele>171.0</ele><time>2026-04-18T16:54:45.238Z</time></trkpt><trkpt lat="45.033673" lon="8.1317907"><ele>171.0</ele><time>2026-04-18T16:54:46.239Z</time></trkpt><trkpt lat="45.0335229" lon="8.1318751"><ele>171.0</ele><time>2026-04-18T16:54:47.239Z</time></trkpt><trkpt lat="45.0333642" lon="8.1319477"><ele>170.0</ele><time>2026-04-18T16:54:48.238Z</time></trkpt><trkpt lat="45.0332093" lon="8.1320272"><ele>169.0</ele><time>2026-04-18T16:54:49.238Z</time></trkpt><trkpt lat="45.03304" lon="8.1321047"><ele>168.0</ele><time>2026-04-18T16:54:50.238Z</time></trkpt><trkpt lat="45.0328854" lon="8.1321823"><ele>168.0</ele><time>2026-04-18T16:54:51.238Z</time></trkpt><trkpt lat="45.0327171" lon="8.1322745"><ele>168.0</ele><time>2026-04-18T16:54:52.238Z</time></trkpt><trkpt lat="45.0325434" lon="8.1323545"><ele>168.0</ele><time>2026-04-18T16:54:53.238Z</time></trkpt><trkpt lat="45.0323772" lon="8.132446"><ele>169.0</ele><time>2026-04-18T16:54:54.238Z</time></trkpt><trkpt lat="45.0322194" lon="8.1325253"><ele>170.0</ele><time>2026-04-18T16:54:55.238Z</time></trkpt><trkpt lat="45.0320434" lon="8.1326236"><ele>171.0</ele><time>2026-04-18T16:54:56.238Z</time></trkpt><trkpt lat="45.0318819" lon="8.1327167"><ele>171.0</ele><time>2026-04-18T16:54:57.238Z</time></trkpt><trkpt lat="45.0317282" lon="8.1327893"><ele>171.0</ele><time>2026-04-18T16:54:58.238Z</time></trkpt><trkpt lat="45.0315701" lon="8.13286"><ele>171.0</ele><time>2026-04-18T16:54:59.238Z</time></trkpt><trkpt lat="45.0314095" lon="8.1329374"><ele>170.0</ele><time>2026-04-18T16:55:00.238Z</time></trkpt><trkpt lat="45.0312741" lon="8.1330143"><ele>169.0</ele><time>2026-04-18T16:55:01.239Z</time></trkpt><trkpt lat="45.0311233" lon="8.1330779"><ele>168.0</ele><time>2026-04-18T16:55:02.238Z</time></trkpt><trkpt lat="45.0309868" lon="8.1331753"><ele>167.66666666666666</ele><time>2026-04-18T16:55:03.238Z</time></trkpt><trkpt lat="45.0308352" lon="8.1332745"><ele>167.33333333333331</ele><time>2026-04-18T16:55:04.238Z</time></trkpt><trkpt lat="45.0307133" lon="8.1334208"><ele>167.0</ele><time>2026-04-18T16:55:05.238Z</time></trkpt><trkpt lat="45.0306021" lon="8.1335711"><ele>167.0</ele><time>2026-04-18T16:55:06.238Z</time></trkpt><trkpt lat="45.030488" lon="8.1337337"><ele>167.0</ele><time>2026-04-18T16:55:07.238Z</time></trkpt><trkpt lat="45.0303709" lon="8.133881"><ele>167.0</ele><time>2026-04-18T16:55:08.239Z</time></trkpt><trkpt lat="45.030244" lon="8.134029"><ele>166.66666666666666</ele><time>2026-04-18T16:55:09.238Z</time></trkpt><trkpt lat="45.0301252" lon="8.1341847"><ele>166.33333333333334</ele><time>2026-04-18T16:55:10.238Z</time></trkpt><trkpt lat="45.0299997" lon="8.1343439"><ele>166.0</ele><time>2026-04-18T16:55:11.238Z</time></trkpt><trkpt lat="45.0298818" lon="8.1345031"><ele>166.0</ele><time>2026-04-18T16:55:12.238Z</time></trkpt><trkpt lat="45.0297489" lon="8.1346657"><ele>166.0</ele><time>2026-04-18T16:55:13.239Z</time></trkpt><trkpt lat="45.0296328" lon="8.1348217"><ele>166.0</ele><time>2026-04-18T16:55:14.238Z</time></trkpt><trkpt lat="45.0295092" lon="8.1349856"><ele>166.66666666666669</ele><time>2026-04-18T16:55:15.238Z</time></trkpt><trkpt lat="45.0294008" lon="8.1351429"><ele>167.33333333333334</ele><time>2026-04-18T16:55:16.239Z</time></trkpt><trkpt lat="45.0292916" lon="8.1352848"><ele>168.0</ele><time>2026-04-18T16:55:17.239Z</time></trkpt><trkpt lat="45.0291713" lon="8.135434"><ele>167.75</ele><time>2026-04-18T16:55:18.238Z</time></trkpt><trkpt lat="45.0290854" lon="8.135569"><ele>167.5</ele><time>2026-04-18T16:55:19.238Z</time></trkpt><trkpt lat="45.0289998" lon="8.1357423"><ele>167.25</ele><time>2026-04-18T16:55:20.238Z</time></trkpt><trkpt lat="45.0289085" lon="8.1359317"><ele>167.0</ele><time>2026-04-18T16:55:21.238Z</time></trkpt><trkpt lat="45.0288484" lon="8.1361244"><ele>167.0</ele><time>2026-04-18T16:55:22.238Z</time></trkpt><trkpt lat="45.0287786" lon="8.1363249"><ele>167.0</ele><time>2026-04-18T16:55:23.239Z</time></trkpt><trkpt lat="45.0287384" lon="8.1365478"><ele>167.0</ele><time>2026-04-18T16:55:24.238Z</time></trkpt><trkpt lat="45.0287223" lon="8.1367906"><ele>166.75</ele><time>2026-04-18T16:55:25.239Z</time></trkpt><trkpt lat="45.0286962" lon="8.1370007"><ele>166.5</ele><time>2026-04-18T16:55:26.238Z</time></trkpt><trkpt lat="45.0286735" lon="8.1372024"><ele>166.25</ele><time>2026-04-18T16:55:27.238Z</time></trkpt><trkpt lat="45.0286494" lon="8.137387"><ele>166.0</ele><time>2026-04-18T16:55:28.238Z</time></trkpt><trkpt lat="45.0286342" lon="8.1375684"><ele>166.0</ele><time>2026-04-18T16:55:29.238Z</time></trkpt><trkpt lat="45.0286036" lon="8.137731"><ele>166.0</ele><time>2026-04-18T16:55:30.238Z</time></trkpt><trkpt lat="45.0285763" lon="8.1378714"><ele>166.0</ele><time>2026-04-18T16:55:31.238Z</time></trkpt><trkpt lat="45.0285184" lon="8.1379691"><ele>166.0</ele><time>2026-04-18T16:55:32.239Z</time></trkpt><trkpt lat="45.0284049" lon="8.1380027"><ele>166.0</ele><time>2026-04-18T16:55:33.238Z</time></trkpt><trkpt lat="45.0283039" lon="8.1380271"><ele>165.75</ele><time>2026-04-18T16:55:34.239Z</time></trkpt><trkpt lat="45.0281862" lon="8.1379626"><ele>165.5</ele><time>2026-04-18T16:55:35.238Z</time></trkpt><trkpt lat="45.0280632" lon="8.1378973"><ele>165.25</ele><time>2026-04-18T16:55:36.238Z</time></trkpt><trkpt lat="45.0279167" lon="8.1378416"><ele>165.0</ele><time>2026-04-18T16:55:37.238Z</time></trkpt><trkpt lat="45.0277867" lon="8.137781"><ele>165.0</ele><time>2026-04-18T16:55:38.238Z</time></trkpt><trkpt lat="45.0276467" lon="8.1377164"><ele>165.0</ele><time>2026-04-18T16:55:39.238Z</time></trkpt><trkpt lat="45.027508" lon="8.1376546"><ele>165.0</ele><time>2026-04-18T16:55:40.238Z</time></trkpt><trkpt lat="45.0273822" lon="8.1375732"><ele>165.0</ele><time>2026-04-18T16:55:41.238Z</time></trkpt><trkpt lat="45.0272467" lon="8.1375243"><ele>165.0</ele><time>2026-04-18T16:55:42.239Z</time></trkpt><trkpt lat="45.027107" lon="8.1374784"><ele>165.0</ele><time>2026-04-18T16:55:43.238Z</time></trkpt><trkpt lat="45.0269742" lon="8.1374306"><ele>165.0</ele><time>2026-04-18T16:55:44.238Z</time></trkpt><trkpt lat="45.0268471" lon="8.1373643"><ele>165.0</ele><time>2026-04-18T16:55:45.238Z</time></trkpt><trkpt lat="45.0267267" lon="8.1373073"><ele>165.2</ele><time>2026-04-18T16:55:46.239Z</time></trkpt><trkpt lat="45.0266188" lon="8.1372643"><ele>165.4</ele><time>2026-04-18T16:55:47.238Z</time></trkpt><trkpt lat="45.0265207" lon="8.1372171"><ele>165.60000000000002</ele><time>2026-04-18T16:55:48.238Z</time></trkpt><trkpt lat="45.0264248" lon="8.137182"><ele>165.8</ele><time>2026-04-18T16:55:49.238Z</time></trkpt><trkpt lat="45.0263615" lon="8.1371345"><ele>166.0</ele><time>2026-04-18T16:55:50.238Z</time></trkpt><trkpt lat="45.0262825" lon="8.1370915"><ele>166.0</ele><time>2026-04-18T16:55:51.239Z</time></trkpt><trkpt lat="45.0262188" lon="8.1370104"><ele>166.0</ele><time>2026-04-18T16:55:52.239Z</time></trkpt><trkpt lat="45.0261541" lon="8.1369434"><ele>166.0</ele><time>2026-04-18T16:55:53.238Z</time></trkpt><trkpt lat="45.0261635" lon="8.1368235"><ele>166.0</ele><time>2026-04-18T16:55:54.238Z</time></trkpt><trkpt lat="45.0261686" lon="8.1366998"><ele>166.0</ele><time>2026-04-18T16:55:55.239Z</time></trkpt><trkpt lat="45.0261945" lon="8.1365612"><ele>166.0</ele><time>2026-04-18T16:55:56.238Z</time></trkpt><trkpt lat="45.0262177" lon="8.1364159"><ele>165.5</ele><time>2026-04-18T16:55:57.239Z</time></trkpt><trkpt lat="45.0262492" lon="8.1362525"><ele>165.0</ele><time>2026-04-18T16:55:58.239Z</time></trkpt><trkpt lat="45.0262915" lon="8.136093"><ele>164.5</ele><time>2026-04-18T16:55:59.239Z</time></trkpt><trkpt lat="45.02634" lon="8.1359278"><ele>164.0</ele><time>2026-04-18T16:56:00.238Z</time></trkpt><trkpt lat="45.0263864" lon="8.1357392"><ele>163.66666666666666</ele><time>2026-04-18T16:56:01.238Z</time></trkpt><trkpt lat="45.0264408" lon="8.1355508"><ele>163.33333333333334</ele><time>2026-04-18T16:56:02.238Z</time></trkpt><trkpt lat="45.0264938" lon="8.135352"><ele>163.0</ele><time>2026-04-18T16:56:03.238Z</time></trkpt><trkpt lat="45.0265466" lon="8.1351423"><ele>163.0</ele><time>2026-04-18T16:56:04.238Z</time></trkpt><trkpt lat="45.0266012" lon="8.1349378"><ele>163.0</ele><time>2026-04-18T16:56:05.238Z</time></trkpt><trkpt lat="45.0266581" lon="8.1347725"><ele>163.0</ele><time>2026-04-18T16:56:06.238Z</time></trkpt><trkpt lat="45.0267014" lon="8.1345543"><ele>163.0</ele><time>2026-04-18T16:56:07.239Z</time></trkpt><trkpt lat="45.0267587" lon="8.1343374"><ele>163.66666666666669</ele><time>2026-04-18T16:56:08.238Z</time></trkpt><trkpt lat="45.0268089" lon="8.1341145"><ele>164.33333333333334</ele><time>2026-04-18T16:56:09.238Z</time></trkpt><trkpt lat="45.0268774" lon="8.1338911"><ele>165.0</ele><time>2026-04-18T16:56:10.238Z</time></trkpt><trkpt lat="45.0269365" lon="8.133669"><ele>165.0</ele><time>2026-04-18T16:56:11.238Z</time></trkpt><trkpt lat="45.0269908" lon="8.1334476"><ele>165.0</ele><time>2026-04-18T16:56:12.238Z</time></trkpt><trkpt lat="45.0270446" lon="8.1332293"><ele>165.0</ele><time>2026-04-18T16:56:13.238Z</time></trkpt><trkpt lat="45.027103" lon="8.1330015"><ele>165.0</ele><time>2026-04-18T16:56:14.239Z</time></trkpt><trkpt lat="45.0271482" lon="8.1327735"><ele>165.0</ele><time>2026-04-18T16:56:15.238Z</time></trkpt><trkpt lat="45.0272055" lon="8.1325386"><ele>165.0</ele><time>2026-04-18T16:56:16.239Z</time></trkpt><trkpt lat="45.0272658" lon="8.1323152"><ele>165.33333333333334</ele><time>2026-04-18T16:56:17.238Z</time></trkpt><trkpt lat="45.0273184" lon="8.1320926"><ele>165.66666666666669</ele><time>2026-04-18T16:56:18.239Z</time></trkpt><trkpt lat="45.0273808" lon="8.1318742"><ele>166.0</ele><time>2026-04-18T16:56:19.238Z</time></trkpt><trkpt lat="45.0274375" lon="8.1316602"><ele>167.0</ele><time>2026-04-18T16:56:20.238Z</time></trkpt><trkpt lat="45.0274989" lon="8.1314531"><ele>168.0</ele><time>2026-04-18T16:56:21.238Z</time></trkpt><trkpt lat="45.0275564" lon="8.1312417"><ele>169.0</ele><time>2026-04-18T16:56:22.238Z</time></trkpt><trkpt lat="45.027616" lon="8.1310227"><ele>169.0</ele><time>2026-04-18T16:56:23.238Z</time></trkpt><trkpt lat="45.0276748" lon="8.130818"><ele>169.0</ele><time>2026-04-18T16:56:24.238Z</time></trkpt><trkpt lat="45.027724" lon="8.1306287"><ele>169.0</ele><time>2026-04-18T16:56:25.238Z</time></trkpt><trkpt lat="45.0277688" lon="8.1304487"><ele>169.0</ele><time>2026-04-18T16:56:26.239Z</time></trkpt><trkpt lat="45.0278155" lon="8.1302963"><ele>168.79999999999998</ele><time>2026-04-18T16:56:27.239Z</time></trkpt><trkpt lat="45.0278557" lon="8.1301314"><ele>168.6</ele><time>2026-04-18T16:56:28.239Z</time></trkpt><trkpt lat="45.0278944" lon="8.1299839"><ele>168.4</ele><time>2026-04-18T16:56:29.238Z</time></trkpt><trkpt lat="45.0279289" lon="8.1298531"><ele>168.2</ele><time>2026-04-18T16:56:30.238Z</time></trkpt><trkpt lat="45.0279507" lon="8.1297346"><ele>168.0</ele><time>2026-04-18T16:56:31.238Z</time></trkpt><trkpt lat="45.0279483" lon="8.1296306"><ele>168.0</ele><time>2026-04-18T16:56:32.238Z</time></trkpt><trkpt lat="45.0279097" lon="8.1295381"><ele>168.0</ele><time>2026-04-18T16:56:33.238Z</time></trkpt><trkpt lat="45.0278309" lon="8.1294234"><ele>168.0</ele><time>2026-04-18T16:56:34.238Z</time></trkpt><trkpt lat="45.0277413" lon="8.1293441"><ele>168.0</ele><time>2026-04-18T16:56:35.238Z</time></trkpt><trkpt lat="45.0276357" lon="8.1292651"><ele>168.0</ele><time>2026-04-18T16:56:36.238Z</time></trkpt><trkpt lat="45.027518" lon="8.1291898"><ele>167.75</ele><time>2026-04-18T16:56:37.239Z</time></trkpt><trkpt lat="45.027398" lon="8.1291074"><ele>167.5</ele><time>2026-04-18T16:56:38.239Z</time></trkpt><trkpt lat="45.0272779" lon="8.1290138"><ele>167.25</ele><time>2026-04-18T16:56:39.239Z</time></trkpt><trkpt lat="45.027145" lon="8.1289273"><ele>167.0</ele><time>2026-04-18T16:56:40.238Z</time></trkpt><trkpt lat="45.0270028" lon="8.1288169"><ele>167.66666666666666</ele><time>2026-04-18T16:56:41.238Z</time></trkpt><trkpt lat="45.0268555" lon="8.1287231"><ele>168.33333333333334</ele><time>2026-04-18T16:56:42.239Z</time></trkpt><trkpt lat="45.0267224" lon="8.1286243"><ele>169.0</ele><time>2026-04-18T16:56:43.238Z</time></trkpt><trkpt lat="45.0265823" lon="8.1285125"><ele>168.33333333333334</ele><time>2026-04-18T16:56:44.238Z</time></trkpt><trkpt lat="45.0264486" lon="8.1284033"><ele>167.66666666666666</ele><time>2026-04-18T16:56:45.238Z</time></trkpt><trkpt lat="45.0263019" lon="8.1283038"><ele>167.0</ele><time>2026-04-18T16:56:46.238Z</time></trkpt><trkpt lat="45.0261013" lon="8.1281817"><ele>167.0</ele><time>2026-04-18T16:56:47.238Z</time></trkpt><trkpt lat="45.025962" lon="8.1280557"><ele>167.0</ele><time>2026-04-18T16:56:48.238Z</time></trkpt><trkpt lat="45.0258082" lon="8.1279407"><ele>167.0</ele><time>2026-04-18T16:56:49.238Z</time></trkpt><trkpt lat="45.0256561" lon="8.127835"><ele>167.66666666666666</ele><time>2026-04-18T16:56:50.239Z</time></trkpt><trkpt lat="45.0254845" lon="8.1277023"><ele>168.33333333333334</ele><time>2026-04-18T16:56:51.238Z</time></trkpt><trkpt lat="45.0253315" lon="8.1275882"><ele>169.0</ele><time>2026-04-18T16:56:52.239Z</time></trkpt><trkpt lat="45.0252075" lon="8.1274821"><ele>169.33333333333334</ele><time>2026-04-18T16:56:53.239Z</time></trkpt><trkpt lat="45.0250212" lon="8.1273567"><ele>169.66666666666666</ele><time>2026-04-18T16:56:54.238Z</time></trkpt><trkpt lat="45.0248956" lon="8.127261"><ele>170.0</ele><time>2026-04-18T16:56:55.239Z</time></trkpt><trkpt lat="45.0247512" lon="8.1271542"><ele>171.0</ele><time>2026-04-18T16:56:56.239Z</time></trkpt><trkpt lat="45.0246153" lon="8.127046"><ele>172.0</ele><time>2026-04-18T16:56:57.238Z</time></trkpt><trkpt lat="45.0244836" lon="8.1269477"><ele>173.0</ele><time>2026-04-18T16:56:58.238Z</time></trkpt><trkpt lat="45.0243464" lon="8.1268553"><ele>173.0</ele><time>2026-04-18T16:56:59.238Z</time></trkpt><trkpt lat="45.0241966" lon="8.1267497"><ele>173.0</ele><time>2026-04-18T16:57:00.238Z</time></trkpt><trkpt lat="45.0240383" lon="8.1266408"><ele>173.0</ele><time>2026-04-18T16:57:01.238Z</time></trkpt><trkpt lat="45.023889" lon="8.1265251"><ele>175.33333333333331</ele><time>2026-04-18T16:57:02.238Z</time></trkpt><trkpt lat="45.0237437" lon="8.1264158"><ele>177.66666666666666</ele><time>2026-04-18T16:57:03.239Z</time></trkpt><trkpt lat="45.0235884" lon="8.126308"><ele>180.0</ele><time>2026-04-18T16:57:04.238Z</time></trkpt><trkpt lat="45.0234377" lon="8.1261863"><ele>179.33333333333334</ele><time>2026-04-18T16:57:05.239Z</time></trkpt><trkpt lat="45.0232841" lon="8.1260669"><ele>178.66666666666669</ele><time>2026-04-18T16:57:06.238Z</time></trkpt><trkpt lat="45.0231532" lon="8.125948"><ele>178.0</ele><time>2026-04-18T16:57:07.238Z</time></trkpt><trkpt lat="45.0230002" lon="8.1258345"><ele>180.0</ele><time>2026-04-18T16:57:08.239Z</time></trkpt><trkpt lat="45.022859" lon="8.1256909"><ele>182.0</ele><time>2026-04-18T16:57:09.238Z</time></trkpt><trkpt lat="45.0226958" lon="8.1255539"><ele>184.0</ele><time>2026-04-18T16:57:10.239Z</time></trkpt><trkpt lat="45.0225444" lon="8.1254136"><ele>185.0</ele><time>2026-04-18T16:57:11.238Z</time></trkpt><trkpt lat="45.0223873" lon="8.1253058"><ele>186.0</ele><time>2026-04-18T16:57:12.238Z</time></trkpt><trkpt lat="45.0222534" lon="8.1252005"><ele>187.0</ele><time>2026-04-18T16:57:13.238Z</time></trkpt><trkpt lat="45.0220858" lon="8.1251123"><ele>187.0</ele><time>2026-04-18T16:57:14.238Z</time></trkpt><trkpt lat="45.0219368" lon="8.1250145"><ele>187.0</ele><time>2026-04-18T16:57:15.238Z</time></trkpt><trkpt lat="45.02178" lon="8.1249074"><ele>187.0</ele><time>2026-04-18T16:57:16.238Z</time></trkpt><trkpt lat="45.0216276" lon="8.1247958"><ele>189.33333333333334</ele><time>2026-04-18T16:57:17.239Z</time></trkpt><trkpt lat="45.0214664" lon="8.1246734"><ele>191.66666666666669</ele><time>2026-04-18T16:57:18.238Z</time></trkpt><trkpt lat="45.0213268" lon="8.124563"><ele>194.0</ele><time>2026-04-18T16:57:19.239Z</time></trkpt><trkpt lat="45.021196" lon="8.1244413"><ele>194.0</ele><time>2026-04-18T16:57:20.239Z</time></trkpt><trkpt lat="45.0210695" lon="8.1243104"><ele>194.0</ele><time>2026-04-18T16:57:21.239Z</time></trkpt><trkpt lat="45.0209115" lon="8.1241497"><ele>194.0</ele><time>2026-04-18T16:57:22.238Z</time></trkpt><trkpt lat="45.0207765" lon="8.1239914"><ele>195.66666666666669</ele><time>2026-04-18T16:57:23.239Z</time></trkpt><trkpt lat="45.0206727" lon="8.1238404"><ele>197.33333333333331</ele><time>2026-04-18T16:57:24.238Z</time></trkpt><trkpt lat="45.0205412" lon="8.1236875"><ele>199.0</ele><time>2026-04-18T16:57:25.238Z</time></trkpt><trkpt lat="45.0204229" lon="8.1235505"><ele>199.0</ele><time>2026-04-18T16:57:26.238Z</time></trkpt><trkpt lat="45.0203095" lon="8.1234158"><ele>199.0</ele><time>2026-04-18T16:57:27.238Z</time></trkpt><trkpt lat="45.0201881" lon="8.1232879"><ele>199.0</ele><time>2026-04-18T16:57:28.238Z</time></trkpt><trkpt lat="45.020047" lon="8.1231778"><ele>201.0</ele><time>2026-04-18T16:57:29.238Z</time></trkpt><trkpt lat="45.0199026" lon="8.123104"><ele>203.0</ele><time>2026-04-18T16:57:30.238Z</time></trkpt><trkpt lat="45.0197576" lon="8.1230714"><ele>205.0</ele><time>2026-04-18T16:57:31.239Z</time></trkpt><trkpt lat="45.0196152" lon="8.1230568"><ele>207.0</ele><time>2026-04-18T16:57:32.238Z</time></trkpt><trkpt lat="45.0194235" lon="8.1229997"><ele>207.0</ele><time>2026-04-18T16:57:33.238Z</time></trkpt><trkpt lat="45.0192612" lon="8.1229552"><ele>207.0</ele><time>2026-04-18T16:57:34.239Z</time></trkpt><trkpt lat="45.0191509" lon="8.1228222"><ele>207.0</ele><time>2026-04-18T16:57:35.238Z</time></trkpt><trkpt lat="45.019027" lon="8.122692"><ele>206.33333333333331</ele><time>2026-04-18T16:57:36.239Z</time></trkpt><trkpt lat="45.0189123" lon="8.1225389"><ele>205.66666666666666</ele><time>2026-04-18T16:57:37.238Z</time></trkpt><trkpt lat="45.0187843" lon="8.1223844"><ele>205.0</ele><time>2026-04-18T16:57:38.238Z</time></trkpt><trkpt lat="45.0186468" lon="8.1222384"><ele>207.0</ele><time>2026-04-18T16:57:39.238Z</time></trkpt><trkpt lat="45.0185148" lon="8.122102"><ele>209.0</ele><time>2026-04-18T16:57:40.239Z</time></trkpt><trkpt lat="45.0184" lon="8.1219424"><ele>211.0</ele><time>2026-04-18T16:57:41.239Z</time></trkpt><trkpt lat="45.0182841" lon="8.1217844"><ele>211.0</ele><time>2026-04-18T16:57:42.238Z</time></trkpt><trkpt lat="45.0181336" lon="8.1216262"><ele>211.0</ele><time>2026-04-18T16:57:43.238Z</time></trkpt><trkpt lat="45.0180034" lon="8.1214886"><ele>211.0</ele><time>2026-04-18T16:57:44.239Z</time></trkpt><trkpt lat="45.0178773" lon="8.1213207"><ele>213.33333333333331</ele><time>2026-04-18T16:57:45.239Z</time></trkpt><trkpt lat="45.0177451" lon="8.121181"><ele>215.66666666666669</ele><time>2026-04-18T16:57:46.238Z</time></trkpt><trkpt lat="45.0176008" lon="8.1210076"><ele>218.0</ele><time>2026-04-18T16:57:47.238Z</time></trkpt><trkpt lat="45.0174865" lon="8.1208658"><ele>219.33333333333334</ele><time>2026-04-18T16:57:48.239Z</time></trkpt><trkpt lat="45.0173729" lon="8.1207026"><ele>220.66666666666669</ele><time>2026-04-18T16:57:49.238Z</time></trkpt><trkpt lat="45.0172474" lon="8.1205435"><ele>222.0</ele><time>2026-04-18T16:57:50.239Z</time></trkpt><trkpt lat="45.0171099" lon="8.12038"><ele>222.0</ele><time>2026-04-18T16:57:51.238Z</time></trkpt><trkpt lat="45.0169769" lon="8.1202009"><ele>222.0</ele><time>2026-04-18T16:57:52.238Z</time></trkpt><trkpt lat="45.0168712" lon="8.1200602"><ele>222.0</ele><time>2026-04-18T16:57:53.239Z</time></trkpt><trkpt lat="45.0167528" lon="8.1199097"><ele>227.0</ele><time>2026-04-18T16:57:54.239Z</time></trkpt><trkpt lat="45.0166286" lon="8.1197591"><ele>232.0</ele><time>2026-04-18T16:57:55.238Z</time></trkpt><trkpt lat="45.0165057" lon="8.1195985"><ele>237.0</ele><time>2026-04-18T16:57:56.238Z</time></trkpt><trkpt lat="45.016389" lon="8.1194441"><ele>237.0</ele><time>2026-04-18T16:57:57.238Z</time></trkpt><trkpt lat="45.0162602" lon="8.1192929"><ele>237.0</ele><time>2026-04-18T16:57:58.239Z</time></trkpt><trkpt lat="45.0161471" lon="8.1191344"><ele>237.0</ele><time>2026-04-18T16:57:59.238Z</time></trkpt><trkpt lat="45.0159974" lon="8.1189587"><ele>238.0</ele><time>2026-04-18T16:58:00.238Z</time></trkpt><trkpt lat="45.0158903" lon="8.1187935"><ele>239.0</ele><time>2026-04-18T16:58:01.238Z</time></trkpt><trkpt lat="45.0157711" lon="8.1186523"><ele>240.0</ele><time>2026-04-18T16:58:02.238Z</time></trkpt><trkpt lat="45.0156541" lon="8.1184997"><ele>241.33333333333331</ele><time>2026-04-18T16:58:03.238Z</time></trkpt><trkpt lat="45.0155251" lon="8.1183381"><ele>242.66666666666666</ele><time>2026-04-18T16:58:04.238Z</time></trkpt><trkpt lat="45.0153972" lon="8.118184"><ele>244.0</ele><time>2026-04-18T16:58:05.238Z</time></trkpt><trkpt lat="45.015292" lon="8.1180479"><ele>243.25</ele><time>2026-04-18T16:58:06.238Z</time></trkpt><trkpt lat="45.0151787" lon="8.117927"><ele>242.5</ele><time>2026-04-18T16:58:07.239Z</time></trkpt><trkpt lat="45.0150662" lon="8.1178267"><ele>241.75</ele><time>2026-04-18T16:58:08.238Z</time></trkpt><trkpt lat="45.0149378" lon="8.117754"><ele>241.0</ele><time>2026-04-18T16:58:09.238Z</time></trkpt><trkpt lat="45.0148067" lon="8.1177432"><ele>241.0</ele><time>2026-04-18T16:58:10.239Z</time></trkpt><trkpt lat="45.0146564" lon="8.1177737"><ele>241.0</ele><time>2026-04-18T16:58:11.239Z</time></trkpt><trkpt lat="45.0145097" lon="8.1178198"><ele>241.0</ele><time>2026-04-18T16:58:12.239Z</time></trkpt><trkpt lat="45.0143592" lon="8.1178565"><ele>241.0</ele><time>2026-04-18T16:58:13.239Z</time></trkpt><trkpt lat="45.0141793" lon="8.1178784"><ele>241.0</ele><time>2026-04-18T16:58:14.239Z</time></trkpt><trkpt lat="45.0140119" lon="8.1178429"><ele>241.0</ele><time>2026-04-18T16:58:15.238Z</time></trkpt><trkpt lat="45.0138109" lon="8.1178298"><ele>242.0</ele><time>2026-04-18T16:58:16.239Z</time></trkpt><trkpt lat="45.0136346" lon="8.1178244"><ele>243.0</ele><time>2026-04-18T16:58:17.238Z</time></trkpt><trkpt lat="45.0134754" lon="8.1178018"><ele>244.0</ele><time>2026-04-18T16:58:18.238Z</time></trkpt><trkpt lat="45.013308" lon="8.1178092"><ele>244.0</ele><time>2026-04-18T16:58:19.238Z</time></trkpt><trkpt lat="45.0131471" lon="8.1178461"><ele>244.0</ele><time>2026-04-18T16:58:20.238Z</time></trkpt><trkpt lat="45.0129705" lon="8.117877"><ele>244.0</ele><time>2026-04-18T16:58:21.238Z</time></trkpt><trkpt lat="45.0128144" lon="8.1179299"><ele>244.0</ele><time>2026-04-18T16:58:22.238Z</time></trkpt><trkpt lat="45.0126424" lon="8.11797"><ele>244.0</ele><time>2026-04-18T16:58:23.238Z</time></trkpt><trkpt lat="45.0124781" lon="8.1180005"><ele>244.0</ele><time>2026-04-18T16:58:24.239Z</time></trkpt><trkpt lat="45.0123116" lon="8.1180433"><ele>244.66666666666666</ele><time>2026-04-18T16:58:25.239Z</time></trkpt><trkpt lat="45.0121541" lon="8.1180952"><ele>245.33333333333331</ele><time>2026-04-18T16:58:26.238Z</time></trkpt><trkpt lat="45.0119901" lon="8.1181426"><ele>246.0</ele><time>2026-04-18T16:58:27.238Z</time></trkpt><trkpt lat="45.0118196" lon="8.1181706"><ele>249.0</ele><time>2026-04-18T16:58:28.238Z</time></trkpt><trkpt lat="45.0116531" lon="8.1182108"><ele>252.0</ele><time>2026-04-18T16:58:29.238Z</time></trkpt><trkpt lat="45.0114846" lon="8.1182463"><ele>255.0</ele><time>2026-04-18T16:58:30.238Z</time></trkpt><trkpt lat="45.0113361" lon="8.118288"><ele>255.0</ele><time>2026-04-18T16:58:31.239Z</time></trkpt><trkpt lat="45.0112138" lon="8.1183237"><ele>255.0</ele><time>2026-04-18T16:58:32.238Z</time></trkpt><trkpt lat="45.0110867" lon="8.1183361"><ele>255.0</ele><time>2026-04-18T16:58:33.238Z</time></trkpt><trkpt lat="45.0109668" lon="8.1183059"><ele>255.0</ele><time>2026-04-18T16:58:34.238Z</time></trkpt><trkpt lat="45.0108487" lon="8.1182255"><ele>259.25</ele><time>2026-04-18T16:58:35.238Z</time></trkpt><trkpt lat="45.0107433" lon="8.1181188"><ele>263.5</ele><time>2026-04-18T16:58:36.238Z</time></trkpt><trkpt lat="45.0106721" lon="8.1179816"><ele>267.75</ele><time>2026-04-18T16:58:37.239Z</time></trkpt><trkpt lat="45.0105687" lon="8.1178075"><ele>272.0</ele><time>2026-04-18T16:58:38.238Z</time></trkpt><trkpt lat="45.0104703" lon="8.1176196"><ele>272.0</ele><time>2026-04-18T16:58:39.239Z</time></trkpt><trkpt lat="45.0103882" lon="8.1174518"><ele>272.0</ele><time>2026-04-18T16:58:40.238Z</time></trkpt><trkpt lat="45.0102746" lon="8.1172881"><ele>272.0</ele><time>2026-04-18T16:58:41.239Z</time></trkpt><trkpt lat="45.0101994" lon="8.1170991"><ele>270.5</ele><time>2026-04-18T16:58:42.238Z</time></trkpt><trkpt lat="45.0101286" lon="8.116943"><ele>269.0</ele><time>2026-04-18T16:58:43.238Z</time></trkpt><trkpt lat="45.0100471" lon="8.1167877"><ele>267.5</ele><time>2026-04-18T16:58:44.238Z</time></trkpt><trkpt lat="45.0099563" lon="8.1166623"><ele>266.0</ele><time>2026-04-18T16:58:45.238Z</time></trkpt><trkpt lat="45.009879" lon="8.1165274"><ele>265.5</ele><time>2026-04-18T16:58:46.239Z</time></trkpt><trkpt lat="45.0097967" lon="8.1163795"><ele>265.0</ele><time>2026-04-18T16:58:47.238Z</time></trkpt><trkpt lat="45.0097251" lon="8.1162487"><ele>264.5</ele><time>2026-04-18T16:58:48.239Z</time></trkpt><trkpt lat="45.009653" lon="8.1161098"><ele>264.0</ele><time>2026-04-18T16:58:49.239Z</time></trkpt><trkpt lat="45.0095934" lon="8.1159714"><ele>264.0</ele><time>2026-04-18T16:58:50.239Z</time></trkpt><trkpt lat="45.0095443" lon="8.1158483"><ele>264.0</ele><time>2026-04-18T16:58:51.238Z</time></trkpt><trkpt lat="45.0094831" lon="8.1156775"><ele>264.0</ele><time>2026-04-18T16:58:52.238Z</time></trkpt><trkpt lat="45.0094574" lon="8.115506"><ele>264.0</ele><time>2026-04-18T16:58:53.238Z</time></trkpt><trkpt lat="45.0094323" lon="8.1153596"><ele>264.59999999999997</ele><time>2026-04-18T16:58:54.238Z</time></trkpt><trkpt lat="45.0094287" lon="8.1152144"><ele>265.2</ele><time>2026-04-18T16:58:55.238Z</time></trkpt><trkpt lat="45.0094424" lon="8.1150605"><ele>265.79999999999995</ele><time>2026-04-18T16:58:56.239Z</time></trkpt><trkpt lat="45.0094594" lon="8.1149062"><ele>266.4</ele><time>2026-04-18T16:58:57.239Z</time></trkpt><trkpt lat="45.0094926" lon="8.1147418"><ele>267.0</ele><time>2026-04-18T16:58:58.238Z</time></trkpt><trkpt lat="45.0094823" lon="8.1145782"><ele>268.0</ele><time>2026-04-18T16:58:59.239Z</time></trkpt><trkpt lat="45.0094814" lon="8.1144289"><ele>269.0</ele><time>2026-04-18T16:59:00.239Z</time></trkpt><trkpt lat="45.0094552" lon="8.114298"><ele>270.0</ele><time>2026-04-18T16:59:01.238Z</time></trkpt><trkpt lat="45.0094445" lon="8.1141597"><ele>271.0</ele><time>2026-04-18T16:59:02.238Z</time></trkpt><trkpt lat="45.0094362" lon="8.1140548"><ele>272.0</ele><time>2026-04-18T16:59:03.238Z</time></trkpt><trkpt lat="45.0093858" lon="8.1139268"><ele>273.25</ele><time>2026-04-18T16:59:04.238Z</time></trkpt><trkpt lat="45.0093423" lon="8.1137932"><ele>274.5</ele><time>2026-04-18T16:59:05.238Z</time></trkpt><trkpt lat="45.0092403" lon="8.1136398"><ele>275.75</ele><time>2026-04-18T16:59:06.239Z</time></trkpt><trkpt lat="45.0091684" lon="8.1134985"><ele>277.0</ele><time>2026-04-18T16:59:07.239Z</time></trkpt><trkpt lat="45.0090834" lon="8.1133444"><ele>278.4</ele><time>2026-04-18T16:59:08.238Z</time></trkpt><trkpt lat="45.0089976" lon="8.1132999"><ele>279.79999999999995</ele><time>2026-04-18T16:59:09.238Z</time></trkpt><trkpt lat="45.0089203" lon="8.1132185"><ele>281.2</ele><time>2026-04-18T16:59:10.239Z</time></trkpt><trkpt lat="45.0088158" lon="8.1131864"><ele>282.59999999999997</ele><time>2026-04-18T16:59:11.238Z</time></trkpt><trkpt lat="45.0087681" lon="8.1131185"><ele>284.0</ele><time>2026-04-18T16:59:12.238Z</time></trkpt><trkpt lat="45.0086912" lon="8.1130247"><ele>285.2</ele><time>2026-04-18T16:59:13.238Z</time></trkpt><trkpt lat="45.0086306" lon="8.1129472"><ele>286.4</ele><time>2026-04-18T16:59:14.239Z</time></trkpt><trkpt lat="45.0085777" lon="8.1128758"><ele>287.6</ele><time>2026-04-18T16:59:15.238Z</time></trkpt><trkpt lat="45.008508" lon="8.1127823"><ele>288.8</ele><time>2026-04-18T16:59:16.238Z</time></trkpt><trkpt lat="45.0084124" lon="8.1126099"><ele>290.0</ele><time>2026-04-18T16:59:18.238Z</time></trkpt><trkpt lat="45.008282" lon="8.1125719"><ele>290.5</ele><time>2026-04-18T16:59:20.238Z</time></trkpt><trkpt lat="45.0081644" lon="8.1126756"><ele>291.0</ele><time>2026-04-18T16:59:22.238Z</time></trkpt><trkpt lat="45.0080541" lon="8.1128063"><ele>291.5</ele><time>2026-04-18T16:59:23.238Z</time></trkpt><trkpt lat="45.0079656" lon="8.1129165"><ele>292.0</ele><time>2026-04-18T16:59:24.239Z</time></trkpt><trkpt lat="45.0078802" lon="8.1130286"><ele>292.0</ele><time>2026-04-18T16:59:25.238Z</time></trkpt><trkpt lat="45.0077936" lon="8.1131367"><ele>292.0</ele><time>2026-04-18T16:59:26.239Z</time></trkpt><trkpt lat="45.0077109" lon="8.1132588"><ele>292.0</ele><time>2026-04-18T16:59:27.238Z</time></trkpt><trkpt lat="45.007607" lon="8.1134029"><ele>292.0</ele><time>2026-04-18T16:59:28.238Z</time></trkpt><trkpt lat="45.007517" lon="8.1135398"><ele>288.75</ele><time>2026-04-18T16:59:29.238Z</time></trkpt><trkpt lat="45.0074257" lon="8.113668"><ele>285.5</ele><time>2026-04-18T16:59:30.239Z</time></trkpt><trkpt lat="45.0073293" lon="8.1137909"><ele>282.25</ele><time>2026-04-18T16:59:31.238Z</time></trkpt><trkpt lat="45.007228" lon="8.1138993"><ele>279.0</ele><time>2026-04-18T16:59:32.238Z</time></trkpt><trkpt lat="45.00712" lon="8.114024"><ele>280.0</ele><time>2026-04-18T16:59:33.239Z</time></trkpt><trkpt lat="45.0070241" lon="8.1141532"><ele>281.0</ele><time>2026-04-18T16:59:34.239Z</time></trkpt><trkpt lat="45.0069116" lon="8.1142385"><ele>282.0</ele><time>2026-04-18T16:59:35.238Z</time></trkpt><trkpt lat="45.006838" lon="8.1143634"><ele>283.0</ele><time>2026-04-18T16:59:36.238Z</time></trkpt><trkpt lat="45.0067253" lon="8.1144075"><ele>280.8</ele><time>2026-04-18T16:59:37.238Z</time></trkpt><trkpt lat="45.0066238" lon="8.1144015"><ele>278.6</ele><time>2026-04-18T16:59:38.238Z</time></trkpt><trkpt lat="45.0065485" lon="8.114444"><ele>276.4</ele><time>2026-04-18T16:59:39.238Z</time></trkpt><trkpt lat="45.0064345" lon="8.1144505"><ele>274.2</ele><time>2026-04-18T16:59:40.238Z</time></trkpt><trkpt lat="45.0063269" lon="8.1144632"><ele>272.0</ele><time>2026-04-18T16:59:41.239Z</time></trkpt><trkpt lat="45.006212" lon="8.1144673"><ele>272.0</ele><time>2026-04-18T16:59:42.238Z</time></trkpt><trkpt lat="45.0061121" lon="8.1144881"><ele>272.0</ele><time>2026-04-18T16:59:43.238Z</time></trkpt><trkpt lat="45.0059992" lon="8.1145087"><ele>272.0</ele><time>2026-04-18T16:59:44.239Z</time></trkpt><trkpt lat="45.0059013" lon="8.1145243"><ele>272.0</ele><time>2026-04-18T16:59:45.238Z</time></trkpt><trkpt lat="45.0058179" lon="8.1145709"><ele>272.0</ele><time>2026-04-18T16:59:46.238Z</time></trkpt><trkpt lat="45.0057424" lon="8.1146137"><ele>269.25</ele><time>2026-04-18T16:59:47.238Z</time></trkpt><trkpt lat="45.0056484" lon="8.1146568"><ele>266.5</ele><time>2026-04-18T16:59:48.239Z</time></trkpt><trkpt lat="45.0055306" lon="8.1147281"><ele>263.75</ele><time>2026-04-18T16:59:49.238Z</time></trkpt><trkpt lat="45.0054313" lon="8.1147748"><ele>261.0</ele><time>2026-04-18T16:59:50.238Z</time></trkpt><trkpt lat="45.0052958" lon="8.1147271"><ele>261.0</ele><time>2026-04-18T16:59:52.239Z</time></trkpt><trkpt lat="45.0052833" lon="8.1148193"><ele>261.0</ele><time>2026-04-18T16:59:53.239Z</time></trkpt><trkpt lat="45.0052085" lon="8.1146809"><ele>261.0</ele><time>2026-04-18T16:59:54.239Z</time></trkpt><trkpt lat="45.0050751" lon="8.1146"><ele>261.0</ele><time>2026-04-18T16:59:56.238Z</time></trkpt><trkpt lat="45.0051478" lon="8.1144963"><ele>261.0</ele><time>2026-04-18T16:59:57.238Z</time></trkpt><trkpt lat="45.0051854" lon="8.1144074"><ele>261.0</ele><time>2026-04-18T16:59:58.238Z</time></trkpt><trkpt lat="45.0052483" lon="8.1143116"><ele>261.0</ele><time>2026-04-18T16:59:59.238Z</time></trkpt><trkpt lat="45.0053045" lon="8.1141985"><ele>261.0</ele><time>2026-04-18T17:00:00.239Z</time></trkpt><trkpt lat="45.0053764" lon="8.1140751"><ele>261.0</ele><time>2026-04-18T17:00:01.239Z</time></trkpt><trkpt lat="45.0054509" lon="8.1139712"><ele>261.0</ele><time>2026-04-18T17:00:02.238Z</time></trkpt><trkpt lat="45.0055267" lon="8.1138316"><ele>261.0</ele><time>2026-04-18T17:00:03.238Z</time></trkpt><trkpt lat="45.0056265" lon="8.1136821"><ele>261.0</ele><time>2026-04-18T17:00:04.238Z</time></trkpt><trkpt lat="45.0057114" lon="8.113542"><ele>261.0</ele><time>2026-04-18T17:00:05.239Z</time></trkpt><trkpt lat="45.0057867" lon="8.1133948"><ele>261.0</ele><time>2026-04-18T17:00:06.239Z</time></trkpt><trkpt lat="45.005857" lon="8.1132443"><ele>257.3333333333333</ele><time>2026-04-18T17:00:07.239Z</time></trkpt><trkpt lat="45.0059146" lon="8.1131031"><ele>253.66666666666666</ele><time>2026-04-18T17:00:08.238Z</time></trkpt><trkpt lat="45.006008" lon="8.1128944"><ele>250.0</ele><time>2026-04-18T17:00:09.238Z</time></trkpt><trkpt lat="45.0060947" lon="8.1126672"><ele>250.0</ele><time>2026-04-18T17:00:10.238Z</time></trkpt><trkpt lat="45.0061354" lon="8.1125082"><ele>250.0</ele><time>2026-04-18T17:00:11.238Z</time></trkpt><trkpt lat="45.006172" lon="8.1123633"><ele>250.0</ele><time>2026-04-18T17:00:12.238Z</time></trkpt><trkpt lat="45.006226" lon="8.1121987"><ele>250.0</ele><time>2026-04-18T17:00:13.238Z</time></trkpt><trkpt lat="45.0062834" lon="8.1120431"><ele>248.4</ele><time>2026-04-18T17:00:14.239Z</time></trkpt><trkpt lat="45.0063113" lon="8.1119171"><ele>246.8</ele><time>2026-04-18T17:00:15.238Z</time></trkpt><trkpt lat="45.0063473" lon="8.1117635"><ele>245.2</ele><time>2026-04-18T17:00:16.238Z</time></trkpt><trkpt lat="45.0063924" lon="8.111595"><ele>243.6</ele><time>2026-04-18T17:00:17.239Z</time></trkpt><trkpt lat="45.0064067" lon="8.1114935"><ele>242.0</ele><time>2026-04-18T17:00:18.238Z</time></trkpt><trkpt lat="45.006408" lon="8.1113668"><ele>241.6</ele><time>2026-04-18T17:00:19.238Z</time></trkpt><trkpt lat="45.0064082" lon="8.1112499"><ele>241.2</ele><time>2026-04-18T17:00:20.238Z</time></trkpt><trkpt lat="45.0063743" lon="8.1111099"><ele>240.8</ele><time>2026-04-18T17:00:21.238Z</time></trkpt><trkpt lat="45.006319" lon="8.1109774"><ele>240.4</ele><time>2026-04-18T17:00:22.239Z</time></trkpt><trkpt lat="45.0062865" lon="8.1108539"><ele>240.0</ele><time>2026-04-18T17:00:23.239Z</time></trkpt><trkpt lat="45.0061795" lon="8.1107445"><ele>239.25</ele><time>2026-04-18T17:00:24.239Z</time></trkpt><trkpt lat="45.006055" lon="8.1106533"><ele>238.5</ele><time>2026-04-18T17:00:25.238Z</time></trkpt><trkpt lat="45.0059428" lon="8.1105644"><ele>237.75</ele><time>2026-04-18T17:00:26.238Z</time></trkpt><trkpt lat="45.0058317" lon="8.1104868"><ele>237.0</ele><time>2026-04-18T17:00:27.239Z</time></trkpt><trkpt lat="45.0057097" lon="8.1103965"><ele>237.0</ele><time>2026-04-18T17:00:28.238Z</time></trkpt><trkpt lat="45.0055842" lon="8.1103089"><ele>237.0</ele><time>2026-04-18T17:00:29.238Z</time></trkpt><trkpt lat="45.0054735" lon="8.1102377"><ele>237.0</ele><time>2026-04-18T17:00:30.238Z</time></trkpt><trkpt lat="45.0053737" lon="8.1101586"><ele>237.0</ele><time>2026-04-18T17:00:31.238Z</time></trkpt><trkpt lat="45.0052797" lon="8.1100677"><ele>237.0</ele><time>2026-04-18T17:00:32.238Z</time></trkpt><trkpt lat="45.0052071" lon="8.1099417"><ele>237.0</ele><time>2026-04-18T17:00:33.238Z</time></trkpt><trkpt lat="45.0051153" lon="8.109825"><ele>237.0</ele><time>2026-04-18T17:00:34.238Z</time></trkpt><trkpt lat="45.005023" lon="8.1096894"><ele>237.0</ele><time>2026-04-18T17:00:35.238Z</time></trkpt><trkpt lat="45.0049134" lon="8.1095677"><ele>235.25</ele><time>2026-04-18T17:00:36.238Z</time></trkpt><trkpt lat="45.0048148" lon="8.1094598"><ele>233.5</ele><time>2026-04-18T17:00:37.239Z</time></trkpt><trkpt lat="45.0047241" lon="8.1093424"><ele>231.75</ele><time>2026-04-18T17:00:38.238Z</time></trkpt><trkpt lat="45.0046287" lon="8.1092405"><ele>230.0</ele><time>2026-04-18T17:00:39.238Z</time></trkpt><trkpt lat="45.0045386" lon="8.1091448"><ele>230.75</ele><time>2026-04-18T17:00:40.238Z</time></trkpt><trkpt lat="45.0044669" lon="8.1090101"><ele>231.5</ele><time>2026-04-18T17:00:41.239Z</time></trkpt><trkpt lat="45.004398" lon="8.1088694"><ele>232.25</ele><time>2026-04-18T17:00:42.238Z</time></trkpt><trkpt lat="45.004309" lon="8.1086991"><ele>233.0</ele><time>2026-04-18T17:00:43.238Z</time></trkpt><trkpt lat="45.0042176" lon="8.1085578"><ele>232.5</ele><time>2026-04-18T17:00:44.238Z</time></trkpt><trkpt lat="45.0041253" lon="8.1084073"><ele>232.0</ele><time>2026-04-18T17:00:45.238Z</time></trkpt><trkpt lat="45.0040228" lon="8.108252"><ele>231.5</ele><time>2026-04-18T17:00:46.239Z</time></trkpt><trkpt lat="45.003974" lon="8.1080456"><ele>231.0</ele><time>2026-04-18T17:00:47.239Z</time></trkpt><trkpt lat="45.0039047" lon="8.10786"><ele>231.0</ele><time>2026-04-18T17:00:48.239Z</time></trkpt><trkpt lat="45.0038497" lon="8.1076938"><ele>231.0</ele><time>2026-04-18T17:00:49.238Z</time></trkpt><trkpt lat="45.0037919" lon="8.1075206"><ele>231.0</ele><time>2026-04-18T17:00:50.239Z</time></trkpt><trkpt lat="45.0037253" lon="8.1073692"><ele>231.0</ele><time>2026-04-18T17:00:51.238Z</time></trkpt><trkpt lat="45.0036496" lon="8.1072432"><ele>232.0</ele><time>2026-04-18T17:00:52.239Z</time></trkpt><trkpt lat="45.0035644" lon="8.1071249"><ele>233.00000000000003</ele><time>2026-04-18T17:00:53.238Z</time></trkpt><trkpt lat="45.0035189" lon="8.1070421"><ele>234.00000000000003</ele><time>2026-04-18T17:00:54.238Z</time></trkpt><trkpt lat="45.0034187" lon="8.1069439"><ele>235.0</ele><time>2026-04-18T17:00:55.238Z</time></trkpt><trkpt lat="45.0033693" lon="8.1068884"><ele>236.0</ele><time>2026-04-18T17:00:56.238Z</time></trkpt><trkpt lat="45.0033031" lon="8.1068083"><ele>232.0</ele><time>2026-04-18T17:00:57.239Z</time></trkpt><trkpt lat="45.0032387" lon="8.1066581"><ele>228.0</ele><time>2026-04-18T17:00:59.238Z</time></trkpt><trkpt lat="45.0031892" lon="8.1065277"><ele>224.0</ele><time>2026-04-18T17:01:00.239Z</time></trkpt><trkpt lat="45.0031636" lon="8.106395"><ele>220.0</ele><time>2026-04-18T17:01:01.238Z</time></trkpt><trkpt lat="45.0031891" lon="8.1062012"><ele>220.4</ele><time>2026-04-18T17:01:03.239Z</time></trkpt><trkpt lat="45.0032187" lon="8.1060354"><ele>220.8</ele><time>2026-04-18T17:01:04.238Z</time></trkpt><trkpt lat="45.0032283" lon="8.105894"><ele>221.2</ele><time>2026-04-18T17:01:05.238Z</time></trkpt><trkpt lat="45.0032554" lon="8.1057373"><ele>221.6</ele><time>2026-04-18T17:01:06.239Z</time></trkpt><trkpt lat="45.0032766" lon="8.1055853"><ele>222.0</ele><time>2026-04-18T17:01:07.238Z</time></trkpt><trkpt lat="45.0034024" lon="8.1053898"><ele>222.0</ele><time>2026-04-18T17:01:08.238Z</time></trkpt><trkpt lat="45.0034283" lon="8.105238"><ele>222.0</ele><time>2026-04-18T17:01:09.239Z</time></trkpt><trkpt lat="45.0034487" lon="8.1050662"><ele>222.0</ele><time>2026-04-18T17:01:10.238Z</time></trkpt><trkpt lat="45.003438" lon="8.1049024"><ele>222.0</ele><time>2026-04-18T17:01:11.238Z</time></trkpt><trkpt lat="45.0034437" lon="8.104779"><ele>222.0</ele><time>2026-04-18T17:01:12.238Z</time></trkpt><trkpt lat="45.0034542" lon="8.1046559"><ele>220.0</ele><time>2026-04-18T17:01:13.239Z</time></trkpt><trkpt lat="45.0034268" lon="8.1044593"><ele>218.0</ele><time>2026-04-18T17:01:14.238Z</time></trkpt><trkpt lat="45.0033905" lon="8.1042765"><ele>216.0</ele><time>2026-04-18T17:01:15.239Z</time></trkpt><trkpt lat="45.0033633" lon="8.1041355"><ele>214.0</ele><time>2026-04-18T17:01:16.238Z</time></trkpt><trkpt lat="45.0033641" lon="8.1039687"><ele>210.75</ele><time>2026-04-18T17:01:17.238Z</time></trkpt><trkpt lat="45.0033823" lon="8.1037848"><ele>207.5</ele><time>2026-04-18T17:01:18.239Z</time></trkpt><trkpt lat="45.0034206" lon="8.1036217"><ele>204.25</ele><time>2026-04-18T17:01:19.238Z</time></trkpt><trkpt lat="45.0034628" lon="8.1034426"><ele>201.0</ele><time>2026-04-18T17:01:20.238Z</time></trkpt><trkpt lat="45.0035149" lon="8.1033132"><ele>199.4</ele><time>2026-04-18T17:01:21.238Z</time></trkpt><trkpt lat="45.0035644" lon="8.1031838"><ele>197.8</ele><time>2026-04-18T17:01:22.239Z</time></trkpt><trkpt lat="45.0036098" lon="8.1030657"><ele>196.20000000000002</ele><time>2026-04-18T17:01:23.239Z</time></trkpt><trkpt lat="45.003655" lon="8.1028948"><ele>194.60000000000002</ele><time>2026-04-18T17:01:24.238Z</time></trkpt><trkpt lat="45.0036779" lon="8.1027504"><ele>193.0</ele><time>2026-04-18T17:01:25.238Z</time></trkpt><trkpt lat="45.0037196" lon="8.1025872"><ele>193.0</ele><time>2026-04-18T17:01:26.238Z</time></trkpt><trkpt lat="45.0037164" lon="8.1024363"><ele>193.0</ele><time>2026-04-18T17:01:27.238Z</time></trkpt><trkpt lat="45.0036864" lon="8.1023114"><ele>193.0</ele><time>2026-04-18T17:01:28.239Z</time></trkpt><trkpt lat="45.0036569" lon="8.102191"><ele>193.0</ele><time>2026-04-18T17:01:29.239Z</time></trkpt><trkpt lat="45.0035895" lon="8.1020583"><ele>193.0</ele><time>2026-04-18T17:01:31.238Z</time></trkpt><trkpt lat="45.0035348" lon="8.1019155"><ele>192.83333333333331</ele><time>2026-04-18T17:01:33.238Z</time></trkpt><trkpt lat="45.0035137" lon="8.1018296"><ele>192.66666666666666</ele><time>2026-04-18T17:01:34.239Z</time></trkpt><trkpt lat="45.0035111" lon="8.1016936"><ele>192.5</ele><time>2026-04-18T17:01:36.238Z</time></trkpt><trkpt lat="45.0034381" lon="8.1015864"><ele>192.33333333333331</ele><time>2026-04-18T17:01:37.238Z</time></trkpt><trkpt lat="45.0033805" lon="8.1015039"><ele>192.16666666666666</ele><time>2026-04-18T17:01:38.238Z</time></trkpt><trkpt lat="45.0032973" lon="8.1014227"><ele>192.0</ele><time>2026-04-18T17:01:39.238Z</time></trkpt><trkpt lat="45.0032138" lon="8.1013244"><ele>192.8</ele><time>2026-04-18T17:01:40.239Z</time></trkpt><trkpt lat="45.0031367" lon="8.1012277"><ele>193.6</ele><time>2026-04-18T17:01:41.238Z</time></trkpt><trkpt lat="45.0030839" lon="8.1011138"><ele>194.4</ele><time>2026-04-18T17:01:42.238Z</time></trkpt><trkpt lat="45.0030144" lon="8.1010036"><ele>195.20000000000002</ele><time>2026-04-18T17:01:43.238Z</time></trkpt><trkpt lat="45.0029436" lon="8.1008847"><ele>196.0</ele><time>2026-04-18T17:01:44.238Z</time></trkpt><trkpt lat="45.0028722" lon="8.1007631"><ele>197.0</ele><time>2026-04-18T17:01:45.238Z</time></trkpt><trkpt lat="45.0028021" lon="8.1006472"><ele>198.0</ele><time>2026-04-18T17:01:46.238Z</time></trkpt><trkpt lat="45.0027347" lon="8.1005335"><ele>199.0</ele><time>2026-04-18T17:01:47.239Z</time></trkpt><trkpt lat="45.0026695" lon="8.1004239"><ele>200.0</ele><time>2026-04-18T17:01:48.238Z</time></trkpt><trkpt lat="45.0026028" lon="8.1003081"><ele>201.0</ele><time>2026-04-18T17:01:49.238Z</time></trkpt><trkpt lat="45.0025379" lon="8.1001933"><ele>201.60000000000002</ele><time>2026-04-18T17:01:50.239Z</time></trkpt><trkpt lat="45.0024697" lon="8.1000759"><ele>202.2</ele><time>2026-04-18T17:01:51.238Z</time></trkpt><trkpt lat="45.0024014" lon="8.0999583"><ele>202.8</ele><time>2026-04-18T17:01:52.239Z</time></trkpt><trkpt lat="45.0023342" lon="8.0998373"><ele>203.39999999999998</ele><time>2026-04-18T17:01:53.238Z</time></trkpt><trkpt lat="45.0022633" lon="8.0997204"><ele>204.0</ele><time>2026-04-18T17:01:54.239Z</time></trkpt><trkpt lat="45.0021889" lon="8.0995971"><ele>205.0</ele><time>2026-04-18T17:01:55.239Z</time></trkpt><trkpt lat="45.0021047" lon="8.0994695"><ele>206.0</ele><time>2026-04-18T17:01:56.238Z</time></trkpt><trkpt lat="45.0020194" lon="8.0993457"><ele>207.0</ele><time>2026-04-18T17:01:57.239Z</time></trkpt><trkpt lat="45.0019226" lon="8.0992274"><ele>208.0</ele><time>2026-04-18T17:01:58.238Z</time></trkpt><trkpt lat="45.0018224" lon="8.0991073"><ele>209.5</ele><time>2026-04-18T17:01:59.239Z</time></trkpt><trkpt lat="45.0017212" lon="8.0989842"><ele>211.0</ele><time>2026-04-18T17:02:00.238Z</time></trkpt><trkpt lat="45.0016177" lon="8.0988569"><ele>212.5</ele><time>2026-04-18T17:02:01.238Z</time></trkpt><trkpt lat="45.0015126" lon="8.098734"><ele>214.0</ele><time>2026-04-18T17:02:02.238Z</time></trkpt><trkpt lat="45.0014029" lon="8.0986093"><ele>214.0</ele><time>2026-04-18T17:02:03.238Z</time></trkpt><trkpt lat="45.0012906" lon="8.0984832"><ele>214.0</ele><time>2026-04-18T17:02:04.238Z</time></trkpt><trkpt lat="45.0011826" lon="8.0983545"><ele>214.0</ele><time>2026-04-18T17:02:05.238Z</time></trkpt><trkpt lat="45.0010724" lon="8.0982134"><ele>214.0</ele><time>2026-04-18T17:02:06.238Z</time></trkpt><trkpt lat="45.0009629" lon="8.0980844"><ele>214.75</ele><time>2026-04-18T17:02:07.238Z</time></trkpt><trkpt lat="45.0008459" lon="8.0979505"><ele>215.5</ele><time>2026-04-18T17:02:08.238Z</time></trkpt><trkpt lat="45.0007363" lon="8.0978183"><ele>216.25</ele><time>2026-04-18T17:02:09.238Z</time></trkpt><trkpt lat="45.0006267" lon="8.0976832"><ele>217.0</ele><time>2026-04-18T17:02:10.239Z</time></trkpt><trkpt lat="45.0005052" lon="8.0975474"><ele>220.0</ele><time>2026-04-18T17:02:11.238Z</time></trkpt><trkpt lat="45.0003921" lon="8.0974047"><ele>223.0</ele><time>2026-04-18T17:02:12.239Z</time></trkpt><trkpt lat="45.0002774" lon="8.0972591"><ele>226.0</ele><time>2026-04-18T17:02:13.238Z</time></trkpt><trkpt lat="45.0001852" lon="8.0971023"><ele>226.0</ele><time>2026-04-18T17:02:14.239Z</time></trkpt><trkpt lat="45.0000817" lon="8.0969444"><ele>226.0</ele><time>2026-04-18T17:02:15.238Z</time></trkpt><trkpt lat="44.9999825" lon="8.0967902"><ele>226.0</ele><time>2026-04-18T17:02:16.238Z</time></trkpt><trkpt lat="44.9998791" lon="8.0966344"><ele>228.5</ele><time>2026-04-18T17:02:17.238Z</time></trkpt><trkpt lat="44.9997783" lon="8.0964807"><ele>231.0</ele><time>2026-04-18T17:02:18.239Z</time></trkpt><trkpt lat="44.9996735" lon="8.0963309"><ele>233.5</ele><time>2026-04-18T17:02:19.238Z</time></trkpt><trkpt lat="44.9995913" lon="8.0961865"><ele>236.0</ele><time>2026-04-18T17:02:20.239Z</time></trkpt><trkpt lat="44.9995122" lon="8.0960541"><ele>236.00000000000003</ele><time>2026-04-18T17:02:21.239Z</time></trkpt><trkpt lat="44.9994329" lon="8.0959464"><ele>236.0</ele><time>2026-04-18T17:02:22.238Z</time></trkpt><trkpt lat="44.9993547" lon="8.0958356"><ele>236.0</ele><time>2026-04-18T17:02:23.238Z</time></trkpt><trkpt lat="44.9993089" lon="8.0957708"><ele>236.0</ele><time>2026-04-18T17:02:24.238Z</time></trkpt><trkpt lat="44.9992681" lon="8.0956794"><ele>236.00000000000003</ele><time>2026-04-18T17:02:25.238Z</time></trkpt><trkpt lat="44.9992602" lon="8.0955786"><ele>236.0</ele><time>2026-04-18T17:02:26.238Z</time></trkpt><trkpt lat="44.9992821" lon="8.0954838"><ele>237.60000000000002</ele><time>2026-04-18T17:02:27.239Z</time></trkpt><trkpt lat="44.9993475" lon="8.09542"><ele>239.20000000000002</ele><time>2026-04-18T17:02:28.238Z</time></trkpt><trkpt lat="44.9994174" lon="8.0953605"><ele>240.79999999999998</ele><time>2026-04-18T17:02:29.238Z</time></trkpt><trkpt lat="44.9995331" lon="8.0953887"><ele>242.39999999999998</ele><time>2026-04-18T17:02:30.238Z</time></trkpt><trkpt lat="44.9996456" lon="8.0954099"><ele>244.0</ele><time>2026-04-18T17:02:31.238Z</time></trkpt><trkpt lat="44.9997654" lon="8.0954297"><ele>244.0</ele><time>2026-04-18T17:02:32.238Z</time></trkpt><trkpt lat="44.9998843" lon="8.095445"><ele>244.0</ele><time>2026-04-18T17:02:33.238Z</time></trkpt><trkpt lat="45.0000041" lon="8.095459"><ele>244.0</ele><time>2026-04-18T17:02:34.238Z</time></trkpt><trkpt lat="45.0001123" lon="8.0954766"><ele>244.0</ele><time>2026-04-18T17:02:35.238Z</time></trkpt><trkpt lat="45.0002673" lon="8.0955106"><ele>244.0</ele><time>2026-04-18T17:02:36.239Z</time></trkpt><trkpt lat="45.0004096" lon="8.0955442"><ele>244.0</ele><time>2026-04-18T17:02:37.238Z</time></trkpt><trkpt lat="45.0005288" lon="8.0955644"><ele>244.0</ele><time>2026-04-18T17:02:38.238Z</time></trkpt><trkpt lat="45.0006788" lon="8.095571"><ele>244.0</ele><time>2026-04-18T17:02:39.238Z</time></trkpt><trkpt lat="45.0008274" lon="8.095595"><ele>244.0</ele><time>2026-04-18T17:02:40.238Z</time></trkpt><trkpt lat="45.0009815" lon="8.095653"><ele>244.0</ele><time>2026-04-18T17:02:41.238Z</time></trkpt><trkpt lat="45.0011035" lon="8.0956944"><ele>244.0</ele><time>2026-04-18T17:02:42.239Z</time></trkpt><trkpt lat="45.0012249" lon="8.0957544"><ele>244.0</ele><time>2026-04-18T17:02:43.238Z</time></trkpt><trkpt lat="45.0013442" lon="8.0958123"><ele>244.0</ele><time>2026-04-18T17:02:44.238Z</time></trkpt><trkpt lat="45.0014257" lon="8.0958614"><ele>243.99999999999997</ele><time>2026-04-18T17:02:45.238Z</time></trkpt><trkpt lat="45.0015243" lon="8.0959262"><ele>243.99999999999997</ele><time>2026-04-18T17:02:46.239Z</time></trkpt><trkpt lat="45.0016117" lon="8.0959808"><ele>244.0</ele><time>2026-04-18T17:02:47.239Z</time></trkpt><trkpt lat="45.0017008" lon="8.0959975"><ele>244.0</ele><time>2026-04-18T17:02:48.239Z</time></trkpt><trkpt lat="45.001787" lon="8.0959698"><ele>246.2</ele><time>2026-04-18T17:02:49.238Z</time></trkpt><trkpt lat="45.0018718" lon="8.0959357"><ele>248.39999999999998</ele><time>2026-04-18T17:02:50.239Z</time></trkpt><trkpt lat="45.0019212" lon="8.0958463"><ele>250.6</ele><time>2026-04-18T17:02:51.238Z</time></trkpt><trkpt lat="45.0018935" lon="8.0956843"><ele>252.8</ele><time>2026-04-18T17:02:52.239Z</time></trkpt><trkpt lat="45.0018876" lon="8.0955391"><ele>255.0</ele><time>2026-04-18T17:02:53.238Z</time></trkpt><trkpt lat="45.0018344" lon="8.0954216"><ele>255.5</ele><time>2026-04-18T17:02:54.238Z</time></trkpt><trkpt lat="45.0017403" lon="8.095309"><ele>256.0</ele><time>2026-04-18T17:02:55.239Z</time></trkpt><trkpt lat="45.0016426" lon="8.0951836"><ele>256.5</ele><time>2026-04-18T17:02:56.238Z</time></trkpt><trkpt lat="45.0015418" lon="8.0950632"><ele>257.0</ele><time>2026-04-18T17:02:57.239Z</time></trkpt><trkpt lat="45.0014509" lon="8.0949421"><ele>263.25</ele><time>2026-04-18T17:02:58.239Z</time></trkpt><trkpt lat="45.0013429" lon="8.094817"><ele>269.5</ele><time>2026-04-18T17:02:59.238Z</time></trkpt><trkpt lat="45.0012493" lon="8.0946914"><ele>275.75</ele><time>2026-04-18T17:03:00.238Z</time></trkpt><trkpt lat="45.0011417" lon="8.0945805"><ele>282.0</ele><time>2026-04-18T17:03:01.238Z</time></trkpt><trkpt lat="45.0009957" lon="8.0944498"><ele>282.0</ele><time>2026-04-18T17:03:02.239Z</time></trkpt><trkpt lat="45.0009089" lon="8.0942917"><ele>282.0</ele><time>2026-04-18T17:03:03.238Z</time></trkpt><trkpt lat="45.0008155" lon="8.0941733"><ele>282.0</ele><time>2026-04-18T17:03:04.238Z</time></trkpt><trkpt lat="45.0006973" lon="8.0940162"><ele>282.0</ele><time>2026-04-18T17:03:05.238Z</time></trkpt><trkpt lat="45.0006107" lon="8.0938894"><ele>281.5</ele><time>2026-04-18T17:03:06.238Z</time></trkpt><trkpt lat="45.0004904" lon="8.0937477"><ele>281.0</ele><time>2026-04-18T17:03:07.238Z</time></trkpt><trkpt lat="45.0003827" lon="8.0936273"><ele>280.5</ele><time>2026-04-18T17:03:08.238Z</time></trkpt><trkpt lat="45.0002678" lon="8.093506"><ele>280.0</ele><time>2026-04-18T17:03:09.238Z</time></trkpt><trkpt lat="45.0001673" lon="8.0933861"><ele>282.5</ele><time>2026-04-18T17:03:10.238Z</time></trkpt><trkpt lat="45.0000432" lon="8.0932513"><ele>285.0</ele><time>2026-04-18T17:03:11.239Z</time></trkpt><trkpt lat="44.9999573" lon="8.0931867"><ele>287.5</ele><time>2026-04-18T17:03:12.238Z</time></trkpt><trkpt lat="44.9998547" lon="8.0930543"><ele>290.0</ele><time>2026-04-18T17:03:14.238Z</time></trkpt><trkpt lat="44.9998169" lon="8.0929665"><ele>290.0</ele><time>2026-04-18T17:03:15.238Z</time></trkpt><trkpt lat="44.99984" lon="8.0928771"><ele>290.0</ele><time>2026-04-18T17:03:16.239Z</time></trkpt><trkpt lat="44.9998697" lon="8.0927872"><ele>290.0</ele><time>2026-04-18T17:03:17.239Z</time></trkpt><trkpt lat="44.9999162" lon="8.0926923"><ele>290.0</ele><time>2026-04-18T17:03:18.238Z</time></trkpt><trkpt lat="45.0000014" lon="8.0926048"><ele>290.0</ele><time>2026-04-18T17:03:19.238Z</time></trkpt><trkpt lat="45.000089" lon="8.0924831"><ele>290.0</ele><time>2026-04-18T17:03:20.238Z</time></trkpt><trkpt lat="45.0001793" lon="8.0923591"><ele>290.0</ele><time>2026-04-18T17:03:21.238Z</time></trkpt><trkpt lat="45.0002796" lon="8.0922499"><ele>290.0</ele><time>2026-04-18T17:03:22.238Z</time></trkpt><trkpt lat="45.0003833" lon="8.0921532"><ele>290.0</ele><time>2026-04-18T17:03:23.239Z</time></trkpt><trkpt lat="45.0005075" lon="8.0920695"><ele>290.0</ele><time>2026-04-18T17:03:24.238Z</time></trkpt><trkpt lat="45.0006263" lon="8.0919933"><ele>290.0</ele><time>2026-04-18T17:03:25.238Z</time></trkpt><trkpt lat="45.0007649" lon="8.0919188"><ele>290.0</ele><time>2026-04-18T17:03:26.238Z</time></trkpt><trkpt lat="45.0008993" lon="8.0918479"><ele>290.0</ele><time>2026-04-18T17:03:27.239Z</time></trkpt><trkpt lat="45.0010421" lon="8.0917685"><ele>290.0</ele><time>2026-04-18T17:03:28.239Z</time></trkpt><trkpt lat="45.0011777" lon="8.0917173"><ele>289.6666666666667</ele><time>2026-04-18T17:03:29.239Z</time></trkpt><trkpt lat="45.0013176" lon="8.0916663"><ele>289.3333333333333</ele><time>2026-04-18T17:03:30.239Z</time></trkpt><trkpt lat="45.0014666" lon="8.0915843"><ele>289.0</ele><time>2026-04-18T17:03:31.238Z</time></trkpt><trkpt lat="45.0016132" lon="8.0915559"><ele>284.25</ele><time>2026-04-18T17:03:32.238Z</time></trkpt><trkpt lat="45.0017639" lon="8.0915631"><ele>279.5</ele><time>2026-04-18T17:03:33.238Z</time></trkpt><trkpt lat="45.0019146" lon="8.0915506"><ele>274.75</ele><time>2026-04-18T17:03:34.239Z</time></trkpt><trkpt lat="45.0020286" lon="8.0915521"><ele>270.0</ele><time>2026-04-18T17:03:35.238Z</time></trkpt><trkpt lat="45.0021863" lon="8.0915432"><ele>270.0</ele><time>2026-04-18T17:03:36.238Z</time></trkpt><trkpt lat="45.0023207" lon="8.09155"><ele>270.0</ele><time>2026-04-18T17:03:37.238Z</time></trkpt><trkpt lat="45.0024504" lon="8.0915192"><ele>270.0</ele><time>2026-04-18T17:03:38.238Z</time></trkpt><trkpt lat="45.0025692" lon="8.0914961"><ele>270.0</ele><time>2026-04-18T17:03:39.238Z</time></trkpt><trkpt lat="45.0026661" lon="8.0913073"><ele>273.25</ele><time>2026-04-18T17:03:40.239Z</time></trkpt><trkpt lat="45.0027862" lon="8.0911657"><ele>276.5</ele><time>2026-04-18T17:03:41.239Z</time></trkpt><trkpt lat="45.0028703" lon="8.0910242"><ele>279.75</ele><time>2026-04-18T17:03:42.239Z</time></trkpt><trkpt lat="45.002985" lon="8.0908838"><ele>283.0</ele><time>2026-04-18T17:03:43.239Z</time></trkpt><trkpt lat="45.0030456" lon="8.090759"><ele>283.5</ele><time>2026-04-18T17:03:44.238Z</time></trkpt><trkpt lat="45.0030574" lon="8.0905747"><ele>284.0</ele><time>2026-04-18T17:03:45.238Z</time></trkpt><trkpt lat="45.0030838" lon="8.0903979"><ele>284.5</ele><time>2026-04-18T17:03:46.238Z</time></trkpt><trkpt lat="45.0030937" lon="8.0902251"><ele>285.0</ele><time>2026-04-18T17:03:47.238Z</time></trkpt><trkpt lat="45.0030705" lon="8.0900423"><ele>286.25</ele><time>2026-04-18T17:03:48.238Z</time></trkpt><trkpt lat="45.0030617" lon="8.0898864"><ele>287.5</ele><time>2026-04-18T17:03:49.239Z</time></trkpt><trkpt lat="45.0030134" lon="8.0897271"><ele>288.75</ele><time>2026-04-18T17:03:50.239Z</time></trkpt><trkpt lat="45.0030094" lon="8.0895542"><ele>290.0</ele><time>2026-04-18T17:03:51.238Z</time></trkpt><trkpt lat="45.0030569" lon="8.0893788"><ele>290.0</ele><time>2026-04-18T17:03:52.239Z</time></trkpt><trkpt lat="45.0032288" lon="8.0893456"><ele>290.0</ele><time>2026-04-18T17:03:53.238Z</time></trkpt><trkpt lat="45.0033427" lon="8.0892583"><ele>290.0</ele><time>2026-04-18T17:03:54.238Z</time></trkpt><trkpt lat="45.0034439" lon="8.0891479"><ele>290.0</ele><time>2026-04-18T17:03:55.238Z</time></trkpt><trkpt lat="45.0035514" lon="8.0890736"><ele>288.75</ele><time>2026-04-18T17:03:56.238Z</time></trkpt><trkpt lat="45.0036527" lon="8.0889649"><ele>287.5</ele><time>2026-04-18T17:03:57.238Z</time></trkpt><trkpt lat="45.0037019" lon="8.0888235"><ele>286.25</ele><time>2026-04-18T17:03:58.238Z</time></trkpt><trkpt lat="45.003737" lon="8.0886706"><ele>285.0</ele><time>2026-04-18T17:03:59.238Z</time></trkpt><trkpt lat="45.0037248" lon="8.0885116"><ele>285.0</ele><time>2026-04-18T17:04:00.238Z</time></trkpt><trkpt lat="45.0037065" lon="8.0883375"><ele>285.0</ele><time>2026-04-18T17:04:01.238Z</time></trkpt><trkpt lat="45.0036471" lon="8.088137"><ele>285.0</ele><time>2026-04-18T17:04:02.238Z</time></trkpt><trkpt lat="45.0035179" lon="8.0879744"><ele>286.0</ele><time>2026-04-18T17:04:03.238Z</time></trkpt><trkpt lat="45.0034458" lon="8.087788"><ele>287.0</ele><time>2026-04-18T17:04:04.238Z</time></trkpt><trkpt lat="45.003359" lon="8.0876227"><ele>288.0</ele><time>2026-04-18T17:04:05.238Z</time></trkpt><trkpt lat="45.0032654" lon="8.0874146"><ele>284.0</ele><time>2026-04-18T17:04:06.238Z</time></trkpt><trkpt lat="45.0031661" lon="8.0872408"><ele>280.0</ele><time>2026-04-18T17:04:07.239Z</time></trkpt><trkpt lat="45.0030781" lon="8.0870497"><ele>276.0</ele><time>2026-04-18T17:04:08.238Z</time></trkpt><trkpt lat="45.0029787" lon="8.0868608"><ele>276.0</ele><time>2026-04-18T17:04:09.238Z</time></trkpt><trkpt lat="45.0028735" lon="8.0866285"><ele>276.0</ele><time>2026-04-18T17:04:10.239Z</time></trkpt><trkpt lat="45.0027794" lon="8.0864498"><ele>276.0</ele><time>2026-04-18T17:04:11.238Z</time></trkpt><trkpt lat="45.0026782" lon="8.0862628"><ele>275.5</ele><time>2026-04-18T17:04:12.238Z</time></trkpt><trkpt lat="45.0025856" lon="8.0860939"><ele>275.0</ele><time>2026-04-18T17:04:13.239Z</time></trkpt><trkpt lat="45.0025149" lon="8.0859155"><ele>274.5</ele><time>2026-04-18T17:04:14.238Z</time></trkpt><trkpt lat="45.002442" lon="8.0857712"><ele>274.0</ele><time>2026-04-18T17:04:15.238Z</time></trkpt><trkpt lat="45.0023116" lon="8.0856946"><ele>276.75</ele><time>2026-04-18T17:04:16.238Z</time></trkpt><trkpt lat="45.0021719" lon="8.085638"><ele>279.5</ele><time>2026-04-18T17:04:17.238Z</time></trkpt><trkpt lat="45.0020314" lon="8.0855843"><ele>282.25</ele><time>2026-04-18T17:04:18.238Z</time></trkpt><trkpt lat="45.0018831" lon="8.0855292"><ele>285.0</ele><time>2026-04-18T17:04:19.239Z</time></trkpt><trkpt lat="45.0017506" lon="8.0854723"><ele>285.0</ele><time>2026-04-18T17:04:20.238Z</time></trkpt><trkpt lat="45.0015721" lon="8.0853852"><ele>285.0</ele><time>2026-04-18T17:04:21.239Z</time></trkpt><trkpt lat="45.0014259" lon="8.0853663"><ele>285.0</ele><time>2026-04-18T17:04:22.238Z</time></trkpt><trkpt lat="45.0012825" lon="8.085305"><ele>285.0</ele><time>2026-04-18T17:04:23.238Z</time></trkpt><trkpt lat="45.0011391" lon="8.0852746"><ele>285.0</ele><time>2026-04-18T17:04:24.238Z</time></trkpt><trkpt lat="45.0010155" lon="8.0852372"><ele>285.0</ele><time>2026-04-18T17:04:25.238Z</time></trkpt><trkpt lat="45.0008874" lon="8.0851655"><ele>285.0</ele><time>2026-04-18T17:04:26.238Z</time></trkpt><trkpt lat="45.0007778" lon="8.085075"><ele>282.5</ele><time>2026-04-18T17:04:27.238Z</time></trkpt><trkpt lat="45.0006727" lon="8.0849671"><ele>280.0</ele><time>2026-04-18T17:04:28.239Z</time></trkpt><trkpt lat="45.0005502" lon="8.0848218"><ele>277.5</ele><time>2026-04-18T17:04:29.238Z</time></trkpt><trkpt lat="45.0004512" lon="8.0846661"><ele>275.0</ele><time>2026-04-18T17:04:30.238Z</time></trkpt><trkpt lat="45.0003281" lon="8.084485"><ele>275.0</ele><time>2026-04-18T17:04:31.238Z</time></trkpt><trkpt lat="45.0002547" lon="8.0843322"><ele>275.0</ele><time>2026-04-18T17:04:32.239Z</time></trkpt><trkpt lat="45.0002076" lon="8.0841813"><ele>275.0</ele><time>2026-04-18T17:04:33.238Z</time></trkpt><trkpt lat="45.0000747" lon="8.0840394"><ele>275.0</ele><time>2026-04-18T17:04:34.239Z</time></trkpt><trkpt lat="44.9999622" lon="8.0839011"><ele>277.33333333333337</ele><time>2026-04-18T17:04:35.239Z</time></trkpt><trkpt lat="44.9998586" lon="8.0837509"><ele>279.6666666666667</ele><time>2026-04-18T17:04:36.238Z</time></trkpt><trkpt lat="44.9997462" lon="8.0836022"><ele>282.0</ele><time>2026-04-18T17:04:37.238Z</time></trkpt><trkpt lat="44.9996452" lon="8.0833991"><ele>280.6666666666667</ele><time>2026-04-18T17:04:38.239Z</time></trkpt><trkpt lat="44.999696" lon="8.0831058"><ele>279.33333333333337</ele><time>2026-04-18T17:04:39.238Z</time></trkpt><trkpt lat="44.9996582" lon="8.0829069"><ele>278.0</ele><time>2026-04-18T17:04:40.238Z</time></trkpt><trkpt lat="44.9996563" lon="8.0826776"><ele>278.0</ele><time>2026-04-18T17:04:41.238Z</time></trkpt><trkpt lat="44.9995749" lon="8.0824803"><ele>278.0</ele><time>2026-04-18T17:04:42.239Z</time></trkpt><trkpt lat="44.9995256" lon="8.0822902"><ele>278.0</ele><time>2026-04-18T17:04:43.238Z</time></trkpt><trkpt lat="44.9994789" lon="8.0820996"><ele>278.0</ele><time>2026-04-18T17:04:44.239Z</time></trkpt><trkpt lat="44.9994069" lon="8.0819222"><ele>279.0</ele><time>2026-04-18T17:04:45.239Z</time></trkpt><trkpt lat="44.9992886" lon="8.0817117"><ele>280.0</ele><time>2026-04-18T17:04:46.239Z</time></trkpt><trkpt lat="44.9991849" lon="8.0815344"><ele>281.0</ele><time>2026-04-18T17:04:47.238Z</time></trkpt><trkpt lat="44.9991252" lon="8.0813823"><ele>281.0</ele><time>2026-04-18T17:04:48.239Z</time></trkpt><trkpt lat="44.9990762" lon="8.0812543"><ele>281.0</ele><time>2026-04-18T17:04:49.238Z</time></trkpt><trkpt lat="44.9989889" lon="8.0811018"><ele>281.0</ele><time>2026-04-18T17:04:50.239Z</time></trkpt><trkpt lat="44.998927" lon="8.0809729"><ele>281.0</ele><time>2026-04-18T17:04:51.238Z</time></trkpt><trkpt lat="44.9988449" lon="8.0808467"><ele>278.0</ele><time>2026-04-18T17:04:52.239Z</time></trkpt><trkpt lat="44.9987345" lon="8.0807038"><ele>275.0</ele><time>2026-04-18T17:04:53.238Z</time></trkpt><trkpt lat="44.9986645" lon="8.0806074"><ele>272.0</ele><time>2026-04-18T17:04:54.238Z</time></trkpt><trkpt lat="44.9985575" lon="8.0805009"><ele>269.0</ele><time>2026-04-18T17:04:55.238Z</time></trkpt><trkpt lat="44.9984762" lon="8.0804108"><ele>269.0</ele><time>2026-04-18T17:04:56.238Z</time></trkpt><trkpt lat="44.9983972" lon="8.0803068"><ele>269.0</ele><time>2026-04-18T17:04:57.239Z</time></trkpt><trkpt lat="44.9982878" lon="8.0801887"><ele>269.0</ele><time>2026-04-18T17:04:58.239Z</time></trkpt><trkpt lat="44.9981891" lon="8.08008"><ele>269.0</ele><time>2026-04-18T17:04:59.238Z</time></trkpt><trkpt lat="44.9980995" lon="8.0799843"><ele>266.25</ele><time>2026-04-18T17:05:00.238Z</time></trkpt><trkpt lat="44.9979926" lon="8.0798473"><ele>263.5</ele><time>2026-04-18T17:05:01.239Z</time></trkpt><trkpt lat="44.9978854" lon="8.0797498"><ele>260.75</ele><time>2026-04-18T17:05:02.238Z</time></trkpt><trkpt lat="44.9977876" lon="8.0796421"><ele>258.0</ele><time>2026-04-18T17:05:03.238Z</time></trkpt><trkpt lat="44.997694" lon="8.0795541"><ele>258.0</ele><time>2026-04-18T17:05:04.239Z</time></trkpt><trkpt lat="44.99761" lon="8.0794338"><ele>258.0</ele><time>2026-04-18T17:05:05.239Z</time></trkpt><trkpt lat="44.9975439" lon="8.0792933"><ele>258.0</ele><time>2026-04-18T17:05:06.238Z</time></trkpt><trkpt lat="44.9974918" lon="8.0791627"><ele>258.0</ele><time>2026-04-18T17:05:07.239Z</time></trkpt><trkpt lat="44.9974345" lon="8.07902"><ele>260.4</ele><time>2026-04-18T17:05:08.239Z</time></trkpt><trkpt lat="44.9974106" lon="8.0788713"><ele>262.8</ele><time>2026-04-18T17:05:09.238Z</time></trkpt><trkpt lat="44.9973617" lon="8.0787147"><ele>265.2</ele><time>2026-04-18T17:05:10.238Z</time></trkpt><trkpt lat="44.9973465" lon="8.078575"><ele>267.6</ele><time>2026-04-18T17:05:11.239Z</time></trkpt><trkpt lat="44.9973043" lon="8.0784198"><ele>270.0</ele><time>2026-04-18T17:05:12.238Z</time></trkpt><trkpt lat="44.9972584" lon="8.0782614"><ele>270.0</ele><time>2026-04-18T17:05:13.238Z</time></trkpt><trkpt lat="44.9972344" lon="8.0781491"><ele>270.0</ele><time>2026-04-18T17:05:14.239Z</time></trkpt><trkpt lat="44.9971224" lon="8.0780028"><ele>270.0</ele><time>2026-04-18T17:05:15.238Z</time></trkpt><trkpt lat="44.9970174" lon="8.0778993"><ele>270.0</ele><time>2026-04-18T17:05:16.239Z</time></trkpt><trkpt lat="44.996883" lon="8.0778714"><ele>270.0</ele><time>2026-04-18T17:05:17.238Z</time></trkpt><trkpt lat="44.996764" lon="8.0777772"><ele>270.0</ele><time>2026-04-18T17:05:18.238Z</time></trkpt><trkpt lat="44.9966512" lon="8.0776888"><ele>270.0</ele><time>2026-04-18T17:05:19.238Z</time></trkpt><trkpt lat="44.9965279" lon="8.0776418"><ele>270.0</ele><time>2026-04-18T17:05:20.238Z</time></trkpt><trkpt lat="44.9964126" lon="8.0775917"><ele>271.25</ele><time>2026-04-18T17:05:21.238Z</time></trkpt><trkpt lat="44.9962953" lon="8.0775751"><ele>272.5</ele><time>2026-04-18T17:05:22.238Z</time></trkpt><trkpt lat="44.9961654" lon="8.077567"><ele>273.75</ele><time>2026-04-18T17:05:23.238Z</time></trkpt><trkpt lat="44.9960705" lon="8.077619"><ele>275.0</ele><time>2026-04-18T17:05:24.239Z</time></trkpt><trkpt lat="44.9959412" lon="8.0776676"><ele>275.0</ele><time>2026-04-18T17:05:25.238Z</time></trkpt><trkpt lat="44.9958484" lon="8.0777438"><ele>275.0</ele><time>2026-04-18T17:05:26.239Z</time></trkpt><trkpt lat="44.9957645" lon="8.0778389"><ele>275.0</ele><time>2026-04-18T17:05:27.238Z</time></trkpt><trkpt lat="44.9957152" lon="8.0779351"><ele>275.0</ele><time>2026-04-18T17:05:28.238Z</time></trkpt><trkpt lat="44.9956086" lon="8.078006"><ele>275.0</ele><time>2026-04-18T17:05:29.238Z</time></trkpt><trkpt lat="44.9954962" lon="8.0778223"><ele>274.0</ele><time>2026-04-18T17:05:30.239Z</time></trkpt><trkpt lat="44.9953753" lon="8.0777445"><ele>273.0</ele><time>2026-04-18T17:05:31.238Z</time></trkpt><trkpt lat="44.995228" lon="8.0776794"><ele>272.0</ele><time>2026-04-18T17:05:32.238Z</time></trkpt><trkpt lat="44.995081" lon="8.0776225"><ele>271.0</ele><time>2026-04-18T17:05:33.238Z</time></trkpt><trkpt lat="44.9949201" lon="8.0775575"><ele>269.66666666666663</ele><time>2026-04-18T17:05:34.239Z</time></trkpt><trkpt lat="44.9947649" lon="8.0774823"><ele>268.3333333333333</ele><time>2026-04-18T17:05:35.238Z</time></trkpt><trkpt lat="44.9946055" lon="8.0774181"><ele>267.0</ele><time>2026-04-18T17:05:36.238Z</time></trkpt><trkpt lat="44.9944509" lon="8.0773505"><ele>261.3333333333333</ele><time>2026-04-18T17:05:37.238Z</time></trkpt><trkpt lat="44.9942996" lon="8.0772921"><ele>255.66666666666666</ele><time>2026-04-18T17:05:38.239Z</time></trkpt><trkpt lat="44.9941494" lon="8.0772355"><ele>250.0</ele><time>2026-04-18T17:05:39.238Z</time></trkpt><trkpt lat="44.993995" lon="8.0771724"><ele>250.0</ele><time>2026-04-18T17:05:40.238Z</time></trkpt><trkpt lat="44.9938412" lon="8.0771136"><ele>250.0</ele><time>2026-04-18T17:05:41.238Z</time></trkpt><trkpt lat="44.9936743" lon="8.0770304"><ele>250.0</ele><time>2026-04-18T17:05:42.239Z</time></trkpt><trkpt lat="44.9935211" lon="8.0769789"><ele>250.0</ele><time>2026-04-18T17:05:43.238Z</time></trkpt><trkpt lat="44.9933535" lon="8.0769294"><ele>250.0</ele><time>2026-04-18T17:05:44.238Z</time></trkpt><trkpt lat="44.9931955" lon="8.0769188"><ele>250.0</ele><time>2026-04-18T17:05:45.239Z</time></trkpt><trkpt lat="44.9930363" lon="8.0768947"><ele>251.33333333333331</ele><time>2026-04-18T17:05:46.238Z</time></trkpt><trkpt lat="44.9928739" lon="8.0768678"><ele>252.66666666666669</ele><time>2026-04-18T17:05:47.239Z</time></trkpt><trkpt lat="44.9927176" lon="8.0768228"><ele>254.0</ele><time>2026-04-18T17:05:48.238Z</time></trkpt><trkpt lat="44.9925652" lon="8.076763"><ele>254.33333333333334</ele><time>2026-04-18T17:05:49.238Z</time></trkpt><trkpt lat="44.9924209" lon="8.0766786"><ele>254.66666666666669</ele><time>2026-04-18T17:05:50.238Z</time></trkpt><trkpt lat="44.9922752" lon="8.0766048"><ele>255.0</ele><time>2026-04-18T17:05:51.238Z</time></trkpt><trkpt lat="44.9921221" lon="8.0764994"><ele>255.0</ele><time>2026-04-18T17:05:52.238Z</time></trkpt><trkpt lat="44.9919731" lon="8.0764018"><ele>255.0</ele><time>2026-04-18T17:05:53.238Z</time></trkpt><trkpt lat="44.9918227" lon="8.0763004"><ele>255.0</ele><time>2026-04-18T17:05:54.238Z</time></trkpt><trkpt lat="44.9916682" lon="8.0762061"><ele>258.3333333333333</ele><time>2026-04-18T17:05:55.238Z</time></trkpt><trkpt lat="44.9915136" lon="8.0761182"><ele>261.66666666666663</ele><time>2026-04-18T17:05:56.238Z</time></trkpt><trkpt lat="44.991347" lon="8.0760342"><ele>265.0</ele><time>2026-04-18T17:05:57.238Z</time></trkpt><trkpt lat="44.9911905" lon="8.0759652"><ele>265.0</ele><time>2026-04-18T17:05:58.238Z</time></trkpt><trkpt lat="44.9910115" lon="8.075883"><ele>265.0</ele><time>2026-04-18T17:05:59.239Z</time></trkpt><trkpt lat="44.9908562" lon="8.0758176"><ele>265.0</ele><time>2026-04-18T17:06:00.238Z</time></trkpt><trkpt lat="44.9906926" lon="8.0757663"><ele>259.66666666666663</ele><time>2026-04-18T17:06:01.238Z</time></trkpt><trkpt lat="44.9905266" lon="8.0756976"><ele>254.33333333333331</ele><time>2026-04-18T17:06:02.238Z</time></trkpt><trkpt lat="44.9903774" lon="8.0756525"><ele>249.0</ele><time>2026-04-18T17:06:03.238Z</time></trkpt><trkpt lat="44.9902206" lon="8.0755976"><ele>249.0</ele><time>2026-04-18T17:06:04.238Z</time></trkpt><trkpt lat="44.9900804" lon="8.0755267"><ele>249.0</ele><time>2026-04-18T17:06:05.238Z</time></trkpt><trkpt lat="44.9899314" lon="8.0754625"><ele>249.0</ele><time>2026-04-18T17:06:06.238Z</time></trkpt><trkpt lat="44.9898012" lon="8.075368"><ele>250.33333333333331</ele><time>2026-04-18T17:06:07.239Z</time></trkpt><trkpt lat="44.9896811" lon="8.0752469"><ele>251.66666666666666</ele><time>2026-04-18T17:06:08.238Z</time></trkpt><trkpt lat="44.9895773" lon="8.0750839"><ele>253.0</ele><time>2026-04-18T17:06:09.238Z</time></trkpt><trkpt lat="44.9894954" lon="8.0748776"><ele>248.33333333333331</ele><time>2026-04-18T17:06:10.238Z</time></trkpt><trkpt lat="44.9894462" lon="8.0746689"><ele>243.66666666666669</ele><time>2026-04-18T17:06:11.238Z</time></trkpt><trkpt lat="44.9893652" lon="8.0744725"><ele>239.0</ele><time>2026-04-18T17:06:12.239Z</time></trkpt><trkpt lat="44.989284" lon="8.0742903"><ele>239.0</ele><time>2026-04-18T17:06:13.238Z</time></trkpt><trkpt lat="44.9892161" lon="8.0741218"><ele>239.0</ele><time>2026-04-18T17:06:14.238Z</time></trkpt><trkpt lat="44.9890676" lon="8.0739443"><ele>239.0</ele><time>2026-04-18T17:06:15.238Z</time></trkpt><trkpt lat="44.9889311" lon="8.0737858"><ele>242.33333333333334</ele><time>2026-04-18T17:06:16.238Z</time></trkpt><trkpt lat="44.9888137" lon="8.0736217"><ele>245.66666666666669</ele><time>2026-04-18T17:06:17.239Z</time></trkpt><trkpt lat="44.98869" lon="8.0734558"><ele>249.0</ele><time>2026-04-18T17:06:18.238Z</time></trkpt><trkpt lat="44.9885599" lon="8.0733291"><ele>250.0</ele><time>2026-04-18T17:06:19.238Z</time></trkpt><trkpt lat="44.9884129" lon="8.0732214"><ele>251.0</ele><time>2026-04-18T17:06:20.239Z</time></trkpt><trkpt lat="44.9882884" lon="8.0731102"><ele>252.0</ele><time>2026-04-18T17:06:21.238Z</time></trkpt><trkpt lat="44.9881693" lon="8.0730354"><ele>253.0</ele><time>2026-04-18T17:06:22.238Z</time></trkpt><trkpt lat="44.9880162" lon="8.0729624"><ele>249.66666666666666</ele><time>2026-04-18T17:06:23.239Z</time></trkpt><trkpt lat="44.9878669" lon="8.0729383"><ele>246.33333333333331</ele><time>2026-04-18T17:06:24.238Z</time></trkpt><trkpt lat="44.9877044" lon="8.0729502"><ele>243.0</ele><time>2026-04-18T17:06:25.239Z</time></trkpt><trkpt lat="44.9875377" lon="8.0729834"><ele>240.0</ele><time>2026-04-18T17:06:26.239Z</time></trkpt><trkpt lat="44.9873735" lon="8.0730303"><ele>237.0</ele><time>2026-04-18T17:06:27.239Z</time></trkpt><trkpt lat="44.9872142" lon="8.0730759"><ele>234.0</ele><time>2026-04-18T17:06:28.238Z</time></trkpt><trkpt lat="44.9870599" lon="8.0731117"><ele>234.0</ele><time>2026-04-18T17:06:29.239Z</time></trkpt><trkpt lat="44.9868985" lon="8.073168"><ele>234.0</ele><time>2026-04-18T17:06:30.238Z</time></trkpt><trkpt lat="44.9867383" lon="8.0731935"><ele>234.0</ele><time>2026-04-18T17:06:31.238Z</time></trkpt><trkpt lat="44.9865499" lon="8.0732429"><ele>236.0</ele><time>2026-04-18T17:06:32.238Z</time></trkpt><trkpt lat="44.9863851" lon="8.0732883"><ele>238.0</ele><time>2026-04-18T17:06:33.238Z</time></trkpt><trkpt lat="44.9861832" lon="8.0733239"><ele>240.0</ele><time>2026-04-18T17:06:34.238Z</time></trkpt><trkpt lat="44.9860038" lon="8.0733605"><ele>240.0</ele><time>2026-04-18T17:06:35.238Z</time></trkpt><trkpt lat="44.9858242" lon="8.0733627"><ele>240.0</ele><time>2026-04-18T17:06:36.238Z</time></trkpt><trkpt lat="44.9856634" lon="8.0733108"><ele>240.0</ele><time>2026-04-18T17:06:37.238Z</time></trkpt><trkpt lat="44.9854787" lon="8.0733057"><ele>240.0</ele><time>2026-04-18T17:06:38.239Z</time></trkpt><trkpt lat="44.9853006" lon="8.0733439"><ele>240.0</ele><time>2026-04-18T17:06:39.238Z</time></trkpt><trkpt lat="44.9851582" lon="8.0733547"><ele>240.0</ele><time>2026-04-18T17:06:40.238Z</time></trkpt><trkpt lat="44.9849782" lon="8.0733832"><ele>240.0</ele><time>2026-04-18T17:06:41.238Z</time></trkpt><trkpt lat="44.9848267" lon="8.0733869"><ele>240.0</ele><time>2026-04-18T17:06:42.239Z</time></trkpt><trkpt lat="44.9846903" lon="8.0733774"><ele>240.0</ele><time>2026-04-18T17:06:43.239Z</time></trkpt><trkpt lat="44.984555" lon="8.0733718"><ele>240.0</ele><time>2026-04-18T17:06:44.239Z</time></trkpt><trkpt lat="44.9844079" lon="8.0733181"><ele>239.66666666666669</ele><time>2026-04-18T17:06:45.238Z</time></trkpt><trkpt lat="44.9842542" lon="8.0732378"><ele>239.33333333333334</ele><time>2026-04-18T17:06:46.239Z</time></trkpt><trkpt lat="44.9841149" lon="8.0731458"><ele>239.0</ele><time>2026-04-18T17:06:47.239Z</time></trkpt><trkpt lat="44.9839933" lon="8.0730455"><ele>239.0</ele><time>2026-04-18T17:06:48.238Z</time></trkpt><trkpt lat="44.983876" lon="8.0729704"><ele>239.0</ele><time>2026-04-18T17:06:49.239Z</time></trkpt><trkpt lat="44.9837595" lon="8.072879"><ele>239.0</ele><time>2026-04-18T17:06:50.239Z</time></trkpt><trkpt lat="44.9836563" lon="8.0727569"><ele>239.0</ele><time>2026-04-18T17:06:51.238Z</time></trkpt><trkpt lat="44.9835871" lon="8.0725465"><ele>239.25</ele><time>2026-04-18T17:06:52.238Z</time></trkpt><trkpt lat="44.9835836" lon="8.0723758"><ele>239.5</ele><time>2026-04-18T17:06:53.238Z</time></trkpt><trkpt lat="44.9836101" lon="8.0721729"><ele>239.75</ele><time>2026-04-18T17:06:54.238Z</time></trkpt><trkpt lat="44.983717" lon="8.0720101"><ele>240.0</ele><time>2026-04-18T17:06:55.238Z</time></trkpt><trkpt lat="44.9837739" lon="8.0718368"><ele>240.0</ele><time>2026-04-18T17:06:56.239Z</time></trkpt><trkpt lat="44.9838091" lon="8.0716669"><ele>240.0</ele><time>2026-04-18T17:06:57.238Z</time></trkpt><trkpt lat="44.9838752" lon="8.0714485"><ele>240.0</ele><time>2026-04-18T17:06:58.239Z</time></trkpt><trkpt lat="44.9839199" lon="8.0712669"><ele>240.0</ele><time>2026-04-18T17:06:59.238Z</time></trkpt><trkpt lat="44.9839489" lon="8.0710877"><ele>240.4</ele><time>2026-04-18T17:07:00.238Z</time></trkpt><trkpt lat="44.9839606" lon="8.070982"><ele>240.8</ele><time>2026-04-18T17:07:01.238Z</time></trkpt><trkpt lat="44.9839785" lon="8.0708339"><ele>241.2</ele><time>2026-04-18T17:07:02.239Z</time></trkpt><trkpt lat="44.9838932" lon="8.0706751"><ele>241.6</ele><time>2026-04-18T17:07:03.238Z</time></trkpt><trkpt lat="44.9838399" lon="8.0705139"><ele>242.0</ele><time>2026-04-18T17:07:04.238Z</time></trkpt><trkpt lat="44.9837166" lon="8.0704278"><ele>243.5</ele><time>2026-04-18T17:07:05.239Z</time></trkpt><trkpt lat="44.9836065" lon="8.0703504"><ele>245.0</ele><time>2026-04-18T17:07:06.238Z</time></trkpt><trkpt lat="44.9834771" lon="8.0702847"><ele>246.5</ele><time>2026-04-18T17:07:07.238Z</time></trkpt><trkpt lat="44.9833552" lon="8.0702278"><ele>248.0</ele><time>2026-04-18T17:07:08.238Z</time></trkpt><trkpt lat="44.983234" lon="8.0701752"><ele>248.25</ele><time>2026-04-18T17:07:09.238Z</time></trkpt><trkpt lat="44.9831274" lon="8.070117"><ele>248.5</ele><time>2026-04-18T17:07:10.239Z</time></trkpt><trkpt lat="44.9830073" lon="8.0700199"><ele>248.75</ele><time>2026-04-18T17:07:11.239Z</time></trkpt><trkpt lat="44.9829183" lon="8.0698981"><ele>249.0</ele><time>2026-04-18T17:07:12.238Z</time></trkpt><trkpt lat="44.9828628" lon="8.0697784"><ele>250.66666666666669</ele><time>2026-04-18T17:07:13.238Z</time></trkpt><trkpt lat="44.9828078" lon="8.0695032"><ele>252.33333333333334</ele><time>2026-04-18T17:07:14.238Z</time></trkpt><trkpt lat="44.9829174" lon="8.0693356"><ele>254.0</ele><time>2026-04-18T17:07:15.239Z</time></trkpt><trkpt lat="44.982961" lon="8.0691734"><ele>251.75</ele><time>2026-04-18T17:07:16.238Z</time></trkpt><trkpt lat="44.9829959" lon="8.0690191"><ele>249.5</ele><time>2026-04-18T17:07:17.238Z</time></trkpt><trkpt lat="44.9830846" lon="8.0688461"><ele>247.25</ele><time>2026-04-18T17:07:18.239Z</time></trkpt><trkpt lat="44.9831536" lon="8.0686993"><ele>245.0</ele><time>2026-04-18T17:07:19.238Z</time></trkpt><trkpt lat="44.9832235" lon="8.0685555"><ele>245.0</ele><time>2026-04-18T17:07:20.238Z</time></trkpt><trkpt lat="44.9832962" lon="8.0683831"><ele>245.0</ele><time>2026-04-18T17:07:21.238Z</time></trkpt><trkpt lat="44.983314" lon="8.0682133"><ele>245.0</ele><time>2026-04-18T17:07:22.238Z</time></trkpt><trkpt lat="44.9833059" lon="8.0680271"><ele>245.0</ele><time>2026-04-18T17:07:23.238Z</time></trkpt><trkpt lat="44.9832707" lon="8.0678976"><ele>245.66666666666669</ele><time>2026-04-18T17:07:24.239Z</time></trkpt><trkpt lat="44.9830871" lon="8.0678056"><ele>246.33333333333331</ele><time>2026-04-18T17:07:25.238Z</time></trkpt><trkpt lat="44.9829538" lon="8.0676811"><ele>247.0</ele><time>2026-04-18T17:07:26.238Z</time></trkpt><trkpt lat="44.9828273" lon="8.0675641"><ele>247.0</ele><time>2026-04-18T17:07:27.238Z</time></trkpt><trkpt lat="44.9826825" lon="8.0674571"><ele>247.0</ele><time>2026-04-18T17:07:28.239Z</time></trkpt><trkpt lat="44.9825343" lon="8.0673513"><ele>247.0</ele><time>2026-04-18T17:07:29.238Z</time></trkpt><trkpt lat="44.9824067" lon="8.0672503"><ele>248.33333333333331</ele><time>2026-04-18T17:07:30.238Z</time></trkpt><trkpt lat="44.9822841" lon="8.0671805"><ele>249.66666666666669</ele><time>2026-04-18T17:07:31.239Z</time></trkpt><trkpt lat="44.9821404" lon="8.0670871"><ele>251.0</ele><time>2026-04-18T17:07:32.239Z</time></trkpt><trkpt lat="44.9819849" lon="8.0670382"><ele>251.0</ele><time>2026-04-18T17:07:33.238Z</time></trkpt><trkpt lat="44.9818351" lon="8.0669816"><ele>251.0</ele><time>2026-04-18T17:07:34.238Z</time></trkpt><trkpt lat="44.9816935" lon="8.0669102"><ele>251.0</ele><time>2026-04-18T17:07:35.238Z</time></trkpt><trkpt lat="44.9815588" lon="8.0668137"><ele>249.75</ele><time>2026-04-18T17:07:36.239Z</time></trkpt><trkpt lat="44.9814339" lon="8.0667091"><ele>248.5</ele><time>2026-04-18T17:07:37.238Z</time></trkpt><trkpt lat="44.9813099" lon="8.0665714"><ele>247.25</ele><time>2026-04-18T17:07:38.239Z</time></trkpt><trkpt lat="44.9812184" lon="8.0664449"><ele>246.0</ele><time>2026-04-18T17:07:39.238Z</time></trkpt><trkpt lat="44.9811205" lon="8.0662787"><ele>241.0</ele><time>2026-04-18T17:07:40.238Z</time></trkpt><trkpt lat="44.9810739" lon="8.0660772"><ele>236.0</ele><time>2026-04-18T17:07:41.239Z</time></trkpt><trkpt lat="44.9810102" lon="8.0658517"><ele>231.0</ele><time>2026-04-18T17:07:42.238Z</time></trkpt><trkpt lat="44.9809644" lon="8.0656665"><ele>231.5</ele><time>2026-04-18T17:07:43.238Z</time></trkpt><trkpt lat="44.9809314" lon="8.0654535"><ele>232.0</ele><time>2026-04-18T17:07:44.238Z</time></trkpt><trkpt lat="44.9808898" lon="8.0652722"><ele>232.5</ele><time>2026-04-18T17:07:45.238Z</time></trkpt><trkpt lat="44.9808581" lon="8.0651121"><ele>233.0</ele><time>2026-04-18T17:07:46.238Z</time></trkpt><trkpt lat="44.9808157" lon="8.0649127"><ele>233.0</ele><time>2026-04-18T17:07:47.238Z</time></trkpt><trkpt lat="44.9807605" lon="8.0647333"><ele>233.0</ele><time>2026-04-18T17:07:48.238Z</time></trkpt><trkpt lat="44.9806892" lon="8.0646017"><ele>233.0</ele><time>2026-04-18T17:07:49.238Z</time></trkpt><trkpt lat="44.9806368" lon="8.0644545"><ele>233.0</ele><time>2026-04-18T17:07:50.239Z</time></trkpt><trkpt lat="44.9806096" lon="8.0643684"><ele>233.0</ele><time>2026-04-18T17:07:51.238Z</time></trkpt><trkpt lat="44.9805758" lon="8.0642065"><ele>230.2</ele><time>2026-04-18T17:07:52.238Z</time></trkpt><trkpt lat="44.9805324" lon="8.0640854"><ele>227.4</ele><time>2026-04-18T17:07:53.238Z</time></trkpt><trkpt lat="44.9804656" lon="8.0639831"><ele>224.59999999999997</ele><time>2026-04-18T17:07:55.239Z</time></trkpt><trkpt lat="44.9803631" lon="8.0638453"><ele>221.79999999999998</ele><time>2026-04-18T17:07:57.238Z</time></trkpt><trkpt lat="44.9802997" lon="8.0637665"><ele>219.0</ele><time>2026-04-18T17:07:58.239Z</time></trkpt><trkpt lat="44.9802002" lon="8.063726"><ele>219.0</ele><time>2026-04-18T17:07:59.238Z</time></trkpt><trkpt lat="44.9801056" lon="8.0636814"><ele>219.0</ele><time>2026-04-18T17:08:00.238Z</time></trkpt><trkpt lat="44.9799611" lon="8.0637061"><ele>219.0</ele><time>2026-04-18T17:08:01.238Z</time></trkpt><trkpt lat="44.979838" lon="8.0636714"><ele>219.0</ele><time>2026-04-18T17:08:02.238Z</time></trkpt><trkpt lat="44.9797129" lon="8.0636359"><ele>222.5</ele><time>2026-04-18T17:08:03.238Z</time></trkpt><trkpt lat="44.9795722" lon="8.0636558"><ele>226.0</ele><time>2026-04-18T17:08:04.238Z</time></trkpt><trkpt lat="44.9794292" lon="8.0636253"><ele>229.5</ele><time>2026-04-18T17:08:05.239Z</time></trkpt><trkpt lat="44.9792684" lon="8.0635914"><ele>233.0</ele><time>2026-04-18T17:08:06.239Z</time></trkpt><trkpt lat="44.9791417" lon="8.0635787"><ele>233.0</ele><time>2026-04-18T17:08:07.238Z</time></trkpt><trkpt lat="44.979031" lon="8.0635426"><ele>233.0</ele><time>2026-04-18T17:08:08.238Z</time></trkpt><trkpt lat="44.978939" lon="8.0633871"><ele>233.0</ele><time>2026-04-18T17:08:09.239Z</time></trkpt><trkpt lat="44.9787954" lon="8.0633369"><ele>233.0</ele><time>2026-04-18T17:08:10.239Z</time></trkpt><trkpt lat="44.9786527" lon="8.0632621"><ele>233.25</ele><time>2026-04-18T17:08:11.238Z</time></trkpt><trkpt lat="44.9785225" lon="8.0632144"><ele>233.5</ele><time>2026-04-18T17:08:12.238Z</time></trkpt><trkpt lat="44.9783927" lon="8.0631504"><ele>233.75</ele><time>2026-04-18T17:08:13.238Z</time></trkpt><trkpt lat="44.9782826" lon="8.0631028"><ele>234.0</ele><time>2026-04-18T17:08:14.239Z</time></trkpt><trkpt lat="44.9782286" lon="8.063047"><ele>230.6</ele><time>2026-04-18T17:08:15.239Z</time></trkpt><trkpt lat="44.9781615" lon="8.0629746"><ele>227.2</ele><time>2026-04-18T17:08:16.238Z</time></trkpt><trkpt lat="44.9780982" lon="8.0628893"><ele>223.79999999999998</ele><time>2026-04-18T17:08:17.238Z</time></trkpt><trkpt lat="44.9780442" lon="8.0627888"><ele>220.39999999999998</ele><time>2026-04-18T17:08:18.238Z</time></trkpt><trkpt lat="44.9780149" lon="8.0627015"><ele>217.0</ele><time>2026-04-18T17:08:19.239Z</time></trkpt><trkpt lat="44.9780804" lon="8.0625462"><ele>216.8</ele><time>2026-04-18T17:08:20.239Z</time></trkpt><trkpt lat="44.9781053" lon="8.0624324"><ele>216.6</ele><time>2026-04-18T17:08:21.238Z</time></trkpt><trkpt lat="44.9781653" lon="8.0623304"><ele>216.40000000000003</ele><time>2026-04-18T17:08:22.238Z</time></trkpt><trkpt lat="44.9782326" lon="8.0622468"><ele>216.20000000000002</ele><time>2026-04-18T17:08:23.238Z</time></trkpt><trkpt lat="44.9783166" lon="8.0621582"><ele>216.0</ele><time>2026-04-18T17:08:24.238Z</time></trkpt><trkpt lat="44.9784066" lon="8.062087"><ele>216.0</ele><time>2026-04-18T17:08:25.239Z</time></trkpt><trkpt lat="44.9784909" lon="8.06201"><ele>216.0</ele><time>2026-04-18T17:08:26.238Z</time></trkpt><trkpt lat="44.9785693" lon="8.0619369"><ele>216.0</ele><time>2026-04-18T17:08:27.238Z</time></trkpt><trkpt lat="44.9786449" lon="8.0618688"><ele>216.0</ele><time>2026-04-18T17:08:28.238Z</time></trkpt><trkpt lat="44.9787096" lon="8.0617961"><ele>216.0</ele><time>2026-04-18T17:08:29.239Z</time></trkpt><trkpt lat="44.9787841" lon="8.0617597"><ele>216.0</ele><time>2026-04-18T17:08:30.238Z</time></trkpt><trkpt lat="44.9788809" lon="8.0616524"><ele>216.0</ele><time>2026-04-18T17:08:32.238Z</time></trkpt><trkpt lat="44.9789532" lon="8.0615954"><ele>216.00000000000003</ele><time>2026-04-18T17:08:34.238Z</time></trkpt><trkpt lat="44.9788437" lon="8.0616114"><ele>216.00000000000003</ele><time>2026-04-18T17:08:38.238Z</time></trkpt><trkpt lat="44.978735" lon="8.0616732"><ele>216.0</ele><time>2026-04-18T17:08:40.238Z</time></trkpt><trkpt lat="44.9786512" lon="8.0617302"><ele>216.0</ele><time>2026-04-18T17:08:41.239Z</time></trkpt><trkpt lat="44.9785772" lon="8.0617562"><ele>216.0</ele><time>2026-04-18T17:08:42.238Z</time></trkpt><trkpt lat="44.9784982" lon="8.061809"><ele>216.0</ele><time>2026-04-18T17:08:43.239Z</time></trkpt><trkpt lat="44.9783793" lon="8.0618345"><ele>216.0</ele><time>2026-04-18T17:08:44.239Z</time></trkpt><trkpt lat="44.9782534" lon="8.0618713"><ele>216.0</ele><time>2026-04-18T17:08:45.239Z</time></trkpt><trkpt lat="44.9781369" lon="8.0618704"><ele>212.4</ele><time>2026-04-18T17:08:46.238Z</time></trkpt><trkpt lat="44.9780595" lon="8.0618782"><ele>208.8</ele><time>2026-04-18T17:08:47.238Z</time></trkpt><trkpt lat="44.9779391" lon="8.0618594"><ele>205.20000000000002</ele><time>2026-04-18T17:08:48.239Z</time></trkpt><trkpt lat="44.9778514" lon="8.0618513"><ele>201.60000000000002</ele><time>2026-04-18T17:08:49.238Z</time></trkpt><trkpt lat="44.9777653" lon="8.0618371"><ele>198.0</ele><time>2026-04-18T17:08:50.239Z</time></trkpt><trkpt lat="44.9776505" lon="8.061845"><ele>198.0</ele><time>2026-04-18T17:08:51.238Z</time></trkpt><trkpt lat="44.9775449" lon="8.061845"><ele>198.0</ele><time>2026-04-18T17:08:52.238Z</time></trkpt><trkpt lat="44.9774443" lon="8.061847"><ele>198.0</ele><time>2026-04-18T17:08:53.238Z</time></trkpt><trkpt lat="44.9773582" lon="8.0618212"><ele>198.0</ele><time>2026-04-18T17:08:54.238Z</time></trkpt><trkpt lat="44.977248" lon="8.0618121"><ele>198.0</ele><time>2026-04-18T17:08:55.239Z</time></trkpt><trkpt lat="44.9771553" lon="8.061821"><ele>196.0</ele><time>2026-04-18T17:08:56.238Z</time></trkpt><trkpt lat="44.9770333" lon="8.0618256"><ele>194.0</ele><time>2026-04-18T17:08:57.239Z</time></trkpt><trkpt lat="44.9769045" lon="8.0618372"><ele>192.0</ele><time>2026-04-18T17:08:59.239Z</time></trkpt><trkpt lat="44.9768038" lon="8.0618528"><ele>190.0</ele><time>2026-04-18T17:09:01.238Z</time></trkpt><trkpt lat="44.9767309" lon="8.061853"><ele>188.0</ele><time>2026-04-18T17:09:03.238Z</time></trkpt><trkpt lat="44.9766652" lon="8.0618554"><ele>186.60000000000002</ele><time>2026-04-18T17:09:04.238Z</time></trkpt><trkpt lat="44.9765946" lon="8.0618396"><ele>185.20000000000002</ele><time>2026-04-18T17:09:05.238Z</time></trkpt><trkpt lat="44.9764977" lon="8.0618132"><ele>183.8</ele><time>2026-04-18T17:09:06.238Z</time></trkpt><trkpt lat="44.9763984" lon="8.0617689"><ele>182.4</ele><time>2026-04-18T17:09:07.238Z</time></trkpt><trkpt lat="44.9763028" lon="8.0617647"><ele>181.0</ele><time>2026-04-18T17:09:08.238Z</time></trkpt><trkpt lat="44.976173" lon="8.061742"><ele>181.0</ele><time>2026-04-18T17:09:09.239Z</time></trkpt><trkpt lat="44.9760581" lon="8.0617058"><ele>181.0</ele><time>2026-04-18T17:09:10.238Z</time></trkpt><trkpt lat="44.9759284" lon="8.0616681"><ele>181.0</ele><time>2026-04-18T17:09:11.238Z</time></trkpt><trkpt lat="44.975811" lon="8.0616185"><ele>181.0</ele><time>2026-04-18T17:09:12.238Z</time></trkpt><trkpt lat="44.9756769" lon="8.0615843"><ele>180.75</ele><time>2026-04-18T17:09:13.238Z</time></trkpt><trkpt lat="44.9755623" lon="8.0615338"><ele>180.5</ele><time>2026-04-18T17:09:14.238Z</time></trkpt><trkpt lat="44.9754702" lon="8.0614506"><ele>180.25</ele><time>2026-04-18T17:09:15.238Z</time></trkpt><trkpt lat="44.9753873" lon="8.0613555"><ele>180.0</ele><time>2026-04-18T17:09:16.239Z</time></trkpt><trkpt lat="44.975313" lon="8.0612112"><ele>180.0</ele><time>2026-04-18T17:09:17.238Z</time></trkpt><trkpt lat="44.9752508" lon="8.0610609"><ele>180.0</ele><time>2026-04-18T17:09:18.239Z</time></trkpt><trkpt lat="44.9752163" lon="8.0609384"><ele>180.0</ele><time>2026-04-18T17:09:19.238Z</time></trkpt><trkpt lat="44.9751469" lon="8.0607632"><ele>180.0</ele><time>2026-04-18T17:09:20.238Z</time></trkpt><trkpt lat="44.9750835" lon="8.0605816"><ele>180.2</ele><time>2026-04-18T17:09:21.239Z</time></trkpt><trkpt lat="44.9750181" lon="8.0604148"><ele>180.4</ele><time>2026-04-18T17:09:22.238Z</time></trkpt><trkpt lat="44.9749772" lon="8.0602928"><ele>180.60000000000002</ele><time>2026-04-18T17:09:23.238Z</time></trkpt><trkpt lat="44.9749353" lon="8.0601789"><ele>180.8</ele><time>2026-04-18T17:09:24.238Z</time></trkpt><trkpt lat="44.9749174" lon="8.0600374"><ele>181.0</ele><time>2026-04-18T17:09:25.239Z</time></trkpt><trkpt lat="44.9749162" lon="8.0598953"><ele>181.0</ele><time>2026-04-18T17:09:26.239Z</time></trkpt><trkpt lat="44.9749686" lon="8.0597455"><ele>181.0</ele><time>2026-04-18T17:09:27.239Z</time></trkpt><trkpt lat="44.9750029" lon="8.0596165"><ele>181.0</ele><time>2026-04-18T17:09:28.238Z</time></trkpt><trkpt lat="44.9750421" lon="8.0594645"><ele>181.0</ele><time>2026-04-18T17:09:29.238Z</time></trkpt><trkpt lat="44.975078" lon="8.0593795"><ele>181.0</ele><time>2026-04-18T17:09:30.238Z</time></trkpt><trkpt lat="44.9750849" lon="8.0592643"><ele>181.0</ele><time>2026-04-18T17:09:31.238Z</time></trkpt><trkpt lat="44.9750896" lon="8.0591572"><ele>181.0</ele><time>2026-04-18T17:09:32.239Z</time></trkpt><trkpt lat="44.9750865" lon="8.0590564"><ele>181.0</ele><time>2026-04-18T17:09:33.238Z</time></trkpt><trkpt lat="44.9750671" lon="8.0589482"><ele>181.0</ele><time>2026-04-18T17:09:34.239Z</time></trkpt><trkpt lat="44.9750395" lon="8.0588665"><ele>181.0</ele><time>2026-04-18T17:09:35.238Z</time></trkpt><trkpt lat="44.9749389" lon="8.0587155"><ele>181.0</ele><time>2026-04-18T17:09:37.239Z</time></trkpt><trkpt lat="44.9748466" lon="8.05865"><ele>182.0</ele><time>2026-04-18T17:09:38.239Z</time></trkpt><trkpt lat="44.9747379" lon="8.0585916"><ele>183.0</ele><time>2026-04-18T17:09:39.238Z</time></trkpt><trkpt lat="44.9746202" lon="8.0585548"><ele>184.0</ele><time>2026-04-18T17:09:40.238Z</time></trkpt><trkpt lat="44.974499" lon="8.0585182"><ele>185.0</ele><time>2026-04-18T17:09:41.238Z</time></trkpt><trkpt lat="44.9743655" lon="8.0584765"><ele>185.0</ele><time>2026-04-18T17:09:42.238Z</time></trkpt><trkpt lat="44.9742375" lon="8.0584242"><ele>185.0</ele><time>2026-04-18T17:09:43.238Z</time></trkpt><trkpt lat="44.9741249" lon="8.0583767"><ele>185.0</ele><time>2026-04-18T17:09:44.239Z</time></trkpt><trkpt lat="44.974005" lon="8.05831"><ele>185.0</ele><time>2026-04-18T17:09:45.239Z</time></trkpt><trkpt lat="44.9738809" lon="8.0582749"><ele>191.5</ele><time>2026-04-18T17:09:46.238Z</time></trkpt><trkpt lat="44.9737847" lon="8.0582127"><ele>198.0</ele><time>2026-04-18T17:09:47.238Z</time></trkpt><trkpt lat="44.9737154" lon="8.0580828"><ele>204.5</ele><time>2026-04-18T17:09:48.238Z</time></trkpt><trkpt lat="44.973643" lon="8.0579477"><ele>211.0</ele><time>2026-04-18T17:09:49.238Z</time></trkpt><trkpt lat="44.9735851" lon="8.057802"><ele>211.0</ele><time>2026-04-18T17:09:50.238Z</time></trkpt><trkpt lat="44.9735574" lon="8.0576418"><ele>211.0</ele><time>2026-04-18T17:09:51.238Z</time></trkpt><trkpt lat="44.9735338" lon="8.0574624"><ele>211.0</ele><time>2026-04-18T17:09:52.238Z</time></trkpt><trkpt lat="44.9735203" lon="8.0572683"><ele>211.0</ele><time>2026-04-18T17:09:53.239Z</time></trkpt><trkpt lat="44.9735338" lon="8.057036"><ele>213.0</ele><time>2026-04-18T17:09:54.238Z</time></trkpt><trkpt lat="44.973541" lon="8.0568565"><ele>215.0</ele><time>2026-04-18T17:09:55.239Z</time></trkpt><trkpt lat="44.9735617" lon="8.0566636"><ele>217.0</ele><time>2026-04-18T17:09:56.238Z</time></trkpt><trkpt lat="44.9736156" lon="8.0564613"><ele>219.0</ele><time>2026-04-18T17:09:57.238Z</time></trkpt><trkpt lat="44.9736907" lon="8.0563166"><ele>219.0</ele><time>2026-04-18T17:09:58.238Z</time></trkpt><trkpt lat="44.9737803" lon="8.056186"><ele>219.0</ele><time>2026-04-18T17:09:59.238Z</time></trkpt><trkpt lat="44.973873" lon="8.0560496"><ele>219.0</ele><time>2026-04-18T17:10:00.239Z</time></trkpt><trkpt lat="44.9740033" lon="8.0558877"><ele>219.0</ele><time>2026-04-18T17:10:01.239Z</time></trkpt><trkpt lat="44.9740911" lon="8.0557097"><ele>217.66666666666669</ele><time>2026-04-18T17:10:02.238Z</time></trkpt><trkpt lat="44.9741791" lon="8.0555304"><ele>216.33333333333334</ele><time>2026-04-18T17:10:03.238Z</time></trkpt><trkpt lat="44.9742323" lon="8.0553467"><ele>215.0</ele><time>2026-04-18T17:10:04.238Z</time></trkpt><trkpt lat="44.9743274" lon="8.0551128"><ele>213.5</ele><time>2026-04-18T17:10:05.239Z</time></trkpt><trkpt lat="44.9743646" lon="8.0549188"><ele>212.0</ele><time>2026-04-18T17:10:06.238Z</time></trkpt><trkpt lat="44.9744052" lon="8.0547091"><ele>210.5</ele><time>2026-04-18T17:10:07.238Z</time></trkpt><trkpt lat="44.9744239" lon="8.0545341"><ele>209.0</ele><time>2026-04-18T17:10:08.238Z</time></trkpt><trkpt lat="44.9744265" lon="8.0542866"><ele>209.0</ele><time>2026-04-18T17:10:09.238Z</time></trkpt><trkpt lat="44.9743735" lon="8.0540262"><ele>209.0</ele><time>2026-04-18T17:10:10.239Z</time></trkpt><trkpt lat="44.974394" lon="8.0537975"><ele>209.0</ele><time>2026-04-18T17:10:11.239Z</time></trkpt><trkpt lat="44.9743368" lon="8.0536128"><ele>209.0</ele><time>2026-04-18T17:10:12.238Z</time></trkpt><trkpt lat="44.974298" lon="8.0534371"><ele>209.0</ele><time>2026-04-18T17:10:13.238Z</time></trkpt><trkpt lat="44.9741954" lon="8.0533088"><ele>209.0</ele><time>2026-04-18T17:10:14.239Z</time></trkpt><trkpt lat="44.9740644" lon="8.0531511"><ele>209.0</ele><time>2026-04-18T17:10:15.239Z</time></trkpt><trkpt lat="44.973934" lon="8.0529899"><ele>212.75</ele><time>2026-04-18T17:10:16.239Z</time></trkpt><trkpt lat="44.973816" lon="8.0528293"><ele>216.5</ele><time>2026-04-18T17:10:17.239Z</time></trkpt><trkpt lat="44.9737362" lon="8.0526969"><ele>220.25</ele><time>2026-04-18T17:10:18.238Z</time></trkpt><trkpt lat="44.9736585" lon="8.0525265"><ele>224.0</ele><time>2026-04-18T17:10:19.238Z</time></trkpt><trkpt lat="44.9735874" lon="8.0523333"><ele>224.0</ele><time>2026-04-18T17:10:20.238Z</time></trkpt><trkpt lat="44.9735387" lon="8.0521453"><ele>224.0</ele><time>2026-04-18T17:10:21.238Z</time></trkpt><trkpt lat="44.9734416" lon="8.0519473"><ele>224.0</ele><time>2026-04-18T17:10:22.238Z</time></trkpt><trkpt lat="44.9733667" lon="8.0517504"><ele>229.66666666666669</ele><time>2026-04-18T17:10:23.238Z</time></trkpt><trkpt lat="44.9732614" lon="8.0515478"><ele>235.33333333333331</ele><time>2026-04-18T17:10:24.238Z</time></trkpt><trkpt lat="44.9732287" lon="8.0513378"><ele>241.0</ele><time>2026-04-18T17:10:25.238Z</time></trkpt><trkpt lat="44.9731576" lon="8.0511802"><ele>241.0</ele><time>2026-04-18T17:10:26.238Z</time></trkpt><trkpt lat="44.9731011" lon="8.0510188"><ele>241.00000000000003</ele><time>2026-04-18T17:10:27.238Z</time></trkpt><trkpt lat="44.9730382" lon="8.050879"><ele>241.00000000000003</ele><time>2026-04-18T17:10:28.239Z</time></trkpt><trkpt lat="44.9730415" lon="8.0507452"><ele>241.0</ele><time>2026-04-18T17:10:29.238Z</time></trkpt><trkpt lat="44.9730373" lon="8.0505909"><ele>241.0</ele><time>2026-04-18T17:10:30.238Z</time></trkpt><trkpt lat="44.9730958" lon="8.0504379"><ele>241.60000000000002</ele><time>2026-04-18T17:10:31.238Z</time></trkpt><trkpt lat="44.9731214" lon="8.0502885"><ele>242.20000000000002</ele><time>2026-04-18T17:10:32.238Z</time></trkpt><trkpt lat="44.9731515" lon="8.0501188"><ele>242.79999999999998</ele><time>2026-04-18T17:10:33.239Z</time></trkpt><trkpt lat="44.9731732" lon="8.049988"><ele>243.39999999999998</ele><time>2026-04-18T17:10:34.238Z</time></trkpt><trkpt lat="44.9731568" lon="8.049859"><ele>244.0</ele><time>2026-04-18T17:10:35.238Z</time></trkpt><trkpt lat="44.9731527" lon="8.0497334"><ele>245.75</ele><time>2026-04-18T17:10:36.238Z</time></trkpt><trkpt lat="44.9731932" lon="8.0496181"><ele>247.5</ele><time>2026-04-18T17:10:37.238Z</time></trkpt><trkpt lat="44.973236" lon="8.0494696"><ele>249.25</ele><time>2026-04-18T17:10:38.238Z</time></trkpt><trkpt lat="44.9732897" lon="8.0492954"><ele>251.0</ele><time>2026-04-18T17:10:39.238Z</time></trkpt><trkpt lat="44.9733477" lon="8.0491506"><ele>251.0</ele><time>2026-04-18T17:10:40.238Z</time></trkpt><trkpt lat="44.9734172" lon="8.0489743"><ele>251.0</ele><time>2026-04-18T17:10:41.238Z</time></trkpt><trkpt lat="44.973502" lon="8.0488035"><ele>251.0</ele><time>2026-04-18T17:10:42.239Z</time></trkpt><trkpt lat="44.9735595" lon="8.0486687"><ele>251.0</ele><time>2026-04-18T17:10:43.238Z</time></trkpt><trkpt lat="44.9736164" lon="8.048512"><ele>251.0</ele><time>2026-04-18T17:10:44.239Z</time></trkpt><trkpt lat="44.9736572" lon="8.0483779"><ele>251.00000000000003</ele><time>2026-04-18T17:10:45.238Z</time></trkpt><trkpt lat="44.973671" lon="8.048214"><ele>251.00000000000003</ele><time>2026-04-18T17:10:46.238Z</time></trkpt><trkpt lat="44.9736501" lon="8.0480899"><ele>251.0</ele><time>2026-04-18T17:10:47.238Z</time></trkpt><trkpt lat="44.9736064" lon="8.047966"><ele>251.0</ele><time>2026-04-18T17:10:48.238Z</time></trkpt><trkpt lat="44.9735529" lon="8.0478614"><ele>252.60000000000002</ele><time>2026-04-18T17:10:49.238Z</time></trkpt><trkpt lat="44.9734885" lon="8.0477683"><ele>254.20000000000002</ele><time>2026-04-18T17:10:50.239Z</time></trkpt><trkpt lat="44.9734154" lon="8.0476868"><ele>255.79999999999998</ele><time>2026-04-18T17:10:51.239Z</time></trkpt><trkpt lat="44.9733406" lon="8.0476286"><ele>257.4</ele><time>2026-04-18T17:10:52.238Z</time></trkpt><trkpt lat="44.9732536" lon="8.0475851"><ele>259.0</ele><time>2026-04-18T17:10:53.239Z</time></trkpt><trkpt lat="44.9731604" lon="8.0475622"><ele>259.0</ele><time>2026-04-18T17:10:54.238Z</time></trkpt><trkpt lat="44.9730543" lon="8.0475394"><ele>259.0</ele><time>2026-04-18T17:10:55.238Z</time></trkpt><trkpt lat="44.9729399" lon="8.0474847"><ele>259.0</ele><time>2026-04-18T17:10:56.239Z</time></trkpt><trkpt lat="44.9728212" lon="8.0474359"><ele>259.0</ele><time>2026-04-18T17:10:57.238Z</time></trkpt><trkpt lat="44.9727014" lon="8.0473745"><ele>258.75</ele><time>2026-04-18T17:10:58.238Z</time></trkpt><trkpt lat="44.9725839" lon="8.0473192"><ele>258.5</ele><time>2026-04-18T17:10:59.239Z</time></trkpt><trkpt lat="44.9724494" lon="8.0472659"><ele>258.25</ele><time>2026-04-18T17:11:00.238Z</time></trkpt><trkpt lat="44.9722815" lon="8.0472369"><ele>258.0</ele><time>2026-04-18T17:11:01.238Z</time></trkpt><trkpt lat="44.9721443" lon="8.0472013"><ele>260.5</ele><time>2026-04-18T17:11:02.238Z</time></trkpt><trkpt lat="44.9720194" lon="8.0471571"><ele>263.0</ele><time>2026-04-18T17:11:03.238Z</time></trkpt><trkpt lat="44.971876" lon="8.0471515"><ele>265.5</ele><time>2026-04-18T17:11:04.238Z</time></trkpt><trkpt lat="44.9717403" lon="8.0471226"><ele>268.0</ele><time>2026-04-18T17:11:05.238Z</time></trkpt><trkpt lat="44.9715883" lon="8.0470738"><ele>268.75</ele><time>2026-04-18T17:11:06.239Z</time></trkpt><trkpt lat="44.9714768" lon="8.0470088"><ele>269.5</ele><time>2026-04-18T17:11:07.238Z</time></trkpt><trkpt lat="44.9713353" lon="8.0469814"><ele>270.25</ele><time>2026-04-18T17:11:08.238Z</time></trkpt><trkpt lat="44.9712102" lon="8.0469527"><ele>271.0</ele><time>2026-04-18T17:11:09.238Z</time></trkpt><trkpt lat="44.9710288" lon="8.0468818"><ele>271.0</ele><time>2026-04-18T17:11:10.238Z</time></trkpt><trkpt lat="44.9708599" lon="8.0468227"><ele>271.0</ele><time>2026-04-18T17:11:11.238Z</time></trkpt><trkpt lat="44.9706955" lon="8.0467879"><ele>271.0</ele><time>2026-04-18T17:11:12.238Z</time></trkpt><trkpt lat="44.9705552" lon="8.0467324"><ele>270.3333333333333</ele><time>2026-04-18T17:11:13.238Z</time></trkpt><trkpt lat="44.9703975" lon="8.0466799"><ele>269.6666666666667</ele><time>2026-04-18T17:11:14.239Z</time></trkpt><trkpt lat="44.9702255" lon="8.0466733"><ele>269.0</ele><time>2026-04-18T17:11:15.239Z</time></trkpt><trkpt lat="44.9700632" lon="8.0466061"><ele>269.5</ele><time>2026-04-18T17:11:16.238Z</time></trkpt><trkpt lat="44.9699192" lon="8.0465238"><ele>270.0</ele><time>2026-04-18T17:11:17.238Z</time></trkpt><trkpt lat="44.9697845" lon="8.0464313"><ele>270.5</ele><time>2026-04-18T17:11:18.238Z</time></trkpt><trkpt lat="44.9696572" lon="8.0463689"><ele>271.0</ele><time>2026-04-18T17:11:19.239Z</time></trkpt><trkpt lat="44.9695377" lon="8.0462974"><ele>271.0</ele><time>2026-04-18T17:11:20.239Z</time></trkpt><trkpt lat="44.9694126" lon="8.0462304"><ele>271.0</ele><time>2026-04-18T17:11:21.239Z</time></trkpt><trkpt lat="44.9692929" lon="8.0461503"><ele>271.0</ele><time>2026-04-18T17:11:22.238Z</time></trkpt><trkpt lat="44.9691816" lon="8.0460503"><ele>271.0</ele><time>2026-04-18T17:11:23.239Z</time></trkpt><trkpt lat="44.9690894" lon="8.0459132"><ele>271.25</ele><time>2026-04-18T17:11:24.238Z</time></trkpt><trkpt lat="44.9689958" lon="8.045759"><ele>271.5</ele><time>2026-04-18T17:11:25.238Z</time></trkpt><trkpt lat="44.9689038" lon="8.0456085"><ele>271.75</ele><time>2026-04-18T17:11:26.239Z</time></trkpt><trkpt lat="44.9688191" lon="8.0454373"><ele>272.0</ele><time>2026-04-18T17:11:27.239Z</time></trkpt><trkpt lat="44.968765" lon="8.0451911"><ele>270.0</ele><time>2026-04-18T17:11:28.239Z</time></trkpt><trkpt lat="44.9686804" lon="8.0449534"><ele>268.0</ele><time>2026-04-18T17:11:29.238Z</time></trkpt><trkpt lat="44.9686325" lon="8.0448164"><ele>266.0</ele><time>2026-04-18T17:11:30.239Z</time></trkpt><trkpt lat="44.96855" lon="8.0446655"><ele>264.0</ele><time>2026-04-18T17:11:31.238Z</time></trkpt><trkpt lat="44.9684383" lon="8.0445232"><ele>264.3333333333333</ele><time>2026-04-18T17:11:32.239Z</time></trkpt><trkpt lat="44.9683126" lon="8.0443626"><ele>264.66666666666663</ele><time>2026-04-18T17:11:33.238Z</time></trkpt><trkpt lat="44.9681808" lon="8.044207"><ele>265.0</ele><time>2026-04-18T17:11:34.238Z</time></trkpt><trkpt lat="44.9681013" lon="8.0440506"><ele>265.3333333333333</ele><time>2026-04-18T17:11:35.238Z</time></trkpt><trkpt lat="44.9679631" lon="8.0439254"><ele>265.6666666666667</ele><time>2026-04-18T17:11:36.238Z</time></trkpt><trkpt lat="44.9678256" lon="8.0437973"><ele>266.0</ele><time>2026-04-18T17:11:37.238Z</time></trkpt><trkpt lat="44.9676957" lon="8.043666"><ele>266.0</ele><time>2026-04-18T17:11:38.238Z</time></trkpt><trkpt lat="44.9675794" lon="8.0434994"><ele>266.0</ele><time>2026-04-18T17:11:39.238Z</time></trkpt><trkpt lat="44.9674601" lon="8.0433763"><ele>266.0</ele><time>2026-04-18T17:11:40.238Z</time></trkpt><trkpt lat="44.9673351" lon="8.0432479"><ele>263.0</ele><time>2026-04-18T17:11:41.239Z</time></trkpt><trkpt lat="44.9672117" lon="8.0431098"><ele>260.0</ele><time>2026-04-18T17:11:42.238Z</time></trkpt><trkpt lat="44.9670898" lon="8.0429794"><ele>257.0</ele><time>2026-04-18T17:11:43.238Z</time></trkpt><trkpt lat="44.9669673" lon="8.0428369"><ele>257.0</ele><time>2026-04-18T17:11:44.238Z</time></trkpt><trkpt lat="44.9668349" lon="8.0426957"><ele>257.0</ele><time>2026-04-18T17:11:45.239Z</time></trkpt><trkpt lat="44.9667222" lon="8.0425334"><ele>257.0</ele><time>2026-04-18T17:11:46.238Z</time></trkpt><trkpt lat="44.966597" lon="8.0423847"><ele>257.6666666666667</ele><time>2026-04-18T17:11:47.238Z</time></trkpt><trkpt lat="44.9664707" lon="8.0422431"><ele>258.3333333333333</ele><time>2026-04-18T17:11:48.238Z</time></trkpt><trkpt lat="44.9663438" lon="8.0421044"><ele>259.0</ele><time>2026-04-18T17:11:49.238Z</time></trkpt><trkpt lat="44.966207" lon="8.0419694"><ele>259.0</ele><time>2026-04-18T17:11:50.239Z</time></trkpt><trkpt lat="44.9660934" lon="8.0418483"><ele>259.0</ele><time>2026-04-18T17:11:51.238Z</time></trkpt><trkpt lat="44.9659299" lon="8.041737"><ele>259.0</ele><time>2026-04-18T17:11:52.238Z</time></trkpt><trkpt lat="44.9657876" lon="8.0416268"><ele>261.5</ele><time>2026-04-18T17:11:53.239Z</time></trkpt><trkpt lat="44.9656501" lon="8.0415055"><ele>264.0</ele><time>2026-04-18T17:11:54.238Z</time></trkpt><trkpt lat="44.965534" lon="8.0414095"><ele>266.5</ele><time>2026-04-18T17:11:55.238Z</time></trkpt><trkpt lat="44.9654178" lon="8.041318"><ele>269.0</ele><time>2026-04-18T17:11:56.238Z</time></trkpt><trkpt lat="44.9652904" lon="8.0412118"><ele>269.0</ele><time>2026-04-18T17:11:57.238Z</time></trkpt><trkpt lat="44.9651924" lon="8.0411242"><ele>269.0</ele><time>2026-04-18T17:11:58.238Z</time></trkpt><trkpt lat="44.9651147" lon="8.0410158"><ele>269.0</ele><time>2026-04-18T17:11:59.239Z</time></trkpt><trkpt lat="44.9650393" lon="8.040899"><ele>269.0</ele><time>2026-04-18T17:12:00.239Z</time></trkpt><trkpt lat="44.9649595" lon="8.0407752"><ele>268.25</ele><time>2026-04-18T17:12:01.238Z</time></trkpt><trkpt lat="44.9648763" lon="8.0406606"><ele>267.5</ele><time>2026-04-18T17:12:02.238Z</time></trkpt><trkpt lat="44.9647966" lon="8.0405333"><ele>266.75</ele><time>2026-04-18T17:12:03.239Z</time></trkpt><trkpt lat="44.9647318" lon="8.0404002"><ele>266.0</ele><time>2026-04-18T17:12:04.239Z</time></trkpt><trkpt lat="44.96467" lon="8.0402562"><ele>266.0</ele><time>2026-04-18T17:12:05.238Z</time></trkpt><trkpt lat="44.9646459" lon="8.0401217"><ele>266.0</ele><time>2026-04-18T17:12:06.238Z</time></trkpt><trkpt lat="44.9646325" lon="8.0399254"><ele>266.0</ele><time>2026-04-18T17:12:07.238Z</time></trkpt><trkpt lat="44.9646277" lon="8.0397979"><ele>266.0</ele><time>2026-04-18T17:12:08.238Z</time></trkpt><trkpt lat="44.9646192" lon="8.0396583"><ele>266.0</ele><time>2026-04-18T17:12:09.238Z</time></trkpt><trkpt lat="44.9646792" lon="8.0395084"><ele>265.0</ele><time>2026-04-18T17:12:10.238Z</time></trkpt><trkpt lat="44.9647109" lon="8.0393666"><ele>264.0</ele><time>2026-04-18T17:12:11.239Z</time></trkpt><trkpt lat="44.9647526" lon="8.0392274"><ele>263.0</ele><time>2026-04-18T17:12:12.238Z</time></trkpt><trkpt lat="44.9647925" lon="8.0391049"><ele>262.0</ele><time>2026-04-18T17:12:13.238Z</time></trkpt><trkpt lat="44.9648413" lon="8.0389505"><ele>261.0</ele><time>2026-04-18T17:12:14.238Z</time></trkpt><trkpt lat="44.9648654" lon="8.0388532"><ele>261.0</ele><time>2026-04-18T17:12:15.238Z</time></trkpt><trkpt lat="44.9648708" lon="8.0387556"><ele>261.0</ele><time>2026-04-18T17:12:16.238Z</time></trkpt><trkpt lat="44.9647932" lon="8.0386261"><ele>261.0</ele><time>2026-04-18T17:12:17.238Z</time></trkpt><trkpt lat="44.9647346" lon="8.0385311"><ele>261.0</ele><time>2026-04-18T17:12:18.238Z</time></trkpt><trkpt lat="44.9646562" lon="8.0384157"><ele>261.0</ele><time>2026-04-18T17:12:19.239Z</time></trkpt><trkpt lat="44.9645575" lon="8.0383006"><ele>261.75</ele><time>2026-04-18T17:12:20.238Z</time></trkpt><trkpt lat="44.9644468" lon="8.0381667"><ele>262.5</ele><time>2026-04-18T17:12:21.238Z</time></trkpt><trkpt lat="44.9643332" lon="8.0380598"><ele>263.25</ele><time>2026-04-18T17:12:22.239Z</time></trkpt><trkpt lat="44.9642096" lon="8.0379678"><ele>264.0</ele><time>2026-04-18T17:12:23.238Z</time></trkpt><trkpt lat="44.9641027" lon="8.0378902"><ele>262.5</ele><time>2026-04-18T17:12:24.239Z</time></trkpt><trkpt lat="44.9639612" lon="8.0378145"><ele>261.0</ele><time>2026-04-18T17:12:25.238Z</time></trkpt><trkpt lat="44.963857" lon="8.0377698"><ele>259.5</ele><time>2026-04-18T17:12:26.238Z</time></trkpt><trkpt lat="44.9637252" lon="8.0376938"><ele>258.0</ele><time>2026-04-18T17:12:27.239Z</time></trkpt><trkpt lat="44.963622" lon="8.0376703"><ele>258.0</ele><time>2026-04-18T17:12:28.238Z</time></trkpt><trkpt lat="44.9635617" lon="8.0376363"><ele>258.0</ele><time>2026-04-18T17:12:29.238Z</time></trkpt><trkpt lat="44.9634451" lon="8.0375657"><ele>258.0</ele><time>2026-04-18T17:12:30.238Z</time></trkpt><trkpt lat="44.9633768" lon="8.0375224"><ele>258.0</ele><time>2026-04-18T17:12:31.238Z</time></trkpt><trkpt lat="44.9632132" lon="8.0374776"><ele>258.0</ele><time>2026-04-18T17:12:33.238Z</time></trkpt><trkpt lat="44.9631263" lon="8.0374634"><ele>257.6</ele><time>2026-04-18T17:12:34.238Z</time></trkpt><trkpt lat="44.96306" lon="8.0374591"><ele>257.20000000000005</ele><time>2026-04-18T17:12:35.239Z</time></trkpt><trkpt lat="44.9629233" lon="8.0374606"><ele>256.8</ele><time>2026-04-18T17:12:37.238Z</time></trkpt><trkpt lat="44.9628439" lon="8.0374557"><ele>256.40000000000003</ele><time>2026-04-18T17:12:38.238Z</time></trkpt><trkpt lat="44.9627643" lon="8.0374627"><ele>256.0</ele><time>2026-04-18T17:12:39.238Z</time></trkpt><trkpt lat="44.9626705" lon="8.0374827"><ele>254.0</ele><time>2026-04-18T17:12:40.238Z</time></trkpt><trkpt lat="44.9625046" lon="8.0375053"><ele>252.0</ele><time>2026-04-18T17:12:41.238Z</time></trkpt><trkpt lat="44.9623515" lon="8.0375269"><ele>250.0</ele><time>2026-04-18T17:12:42.238Z</time></trkpt><trkpt lat="44.9622397" lon="8.0375495"><ele>248.0</ele><time>2026-04-18T17:12:43.238Z</time></trkpt><trkpt lat="44.9620951" lon="8.0375648"><ele>248.0</ele><time>2026-04-18T17:12:44.238Z</time></trkpt><trkpt lat="44.9619649" lon="8.0375752"><ele>248.0</ele><time>2026-04-18T17:12:45.238Z</time></trkpt><trkpt lat="44.9618343" lon="8.0375776"><ele>248.0</ele><time>2026-04-18T17:12:46.238Z</time></trkpt><trkpt lat="44.9617042" lon="8.037599"><ele>248.0</ele><time>2026-04-18T17:12:47.238Z</time></trkpt><trkpt lat="44.9615674" lon="8.0376087"><ele>247.0</ele><time>2026-04-18T17:12:48.238Z</time></trkpt><trkpt lat="44.9614247" lon="8.0376044"><ele>246.0</ele><time>2026-04-18T17:12:49.238Z</time></trkpt><trkpt lat="44.9612742" lon="8.0375627"><ele>245.0</ele><time>2026-04-18T17:12:50.238Z</time></trkpt><trkpt lat="44.9611288" lon="8.0375813"><ele>244.0</ele><time>2026-04-18T17:12:51.238Z</time></trkpt><trkpt lat="44.9609629" lon="8.0375877"><ele>245.25</ele><time>2026-04-18T17:12:52.239Z</time></trkpt><trkpt lat="44.9608156" lon="8.0376026"><ele>246.5</ele><time>2026-04-18T17:12:53.239Z</time></trkpt><trkpt lat="44.9606739" lon="8.0376246"><ele>247.75</ele><time>2026-04-18T17:12:54.238Z</time></trkpt><trkpt lat="44.9605398" lon="8.0376404"><ele>249.0</ele><time>2026-04-18T17:12:55.238Z</time></trkpt><trkpt lat="44.9603633" lon="8.0376282"><ele>249.0</ele><time>2026-04-18T17:12:56.239Z</time></trkpt><trkpt lat="44.9601987" lon="8.0375943"><ele>249.0</ele><time>2026-04-18T17:12:57.238Z</time></trkpt><trkpt lat="44.9600187" lon="8.0375527"><ele>249.0</ele><time>2026-04-18T17:12:58.238Z</time></trkpt><trkpt lat="44.9598574" lon="8.0375049"><ele>251.0</ele><time>2026-04-18T17:12:59.239Z</time></trkpt><trkpt lat="44.9597113" lon="8.0374617"><ele>253.0</ele><time>2026-04-18T17:13:00.239Z</time></trkpt><trkpt lat="44.9595771" lon="8.0374354"><ele>255.0</ele><time>2026-04-18T17:13:01.238Z</time></trkpt><trkpt lat="44.9594365" lon="8.0373755"><ele>257.0</ele><time>2026-04-18T17:13:02.238Z</time></trkpt><trkpt lat="44.9592778" lon="8.0373372"><ele>256.33333333333337</ele><time>2026-04-18T17:13:03.238Z</time></trkpt><trkpt lat="44.9591152" lon="8.0372846"><ele>255.66666666666669</ele><time>2026-04-18T17:13:04.238Z</time></trkpt><trkpt lat="44.9589724" lon="8.0372403"><ele>255.0</ele><time>2026-04-18T17:13:05.238Z</time></trkpt><trkpt lat="44.9587958" lon="8.0371928"><ele>255.0</ele><time>2026-04-18T17:13:06.238Z</time></trkpt><trkpt lat="44.9586389" lon="8.0371365"><ele>255.0</ele><time>2026-04-18T17:13:07.238Z</time></trkpt><trkpt lat="44.9584887" lon="8.0370879"><ele>255.0</ele><time>2026-04-18T17:13:08.239Z</time></trkpt><trkpt lat="44.9583156" lon="8.0370126"><ele>251.33333333333331</ele><time>2026-04-18T17:13:09.238Z</time></trkpt><trkpt lat="44.9581664" lon="8.0369877"><ele>247.66666666666666</ele><time>2026-04-18T17:13:10.238Z</time></trkpt><trkpt lat="44.9580182" lon="8.0369375"><ele>244.0</ele><time>2026-04-18T17:13:11.239Z</time></trkpt><trkpt lat="44.9578682" lon="8.0368997"><ele>244.0</ele><time>2026-04-18T17:13:12.239Z</time></trkpt><trkpt lat="44.9577285" lon="8.0368376"><ele>244.0</ele><time>2026-04-18T17:13:13.239Z</time></trkpt><trkpt lat="44.957602" lon="8.0367556"><ele>244.0</ele><time>2026-04-18T17:13:14.238Z</time></trkpt><trkpt lat="44.9574817" lon="8.0366783"><ele>244.0</ele><time>2026-04-18T17:13:15.238Z</time></trkpt><trkpt lat="44.9573539" lon="8.0365668"><ele>241.25</ele><time>2026-04-18T17:13:16.238Z</time></trkpt><trkpt lat="44.9572411" lon="8.0364328"><ele>238.5</ele><time>2026-04-18T17:13:17.239Z</time></trkpt><trkpt lat="44.9571361" lon="8.0363051"><ele>235.75</ele><time>2026-04-18T17:13:18.238Z</time></trkpt><trkpt lat="44.9570229" lon="8.0361911"><ele>233.0</ele><time>2026-04-18T17:13:19.239Z</time></trkpt><trkpt lat="44.9569211" lon="8.036062"><ele>233.0</ele><time>2026-04-18T17:13:20.239Z</time></trkpt><trkpt lat="44.9568146" lon="8.035939"><ele>233.0</ele><time>2026-04-18T17:13:21.239Z</time></trkpt><trkpt lat="44.9567203" lon="8.035848"><ele>233.0</ele><time>2026-04-18T17:13:22.239Z</time></trkpt><trkpt lat="44.9566509" lon="8.0357663"><ele>233.0</ele><time>2026-04-18T17:13:23.238Z</time></trkpt><trkpt lat="44.9565859" lon="8.0357159"><ele>233.0</ele><time>2026-04-18T17:13:24.239Z</time></trkpt><trkpt lat="44.9565071" lon="8.0356919"><ele>232.4</ele><time>2026-04-18T17:13:25.239Z</time></trkpt><trkpt lat="44.956416" lon="8.035696"><ele>231.8</ele><time>2026-04-18T17:13:26.239Z</time></trkpt><trkpt lat="44.9563112" lon="8.0357376"><ele>231.2</ele><time>2026-04-18T17:13:27.238Z</time></trkpt><trkpt lat="44.9562043" lon="8.0357803"><ele>230.6</ele><time>2026-04-18T17:13:28.239Z</time></trkpt><trkpt lat="44.9561015" lon="8.0358701"><ele>230.0</ele><time>2026-04-18T17:13:29.238Z</time></trkpt><trkpt lat="44.9559913" lon="8.0359559"><ele>230.6</ele><time>2026-04-18T17:13:30.238Z</time></trkpt><trkpt lat="44.95588" lon="8.0360365"><ele>231.2</ele><time>2026-04-18T17:13:31.238Z</time></trkpt><trkpt lat="44.9557753" lon="8.0361028"><ele>231.8</ele><time>2026-04-18T17:13:32.239Z</time></trkpt><trkpt lat="44.9556738" lon="8.0361192"><ele>232.4</ele><time>2026-04-18T17:13:33.238Z</time></trkpt><trkpt lat="44.9555786" lon="8.0361294"><ele>233.0</ele><time>2026-04-18T17:13:34.238Z</time></trkpt><trkpt lat="44.9554519" lon="8.0361553"><ele>233.0</ele><time>2026-04-18T17:13:35.238Z</time></trkpt><trkpt lat="44.9553387" lon="8.0361053"><ele>233.0</ele><time>2026-04-18T17:13:36.238Z</time></trkpt><trkpt lat="44.955214" lon="8.0360389"><ele>233.0</ele><time>2026-04-18T17:13:37.238Z</time></trkpt><trkpt lat="44.9551084" lon="8.0359788"><ele>233.0</ele><time>2026-04-18T17:13:38.238Z</time></trkpt><trkpt lat="44.9549967" lon="8.0359181"><ele>231.60000000000002</ele><time>2026-04-18T17:13:39.238Z</time></trkpt><trkpt lat="44.9548803" lon="8.0358535"><ele>230.20000000000002</ele><time>2026-04-18T17:13:40.238Z</time></trkpt><trkpt lat="44.9547547" lon="8.035778"><ele>228.8</ele><time>2026-04-18T17:13:41.238Z</time></trkpt><trkpt lat="44.9546518" lon="8.035765"><ele>227.4</ele><time>2026-04-18T17:13:42.238Z</time></trkpt><trkpt lat="44.954583" lon="8.0357881"><ele>226.0</ele><time>2026-04-18T17:13:43.238Z</time></trkpt><trkpt lat="44.9545208" lon="8.0358623"><ele>226.0</ele><time>2026-04-18T17:13:44.239Z</time></trkpt><trkpt lat="44.9543658" lon="8.0359562"><ele>226.0</ele><time>2026-04-18T17:13:45.239Z</time></trkpt><trkpt lat="44.9542097" lon="8.0360673"><ele>226.0</ele><time>2026-04-18T17:13:46.238Z</time></trkpt><trkpt lat="44.9540848" lon="8.036149"><ele>223.0</ele><time>2026-04-18T17:13:47.239Z</time></trkpt><trkpt lat="44.9539545" lon="8.0362206"><ele>220.0</ele><time>2026-04-18T17:13:48.238Z</time></trkpt><trkpt lat="44.9538244" lon="8.0362914"><ele>217.0</ele><time>2026-04-18T17:13:49.238Z</time></trkpt><trkpt lat="44.9536945" lon="8.0363692"><ele>214.0</ele><time>2026-04-18T17:13:50.238Z</time></trkpt><trkpt lat="44.953571" lon="8.0364274"><ele>214.0</ele><time>2026-04-18T17:13:51.238Z</time></trkpt><trkpt lat="44.9534458" lon="8.0364802"><ele>214.0</ele><time>2026-04-18T17:13:52.238Z</time></trkpt><trkpt lat="44.953308" lon="8.0365447"><ele>214.0</ele><time>2026-04-18T17:13:53.238Z</time></trkpt><trkpt lat="44.9531883" lon="8.0365909"><ele>214.0</ele><time>2026-04-18T17:13:54.238Z</time></trkpt><trkpt lat="44.9530658" lon="8.0366239"><ele>214.0</ele><time>2026-04-18T17:13:55.238Z</time></trkpt><trkpt lat="44.9529545" lon="8.0366599"><ele>213.99999999999997</ele><time>2026-04-18T17:13:56.238Z</time></trkpt><trkpt lat="44.9528456" lon="8.0367055"><ele>213.99999999999997</ele><time>2026-04-18T17:13:57.238Z</time></trkpt><trkpt lat="44.9527471" lon="8.0367591"><ele>214.0</ele><time>2026-04-18T17:13:58.239Z</time></trkpt><trkpt lat="44.9526554" lon="8.0368129"><ele>214.0</ele><time>2026-04-18T17:13:59.238Z</time></trkpt><trkpt lat="44.9525707" lon="8.0368663"><ele>211.39999999999998</ele><time>2026-04-18T17:14:00.239Z</time></trkpt><trkpt lat="44.9524684" lon="8.036835"><ele>208.79999999999998</ele><time>2026-04-18T17:14:02.238Z</time></trkpt><trkpt lat="44.9524286" lon="8.0366789"><ele>206.2</ele><time>2026-04-18T17:14:03.238Z</time></trkpt><trkpt lat="44.9523798" lon="8.0365991"><ele>203.60000000000002</ele><time>2026-04-18T17:14:04.238Z</time></trkpt><trkpt lat="44.9523391" lon="8.0364919"><ele>201.0</ele><time>2026-04-18T17:14:05.238Z</time></trkpt><trkpt lat="44.9522934" lon="8.0364043"><ele>201.0</ele><time>2026-04-18T17:14:06.239Z</time></trkpt><trkpt lat="44.9522416" lon="8.0363313"><ele>201.0</ele><time>2026-04-18T17:14:07.238Z</time></trkpt><trkpt lat="44.9521459" lon="8.036208"><ele>201.0</ele><time>2026-04-18T17:14:09.238Z</time></trkpt><trkpt lat="44.9520834" lon="8.0361867"><ele>201.0</ele><time>2026-04-18T17:14:10.239Z</time></trkpt><trkpt lat="44.9520123" lon="8.0361668"><ele>201.0</ele><time>2026-04-18T17:14:11.238Z</time></trkpt><trkpt lat="44.9519256" lon="8.0361624"><ele>201.0</ele><time>2026-04-18T17:14:12.238Z</time></trkpt><trkpt lat="44.951773" lon="8.0361093"><ele>198.25</ele><time>2026-04-18T17:14:14.238Z</time></trkpt><trkpt lat="44.9516812" lon="8.0360389"><ele>195.5</ele><time>2026-04-18T17:14:15.239Z</time></trkpt><trkpt lat="44.9516116" lon="8.0358582"><ele>192.75</ele><time>2026-04-18T17:14:16.238Z</time></trkpt><trkpt lat="44.9515257" lon="8.0357378"><ele>190.0</ele><time>2026-04-18T17:14:17.238Z</time></trkpt><trkpt lat="44.9514469" lon="8.0356222"><ele>189.4</ele><time>2026-04-18T17:14:18.238Z</time></trkpt><trkpt lat="44.9513905" lon="8.0355436"><ele>188.8</ele><time>2026-04-18T17:14:19.238Z</time></trkpt><trkpt lat="44.9513113" lon="8.0354123"><ele>188.2</ele><time>2026-04-18T17:14:20.239Z</time></trkpt><trkpt lat="44.9512205" lon="8.0352991"><ele>187.6</ele><time>2026-04-18T17:14:21.238Z</time></trkpt><trkpt lat="44.951146" lon="8.0351939"><ele>187.0</ele><time>2026-04-18T17:14:22.238Z</time></trkpt><trkpt lat="44.9510594" lon="8.0350943"><ele>187.0</ele><time>2026-04-18T17:14:23.238Z</time></trkpt><trkpt lat="44.9509739" lon="8.0349974"><ele>187.0</ele><time>2026-04-18T17:14:24.239Z</time></trkpt><trkpt lat="44.9508989" lon="8.0349126"><ele>187.0</ele><time>2026-04-18T17:14:25.239Z</time></trkpt><trkpt lat="44.9508182" lon="8.0348296"><ele>187.0</ele><time>2026-04-18T17:14:26.238Z</time></trkpt><trkpt lat="44.9507286" lon="8.034731"><ele>187.0</ele><time>2026-04-18T17:14:27.239Z</time></trkpt><trkpt lat="44.9506464" lon="8.0346312"><ele>189.0</ele><time>2026-04-18T17:14:28.238Z</time></trkpt><trkpt lat="44.9505597" lon="8.0345206"><ele>191.0</ele><time>2026-04-18T17:14:29.238Z</time></trkpt><trkpt lat="44.9504731" lon="8.0343969"><ele>193.0</ele><time>2026-04-18T17:14:30.238Z</time></trkpt><trkpt lat="44.9503917" lon="8.0342605"><ele>195.0</ele><time>2026-04-18T17:14:31.239Z</time></trkpt><trkpt lat="44.9503279" lon="8.0340998"><ele>197.5</ele><time>2026-04-18T17:14:32.238Z</time></trkpt><trkpt lat="44.95027" lon="8.0339248"><ele>200.0</ele><time>2026-04-18T17:14:33.238Z</time></trkpt><trkpt lat="44.9524286" lon="8.0366789"><ele>200.16666666666669</ele><time>2026-04-18T17:14:03.238Z</time></trkpt><trkpt lat="44.9523798" lon="8.0365991"><ele>200.33333333333334</ele><time>2026-04-18T17:14:04.238Z</time></trkpt><trkpt lat="44.9523391" lon="8.0364919"><ele>200.5</ele><time>2026-04-18T17:14:05.238Z</time></trkpt><trkpt lat="44.9522934" lon="8.0364043"><ele>200.66666666666669</ele><time>2026-04-18T17:14:06.239Z</time></trkpt><trkpt lat="44.9522416" lon="8.0363313"><ele>200.83333333333334</ele><time>2026-04-18T17:14:07.238Z</time></trkpt><trkpt lat="44.9521459" lon="8.036208"><ele>201.0</ele><time>2026-04-18T17:14:09.238Z</time></trkpt><trkpt lat="44.9520834" lon="8.0361867"><ele>201.0</ele><time>2026-04-18T17:14:10.239Z</time></trkpt><trkpt lat="44.9520123" lon="8.0361668"><ele>201.0</ele><time>2026-04-18T17:14:11.238Z</time></trkpt><trkpt lat="44.9519256" lon="8.0361624"><ele>201.0</ele><time>2026-04-18T17:14:12.238Z</time></trkpt><trkpt lat="44.951773" lon="8.0361093"><ele>201.0</ele><time>2026-04-18T17:14:14.238Z</time></trkpt><trkpt lat="44.9516812" lon="8.0360389"><ele>201.0</ele><time>2026-04-18T17:14:15.239Z</time></trkpt><trkpt lat="44.9516116" lon="8.0358582"><ele>198.20000000000002</ele><time>2026-04-18T17:14:16.238Z</time></trkpt><trkpt lat="44.9515257" lon="8.0357378"><ele>195.4</ele><time>2026-04-18T17:14:17.238Z</time></trkpt><trkpt lat="44.9514469" lon="8.0356222"><ele>192.6</ele><time>2026-04-18T17:14:18.238Z</time></trkpt><trkpt lat="44.9513905" lon="8.0355436"><ele>189.8</ele><time>2026-04-18T17:14:19.238Z</time></trkpt><trkpt lat="44.9513113" lon="8.0354123"><ele>187.0</ele><time>2026-04-18T17:14:20.239Z</time></trkpt><trkpt lat="44.9512205" lon="8.0352991"><ele>187.0</ele><time>2026-04-18T17:14:21.238Z</time></trkpt><trkpt lat="44.951146" lon="8.0351939"><ele>187.0</ele><time>2026-04-18T17:14:22.238Z</time></trkpt><trkpt lat="44.9510594" lon="8.0350943"><ele>187.0</ele><time>2026-04-18T17:14:23.238Z</time></trkpt><trkpt lat="44.9509739" lon="8.0349974"><ele>187.0</ele><time>2026-04-18T17:14:24.239Z</time></trkpt><trkpt lat="44.9508989" lon="8.0349126"><ele>187.0</ele><time>2026-04-18T17:14:25.239Z</time></trkpt><trkpt lat="44.9508182" lon="8.0348296"><ele>189.0</ele><time>2026-04-18T17:14:26.238Z</time></trkpt><trkpt lat="44.9507286" lon="8.034731"><ele>191.0</ele><time>2026-04-18T17:14:27.239Z</time></trkpt><trkpt lat="44.9506464" lon="8.0346312"><ele>193.0</ele><time>2026-04-18T17:14:28.238Z</time></trkpt><trkpt lat="44.9505597" lon="8.0345206"><ele>195.0</ele><time>2026-04-18T17:14:29.238Z</time></trkpt><trkpt lat="44.9504731" lon="8.0343969"><ele>195.0</ele><time>2026-04-18T17:14:30.238Z</time></trkpt><trkpt lat="44.9503917" lon="8.0342605"><ele>195.0</ele><time>2026-04-18T17:14:31.239Z</time></trkpt><trkpt lat="44.9503279" lon="8.0340998"><ele>195.0</ele><time>2026-04-18T17:14:32.238Z</time></trkpt><trkpt lat="44.95027" lon="8.0339248"><ele>195.0</ele><time>2026-04-18T17:14:33.238Z</time></trkpt><trkpt lat="44.9502202" lon="8.03375"><ele>198.75</ele><time>2026-04-18T17:14:34.238Z</time></trkpt><trkpt lat="44.9501685" lon="8.0335787"><ele>202.5</ele><time>2026-04-18T17:14:35.238Z</time></trkpt><trkpt lat="44.9501312" lon="8.0333658"><ele>206.25</ele><time>2026-04-18T17:14:36.238Z</time></trkpt><trkpt lat="44.9500836" lon="8.0331741"><ele>210.0</ele><time>2026-04-18T17:14:37.238Z</time></trkpt><trkpt lat="44.9500572" lon="8.032991"><ele>212.25</ele><time>2026-04-18T17:14:38.238Z</time></trkpt><trkpt lat="44.9500449" lon="8.0327845"><ele>214.5</ele><time>2026-04-18T17:14:39.238Z</time></trkpt><trkpt lat="44.9500548" lon="8.032591"><ele>216.75</ele><time>2026-04-18T17:14:40.238Z</time></trkpt><trkpt lat="44.9500824" lon="8.032398"><ele>219.0</ele><time>2026-04-18T17:14:41.239Z</time></trkpt><trkpt lat="44.9501156" lon="8.0322137"><ele>219.25</ele><time>2026-04-18T17:14:42.238Z</time></trkpt><trkpt lat="44.9501507" lon="8.0320373"><ele>219.5</ele><time>2026-04-18T17:14:43.238Z</time></trkpt><trkpt lat="44.9501937" lon="8.0318188"><ele>219.75</ele><time>2026-04-18T17:14:44.239Z</time></trkpt><trkpt lat="44.9502365" lon="8.0316189"><ele>220.0</ele><time>2026-04-18T17:14:45.238Z</time></trkpt><trkpt lat="44.9502827" lon="8.031425"><ele>220.0</ele><time>2026-04-18T17:14:46.238Z</time></trkpt><trkpt lat="44.9503278" lon="8.0312476"><ele>220.0</ele><time>2026-04-18T17:14:47.239Z</time></trkpt><trkpt lat="44.9503724" lon="8.0310655"><ele>220.0</ele><time>2026-04-18T17:14:48.238Z</time></trkpt><trkpt lat="44.9503603" lon="8.0308823"><ele>220.0</ele><time>2026-04-18T17:14:49.239Z</time></trkpt><trkpt lat="44.9503806" lon="8.0307042"><ele>220.75</ele><time>2026-04-18T17:14:50.238Z</time></trkpt><trkpt lat="44.950344" lon="8.0305441"><ele>221.5</ele><time>2026-04-18T17:14:51.238Z</time></trkpt><trkpt lat="44.9502345" lon="8.0303626"><ele>222.25</ele><time>2026-04-18T17:14:52.238Z</time></trkpt><trkpt lat="44.9501724" lon="8.0302138"><ele>223.0</ele><time>2026-04-18T17:14:53.239Z</time></trkpt><trkpt lat="44.9500941" lon="8.0300494"><ele>222.5</ele><time>2026-04-18T17:14:54.239Z</time></trkpt><trkpt lat="44.9500041" lon="8.0299084"><ele>222.0</ele><time>2026-04-18T17:14:55.238Z</time></trkpt><trkpt lat="44.9499014" lon="8.0297758"><ele>221.5</ele><time>2026-04-18T17:14:56.238Z</time></trkpt><trkpt lat="44.9497992" lon="8.0296288"><ele>221.0</ele><time>2026-04-18T17:14:57.239Z</time></trkpt><trkpt lat="44.9497191" lon="8.029488"><ele>221.0</ele><time>2026-04-18T17:14:58.238Z</time></trkpt><trkpt lat="44.9496386" lon="8.0293446"><ele>221.00000000000003</ele><time>2026-04-18T17:14:59.238Z</time></trkpt><trkpt lat="44.9495921" lon="8.0292459"><ele>221.00000000000003</ele><time>2026-04-18T17:15:00.238Z</time></trkpt><trkpt lat="44.9495672" lon="8.0291477"><ele>221.0</ele><time>2026-04-18T17:15:01.238Z</time></trkpt><trkpt lat="44.9495273" lon="8.0290147"><ele>221.0</ele><time>2026-04-18T17:15:02.238Z</time></trkpt><trkpt lat="44.949491" lon="8.0288938"><ele>224.33333333333334</ele><time>2026-04-18T17:15:03.239Z</time></trkpt><trkpt lat="44.9495782" lon="8.02871"><ele>227.66666666666669</ele><time>2026-04-18T17:15:04.238Z</time></trkpt><trkpt lat="44.9496824" lon="8.0285748"><ele>231.0</ele><time>2026-04-18T17:15:05.239Z</time></trkpt><trkpt lat="44.949794" lon="8.0284252"><ele>233.25</ele><time>2026-04-18T17:15:06.238Z</time></trkpt><trkpt lat="44.9498527" lon="8.028297"><ele>235.5</ele><time>2026-04-18T17:15:07.238Z</time></trkpt><trkpt lat="44.9499531" lon="8.0281416"><ele>237.75</ele><time>2026-04-18T17:15:08.238Z</time></trkpt><trkpt lat="44.9500675" lon="8.0279914"><ele>240.0</ele><time>2026-04-18T17:15:09.238Z</time></trkpt><trkpt lat="44.9501006" lon="8.0278938"><ele>240.66666666666666</ele><time>2026-04-18T17:15:10.238Z</time></trkpt><trkpt lat="44.9501607" lon="8.0277645"><ele>241.33333333333331</ele><time>2026-04-18T17:15:11.238Z</time></trkpt><trkpt lat="44.9502149" lon="8.0276502"><ele>242.0</ele><time>2026-04-18T17:15:12.238Z</time></trkpt><trkpt lat="44.9502534" lon="8.0275729"><ele>242.66666666666666</ele><time>2026-04-18T17:15:13.239Z</time></trkpt><trkpt lat="44.9502781" lon="8.0274443"><ele>243.33333333333331</ele><time>2026-04-18T17:15:15.238Z</time></trkpt><trkpt lat="44.9502458" lon="8.0273447"><ele>244.0</ele><time>2026-04-18T17:15:18.238Z</time></trkpt><trkpt lat="44.9502089" lon="8.0272587"><ele>243.99999999999997</ele><time>2026-04-18T17:15:20.239Z</time></trkpt><trkpt lat="44.9501849" lon="8.0271268"><ele>244.0</ele><time>2026-04-18T17:15:22.238Z</time></trkpt><trkpt lat="44.9501966" lon="8.027012"><ele>244.0</ele><time>2026-04-18T17:15:24.239Z</time></trkpt><trkpt lat="44.9501876" lon="8.0268912"><ele>244.0</ele><time>2026-04-18T17:15:26.238Z</time></trkpt><trkpt lat="44.9501749" lon="8.0267919"><ele>243.99999999999997</ele><time>2026-04-18T17:15:29.238Z</time></trkpt><trkpt lat="44.9500906" lon="8.0267666"><ele>244.0</ele><time>2026-04-18T17:16:09.238Z</time></trkpt><trkpt lat="44.9500726" lon="8.0268755"><ele>243.99999999999997</ele><time>2026-04-18T17:16:13.238Z</time></trkpt><trkpt lat="44.9500586" lon="8.0270051"><ele>244.0</ele><time>2026-04-18T17:16:16.238Z</time></trkpt><trkpt lat="44.9500454" lon="8.0271077"><ele>244.0</ele><time>2026-04-18T17:16:18.239Z</time></trkpt><trkpt lat="44.9499779" lon="8.0271261"><ele>244.0</ele><time>2026-04-18T17:16:27.238Z</time></trkpt><trkpt lat="44.9500664" lon="8.0270774"><ele>243.99999999999997</ele><time>2026-04-18T17:16:35.238Z</time></trkpt><trkpt lat="44.9500936" lon="8.0269782"><ele>244.0</ele><time>2026-04-18T17:16:57.239Z</time></trkpt><trkpt lat="44.9500842" lon="8.0268609"><ele>244.0</ele><time>2026-04-18T17:18:42.238Z</time></trkpt><trkpt lat="44.950012" lon="8.0268288"><ele>243.99999999999997</ele><time>2026-04-18T17:18:46.238Z</time></trkpt><trkpt lat="44.9499824" lon="8.0267296"><ele>243.99999999999997</ele><time>2026-04-18T17:18:49.239Z</time></trkpt><trkpt lat="44.9497989" lon="8.0265893"><ele>244.0</ele><time>2026-04-18T17:18:51.239Z</time></trkpt><trkpt lat="44.9498323" lon="8.0266694"><ele>244.0</ele><time>2026-04-18T17:18:53.227Z</time></trkpt><trkpt lat="44.9500824" lon="8.0268008"><ele>244.0</ele><time>2026-04-18T17:18:58.227Z</time></trkpt></trkseg></trk></gpx>